<?xml version='1.0' encoding='UTF-8'?><gpx version="1.1" creator="JPX - https://github.com/jenetics/jpx" xmlns="http://www.topografix.com/GPX/1/1"><trk><trkseg><trkpt lat="43.6677308" lon="13.3062488"><ele>1.0</ele><time>2026-04-25T06:37:42.941Z</time></trkpt><trkpt lat="43.6677703" lon="13.3063356"><ele>1.0</ele><time>2026-04-25T06:37:47.946Z</time></trkpt><trkpt lat="43.6677648" lon="13.3065889"><ele>1.0</ele><time>2026-04-25T06:37:48.943Z</time></trkpt><trkpt lat="43.6677282" lon="13.3067932"><ele>1.0</ele><time>2026-04-25T06:37:49.938Z</time></trkpt><trkpt lat="43.6676816" lon="13.3069148"><ele>1.0</ele><time>2026-04-25T06:37:50.944Z</time></trkpt><trkpt lat="43.667629" lon="13.3070372"><ele>1.0</ele><time>2026-04-25T06:37:51.938Z</time></trkpt><trkpt lat="43.6675685" lon="13.3071675"><ele>1.0</ele><time>2026-04-25T06:37:52.94Z</time></trkpt><trkpt lat="43.6675021" lon="13.3073112"><ele>1.0</ele><time>2026-04-25T06:37:53.94Z</time></trkpt><trkpt lat="43.6674231" lon="13.307474"><ele>1.0</ele><time>2026-04-25T06:37:54.947Z</time></trkpt><trkpt lat="43.6673401" lon="13.3076492"><ele>1.0</ele><time>2026-04-25T06:37:55.948Z</time></trkpt><trkpt lat="43.6672548" lon="13.3078257"><ele>1.0</ele><time>2026-04-25T06:37:56.948Z</time></trkpt><trkpt lat="43.6671694" lon="13.3080058"><ele>1.0</ele><time>2026-04-25T06:37:57.951Z</time></trkpt><trkpt lat="43.6670815" lon="13.3081955"><ele>1.0</ele><time>2026-04-25T06:37:58.938Z</time></trkpt><trkpt lat="43.6669895" lon="13.3083878"><ele>1.0</ele><time>2026-04-25T06:37:59.945Z</time></trkpt><trkpt lat="43.6668995" lon="13.3085842"><ele>1.0</ele><time>2026-04-25T06:38:00.942Z</time></trkpt><trkpt lat="43.6668112" lon="13.3087731"><ele>1.0</ele><time>2026-04-25T06:38:01.943Z</time></trkpt><trkpt lat="43.6667239" lon="13.3089583"><ele>1.0</ele><time>2026-04-25T06:38:02.943Z</time></trkpt><trkpt lat="43.6666342" lon="13.3091341"><ele>1.0</ele><time>2026-04-25T06:38:03.944Z</time></trkpt><trkpt lat="43.6665446" lon="13.3093014"><ele>1.0</ele><time>2026-04-25T06:38:04.956Z</time></trkpt><trkpt lat="43.6664646" lon="13.3094578"><ele>1.0</ele><time>2026-04-25T06:38:05.946Z</time></trkpt><trkpt lat="43.6663878" lon="13.3096072"><ele>1.0</ele><time>2026-04-25T06:38:06.944Z</time></trkpt><trkpt lat="43.666316" lon="13.3097452"><ele>0.75</ele><time>2026-04-25T06:38:07.944Z</time></trkpt><trkpt lat="43.6662494" lon="13.3098686"><ele>0.5</ele><time>2026-04-25T06:38:08.951Z</time></trkpt><trkpt lat="43.6661741" lon="13.3099828"><ele>0.25</ele><time>2026-04-25T06:38:09.947Z</time></trkpt><trkpt lat="43.6660849" lon="13.3100884"><ele>0.0</ele><time>2026-04-25T06:38:10.961Z</time></trkpt><trkpt lat="43.6659857" lon="13.3101746"><ele>0.5</ele><time>2026-04-25T06:38:11.946Z</time></trkpt><trkpt lat="43.6658751" lon="13.3102329"><ele>1.0</ele><time>2026-04-25T06:38:12.95Z</time></trkpt><trkpt lat="43.6657516" lon="13.3102527"><ele>1.5</ele><time>2026-04-25T06:38:13.956Z</time></trkpt><trkpt lat="43.6656013" lon="13.3102274"><ele>2.0</ele><time>2026-04-25T06:38:14.949Z</time></trkpt><trkpt lat="43.6654346" lon="13.3101638"><ele>2.333333333333333</ele><time>2026-04-25T06:38:15.954Z</time></trkpt><trkpt lat="43.6652728" lon="13.3100938"><ele>2.6666666666666665</ele><time>2026-04-25T06:38:16.957Z</time></trkpt><trkpt lat="43.665112" lon="13.3100197"><ele>3.0</ele><time>2026-04-25T06:38:17.937Z</time></trkpt><trkpt lat="43.6649464" lon="13.3099613"><ele>3.0</ele><time>2026-04-25T06:38:18.937Z</time></trkpt><trkpt lat="43.6647829" lon="13.3099089"><ele>3.0</ele><time>2026-04-25T06:38:19.949Z</time></trkpt><trkpt lat="43.6646252" lon="13.3098596"><ele>3.0</ele><time>2026-04-25T06:38:20.94Z</time></trkpt><trkpt lat="43.6644682" lon="13.3098078"><ele>4.333333333333334</ele><time>2026-04-25T06:38:21.942Z</time></trkpt><trkpt lat="43.6643089" lon="13.309754"><ele>5.666666666666667</ele><time>2026-04-25T06:38:22.94Z</time></trkpt><trkpt lat="43.6641499" lon="13.3096991"><ele>7.0</ele><time>2026-04-25T06:38:23.942Z</time></trkpt><trkpt lat="43.663986" lon="13.3096483"><ele>7.333333333333334</ele><time>2026-04-25T06:38:24.938Z</time></trkpt><trkpt lat="43.6638201" lon="13.3095957"><ele>7.666666666666666</ele><time>2026-04-25T06:38:25.944Z</time></trkpt><trkpt lat="43.6636506" lon="13.3095439"><ele>8.0</ele><time>2026-04-25T06:38:26.953Z</time></trkpt><trkpt lat="43.6634791" lon="13.3094956"><ele>10.0</ele><time>2026-04-25T06:38:27.946Z</time></trkpt><trkpt lat="43.6633121" lon="13.3094461"><ele>12.0</ele><time>2026-04-25T06:38:28.946Z</time></trkpt><trkpt lat="43.663152" lon="13.3093952"><ele>14.0</ele><time>2026-04-25T06:38:29.948Z</time></trkpt><trkpt lat="43.6629871" lon="13.3093475"><ele>14.0</ele><time>2026-04-25T06:38:30.952Z</time></trkpt><trkpt lat="43.6628251" lon="13.3092992"><ele>14.0</ele><time>2026-04-25T06:38:31.938Z</time></trkpt><trkpt lat="43.6626632" lon="13.3092438"><ele>14.0</ele><time>2026-04-25T06:38:32.949Z</time></trkpt><trkpt lat="43.6624998" lon="13.3091824"><ele>15.666666666666668</ele><time>2026-04-25T06:38:33.942Z</time></trkpt><trkpt lat="43.6623323" lon="13.3091286"><ele>17.333333333333332</ele><time>2026-04-25T06:38:34.961Z</time></trkpt><trkpt lat="43.6621607" lon="13.3090777"><ele>19.0</ele><time>2026-04-25T06:38:35.951Z</time></trkpt><trkpt lat="43.6619929" lon="13.3090219"><ele>21.0</ele><time>2026-04-25T06:38:36.944Z</time></trkpt><trkpt lat="43.6618247" lon="13.3089703"><ele>23.0</ele><time>2026-04-25T06:38:37.946Z</time></trkpt><trkpt lat="43.6616587" lon="13.3089184"><ele>25.0</ele><time>2026-04-25T06:38:38.955Z</time></trkpt><trkpt lat="43.6614961" lon="13.3088678"><ele>25.0</ele><time>2026-04-25T06:38:39.947Z</time></trkpt><trkpt lat="43.6613405" lon="13.3088109"><ele>25.0</ele><time>2026-04-25T06:38:40.959Z</time></trkpt><trkpt lat="43.6611867" lon="13.3087517"><ele>25.0</ele><time>2026-04-25T06:38:41.944Z</time></trkpt><trkpt lat="43.6610302" lon="13.3086927"><ele>28.0</ele><time>2026-04-25T06:38:42.946Z</time></trkpt><trkpt lat="43.6608703" lon="13.3086389"><ele>31.0</ele><time>2026-04-25T06:38:43.945Z</time></trkpt><trkpt lat="43.6607218" lon="13.3085787"><ele>34.0</ele><time>2026-04-25T06:38:44.946Z</time></trkpt><trkpt lat="43.6605753" lon="13.3085375"><ele>34.0</ele><time>2026-04-25T06:38:45.946Z</time></trkpt><trkpt lat="43.6604167" lon="13.3085072"><ele>34.0</ele><time>2026-04-25T06:38:46.959Z</time></trkpt><trkpt lat="43.6602556" lon="13.3084751"><ele>34.0</ele><time>2026-04-25T06:38:47.949Z</time></trkpt><trkpt lat="43.6601037" lon="13.3084266"><ele>38.0</ele><time>2026-04-25T06:38:48.95Z</time></trkpt><trkpt lat="43.6599569" lon="13.3083712"><ele>42.0</ele><time>2026-04-25T06:38:49.947Z</time></trkpt><trkpt lat="43.6598125" lon="13.3083115"><ele>46.0</ele><time>2026-04-25T06:38:50.944Z</time></trkpt><trkpt lat="43.6596716" lon="13.3082517"><ele>46.0</ele><time>2026-04-25T06:38:51.948Z</time></trkpt><trkpt lat="43.6595319" lon="13.3081911"><ele>46.0</ele><time>2026-04-25T06:38:52.951Z</time></trkpt><trkpt lat="43.6593775" lon="13.3081655"><ele>46.0</ele><time>2026-04-25T06:38:53.939Z</time></trkpt><trkpt lat="43.6592184" lon="13.3081446"><ele>49.66666666666667</ele><time>2026-04-25T06:38:54.949Z</time></trkpt><trkpt lat="43.6590559" lon="13.3081293"><ele>53.333333333333336</ele><time>2026-04-25T06:38:55.95Z</time></trkpt><trkpt lat="43.6588885" lon="13.3080974"><ele>57.0</ele><time>2026-04-25T06:38:56.951Z</time></trkpt><trkpt lat="43.6587279" lon="13.3080286"><ele>57.66666666666667</ele><time>2026-04-25T06:38:57.946Z</time></trkpt><trkpt lat="43.6585694" lon="13.3079323"><ele>58.333333333333336</ele><time>2026-04-25T06:38:58.947Z</time></trkpt><trkpt lat="43.6584244" lon="13.3078087"><ele>59.0</ele><time>2026-04-25T06:38:59.945Z</time></trkpt><trkpt lat="43.6582906" lon="13.3076627"><ele>59.0</ele><time>2026-04-25T06:39:00.946Z</time></trkpt><trkpt lat="43.6581609" lon="13.3075076"><ele>59.0</ele><time>2026-04-25T06:39:01.948Z</time></trkpt><trkpt lat="43.6580294" lon="13.3073489"><ele>59.0</ele><time>2026-04-25T06:39:02.943Z</time></trkpt><trkpt lat="43.6578965" lon="13.3071845"><ele>58.0</ele><time>2026-04-25T06:39:03.947Z</time></trkpt><trkpt lat="43.6577643" lon="13.3070223"><ele>57.0</ele><time>2026-04-25T06:39:04.959Z</time></trkpt><trkpt lat="43.6576361" lon="13.3068623"><ele>56.0</ele><time>2026-04-25T06:39:05.943Z</time></trkpt><trkpt lat="43.6575046" lon="13.3067027"><ele>56.0</ele><time>2026-04-25T06:39:06.951Z</time></trkpt><trkpt lat="43.6573692" lon="13.3065502"><ele>56.0</ele><time>2026-04-25T06:39:07.948Z</time></trkpt><trkpt lat="43.6572266" lon="13.3064127"><ele>56.0</ele><time>2026-04-25T06:39:08.949Z</time></trkpt><trkpt lat="43.6570744" lon="13.3062906"><ele>54.333333333333336</ele><time>2026-04-25T06:39:09.947Z</time></trkpt><trkpt lat="43.6569166" lon="13.3061817"><ele>52.66666666666667</ele><time>2026-04-25T06:39:10.962Z</time></trkpt><trkpt lat="43.6567592" lon="13.3060816"><ele>51.0</ele><time>2026-04-25T06:39:11.936Z</time></trkpt><trkpt lat="43.6565991" lon="13.3059872"><ele>51.0</ele><time>2026-04-25T06:39:12.945Z</time></trkpt><trkpt lat="43.65644" lon="13.3058991"><ele>51.0</ele><time>2026-04-25T06:39:13.948Z</time></trkpt><trkpt lat="43.656284" lon="13.3058157"><ele>51.0</ele><time>2026-04-25T06:39:14.953Z</time></trkpt><trkpt lat="43.6561283" lon="13.3057316"><ele>51.33333333333333</ele><time>2026-04-25T06:39:15.948Z</time></trkpt><trkpt lat="43.655974" lon="13.3056415"><ele>51.666666666666664</ele><time>2026-04-25T06:39:16.958Z</time></trkpt><trkpt lat="43.6558225" lon="13.3055484"><ele>52.0</ele><time>2026-04-25T06:39:17.948Z</time></trkpt><trkpt lat="43.6556725" lon="13.3054547"><ele>53.0</ele><time>2026-04-25T06:39:18.935Z</time></trkpt><trkpt lat="43.6555255" lon="13.3053531"><ele>54.0</ele><time>2026-04-25T06:39:19.944Z</time></trkpt><trkpt lat="43.6553765" lon="13.3052593"><ele>55.0</ele><time>2026-04-25T06:39:20.948Z</time></trkpt><trkpt lat="43.6552192" lon="13.3051767"><ele>55.666666666666664</ele><time>2026-04-25T06:39:21.953Z</time></trkpt><trkpt lat="43.6550625" lon="13.3050992"><ele>56.33333333333333</ele><time>2026-04-25T06:39:22.945Z</time></trkpt><trkpt lat="43.6548997" lon="13.3050332"><ele>57.0</ele><time>2026-04-25T06:39:23.953Z</time></trkpt><trkpt lat="43.6547393" lon="13.3049713"><ele>57.0</ele><time>2026-04-25T06:39:24.944Z</time></trkpt><trkpt lat="43.6545738" lon="13.3049168"><ele>57.0</ele><time>2026-04-25T06:39:25.943Z</time></trkpt><trkpt lat="43.6544052" lon="13.3048695"><ele>57.0</ele><time>2026-04-25T06:39:26.951Z</time></trkpt><trkpt lat="43.6542309" lon="13.3048348"><ele>53.666666666666664</ele><time>2026-04-25T06:39:27.946Z</time></trkpt><trkpt lat="43.6540538" lon="13.3048074"><ele>50.33333333333333</ele><time>2026-04-25T06:39:28.947Z</time></trkpt><trkpt lat="43.6538795" lon="13.304781"><ele>47.0</ele><time>2026-04-25T06:39:29.944Z</time></trkpt><trkpt lat="43.6537132" lon="13.3047518"><ele>47.666666666666664</ele><time>2026-04-25T06:39:30.943Z</time></trkpt><trkpt lat="43.6535496" lon="13.3047242"><ele>48.33333333333333</ele><time>2026-04-25T06:39:31.941Z</time></trkpt><trkpt lat="43.6533875" lon="13.3046967"><ele>49.0</ele><time>2026-04-25T06:39:32.944Z</time></trkpt><trkpt lat="43.6532229" lon="13.3046735"><ele>49.0</ele><time>2026-04-25T06:39:33.953Z</time></trkpt><trkpt lat="43.653061" lon="13.3046527"><ele>49.0</ele><time>2026-04-25T06:39:34.957Z</time></trkpt><trkpt lat="43.6528997" lon="13.3046301"><ele>49.0</ele><time>2026-04-25T06:39:35.952Z</time></trkpt><trkpt lat="43.6527417" lon="13.3046002"><ele>48.666666666666664</ele><time>2026-04-25T06:39:36.949Z</time></trkpt><trkpt lat="43.6525822" lon="13.3045563"><ele>48.33333333333333</ele><time>2026-04-25T06:39:37.945Z</time></trkpt><trkpt lat="43.6524247" lon="13.3045124"><ele>48.0</ele><time>2026-04-25T06:39:38.944Z</time></trkpt><trkpt lat="43.6522715" lon="13.3044726"><ele>48.0</ele><time>2026-04-25T06:39:39.944Z</time></trkpt><trkpt lat="43.6521196" lon="13.3044258"><ele>48.0</ele><time>2026-04-25T06:39:40.964Z</time></trkpt><trkpt lat="43.6519659" lon="13.3043829"><ele>48.0</ele><time>2026-04-25T06:39:41.944Z</time></trkpt><trkpt lat="43.6518076" lon="13.30435"><ele>43.333333333333336</ele><time>2026-04-25T06:39:42.943Z</time></trkpt><trkpt lat="43.6516464" lon="13.3043187"><ele>38.66666666666667</ele><time>2026-04-25T06:39:43.948Z</time></trkpt><trkpt lat="43.6514839" lon="13.3042884"><ele>34.0</ele><time>2026-04-25T06:39:44.944Z</time></trkpt><trkpt lat="43.651317" lon="13.3042516"><ele>34.0</ele><time>2026-04-25T06:39:45.943Z</time></trkpt><trkpt lat="43.651145" lon="13.30421"><ele>34.0</ele><time>2026-04-25T06:39:46.957Z</time></trkpt><trkpt lat="43.65097" lon="13.3041767"><ele>34.0</ele><time>2026-04-25T06:39:47.947Z</time></trkpt><trkpt lat="43.6507917" lon="13.304135"><ele>30.333333333333336</ele><time>2026-04-25T06:39:48.945Z</time></trkpt><trkpt lat="43.6506133" lon="13.3040883"><ele>26.666666666666668</ele><time>2026-04-25T06:39:49.945Z</time></trkpt><trkpt lat="43.65044" lon="13.304035"><ele>23.0</ele><time>2026-04-25T06:39:50.95Z</time></trkpt><trkpt lat="43.6502683" lon="13.303985"><ele>21.333333333333336</ele><time>2026-04-25T06:39:51.945Z</time></trkpt><trkpt lat="43.6501" lon="13.3039433"><ele>19.666666666666668</ele><time>2026-04-25T06:39:53.017Z</time></trkpt><trkpt lat="43.64993" lon="13.3039083"><ele>18.0</ele><time>2026-04-25T06:39:53.946Z</time></trkpt><trkpt lat="43.649765" lon="13.3038817"><ele>18.0</ele><time>2026-04-25T06:39:54.937Z</time></trkpt><trkpt lat="43.6496017" lon="13.3038583"><ele>18.0</ele><time>2026-04-25T06:39:55.938Z</time></trkpt><trkpt lat="43.6494417" lon="13.303835"><ele>18.0</ele><time>2026-04-25T06:39:56.947Z</time></trkpt><trkpt lat="43.6492883" lon="13.303815"><ele>18.0</ele><time>2026-04-25T06:39:57.944Z</time></trkpt><trkpt lat="43.649145" lon="13.3038083"><ele>18.0</ele><time>2026-04-25T06:39:58.949Z</time></trkpt><trkpt lat="43.649005" lon="13.3038"><ele>18.0</ele><time>2026-04-25T06:39:59.945Z</time></trkpt><trkpt lat="43.648875" lon="13.3038033"><ele>18.0</ele><time>2026-04-25T06:40:00.946Z</time></trkpt><trkpt lat="43.6487467" lon="13.3038267"><ele>18.75</ele><time>2026-04-25T06:40:01.947Z</time></trkpt><trkpt lat="43.6486167" lon="13.3038783"><ele>19.5</ele><time>2026-04-25T06:40:02.943Z</time></trkpt><trkpt lat="43.6484883" lon="13.30396"><ele>20.25</ele><time>2026-04-25T06:40:03.95Z</time></trkpt><trkpt lat="43.648375" lon="13.304075"><ele>21.0</ele><time>2026-04-25T06:40:04.958Z</time></trkpt><trkpt lat="43.648275" lon="13.304225"><ele>21.0</ele><time>2026-04-25T06:40:05.947Z</time></trkpt><trkpt lat="43.648185" lon="13.3044017"><ele>21.0</ele><time>2026-04-25T06:40:06.947Z</time></trkpt><trkpt lat="43.648105" lon="13.3046067"><ele>21.0</ele><time>2026-04-25T06:40:07.949Z</time></trkpt><trkpt lat="43.6480233" lon="13.3048333"><ele>21.333333333333332</ele><time>2026-04-25T06:40:08.955Z</time></trkpt><trkpt lat="43.6479367" lon="13.30507"><ele>21.666666666666664</ele><time>2026-04-25T06:40:09.954Z</time></trkpt><trkpt lat="43.6478567" lon="13.3053083"><ele>22.0</ele><time>2026-04-25T06:40:10.956Z</time></trkpt><trkpt lat="43.6477783" lon="13.3055417"><ele>21.0</ele><time>2026-04-25T06:40:11.945Z</time></trkpt><trkpt lat="43.647705" lon="13.30577"><ele>20.0</ele><time>2026-04-25T06:40:12.942Z</time></trkpt><trkpt lat="43.6476267" lon="13.3059967"><ele>19.0</ele><time>2026-04-25T06:40:13.947Z</time></trkpt><trkpt lat="43.6475433" lon="13.30622"><ele>19.0</ele><time>2026-04-25T06:40:14.952Z</time></trkpt><trkpt lat="43.6474533" lon="13.3064383"><ele>19.0</ele><time>2026-04-25T06:40:15.946Z</time></trkpt><trkpt lat="43.6473583" lon="13.3066517"><ele>19.0</ele><time>2026-04-25T06:40:16.962Z</time></trkpt><trkpt lat="43.6472594" lon="13.3068575"><ele>19.0</ele><time>2026-04-25T06:40:17.945Z</time></trkpt><trkpt lat="43.6471478" lon="13.3070525"><ele>19.0</ele><time>2026-04-25T06:40:18.947Z</time></trkpt><trkpt lat="43.6470309" lon="13.3072302"><ele>19.0</ele><time>2026-04-25T06:40:19.937Z</time></trkpt><trkpt lat="43.6469079" lon="13.3073975"><ele>18.666666666666664</ele><time>2026-04-25T06:40:20.944Z</time></trkpt><trkpt lat="43.6467783" lon="13.3075581"><ele>18.333333333333332</ele><time>2026-04-25T06:40:21.95Z</time></trkpt><trkpt lat="43.6466433" lon="13.3077141"><ele>18.0</ele><time>2026-04-25T06:40:22.948Z</time></trkpt><trkpt lat="43.6465074" lon="13.3078654"><ele>18.0</ele><time>2026-04-25T06:40:23.946Z</time></trkpt><trkpt lat="43.6463718" lon="13.3080187"><ele>18.0</ele><time>2026-04-25T06:40:24.947Z</time></trkpt><trkpt lat="43.6462365" lon="13.3081674"><ele>18.0</ele><time>2026-04-25T06:40:25.946Z</time></trkpt><trkpt lat="43.6461038" lon="13.3083157"><ele>19.0</ele><time>2026-04-25T06:40:26.948Z</time></trkpt><trkpt lat="43.6459724" lon="13.3084665"><ele>20.0</ele><time>2026-04-25T06:40:27.946Z</time></trkpt><trkpt lat="43.6458416" lon="13.3086165"><ele>21.0</ele><time>2026-04-25T06:40:28.948Z</time></trkpt><trkpt lat="43.6457093" lon="13.3087642"><ele>21.0</ele><time>2026-04-25T06:40:29.953Z</time></trkpt><trkpt lat="43.6455784" lon="13.3089077"><ele>21.0</ele><time>2026-04-25T06:40:30.956Z</time></trkpt><trkpt lat="43.6454488" lon="13.3090426"><ele>21.0</ele><time>2026-04-25T06:40:31.945Z</time></trkpt><trkpt lat="43.6453109" lon="13.309166"><ele>23.0</ele><time>2026-04-25T06:40:32.955Z</time></trkpt><trkpt lat="43.6451614" lon="13.3092713"><ele>25.0</ele><time>2026-04-25T06:40:33.95Z</time></trkpt><trkpt lat="43.6450025" lon="13.3093494"><ele>27.0</ele><time>2026-04-25T06:40:34.962Z</time></trkpt><trkpt lat="43.6448346" lon="13.3093833"><ele>27.0</ele><time>2026-04-25T06:40:35.95Z</time></trkpt><trkpt lat="43.6446617" lon="13.3093854"><ele>27.0</ele><time>2026-04-25T06:40:36.946Z</time></trkpt><trkpt lat="43.6444857" lon="13.3093752"><ele>27.0</ele><time>2026-04-25T06:40:37.949Z</time></trkpt><trkpt lat="43.6443115" lon="13.3093615"><ele>29.333333333333336</ele><time>2026-04-25T06:40:38.947Z</time></trkpt><trkpt lat="43.6441351" lon="13.3093513"><ele>31.666666666666668</ele><time>2026-04-25T06:40:39.947Z</time></trkpt><trkpt lat="43.6439576" lon="13.3093385"><ele>34.0</ele><time>2026-04-25T06:40:40.962Z</time></trkpt><trkpt lat="43.6437822" lon="13.3093232"><ele>37.0</ele><time>2026-04-25T06:40:41.944Z</time></trkpt><trkpt lat="43.6436081" lon="13.3093065"><ele>40.0</ele><time>2026-04-25T06:40:42.949Z</time></trkpt><trkpt lat="43.643432" lon="13.3092919"><ele>43.0</ele><time>2026-04-25T06:40:43.95Z</time></trkpt><trkpt lat="43.6432653" lon="13.3092653"><ele>43.0</ele><time>2026-04-25T06:40:44.947Z</time></trkpt><trkpt lat="43.6431021" lon="13.309225"><ele>43.0</ele><time>2026-04-25T06:40:45.946Z</time></trkpt><trkpt lat="43.6429357" lon="13.3091782"><ele>43.0</ele><time>2026-04-25T06:40:46.964Z</time></trkpt><trkpt lat="43.6427736" lon="13.3091205"><ele>46.66666666666667</ele><time>2026-04-25T06:40:47.945Z</time></trkpt><trkpt lat="43.6426115" lon="13.3090464"><ele>50.333333333333336</ele><time>2026-04-25T06:40:48.949Z</time></trkpt><trkpt lat="43.6424587" lon="13.3089467"><ele>54.0</ele><time>2026-04-25T06:40:49.939Z</time></trkpt><trkpt lat="43.6423087" lon="13.3088379"><ele>55.66666666666667</ele><time>2026-04-25T06:40:50.949Z</time></trkpt><trkpt lat="43.6421617" lon="13.3087316"><ele>57.333333333333336</ele><time>2026-04-25T06:40:51.946Z</time></trkpt><trkpt lat="43.6420152" lon="13.3086374"><ele>59.0</ele><time>2026-04-25T06:40:52.95Z</time></trkpt><trkpt lat="43.6418636" lon="13.3085602"><ele>62.333333333333336</ele><time>2026-04-25T06:40:53.952Z</time></trkpt><trkpt lat="43.6417042" lon="13.3085015"><ele>65.66666666666667</ele><time>2026-04-25T06:40:54.946Z</time></trkpt><trkpt lat="43.6415404" lon="13.3084604"><ele>69.0</ele><time>2026-04-25T06:40:55.949Z</time></trkpt><trkpt lat="43.641374" lon="13.3084286"><ele>69.0</ele><time>2026-04-25T06:40:56.953Z</time></trkpt><trkpt lat="43.6412089" lon="13.3084036"><ele>69.0</ele><time>2026-04-25T06:40:57.947Z</time></trkpt><trkpt lat="43.6410476" lon="13.3083809"><ele>69.0</ele><time>2026-04-25T06:40:58.937Z</time></trkpt><trkpt lat="43.6408974" lon="13.3083534"><ele>71.5</ele><time>2026-04-25T06:40:59.946Z</time></trkpt><trkpt lat="43.6407677" lon="13.3083167"><ele>74.0</ele><time>2026-04-25T06:41:00.947Z</time></trkpt><trkpt lat="43.6406529" lon="13.3082634"><ele>76.5</ele><time>2026-04-25T06:41:01.948Z</time></trkpt><trkpt lat="43.640562" lon="13.3081645"><ele>79.0</ele><time>2026-04-25T06:41:02.937Z</time></trkpt><trkpt lat="43.6404906" lon="13.3080296"><ele>79.25</ele><time>2026-04-25T06:41:03.947Z</time></trkpt><trkpt lat="43.6404521" lon="13.3078576"><ele>79.5</ele><time>2026-04-25T06:41:04.962Z</time></trkpt><trkpt lat="43.640422" lon="13.307678"><ele>79.75</ele><time>2026-04-25T06:41:05.947Z</time></trkpt><trkpt lat="43.6403865" lon="13.307519"><ele>80.0</ele><time>2026-04-25T06:41:06.946Z</time></trkpt><trkpt lat="43.6403426" lon="13.3073876"><ele>82.0</ele><time>2026-04-25T06:41:07.957Z</time></trkpt><trkpt lat="43.6402937" lon="13.3073196"><ele>84.0</ele><time>2026-04-25T06:41:08.945Z</time></trkpt><trkpt lat="43.6402111" lon="13.3072433"><ele>86.0</ele><time>2026-04-25T06:41:10.966Z</time></trkpt><trkpt lat="43.6401183" lon="13.3072383"><ele>88.0</ele><time>2026-04-25T06:41:13.95Z</time></trkpt><trkpt lat="43.6400067" lon="13.307205"><ele>90.0</ele><time>2026-04-25T06:41:15.949Z</time></trkpt><trkpt lat="43.639925" lon="13.3071733"><ele>90.0</ele><time>2026-04-25T06:41:16.961Z</time></trkpt><trkpt lat="43.6398383" lon="13.3071433"><ele>90.0</ele><time>2026-04-25T06:41:17.944Z</time></trkpt><trkpt lat="43.639735" lon="13.3071033"><ele>90.0</ele><time>2026-04-25T06:41:18.945Z</time></trkpt><trkpt lat="43.6396233" lon="13.307055"><ele>90.0</ele><time>2026-04-25T06:41:19.947Z</time></trkpt><trkpt lat="43.6395133" lon="13.307005"><ele>90.0</ele><time>2026-04-25T06:41:20.942Z</time></trkpt><trkpt lat="43.6394" lon="13.306965"><ele>88.2</ele><time>2026-04-25T06:41:21.948Z</time></trkpt><trkpt lat="43.6393083" lon="13.3069217"><ele>86.4</ele><time>2026-04-25T06:41:22.94Z</time></trkpt><trkpt lat="43.6392167" lon="13.3068683"><ele>84.6</ele><time>2026-04-25T06:41:23.947Z</time></trkpt><trkpt lat="43.6391067" lon="13.3068383"><ele>82.8</ele><time>2026-04-25T06:41:24.944Z</time></trkpt><trkpt lat="43.6390017" lon="13.3068067"><ele>81.0</ele><time>2026-04-25T06:41:25.949Z</time></trkpt><trkpt lat="43.6389017" lon="13.306765"><ele>81.0</ele><time>2026-04-25T06:41:26.949Z</time></trkpt><trkpt lat="43.6387983" lon="13.30673"><ele>81.0</ele><time>2026-04-25T06:41:27.942Z</time></trkpt><trkpt lat="43.638695" lon="13.30669"><ele>81.0</ele><time>2026-04-25T06:41:28.946Z</time></trkpt><trkpt lat="43.6385983" lon="13.3066433"><ele>81.0</ele><time>2026-04-25T06:41:29.945Z</time></trkpt><trkpt lat="43.63851" lon="13.3066067"><ele>81.0</ele><time>2026-04-25T06:41:30.944Z</time></trkpt><trkpt lat="43.6384333" lon="13.306575"><ele>79.66666666666667</ele><time>2026-04-25T06:41:31.947Z</time></trkpt><trkpt lat="43.638365" lon="13.3065517"><ele>78.33333333333333</ele><time>2026-04-25T06:41:32.95Z</time></trkpt><trkpt lat="43.6382467" lon="13.3065233"><ele>77.0</ele><time>2026-04-25T06:41:34.962Z</time></trkpt><trkpt lat="43.63816" lon="13.3064867"><ele>75.66666666666666</ele><time>2026-04-25T06:41:36.949Z</time></trkpt><trkpt lat="43.6380867" lon="13.3064883"><ele>74.33333333333333</ele><time>2026-04-25T06:42:11.946Z</time></trkpt><trkpt lat="43.638005" lon="13.3064233"><ele>73.0</ele><time>2026-04-25T06:42:13.95Z</time></trkpt><trkpt lat="43.6379467" lon="13.3063783"><ele>73.0</ele><time>2026-04-25T06:42:14.946Z</time></trkpt><trkpt lat="43.6378583" lon="13.30633"><ele>73.0</ele><time>2026-04-25T06:42:15.952Z</time></trkpt><trkpt lat="43.637745" lon="13.3062767"><ele>73.0</ele><time>2026-04-25T06:42:16.971Z</time></trkpt><trkpt lat="43.6376217" lon="13.30622"><ele>73.0</ele><time>2026-04-25T06:42:17.95Z</time></trkpt><trkpt lat="43.637485" lon="13.306165"><ele>69.66666666666666</ele><time>2026-04-25T06:42:18.947Z</time></trkpt><trkpt lat="43.6373317" lon="13.30611"><ele>66.33333333333333</ele><time>2026-04-25T06:42:19.95Z</time></trkpt><trkpt lat="43.6371767" lon="13.30605"><ele>63.0</ele><time>2026-04-25T06:42:20.948Z</time></trkpt><trkpt lat="43.6370167" lon="13.3059883"><ele>60.0</ele><time>2026-04-25T06:42:21.946Z</time></trkpt><trkpt lat="43.63685" lon="13.3059167"><ele>57.0</ele><time>2026-04-25T06:42:23.01Z</time></trkpt><trkpt lat="43.63667" lon="13.305845"><ele>54.0</ele><time>2026-04-25T06:42:23.948Z</time></trkpt><trkpt lat="43.6364833" lon="13.30577"><ele>54.0</ele><time>2026-04-25T06:42:24.939Z</time></trkpt><trkpt lat="43.63629" lon="13.3056917"><ele>54.0</ele><time>2026-04-25T06:42:25.936Z</time></trkpt><trkpt lat="43.6360983" lon="13.3056067"><ele>54.0</ele><time>2026-04-25T06:42:26.947Z</time></trkpt><trkpt lat="43.6359067" lon="13.3055267"><ele>52.33333333333333</ele><time>2026-04-25T06:42:27.941Z</time></trkpt><trkpt lat="43.6357117" lon="13.30544"><ele>50.666666666666664</ele><time>2026-04-25T06:42:28.949Z</time></trkpt><trkpt lat="43.6355167" lon="13.3053617"><ele>49.0</ele><time>2026-04-25T06:42:29.942Z</time></trkpt><trkpt lat="43.63532" lon="13.3052833"><ele>49.33333333333333</ele><time>2026-04-25T06:42:30.948Z</time></trkpt><trkpt lat="43.6351267" lon="13.3051983"><ele>49.66666666666667</ele><time>2026-04-25T06:42:31.944Z</time></trkpt><trkpt lat="43.63493" lon="13.3051067"><ele>50.0</ele><time>2026-04-25T06:42:32.946Z</time></trkpt><trkpt lat="43.63473" lon="13.3050167"><ele>50.0</ele><time>2026-04-25T06:42:33.944Z</time></trkpt><trkpt lat="43.6345283" lon="13.30493"><ele>50.0</ele><time>2026-04-25T06:42:34.96Z</time></trkpt><trkpt lat="43.6343317" lon="13.3048383"><ele>50.0</ele><time>2026-04-25T06:42:35.942Z</time></trkpt><trkpt lat="43.6341367" lon="13.3047483"><ele>54.0</ele><time>2026-04-25T06:42:36.947Z</time></trkpt><trkpt lat="43.6339517" lon="13.3046517"><ele>58.0</ele><time>2026-04-25T06:42:37.943Z</time></trkpt><trkpt lat="43.6337683" lon="13.3045667"><ele>62.0</ele><time>2026-04-25T06:42:38.949Z</time></trkpt><trkpt lat="43.6335833" lon="13.3044833"><ele>62.0</ele><time>2026-04-25T06:42:39.951Z</time></trkpt><trkpt lat="43.63339" lon="13.3044"><ele>62.0</ele><time>2026-04-25T06:42:40.971Z</time></trkpt><trkpt lat="43.6331867" lon="13.3043133"><ele>62.0</ele><time>2026-04-25T06:42:41.944Z</time></trkpt><trkpt lat="43.63299" lon="13.3042317"><ele>60.333333333333336</ele><time>2026-04-25T06:42:42.948Z</time></trkpt><trkpt lat="43.632795" lon="13.3041467"><ele>58.66666666666667</ele><time>2026-04-25T06:42:43.952Z</time></trkpt><trkpt lat="43.6326" lon="13.30407"><ele>57.0</ele><time>2026-04-25T06:42:44.948Z</time></trkpt><trkpt lat="43.6324067" lon="13.30399"><ele>57.0</ele><time>2026-04-25T06:42:45.945Z</time></trkpt><trkpt lat="43.6322167" lon="13.3039067"><ele>57.0</ele><time>2026-04-25T06:42:46.971Z</time></trkpt><trkpt lat="43.6320233" lon="13.3038267"><ele>57.0</ele><time>2026-04-25T06:42:47.947Z</time></trkpt><trkpt lat="43.6318317" lon="13.30374"><ele>55.66666666666667</ele><time>2026-04-25T06:42:48.951Z</time></trkpt><trkpt lat="43.6316383" lon="13.3036667"><ele>54.333333333333336</ele><time>2026-04-25T06:42:49.947Z</time></trkpt><trkpt lat="43.6314483" lon="13.3035817"><ele>53.0</ele><time>2026-04-25T06:42:50.947Z</time></trkpt><trkpt lat="43.6312633" lon="13.3034967"><ele>52.333333333333336</ele><time>2026-04-25T06:42:51.948Z</time></trkpt><trkpt lat="43.6310733" lon="13.3034183"><ele>51.66666666666667</ele><time>2026-04-25T06:42:53.001Z</time></trkpt><trkpt lat="43.630885" lon="13.3033433"><ele>51.0</ele><time>2026-04-25T06:42:53.936Z</time></trkpt><trkpt lat="43.6306983" lon="13.30327"><ele>51.0</ele><time>2026-04-25T06:42:54.943Z</time></trkpt><trkpt lat="43.6305133" lon="13.3031967"><ele>51.0</ele><time>2026-04-25T06:42:55.953Z</time></trkpt><trkpt lat="43.6303333" lon="13.303125"><ele>51.0</ele><time>2026-04-25T06:42:56.946Z</time></trkpt><trkpt lat="43.6301583" lon="13.3030583"><ele>47.666666666666664</ele><time>2026-04-25T06:42:57.949Z</time></trkpt><trkpt lat="43.6299867" lon="13.30299"><ele>44.33333333333333</ele><time>2026-04-25T06:42:58.946Z</time></trkpt><trkpt lat="43.62982" lon="13.3029183"><ele>41.0</ele><time>2026-04-25T06:42:59.949Z</time></trkpt><trkpt lat="43.6296617" lon="13.302845"><ele>41.0</ele><time>2026-04-25T06:43:00.948Z</time></trkpt><trkpt lat="43.6295117" lon="13.30275"><ele>41.0</ele><time>2026-04-25T06:43:01.947Z</time></trkpt><trkpt lat="43.6293733" lon="13.3026183"><ele>41.0</ele><time>2026-04-25T06:43:02.954Z</time></trkpt><trkpt lat="43.62924" lon="13.3024667"><ele>40.0</ele><time>2026-04-25T06:43:03.947Z</time></trkpt><trkpt lat="43.629115" lon="13.3022917"><ele>39.0</ele><time>2026-04-25T06:43:04.975Z</time></trkpt><trkpt lat="43.6289883" lon="13.3021083"><ele>38.0</ele><time>2026-04-25T06:43:05.948Z</time></trkpt><trkpt lat="43.62886" lon="13.3019317"><ele>37.666666666666664</ele><time>2026-04-25T06:43:06.945Z</time></trkpt><trkpt lat="43.6287283" lon="13.301765"><ele>37.333333333333336</ele><time>2026-04-25T06:43:07.949Z</time></trkpt><trkpt lat="43.6285883" lon="13.3016283"><ele>37.0</ele><time>2026-04-25T06:43:08.95Z</time></trkpt><trkpt lat="43.6284367" lon="13.3015367"><ele>36.66666666666667</ele><time>2026-04-25T06:43:09.948Z</time></trkpt><trkpt lat="43.62827" lon="13.3014967"><ele>36.333333333333336</ele><time>2026-04-25T06:43:10.979Z</time></trkpt><trkpt lat="43.6280867" lon="13.3015033"><ele>36.0</ele><time>2026-04-25T06:43:11.949Z</time></trkpt><trkpt lat="43.6278933" lon="13.30154"><ele>36.333333333333336</ele><time>2026-04-25T06:43:12.948Z</time></trkpt><trkpt lat="43.6277" lon="13.3015817"><ele>36.66666666666667</ele><time>2026-04-25T06:43:13.959Z</time></trkpt><trkpt lat="43.6275083" lon="13.3016233"><ele>37.0</ele><time>2026-04-25T06:43:14.94Z</time></trkpt><trkpt lat="43.6273183" lon="13.301655"><ele>37.0</ele><time>2026-04-25T06:43:15.94Z</time></trkpt><trkpt lat="43.62713" lon="13.3016817"><ele>37.0</ele><time>2026-04-25T06:43:16.98Z</time></trkpt><trkpt lat="43.6269483" lon="13.3017083"><ele>37.0</ele><time>2026-04-25T06:43:17.948Z</time></trkpt><trkpt lat="43.626765" lon="13.3017417"><ele>38.66666666666667</ele><time>2026-04-25T06:43:18.943Z</time></trkpt><trkpt lat="43.6265867" lon="13.301775"><ele>40.333333333333336</ele><time>2026-04-25T06:43:19.95Z</time></trkpt><trkpt lat="43.6264117" lon="13.3018"><ele>42.0</ele><time>2026-04-25T06:43:20.949Z</time></trkpt><trkpt lat="43.62625" lon="13.3018183"><ele>43.0</ele><time>2026-04-25T06:43:21.949Z</time></trkpt><trkpt lat="43.62609" lon="13.3018367"><ele>44.0</ele><time>2026-04-25T06:43:22.95Z</time></trkpt><trkpt lat="43.62593" lon="13.30184"><ele>45.0</ele><time>2026-04-25T06:43:23.947Z</time></trkpt><trkpt lat="43.62577" lon="13.3017883"><ele>45.0</ele><time>2026-04-25T06:43:24.948Z</time></trkpt><trkpt lat="43.6256217" lon="13.3017167"><ele>45.0</ele><time>2026-04-25T06:43:25.947Z</time></trkpt><trkpt lat="43.625475" lon="13.3016267"><ele>45.0</ele><time>2026-04-25T06:43:26.947Z</time></trkpt><trkpt lat="43.6253283" lon="13.3015167"><ele>45.0</ele><time>2026-04-25T06:43:27.95Z</time></trkpt><trkpt lat="43.6251883" lon="13.3013783"><ele>45.0</ele><time>2026-04-25T06:43:28.948Z</time></trkpt><trkpt lat="43.6250517" lon="13.30122"><ele>45.0</ele><time>2026-04-25T06:43:29.945Z</time></trkpt><trkpt lat="43.6249067" lon="13.3010767"><ele>45.0</ele><time>2026-04-25T06:43:30.951Z</time></trkpt><trkpt lat="43.6247633" lon="13.3009267"><ele>45.0</ele><time>2026-04-25T06:43:31.946Z</time></trkpt><trkpt lat="43.6246167" lon="13.3007767"><ele>45.0</ele><time>2026-04-25T06:43:32.951Z</time></trkpt><trkpt lat="43.6244683" lon="13.300635"><ele>44.333333333333336</ele><time>2026-04-25T06:43:33.942Z</time></trkpt><trkpt lat="43.6243217" lon="13.3004883"><ele>43.66666666666667</ele><time>2026-04-25T06:43:34.976Z</time></trkpt><trkpt lat="43.62417" lon="13.3003433"><ele>43.0</ele><time>2026-04-25T06:43:35.946Z</time></trkpt><trkpt lat="43.6240133" lon="13.300205"><ele>43.0</ele><time>2026-04-25T06:43:36.948Z</time></trkpt><trkpt lat="43.6238567" lon="13.300075"><ele>43.0</ele><time>2026-04-25T06:43:37.955Z</time></trkpt><trkpt lat="43.6237033" lon="13.2999483"><ele>43.0</ele><time>2026-04-25T06:43:38.948Z</time></trkpt><trkpt lat="43.6235517" lon="13.299825"><ele>43.0</ele><time>2026-04-25T06:43:39.949Z</time></trkpt><trkpt lat="43.6233983" lon="13.2997083"><ele>43.0</ele><time>2026-04-25T06:43:40.978Z</time></trkpt><trkpt lat="43.623235" lon="13.2996033"><ele>43.0</ele><time>2026-04-25T06:43:41.945Z</time></trkpt><trkpt lat="43.6230633" lon="13.299505"><ele>43.0</ele><time>2026-04-25T06:43:42.95Z</time></trkpt><trkpt lat="43.6228933" lon="13.2994"><ele>43.0</ele><time>2026-04-25T06:43:43.949Z</time></trkpt><trkpt lat="43.6227317" lon="13.2992767"><ele>43.0</ele><time>2026-04-25T06:43:44.948Z</time></trkpt><trkpt lat="43.6225717" lon="13.29914"><ele>43.0</ele><time>2026-04-25T06:43:45.951Z</time></trkpt><trkpt lat="43.6224117" lon="13.2989967"><ele>43.0</ele><time>2026-04-25T06:43:46.975Z</time></trkpt><trkpt lat="43.6222517" lon="13.2988483"><ele>43.0</ele><time>2026-04-25T06:43:47.944Z</time></trkpt><trkpt lat="43.622095" lon="13.2986967"><ele>42.66666666666667</ele><time>2026-04-25T06:43:48.947Z</time></trkpt><trkpt lat="43.6219417" lon="13.2985417"><ele>42.333333333333336</ele><time>2026-04-25T06:43:49.946Z</time></trkpt><trkpt lat="43.6217917" lon="13.2983933"><ele>42.0</ele><time>2026-04-25T06:43:50.95Z</time></trkpt><trkpt lat="43.6216383" lon="13.2982467"><ele>42.0</ele><time>2026-04-25T06:43:51.947Z</time></trkpt><trkpt lat="43.621485" lon="13.2980983"><ele>42.0</ele><time>2026-04-25T06:43:52.952Z</time></trkpt><trkpt lat="43.6213267" lon="13.297955"><ele>42.0</ele><time>2026-04-25T06:43:53.938Z</time></trkpt><trkpt lat="43.6211717" lon="13.2978083"><ele>42.333333333333336</ele><time>2026-04-25T06:43:54.944Z</time></trkpt><trkpt lat="43.621015" lon="13.29767"><ele>42.66666666666667</ele><time>2026-04-25T06:43:55.947Z</time></trkpt><trkpt lat="43.6208617" lon="13.2975317"><ele>43.0</ele><time>2026-04-25T06:43:56.956Z</time></trkpt><trkpt lat="43.6207083" lon="13.2973917"><ele>42.66666666666667</ele><time>2026-04-25T06:43:57.946Z</time></trkpt><trkpt lat="43.6205567" lon="13.2972517"><ele>42.333333333333336</ele><time>2026-04-25T06:43:58.949Z</time></trkpt><trkpt lat="43.620405" lon="13.2971133"><ele>42.0</ele><time>2026-04-25T06:43:59.946Z</time></trkpt><trkpt lat="43.6202533" lon="13.2969733"><ele>42.0</ele><time>2026-04-25T06:44:00.946Z</time></trkpt><trkpt lat="43.6201017" lon="13.296835"><ele>42.0</ele><time>2026-04-25T06:44:01.946Z</time></trkpt><trkpt lat="43.619945" lon="13.2967133"><ele>42.0</ele><time>2026-04-25T06:44:02.947Z</time></trkpt><trkpt lat="43.6197767" lon="13.2966233"><ele>42.0</ele><time>2026-04-25T06:44:03.951Z</time></trkpt><trkpt lat="43.6195967" lon="13.2965483"><ele>42.0</ele><time>2026-04-25T06:44:04.979Z</time></trkpt><trkpt lat="43.6194183" lon="13.2964717"><ele>42.0</ele><time>2026-04-25T06:44:05.946Z</time></trkpt><trkpt lat="43.61924" lon="13.2963983"><ele>42.666666666666664</ele><time>2026-04-25T06:44:06.952Z</time></trkpt><trkpt lat="43.61906" lon="13.296325"><ele>43.33333333333333</ele><time>2026-04-25T06:44:07.958Z</time></trkpt><trkpt lat="43.61888" lon="13.29625"><ele>44.0</ele><time>2026-04-25T06:44:08.95Z</time></trkpt><trkpt lat="43.6186967" lon="13.2961833"><ele>43.666666666666664</ele><time>2026-04-25T06:44:09.956Z</time></trkpt><trkpt lat="43.618515" lon="13.2961133"><ele>43.333333333333336</ele><time>2026-04-25T06:44:10.979Z</time></trkpt><trkpt lat="43.6183333" lon="13.29604"><ele>43.0</ele><time>2026-04-25T06:44:11.947Z</time></trkpt><trkpt lat="43.618155" lon="13.295965"><ele>43.0</ele><time>2026-04-25T06:44:12.947Z</time></trkpt><trkpt lat="43.617975" lon="13.29589"><ele>43.0</ele><time>2026-04-25T06:44:13.95Z</time></trkpt><trkpt lat="43.61779" lon="13.2958233"><ele>43.0</ele><time>2026-04-25T06:44:14.955Z</time></trkpt><trkpt lat="43.6176083" lon="13.29575"><ele>43.0</ele><time>2026-04-25T06:44:15.945Z</time></trkpt><trkpt lat="43.6174267" lon="13.2956767"><ele>43.0</ele><time>2026-04-25T06:44:16.979Z</time></trkpt><trkpt lat="43.617245" lon="13.2955983"><ele>43.0</ele><time>2026-04-25T06:44:17.938Z</time></trkpt><trkpt lat="43.6170617" lon="13.2955217"><ele>43.0</ele><time>2026-04-25T06:44:18.942Z</time></trkpt><trkpt lat="43.6168717" lon="13.2954517"><ele>43.0</ele><time>2026-04-25T06:44:19.948Z</time></trkpt><trkpt lat="43.6166833" lon="13.2953817"><ele>43.0</ele><time>2026-04-25T06:44:20.946Z</time></trkpt><trkpt lat="43.6164983" lon="13.29531"><ele>43.0</ele><time>2026-04-25T06:44:21.95Z</time></trkpt><trkpt lat="43.61632" lon="13.2952367"><ele>43.0</ele><time>2026-04-25T06:44:22.945Z</time></trkpt><trkpt lat="43.6161433" lon="13.2951633"><ele>43.0</ele><time>2026-04-25T06:44:23.943Z</time></trkpt><trkpt lat="43.6159667" lon="13.2950867"><ele>41.66666666666667</ele><time>2026-04-25T06:44:24.949Z</time></trkpt><trkpt lat="43.6157867" lon="13.2950117"><ele>40.333333333333336</ele><time>2026-04-25T06:44:25.946Z</time></trkpt><trkpt lat="43.615605" lon="13.2949383"><ele>39.0</ele><time>2026-04-25T06:44:26.94Z</time></trkpt><trkpt lat="43.6154233" lon="13.2948633"><ele>38.333333333333336</ele><time>2026-04-25T06:44:27.948Z</time></trkpt><trkpt lat="43.6152433" lon="13.2947883"><ele>37.66666666666667</ele><time>2026-04-25T06:44:28.948Z</time></trkpt><trkpt lat="43.61506" lon="13.2947167"><ele>37.0</ele><time>2026-04-25T06:44:29.948Z</time></trkpt><trkpt lat="43.614875" lon="13.29465"><ele>37.0</ele><time>2026-04-25T06:44:30.945Z</time></trkpt><trkpt lat="43.6146933" lon="13.2945717"><ele>37.0</ele><time>2026-04-25T06:44:31.948Z</time></trkpt><trkpt lat="43.614515" lon="13.2944933"><ele>37.0</ele><time>2026-04-25T06:44:32.946Z</time></trkpt><trkpt lat="43.6143417" lon="13.2944117"><ele>36.66666666666667</ele><time>2026-04-25T06:44:33.949Z</time></trkpt><trkpt lat="43.6141667" lon="13.2943317"><ele>36.333333333333336</ele><time>2026-04-25T06:44:34.976Z</time></trkpt><trkpt lat="43.61399" lon="13.29425"><ele>36.0</ele><time>2026-04-25T06:44:35.95Z</time></trkpt><trkpt lat="43.6138133" lon="13.2941717"><ele>35.666666666666664</ele><time>2026-04-25T06:44:36.945Z</time></trkpt><trkpt lat="43.6136367" lon="13.2940933"><ele>35.33333333333333</ele><time>2026-04-25T06:44:37.947Z</time></trkpt><trkpt lat="43.6134567" lon="13.2940217"><ele>35.0</ele><time>2026-04-25T06:44:38.95Z</time></trkpt><trkpt lat="43.6132767" lon="13.29395"><ele>35.0</ele><time>2026-04-25T06:44:39.954Z</time></trkpt><trkpt lat="43.6130983" lon="13.29388"><ele>35.0</ele><time>2026-04-25T06:44:40.981Z</time></trkpt><trkpt lat="43.612925" lon="13.2938083"><ele>35.0</ele><time>2026-04-25T06:44:41.948Z</time></trkpt><trkpt lat="43.6127483" lon="13.29374"><ele>35.0</ele><time>2026-04-25T06:44:42.944Z</time></trkpt><trkpt lat="43.6125717" lon="13.2936733"><ele>35.0</ele><time>2026-04-25T06:44:43.948Z</time></trkpt><trkpt lat="43.6123967" lon="13.2936017"><ele>35.0</ele><time>2026-04-25T06:44:44.947Z</time></trkpt><trkpt lat="43.61222" lon="13.2935317"><ele>35.0</ele><time>2026-04-25T06:44:45.948Z</time></trkpt><trkpt lat="43.61204" lon="13.293465"><ele>35.0</ele><time>2026-04-25T06:44:46.989Z</time></trkpt><trkpt lat="43.6118633" lon="13.2933967"><ele>35.0</ele><time>2026-04-25T06:44:47.947Z</time></trkpt><trkpt lat="43.6116883" lon="13.2933267"><ele>35.0</ele><time>2026-04-25T06:44:48.948Z</time></trkpt><trkpt lat="43.6115133" lon="13.2932567"><ele>35.0</ele><time>2026-04-25T06:44:49.948Z</time></trkpt><trkpt lat="43.6113433" lon="13.293185"><ele>35.0</ele><time>2026-04-25T06:44:50.937Z</time></trkpt><trkpt lat="43.6111717" lon="13.293115"><ele>35.0</ele><time>2026-04-25T06:44:51.948Z</time></trkpt><trkpt lat="43.6109967" lon="13.29305"><ele>35.0</ele><time>2026-04-25T06:44:53.009Z</time></trkpt><trkpt lat="43.61082" lon="13.29298"><ele>35.0</ele><time>2026-04-25T06:44:53.948Z</time></trkpt><trkpt lat="43.6106467" lon="13.2929067"><ele>35.0</ele><time>2026-04-25T06:44:54.947Z</time></trkpt><trkpt lat="43.6104767" lon="13.2928383"><ele>35.0</ele><time>2026-04-25T06:44:55.945Z</time></trkpt><trkpt lat="43.610315" lon="13.292775"><ele>35.0</ele><time>2026-04-25T06:44:56.945Z</time></trkpt><trkpt lat="43.6101567" lon="13.292715"><ele>34.5</ele><time>2026-04-25T06:44:57.949Z</time></trkpt><trkpt lat="43.6100117" lon="13.2926433"><ele>34.0</ele><time>2026-04-25T06:44:58.945Z</time></trkpt><trkpt lat="43.6098883" lon="13.29255"><ele>33.5</ele><time>2026-04-25T06:44:59.933Z</time></trkpt><trkpt lat="43.6097833" lon="13.2924267"><ele>33.0</ele><time>2026-04-25T06:45:00.944Z</time></trkpt><trkpt lat="43.6097" lon="13.2922667"><ele>33.333333333333336</ele><time>2026-04-25T06:45:01.945Z</time></trkpt><trkpt lat="43.6096333" lon="13.2920717"><ele>33.66666666666667</ele><time>2026-04-25T06:45:02.952Z</time></trkpt><trkpt lat="43.6095783" lon="13.291845"><ele>34.0</ele><time>2026-04-25T06:45:03.945Z</time></trkpt><trkpt lat="43.6095167" lon="13.2916117"><ele>33.333333333333336</ele><time>2026-04-25T06:45:04.996Z</time></trkpt><trkpt lat="43.609455" lon="13.2913817"><ele>32.666666666666664</ele><time>2026-04-25T06:45:05.941Z</time></trkpt><trkpt lat="43.609385" lon="13.2911617"><ele>32.0</ele><time>2026-04-25T06:45:06.948Z</time></trkpt><trkpt lat="43.6093133" lon="13.2909467"><ele>32.0</ele><time>2026-04-25T06:45:07.941Z</time></trkpt><trkpt lat="43.609245" lon="13.2907383"><ele>32.0</ele><time>2026-04-25T06:45:08.943Z</time></trkpt><trkpt lat="43.60918" lon="13.2905383"><ele>32.0</ele><time>2026-04-25T06:45:09.935Z</time></trkpt><trkpt lat="43.6091183" lon="13.2903483"><ele>32.0</ele><time>2026-04-25T06:45:10.987Z</time></trkpt><trkpt lat="43.60906" lon="13.2901683"><ele>32.0</ele><time>2026-04-25T06:45:11.94Z</time></trkpt><trkpt lat="43.60901" lon="13.2899983"><ele>32.0</ele><time>2026-04-25T06:45:12.952Z</time></trkpt><trkpt lat="43.60898" lon="13.289835"><ele>32.0</ele><time>2026-04-25T06:45:13.947Z</time></trkpt><trkpt lat="43.6089817" lon="13.2896783"><ele>32.5</ele><time>2026-04-25T06:45:14.943Z</time></trkpt><trkpt lat="43.6090033" lon="13.2895183"><ele>33.0</ele><time>2026-04-25T06:45:15.945Z</time></trkpt><trkpt lat="43.609045" lon="13.28935"><ele>33.5</ele><time>2026-04-25T06:45:16.987Z</time></trkpt><trkpt lat="43.6091017" lon="13.2891633"><ele>34.0</ele><time>2026-04-25T06:45:17.945Z</time></trkpt><trkpt lat="43.6091583" lon="13.2889617"><ele>33.333333333333336</ele><time>2026-04-25T06:45:18.945Z</time></trkpt><trkpt lat="43.60921" lon="13.2887483"><ele>32.666666666666664</ele><time>2026-04-25T06:45:19.947Z</time></trkpt><trkpt lat="43.6092533" lon="13.2885283"><ele>32.0</ele><time>2026-04-25T06:45:20.948Z</time></trkpt><trkpt lat="43.6092967" lon="13.2883067"><ele>32.0</ele><time>2026-04-25T06:45:21.938Z</time></trkpt><trkpt lat="43.60934" lon="13.2880917"><ele>32.0</ele><time>2026-04-25T06:45:22.947Z</time></trkpt><trkpt lat="43.609385" lon="13.287875"><ele>32.0</ele><time>2026-04-25T06:45:23.948Z</time></trkpt><trkpt lat="43.6094317" lon="13.2876617"><ele>32.0</ele><time>2026-04-25T06:45:24.945Z</time></trkpt><trkpt lat="43.6094767" lon="13.28745"><ele>32.0</ele><time>2026-04-25T06:45:25.941Z</time></trkpt><trkpt lat="43.6095267" lon="13.2872367"><ele>32.0</ele><time>2026-04-25T06:45:26.95Z</time></trkpt><trkpt lat="43.60958" lon="13.2870217"><ele>33.0</ele><time>2026-04-25T06:45:27.942Z</time></trkpt><trkpt lat="43.609635" lon="13.2868017"><ele>34.0</ele><time>2026-04-25T06:45:28.952Z</time></trkpt><trkpt lat="43.6096883" lon="13.2865783"><ele>35.0</ele><time>2026-04-25T06:45:29.946Z</time></trkpt><trkpt lat="43.609735" lon="13.2863633"><ele>35.0</ele><time>2026-04-25T06:45:30.947Z</time></trkpt><trkpt lat="43.6097833" lon="13.2861483"><ele>35.0</ele><time>2026-04-25T06:45:31.943Z</time></trkpt><trkpt lat="43.6098283" lon="13.28594"><ele>35.0</ele><time>2026-04-25T06:45:32.94Z</time></trkpt><trkpt lat="43.6098683" lon="13.2857217"><ele>35.33333333333333</ele><time>2026-04-25T06:45:33.94Z</time></trkpt><trkpt lat="43.609905" lon="13.2855033"><ele>35.666666666666664</ele><time>2026-04-25T06:45:34.986Z</time></trkpt><trkpt lat="43.6099383" lon="13.2852883"><ele>36.0</ele><time>2026-04-25T06:45:35.938Z</time></trkpt><trkpt lat="43.6099733" lon="13.2850733"><ele>36.0</ele><time>2026-04-25T06:45:36.939Z</time></trkpt><trkpt lat="43.61001" lon="13.2848533"><ele>36.0</ele><time>2026-04-25T06:45:37.941Z</time></trkpt><trkpt lat="43.61005" lon="13.284635"><ele>36.0</ele><time>2026-04-25T06:45:38.944Z</time></trkpt><trkpt lat="43.6101" lon="13.2844267"><ele>36.0</ele><time>2026-04-25T06:45:39.947Z</time></trkpt><trkpt lat="43.610165" lon="13.2842267"><ele>36.0</ele><time>2026-04-25T06:45:40.983Z</time></trkpt><trkpt lat="43.6102467" lon="13.2840333"><ele>36.0</ele><time>2026-04-25T06:45:41.941Z</time></trkpt><trkpt lat="43.6103483" lon="13.2838417"><ele>36.666666666666664</ele><time>2026-04-25T06:45:42.942Z</time></trkpt><trkpt lat="43.61045" lon="13.2836567"><ele>37.33333333333333</ele><time>2026-04-25T06:45:43.947Z</time></trkpt><trkpt lat="43.6105517" lon="13.2834833"><ele>38.0</ele><time>2026-04-25T06:45:44.947Z</time></trkpt><trkpt lat="43.610645" lon="13.28332"><ele>38.0</ele><time>2026-04-25T06:45:45.948Z</time></trkpt><trkpt lat="43.6107367" lon="13.2831617"><ele>38.0</ele><time>2026-04-25T06:45:46.988Z</time></trkpt><trkpt lat="43.610825" lon="13.28301"><ele>38.0</ele><time>2026-04-25T06:45:47.94Z</time></trkpt><trkpt lat="43.6109067" lon="13.2828683"><ele>38.0</ele><time>2026-04-25T06:45:48.942Z</time></trkpt><trkpt lat="43.6109817" lon="13.2827317"><ele>38.0</ele><time>2026-04-25T06:45:49.942Z</time></trkpt><trkpt lat="43.61105" lon="13.2826017"><ele>38.0</ele><time>2026-04-25T06:45:50.949Z</time></trkpt><trkpt lat="43.6111117" lon="13.2824883"><ele>38.0</ele><time>2026-04-25T06:45:51.94Z</time></trkpt><trkpt lat="43.61117" lon="13.282385"><ele>38.0</ele><time>2026-04-25T06:45:52.947Z</time></trkpt><trkpt lat="43.6112333" lon="13.282295"><ele>38.0</ele><time>2026-04-25T06:45:53.937Z</time></trkpt><trkpt lat="43.6113067" lon="13.282255"><ele>39.0</ele><time>2026-04-25T06:45:54.948Z</time></trkpt><trkpt lat="43.6113917" lon="13.282225"><ele>40.0</ele><time>2026-04-25T06:45:55.944Z</time></trkpt><trkpt lat="43.6114933" lon="13.2822017"><ele>41.0</ele><time>2026-04-25T06:45:56.948Z</time></trkpt><trkpt lat="43.611605" lon="13.2821833"><ele>42.0</ele><time>2026-04-25T06:45:57.946Z</time></trkpt><trkpt lat="43.6117167" lon="13.2821617"><ele>43.0</ele><time>2026-04-25T06:45:58.944Z</time></trkpt><trkpt lat="43.6118283" lon="13.28213"><ele>43.0</ele><time>2026-04-25T06:45:59.942Z</time></trkpt><trkpt lat="43.6119433" lon="13.2820933"><ele>43.0</ele><time>2026-04-25T06:46:00.948Z</time></trkpt><trkpt lat="43.6120567" lon="13.28205"><ele>43.0</ele><time>2026-04-25T06:46:01.943Z</time></trkpt><trkpt lat="43.6121717" lon="13.2820017"><ele>43.0</ele><time>2026-04-25T06:46:02.949Z</time></trkpt><trkpt lat="43.6122867" lon="13.2819467"><ele>42.25</ele><time>2026-04-25T06:46:03.948Z</time></trkpt><trkpt lat="43.6124017" lon="13.2818733"><ele>41.5</ele><time>2026-04-25T06:46:04.988Z</time></trkpt><trkpt lat="43.6125217" lon="13.2817983"><ele>40.75</ele><time>2026-04-25T06:46:05.943Z</time></trkpt><trkpt lat="43.61264" lon="13.2817167"><ele>40.0</ele><time>2026-04-25T06:46:06.946Z</time></trkpt><trkpt lat="43.6127567" lon="13.2816283"><ele>39.75</ele><time>2026-04-25T06:46:07.952Z</time></trkpt><trkpt lat="43.6128683" lon="13.2815483"><ele>39.5</ele><time>2026-04-25T06:46:08.956Z</time></trkpt><trkpt lat="43.6129717" lon="13.281465"><ele>39.25</ele><time>2026-04-25T06:46:09.952Z</time></trkpt><trkpt lat="43.6130717" lon="13.2813783"><ele>39.0</ele><time>2026-04-25T06:46:10.991Z</time></trkpt><trkpt lat="43.61317" lon="13.2812667"><ele>39.0</ele><time>2026-04-25T06:46:11.94Z</time></trkpt><trkpt lat="43.6132733" lon="13.28115"><ele>39.0</ele><time>2026-04-25T06:46:12.949Z</time></trkpt><trkpt lat="43.61338" lon="13.2810217"><ele>39.0</ele><time>2026-04-25T06:46:13.946Z</time></trkpt><trkpt lat="43.6134817" lon="13.2809"><ele>39.0</ele><time>2026-04-25T06:46:14.946Z</time></trkpt><trkpt lat="43.6135883" lon="13.2807567"><ele>38.333333333333336</ele><time>2026-04-25T06:46:15.949Z</time></trkpt><trkpt lat="43.6136967" lon="13.2806133"><ele>37.66666666666667</ele><time>2026-04-25T06:46:16.99Z</time></trkpt><trkpt lat="43.6138017" lon="13.2804567"><ele>37.0</ele><time>2026-04-25T06:46:17.944Z</time></trkpt><trkpt lat="43.6139167" lon="13.2802967"><ele>38.66666666666667</ele><time>2026-04-25T06:46:18.949Z</time></trkpt><trkpt lat="43.6140333" lon="13.2801267"><ele>40.333333333333336</ele><time>2026-04-25T06:46:19.947Z</time></trkpt><trkpt lat="43.6141367" lon="13.27995"><ele>42.0</ele><time>2026-04-25T06:46:20.952Z</time></trkpt><trkpt lat="43.6142333" lon="13.2797717"><ele>41.666666666666664</ele><time>2026-04-25T06:46:21.949Z</time></trkpt><trkpt lat="43.61433" lon="13.2795967"><ele>41.33333333333333</ele><time>2026-04-25T06:46:22.949Z</time></trkpt><trkpt lat="43.6144233" lon="13.2794217"><ele>41.0</ele><time>2026-04-25T06:46:23.953Z</time></trkpt><trkpt lat="43.61453" lon="13.2792567"><ele>41.0</ele><time>2026-04-25T06:46:24.948Z</time></trkpt><trkpt lat="43.614645" lon="13.2791083"><ele>41.0</ele><time>2026-04-25T06:46:25.947Z</time></trkpt><trkpt lat="43.6147667" lon="13.2789667"><ele>41.0</ele><time>2026-04-25T06:46:26.935Z</time></trkpt><trkpt lat="43.6148917" lon="13.2788233"><ele>41.666666666666664</ele><time>2026-04-25T06:46:27.942Z</time></trkpt><trkpt lat="43.6150133" lon="13.2786817"><ele>42.333333333333336</ele><time>2026-04-25T06:46:28.944Z</time></trkpt><trkpt lat="43.615135" lon="13.2785417"><ele>43.0</ele><time>2026-04-25T06:46:29.947Z</time></trkpt><trkpt lat="43.6152533" lon="13.2783967"><ele>43.0</ele><time>2026-04-25T06:46:30.952Z</time></trkpt><trkpt lat="43.6153617" lon="13.278245"><ele>43.0</ele><time>2026-04-25T06:46:31.95Z</time></trkpt><trkpt lat="43.6154717" lon="13.27808"><ele>43.0</ele><time>2026-04-25T06:46:32.947Z</time></trkpt><trkpt lat="43.6155867" lon="13.2779183"><ele>43.0</ele><time>2026-04-25T06:46:33.948Z</time></trkpt><trkpt lat="43.6157083" lon="13.2777633"><ele>43.0</ele><time>2026-04-25T06:46:34.991Z</time></trkpt><trkpt lat="43.61583" lon="13.2776083"><ele>43.0</ele><time>2026-04-25T06:46:35.946Z</time></trkpt><trkpt lat="43.61595" lon="13.27746"><ele>43.0</ele><time>2026-04-25T06:46:36.948Z</time></trkpt><trkpt lat="43.6160717" lon="13.277315"><ele>43.0</ele><time>2026-04-25T06:46:37.947Z</time></trkpt><trkpt lat="43.616195" lon="13.277175"><ele>43.0</ele><time>2026-04-25T06:46:38.948Z</time></trkpt><trkpt lat="43.6163133" lon="13.2770383"><ele>43.0</ele><time>2026-04-25T06:46:39.948Z</time></trkpt><trkpt lat="43.6164267" lon="13.2768983"><ele>43.0</ele><time>2026-04-25T06:46:40.997Z</time></trkpt><trkpt lat="43.6165433" lon="13.2767483"><ele>43.0</ele><time>2026-04-25T06:46:41.946Z</time></trkpt><trkpt lat="43.6166633" lon="13.2765783"><ele>43.333333333333336</ele><time>2026-04-25T06:46:42.948Z</time></trkpt><trkpt lat="43.6167867" lon="13.276405"><ele>43.666666666666664</ele><time>2026-04-25T06:46:43.948Z</time></trkpt><trkpt lat="43.6169067" lon="13.2762383"><ele>44.0</ele><time>2026-04-25T06:46:44.945Z</time></trkpt><trkpt lat="43.617015" lon="13.2760733"><ele>44.0</ele><time>2026-04-25T06:46:45.944Z</time></trkpt><trkpt lat="43.61712" lon="13.2759083"><ele>44.0</ele><time>2026-04-25T06:46:46.994Z</time></trkpt><trkpt lat="43.6172183" lon="13.2757417"><ele>44.0</ele><time>2026-04-25T06:46:47.947Z</time></trkpt><trkpt lat="43.6173167" lon="13.275575"><ele>45.0</ele><time>2026-04-25T06:46:48.948Z</time></trkpt><trkpt lat="43.6174117" lon="13.275405"><ele>46.0</ele><time>2026-04-25T06:46:49.949Z</time></trkpt><trkpt lat="43.6175017" lon="13.2752267"><ele>47.0</ele><time>2026-04-25T06:46:50.948Z</time></trkpt><trkpt lat="43.617595" lon="13.2750467"><ele>47.0</ele><time>2026-04-25T06:46:51.946Z</time></trkpt><trkpt lat="43.61769" lon="13.2748767"><ele>47.0</ele><time>2026-04-25T06:46:52.949Z</time></trkpt><trkpt lat="43.6177817" lon="13.2747083"><ele>47.0</ele><time>2026-04-25T06:46:53.954Z</time></trkpt><trkpt lat="43.61787" lon="13.2745367"><ele>45.33333333333333</ele><time>2026-04-25T06:46:54.952Z</time></trkpt><trkpt lat="43.617965" lon="13.274355"><ele>43.666666666666664</ele><time>2026-04-25T06:46:55.948Z</time></trkpt><trkpt lat="43.61806" lon="13.2741767"><ele>42.0</ele><time>2026-04-25T06:46:56.949Z</time></trkpt><trkpt lat="43.61815" lon="13.2740067"><ele>43.25</ele><time>2026-04-25T06:46:57.956Z</time></trkpt><trkpt lat="43.6182333" lon="13.2738367"><ele>44.5</ele><time>2026-04-25T06:46:58.943Z</time></trkpt><trkpt lat="43.6183083" lon="13.2736683"><ele>45.75</ele><time>2026-04-25T06:46:59.945Z</time></trkpt><trkpt lat="43.61838" lon="13.2734983"><ele>47.0</ele><time>2026-04-25T06:47:00.943Z</time></trkpt><trkpt lat="43.6184533" lon="13.273325"><ele>47.0</ele><time>2026-04-25T06:47:01.944Z</time></trkpt><trkpt lat="43.6185317" lon="13.2731467"><ele>47.0</ele><time>2026-04-25T06:47:02.95Z</time></trkpt><trkpt lat="43.6186067" lon="13.272965"><ele>47.0</ele><time>2026-04-25T06:47:03.943Z</time></trkpt><trkpt lat="43.618675" lon="13.2727983"><ele>47.0</ele><time>2026-04-25T06:47:04.996Z</time></trkpt><trkpt lat="43.6187483" lon="13.2726367"><ele>46.75</ele><time>2026-04-25T06:47:05.949Z</time></trkpt><trkpt lat="43.61882" lon="13.272485"><ele>46.5</ele><time>2026-04-25T06:47:06.953Z</time></trkpt><trkpt lat="43.61889" lon="13.272325"><ele>46.25</ele><time>2026-04-25T06:47:07.949Z</time></trkpt><trkpt lat="43.6189617" lon="13.2721633"><ele>46.0</ele><time>2026-04-25T06:47:08.947Z</time></trkpt><trkpt lat="43.6190317" lon="13.2719967"><ele>46.0</ele><time>2026-04-25T06:47:09.946Z</time></trkpt><trkpt lat="43.6190983" lon="13.2718267"><ele>46.0</ele><time>2026-04-25T06:47:10.996Z</time></trkpt><trkpt lat="43.61916" lon="13.27164"><ele>46.0</ele><time>2026-04-25T06:47:11.943Z</time></trkpt><trkpt lat="43.6192183" lon="13.2714533"><ele>46.0</ele><time>2026-04-25T06:47:12.946Z</time></trkpt><trkpt lat="43.61928" lon="13.2712783"><ele>46.5</ele><time>2026-04-25T06:47:13.944Z</time></trkpt><trkpt lat="43.6193567" lon="13.2711217"><ele>47.0</ele><time>2026-04-25T06:47:14.947Z</time></trkpt><trkpt lat="43.6194533" lon="13.2709817"><ele>47.5</ele><time>2026-04-25T06:47:15.946Z</time></trkpt><trkpt lat="43.6195467" lon="13.27084"><ele>48.0</ele><time>2026-04-25T06:47:16.988Z</time></trkpt><trkpt lat="43.6196367" lon="13.2706917"><ele>47.0</ele><time>2026-04-25T06:47:17.943Z</time></trkpt><trkpt lat="43.61973" lon="13.270535"><ele>46.0</ele><time>2026-04-25T06:47:18.948Z</time></trkpt><trkpt lat="43.6198233" lon="13.2703767"><ele>45.0</ele><time>2026-04-25T06:47:19.945Z</time></trkpt><trkpt lat="43.6199133" lon="13.2702183"><ele>44.0</ele><time>2026-04-25T06:47:20.95Z</time></trkpt><trkpt lat="43.6200017" lon="13.2700517"><ele>44.0</ele><time>2026-04-25T06:47:21.944Z</time></trkpt><trkpt lat="43.6200883" lon="13.2698867"><ele>44.0</ele><time>2026-04-25T06:47:23.01Z</time></trkpt><trkpt lat="43.62017" lon="13.2697167"><ele>44.0</ele><time>2026-04-25T06:47:23.938Z</time></trkpt><trkpt lat="43.6202533" lon="13.2695433"><ele>44.0</ele><time>2026-04-25T06:47:24.942Z</time></trkpt><trkpt lat="43.620335" lon="13.26937"><ele>44.0</ele><time>2026-04-25T06:47:25.95Z</time></trkpt><trkpt lat="43.620415" lon="13.2691917"><ele>44.0</ele><time>2026-04-25T06:47:26.957Z</time></trkpt><trkpt lat="43.62049" lon="13.2690217"><ele>44.0</ele><time>2026-04-25T06:47:27.937Z</time></trkpt><trkpt lat="43.6205633" lon="13.2688617"><ele>44.0</ele><time>2026-04-25T06:47:28.948Z</time></trkpt><trkpt lat="43.6206317" lon="13.2687083"><ele>44.0</ele><time>2026-04-25T06:47:29.948Z</time></trkpt><trkpt lat="43.6206983" lon="13.268565"><ele>44.0</ele><time>2026-04-25T06:47:30.948Z</time></trkpt><trkpt lat="43.6207717" lon="13.268435"><ele>44.0</ele><time>2026-04-25T06:47:31.95Z</time></trkpt><trkpt lat="43.6208533" lon="13.2683167"><ele>44.0</ele><time>2026-04-25T06:47:32.949Z</time></trkpt><trkpt lat="43.6209483" lon="13.2682117"><ele>44.0</ele><time>2026-04-25T06:47:33.942Z</time></trkpt><trkpt lat="43.6210433" lon="13.26811"><ele>44.0</ele><time>2026-04-25T06:47:34.99Z</time></trkpt><trkpt lat="43.621135" lon="13.2680083"><ele>44.0</ele><time>2026-04-25T06:47:35.943Z</time></trkpt><trkpt lat="43.6212217" lon="13.267905"><ele>44.0</ele><time>2026-04-25T06:47:36.946Z</time></trkpt><trkpt lat="43.6212983" lon="13.2678083"><ele>43.83333333333333</ele><time>2026-04-25T06:47:37.938Z</time></trkpt><trkpt lat="43.621365" lon="13.2677217"><ele>43.666666666666664</ele><time>2026-04-25T06:47:38.938Z</time></trkpt><trkpt lat="43.6214233" lon="13.2676467"><ele>43.5</ele><time>2026-04-25T06:47:39.944Z</time></trkpt><trkpt lat="43.6214783" lon="13.2675833"><ele>43.333333333333336</ele><time>2026-04-25T06:47:40.995Z</time></trkpt><trkpt lat="43.6215817" lon="13.2675083"><ele>43.16666666666667</ele><time>2026-04-25T06:47:42.94Z</time></trkpt><trkpt lat="43.6216567" lon="13.267515"><ele>43.0</ele><time>2026-04-25T06:47:43.944Z</time></trkpt><trkpt lat="43.6217217" lon="13.26752"><ele>43.0</ele><time>2026-04-25T06:47:44.944Z</time></trkpt><trkpt lat="43.6218367" lon="13.2674783"><ele>43.0</ele><time>2026-04-25T06:47:46.997Z</time></trkpt><trkpt lat="43.621895" lon="13.2674283"><ele>43.0</ele><time>2026-04-25T06:47:47.94Z</time></trkpt><trkpt lat="43.6219467" lon="13.267295"><ele>43.0</ele><time>2026-04-25T06:47:48.946Z</time></trkpt><trkpt lat="43.6219917" lon="13.2671717"><ele>43.0</ele><time>2026-04-25T06:47:49.944Z</time></trkpt><trkpt lat="43.6220383" lon="13.2670517"><ele>43.2</ele><time>2026-04-25T06:47:50.94Z</time></trkpt><trkpt lat="43.6220933" lon="13.2669433"><ele>43.4</ele><time>2026-04-25T06:47:51.95Z</time></trkpt><trkpt lat="43.62216" lon="13.266845"><ele>43.6</ele><time>2026-04-25T06:47:52.948Z</time></trkpt><trkpt lat="43.62224" lon="13.2667517"><ele>43.800000000000004</ele><time>2026-04-25T06:47:53.941Z</time></trkpt><trkpt lat="43.62233" lon="13.26666"><ele>44.0</ele><time>2026-04-25T06:47:54.949Z</time></trkpt><trkpt lat="43.6224133" lon="13.26658"><ele>44.0</ele><time>2026-04-25T06:47:55.934Z</time></trkpt><trkpt lat="43.62249" lon="13.2665083"><ele>44.0</ele><time>2026-04-25T06:47:56.944Z</time></trkpt><trkpt lat="43.6225533" lon="13.2664517"><ele>44.0</ele><time>2026-04-25T06:47:57.945Z</time></trkpt><trkpt lat="43.62263" lon="13.266365"><ele>44.0</ele><time>2026-04-25T06:47:59.941Z</time></trkpt><trkpt lat="43.622625" lon="13.2662417"><ele>44.0</ele><time>2026-04-25T06:48:02.949Z</time></trkpt><trkpt lat="43.622555" lon="13.2661383"><ele>43.83333333333333</ele><time>2026-04-25T06:48:04.995Z</time></trkpt><trkpt lat="43.622495" lon="13.2660417"><ele>43.666666666666664</ele><time>2026-04-25T06:48:06.948Z</time></trkpt><trkpt lat="43.6224483" lon="13.265955"><ele>43.5</ele><time>2026-04-25T06:48:08.947Z</time></trkpt><trkpt lat="43.6224" lon="13.2658767"><ele>43.333333333333336</ele><time>2026-04-25T06:48:10.991Z</time></trkpt><trkpt lat="43.6223617" lon="13.265805"><ele>43.16666666666667</ele><time>2026-04-25T06:48:12.942Z</time></trkpt><trkpt lat="43.6223067" lon="13.26569"><ele>43.0</ele><time>2026-04-25T06:48:14.947Z</time></trkpt><trkpt lat="43.6222733" lon="13.265615"><ele>43.5</ele><time>2026-04-25T06:48:15.945Z</time></trkpt><trkpt lat="43.622225" lon="13.2655217"><ele>44.0</ele><time>2026-04-25T06:48:16.995Z</time></trkpt><trkpt lat="43.6221783" lon="13.2654317"><ele>44.5</ele><time>2026-04-25T06:48:17.943Z</time></trkpt><trkpt lat="43.6221367" lon="13.2653467"><ele>45.0</ele><time>2026-04-25T06:48:18.951Z</time></trkpt><trkpt lat="43.622095" lon="13.2652583"><ele>45.5</ele><time>2026-04-25T06:48:19.942Z</time></trkpt><trkpt lat="43.62205" lon="13.2651783"><ele>46.0</ele><time>2026-04-25T06:48:20.952Z</time></trkpt><trkpt lat="43.6220067" lon="13.2650967"><ele>46.5</ele><time>2026-04-25T06:48:21.941Z</time></trkpt><trkpt lat="43.621965" lon="13.2650167"><ele>47.0</ele><time>2026-04-25T06:48:22.948Z</time></trkpt><trkpt lat="43.621925" lon="13.264935"><ele>47.5</ele><time>2026-04-25T06:48:23.945Z</time></trkpt><trkpt lat="43.62188" lon="13.26484"><ele>48.0</ele><time>2026-04-25T06:48:24.946Z</time></trkpt><trkpt lat="43.6218383" lon="13.2647417"><ele>48.49999999999999</ele><time>2026-04-25T06:48:25.948Z</time></trkpt><trkpt lat="43.621795" lon="13.2646467"><ele>49.0</ele><time>2026-04-25T06:48:26.946Z</time></trkpt><trkpt lat="43.6217483" lon="13.26455"><ele>50.6</ele><time>2026-04-25T06:48:27.949Z</time></trkpt><trkpt lat="43.6217" lon="13.264455"><ele>52.2</ele><time>2026-04-25T06:48:28.949Z</time></trkpt><trkpt lat="43.6216533" lon="13.264355"><ele>53.800000000000004</ele><time>2026-04-25T06:48:29.948Z</time></trkpt><trkpt lat="43.6216017" lon="13.264245"><ele>55.400000000000006</ele><time>2026-04-25T06:48:30.95Z</time></trkpt><trkpt lat="43.6215483" lon="13.264135"><ele>57.0</ele><time>2026-04-25T06:48:31.944Z</time></trkpt><trkpt lat="43.6214967" lon="13.2640317"><ele>58.5</ele><time>2026-04-25T06:48:32.951Z</time></trkpt><trkpt lat="43.6214467" lon="13.263935"><ele>60.0</ele><time>2026-04-25T06:48:33.951Z</time></trkpt><trkpt lat="43.6214017" lon="13.2638417"><ele>61.5</ele><time>2026-04-25T06:48:34.991Z</time></trkpt><trkpt lat="43.621365" lon="13.263755"><ele>63.0</ele><time>2026-04-25T06:48:35.946Z</time></trkpt><trkpt lat="43.6213333" lon="13.2636783"><ele>64.5</ele><time>2026-04-25T06:48:36.944Z</time></trkpt><trkpt lat="43.6212917" lon="13.2635383"><ele>66.0</ele><time>2026-04-25T06:48:38.948Z</time></trkpt><trkpt lat="43.6212867" lon="13.2634167"><ele>66.0</ele><time>2026-04-25T06:48:40.995Z</time></trkpt><trkpt lat="43.6213167" lon="13.263285"><ele>66.0</ele><time>2026-04-25T06:48:42.945Z</time></trkpt><trkpt lat="43.6213517" lon="13.2632017"><ele>66.0</ele><time>2026-04-25T06:48:43.95Z</time></trkpt><trkpt lat="43.6213933" lon="13.2631167"><ele>66.0</ele><time>2026-04-25T06:48:44.952Z</time></trkpt><trkpt lat="43.62144" lon="13.2630267"><ele>66.0</ele><time>2026-04-25T06:48:45.949Z</time></trkpt><trkpt lat="43.6214967" lon="13.262935"><ele>66.0</ele><time>2026-04-25T06:48:46.995Z</time></trkpt><trkpt lat="43.6215517" lon="13.26285"><ele>67.16666666666667</ele><time>2026-04-25T06:48:47.947Z</time></trkpt><trkpt lat="43.6216033" lon="13.2627617"><ele>68.33333333333333</ele><time>2026-04-25T06:48:48.949Z</time></trkpt><trkpt lat="43.621655" lon="13.26268"><ele>69.5</ele><time>2026-04-25T06:48:49.945Z</time></trkpt><trkpt lat="43.6217083" lon="13.2625783"><ele>70.66666666666666</ele><time>2026-04-25T06:48:50.948Z</time></trkpt><trkpt lat="43.6217583" lon="13.262475"><ele>71.83333333333333</ele><time>2026-04-25T06:48:51.942Z</time></trkpt><trkpt lat="43.6218133" lon="13.262375"><ele>73.0</ele><time>2026-04-25T06:48:53.01Z</time></trkpt><trkpt lat="43.62187" lon="13.2622733"><ele>75.0</ele><time>2026-04-25T06:48:53.945Z</time></trkpt><trkpt lat="43.6219067" lon="13.2621817"><ele>77.0</ele><time>2026-04-25T06:48:54.951Z</time></trkpt><trkpt lat="43.6218817" lon="13.2620083"><ele>79.0</ele><time>2026-04-25T06:48:56.949Z</time></trkpt><trkpt lat="43.62184" lon="13.2619117"><ele>81.0</ele><time>2026-04-25T06:48:57.948Z</time></trkpt><trkpt lat="43.621795" lon="13.2618033"><ele>83.0</ele><time>2026-04-25T06:48:59.014Z</time></trkpt><trkpt lat="43.6217583" lon="13.261695"><ele>83.0</ele><time>2026-04-25T06:48:59.937Z</time></trkpt><trkpt lat="43.6217326" lon="13.2615912"><ele>83.0</ele><time>2026-04-25T06:49:00.945Z</time></trkpt><trkpt lat="43.621727" lon="13.2614831"><ele>83.0</ele><time>2026-04-25T06:49:01.947Z</time></trkpt><trkpt lat="43.6217385" lon="13.2613736"><ele>83.0</ele><time>2026-04-25T06:49:02.952Z</time></trkpt><trkpt lat="43.6217583" lon="13.2612625"><ele>83.0</ele><time>2026-04-25T06:49:03.946Z</time></trkpt><trkpt lat="43.6217987" lon="13.2611398"><ele>83.0</ele><time>2026-04-25T06:49:04.997Z</time></trkpt><trkpt lat="43.6218551" lon="13.2610163"><ele>83.60000000000001</ele><time>2026-04-25T06:49:05.946Z</time></trkpt><trkpt lat="43.6219195" lon="13.2608863"><ele>84.2</ele><time>2026-04-25T06:49:06.945Z</time></trkpt><trkpt lat="43.6219858" lon="13.2607571"><ele>84.8</ele><time>2026-04-25T06:49:07.947Z</time></trkpt><trkpt lat="43.6220484" lon="13.2606298"><ele>85.4</ele><time>2026-04-25T06:49:08.95Z</time></trkpt><trkpt lat="43.6220969" lon="13.2605042"><ele>86.0</ele><time>2026-04-25T06:49:09.946Z</time></trkpt><trkpt lat="43.6221313" lon="13.2603712"><ele>87.6</ele><time>2026-04-25T06:49:10.987Z</time></trkpt><trkpt lat="43.6221495" lon="13.2602342"><ele>89.19999999999999</ele><time>2026-04-25T06:49:11.941Z</time></trkpt><trkpt lat="43.6221513" lon="13.2600843"><ele>90.80000000000001</ele><time>2026-04-25T06:49:12.95Z</time></trkpt><trkpt lat="43.6221327" lon="13.2599323"><ele>92.4</ele><time>2026-04-25T06:49:13.942Z</time></trkpt><trkpt lat="43.622097" lon="13.2597764"><ele>94.0</ele><time>2026-04-25T06:49:14.944Z</time></trkpt><trkpt lat="43.6220566" lon="13.2596289"><ele>95.6</ele><time>2026-04-25T06:49:15.948Z</time></trkpt><trkpt lat="43.6220124" lon="13.2594943"><ele>97.2</ele><time>2026-04-25T06:49:16.994Z</time></trkpt><trkpt lat="43.6219811" lon="13.2593871"><ele>98.8</ele><time>2026-04-25T06:49:17.943Z</time></trkpt><trkpt lat="43.6219652" lon="13.2592864"><ele>100.39999999999999</ele><time>2026-04-25T06:49:18.945Z</time></trkpt><trkpt lat="43.6219684" lon="13.259199"><ele>102.0</ele><time>2026-04-25T06:49:19.945Z</time></trkpt><trkpt lat="43.6220741" lon="13.2590682"><ele>102.0</ele><time>2026-04-25T06:49:21.946Z</time></trkpt><trkpt lat="43.6221707" lon="13.2590097"><ele>102.0</ele><time>2026-04-25T06:49:23.014Z</time></trkpt><trkpt lat="43.6222612" lon="13.258942"><ele>102.0</ele><time>2026-04-25T06:49:23.952Z</time></trkpt><trkpt lat="43.6223503" lon="13.258861"><ele>102.0</ele><time>2026-04-25T06:49:24.939Z</time></trkpt><trkpt lat="43.6224375" lon="13.2587681"><ele>102.0</ele><time>2026-04-25T06:49:25.941Z</time></trkpt><trkpt lat="43.6225148" lon="13.258664"><ele>104.39999999999999</ele><time>2026-04-25T06:49:26.946Z</time></trkpt><trkpt lat="43.6225846" lon="13.2585523"><ele>106.8</ele><time>2026-04-25T06:49:27.952Z</time></trkpt><trkpt lat="43.6226431" lon="13.2584311"><ele>109.2</ele><time>2026-04-25T06:49:29.009Z</time></trkpt><trkpt lat="43.6226925" lon="13.2583036"><ele>111.6</ele><time>2026-04-25T06:49:29.94Z</time></trkpt><trkpt lat="43.6227456" lon="13.2581617"><ele>114.0</ele><time>2026-04-25T06:49:30.944Z</time></trkpt><trkpt lat="43.622797" lon="13.2580188"><ele>114.5</ele><time>2026-04-25T06:49:31.944Z</time></trkpt><trkpt lat="43.6228522" lon="13.2578731"><ele>115.0</ele><time>2026-04-25T06:49:32.941Z</time></trkpt><trkpt lat="43.622905" lon="13.2577294"><ele>115.5</ele><time>2026-04-25T06:49:33.953Z</time></trkpt><trkpt lat="43.6229518" lon="13.2575859"><ele>116.0</ele><time>2026-04-25T06:49:34.991Z</time></trkpt><trkpt lat="43.6229887" lon="13.2574495"><ele>116.0</ele><time>2026-04-25T06:49:35.941Z</time></trkpt><trkpt lat="43.6230219" lon="13.2573133"><ele>116.0</ele><time>2026-04-25T06:49:36.938Z</time></trkpt><trkpt lat="43.6230486" lon="13.2571834"><ele>116.0</ele><time>2026-04-25T06:49:37.943Z</time></trkpt><trkpt lat="43.6230678" lon="13.2570573"><ele>116.0</ele><time>2026-04-25T06:49:38.945Z</time></trkpt><trkpt lat="43.623087" lon="13.256933"><ele>116.0</ele><time>2026-04-25T06:49:39.941Z</time></trkpt><trkpt lat="43.6231207" lon="13.2568159"><ele>115.99999999999999</ele><time>2026-04-25T06:49:40.993Z</time></trkpt><trkpt lat="43.6231765" lon="13.2567236"><ele>116.0</ele><time>2026-04-25T06:49:41.948Z</time></trkpt><trkpt lat="43.6232313" lon="13.2566325"><ele>116.0</ele><time>2026-04-25T06:49:42.944Z</time></trkpt><trkpt lat="43.6232752" lon="13.256548"><ele>116.0</ele><time>2026-04-25T06:49:43.94Z</time></trkpt><trkpt lat="43.6232959" lon="13.2564606"><ele>115.99999999999999</ele><time>2026-04-25T06:49:44.956Z</time></trkpt><trkpt lat="43.6232735" lon="13.256315"><ele>116.0</ele><time>2026-04-25T06:49:46.991Z</time></trkpt><trkpt lat="43.6231936" lon="13.2563119"><ele>117.5</ele><time>2026-04-25T06:49:47.943Z</time></trkpt><trkpt lat="43.6230946" lon="13.2562999"><ele>119.0</ele><time>2026-04-25T06:49:48.945Z</time></trkpt><trkpt lat="43.6229861" lon="13.2562735"><ele>120.5</ele><time>2026-04-25T06:49:49.936Z</time></trkpt><trkpt lat="43.6228728" lon="13.2562247"><ele>122.0</ele><time>2026-04-25T06:49:50.943Z</time></trkpt><trkpt lat="43.6227608" lon="13.256158"><ele>122.0</ele><time>2026-04-25T06:49:51.949Z</time></trkpt><trkpt lat="43.6226491" lon="13.2560717"><ele>122.0</ele><time>2026-04-25T06:49:53.016Z</time></trkpt><trkpt lat="43.6225525" lon="13.2559704"><ele>122.0</ele><time>2026-04-25T06:49:53.944Z</time></trkpt><trkpt lat="43.622459" lon="13.2558549"><ele>122.0</ele><time>2026-04-25T06:49:54.947Z</time></trkpt><trkpt lat="43.6223839" lon="13.2557256"><ele>121.5</ele><time>2026-04-25T06:49:55.943Z</time></trkpt><trkpt lat="43.6223239" lon="13.2555829"><ele>121.0</ele><time>2026-04-25T06:49:56.948Z</time></trkpt><trkpt lat="43.6222785" lon="13.2554265"><ele>120.5</ele><time>2026-04-25T06:49:57.948Z</time></trkpt><trkpt lat="43.6222383" lon="13.2552503"><ele>120.0</ele><time>2026-04-25T06:49:59.01Z</time></trkpt><trkpt lat="43.6222167" lon="13.255075"><ele>120.0</ele><time>2026-04-25T06:49:59.939Z</time></trkpt><trkpt lat="43.6221783" lon="13.2549183"><ele>120.0</ele><time>2026-04-25T06:50:00.936Z</time></trkpt><trkpt lat="43.62215" lon="13.2547583"><ele>120.0</ele><time>2026-04-25T06:50:01.943Z</time></trkpt><trkpt lat="43.6221233" lon="13.2545983"><ele>120.0</ele><time>2026-04-25T06:50:02.943Z</time></trkpt><trkpt lat="43.62209" lon="13.2544333"><ele>119.66666666666666</ele><time>2026-04-25T06:50:03.94Z</time></trkpt><trkpt lat="43.6220533" lon="13.25424"><ele>119.33333333333333</ele><time>2026-04-25T06:50:04.992Z</time></trkpt><trkpt lat="43.6220167" lon="13.25402"><ele>119.0</ele><time>2026-04-25T06:50:05.934Z</time></trkpt><trkpt lat="43.6219833" lon="13.2538283"><ele>124.0</ele><time>2026-04-25T06:50:06.94Z</time></trkpt><trkpt lat="43.6219583" lon="13.25365"><ele>129.0</ele><time>2026-04-25T06:50:07.939Z</time></trkpt><trkpt lat="43.6219367" lon="13.2534733"><ele>134.0</ele><time>2026-04-25T06:50:08.952Z</time></trkpt><trkpt lat="43.6219083" lon="13.253305"><ele>139.0</ele><time>2026-04-25T06:50:09.941Z</time></trkpt><trkpt lat="43.6218683" lon="13.25315"><ele>139.0</ele><time>2026-04-25T06:50:10.985Z</time></trkpt><trkpt lat="43.6218233" lon="13.2529983"><ele>139.0</ele><time>2026-04-25T06:50:11.939Z</time></trkpt><trkpt lat="43.6217967" lon="13.252845"><ele>139.0</ele><time>2026-04-25T06:50:12.938Z</time></trkpt><trkpt lat="43.6217783" lon="13.2526817"><ele>139.0</ele><time>2026-04-25T06:50:13.953Z</time></trkpt><trkpt lat="43.6217567" lon="13.2525583"><ele>139.0</ele><time>2026-04-25T06:50:14.938Z</time></trkpt><trkpt lat="43.6217383" lon="13.252445"><ele>139.0</ele><time>2026-04-25T06:50:15.939Z</time></trkpt><trkpt lat="43.6217067" lon="13.25235"><ele>139.0</ele><time>2026-04-25T06:50:16.987Z</time></trkpt><trkpt lat="43.6216817" lon="13.25226"><ele>139.0</ele><time>2026-04-25T06:50:17.946Z</time></trkpt><trkpt lat="43.62163" lon="13.252205"><ele>139.0</ele><time>2026-04-25T06:50:18.951Z</time></trkpt><trkpt lat="43.6214983" lon="13.25219"><ele>139.0</ele><time>2026-04-25T06:50:20.946Z</time></trkpt><trkpt lat="43.62132" lon="13.2523917"><ele>139.0</ele><time>2026-04-25T06:50:21.944Z</time></trkpt><trkpt lat="43.621195" lon="13.2524467"><ele>139.0</ele><time>2026-04-25T06:50:23.015Z</time></trkpt><trkpt lat="43.621055" lon="13.2525"><ele>139.0</ele><time>2026-04-25T06:50:23.942Z</time></trkpt><trkpt lat="43.620905" lon="13.2525567"><ele>139.0</ele><time>2026-04-25T06:50:24.947Z</time></trkpt><trkpt lat="43.6207467" lon="13.2526183"><ele>137.33333333333334</ele><time>2026-04-25T06:50:25.945Z</time></trkpt><trkpt lat="43.62058" lon="13.2526833"><ele>135.66666666666666</ele><time>2026-04-25T06:50:26.944Z</time></trkpt><trkpt lat="43.6204183" lon="13.252745"><ele>134.0</ele><time>2026-04-25T06:50:27.948Z</time></trkpt><trkpt lat="43.62026" lon="13.25281"><ele>133.0</ele><time>2026-04-25T06:50:29.009Z</time></trkpt><trkpt lat="43.6201067" lon="13.2528633"><ele>132.0</ele><time>2026-04-25T06:50:29.944Z</time></trkpt><trkpt lat="43.619955" lon="13.2529033"><ele>131.0</ele><time>2026-04-25T06:50:30.949Z</time></trkpt><trkpt lat="43.6198" lon="13.25293"><ele>131.0</ele><time>2026-04-25T06:50:31.952Z</time></trkpt><trkpt lat="43.61964" lon="13.2529333"><ele>131.0</ele><time>2026-04-25T06:50:32.946Z</time></trkpt><trkpt lat="43.6194683" lon="13.25294"><ele>131.0</ele><time>2026-04-25T06:50:33.945Z</time></trkpt><trkpt lat="43.6192967" lon="13.252945"><ele>130.33333333333331</ele><time>2026-04-25T06:50:34.996Z</time></trkpt><trkpt lat="43.6191267" lon="13.2529717"><ele>129.66666666666666</ele><time>2026-04-25T06:50:35.942Z</time></trkpt><trkpt lat="43.6189583" lon="13.2530117"><ele>129.0</ele><time>2026-04-25T06:50:36.935Z</time></trkpt><trkpt lat="43.6187933" lon="13.2530483"><ele>128.0</ele><time>2026-04-25T06:50:37.948Z</time></trkpt><trkpt lat="43.618625" lon="13.2530817"><ele>127.0</ele><time>2026-04-25T06:50:38.948Z</time></trkpt><trkpt lat="43.618455" lon="13.2531017"><ele>126.0</ele><time>2026-04-25T06:50:39.95Z</time></trkpt><trkpt lat="43.6182867" lon="13.2531133"><ele>126.0</ele><time>2026-04-25T06:50:41Z</time></trkpt><trkpt lat="43.6181217" lon="13.2531183"><ele>126.0</ele><time>2026-04-25T06:50:41.94Z</time></trkpt><trkpt lat="43.6179617" lon="13.2531033"><ele>126.0</ele><time>2026-04-25T06:50:42.948Z</time></trkpt><trkpt lat="43.6178083" lon="13.2530617"><ele>128.33333333333334</ele><time>2026-04-25T06:50:43.948Z</time></trkpt><trkpt lat="43.617655" lon="13.2530017"><ele>130.66666666666669</ele><time>2026-04-25T06:50:44.948Z</time></trkpt><trkpt lat="43.617505" lon="13.2529333"><ele>133.0</ele><time>2026-04-25T06:50:45.948Z</time></trkpt><trkpt lat="43.61736" lon="13.2528617"><ele>133.0</ele><time>2026-04-25T06:50:46.992Z</time></trkpt><trkpt lat="43.6172217" lon="13.2527717"><ele>133.0</ele><time>2026-04-25T06:50:47.948Z</time></trkpt><trkpt lat="43.6170767" lon="13.2526833"><ele>133.0</ele><time>2026-04-25T06:50:48.944Z</time></trkpt><trkpt lat="43.6169367" lon="13.2525883"><ele>135.0</ele><time>2026-04-25T06:50:49.947Z</time></trkpt><trkpt lat="43.616795" lon="13.25249"><ele>137.0</ele><time>2026-04-25T06:50:50.947Z</time></trkpt><trkpt lat="43.6166517" lon="13.2523967"><ele>139.0</ele><time>2026-04-25T06:50:51.944Z</time></trkpt><trkpt lat="43.6165" lon="13.2523117"><ele>140.66666666666669</ele><time>2026-04-25T06:50:52.988Z</time></trkpt><trkpt lat="43.616345" lon="13.25223"><ele>142.33333333333334</ele><time>2026-04-25T06:50:53.944Z</time></trkpt><trkpt lat="43.61619" lon="13.2521517"><ele>144.0</ele><time>2026-04-25T06:50:54.951Z</time></trkpt><trkpt lat="43.616045" lon="13.2520633"><ele>146.75</ele><time>2026-04-25T06:50:55.946Z</time></trkpt><trkpt lat="43.6159133" lon="13.2519717"><ele>149.5</ele><time>2026-04-25T06:50:56.944Z</time></trkpt><trkpt lat="43.6157983" lon="13.25187"><ele>152.25</ele><time>2026-04-25T06:50:57.946Z</time></trkpt><trkpt lat="43.615705" lon="13.251785"><ele>155.0</ele><time>2026-04-25T06:50:59.007Z</time></trkpt><trkpt lat="43.615665" lon="13.2517167"><ele>155.0</ele><time>2026-04-25T06:50:59.943Z</time></trkpt><trkpt lat="43.6156133" lon="13.2516617"><ele>155.0</ele><time>2026-04-25T06:51:00.943Z</time></trkpt><trkpt lat="43.61555" lon="13.2515667"><ele>155.0</ele><time>2026-04-25T06:51:02.941Z</time></trkpt><trkpt lat="43.61552" lon="13.2514533"><ele>155.0</ele><time>2026-04-25T06:51:05.951Z</time></trkpt><trkpt lat="43.6155333" lon="13.251365"><ele>155.0</ele><time>2026-04-25T06:51:06.947Z</time></trkpt><trkpt lat="43.615545" lon="13.25123"><ele>155.0</ele><time>2026-04-25T06:51:07.942Z</time></trkpt><trkpt lat="43.615555" lon="13.2510833"><ele>155.25</ele><time>2026-04-25T06:51:08.947Z</time></trkpt><trkpt lat="43.615555" lon="13.250925"><ele>155.5</ele><time>2026-04-25T06:51:09.942Z</time></trkpt><trkpt lat="43.61554" lon="13.2507567"><ele>155.75</ele><time>2026-04-25T06:51:10.996Z</time></trkpt><trkpt lat="43.6155067" lon="13.2505883"><ele>156.0</ele><time>2026-04-25T06:51:11.943Z</time></trkpt><trkpt lat="43.61545" lon="13.2504317"><ele>156.0</ele><time>2026-04-25T06:51:12.952Z</time></trkpt><trkpt lat="43.61537" lon="13.250275"><ele>156.0</ele><time>2026-04-25T06:51:13.955Z</time></trkpt><trkpt lat="43.6152833" lon="13.2501083"><ele>156.0</ele><time>2026-04-25T06:51:14.951Z</time></trkpt><trkpt lat="43.6151967" lon="13.2499317"><ele>156.0</ele><time>2026-04-25T06:51:15.95Z</time></trkpt><trkpt lat="43.6151167" lon="13.2497433"><ele>157.33333333333334</ele><time>2026-04-25T06:51:16.994Z</time></trkpt><trkpt lat="43.6150383" lon="13.2495383"><ele>158.66666666666669</ele><time>2026-04-25T06:51:17.951Z</time></trkpt><trkpt lat="43.6149633" lon="13.249335"><ele>160.0</ele><time>2026-04-25T06:51:18.951Z</time></trkpt><trkpt lat="43.614895" lon="13.2491283"><ele>159.66666666666669</ele><time>2026-04-25T06:51:19.946Z</time></trkpt><trkpt lat="43.614835" lon="13.248925"><ele>159.33333333333334</ele><time>2026-04-25T06:51:20.946Z</time></trkpt><trkpt lat="43.6147867" lon="13.248725"><ele>159.0</ele><time>2026-04-25T06:51:21.946Z</time></trkpt><trkpt lat="43.6147567" lon="13.2485383"><ele>159.0</ele><time>2026-04-25T06:51:23.007Z</time></trkpt><trkpt lat="43.6147333" lon="13.2483567"><ele>159.0</ele><time>2026-04-25T06:51:23.943Z</time></trkpt><trkpt lat="43.6147183" lon="13.24818"><ele>159.0</ele><time>2026-04-25T06:51:24.938Z</time></trkpt><trkpt lat="43.6147017" lon="13.248015"><ele>159.0</ele><time>2026-04-25T06:51:25.941Z</time></trkpt><trkpt lat="43.61469" lon="13.247855"><ele>158.25</ele><time>2026-04-25T06:51:26.949Z</time></trkpt><trkpt lat="43.6146733" lon="13.2476933"><ele>157.5</ele><time>2026-04-25T06:51:27.946Z</time></trkpt><trkpt lat="43.614655" lon="13.2475267"><ele>156.75</ele><time>2026-04-25T06:51:29.009Z</time></trkpt><trkpt lat="43.614645" lon="13.2473517"><ele>156.0</ele><time>2026-04-25T06:51:29.94Z</time></trkpt><trkpt lat="43.6146283" lon="13.2471717"><ele>154.75</ele><time>2026-04-25T06:51:30.95Z</time></trkpt><trkpt lat="43.6146167" lon="13.2469767"><ele>153.5</ele><time>2026-04-25T06:51:31.945Z</time></trkpt><trkpt lat="43.6146117" lon="13.246775"><ele>152.25</ele><time>2026-04-25T06:51:32.944Z</time></trkpt><trkpt lat="43.6146117" lon="13.246565"><ele>151.0</ele><time>2026-04-25T06:51:33.94Z</time></trkpt><trkpt lat="43.61461" lon="13.24635"><ele>150.33333333333334</ele><time>2026-04-25T06:51:35.001Z</time></trkpt><trkpt lat="43.6145933" lon="13.2461283"><ele>149.66666666666666</ele><time>2026-04-25T06:51:35.95Z</time></trkpt><trkpt lat="43.61456" lon="13.2459067"><ele>149.0</ele><time>2026-04-25T06:51:36.953Z</time></trkpt><trkpt lat="43.6145167" lon="13.24568"><ele>150.33333333333331</ele><time>2026-04-25T06:51:37.945Z</time></trkpt><trkpt lat="43.6144717" lon="13.2454483"><ele>151.66666666666666</ele><time>2026-04-25T06:51:38.953Z</time></trkpt><trkpt lat="43.6144217" lon="13.2452183"><ele>153.0</ele><time>2026-04-25T06:51:39.943Z</time></trkpt><trkpt lat="43.61437" lon="13.2449867"><ele>152.66666666666666</ele><time>2026-04-25T06:51:41.003Z</time></trkpt><trkpt lat="43.614315" lon="13.2447567"><ele>152.33333333333331</ele><time>2026-04-25T06:51:41.942Z</time></trkpt><trkpt lat="43.6142467" lon="13.24453"><ele>152.0</ele><time>2026-04-25T06:51:42.952Z</time></trkpt><trkpt lat="43.6141733" lon="13.2443017"><ele>152.0</ele><time>2026-04-25T06:51:43.944Z</time></trkpt><trkpt lat="43.6140983" lon="13.2440783"><ele>152.0</ele><time>2026-04-25T06:51:44.945Z</time></trkpt><trkpt lat="43.6140217" lon="13.2438483"><ele>152.0</ele><time>2026-04-25T06:51:45.955Z</time></trkpt><trkpt lat="43.6139467" lon="13.24362"><ele>151.33333333333331</ele><time>2026-04-25T06:51:47.007Z</time></trkpt><trkpt lat="43.6138733" lon="13.243385"><ele>150.66666666666666</ele><time>2026-04-25T06:51:47.949Z</time></trkpt><trkpt lat="43.6137983" lon="13.2431533"><ele>150.0</ele><time>2026-04-25T06:51:48.955Z</time></trkpt><trkpt lat="43.61373" lon="13.2429183"><ele>150.0</ele><time>2026-04-25T06:51:49.949Z</time></trkpt><trkpt lat="43.61367" lon="13.2426833"><ele>150.0</ele><time>2026-04-25T06:51:50.946Z</time></trkpt><trkpt lat="43.6136167" lon="13.242445"><ele>150.0</ele><time>2026-04-25T06:51:51.942Z</time></trkpt><trkpt lat="43.6135733" lon="13.24221"><ele>150.0</ele><time>2026-04-25T06:51:52.962Z</time></trkpt><trkpt lat="43.6135417" lon="13.2419683"><ele>150.0</ele><time>2026-04-25T06:51:53.943Z</time></trkpt><trkpt lat="43.6135167" lon="13.241725"><ele>150.0</ele><time>2026-04-25T06:51:54.946Z</time></trkpt><trkpt lat="43.613495" lon="13.2414783"><ele>152.33333333333334</ele><time>2026-04-25T06:51:55.943Z</time></trkpt><trkpt lat="43.61347" lon="13.24123"><ele>154.66666666666669</ele><time>2026-04-25T06:51:56.946Z</time></trkpt><trkpt lat="43.613445" lon="13.24098"><ele>157.0</ele><time>2026-04-25T06:51:57.949Z</time></trkpt><trkpt lat="43.6134167" lon="13.24073"><ele>157.66666666666669</ele><time>2026-04-25T06:51:58.988Z</time></trkpt><trkpt lat="43.6133933" lon="13.2404767"><ele>158.33333333333334</ele><time>2026-04-25T06:51:59.946Z</time></trkpt><trkpt lat="43.61337" lon="13.2402217"><ele>159.0</ele><time>2026-04-25T06:52:00.947Z</time></trkpt><trkpt lat="43.6133517" lon="13.2399733"><ele>160.33333333333334</ele><time>2026-04-25T06:52:01.938Z</time></trkpt><trkpt lat="43.6133517" lon="13.23973"><ele>161.66666666666669</ele><time>2026-04-25T06:52:02.95Z</time></trkpt><trkpt lat="43.6133633" lon="13.239485"><ele>163.0</ele><time>2026-04-25T06:52:03.943Z</time></trkpt><trkpt lat="43.6133817" lon="13.2392533"><ele>163.0</ele><time>2026-04-25T06:52:04.994Z</time></trkpt><trkpt lat="43.6134" lon="13.2390383"><ele>163.0</ele><time>2026-04-25T06:52:05.939Z</time></trkpt><trkpt lat="43.613415" lon="13.23884"><ele>163.0</ele><time>2026-04-25T06:52:06.942Z</time></trkpt><trkpt lat="43.6134333" lon="13.2386583"><ele>163.0</ele><time>2026-04-25T06:52:07.945Z</time></trkpt><trkpt lat="43.6134483" lon="13.2384983"><ele>163.5</ele><time>2026-04-25T06:52:08.94Z</time></trkpt><trkpt lat="43.6134583" lon="13.2383583"><ele>164.0</ele><time>2026-04-25T06:52:09.945Z</time></trkpt><trkpt lat="43.61347" lon="13.2382283"><ele>164.5</ele><time>2026-04-25T06:52:11.001Z</time></trkpt><trkpt lat="43.6134817" lon="13.2381167"><ele>165.0</ele><time>2026-04-25T06:52:11.941Z</time></trkpt><trkpt lat="43.613485" lon="13.2380133"><ele>165.5</ele><time>2026-04-25T06:52:12.949Z</time></trkpt><trkpt lat="43.6134767" lon="13.237915"><ele>166.0</ele><time>2026-04-25T06:52:13.939Z</time></trkpt><trkpt lat="43.6134333" lon="13.2378317"><ele>166.20000000000002</ele><time>2026-04-25T06:52:14.946Z</time></trkpt><trkpt lat="43.6133733" lon="13.2377667"><ele>166.4</ele><time>2026-04-25T06:52:15.945Z</time></trkpt><trkpt lat="43.613295" lon="13.237715"><ele>166.6</ele><time>2026-04-25T06:52:16.999Z</time></trkpt><trkpt lat="43.6131917" lon="13.23767"><ele>166.8</ele><time>2026-04-25T06:52:17.942Z</time></trkpt><trkpt lat="43.6130667" lon="13.23761"><ele>167.0</ele><time>2026-04-25T06:52:18.946Z</time></trkpt><trkpt lat="43.6129383" lon="13.2375367"><ele>167.0</ele><time>2026-04-25T06:52:19.946Z</time></trkpt><trkpt lat="43.6128067" lon="13.2374417"><ele>167.0</ele><time>2026-04-25T06:52:20.952Z</time></trkpt><trkpt lat="43.6126733" lon="13.2373383"><ele>167.0</ele><time>2026-04-25T06:52:21.955Z</time></trkpt><trkpt lat="43.61253" lon="13.2372367"><ele>165.0</ele><time>2026-04-25T06:52:23.02Z</time></trkpt><trkpt lat="43.6123933" lon="13.2371317"><ele>163.0</ele><time>2026-04-25T06:52:23.945Z</time></trkpt><trkpt lat="43.61226" lon="13.2370317"><ele>161.0</ele><time>2026-04-25T06:52:24.953Z</time></trkpt><trkpt lat="43.61213" lon="13.23692"><ele>161.0</ele><time>2026-04-25T06:52:25.953Z</time></trkpt><trkpt lat="43.6120017" lon="13.236795"><ele>161.0</ele><time>2026-04-25T06:52:26.961Z</time></trkpt><trkpt lat="43.61188" lon="13.2366467"><ele>161.0</ele><time>2026-04-25T06:52:27.946Z</time></trkpt><trkpt lat="43.6117633" lon="13.2364883"><ele>161.0</ele><time>2026-04-25T06:52:29.008Z</time></trkpt><trkpt lat="43.6116433" lon="13.2363267"><ele>161.0</ele><time>2026-04-25T06:52:29.94Z</time></trkpt><trkpt lat="43.6115233" lon="13.2361667"><ele>161.0</ele><time>2026-04-25T06:52:30.94Z</time></trkpt><trkpt lat="43.6114083" lon="13.2360133"><ele>161.0</ele><time>2026-04-25T06:52:31.941Z</time></trkpt><trkpt lat="43.6112933" lon="13.2358567"><ele>161.0</ele><time>2026-04-25T06:52:32.944Z</time></trkpt><trkpt lat="43.61118" lon="13.2356983"><ele>161.0</ele><time>2026-04-25T06:52:33.94Z</time></trkpt><trkpt lat="43.6110717" lon="13.2355433"><ele>162.33333333333331</ele><time>2026-04-25T06:52:34.999Z</time></trkpt><trkpt lat="43.6109617" lon="13.2353917"><ele>163.66666666666666</ele><time>2026-04-25T06:52:35.946Z</time></trkpt><trkpt lat="43.61085" lon="13.2352367"><ele>165.0</ele><time>2026-04-25T06:52:36.947Z</time></trkpt><trkpt lat="43.6107367" lon="13.2350717"><ele>165.0</ele><time>2026-04-25T06:52:37.939Z</time></trkpt><trkpt lat="43.6106217" lon="13.2348967"><ele>165.0</ele><time>2026-04-25T06:52:38.948Z</time></trkpt><trkpt lat="43.6105117" lon="13.2347167"><ele>165.0</ele><time>2026-04-25T06:52:39.946Z</time></trkpt><trkpt lat="43.6104017" lon="13.234535"><ele>165.0</ele><time>2026-04-25T06:52:40.996Z</time></trkpt><trkpt lat="43.6102967" lon="13.2343483"><ele>165.0</ele><time>2026-04-25T06:52:41.944Z</time></trkpt><trkpt lat="43.610195" lon="13.2341617"><ele>165.0</ele><time>2026-04-25T06:52:42.949Z</time></trkpt><trkpt lat="43.61009" lon="13.233965"><ele>163.66666666666666</ele><time>2026-04-25T06:52:43.944Z</time></trkpt><trkpt lat="43.60999" lon="13.2337667"><ele>162.33333333333331</ele><time>2026-04-25T06:52:44.949Z</time></trkpt><trkpt lat="43.6098983" lon="13.2335633"><ele>161.0</ele><time>2026-04-25T06:52:45.948Z</time></trkpt><trkpt lat="43.6098017" lon="13.23336"><ele>161.0</ele><time>2026-04-25T06:52:47.004Z</time></trkpt><trkpt lat="43.6097117" lon="13.2331567"><ele>161.0</ele><time>2026-04-25T06:52:47.946Z</time></trkpt><trkpt lat="43.609635" lon="13.23295"><ele>161.0</ele><time>2026-04-25T06:52:48.948Z</time></trkpt><trkpt lat="43.6095617" lon="13.23274"><ele>161.0</ele><time>2026-04-25T06:52:49.946Z</time></trkpt><trkpt lat="43.6094917" lon="13.2325233"><ele>161.0</ele><time>2026-04-25T06:52:50.947Z</time></trkpt><trkpt lat="43.60942" lon="13.2323"><ele>161.0</ele><time>2026-04-25T06:52:51.954Z</time></trkpt><trkpt lat="43.6093517" lon="13.232075"><ele>161.0</ele><time>2026-04-25T06:52:53.013Z</time></trkpt><trkpt lat="43.60928" lon="13.231855"><ele>161.0</ele><time>2026-04-25T06:52:53.943Z</time></trkpt><trkpt lat="43.6092033" lon="13.2316417"><ele>161.0</ele><time>2026-04-25T06:52:54.947Z</time></trkpt><trkpt lat="43.6091133" lon="13.2314317"><ele>159.33333333333331</ele><time>2026-04-25T06:52:55.944Z</time></trkpt><trkpt lat="43.60902" lon="13.231225"><ele>157.66666666666666</ele><time>2026-04-25T06:52:56.95Z</time></trkpt><trkpt lat="43.608925" lon="13.231025"><ele>156.0</ele><time>2026-04-25T06:52:57.946Z</time></trkpt><trkpt lat="43.6088217" lon="13.2308267"><ele>156.0</ele><time>2026-04-25T06:52:58.99Z</time></trkpt><trkpt lat="43.6087267" lon="13.2306217"><ele>156.0</ele><time>2026-04-25T06:52:59.944Z</time></trkpt><trkpt lat="43.6086367" lon="13.2304133"><ele>156.0</ele><time>2026-04-25T06:53:00.945Z</time></trkpt><trkpt lat="43.6085483" lon="13.2302033"><ele>156.0</ele><time>2026-04-25T06:53:01.95Z</time></trkpt><trkpt lat="43.6084583" lon="13.2299967"><ele>156.0</ele><time>2026-04-25T06:53:02.949Z</time></trkpt><trkpt lat="43.6083683" lon="13.2297833"><ele>156.0</ele><time>2026-04-25T06:53:03.946Z</time></trkpt><trkpt lat="43.60828" lon="13.2295683"><ele>156.33333333333334</ele><time>2026-04-25T06:53:05.002Z</time></trkpt><trkpt lat="43.608185" lon="13.229355"><ele>156.66666666666669</ele><time>2026-04-25T06:53:05.94Z</time></trkpt><trkpt lat="43.608095" lon="13.229145"><ele>157.0</ele><time>2026-04-25T06:53:06.948Z</time></trkpt><trkpt lat="43.6080033" lon="13.2289333"><ele>156.0</ele><time>2026-04-25T06:53:07.948Z</time></trkpt><trkpt lat="43.6079167" lon="13.2287267"><ele>155.0</ele><time>2026-04-25T06:53:08.948Z</time></trkpt><trkpt lat="43.6078333" lon="13.22852"><ele>154.0</ele><time>2026-04-25T06:53:09.949Z</time></trkpt><trkpt lat="43.607755" lon="13.2283033"><ele>158.0</ele><time>2026-04-25T06:53:11.003Z</time></trkpt><trkpt lat="43.60768" lon="13.2280867"><ele>162.0</ele><time>2026-04-25T06:53:11.943Z</time></trkpt><trkpt lat="43.60761" lon="13.2278667"><ele>166.0</ele><time>2026-04-25T06:53:12.946Z</time></trkpt><trkpt lat="43.60754" lon="13.2276433"><ele>166.0</ele><time>2026-04-25T06:53:13.948Z</time></trkpt><trkpt lat="43.6074783" lon="13.2274183"><ele>166.0</ele><time>2026-04-25T06:53:14.947Z</time></trkpt><trkpt lat="43.6074233" lon="13.2271883"><ele>166.0</ele><time>2026-04-25T06:53:15.95Z</time></trkpt><trkpt lat="43.6073833" lon="13.2269533"><ele>165.66666666666669</ele><time>2026-04-25T06:53:17.001Z</time></trkpt><trkpt lat="43.607355" lon="13.2267167"><ele>165.33333333333334</ele><time>2026-04-25T06:53:17.945Z</time></trkpt><trkpt lat="43.6073333" lon="13.2264783"><ele>165.0</ele><time>2026-04-25T06:53:18.947Z</time></trkpt><trkpt lat="43.6073117" lon="13.226235"><ele>165.0</ele><time>2026-04-25T06:53:19.949Z</time></trkpt><trkpt lat="43.6072933" lon="13.2259967"><ele>165.0</ele><time>2026-04-25T06:53:20.949Z</time></trkpt><trkpt lat="43.6072733" lon="13.2257617"><ele>165.0</ele><time>2026-04-25T06:53:21.949Z</time></trkpt><trkpt lat="43.607245" lon="13.2255233"><ele>165.66666666666666</ele><time>2026-04-25T06:53:23.014Z</time></trkpt><trkpt lat="43.607215" lon="13.225285"><ele>166.33333333333331</ele><time>2026-04-25T06:53:23.951Z</time></trkpt><trkpt lat="43.6071767" lon="13.2250483"><ele>167.0</ele><time>2026-04-25T06:53:24.948Z</time></trkpt><trkpt lat="43.6071233" lon="13.2248133"><ele>166.33333333333331</ele><time>2026-04-25T06:53:25.947Z</time></trkpt><trkpt lat="43.60706" lon="13.22458"><ele>165.66666666666666</ele><time>2026-04-25T06:53:26.947Z</time></trkpt><trkpt lat="43.6069983" lon="13.2243467"><ele>165.0</ele><time>2026-04-25T06:53:27.954Z</time></trkpt><trkpt lat="43.6069483" lon="13.224115"><ele>166.33333333333334</ele><time>2026-04-25T06:53:28.969Z</time></trkpt><trkpt lat="43.6069067" lon="13.2238867"><ele>167.66666666666669</ele><time>2026-04-25T06:53:29.944Z</time></trkpt><trkpt lat="43.6068783" lon="13.2236533"><ele>169.0</ele><time>2026-04-25T06:53:30.939Z</time></trkpt><trkpt lat="43.6068567" lon="13.22342"><ele>169.0</ele><time>2026-04-25T06:53:31.949Z</time></trkpt><trkpt lat="43.6068333" lon="13.2231867"><ele>169.0</ele><time>2026-04-25T06:53:32.942Z</time></trkpt><trkpt lat="43.6068083" lon="13.2229567"><ele>169.0</ele><time>2026-04-25T06:53:33.947Z</time></trkpt><trkpt lat="43.6067767" lon="13.2227267"><ele>170.33333333333334</ele><time>2026-04-25T06:53:34.989Z</time></trkpt><trkpt lat="43.6067317" lon="13.2224967"><ele>171.66666666666666</ele><time>2026-04-25T06:53:35.937Z</time></trkpt><trkpt lat="43.6066833" lon="13.2222833"><ele>173.0</ele><time>2026-04-25T06:53:36.944Z</time></trkpt><trkpt lat="43.6066283" lon="13.2220817"><ele>173.25</ele><time>2026-04-25T06:53:37.943Z</time></trkpt><trkpt lat="43.6065667" lon="13.2218967"><ele>173.5</ele><time>2026-04-25T06:53:38.944Z</time></trkpt><trkpt lat="43.6064933" lon="13.221745"><ele>173.75</ele><time>2026-04-25T06:53:39.955Z</time></trkpt><trkpt lat="43.6064117" lon="13.22161"><ele>174.0</ele><time>2026-04-25T06:53:40.993Z</time></trkpt><trkpt lat="43.6063133" lon="13.2214867"><ele>173.66666666666666</ele><time>2026-04-25T06:53:41.939Z</time></trkpt><trkpt lat="43.6061817" lon="13.2213717"><ele>173.33333333333331</ele><time>2026-04-25T06:53:42.948Z</time></trkpt><trkpt lat="43.606025" lon="13.2212633"><ele>173.0</ele><time>2026-04-25T06:53:43.945Z</time></trkpt><trkpt lat="43.60587" lon="13.2211417"><ele>173.0</ele><time>2026-04-25T06:53:44.947Z</time></trkpt><trkpt lat="43.6057283" lon="13.2210183"><ele>173.0</ele><time>2026-04-25T06:53:45.948Z</time></trkpt><trkpt lat="43.6055867" lon="13.2209"><ele>173.0</ele><time>2026-04-25T06:53:46.999Z</time></trkpt><trkpt lat="43.6054517" lon="13.2207967"><ele>173.5</ele><time>2026-04-25T06:53:47.944Z</time></trkpt><trkpt lat="43.6053283" lon="13.2207"><ele>174.0</ele><time>2026-04-25T06:53:48.949Z</time></trkpt><trkpt lat="43.6051983" lon="13.22061"><ele>174.5</ele><time>2026-04-25T06:53:49.948Z</time></trkpt><trkpt lat="43.605065" lon="13.22053"><ele>175.0</ele><time>2026-04-25T06:53:50.944Z</time></trkpt><trkpt lat="43.6049317" lon="13.220445"><ele>173.33333333333334</ele><time>2026-04-25T06:53:51.941Z</time></trkpt><trkpt lat="43.6048" lon="13.2203533"><ele>171.66666666666666</ele><time>2026-04-25T06:53:52.994Z</time></trkpt><trkpt lat="43.6046633" lon="13.2202583"><ele>170.0</ele><time>2026-04-25T06:53:53.945Z</time></trkpt><trkpt lat="43.6045283" lon="13.2201617"><ele>170.33333333333331</ele><time>2026-04-25T06:53:54.948Z</time></trkpt><trkpt lat="43.6043983" lon="13.2200567"><ele>170.66666666666666</ele><time>2026-04-25T06:53:55.951Z</time></trkpt><trkpt lat="43.6042733" lon="13.219935"><ele>171.0</ele><time>2026-04-25T06:53:56.949Z</time></trkpt><trkpt lat="43.604145" lon="13.2198017"><ele>171.0</ele><time>2026-04-25T06:53:57.944Z</time></trkpt><trkpt lat="43.6040217" lon="13.2196717"><ele>171.0</ele><time>2026-04-25T06:53:58.951Z</time></trkpt><trkpt lat="43.6039033" lon="13.2195533"><ele>171.0</ele><time>2026-04-25T06:53:59.952Z</time></trkpt><trkpt lat="43.6037933" lon="13.219435"><ele>171.0</ele><time>2026-04-25T06:54:00.947Z</time></trkpt><trkpt lat="43.6036883" lon="13.2193167"><ele>172.25</ele><time>2026-04-25T06:54:01.95Z</time></trkpt><trkpt lat="43.6035983" lon="13.2191867"><ele>173.5</ele><time>2026-04-25T06:54:02.949Z</time></trkpt><trkpt lat="43.6035217" lon="13.219045"><ele>174.75</ele><time>2026-04-25T06:54:03.953Z</time></trkpt><trkpt lat="43.6034633" lon="13.21889"><ele>176.0</ele><time>2026-04-25T06:54:05.003Z</time></trkpt><trkpt lat="43.603425" lon="13.2187017"><ele>176.0</ele><time>2026-04-25T06:54:05.944Z</time></trkpt><trkpt lat="43.60338" lon="13.2185117"><ele>176.0</ele><time>2026-04-25T06:54:06.955Z</time></trkpt><trkpt lat="43.6033317" lon="13.2183217"><ele>176.0</ele><time>2026-04-25T06:54:07.95Z</time></trkpt><trkpt lat="43.60328" lon="13.2181233"><ele>176.0</ele><time>2026-04-25T06:54:08.947Z</time></trkpt><trkpt lat="43.6032267" lon="13.2179217"><ele>175.0</ele><time>2026-04-25T06:54:09.949Z</time></trkpt><trkpt lat="43.6031733" lon="13.2177267"><ele>174.0</ele><time>2026-04-25T06:54:10.997Z</time></trkpt><trkpt lat="43.6031183" lon="13.21753"><ele>173.0</ele><time>2026-04-25T06:54:11.939Z</time></trkpt><trkpt lat="43.6030667" lon="13.2173233"><ele>172.33333333333331</ele><time>2026-04-25T06:54:12.945Z</time></trkpt><trkpt lat="43.6030117" lon="13.21712"><ele>171.66666666666666</ele><time>2026-04-25T06:54:13.947Z</time></trkpt><trkpt lat="43.6029467" lon="13.2169233"><ele>171.0</ele><time>2026-04-25T06:54:14.951Z</time></trkpt><trkpt lat="43.602875" lon="13.2167367"><ele>173.0</ele><time>2026-04-25T06:54:15.951Z</time></trkpt><trkpt lat="43.6028033" lon="13.2165517"><ele>175.0</ele><time>2026-04-25T06:54:17.006Z</time></trkpt><trkpt lat="43.6027317" lon="13.2163717"><ele>177.0</ele><time>2026-04-25T06:54:17.944Z</time></trkpt><trkpt lat="43.6026533" lon="13.2161933"><ele>178.0</ele><time>2026-04-25T06:54:18.947Z</time></trkpt><trkpt lat="43.6025783" lon="13.2160133"><ele>179.0</ele><time>2026-04-25T06:54:19.948Z</time></trkpt><trkpt lat="43.6024967" lon="13.2158433"><ele>180.0</ele><time>2026-04-25T06:54:20.943Z</time></trkpt><trkpt lat="43.6024067" lon="13.2156833"><ele>181.0</ele><time>2026-04-25T06:54:21.944Z</time></trkpt><trkpt lat="43.602315" lon="13.2155317"><ele>181.25</ele><time>2026-04-25T06:54:22.985Z</time></trkpt><trkpt lat="43.6022233" lon="13.2153833"><ele>181.5</ele><time>2026-04-25T06:54:23.944Z</time></trkpt><trkpt lat="43.60214" lon="13.2152317"><ele>181.75</ele><time>2026-04-25T06:54:24.946Z</time></trkpt><trkpt lat="43.6020583" lon="13.2150833"><ele>182.0</ele><time>2026-04-25T06:54:25.946Z</time></trkpt><trkpt lat="43.6020017" lon="13.214945"><ele>185.2</ele><time>2026-04-25T06:54:26.943Z</time></trkpt><trkpt lat="43.601965" lon="13.2148033"><ele>188.39999999999998</ele><time>2026-04-25T06:54:27.944Z</time></trkpt><trkpt lat="43.6019567" lon="13.214665"><ele>191.60000000000002</ele><time>2026-04-25T06:54:28.984Z</time></trkpt><trkpt lat="43.6019717" lon="13.2145217"><ele>194.8</ele><time>2026-04-25T06:54:29.94Z</time></trkpt><trkpt lat="43.6019917" lon="13.21438"><ele>198.0</ele><time>2026-04-25T06:54:30.94Z</time></trkpt><trkpt lat="43.601985" lon="13.2142267"><ele>198.0</ele><time>2026-04-25T06:54:31.939Z</time></trkpt><trkpt lat="43.601985" lon="13.214085"><ele>198.0</ele><time>2026-04-25T06:54:32.942Z</time></trkpt><trkpt lat="43.6019833" lon="13.2139467"><ele>198.0</ele><time>2026-04-25T06:54:33.941Z</time></trkpt><trkpt lat="43.6019917" lon="13.213845"><ele>198.0</ele><time>2026-04-25T06:54:34.997Z</time></trkpt><trkpt lat="43.60198" lon="13.213725"><ele>198.0</ele><time>2026-04-25T06:54:35.939Z</time></trkpt><trkpt lat="43.6019617" lon="13.213605"><ele>197.66666666666666</ele><time>2026-04-25T06:54:36.948Z</time></trkpt><trkpt lat="43.6019483" lon="13.2134883"><ele>197.33333333333331</ele><time>2026-04-25T06:54:37.95Z</time></trkpt><trkpt lat="43.6019383" lon="13.2133817"><ele>197.0</ele><time>2026-04-25T06:54:38.944Z</time></trkpt><trkpt lat="43.6019283" lon="13.2132783"><ele>196.66666666666666</ele><time>2026-04-25T06:54:39.947Z</time></trkpt><trkpt lat="43.60191" lon="13.2131833"><ele>196.33333333333331</ele><time>2026-04-25T06:54:40.998Z</time></trkpt><trkpt lat="43.60187" lon="13.213095"><ele>196.0</ele><time>2026-04-25T06:54:41.938Z</time></trkpt><trkpt lat="43.6018167" lon="13.2130333"><ele>193.5</ele><time>2026-04-25T06:54:42.947Z</time></trkpt><trkpt lat="43.6017283" lon="13.2130017"><ele>191.0</ele><time>2026-04-25T06:54:43.947Z</time></trkpt><trkpt lat="43.6015733" lon="13.2130267"><ele>188.5</ele><time>2026-04-25T06:54:44.945Z</time></trkpt><trkpt lat="43.601425" lon="13.213055"><ele>186.0</ele><time>2026-04-25T06:54:45.942Z</time></trkpt><trkpt lat="43.60129" lon="13.213095"><ele>187.25</ele><time>2026-04-25T06:54:47.001Z</time></trkpt><trkpt lat="43.601155" lon="13.2131267"><ele>188.5</ele><time>2026-04-25T06:54:47.945Z</time></trkpt><trkpt lat="43.6010333" lon="13.21315"><ele>189.75</ele><time>2026-04-25T06:54:48.947Z</time></trkpt><trkpt lat="43.60093" lon="13.2131617"><ele>191.0</ele><time>2026-04-25T06:54:49.952Z</time></trkpt><trkpt lat="43.6008217" lon="13.2131667"><ele>191.0</ele><time>2026-04-25T06:54:50.952Z</time></trkpt><trkpt lat="43.600715" lon="13.21315"><ele>191.0</ele><time>2026-04-25T06:54:51.942Z</time></trkpt><trkpt lat="43.6006083" lon="13.2131217"><ele>191.0</ele><time>2026-04-25T06:54:53.012Z</time></trkpt><trkpt lat="43.6005" lon="13.2130583"><ele>191.0</ele><time>2026-04-25T06:54:53.953Z</time></trkpt><trkpt lat="43.6003967" lon="13.2129867"><ele>191.0</ele><time>2026-04-25T06:54:54.946Z</time></trkpt><trkpt lat="43.600295" lon="13.2129167"><ele>191.25</ele><time>2026-04-25T06:54:55.947Z</time></trkpt><trkpt lat="43.6001867" lon="13.212855"><ele>191.5</ele><time>2026-04-25T06:54:56.945Z</time></trkpt><trkpt lat="43.6000767" lon="13.2127917"><ele>191.75</ele><time>2026-04-25T06:54:57.943Z</time></trkpt><trkpt lat="43.5999767" lon="13.2127017"><ele>192.0</ele><time>2026-04-25T06:54:58.988Z</time></trkpt><trkpt lat="43.5998467" lon="13.2126483"><ele>192.0</ele><time>2026-04-25T06:54:59.949Z</time></trkpt><trkpt lat="43.59973" lon="13.2125983"><ele>192.0</ele><time>2026-04-25T06:55:00.947Z</time></trkpt><trkpt lat="43.5996383" lon="13.2125167"><ele>192.0</ele><time>2026-04-25T06:55:01.943Z</time></trkpt><trkpt lat="43.5995267" lon="13.212445"><ele>192.0</ele><time>2026-04-25T06:55:02.945Z</time></trkpt><trkpt lat="43.599415" lon="13.2123683"><ele>191.0</ele><time>2026-04-25T06:55:03.948Z</time></trkpt><trkpt lat="43.59931" lon="13.21226"><ele>190.0</ele><time>2026-04-25T06:55:04.998Z</time></trkpt><trkpt lat="43.5992067" lon="13.21215"><ele>189.0</ele><time>2026-04-25T06:55:05.943Z</time></trkpt><trkpt lat="43.5991033" lon="13.2120417"><ele>188.0</ele><time>2026-04-25T06:55:06.946Z</time></trkpt><trkpt lat="43.5989933" lon="13.2119333"><ele>188.0</ele><time>2026-04-25T06:55:07.944Z</time></trkpt><trkpt lat="43.5988783" lon="13.21182"><ele>188.0</ele><time>2026-04-25T06:55:08.948Z</time></trkpt><trkpt lat="43.59876" lon="13.21171"><ele>188.0</ele><time>2026-04-25T06:55:09.946Z</time></trkpt><trkpt lat="43.5986433" lon="13.2116"><ele>188.0</ele><time>2026-04-25T06:55:11.004Z</time></trkpt><trkpt lat="43.5985167" lon="13.2115117"><ele>187.75</ele><time>2026-04-25T06:55:11.946Z</time></trkpt><trkpt lat="43.59839" lon="13.2114333"><ele>187.5</ele><time>2026-04-25T06:55:12.949Z</time></trkpt><trkpt lat="43.598255" lon="13.21137"><ele>187.25</ele><time>2026-04-25T06:55:13.948Z</time></trkpt><trkpt lat="43.5981133" lon="13.211325"><ele>187.0</ele><time>2026-04-25T06:55:14.948Z</time></trkpt><trkpt lat="43.5979767" lon="13.21127"><ele>188.5</ele><time>2026-04-25T06:55:15.946Z</time></trkpt><trkpt lat="43.5978333" lon="13.2112217"><ele>190.0</ele><time>2026-04-25T06:55:16.99Z</time></trkpt><trkpt lat="43.59769" lon="13.2111683"><ele>191.5</ele><time>2026-04-25T06:55:17.936Z</time></trkpt><trkpt lat="43.5975383" lon="13.2111383"><ele>193.0</ele><time>2026-04-25T06:55:18.949Z</time></trkpt><trkpt lat="43.5973883" lon="13.2111217"><ele>193.0</ele><time>2026-04-25T06:55:19.945Z</time></trkpt><trkpt lat="43.5972483" lon="13.211075"><ele>193.0</ele><time>2026-04-25T06:55:20.948Z</time></trkpt><trkpt lat="43.5971067" lon="13.2110283"><ele>193.0</ele><time>2026-04-25T06:55:21.938Z</time></trkpt><trkpt lat="43.59698" lon="13.2109583"><ele>193.0</ele><time>2026-04-25T06:55:23.011Z</time></trkpt><trkpt lat="43.5968433" lon="13.210895"><ele>193.5</ele><time>2026-04-25T06:55:23.945Z</time></trkpt><trkpt lat="43.5967067" lon="13.21083"><ele>194.0</ele><time>2026-04-25T06:55:24.945Z</time></trkpt><trkpt lat="43.59657" lon="13.210765"><ele>194.5</ele><time>2026-04-25T06:55:25.941Z</time></trkpt><trkpt lat="43.5964383" lon="13.2107033"><ele>195.0</ele><time>2026-04-25T06:55:26.946Z</time></trkpt><trkpt lat="43.5963" lon="13.2106533"><ele>194.0</ele><time>2026-04-25T06:55:27.949Z</time></trkpt><trkpt lat="43.5961617" lon="13.210605"><ele>193.0</ele><time>2026-04-25T06:55:28.988Z</time></trkpt><trkpt lat="43.596025" lon="13.21056"><ele>192.0</ele><time>2026-04-25T06:55:29.949Z</time></trkpt><trkpt lat="43.5958817" lon="13.2105283"><ele>191.0</ele><time>2026-04-25T06:55:30.949Z</time></trkpt><trkpt lat="43.5957383" lon="13.2104983"><ele>191.0</ele><time>2026-04-25T06:55:31.949Z</time></trkpt><trkpt lat="43.595595" lon="13.21047"><ele>191.0</ele><time>2026-04-25T06:55:32.95Z</time></trkpt><trkpt lat="43.59545" lon="13.21043"><ele>191.0</ele><time>2026-04-25T06:55:33.938Z</time></trkpt><trkpt lat="43.5953067" lon="13.210375"><ele>191.0</ele><time>2026-04-25T06:55:34.991Z</time></trkpt><trkpt lat="43.595165" lon="13.210315"><ele>190.5</ele><time>2026-04-25T06:55:35.948Z</time></trkpt><trkpt lat="43.59503" lon="13.2102317"><ele>190.0</ele><time>2026-04-25T06:55:36.949Z</time></trkpt><trkpt lat="43.5948933" lon="13.2101433"><ele>189.5</ele><time>2026-04-25T06:55:37.948Z</time></trkpt><trkpt lat="43.5947617" lon="13.2100517"><ele>189.0</ele><time>2026-04-25T06:55:38.949Z</time></trkpt><trkpt lat="43.5946283" lon="13.209955"><ele>189.0</ele><time>2026-04-25T06:55:39.948Z</time></trkpt><trkpt lat="43.594495" lon="13.2098533"><ele>189.0</ele><time>2026-04-25T06:55:41.004Z</time></trkpt><trkpt lat="43.5943617" lon="13.2097517"><ele>189.0</ele><time>2026-04-25T06:55:41.946Z</time></trkpt><trkpt lat="43.5942333" lon="13.20965"><ele>189.0</ele><time>2026-04-25T06:55:42.953Z</time></trkpt><trkpt lat="43.59411" lon="13.2095417"><ele>189.0</ele><time>2026-04-25T06:55:43.948Z</time></trkpt><trkpt lat="43.5939917" lon="13.2094233"><ele>189.0</ele><time>2026-04-25T06:55:44.95Z</time></trkpt><trkpt lat="43.593875" lon="13.209305"><ele>189.0</ele><time>2026-04-25T06:55:45.947Z</time></trkpt><trkpt lat="43.5937633" lon="13.20918"><ele>189.33333333333334</ele><time>2026-04-25T06:55:47Z</time></trkpt><trkpt lat="43.5936417" lon="13.2090567"><ele>189.66666666666669</ele><time>2026-04-25T06:55:47.948Z</time></trkpt><trkpt lat="43.5935133" lon="13.2089367"><ele>190.0</ele><time>2026-04-25T06:55:48.946Z</time></trkpt><trkpt lat="43.5933867" lon="13.2088233"><ele>188.33333333333334</ele><time>2026-04-25T06:55:49.949Z</time></trkpt><trkpt lat="43.59325" lon="13.20871"><ele>186.66666666666666</ele><time>2026-04-25T06:55:50.948Z</time></trkpt><trkpt lat="43.5931167" lon="13.2085917"><ele>185.0</ele><time>2026-04-25T06:55:51.95Z</time></trkpt><trkpt lat="43.592985" lon="13.2084667"><ele>185.0</ele><time>2026-04-25T06:55:52.955Z</time></trkpt><trkpt lat="43.5928583" lon="13.20833"><ele>185.0</ele><time>2026-04-25T06:55:53.939Z</time></trkpt><trkpt lat="43.592735" lon="13.2081883"><ele>185.0</ele><time>2026-04-25T06:55:54.948Z</time></trkpt><trkpt lat="43.5926133" lon="13.20803"><ele>184.66666666666666</ele><time>2026-04-25T06:55:55.945Z</time></trkpt><trkpt lat="43.592495" lon="13.2078617"><ele>184.33333333333334</ele><time>2026-04-25T06:55:56.949Z</time></trkpt><trkpt lat="43.5923733" lon="13.2076933"><ele>184.0</ele><time>2026-04-25T06:55:57.945Z</time></trkpt><trkpt lat="43.59225" lon="13.207525"><ele>184.0</ele><time>2026-04-25T06:55:58.97Z</time></trkpt><trkpt lat="43.59212" lon="13.2073633"><ele>184.0</ele><time>2026-04-25T06:55:59.947Z</time></trkpt><trkpt lat="43.5919967" lon="13.2071933"><ele>184.0</ele><time>2026-04-25T06:56:00.945Z</time></trkpt><trkpt lat="43.59187" lon="13.2070283"><ele>185.33333333333334</ele><time>2026-04-25T06:56:01.941Z</time></trkpt><trkpt lat="43.591745" lon="13.20686"><ele>186.66666666666666</ele><time>2026-04-25T06:56:02.948Z</time></trkpt><trkpt lat="43.5916117" lon="13.2066983"><ele>188.0</ele><time>2026-04-25T06:56:03.946Z</time></trkpt><trkpt lat="43.5914867" lon="13.2065267"><ele>187.0</ele><time>2026-04-25T06:56:05.006Z</time></trkpt><trkpt lat="43.5913567" lon="13.20636"><ele>186.0</ele><time>2026-04-25T06:56:05.943Z</time></trkpt><trkpt lat="43.5912283" lon="13.2061967"><ele>185.0</ele><time>2026-04-25T06:56:06.944Z</time></trkpt><trkpt lat="43.591105" lon="13.20603"><ele>187.66666666666666</ele><time>2026-04-25T06:56:07.939Z</time></trkpt><trkpt lat="43.590985" lon="13.2058617"><ele>190.33333333333331</ele><time>2026-04-25T06:56:08.944Z</time></trkpt><trkpt lat="43.59086" lon="13.2057033"><ele>193.0</ele><time>2026-04-25T06:56:09.946Z</time></trkpt><trkpt lat="43.590735" lon="13.2055467"><ele>193.0</ele><time>2026-04-25T06:56:11.008Z</time></trkpt><trkpt lat="43.5906133" lon="13.2053917"><ele>193.0</ele><time>2026-04-25T06:56:11.944Z</time></trkpt><trkpt lat="43.59049" lon="13.2052433"><ele>193.0</ele><time>2026-04-25T06:56:12.946Z</time></trkpt><trkpt lat="43.5903633" lon="13.2051083"><ele>193.0</ele><time>2026-04-25T06:56:13.947Z</time></trkpt><trkpt lat="43.5902233" lon="13.2049967"><ele>193.0</ele><time>2026-04-25T06:56:14.946Z</time></trkpt><trkpt lat="43.5900667" lon="13.2049"><ele>193.0</ele><time>2026-04-25T06:56:15.951Z</time></trkpt><trkpt lat="43.5899017" lon="13.2048083"><ele>193.0</ele><time>2026-04-25T06:56:17.004Z</time></trkpt><trkpt lat="43.5897367" lon="13.2047133"><ele>193.0</ele><time>2026-04-25T06:56:17.947Z</time></trkpt><trkpt lat="43.589575" lon="13.2046133"><ele>193.0</ele><time>2026-04-25T06:56:18.944Z</time></trkpt><trkpt lat="43.5894167" lon="13.204515"><ele>191.66666666666666</ele><time>2026-04-25T06:56:19.945Z</time></trkpt><trkpt lat="43.5892567" lon="13.2044167"><ele>190.33333333333331</ele><time>2026-04-25T06:56:20.95Z</time></trkpt><trkpt lat="43.589095" lon="13.2043217"><ele>189.0</ele><time>2026-04-25T06:56:21.947Z</time></trkpt><trkpt lat="43.5889383" lon="13.2042233"><ele>189.0</ele><time>2026-04-25T06:56:23.018Z</time></trkpt><trkpt lat="43.58878" lon="13.204125"><ele>189.0</ele><time>2026-04-25T06:56:23.944Z</time></trkpt><trkpt lat="43.5886283" lon="13.20402"><ele>189.0</ele><time>2026-04-25T06:56:24.952Z</time></trkpt><trkpt lat="43.5884733" lon="13.2039267"><ele>188.33333333333334</ele><time>2026-04-25T06:56:25.957Z</time></trkpt><trkpt lat="43.5883167" lon="13.203835"><ele>187.66666666666669</ele><time>2026-04-25T06:56:26.946Z</time></trkpt><trkpt lat="43.5881633" lon="13.2037417"><ele>187.0</ele><time>2026-04-25T06:56:27.953Z</time></trkpt><trkpt lat="43.5880133" lon="13.203645"><ele>187.0</ele><time>2026-04-25T06:56:29.011Z</time></trkpt><trkpt lat="43.58786" lon="13.20355"><ele>187.0</ele><time>2026-04-25T06:56:29.94Z</time></trkpt><trkpt lat="43.5876933" lon="13.2034817"><ele>187.0</ele><time>2026-04-25T06:56:30.943Z</time></trkpt><trkpt lat="43.587525" lon="13.2034383"><ele>187.0</ele><time>2026-04-25T06:56:31.95Z</time></trkpt><trkpt lat="43.58735" lon="13.20342"><ele>187.0</ele><time>2026-04-25T06:56:32.95Z</time></trkpt><trkpt lat="43.5871717" lon="13.2034183"><ele>187.0</ele><time>2026-04-25T06:56:33.945Z</time></trkpt><trkpt lat="43.586995" lon="13.203415"><ele>187.0</ele><time>2026-04-25T06:56:34.992Z</time></trkpt><trkpt lat="43.5868167" lon="13.2034117"><ele>187.0</ele><time>2026-04-25T06:56:35.946Z</time></trkpt><trkpt lat="43.58664" lon="13.20341"><ele>187.0</ele><time>2026-04-25T06:56:36.949Z</time></trkpt><trkpt lat="43.5864633" lon="13.2034017"><ele>187.0</ele><time>2026-04-25T06:56:37.935Z</time></trkpt><trkpt lat="43.5862883" lon="13.2033917"><ele>187.0</ele><time>2026-04-25T06:56:38.944Z</time></trkpt><trkpt lat="43.5861133" lon="13.2033817"><ele>187.0</ele><time>2026-04-25T06:56:39.952Z</time></trkpt><trkpt lat="43.585945" lon="13.2033667"><ele>187.0</ele><time>2026-04-25T06:56:41.001Z</time></trkpt><trkpt lat="43.5857767" lon="13.2033517"><ele>187.0</ele><time>2026-04-25T06:56:41.945Z</time></trkpt><trkpt lat="43.58561" lon="13.20333"><ele>187.0</ele><time>2026-04-25T06:56:42.95Z</time></trkpt><trkpt lat="43.5854433" lon="13.2032933"><ele>187.0</ele><time>2026-04-25T06:56:43.944Z</time></trkpt><trkpt lat="43.5852767" lon="13.203245"><ele>187.0</ele><time>2026-04-25T06:56:44.942Z</time></trkpt><trkpt lat="43.5851083" lon="13.2031867"><ele>187.0</ele><time>2026-04-25T06:56:45.939Z</time></trkpt><trkpt lat="43.5849467" lon="13.20312"><ele>187.33333333333334</ele><time>2026-04-25T06:56:46.997Z</time></trkpt><trkpt lat="43.58479" lon="13.2030467"><ele>187.66666666666666</ele><time>2026-04-25T06:56:47.947Z</time></trkpt><trkpt lat="43.5846383" lon="13.20295"><ele>188.0</ele><time>2026-04-25T06:56:48.945Z</time></trkpt><trkpt lat="43.584495" lon="13.2028367"><ele>188.0</ele><time>2026-04-25T06:56:49.943Z</time></trkpt><trkpt lat="43.5843583" lon="13.20272"><ele>188.0</ele><time>2026-04-25T06:56:50.947Z</time></trkpt><trkpt lat="43.5842283" lon="13.2026033"><ele>188.0</ele><time>2026-04-25T06:56:51.939Z</time></trkpt><trkpt lat="43.584105" lon="13.2024917"><ele>188.0</ele><time>2026-04-25T06:56:53.006Z</time></trkpt><trkpt lat="43.583985" lon="13.20239"><ele>188.0</ele><time>2026-04-25T06:56:53.942Z</time></trkpt><trkpt lat="43.5838717" lon="13.202295"><ele>188.0</ele><time>2026-04-25T06:56:54.945Z</time></trkpt><trkpt lat="43.583755" lon="13.2022117"><ele>188.0</ele><time>2026-04-25T06:56:55.944Z</time></trkpt><trkpt lat="43.583635" lon="13.2021483"><ele>189.75</ele><time>2026-04-25T06:56:56.942Z</time></trkpt><trkpt lat="43.5835067" lon="13.2021083"><ele>191.5</ele><time>2026-04-25T06:56:57.944Z</time></trkpt><trkpt lat="43.58337" lon="13.2020917"><ele>193.25</ele><time>2026-04-25T06:56:59.011Z</time></trkpt><trkpt lat="43.5832317" lon="13.202105"><ele>195.0</ele><time>2026-04-25T06:56:59.949Z</time></trkpt><trkpt lat="43.5830967" lon="13.2021333"><ele>195.0</ele><time>2026-04-25T06:57:00.952Z</time></trkpt><trkpt lat="43.58296" lon="13.2021567"><ele>195.0</ele><time>2026-04-25T06:57:01.946Z</time></trkpt><trkpt lat="43.58283" lon="13.20218"><ele>195.0</ele><time>2026-04-25T06:57:02.945Z</time></trkpt><trkpt lat="43.5826967" lon="13.2022067"><ele>195.0</ele><time>2026-04-25T06:57:03.949Z</time></trkpt><trkpt lat="43.5825633" lon="13.20224"><ele>194.0</ele><time>2026-04-25T06:57:05.001Z</time></trkpt><trkpt lat="43.5824233" lon="13.20229"><ele>193.0</ele><time>2026-04-25T06:57:05.944Z</time></trkpt><trkpt lat="43.582285" lon="13.2023517"><ele>192.0</ele><time>2026-04-25T06:57:06.946Z</time></trkpt><trkpt lat="43.5821367" lon="13.2024367"><ele>194.0</ele><time>2026-04-25T06:57:07.945Z</time></trkpt><trkpt lat="43.5819767" lon="13.2025433"><ele>196.0</ele><time>2026-04-25T06:57:08.936Z</time></trkpt><trkpt lat="43.5818083" lon="13.20267"><ele>198.0</ele><time>2026-04-25T06:57:09.945Z</time></trkpt><trkpt lat="43.5816417" lon="13.2027967"><ele>198.0</ele><time>2026-04-25T06:57:10.999Z</time></trkpt><trkpt lat="43.5814717" lon="13.2029233"><ele>198.0</ele><time>2026-04-25T06:57:11.94Z</time></trkpt><trkpt lat="43.5813067" lon="13.2030433"><ele>198.0</ele><time>2026-04-25T06:57:12.95Z</time></trkpt><trkpt lat="43.5811467" lon="13.2031533"><ele>196.33333333333331</ele><time>2026-04-25T06:57:13.952Z</time></trkpt><trkpt lat="43.5809883" lon="13.2032517"><ele>194.66666666666666</ele><time>2026-04-25T06:57:14.947Z</time></trkpt><trkpt lat="43.580825" lon="13.2033317"><ele>193.0</ele><time>2026-04-25T06:57:15.951Z</time></trkpt><trkpt lat="43.5806683" lon="13.2033983"><ele>193.0</ele><time>2026-04-25T06:57:17Z</time></trkpt><trkpt lat="43.58052" lon="13.2034567"><ele>193.0</ele><time>2026-04-25T06:57:17.944Z</time></trkpt><trkpt lat="43.58038" lon="13.2035117"><ele>193.0</ele><time>2026-04-25T06:57:18.946Z</time></trkpt><trkpt lat="43.5802567" lon="13.203545"><ele>193.0</ele><time>2026-04-25T06:57:19.952Z</time></trkpt><trkpt lat="43.5801467" lon="13.2035833"><ele>193.8</ele><time>2026-04-25T06:57:20.947Z</time></trkpt><trkpt lat="43.5800517" lon="13.2035983"><ele>194.60000000000002</ele><time>2026-04-25T06:57:21.947Z</time></trkpt><trkpt lat="43.5799383" lon="13.2034817"><ele>195.39999999999998</ele><time>2026-04-25T06:57:23.942Z</time></trkpt><trkpt lat="43.5799317" lon="13.2033667"><ele>196.2</ele><time>2026-04-25T06:57:24.953Z</time></trkpt><trkpt lat="43.5799333" lon="13.2032517"><ele>197.0</ele><time>2026-04-25T06:57:25.945Z</time></trkpt><trkpt lat="43.57994" lon="13.20313"><ele>197.25</ele><time>2026-04-25T06:57:26.946Z</time></trkpt><trkpt lat="43.579955" lon="13.2029867"><ele>197.5</ele><time>2026-04-25T06:57:27.948Z</time></trkpt><trkpt lat="43.5799933" lon="13.2028"><ele>197.75</ele><time>2026-04-25T06:57:29.016Z</time></trkpt><trkpt lat="43.58005" lon="13.2025833"><ele>198.0</ele><time>2026-04-25T06:57:29.944Z</time></trkpt><trkpt lat="43.5801217" lon="13.202355"><ele>198.0</ele><time>2026-04-25T06:57:30.945Z</time></trkpt><trkpt lat="43.5801867" lon="13.2021233"><ele>198.0</ele><time>2026-04-25T06:57:31.941Z</time></trkpt><trkpt lat="43.5802483" lon="13.2019017"><ele>198.0</ele><time>2026-04-25T06:57:32.948Z</time></trkpt><trkpt lat="43.580305" lon="13.20169"><ele>200.66666666666669</ele><time>2026-04-25T06:57:33.946Z</time></trkpt><trkpt lat="43.5803583" lon="13.2014833"><ele>203.33333333333334</ele><time>2026-04-25T06:57:34.998Z</time></trkpt><trkpt lat="43.5804133" lon="13.2012717"><ele>206.0</ele><time>2026-04-25T06:57:35.938Z</time></trkpt><trkpt lat="43.580455" lon="13.2010583"><ele>206.0</ele><time>2026-04-25T06:57:36.948Z</time></trkpt><trkpt lat="43.5804933" lon="13.2008467"><ele>206.0</ele><time>2026-04-25T06:57:37.943Z</time></trkpt><trkpt lat="43.5805317" lon="13.2006317"><ele>206.0</ele><time>2026-04-25T06:57:38.944Z</time></trkpt><trkpt lat="43.5805583" lon="13.2004117"><ele>206.66666666666669</ele><time>2026-04-25T06:57:39.939Z</time></trkpt><trkpt lat="43.5805683" lon="13.2001867"><ele>207.33333333333331</ele><time>2026-04-25T06:57:40.996Z</time></trkpt><trkpt lat="43.580565" lon="13.1999633"><ele>208.0</ele><time>2026-04-25T06:57:41.941Z</time></trkpt><trkpt lat="43.5805383" lon="13.1996967"><ele>208.66666666666666</ele><time>2026-04-25T06:57:42.945Z</time></trkpt><trkpt lat="43.58052" lon="13.1993883"><ele>209.33333333333331</ele><time>2026-04-25T06:57:43.942Z</time></trkpt><trkpt lat="43.5805167" lon="13.19909"><ele>210.0</ele><time>2026-04-25T06:57:44.945Z</time></trkpt><trkpt lat="43.5805233" lon="13.1988067"><ele>209.66666666666669</ele><time>2026-04-25T06:57:45.942Z</time></trkpt><trkpt lat="43.5805317" lon="13.1985567"><ele>209.33333333333334</ele><time>2026-04-25T06:57:47Z</time></trkpt><trkpt lat="43.5805467" lon="13.1983267"><ele>209.0</ele><time>2026-04-25T06:57:47.951Z</time></trkpt><trkpt lat="43.58058" lon="13.19812"><ele>209.0</ele><time>2026-04-25T06:57:48.942Z</time></trkpt><trkpt lat="43.580645" lon="13.1979267"><ele>209.0</ele><time>2026-04-25T06:57:49.945Z</time></trkpt><trkpt lat="43.5807183" lon="13.1977517"><ele>209.0</ele><time>2026-04-25T06:57:50.943Z</time></trkpt><trkpt lat="43.58082" lon="13.1975833"><ele>209.0</ele><time>2026-04-25T06:57:51.942Z</time></trkpt><trkpt lat="43.5809717" lon="13.1974667"><ele>209.0</ele><time>2026-04-25T06:57:52.951Z</time></trkpt><trkpt lat="43.5811117" lon="13.197345"><ele>209.0</ele><time>2026-04-25T06:57:53.945Z</time></trkpt><trkpt lat="43.581245" lon="13.1972117"><ele>207.33333333333334</ele><time>2026-04-25T06:57:54.943Z</time></trkpt><trkpt lat="43.5813717" lon="13.197065"><ele>205.66666666666669</ele><time>2026-04-25T06:57:55.948Z</time></trkpt><trkpt lat="43.581495" lon="13.1969033"><ele>204.0</ele><time>2026-04-25T06:57:56.952Z</time></trkpt><trkpt lat="43.581615" lon="13.1967433"><ele>204.0</ele><time>2026-04-25T06:57:57.949Z</time></trkpt><trkpt lat="43.5817233" lon="13.1965667"><ele>204.0</ele><time>2026-04-25T06:57:58.943Z</time></trkpt><trkpt lat="43.5818067" lon="13.1963767"><ele>204.0</ele><time>2026-04-25T06:57:59.947Z</time></trkpt><trkpt lat="43.58188" lon="13.1961767"><ele>202.66666666666669</ele><time>2026-04-25T06:58:00.953Z</time></trkpt><trkpt lat="43.5819417" lon="13.195975"><ele>201.33333333333334</ele><time>2026-04-25T06:58:01.941Z</time></trkpt><trkpt lat="43.58199" lon="13.1957617"><ele>200.0</ele><time>2026-04-25T06:58:02.943Z</time></trkpt><trkpt lat="43.58203" lon="13.1955383"><ele>198.0</ele><time>2026-04-25T06:58:03.95Z</time></trkpt><trkpt lat="43.58207" lon="13.1953267"><ele>196.0</ele><time>2026-04-25T06:58:04.996Z</time></trkpt><trkpt lat="43.5821117" lon="13.1951217"><ele>194.0</ele><time>2026-04-25T06:58:05.944Z</time></trkpt><trkpt lat="43.58215" lon="13.1949183"><ele>196.0</ele><time>2026-04-25T06:58:06.948Z</time></trkpt><trkpt lat="43.582195" lon="13.1947033"><ele>198.0</ele><time>2026-04-25T06:58:07.949Z</time></trkpt><trkpt lat="43.58225" lon="13.1944817"><ele>200.0</ele><time>2026-04-25T06:58:08.944Z</time></trkpt><trkpt lat="43.5823083" lon="13.194265"><ele>200.0</ele><time>2026-04-25T06:58:09.945Z</time></trkpt><trkpt lat="43.5823617" lon="13.1940517"><ele>200.0</ele><time>2026-04-25T06:58:10.997Z</time></trkpt><trkpt lat="43.582415" lon="13.193835"><ele>200.0</ele><time>2026-04-25T06:58:11.942Z</time></trkpt><trkpt lat="43.5824683" lon="13.1936117"><ele>199.66666666666669</ele><time>2026-04-25T06:58:12.945Z</time></trkpt><trkpt lat="43.58252" lon="13.1933833"><ele>199.33333333333331</ele><time>2026-04-25T06:58:13.95Z</time></trkpt><trkpt lat="43.5825683" lon="13.1931517"><ele>199.0</ele><time>2026-04-25T06:58:14.946Z</time></trkpt><trkpt lat="43.5826183" lon="13.1929217"><ele>197.66666666666666</ele><time>2026-04-25T06:58:15.942Z</time></trkpt><trkpt lat="43.58267" lon="13.192695"><ele>196.33333333333331</ele><time>2026-04-25T06:58:16.998Z</time></trkpt><trkpt lat="43.5827183" lon="13.1924717"><ele>195.0</ele><time>2026-04-25T06:58:17.94Z</time></trkpt><trkpt lat="43.582765" lon="13.1922517"><ele>195.0</ele><time>2026-04-25T06:58:18.942Z</time></trkpt><trkpt lat="43.5828117" lon="13.1920367"><ele>195.0</ele><time>2026-04-25T06:58:19.947Z</time></trkpt><trkpt lat="43.5828517" lon="13.1918233"><ele>195.0</ele><time>2026-04-25T06:58:20.953Z</time></trkpt><trkpt lat="43.5828933" lon="13.19161"><ele>193.33333333333334</ele><time>2026-04-25T06:58:21.948Z</time></trkpt><trkpt lat="43.5829317" lon="13.1913933"><ele>191.66666666666669</ele><time>2026-04-25T06:58:22.952Z</time></trkpt><trkpt lat="43.58296" lon="13.191175"><ele>190.0</ele><time>2026-04-25T06:58:23.943Z</time></trkpt><trkpt lat="43.5829783" lon="13.1909483"><ele>190.0</ele><time>2026-04-25T06:58:24.947Z</time></trkpt><trkpt lat="43.582995" lon="13.1907167"><ele>190.0</ele><time>2026-04-25T06:58:25.945Z</time></trkpt><trkpt lat="43.5830117" lon="13.1904783"><ele>190.0</ele><time>2026-04-25T06:58:26.948Z</time></trkpt><trkpt lat="43.5830283" lon="13.1902367"><ele>191.33333333333334</ele><time>2026-04-25T06:58:27.948Z</time></trkpt><trkpt lat="43.583045" lon="13.1899917"><ele>192.66666666666669</ele><time>2026-04-25T06:58:28.947Z</time></trkpt><trkpt lat="43.58306" lon="13.1897533"><ele>194.0</ele><time>2026-04-25T06:58:29.94Z</time></trkpt><trkpt lat="43.5830667" lon="13.1895167"><ele>195.33333333333334</ele><time>2026-04-25T06:58:30.944Z</time></trkpt><trkpt lat="43.5830733" lon="13.1892917"><ele>196.66666666666669</ele><time>2026-04-25T06:58:31.944Z</time></trkpt><trkpt lat="43.5830717" lon="13.1890717"><ele>198.0</ele><time>2026-04-25T06:58:32.944Z</time></trkpt><trkpt lat="43.5830667" lon="13.1888417"><ele>198.66666666666669</ele><time>2026-04-25T06:58:33.944Z</time></trkpt><trkpt lat="43.58305" lon="13.1886083"><ele>199.33333333333334</ele><time>2026-04-25T06:58:35.002Z</time></trkpt><trkpt lat="43.5830367" lon="13.1883733"><ele>200.0</ele><time>2026-04-25T06:58:35.942Z</time></trkpt><trkpt lat="43.5830183" lon="13.1881333"><ele>201.66666666666669</ele><time>2026-04-25T06:58:36.943Z</time></trkpt><trkpt lat="43.5830017" lon="13.1878967"><ele>203.33333333333331</ele><time>2026-04-25T06:58:37.949Z</time></trkpt><trkpt lat="43.5829733" lon="13.1876617"><ele>205.0</ele><time>2026-04-25T06:58:38.947Z</time></trkpt><trkpt lat="43.582935" lon="13.1874333"><ele>205.0</ele><time>2026-04-25T06:58:39.958Z</time></trkpt><trkpt lat="43.5828883" lon="13.187205"><ele>205.0</ele><time>2026-04-25T06:58:40.992Z</time></trkpt><trkpt lat="43.582845" lon="13.1869783"><ele>205.0</ele><time>2026-04-25T06:58:41.933Z</time></trkpt><trkpt lat="43.582805" lon="13.1867517"><ele>205.0</ele><time>2026-04-25T06:58:42.944Z</time></trkpt><trkpt lat="43.5827617" lon="13.1865317"><ele>205.0</ele><time>2026-04-25T06:58:43.943Z</time></trkpt><trkpt lat="43.5827267" lon="13.1863117"><ele>205.0</ele><time>2026-04-25T06:58:44.944Z</time></trkpt><trkpt lat="43.5827033" lon="13.1860883"><ele>205.33333333333331</ele><time>2026-04-25T06:58:45.945Z</time></trkpt><trkpt lat="43.5826933" lon="13.18587"><ele>205.66666666666669</ele><time>2026-04-25T06:58:47.008Z</time></trkpt><trkpt lat="43.5826933" lon="13.1856533"><ele>206.0</ele><time>2026-04-25T06:58:47.943Z</time></trkpt><trkpt lat="43.582715" lon="13.1854317"><ele>204.66666666666669</ele><time>2026-04-25T06:58:48.945Z</time></trkpt><trkpt lat="43.5827517" lon="13.1852067"><ele>203.33333333333331</ele><time>2026-04-25T06:58:49.951Z</time></trkpt><trkpt lat="43.5827933" lon="13.1849883"><ele>202.0</ele><time>2026-04-25T06:58:50.948Z</time></trkpt><trkpt lat="43.5828367" lon="13.1847683"><ele>204.33333333333331</ele><time>2026-04-25T06:58:51.944Z</time></trkpt><trkpt lat="43.5828833" lon="13.1845433"><ele>206.66666666666669</ele><time>2026-04-25T06:58:53.004Z</time></trkpt><trkpt lat="43.5829317" lon="13.1843183"><ele>209.0</ele><time>2026-04-25T06:58:53.939Z</time></trkpt><trkpt lat="43.5829767" lon="13.184095"><ele>208.66666666666669</ele><time>2026-04-25T06:58:54.945Z</time></trkpt><trkpt lat="43.5830133" lon="13.1838667"><ele>208.33333333333331</ele><time>2026-04-25T06:58:55.945Z</time></trkpt><trkpt lat="43.5830367" lon="13.1836367"><ele>208.0</ele><time>2026-04-25T06:58:56.949Z</time></trkpt><trkpt lat="43.583045" lon="13.183405"><ele>207.66666666666666</ele><time>2026-04-25T06:58:57.95Z</time></trkpt><trkpt lat="43.5830567" lon="13.1831717"><ele>207.33333333333331</ele><time>2026-04-25T06:58:59.016Z</time></trkpt><trkpt lat="43.583065" lon="13.18294"><ele>207.0</ele><time>2026-04-25T06:58:59.943Z</time></trkpt><trkpt lat="43.5830683" lon="13.1827083"><ele>207.0</ele><time>2026-04-25T06:59:00.948Z</time></trkpt><trkpt lat="43.5830767" lon="13.1824767"><ele>207.0</ele><time>2026-04-25T06:59:01.951Z</time></trkpt><trkpt lat="43.5830867" lon="13.1822433"><ele>207.0</ele><time>2026-04-25T06:59:02.948Z</time></trkpt><trkpt lat="43.5831017" lon="13.182025"><ele>206.33333333333331</ele><time>2026-04-25T06:59:03.943Z</time></trkpt><trkpt lat="43.5831133" lon="13.1817983"><ele>205.66666666666666</ele><time>2026-04-25T06:59:05.003Z</time></trkpt><trkpt lat="43.5831117" lon="13.1815867"><ele>205.0</ele><time>2026-04-25T06:59:05.948Z</time></trkpt><trkpt lat="43.58311" lon="13.181385"><ele>204.25</ele><time>2026-04-25T06:59:06.949Z</time></trkpt><trkpt lat="43.5831117" lon="13.1811917"><ele>203.5</ele><time>2026-04-25T06:59:07.943Z</time></trkpt><trkpt lat="43.5831117" lon="13.1810067"><ele>202.75</ele><time>2026-04-25T06:59:08.945Z</time></trkpt><trkpt lat="43.5831167" lon="13.1808233"><ele>202.0</ele><time>2026-04-25T06:59:09.941Z</time></trkpt><trkpt lat="43.5831217" lon="13.1806367"><ele>201.0</ele><time>2026-04-25T06:59:11.006Z</time></trkpt><trkpt lat="43.583115" lon="13.1804483"><ele>200.0</ele><time>2026-04-25T06:59:11.944Z</time></trkpt><trkpt lat="43.5830917" lon="13.180265"><ele>199.0</ele><time>2026-04-25T06:59:12.944Z</time></trkpt><trkpt lat="43.5830633" lon="13.1800733"><ele>198.0</ele><time>2026-04-25T06:59:13.941Z</time></trkpt><trkpt lat="43.5830217" lon="13.179855"><ele>196.33333333333331</ele><time>2026-04-25T06:59:14.946Z</time></trkpt><trkpt lat="43.5829683" lon="13.1796283"><ele>194.66666666666666</ele><time>2026-04-25T06:59:15.946Z</time></trkpt><trkpt lat="43.5829083" lon="13.17938"><ele>193.0</ele><time>2026-04-25T06:59:17.005Z</time></trkpt><trkpt lat="43.58285" lon="13.1791283"><ele>194.33333333333331</ele><time>2026-04-25T06:59:17.944Z</time></trkpt><trkpt lat="43.58279" lon="13.178875"><ele>195.66666666666669</ele><time>2026-04-25T06:59:18.946Z</time></trkpt><trkpt lat="43.58273" lon="13.17863"><ele>197.0</ele><time>2026-04-25T06:59:19.948Z</time></trkpt><trkpt lat="43.5826667" lon="13.17839"><ele>197.33333333333334</ele><time>2026-04-25T06:59:20.948Z</time></trkpt><trkpt lat="43.58261" lon="13.178155"><ele>197.66666666666669</ele><time>2026-04-25T06:59:21.94Z</time></trkpt><trkpt lat="43.5825517" lon="13.1779233"><ele>198.0</ele><time>2026-04-25T06:59:23.008Z</time></trkpt><trkpt lat="43.5825" lon="13.1776933"><ele>198.0</ele><time>2026-04-25T06:59:23.943Z</time></trkpt><trkpt lat="43.5824517" lon="13.17747"><ele>198.0</ele><time>2026-04-25T06:59:24.944Z</time></trkpt><trkpt lat="43.5824067" lon="13.1772467"><ele>198.0</ele><time>2026-04-25T06:59:25.948Z</time></trkpt><trkpt lat="43.58237" lon="13.177015"><ele>198.0</ele><time>2026-04-25T06:59:26.945Z</time></trkpt><trkpt lat="43.5823417" lon="13.17679"><ele>198.0</ele><time>2026-04-25T06:59:27.94Z</time></trkpt><trkpt lat="43.5823217" lon="13.1765633"><ele>198.0</ele><time>2026-04-25T06:59:28.95Z</time></trkpt><trkpt lat="43.582305" lon="13.1763317"><ele>198.0</ele><time>2026-04-25T06:59:29.951Z</time></trkpt><trkpt lat="43.5823017" lon="13.1760983"><ele>198.0</ele><time>2026-04-25T06:59:30.943Z</time></trkpt><trkpt lat="43.582305" lon="13.1758617"><ele>198.0</ele><time>2026-04-25T06:59:31.944Z</time></trkpt><trkpt lat="43.5823183" lon="13.1756267"><ele>198.33333333333331</ele><time>2026-04-25T06:59:32.95Z</time></trkpt><trkpt lat="43.5823267" lon="13.17539"><ele>198.66666666666666</ele><time>2026-04-25T06:59:33.948Z</time></trkpt><trkpt lat="43.5823333" lon="13.1751533"><ele>199.0</ele><time>2026-04-25T06:59:35.01Z</time></trkpt><trkpt lat="43.5823433" lon="13.174915"><ele>200.0</ele><time>2026-04-25T06:59:35.946Z</time></trkpt><trkpt lat="43.58236" lon="13.17468"><ele>201.0</ele><time>2026-04-25T06:59:36.943Z</time></trkpt><trkpt lat="43.5823833" lon="13.1744433"><ele>202.0</ele><time>2026-04-25T06:59:37.948Z</time></trkpt><trkpt lat="43.5824083" lon="13.1742067"><ele>203.0</ele><time>2026-04-25T06:59:38.946Z</time></trkpt><trkpt lat="43.58244" lon="13.17398"><ele>204.0</ele><time>2026-04-25T06:59:39.942Z</time></trkpt><trkpt lat="43.5824683" lon="13.173755"><ele>205.0</ele><time>2026-04-25T06:59:41.009Z</time></trkpt><trkpt lat="43.5825017" lon="13.1735267"><ele>205.0</ele><time>2026-04-25T06:59:41.935Z</time></trkpt><trkpt lat="43.582545" lon="13.173305"><ele>205.0</ele><time>2026-04-25T06:59:42.939Z</time></trkpt><trkpt lat="43.58259" lon="13.1730883"><ele>205.0</ele><time>2026-04-25T06:59:43.942Z</time></trkpt><trkpt lat="43.5826467" lon="13.1728833"><ele>206.66666666666666</ele><time>2026-04-25T06:59:44.946Z</time></trkpt><trkpt lat="43.5826983" lon="13.1726717"><ele>208.33333333333331</ele><time>2026-04-25T06:59:45.937Z</time></trkpt><trkpt lat="43.5827517" lon="13.17246"><ele>210.0</ele><time>2026-04-25T06:59:46.998Z</time></trkpt><trkpt lat="43.582795" lon="13.1722533"><ele>210.0</ele><time>2026-04-25T06:59:47.941Z</time></trkpt><trkpt lat="43.582835" lon="13.1720517"><ele>210.0</ele><time>2026-04-25T06:59:48.938Z</time></trkpt><trkpt lat="43.58287" lon="13.17185"><ele>210.0</ele><time>2026-04-25T06:59:49.945Z</time></trkpt><trkpt lat="43.5829" lon="13.171645"><ele>213.0</ele><time>2026-04-25T06:59:50.942Z</time></trkpt><trkpt lat="43.58292" lon="13.1714383"><ele>216.0</ele><time>2026-04-25T06:59:51.938Z</time></trkpt><trkpt lat="43.5829283" lon="13.171225"><ele>219.0</ele><time>2026-04-25T06:59:53.006Z</time></trkpt><trkpt lat="43.5829367" lon="13.1710033"><ele>219.0</ele><time>2026-04-25T06:59:53.942Z</time></trkpt><trkpt lat="43.5829383" lon="13.1707817"><ele>219.0</ele><time>2026-04-25T06:59:54.941Z</time></trkpt><trkpt lat="43.5829433" lon="13.170555"><ele>219.0</ele><time>2026-04-25T06:59:55.941Z</time></trkpt><trkpt lat="43.582955" lon="13.1703317"><ele>221.66666666666669</ele><time>2026-04-25T06:59:56.942Z</time></trkpt><trkpt lat="43.582965" lon="13.1701067"><ele>224.33333333333334</ele><time>2026-04-25T06:59:57.945Z</time></trkpt><trkpt lat="43.5829817" lon="13.1698883"><ele>227.0</ele><time>2026-04-25T06:59:58.961Z</time></trkpt><trkpt lat="43.5829983" lon="13.16968"><ele>226.5</ele><time>2026-04-25T06:59:59.938Z</time></trkpt><trkpt lat="43.5830083" lon="13.169485"><ele>226.0</ele><time>2026-04-25T07:00:00.943Z</time></trkpt><trkpt lat="43.583015" lon="13.16931"><ele>225.5</ele><time>2026-04-25T07:00:01.946Z</time></trkpt><trkpt lat="43.5830083" lon="13.169155"><ele>225.0</ele><time>2026-04-25T07:00:02.946Z</time></trkpt><trkpt lat="43.5829833" lon="13.1690183"><ele>225.0</ele><time>2026-04-25T07:00:03.942Z</time></trkpt><trkpt lat="43.5829583" lon="13.1688733"><ele>225.0</ele><time>2026-04-25T07:00:05.006Z</time></trkpt><trkpt lat="43.5829" lon="13.1687367"><ele>225.0</ele><time>2026-04-25T07:00:05.946Z</time></trkpt><trkpt lat="43.582825" lon="13.1686033"><ele>225.0</ele><time>2026-04-25T07:00:06.947Z</time></trkpt><trkpt lat="43.5827317" lon="13.1684683"><ele>225.75</ele><time>2026-04-25T07:00:07.945Z</time></trkpt><trkpt lat="43.58262" lon="13.16834"><ele>226.5</ele><time>2026-04-25T07:00:08.95Z</time></trkpt><trkpt lat="43.58251" lon="13.1682017"><ele>227.25</ele><time>2026-04-25T07:00:09.947Z</time></trkpt><trkpt lat="43.582395" lon="13.16807"><ele>228.0</ele><time>2026-04-25T07:00:10.998Z</time></trkpt><trkpt lat="43.5822783" lon="13.1679367"><ele>228.0</ele><time>2026-04-25T07:00:11.943Z</time></trkpt><trkpt lat="43.5821567" lon="13.1678017"><ele>228.0</ele><time>2026-04-25T07:00:12.945Z</time></trkpt><trkpt lat="43.5820433" lon="13.167665"><ele>228.0</ele><time>2026-04-25T07:00:13.942Z</time></trkpt><trkpt lat="43.5819317" lon="13.1675367"><ele>229.5</ele><time>2026-04-25T07:00:14.947Z</time></trkpt><trkpt lat="43.5818183" lon="13.1674117"><ele>231.0</ele><time>2026-04-25T07:00:15.944Z</time></trkpt><trkpt lat="43.5817117" lon="13.1673"><ele>232.5</ele><time>2026-04-25T07:00:16.999Z</time></trkpt><trkpt lat="43.5816183" lon="13.16719"><ele>234.0</ele><time>2026-04-25T07:00:17.936Z</time></trkpt><trkpt lat="43.5815267" lon="13.167105"><ele>234.0</ele><time>2026-04-25T07:00:18.937Z</time></trkpt><trkpt lat="43.5814467" lon="13.1670383"><ele>233.99999999999997</ele><time>2026-04-25T07:00:19.942Z</time></trkpt><trkpt lat="43.5813667" lon="13.1670167"><ele>233.99999999999997</ele><time>2026-04-25T07:00:20.946Z</time></trkpt><trkpt lat="43.5812867" lon="13.16705"><ele>234.0</ele><time>2026-04-25T07:00:21.945Z</time></trkpt><trkpt lat="43.581195" lon="13.16721"><ele>234.0</ele><time>2026-04-25T07:00:23.01Z</time></trkpt><trkpt lat="43.581095" lon="13.1673467"><ele>234.75</ele><time>2026-04-25T07:00:23.944Z</time></trkpt><trkpt lat="43.5809883" lon="13.1674783"><ele>235.5</ele><time>2026-04-25T07:00:24.946Z</time></trkpt><trkpt lat="43.5808883" lon="13.1675883"><ele>236.25</ele><time>2026-04-25T07:00:25.941Z</time></trkpt><trkpt lat="43.580795" lon="13.1676783"><ele>237.0</ele><time>2026-04-25T07:00:26.939Z</time></trkpt><trkpt lat="43.5807" lon="13.167735"><ele>237.0</ele><time>2026-04-25T07:00:27.95Z</time></trkpt><trkpt lat="43.5806017" lon="13.167725"><ele>237.0</ele><time>2026-04-25T07:00:29.013Z</time></trkpt><trkpt lat="43.5804933" lon="13.1676783"><ele>237.0</ele><time>2026-04-25T07:00:29.941Z</time></trkpt><trkpt lat="43.5803733" lon="13.1676017"><ele>237.0</ele><time>2026-04-25T07:00:30.942Z</time></trkpt><trkpt lat="43.58025" lon="13.1674983"><ele>235.33333333333331</ele><time>2026-04-25T07:00:31.952Z</time></trkpt><trkpt lat="43.58012" lon="13.167395"><ele>233.66666666666666</ele><time>2026-04-25T07:00:32.953Z</time></trkpt><trkpt lat="43.5799817" lon="13.167285"><ele>232.0</ele><time>2026-04-25T07:00:33.941Z</time></trkpt><trkpt lat="43.5798283" lon="13.1671817"><ele>232.66666666666666</ele><time>2026-04-25T07:00:35.006Z</time></trkpt><trkpt lat="43.5796867" lon="13.16707"><ele>233.33333333333331</ele><time>2026-04-25T07:00:35.937Z</time></trkpt><trkpt lat="43.5795467" lon="13.16695"><ele>234.0</ele><time>2026-04-25T07:00:36.94Z</time></trkpt><trkpt lat="43.5794133" lon="13.1668433"><ele>234.0</ele><time>2026-04-25T07:00:37.945Z</time></trkpt><trkpt lat="43.5792867" lon="13.1667417"><ele>234.0</ele><time>2026-04-25T07:00:38.943Z</time></trkpt><trkpt lat="43.57916" lon="13.166645"><ele>234.0</ele><time>2026-04-25T07:00:39.949Z</time></trkpt><trkpt lat="43.5790317" lon="13.166545"><ele>234.0</ele><time>2026-04-25T07:00:41.001Z</time></trkpt><trkpt lat="43.5789117" lon="13.166465"><ele>235.5</ele><time>2026-04-25T07:00:41.941Z</time></trkpt><trkpt lat="43.5788" lon="13.16639"><ele>237.0</ele><time>2026-04-25T07:00:42.942Z</time></trkpt><trkpt lat="43.578695" lon="13.16631"><ele>238.5</ele><time>2026-04-25T07:00:43.939Z</time></trkpt><trkpt lat="43.5786017" lon="13.1662183"><ele>240.0</ele><time>2026-04-25T07:00:44.936Z</time></trkpt><trkpt lat="43.5785233" lon="13.1661067"><ele>236.25</ele><time>2026-04-25T07:00:45.944Z</time></trkpt><trkpt lat="43.578465" lon="13.1659717"><ele>232.5</ele><time>2026-04-25T07:00:47.009Z</time></trkpt><trkpt lat="43.5784267" lon="13.16581"><ele>228.75</ele><time>2026-04-25T07:00:47.948Z</time></trkpt><trkpt lat="43.578415" lon="13.16563"><ele>225.0</ele><time>2026-04-25T07:00:48.939Z</time></trkpt><trkpt lat="43.578405" lon="13.16545"><ele>223.33333333333331</ele><time>2026-04-25T07:00:49.943Z</time></trkpt><trkpt lat="43.5784067" lon="13.16525"><ele>221.66666666666666</ele><time>2026-04-25T07:00:50.948Z</time></trkpt><trkpt lat="43.5784233" lon="13.165025"><ele>220.0</ele><time>2026-04-25T07:00:51.944Z</time></trkpt><trkpt lat="43.57845" lon="13.1647883"><ele>218.33333333333331</ele><time>2026-04-25T07:00:53.012Z</time></trkpt><trkpt lat="43.5784733" lon="13.1645517"><ele>216.66666666666669</ele><time>2026-04-25T07:00:53.944Z</time></trkpt><trkpt lat="43.578495" lon="13.1643217"><ele>215.0</ele><time>2026-04-25T07:00:54.947Z</time></trkpt><trkpt lat="43.57851" lon="13.1640933"><ele>214.66666666666669</ele><time>2026-04-25T07:00:55.947Z</time></trkpt><trkpt lat="43.578515" lon="13.1638667"><ele>214.33333333333331</ele><time>2026-04-25T07:00:56.947Z</time></trkpt><trkpt lat="43.578505" lon="13.1636383"><ele>214.0</ele><time>2026-04-25T07:00:57.943Z</time></trkpt><trkpt lat="43.578485" lon="13.1634083"><ele>214.66666666666666</ele><time>2026-04-25T07:00:59.013Z</time></trkpt><trkpt lat="43.578465" lon="13.16317"><ele>215.33333333333331</ele><time>2026-04-25T07:00:59.943Z</time></trkpt><trkpt lat="43.5784283" lon="13.1629533"><ele>216.0</ele><time>2026-04-25T07:01:00.941Z</time></trkpt><trkpt lat="43.57838" lon="13.1627467"><ele>216.0</ele><time>2026-04-25T07:01:01.945Z</time></trkpt><trkpt lat="43.5783267" lon="13.1625433"><ele>216.0</ele><time>2026-04-25T07:01:02.95Z</time></trkpt><trkpt lat="43.5782667" lon="13.16235"><ele>216.0</ele><time>2026-04-25T07:01:03.947Z</time></trkpt><trkpt lat="43.5782233" lon="13.1621567"><ele>215.33333333333331</ele><time>2026-04-25T07:01:05.014Z</time></trkpt><trkpt lat="43.5781883" lon="13.161955"><ele>214.66666666666666</ele><time>2026-04-25T07:01:05.949Z</time></trkpt><trkpt lat="43.5781717" lon="13.16175"><ele>214.0</ele><time>2026-04-25T07:01:06.948Z</time></trkpt><trkpt lat="43.578165" lon="13.1615433"><ele>212.0</ele><time>2026-04-25T07:01:07.947Z</time></trkpt><trkpt lat="43.5781767" lon="13.1613317"><ele>210.0</ele><time>2026-04-25T07:01:08.946Z</time></trkpt><trkpt lat="43.5782" lon="13.16112"><ele>208.0</ele><time>2026-04-25T07:01:09.945Z</time></trkpt><trkpt lat="43.5782317" lon="13.160915"><ele>208.0</ele><time>2026-04-25T07:01:11.008Z</time></trkpt><trkpt lat="43.5782933" lon="13.160735"><ele>208.0</ele><time>2026-04-25T07:01:11.945Z</time></trkpt><trkpt lat="43.5783717" lon="13.160575"><ele>208.0</ele><time>2026-04-25T07:01:12.945Z</time></trkpt><trkpt lat="43.5784633" lon="13.1604233"><ele>208.0</ele><time>2026-04-25T07:01:13.941Z</time></trkpt><trkpt lat="43.5785633" lon="13.160275"><ele>207.5</ele><time>2026-04-25T07:01:14.944Z</time></trkpt><trkpt lat="43.5786533" lon="13.1601117"><ele>207.0</ele><time>2026-04-25T07:01:15.944Z</time></trkpt><trkpt lat="43.578705" lon="13.15992"><ele>206.5</ele><time>2026-04-25T07:01:17.007Z</time></trkpt><trkpt lat="43.5787333" lon="13.1597133"><ele>206.0</ele><time>2026-04-25T07:01:17.945Z</time></trkpt><trkpt lat="43.5787467" lon="13.159495"><ele>203.66666666666669</ele><time>2026-04-25T07:01:18.946Z</time></trkpt><trkpt lat="43.5787483" lon="13.15927"><ele>201.33333333333331</ele><time>2026-04-25T07:01:19.947Z</time></trkpt><trkpt lat="43.5787433" lon="13.1590333"><ele>199.0</ele><time>2026-04-25T07:01:20.947Z</time></trkpt><trkpt lat="43.5787317" lon="13.1588017"><ele>199.0</ele><time>2026-04-25T07:01:21.942Z</time></trkpt><trkpt lat="43.5787083" lon="13.1585683"><ele>199.0</ele><time>2026-04-25T07:01:23.008Z</time></trkpt><trkpt lat="43.5786817" lon="13.158335"><ele>199.0</ele><time>2026-04-25T07:01:23.94Z</time></trkpt><trkpt lat="43.5786483" lon="13.158105"><ele>199.66666666666666</ele><time>2026-04-25T07:01:24.946Z</time></trkpt><trkpt lat="43.57861" lon="13.15787"><ele>200.33333333333331</ele><time>2026-04-25T07:01:25.945Z</time></trkpt><trkpt lat="43.578565" lon="13.157635"><ele>201.0</ele><time>2026-04-25T07:01:26.951Z</time></trkpt><trkpt lat="43.578515" lon="13.1574"><ele>200.66666666666669</ele><time>2026-04-25T07:01:27.943Z</time></trkpt><trkpt lat="43.57846" lon="13.1571717"><ele>200.33333333333334</ele><time>2026-04-25T07:01:29.014Z</time></trkpt><trkpt lat="43.578395" lon="13.15695"><ele>200.0</ele><time>2026-04-25T07:01:29.947Z</time></trkpt><trkpt lat="43.578325" lon="13.1567317"><ele>198.33333333333334</ele><time>2026-04-25T07:01:30.944Z</time></trkpt><trkpt lat="43.5782483" lon="13.1565183"><ele>196.66666666666669</ele><time>2026-04-25T07:01:31.946Z</time></trkpt><trkpt lat="43.5781717" lon="13.1563033"><ele>195.0</ele><time>2026-04-25T07:01:32.947Z</time></trkpt><trkpt lat="43.5781" lon="13.1560883"><ele>195.0</ele><time>2026-04-25T07:01:33.938Z</time></trkpt><trkpt lat="43.57803" lon="13.1558717"><ele>195.0</ele><time>2026-04-25T07:01:35.002Z</time></trkpt><trkpt lat="43.577955" lon="13.1556633"><ele>195.0</ele><time>2026-04-25T07:01:35.941Z</time></trkpt><trkpt lat="43.57788" lon="13.155455"><ele>196.33333333333331</ele><time>2026-04-25T07:01:36.947Z</time></trkpt><trkpt lat="43.5777967" lon="13.1552533"><ele>197.66666666666666</ele><time>2026-04-25T07:01:37.947Z</time></trkpt><trkpt lat="43.5777217" lon="13.1550533"><ele>199.0</ele><time>2026-04-25T07:01:38.944Z</time></trkpt><trkpt lat="43.5776567" lon="13.1548533"><ele>199.0</ele><time>2026-04-25T07:01:39.945Z</time></trkpt><trkpt lat="43.57761" lon="13.1546517"><ele>199.0</ele><time>2026-04-25T07:01:41Z</time></trkpt><trkpt lat="43.5775767" lon="13.154435"><ele>199.0</ele><time>2026-04-25T07:01:41.938Z</time></trkpt><trkpt lat="43.5775583" lon="13.1542083"><ele>199.33333333333331</ele><time>2026-04-25T07:01:42.944Z</time></trkpt><trkpt lat="43.5775483" lon="13.1539733"><ele>199.66666666666669</ele><time>2026-04-25T07:01:43.939Z</time></trkpt><trkpt lat="43.577545" lon="13.1537417"><ele>200.0</ele><time>2026-04-25T07:01:44.946Z</time></trkpt><trkpt lat="43.5775367" lon="13.1535083"><ele>200.0</ele><time>2026-04-25T07:01:45.95Z</time></trkpt><trkpt lat="43.5775283" lon="13.1532717"><ele>200.0</ele><time>2026-04-25T07:01:47.005Z</time></trkpt><trkpt lat="43.577515" lon="13.1530417"><ele>200.0</ele><time>2026-04-25T07:01:47.943Z</time></trkpt><trkpt lat="43.5774967" lon="13.1528067"><ele>200.66666666666669</ele><time>2026-04-25T07:01:48.944Z</time></trkpt><trkpt lat="43.5774733" lon="13.1525783"><ele>201.33333333333331</ele><time>2026-04-25T07:01:49.944Z</time></trkpt><trkpt lat="43.5774483" lon="13.1523517"><ele>202.0</ele><time>2026-04-25T07:01:50.939Z</time></trkpt><trkpt lat="43.5774283" lon="13.1521267"><ele>202.0</ele><time>2026-04-25T07:01:51.944Z</time></trkpt><trkpt lat="43.577415" lon="13.1518983"><ele>202.0</ele><time>2026-04-25T07:01:53.015Z</time></trkpt><trkpt lat="43.577415" lon="13.1516683"><ele>202.0</ele><time>2026-04-25T07:01:53.941Z</time></trkpt><trkpt lat="43.5774317" lon="13.1514417"><ele>202.66666666666666</ele><time>2026-04-25T07:01:54.936Z</time></trkpt><trkpt lat="43.577455" lon="13.1512117"><ele>203.33333333333331</ele><time>2026-04-25T07:01:55.946Z</time></trkpt><trkpt lat="43.5774783" lon="13.150985"><ele>204.0</ele><time>2026-04-25T07:01:56.941Z</time></trkpt><trkpt lat="43.57751" lon="13.1507633"><ele>204.66666666666669</ele><time>2026-04-25T07:01:57.947Z</time></trkpt><trkpt lat="43.5775483" lon="13.1505367"><ele>205.33333333333334</ele><time>2026-04-25T07:01:59.012Z</time></trkpt><trkpt lat="43.5775883" lon="13.1503067"><ele>206.0</ele><time>2026-04-25T07:01:59.937Z</time></trkpt><trkpt lat="43.5776283" lon="13.150075"><ele>207.66666666666669</ele><time>2026-04-25T07:02:00.948Z</time></trkpt><trkpt lat="43.5776667" lon="13.1498483"><ele>209.33333333333331</ele><time>2026-04-25T07:02:01.949Z</time></trkpt><trkpt lat="43.5777067" lon="13.1496383"><ele>211.0</ele><time>2026-04-25T07:02:02.944Z</time></trkpt><trkpt lat="43.57774" lon="13.1494633"><ele>211.0</ele><time>2026-04-25T07:02:03.945Z</time></trkpt><trkpt lat="43.5777867" lon="13.1492867"><ele>211.0</ele><time>2026-04-25T07:02:05Z</time></trkpt><trkpt lat="43.5778267" lon="13.1491217"><ele>211.0</ele><time>2026-04-25T07:02:05.936Z</time></trkpt><trkpt lat="43.5778817" lon="13.1489533"><ele>211.0</ele><time>2026-04-25T07:02:06.947Z</time></trkpt><trkpt lat="43.5779467" lon="13.1487883"><ele>210.0</ele><time>2026-04-25T07:02:07.943Z</time></trkpt><trkpt lat="43.57803" lon="13.1486217"><ele>209.0</ele><time>2026-04-25T07:02:08.946Z</time></trkpt><trkpt lat="43.57812" lon="13.1484567"><ele>208.0</ele><time>2026-04-25T07:02:09.949Z</time></trkpt><trkpt lat="43.5782117" lon="13.148295"><ele>207.0</ele><time>2026-04-25T07:02:11.008Z</time></trkpt><trkpt lat="43.5783" lon="13.1481283"><ele>207.0</ele><time>2026-04-25T07:02:11.945Z</time></trkpt><trkpt lat="43.578385" lon="13.1479583"><ele>207.0</ele><time>2026-04-25T07:02:12.946Z</time></trkpt><trkpt lat="43.578465" lon="13.147775"><ele>207.0</ele><time>2026-04-25T07:02:13.942Z</time></trkpt><trkpt lat="43.57854" lon="13.1475867"><ele>207.0</ele><time>2026-04-25T07:02:14.936Z</time></trkpt><trkpt lat="43.57861" lon="13.1473933"><ele>207.0</ele><time>2026-04-25T07:02:15.943Z</time></trkpt><trkpt lat="43.5786767" lon="13.147205"><ele>207.0</ele><time>2026-04-25T07:02:17.005Z</time></trkpt><trkpt lat="43.5787417" lon="13.14701"><ele>206.66666666666669</ele><time>2026-04-25T07:02:17.944Z</time></trkpt><trkpt lat="43.5788067" lon="13.146805"><ele>206.33333333333334</ele><time>2026-04-25T07:02:18.944Z</time></trkpt><trkpt lat="43.5788717" lon="13.1466033"><ele>206.0</ele><time>2026-04-25T07:02:19.931Z</time></trkpt><trkpt lat="43.5789333" lon="13.1464033"><ele>205.33333333333334</ele><time>2026-04-25T07:02:20.949Z</time></trkpt><trkpt lat="43.5789867" lon="13.1462017"><ele>204.66666666666669</ele><time>2026-04-25T07:02:21.945Z</time></trkpt><trkpt lat="43.5790283" lon="13.1459817"><ele>204.0</ele><time>2026-04-25T07:02:23.017Z</time></trkpt><trkpt lat="43.57905" lon="13.14576"><ele>205.0</ele><time>2026-04-25T07:02:23.951Z</time></trkpt><trkpt lat="43.5790367" lon="13.1455233"><ele>206.0</ele><time>2026-04-25T07:02:24.95Z</time></trkpt><trkpt lat="43.5790217" lon="13.1452833"><ele>207.0</ele><time>2026-04-25T07:02:25.945Z</time></trkpt><trkpt lat="43.5789967" lon="13.1450383"><ele>207.66666666666669</ele><time>2026-04-25T07:02:26.947Z</time></trkpt><trkpt lat="43.57897" lon="13.144795"><ele>208.33333333333334</ele><time>2026-04-25T07:02:27.946Z</time></trkpt><trkpt lat="43.5789517" lon="13.1445467"><ele>209.0</ele><time>2026-04-25T07:02:29.018Z</time></trkpt><trkpt lat="43.57893" lon="13.1443033"><ele>209.0</ele><time>2026-04-25T07:02:29.945Z</time></trkpt><trkpt lat="43.5789017" lon="13.144065"><ele>209.0</ele><time>2026-04-25T07:02:30.945Z</time></trkpt><trkpt lat="43.5788667" lon="13.143825"><ele>209.0</ele><time>2026-04-25T07:02:31.945Z</time></trkpt><trkpt lat="43.5788133" lon="13.1435867"><ele>209.0</ele><time>2026-04-25T07:02:32.947Z</time></trkpt><trkpt lat="43.5787533" lon="13.14335"><ele>209.0</ele><time>2026-04-25T07:02:33.953Z</time></trkpt><trkpt lat="43.5786867" lon="13.14311"><ele>209.0</ele><time>2026-04-25T07:02:35.007Z</time></trkpt><trkpt lat="43.5786167" lon="13.1428767"><ele>209.0</ele><time>2026-04-25T07:02:35.943Z</time></trkpt><trkpt lat="43.5785467" lon="13.1426633"><ele>209.0</ele><time>2026-04-25T07:02:36.947Z</time></trkpt><trkpt lat="43.5784833" lon="13.14246"><ele>209.0</ele><time>2026-04-25T07:02:37.948Z</time></trkpt><trkpt lat="43.5784367" lon="13.1422717"><ele>209.0</ele><time>2026-04-25T07:02:38.944Z</time></trkpt><trkpt lat="43.5784117" lon="13.1420917"><ele>209.0</ele><time>2026-04-25T07:02:39.941Z</time></trkpt><trkpt lat="43.5784033" lon="13.1419067"><ele>209.0</ele><time>2026-04-25T07:02:41.012Z</time></trkpt><trkpt lat="43.5784133" lon="13.1417033"><ele>209.0</ele><time>2026-04-25T07:02:41.939Z</time></trkpt><trkpt lat="43.5784217" lon="13.1414867"><ele>209.0</ele><time>2026-04-25T07:02:42.945Z</time></trkpt><trkpt lat="43.5784167" lon="13.14126"><ele>209.0</ele><time>2026-04-25T07:02:43.956Z</time></trkpt><trkpt lat="43.5783933" lon="13.1410317"><ele>209.0</ele><time>2026-04-25T07:02:44.946Z</time></trkpt><trkpt lat="43.5783533" lon="13.14079"><ele>209.0</ele><time>2026-04-25T07:02:45.938Z</time></trkpt><trkpt lat="43.5783033" lon="13.14055"><ele>209.0</ele><time>2026-04-25T07:02:47.008Z</time></trkpt><trkpt lat="43.5782567" lon="13.1403017"><ele>209.0</ele><time>2026-04-25T07:02:47.941Z</time></trkpt><trkpt lat="43.57822" lon="13.1400617"><ele>210.0</ele><time>2026-04-25T07:02:48.945Z</time></trkpt><trkpt lat="43.5781933" lon="13.1398267"><ele>211.0</ele><time>2026-04-25T07:02:49.944Z</time></trkpt><trkpt lat="43.5781717" lon="13.13959"><ele>212.0</ele><time>2026-04-25T07:02:50.949Z</time></trkpt><trkpt lat="43.5781617" lon="13.13935"><ele>212.0</ele><time>2026-04-25T07:02:51.946Z</time></trkpt><trkpt lat="43.57815" lon="13.13911"><ele>212.0</ele><time>2026-04-25T07:02:53.01Z</time></trkpt><trkpt lat="43.5781383" lon="13.1388733"><ele>212.0</ele><time>2026-04-25T07:02:53.94Z</time></trkpt><trkpt lat="43.5781333" lon="13.1386317"><ele>212.33333333333334</ele><time>2026-04-25T07:02:54.969Z</time></trkpt><trkpt lat="43.57813" lon="13.13839"><ele>212.66666666666669</ele><time>2026-04-25T07:02:55.946Z</time></trkpt><trkpt lat="43.5781317" lon="13.138155"><ele>213.0</ele><time>2026-04-25T07:02:56.946Z</time></trkpt><trkpt lat="43.5781383" lon="13.1379183"><ele>213.0</ele><time>2026-04-25T07:02:57.936Z</time></trkpt><trkpt lat="43.5781517" lon="13.137685"><ele>213.0</ele><time>2026-04-25T07:02:59.008Z</time></trkpt><trkpt lat="43.5781733" lon="13.1374517"><ele>213.0</ele><time>2026-04-25T07:02:59.94Z</time></trkpt><trkpt lat="43.5781983" lon="13.1372267"><ele>211.66666666666669</ele><time>2026-04-25T07:03:00.943Z</time></trkpt><trkpt lat="43.5782217" lon="13.137005"><ele>210.33333333333334</ele><time>2026-04-25T07:03:01.937Z</time></trkpt><trkpt lat="43.57825" lon="13.1367867"><ele>209.0</ele><time>2026-04-25T07:03:02.946Z</time></trkpt><trkpt lat="43.5782767" lon="13.1365783"><ele>208.0</ele><time>2026-04-25T07:03:03.947Z</time></trkpt><trkpt lat="43.578295" lon="13.136375"><ele>207.0</ele><time>2026-04-25T07:03:05.003Z</time></trkpt><trkpt lat="43.5782983" lon="13.136175"><ele>206.0</ele><time>2026-04-25T07:03:05.938Z</time></trkpt><trkpt lat="43.5782917" lon="13.1359833"><ele>205.0</ele><time>2026-04-25T07:03:06.942Z</time></trkpt><trkpt lat="43.5782733" lon="13.1358133"><ele>202.8</ele><time>2026-04-25T07:03:07.939Z</time></trkpt><trkpt lat="43.57826" lon="13.1356617"><ele>200.6</ele><time>2026-04-25T07:03:08.949Z</time></trkpt><trkpt lat="43.578255" lon="13.1355167"><ele>198.39999999999998</ele><time>2026-04-25T07:03:09.941Z</time></trkpt><trkpt lat="43.57831" lon="13.1354067"><ele>196.2</ele><time>2026-04-25T07:03:11.003Z</time></trkpt><trkpt lat="43.5783883" lon="13.1353133"><ele>194.0</ele><time>2026-04-25T07:03:11.942Z</time></trkpt><trkpt lat="43.5785067" lon="13.13528"><ele>194.0</ele><time>2026-04-25T07:03:12.942Z</time></trkpt><trkpt lat="43.578625" lon="13.135265"><ele>194.0</ele><time>2026-04-25T07:03:13.938Z</time></trkpt><trkpt lat="43.57877" lon="13.135255"><ele>194.0</ele><time>2026-04-25T07:03:14.942Z</time></trkpt><trkpt lat="43.5789267" lon="13.1352433"><ele>194.0</ele><time>2026-04-25T07:03:15.94Z</time></trkpt><trkpt lat="43.5790833" lon="13.1352317"><ele>193.75</ele><time>2026-04-25T07:03:16.999Z</time></trkpt><trkpt lat="43.5792367" lon="13.1352217"><ele>193.5</ele><time>2026-04-25T07:03:17.939Z</time></trkpt><trkpt lat="43.5793817" lon="13.1352167"><ele>193.25</ele><time>2026-04-25T07:03:18.947Z</time></trkpt><trkpt lat="43.5795217" lon="13.1352133"><ele>193.0</ele><time>2026-04-25T07:03:19.939Z</time></trkpt><trkpt lat="43.5796517" lon="13.1352083"><ele>192.4</ele><time>2026-04-25T07:03:20.945Z</time></trkpt><trkpt lat="43.5797717" lon="13.1352033"><ele>191.8</ele><time>2026-04-25T07:03:21.943Z</time></trkpt><trkpt lat="43.5798883" lon="13.1352017"><ele>191.2</ele><time>2026-04-25T07:03:22.983Z</time></trkpt><trkpt lat="43.57999" lon="13.1352033"><ele>190.6</ele><time>2026-04-25T07:03:23.947Z</time></trkpt><trkpt lat="43.5800767" lon="13.135185"><ele>190.0</ele><time>2026-04-25T07:03:24.941Z</time></trkpt><trkpt lat="43.58014" lon="13.1351333"><ele>190.0</ele><time>2026-04-25T07:03:25.942Z</time></trkpt><trkpt lat="43.5802033" lon="13.13505"><ele>190.0</ele><time>2026-04-25T07:03:26.948Z</time></trkpt><trkpt lat="43.580265" lon="13.1349267"><ele>190.0</ele><time>2026-04-25T07:03:27.947Z</time></trkpt><trkpt lat="43.580325" lon="13.1347767"><ele>190.0</ele><time>2026-04-25T07:03:29.012Z</time></trkpt><trkpt lat="43.5803967" lon="13.1346033"><ele>189.66666666666669</ele><time>2026-04-25T07:03:29.937Z</time></trkpt><trkpt lat="43.5804717" lon="13.134415"><ele>189.33333333333334</ele><time>2026-04-25T07:03:30.939Z</time></trkpt><trkpt lat="43.58055" lon="13.1342283"><ele>189.0</ele><time>2026-04-25T07:03:31.943Z</time></trkpt><trkpt lat="43.5806233" lon="13.134045"><ele>189.75</ele><time>2026-04-25T07:03:32.943Z</time></trkpt><trkpt lat="43.5806883" lon="13.1338633"><ele>190.5</ele><time>2026-04-25T07:03:33.938Z</time></trkpt><trkpt lat="43.5807383" lon="13.1336783"><ele>191.25</ele><time>2026-04-25T07:03:35Z</time></trkpt><trkpt lat="43.58076" lon="13.133485"><ele>192.0</ele><time>2026-04-25T07:03:35.943Z</time></trkpt><trkpt lat="43.5807667" lon="13.133285"><ele>192.5</ele><time>2026-04-25T07:03:36.943Z</time></trkpt><trkpt lat="43.5807683" lon="13.1330867"><ele>193.0</ele><time>2026-04-25T07:03:37.943Z</time></trkpt><trkpt lat="43.58077" lon="13.1328933"><ele>193.5</ele><time>2026-04-25T07:03:38.944Z</time></trkpt><trkpt lat="43.5807583" lon="13.1327033"><ele>194.0</ele><time>2026-04-25T07:03:39.941Z</time></trkpt><trkpt lat="43.5807317" lon="13.1325183"><ele>194.6</ele><time>2026-04-25T07:03:41.008Z</time></trkpt><trkpt lat="43.58069" lon="13.13235"><ele>195.2</ele><time>2026-04-25T07:03:41.943Z</time></trkpt><trkpt lat="43.5806417" lon="13.132205"><ele>195.79999999999998</ele><time>2026-04-25T07:03:42.939Z</time></trkpt><trkpt lat="43.580595" lon="13.1320917"><ele>196.39999999999998</ele><time>2026-04-25T07:03:43.941Z</time></trkpt><trkpt lat="43.58055" lon="13.131995"><ele>197.0</ele><time>2026-04-25T07:03:44.943Z</time></trkpt><trkpt lat="43.580505" lon="13.1318833"><ele>197.0</ele><time>2026-04-25T07:03:45.944Z</time></trkpt><trkpt lat="43.5804517" lon="13.1317633"><ele>197.0</ele><time>2026-04-25T07:03:47.006Z</time></trkpt><trkpt lat="43.5804017" lon="13.1316283"><ele>197.0</ele><time>2026-04-25T07:03:47.938Z</time></trkpt><trkpt lat="43.580335" lon="13.13149"><ele>197.0</ele><time>2026-04-25T07:03:48.947Z</time></trkpt><trkpt lat="43.58026" lon="13.1313433"><ele>194.0</ele><time>2026-04-25T07:03:49.94Z</time></trkpt><trkpt lat="43.58018" lon="13.131195"><ele>191.0</ele><time>2026-04-25T07:03:50.947Z</time></trkpt><trkpt lat="43.5800917" lon="13.1310517"><ele>188.0</ele><time>2026-04-25T07:03:51.95Z</time></trkpt><trkpt lat="43.579985" lon="13.13092"><ele>185.0</ele><time>2026-04-25T07:03:53.016Z</time></trkpt><trkpt lat="43.5798633" lon="13.1307933"><ele>182.33333333333331</ele><time>2026-04-25T07:03:53.944Z</time></trkpt><trkpt lat="43.5797383" lon="13.1306683"><ele>179.66666666666666</ele><time>2026-04-25T07:03:54.944Z</time></trkpt><trkpt lat="43.5796133" lon="13.130545"><ele>177.0</ele><time>2026-04-25T07:03:55.944Z</time></trkpt><trkpt lat="43.5794867" lon="13.13043"><ele>176.33333333333334</ele><time>2026-04-25T07:03:56.943Z</time></trkpt><trkpt lat="43.5793617" lon="13.1303117"><ele>175.66666666666669</ele><time>2026-04-25T07:03:57.944Z</time></trkpt><trkpt lat="43.579245" lon="13.1301733"><ele>175.0</ele><time>2026-04-25T07:03:59.013Z</time></trkpt><trkpt lat="43.5791317" lon="13.1300217"><ele>172.66666666666669</ele><time>2026-04-25T07:03:59.947Z</time></trkpt><trkpt lat="43.5790183" lon="13.12986"><ele>170.33333333333334</ele><time>2026-04-25T07:04:00.94Z</time></trkpt><trkpt lat="43.57891" lon="13.129685"><ele>168.0</ele><time>2026-04-25T07:04:01.94Z</time></trkpt><trkpt lat="43.5787933" lon="13.1295133"><ele>168.66666666666666</ele><time>2026-04-25T07:04:02.945Z</time></trkpt><trkpt lat="43.5786717" lon="13.1293367"><ele>169.33333333333331</ele><time>2026-04-25T07:04:03.945Z</time></trkpt><trkpt lat="43.5785433" lon="13.129175"><ele>170.0</ele><time>2026-04-25T07:04:05.005Z</time></trkpt><trkpt lat="43.5784217" lon="13.1290217"><ele>170.0</ele><time>2026-04-25T07:04:05.944Z</time></trkpt><trkpt lat="43.5783117" lon="13.1288667"><ele>170.0</ele><time>2026-04-25T07:04:06.947Z</time></trkpt><trkpt lat="43.5782083" lon="13.1287133"><ele>170.0</ele><time>2026-04-25T07:04:07.941Z</time></trkpt><trkpt lat="43.5781017" lon="13.12856"><ele>170.0</ele><time>2026-04-25T07:04:08.949Z</time></trkpt><trkpt lat="43.5779917" lon="13.1284067"><ele>170.0</ele><time>2026-04-25T07:04:09.945Z</time></trkpt><trkpt lat="43.57788" lon="13.1282483"><ele>170.0</ele><time>2026-04-25T07:04:11.009Z</time></trkpt><trkpt lat="43.5777683" lon="13.1280867"><ele>168.33333333333331</ele><time>2026-04-25T07:04:11.945Z</time></trkpt><trkpt lat="43.5776633" lon="13.1279233"><ele>166.66666666666666</ele><time>2026-04-25T07:04:12.945Z</time></trkpt><trkpt lat="43.5775583" lon="13.127765"><ele>165.0</ele><time>2026-04-25T07:04:13.945Z</time></trkpt><trkpt lat="43.577455" lon="13.1275983"><ele>165.0</ele><time>2026-04-25T07:04:14.943Z</time></trkpt><trkpt lat="43.5773567" lon="13.12743"><ele>165.0</ele><time>2026-04-25T07:04:15.949Z</time></trkpt><trkpt lat="43.577255" lon="13.127255"><ele>165.0</ele><time>2026-04-25T07:04:17.003Z</time></trkpt><trkpt lat="43.5771683" lon="13.1270767"><ele>162.5</ele><time>2026-04-25T07:04:17.936Z</time></trkpt><trkpt lat="43.5771" lon="13.1268967"><ele>160.0</ele><time>2026-04-25T07:04:18.94Z</time></trkpt><trkpt lat="43.5770483" lon="13.126715"><ele>157.5</ele><time>2026-04-25T07:04:19.946Z</time></trkpt><trkpt lat="43.5770067" lon="13.126535"><ele>155.0</ele><time>2026-04-25T07:04:20.938Z</time></trkpt><trkpt lat="43.576965" lon="13.126355"><ele>154.75</ele><time>2026-04-25T07:04:21.939Z</time></trkpt><trkpt lat="43.57691" lon="13.126185"><ele>154.5</ele><time>2026-04-25T07:04:22.969Z</time></trkpt><trkpt lat="43.5768433" lon="13.1260317"><ele>154.25</ele><time>2026-04-25T07:04:23.957Z</time></trkpt><trkpt lat="43.5767583" lon="13.1259017"><ele>154.0</ele><time>2026-04-25T07:04:24.946Z</time></trkpt><trkpt lat="43.5766617" lon="13.1257833"><ele>153.75</ele><time>2026-04-25T07:04:25.944Z</time></trkpt><trkpt lat="43.5765483" lon="13.1256883"><ele>153.5</ele><time>2026-04-25T07:04:26.946Z</time></trkpt><trkpt lat="43.5764267" lon="13.1256083"><ele>153.25</ele><time>2026-04-25T07:04:27.949Z</time></trkpt><trkpt lat="43.5762967" lon="13.125535"><ele>153.0</ele><time>2026-04-25T07:04:28.986Z</time></trkpt><trkpt lat="43.5761683" lon="13.1254733"><ele>153.0</ele><time>2026-04-25T07:04:29.944Z</time></trkpt><trkpt lat="43.5760433" lon="13.1254083"><ele>153.0</ele><time>2026-04-25T07:04:30.95Z</time></trkpt><trkpt lat="43.5759283" lon="13.1253283"><ele>153.0</ele><time>2026-04-25T07:04:31.945Z</time></trkpt><trkpt lat="43.5758333" lon="13.125215"><ele>153.0</ele><time>2026-04-25T07:04:32.942Z</time></trkpt><trkpt lat="43.5757483" lon="13.125075"><ele>153.0</ele><time>2026-04-25T07:04:33.942Z</time></trkpt><trkpt lat="43.5756783" lon="13.1249167"><ele>153.0</ele><time>2026-04-25T07:04:35.002Z</time></trkpt><trkpt lat="43.5756167" lon="13.1247483"><ele>153.0</ele><time>2026-04-25T07:04:35.941Z</time></trkpt><trkpt lat="43.5755567" lon="13.124585"><ele>153.0</ele><time>2026-04-25T07:04:36.944Z</time></trkpt><trkpt lat="43.575495" lon="13.124435"><ele>153.0</ele><time>2026-04-25T07:04:37.944Z</time></trkpt><trkpt lat="43.5754333" lon="13.1242917"><ele>153.0</ele><time>2026-04-25T07:04:38.945Z</time></trkpt><trkpt lat="43.57536" lon="13.12418"><ele>153.0</ele><time>2026-04-25T07:04:39.942Z</time></trkpt><trkpt lat="43.5752783" lon="13.1240867"><ele>153.0</ele><time>2026-04-25T07:04:41.007Z</time></trkpt><trkpt lat="43.5751883" lon="13.1239917"><ele>153.0</ele><time>2026-04-25T07:04:41.939Z</time></trkpt><trkpt lat="43.575085" lon="13.1239033"><ele>149.0</ele><time>2026-04-25T07:04:42.946Z</time></trkpt><trkpt lat="43.5749667" lon="13.1238167"><ele>145.0</ele><time>2026-04-25T07:04:43.947Z</time></trkpt><trkpt lat="43.574835" lon="13.1237367"><ele>141.0</ele><time>2026-04-25T07:04:44.953Z</time></trkpt><trkpt lat="43.574705" lon="13.123655"><ele>137.0</ele><time>2026-04-25T07:04:45.945Z</time></trkpt><trkpt lat="43.5745733" lon="13.1235733"><ele>137.25</ele><time>2026-04-25T07:04:47.006Z</time></trkpt><trkpt lat="43.5744467" lon="13.1234917"><ele>137.5</ele><time>2026-04-25T07:04:47.943Z</time></trkpt><trkpt lat="43.57432" lon="13.1234033"><ele>137.75</ele><time>2026-04-25T07:04:48.946Z</time></trkpt><trkpt lat="43.574195" lon="13.123315"><ele>138.0</ele><time>2026-04-25T07:04:49.959Z</time></trkpt><trkpt lat="43.5740733" lon="13.1232283"><ele>137.0</ele><time>2026-04-25T07:04:50.944Z</time></trkpt><trkpt lat="43.5739567" lon="13.123135"><ele>136.0</ele><time>2026-04-25T07:04:51.953Z</time></trkpt><trkpt lat="43.57385" lon="13.1230333"><ele>135.0</ele><time>2026-04-25T07:04:53.007Z</time></trkpt><trkpt lat="43.573745" lon="13.122925"><ele>134.0</ele><time>2026-04-25T07:04:53.943Z</time></trkpt><trkpt lat="43.5736433" lon="13.1228167"><ele>134.0</ele><time>2026-04-25T07:04:54.948Z</time></trkpt><trkpt lat="43.5735383" lon="13.1227117"><ele>134.0</ele><time>2026-04-25T07:04:55.949Z</time></trkpt><trkpt lat="43.5734333" lon="13.122605"><ele>134.0</ele><time>2026-04-25T07:04:56.949Z</time></trkpt><trkpt lat="43.573335" lon="13.1225017"><ele>134.0</ele><time>2026-04-25T07:04:57.948Z</time></trkpt><trkpt lat="43.5732233" lon="13.1224067"><ele>131.0</ele><time>2026-04-25T07:04:59.01Z</time></trkpt><trkpt lat="43.5731133" lon="13.122315"><ele>128.0</ele><time>2026-04-25T07:04:59.944Z</time></trkpt><trkpt lat="43.5730067" lon="13.1222233"><ele>125.0</ele><time>2026-04-25T07:05:00.948Z</time></trkpt><trkpt lat="43.5729" lon="13.1221317"><ele>122.0</ele><time>2026-04-25T07:05:01.947Z</time></trkpt><trkpt lat="43.5727917" lon="13.12204"><ele>122.0</ele><time>2026-04-25T07:05:02.952Z</time></trkpt><trkpt lat="43.572685" lon="13.1219433"><ele>122.0</ele><time>2026-04-25T07:05:03.948Z</time></trkpt><trkpt lat="43.57258" lon="13.12185"><ele>122.0</ele><time>2026-04-25T07:05:05.008Z</time></trkpt><trkpt lat="43.572475" lon="13.12175"><ele>122.0</ele><time>2026-04-25T07:05:05.947Z</time></trkpt><trkpt lat="43.5723683" lon="13.1216433"><ele>120.25</ele><time>2026-04-25T07:05:06.948Z</time></trkpt><trkpt lat="43.5722633" lon="13.1215217"><ele>118.5</ele><time>2026-04-25T07:05:07.945Z</time></trkpt><trkpt lat="43.5721583" lon="13.1213983"><ele>116.75</ele><time>2026-04-25T07:05:08.949Z</time></trkpt><trkpt lat="43.57206" lon="13.12127"><ele>115.0</ele><time>2026-04-25T07:05:09.946Z</time></trkpt><trkpt lat="43.571965" lon="13.1211367"><ele>115.0</ele><time>2026-04-25T07:05:11.007Z</time></trkpt><trkpt lat="43.57188" lon="13.1209917"><ele>115.0</ele><time>2026-04-25T07:05:11.943Z</time></trkpt><trkpt lat="43.5718" lon="13.120835"><ele>115.0</ele><time>2026-04-25T07:05:12.945Z</time></trkpt><trkpt lat="43.5717217" lon="13.1206833"><ele>115.0</ele><time>2026-04-25T07:05:13.947Z</time></trkpt><trkpt lat="43.5716417" lon="13.1205133"><ele>112.25</ele><time>2026-04-25T07:05:14.949Z</time></trkpt><trkpt lat="43.571565" lon="13.12034"><ele>109.5</ele><time>2026-04-25T07:05:15.946Z</time></trkpt><trkpt lat="43.5714883" lon="13.120165"><ele>106.75</ele><time>2026-04-25T07:05:17Z</time></trkpt><trkpt lat="43.57141" lon="13.1199933"><ele>104.0</ele><time>2026-04-25T07:05:17.94Z</time></trkpt><trkpt lat="43.571335" lon="13.11982"><ele>101.25</ele><time>2026-04-25T07:05:18.947Z</time></trkpt><trkpt lat="43.57126" lon="13.1196517"><ele>98.5</ele><time>2026-04-25T07:05:19.945Z</time></trkpt><trkpt lat="43.5711833" lon="13.119485"><ele>95.75</ele><time>2026-04-25T07:05:20.944Z</time></trkpt><trkpt lat="43.5711133" lon="13.1193283"><ele>93.0</ele><time>2026-04-25T07:05:21.953Z</time></trkpt><trkpt lat="43.5710467" lon="13.1191733"><ele>91.75</ele><time>2026-04-25T07:05:23.01Z</time></trkpt><trkpt lat="43.5709833" lon="13.119015"><ele>90.5</ele><time>2026-04-25T07:05:23.939Z</time></trkpt><trkpt lat="43.5709183" lon="13.118855"><ele>89.25</ele><time>2026-04-25T07:05:24.943Z</time></trkpt><trkpt lat="43.57085" lon="13.1186917"><ele>88.0</ele><time>2026-04-25T07:05:25.943Z</time></trkpt><trkpt lat="43.57078" lon="13.1185233"><ele>88.0</ele><time>2026-04-25T07:05:26.947Z</time></trkpt><trkpt lat="43.57071" lon="13.1183467"><ele>88.0</ele><time>2026-04-25T07:05:27.943Z</time></trkpt><trkpt lat="43.570635" lon="13.1181683"><ele>88.0</ele><time>2026-04-25T07:05:28.984Z</time></trkpt><trkpt lat="43.570555" lon="13.1179933"><ele>88.0</ele><time>2026-04-25T07:05:29.942Z</time></trkpt><trkpt lat="43.5704817" lon="13.1178117"><ele>87.25</ele><time>2026-04-25T07:05:30.943Z</time></trkpt><trkpt lat="43.57041" lon="13.1176317"><ele>86.5</ele><time>2026-04-25T07:05:31.944Z</time></trkpt><trkpt lat="43.5703283" lon="13.11746"><ele>85.75</ele><time>2026-04-25T07:05:32.944Z</time></trkpt><trkpt lat="43.5702467" lon="13.1173017"><ele>85.0</ele><time>2026-04-25T07:05:33.942Z</time></trkpt><trkpt lat="43.57017" lon="13.11715"><ele>84.5</ele><time>2026-04-25T07:05:35.005Z</time></trkpt><trkpt lat="43.5701" lon="13.1170033"><ele>84.0</ele><time>2026-04-25T07:05:35.943Z</time></trkpt><trkpt lat="43.57004" lon="13.1168633"><ele>83.5</ele><time>2026-04-25T07:05:36.94Z</time></trkpt><trkpt lat="43.569985" lon="13.116725"><ele>83.0</ele><time>2026-04-25T07:05:37.939Z</time></trkpt><trkpt lat="43.5699417" lon="13.116575"><ele>83.5</ele><time>2026-04-25T07:05:38.94Z</time></trkpt><trkpt lat="43.5699067" lon="13.116415"><ele>84.0</ele><time>2026-04-25T07:05:39.944Z</time></trkpt><trkpt lat="43.5698767" lon="13.1162383"><ele>84.5</ele><time>2026-04-25T07:05:41.003Z</time></trkpt><trkpt lat="43.5698483" lon="13.11605"><ele>85.0</ele><time>2026-04-25T07:05:41.943Z</time></trkpt><trkpt lat="43.56982" lon="13.115875"><ele>85.0</ele><time>2026-04-25T07:05:42.938Z</time></trkpt><trkpt lat="43.569795" lon="13.1157133"><ele>85.0</ele><time>2026-04-25T07:05:43.944Z</time></trkpt><trkpt lat="43.56977" lon="13.11557"><ele>85.0</ele><time>2026-04-25T07:05:44.945Z</time></trkpt><trkpt lat="43.5697517" lon="13.1154517"><ele>85.0</ele><time>2026-04-25T07:05:45.94Z</time></trkpt><trkpt lat="43.5697383" lon="13.1153533"><ele>85.0</ele><time>2026-04-25T07:05:47.01Z</time></trkpt><trkpt lat="43.5697217" lon="13.1152233"><ele>85.0</ele><time>2026-04-25T07:05:48.943Z</time></trkpt><trkpt lat="43.569635" lon="13.1152117"><ele>85.0</ele><time>2026-04-25T07:05:53.935Z</time></trkpt><trkpt lat="43.5695817" lon="13.1152683"><ele>85.0</ele><time>2026-04-25T07:05:54.94Z</time></trkpt><trkpt lat="43.56952" lon="13.1153367"><ele>85.0</ele><time>2026-04-25T07:05:55.942Z</time></trkpt><trkpt lat="43.5694467" lon="13.1154083"><ele>85.0</ele><time>2026-04-25T07:05:56.946Z</time></trkpt><trkpt lat="43.5693583" lon="13.1154967"><ele>85.0</ele><time>2026-04-25T07:05:57.94Z</time></trkpt><trkpt lat="43.5692567" lon="13.1155917"><ele>85.0</ele><time>2026-04-25T07:05:59.013Z</time></trkpt><trkpt lat="43.5691567" lon="13.1156867"><ele>85.0</ele><time>2026-04-25T07:05:59.945Z</time></trkpt><trkpt lat="43.5690533" lon="13.11578"><ele>85.0</ele><time>2026-04-25T07:06:00.943Z</time></trkpt><trkpt lat="43.5689433" lon="13.1158817"><ele>85.0</ele><time>2026-04-25T07:06:01.944Z</time></trkpt><trkpt lat="43.56883" lon="13.115985"><ele>85.0</ele><time>2026-04-25T07:06:02.948Z</time></trkpt><trkpt lat="43.56871" lon="13.1160867"><ele>85.0</ele><time>2026-04-25T07:06:03.942Z</time></trkpt><trkpt lat="43.5685933" lon="13.11619"><ele>85.0</ele><time>2026-04-25T07:06:05.003Z</time></trkpt><trkpt lat="43.5684767" lon="13.1162983"><ele>85.0</ele><time>2026-04-25T07:06:05.943Z</time></trkpt><trkpt lat="43.5683667" lon="13.11643"><ele>87.0</ele><time>2026-04-25T07:06:06.945Z</time></trkpt><trkpt lat="43.5682633" lon="13.1165783"><ele>89.0</ele><time>2026-04-25T07:06:07.946Z</time></trkpt><trkpt lat="43.5681733" lon="13.11674"><ele>91.0</ele><time>2026-04-25T07:06:08.938Z</time></trkpt><trkpt lat="43.5681017" lon="13.1169167"><ele>93.0</ele><time>2026-04-25T07:06:09.937Z</time></trkpt><trkpt lat="43.56805" lon="13.1170983"><ele>93.0</ele><time>2026-04-25T07:06:11.006Z</time></trkpt><trkpt lat="43.5679933" lon="13.1172717"><ele>93.0</ele><time>2026-04-25T07:06:11.935Z</time></trkpt><trkpt lat="43.5679333" lon="13.1174367"><ele>93.0</ele><time>2026-04-25T07:06:12.949Z</time></trkpt><trkpt lat="43.567835" lon="13.117565"><ele>93.0</ele><time>2026-04-25T07:06:13.949Z</time></trkpt><trkpt lat="43.56771" lon="13.1176583"><ele>95.25</ele><time>2026-04-25T07:06:14.948Z</time></trkpt><trkpt lat="43.56758" lon="13.1177033"><ele>97.5</ele><time>2026-04-25T07:06:15.947Z</time></trkpt><trkpt lat="43.5674467" lon="13.1176667"><ele>99.75</ele><time>2026-04-25T07:06:17.003Z</time></trkpt><trkpt lat="43.56732" lon="13.1175967"><ele>102.0</ele><time>2026-04-25T07:06:17.948Z</time></trkpt><trkpt lat="43.5671967" lon="13.1174967"><ele>100.66666666666666</ele><time>2026-04-25T07:06:18.947Z</time></trkpt><trkpt lat="43.5670667" lon="13.11737"><ele>99.33333333333333</ele><time>2026-04-25T07:06:19.943Z</time></trkpt><trkpt lat="43.5669383" lon="13.11725"><ele>98.0</ele><time>2026-04-25T07:06:20.944Z</time></trkpt><trkpt lat="43.5668033" lon="13.1171617"><ele>98.0</ele><time>2026-04-25T07:06:21.938Z</time></trkpt><trkpt lat="43.566655" lon="13.1171183"><ele>98.0</ele><time>2026-04-25T07:06:23.005Z</time></trkpt><trkpt lat="43.5665017" lon="13.11714"><ele>98.0</ele><time>2026-04-25T07:06:23.941Z</time></trkpt><trkpt lat="43.5663483" lon="13.11718"><ele>98.0</ele><time>2026-04-25T07:06:24.943Z</time></trkpt><trkpt lat="43.5662017" lon="13.1172517"><ele>98.0</ele><time>2026-04-25T07:06:25.948Z</time></trkpt><trkpt lat="43.566065" lon="13.1173317"><ele>98.0</ele><time>2026-04-25T07:06:26.938Z</time></trkpt><trkpt lat="43.5659417" lon="13.1174183"><ele>98.0</ele><time>2026-04-25T07:06:27.944Z</time></trkpt><trkpt lat="43.56584" lon="13.1175217"><ele>99.99999999999999</ele><time>2026-04-25T07:06:28.943Z</time></trkpt><trkpt lat="43.565765" lon="13.11764"><ele>102.0</ele><time>2026-04-25T07:06:29.942Z</time></trkpt><trkpt lat="43.56571" lon="13.1177617"><ele>104.0</ele><time>2026-04-25T07:06:30.947Z</time></trkpt><trkpt lat="43.5656633" lon="13.117865"><ele>106.0</ele><time>2026-04-25T07:06:31.945Z</time></trkpt><trkpt lat="43.565615" lon="13.1179417"><ele>107.99999999999999</ele><time>2026-04-25T07:06:32.945Z</time></trkpt><trkpt lat="43.5655617" lon="13.1179933"><ele>110.0</ele><time>2026-04-25T07:06:33.947Z</time></trkpt><trkpt lat="43.5654917" lon="13.1180167"><ele>110.0</ele><time>2026-04-25T07:06:35.01Z</time></trkpt><trkpt lat="43.565405" lon="13.118015"><ele>110.0</ele><time>2026-04-25T07:06:35.941Z</time></trkpt><trkpt lat="43.5653117" lon="13.1179833"><ele>110.0</ele><time>2026-04-25T07:06:36.943Z</time></trkpt><trkpt lat="43.56522" lon="13.117915"><ele>110.0</ele><time>2026-04-25T07:06:37.949Z</time></trkpt><trkpt lat="43.5651267" lon="13.117825"><ele>110.0</ele><time>2026-04-25T07:06:38.944Z</time></trkpt><trkpt lat="43.5650383" lon="13.1177333"><ele>109.5</ele><time>2026-04-25T07:06:39.941Z</time></trkpt><trkpt lat="43.56494" lon="13.11766"><ele>109.0</ele><time>2026-04-25T07:06:41.004Z</time></trkpt><trkpt lat="43.5648133" lon="13.1175983"><ele>108.5</ele><time>2026-04-25T07:06:41.946Z</time></trkpt><trkpt lat="43.5646733" lon="13.1175483"><ele>108.0</ele><time>2026-04-25T07:06:42.947Z</time></trkpt><trkpt lat="43.56452" lon="13.1175167"><ele>107.0</ele><time>2026-04-25T07:06:43.941Z</time></trkpt><trkpt lat="43.564355" lon="13.117495"><ele>106.0</ele><time>2026-04-25T07:06:44.947Z</time></trkpt><trkpt lat="43.5641817" lon="13.1174833"><ele>105.0</ele><time>2026-04-25T07:06:45.946Z</time></trkpt><trkpt lat="43.5640133" lon="13.11747"><ele>105.0</ele><time>2026-04-25T07:06:47.004Z</time></trkpt><trkpt lat="43.5638483" lon="13.1174583"><ele>105.0</ele><time>2026-04-25T07:06:47.946Z</time></trkpt><trkpt lat="43.563685" lon="13.117445"><ele>105.0</ele><time>2026-04-25T07:06:48.945Z</time></trkpt><trkpt lat="43.5635217" lon="13.1174283"><ele>103.0</ele><time>2026-04-25T07:06:49.943Z</time></trkpt><trkpt lat="43.5633567" lon="13.11741"><ele>101.0</ele><time>2026-04-25T07:06:50.947Z</time></trkpt><trkpt lat="43.5631883" lon="13.1173917"><ele>99.0</ele><time>2026-04-25T07:06:51.943Z</time></trkpt><trkpt lat="43.563015" lon="13.117375"><ele>98.33333333333334</ele><time>2026-04-25T07:06:52.976Z</time></trkpt><trkpt lat="43.5628417" lon="13.1173583"><ele>97.66666666666667</ele><time>2026-04-25T07:06:53.937Z</time></trkpt><trkpt lat="43.5626667" lon="13.117345"><ele>97.0</ele><time>2026-04-25T07:06:54.942Z</time></trkpt><trkpt lat="43.5624867" lon="13.117335"><ele>97.0</ele><time>2026-04-25T07:06:55.946Z</time></trkpt><trkpt lat="43.5623117" lon="13.11733"><ele>97.0</ele><time>2026-04-25T07:06:56.944Z</time></trkpt><trkpt lat="43.5621333" lon="13.1173517"><ele>97.0</ele><time>2026-04-25T07:06:57.943Z</time></trkpt><trkpt lat="43.561955" lon="13.1173833"><ele>96.66666666666667</ele><time>2026-04-25T07:06:58.986Z</time></trkpt><trkpt lat="43.561775" lon="13.1174217"><ele>96.33333333333334</ele><time>2026-04-25T07:06:59.939Z</time></trkpt><trkpt lat="43.561595" lon="13.1174633"><ele>96.0</ele><time>2026-04-25T07:07:00.943Z</time></trkpt><trkpt lat="43.5614167" lon="13.1175033"><ele>96.0</ele><time>2026-04-25T07:07:01.947Z</time></trkpt><trkpt lat="43.5612317" lon="13.1175533"><ele>96.0</ele><time>2026-04-25T07:07:02.939Z</time></trkpt><trkpt lat="43.5610467" lon="13.117595"><ele>96.0</ele><time>2026-04-25T07:07:03.944Z</time></trkpt><trkpt lat="43.560865" lon="13.117635"><ele>99.0</ele><time>2026-04-25T07:07:05.003Z</time></trkpt><trkpt lat="43.5606833" lon="13.1176783"><ele>102.0</ele><time>2026-04-25T07:07:05.938Z</time></trkpt><trkpt lat="43.5605033" lon="13.1177183"><ele>105.0</ele><time>2026-04-25T07:07:06.939Z</time></trkpt><trkpt lat="43.560325" lon="13.1177567"><ele>108.66666666666666</ele><time>2026-04-25T07:07:07.952Z</time></trkpt><trkpt lat="43.56015" lon="13.1177867"><ele>112.33333333333333</ele><time>2026-04-25T07:07:08.946Z</time></trkpt><trkpt lat="43.559975" lon="13.11781"><ele>116.0</ele><time>2026-04-25T07:07:09.941Z</time></trkpt><trkpt lat="43.5597983" lon="13.117835"><ele>116.0</ele><time>2026-04-25T07:07:11.005Z</time></trkpt><trkpt lat="43.5596233" lon="13.1178417"><ele>116.0</ele><time>2026-04-25T07:07:11.938Z</time></trkpt><trkpt lat="43.5594517" lon="13.1178383"><ele>116.0</ele><time>2026-04-25T07:07:12.942Z</time></trkpt><trkpt lat="43.5592833" lon="13.11783"><ele>119.33333333333333</ele><time>2026-04-25T07:07:13.947Z</time></trkpt><trkpt lat="43.5591133" lon="13.117815"><ele>122.66666666666666</ele><time>2026-04-25T07:07:14.941Z</time></trkpt><trkpt lat="43.5589417" lon="13.1178033"><ele>126.0</ele><time>2026-04-25T07:07:15.942Z</time></trkpt><trkpt lat="43.5587733" lon="13.117795"><ele>129.0</ele><time>2026-04-25T07:07:16.996Z</time></trkpt><trkpt lat="43.5586033" lon="13.1177883"><ele>132.0</ele><time>2026-04-25T07:07:17.94Z</time></trkpt><trkpt lat="43.5584317" lon="13.1177917"><ele>135.0</ele><time>2026-04-25T07:07:18.936Z</time></trkpt><trkpt lat="43.558255" lon="13.1177983"><ele>135.0</ele><time>2026-04-25T07:07:19.943Z</time></trkpt><trkpt lat="43.5580767" lon="13.117805"><ele>135.0</ele><time>2026-04-25T07:07:20.95Z</time></trkpt><trkpt lat="43.5579" lon="13.1178133"><ele>135.0</ele><time>2026-04-25T07:07:21.934Z</time></trkpt><trkpt lat="43.5577217" lon="13.1178233"><ele>138.33333333333334</ele><time>2026-04-25T07:07:23.01Z</time></trkpt><trkpt lat="43.557545" lon="13.1178267"><ele>141.66666666666669</ele><time>2026-04-25T07:07:23.938Z</time></trkpt><trkpt lat="43.5573633" lon="13.1178283"><ele>145.0</ele><time>2026-04-25T07:07:24.939Z</time></trkpt><trkpt lat="43.5571817" lon="13.117825"><ele>148.33333333333334</ele><time>2026-04-25T07:07:25.945Z</time></trkpt><trkpt lat="43.557" lon="13.117825"><ele>151.66666666666666</ele><time>2026-04-25T07:07:26.949Z</time></trkpt><trkpt lat="43.5568167" lon="13.1178317"><ele>155.0</ele><time>2026-04-25T07:07:27.948Z</time></trkpt><trkpt lat="43.5566333" lon="13.117845"><ele>155.0</ele><time>2026-04-25T07:07:29.004Z</time></trkpt><trkpt lat="43.5564517" lon="13.1178567"><ele>155.0</ele><time>2026-04-25T07:07:29.937Z</time></trkpt><trkpt lat="43.55627" lon="13.1178683"><ele>155.0</ele><time>2026-04-25T07:07:30.946Z</time></trkpt><trkpt lat="43.5560933" lon="13.1178817"><ele>157.33333333333331</ele><time>2026-04-25T07:07:31.94Z</time></trkpt><trkpt lat="43.555915" lon="13.117895"><ele>159.66666666666666</ele><time>2026-04-25T07:07:32.94Z</time></trkpt><trkpt lat="43.5557417" lon="13.11791"><ele>162.0</ele><time>2026-04-25T07:07:33.938Z</time></trkpt><trkpt lat="43.55557" lon="13.1179317"><ele>162.0</ele><time>2026-04-25T07:07:35.005Z</time></trkpt><trkpt lat="43.5553967" lon="13.11797"><ele>162.0</ele><time>2026-04-25T07:07:35.942Z</time></trkpt><trkpt lat="43.555235" lon="13.11802"><ele>162.0</ele><time>2026-04-25T07:07:36.941Z</time></trkpt><trkpt lat="43.555075" lon="13.1180783"><ele>163.33333333333334</ele><time>2026-04-25T07:07:37.936Z</time></trkpt><trkpt lat="43.554915" lon="13.1181383"><ele>164.66666666666669</ele><time>2026-04-25T07:07:38.947Z</time></trkpt><trkpt lat="43.5547567" lon="13.1182017"><ele>166.0</ele><time>2026-04-25T07:07:39.94Z</time></trkpt><trkpt lat="43.5546067" lon="13.1182583"><ele>168.75</ele><time>2026-04-25T07:07:41.005Z</time></trkpt><trkpt lat="43.5544683" lon="13.1183083"><ele>171.5</ele><time>2026-04-25T07:07:41.937Z</time></trkpt><trkpt lat="43.55435" lon="13.1183467"><ele>174.25</ele><time>2026-04-25T07:07:42.942Z</time></trkpt><trkpt lat="43.554245" lon="13.1183833"><ele>177.0</ele><time>2026-04-25T07:07:43.942Z</time></trkpt><trkpt lat="43.5541683" lon="13.1183917"><ele>177.0</ele><time>2026-04-25T07:07:44.95Z</time></trkpt><trkpt lat="43.5540967" lon="13.1183333"><ele>177.0</ele><time>2026-04-25T07:07:47.006Z</time></trkpt><trkpt lat="43.55411" lon="13.1182083"><ele>177.0</ele><time>2026-04-25T07:07:48.944Z</time></trkpt><trkpt lat="43.5541517" lon="13.1181033"><ele>177.0</ele><time>2026-04-25T07:07:49.942Z</time></trkpt><trkpt lat="43.5542167" lon="13.1179567"><ele>177.0</ele><time>2026-04-25T07:07:50.945Z</time></trkpt><trkpt lat="43.55428" lon="13.1177967"><ele>176.25</ele><time>2026-04-25T07:07:51.938Z</time></trkpt><trkpt lat="43.5543383" lon="13.1176233"><ele>175.5</ele><time>2026-04-25T07:07:53.015Z</time></trkpt><trkpt lat="43.5543933" lon="13.1174567"><ele>174.75</ele><time>2026-04-25T07:07:53.935Z</time></trkpt><trkpt lat="43.5544433" lon="13.1172883"><ele>174.0</ele><time>2026-04-25T07:07:54.944Z</time></trkpt><trkpt lat="43.55449" lon="13.1171133"><ele>173.5</ele><time>2026-04-25T07:07:55.944Z</time></trkpt><trkpt lat="43.5545367" lon="13.1169317"><ele>173.0</ele><time>2026-04-25T07:07:56.943Z</time></trkpt><trkpt lat="43.55458" lon="13.116745"><ele>172.5</ele><time>2026-04-25T07:07:57.94Z</time></trkpt><trkpt lat="43.5546217" lon="13.1165583"><ele>172.0</ele><time>2026-04-25T07:07:58.981Z</time></trkpt><trkpt lat="43.5546667" lon="13.1163767"><ele>171.25</ele><time>2026-04-25T07:07:59.941Z</time></trkpt><trkpt lat="43.5547133" lon="13.1162033"><ele>170.5</ele><time>2026-04-25T07:08:00.937Z</time></trkpt><trkpt lat="43.554765" lon="13.116035"><ele>169.75</ele><time>2026-04-25T07:08:01.935Z</time></trkpt><trkpt lat="43.554815" lon="13.1158667"><ele>169.0</ele><time>2026-04-25T07:08:02.948Z</time></trkpt><trkpt lat="43.5548583" lon="13.115715"><ele>168.5</ele><time>2026-04-25T07:08:03.941Z</time></trkpt><trkpt lat="43.5548983" lon="13.115565"><ele>168.0</ele><time>2026-04-25T07:08:04.996Z</time></trkpt><trkpt lat="43.5549417" lon="13.1154117"><ele>167.5</ele><time>2026-04-25T07:08:05.934Z</time></trkpt><trkpt lat="43.554985" lon="13.1152517"><ele>167.0</ele><time>2026-04-25T07:08:06.943Z</time></trkpt><trkpt lat="43.555025" lon="13.1150833"><ele>167.0</ele><time>2026-04-25T07:08:07.942Z</time></trkpt><trkpt lat="43.5550617" lon="13.1149083"><ele>167.0</ele><time>2026-04-25T07:08:08.95Z</time></trkpt><trkpt lat="43.5551017" lon="13.1147383"><ele>167.0</ele><time>2026-04-25T07:08:09.942Z</time></trkpt><trkpt lat="43.55514" lon="13.1145717"><ele>167.0</ele><time>2026-04-25T07:08:11.008Z</time></trkpt><trkpt lat="43.5551767" lon="13.1144117"><ele>167.25</ele><time>2026-04-25T07:08:11.939Z</time></trkpt><trkpt lat="43.5552133" lon="13.1142483"><ele>167.5</ele><time>2026-04-25T07:08:12.935Z</time></trkpt><trkpt lat="43.5552517" lon="13.1140783"><ele>167.75</ele><time>2026-04-25T07:08:13.941Z</time></trkpt><trkpt lat="43.5552917" lon="13.1138867"><ele>168.0</ele><time>2026-04-25T07:08:14.94Z</time></trkpt><trkpt lat="43.5553267" lon="13.1136767"><ele>168.0</ele><time>2026-04-25T07:08:15.946Z</time></trkpt><trkpt lat="43.5553517" lon="13.1134717"><ele>168.0</ele><time>2026-04-25T07:08:17.001Z</time></trkpt><trkpt lat="43.5553733" lon="13.1132717"><ele>168.0</ele><time>2026-04-25T07:08:17.938Z</time></trkpt><trkpt lat="43.555405" lon="13.113075"><ele>168.0</ele><time>2026-04-25T07:08:18.941Z</time></trkpt><trkpt lat="43.555455" lon="13.1128783"><ele>166.0</ele><time>2026-04-25T07:08:19.948Z</time></trkpt><trkpt lat="43.5555217" lon="13.1126783"><ele>164.0</ele><time>2026-04-25T07:08:20.946Z</time></trkpt><trkpt lat="43.555605" lon="13.1124733"><ele>162.0</ele><time>2026-04-25T07:08:21.942Z</time></trkpt><trkpt lat="43.5556933" lon="13.112265"><ele>162.0</ele><time>2026-04-25T07:08:22.946Z</time></trkpt><trkpt lat="43.55578" lon="13.1120617"><ele>162.0</ele><time>2026-04-25T07:08:23.949Z</time></trkpt><trkpt lat="43.5558633" lon="13.111855"><ele>162.0</ele><time>2026-04-25T07:08:24.947Z</time></trkpt><trkpt lat="43.5559367" lon="13.11165"><ele>163.0</ele><time>2026-04-25T07:08:25.945Z</time></trkpt><trkpt lat="43.5559983" lon="13.1114417"><ele>164.0</ele><time>2026-04-25T07:08:26.949Z</time></trkpt><trkpt lat="43.5560583" lon="13.1112333"><ele>165.0</ele><time>2026-04-25T07:08:27.943Z</time></trkpt><trkpt lat="43.5561283" lon="13.1110267"><ele>165.33333333333334</ele><time>2026-04-25T07:08:28.967Z</time></trkpt><trkpt lat="43.55621" lon="13.1108267"><ele>165.66666666666669</ele><time>2026-04-25T07:08:29.945Z</time></trkpt><trkpt lat="43.556305" lon="13.1106283"><ele>166.0</ele><time>2026-04-25T07:08:30.95Z</time></trkpt><trkpt lat="43.5564017" lon="13.1104417"><ele>166.0</ele><time>2026-04-25T07:08:31.946Z</time></trkpt><trkpt lat="43.5565033" lon="13.1102617"><ele>166.0</ele><time>2026-04-25T07:08:32.943Z</time></trkpt><trkpt lat="43.5566033" lon="13.110085"><ele>166.0</ele><time>2026-04-25T07:08:33.947Z</time></trkpt><trkpt lat="43.5567017" lon="13.1099133"><ele>168.33333333333334</ele><time>2026-04-25T07:08:34.989Z</time></trkpt><trkpt lat="43.5567967" lon="13.10975"><ele>170.66666666666666</ele><time>2026-04-25T07:08:35.938Z</time></trkpt><trkpt lat="43.5568967" lon="13.1095933"><ele>173.0</ele><time>2026-04-25T07:08:36.945Z</time></trkpt><trkpt lat="43.5570167" lon="13.10945"><ele>172.0</ele><time>2026-04-25T07:08:37.94Z</time></trkpt><trkpt lat="43.55715" lon="13.1093167"><ele>171.0</ele><time>2026-04-25T07:08:38.946Z</time></trkpt><trkpt lat="43.55729" lon="13.10919"><ele>170.0</ele><time>2026-04-25T07:08:39.944Z</time></trkpt><trkpt lat="43.5574417" lon="13.1090583"><ele>171.33333333333331</ele><time>2026-04-25T07:08:41.001Z</time></trkpt><trkpt lat="43.5575933" lon="13.10892"><ele>172.66666666666666</ele><time>2026-04-25T07:08:41.946Z</time></trkpt><trkpt lat="43.55774" lon="13.1087933"><ele>174.0</ele><time>2026-04-25T07:08:42.94Z</time></trkpt><trkpt lat="43.5578917" lon="13.1086783"><ele>174.0</ele><time>2026-04-25T07:08:43.939Z</time></trkpt><trkpt lat="43.5580417" lon="13.1085683"><ele>174.0</ele><time>2026-04-25T07:08:44.947Z</time></trkpt><trkpt lat="43.55817" lon="13.1084633"><ele>174.0</ele><time>2026-04-25T07:08:45.949Z</time></trkpt><trkpt lat="43.5582883" lon="13.1083467"><ele>175.33333333333334</ele><time>2026-04-25T07:08:46.993Z</time></trkpt><trkpt lat="43.5584017" lon="13.10821"><ele>176.66666666666669</ele><time>2026-04-25T07:08:47.945Z</time></trkpt><trkpt lat="43.558515" lon="13.108055"><ele>178.0</ele><time>2026-04-25T07:08:48.939Z</time></trkpt><trkpt lat="43.55863" lon="13.1078983"><ele>176.0</ele><time>2026-04-25T07:08:49.943Z</time></trkpt><trkpt lat="43.558745" lon="13.107735"><ele>174.0</ele><time>2026-04-25T07:08:50.937Z</time></trkpt><trkpt lat="43.5588633" lon="13.1075617"><ele>172.0</ele><time>2026-04-25T07:08:51.948Z</time></trkpt><trkpt lat="43.5589767" lon="13.1073883"><ele>172.0</ele><time>2026-04-25T07:08:53.004Z</time></trkpt><trkpt lat="43.5590933" lon="13.107215"><ele>172.0</ele><time>2026-04-25T07:08:53.944Z</time></trkpt><trkpt lat="43.5592083" lon="13.1070467"><ele>172.0</ele><time>2026-04-25T07:08:54.942Z</time></trkpt><trkpt lat="43.5593183" lon="13.1068817"><ele>172.0</ele><time>2026-04-25T07:08:55.942Z</time></trkpt><trkpt lat="43.5594283" lon="13.1067183"><ele>172.0</ele><time>2026-04-25T07:08:56.945Z</time></trkpt><trkpt lat="43.5595367" lon="13.1065617"><ele>172.0</ele><time>2026-04-25T07:08:57.945Z</time></trkpt><trkpt lat="43.5596367" lon="13.10642"><ele>172.25</ele><time>2026-04-25T07:08:59.011Z</time></trkpt><trkpt lat="43.5597233" lon="13.1062917"><ele>172.5</ele><time>2026-04-25T07:08:59.937Z</time></trkpt><trkpt lat="43.5597983" lon="13.10616"><ele>172.75</ele><time>2026-04-25T07:09:00.937Z</time></trkpt><trkpt lat="43.5598533" lon="13.1060083"><ele>173.0</ele><time>2026-04-25T07:09:01.94Z</time></trkpt><trkpt lat="43.5598717" lon="13.1058383"><ele>175.0</ele><time>2026-04-25T07:09:02.945Z</time></trkpt><trkpt lat="43.55986" lon="13.1056617"><ele>177.0</ele><time>2026-04-25T07:09:03.943Z</time></trkpt><trkpt lat="43.55982" lon="13.1054733"><ele>179.0</ele><time>2026-04-25T07:09:04.998Z</time></trkpt><trkpt lat="43.55976" lon="13.1052733"><ele>181.0</ele><time>2026-04-25T07:09:05.94Z</time></trkpt><trkpt lat="43.5596967" lon="13.1050783"><ele>182.25</ele><time>2026-04-25T07:09:06.942Z</time></trkpt><trkpt lat="43.559635" lon="13.1048983"><ele>183.5</ele><time>2026-04-25T07:09:07.939Z</time></trkpt><trkpt lat="43.5595833" lon="13.1047283"><ele>184.75</ele><time>2026-04-25T07:09:08.937Z</time></trkpt><trkpt lat="43.5595317" lon="13.1045483"><ele>186.0</ele><time>2026-04-25T07:09:09.947Z</time></trkpt><trkpt lat="43.5594817" lon="13.1043567"><ele>183.66666666666666</ele><time>2026-04-25T07:09:11.001Z</time></trkpt><trkpt lat="43.559435" lon="13.1041533"><ele>181.33333333333331</ele><time>2026-04-25T07:09:11.936Z</time></trkpt><trkpt lat="43.559385" lon="13.1039417"><ele>179.0</ele><time>2026-04-25T07:09:12.942Z</time></trkpt><trkpt lat="43.5593317" lon="13.1037283"><ele>179.0</ele><time>2026-04-25T07:09:13.944Z</time></trkpt><trkpt lat="43.5592717" lon="13.103515"><ele>179.0</ele><time>2026-04-25T07:09:14.939Z</time></trkpt><trkpt lat="43.5592083" lon="13.1033033"><ele>179.0</ele><time>2026-04-25T07:09:15.947Z</time></trkpt><trkpt lat="43.5591417" lon="13.1030967"><ele>181.0</ele><time>2026-04-25T07:09:17.002Z</time></trkpt><trkpt lat="43.5590767" lon="13.1028967"><ele>183.0</ele><time>2026-04-25T07:09:17.938Z</time></trkpt><trkpt lat="43.5590167" lon="13.1027067"><ele>185.0</ele><time>2026-04-25T07:09:18.939Z</time></trkpt><trkpt lat="43.55896" lon="13.1025283"><ele>185.25</ele><time>2026-04-25T07:09:19.942Z</time></trkpt><trkpt lat="43.5589117" lon="13.1023567"><ele>185.5</ele><time>2026-04-25T07:09:20.94Z</time></trkpt><trkpt lat="43.55888" lon="13.1021883"><ele>185.75</ele><time>2026-04-25T07:09:21.944Z</time></trkpt><trkpt lat="43.558855" lon="13.1020067"><ele>186.0</ele><time>2026-04-25T07:09:23.001Z</time></trkpt><trkpt lat="43.5588383" lon="13.10181"><ele>186.0</ele><time>2026-04-25T07:09:23.944Z</time></trkpt><trkpt lat="43.55882" lon="13.101615"><ele>186.0</ele><time>2026-04-25T07:09:24.947Z</time></trkpt><trkpt lat="43.5587917" lon="13.1014267"><ele>186.0</ele><time>2026-04-25T07:09:25.949Z</time></trkpt><trkpt lat="43.5587583" lon="13.1012467"><ele>186.0</ele><time>2026-04-25T07:09:26.941Z</time></trkpt><trkpt lat="43.5587167" lon="13.101085"><ele>184.0</ele><time>2026-04-25T07:09:27.944Z</time></trkpt><trkpt lat="43.5586767" lon="13.1009333"><ele>182.0</ele><time>2026-04-25T07:09:29.002Z</time></trkpt><trkpt lat="43.5586417" lon="13.100795"><ele>180.0</ele><time>2026-04-25T07:09:29.939Z</time></trkpt><trkpt lat="43.55861" lon="13.100665"><ele>178.0</ele><time>2026-04-25T07:09:30.94Z</time></trkpt><trkpt lat="43.5585833" lon="13.1005433"><ele>176.0</ele><time>2026-04-25T07:09:31.942Z</time></trkpt><trkpt lat="43.5585617" lon="13.1004283"><ele>175.8</ele><time>2026-04-25T07:09:32.943Z</time></trkpt><trkpt lat="43.55855" lon="13.100305"><ele>175.60000000000002</ele><time>2026-04-25T07:09:33.941Z</time></trkpt><trkpt lat="43.55854" lon="13.1001633"><ele>175.4</ele><time>2026-04-25T07:09:34.995Z</time></trkpt><trkpt lat="43.55853" lon="13.100005"><ele>175.2</ele><time>2026-04-25T07:09:35.944Z</time></trkpt><trkpt lat="43.5585183" lon="13.0998333"><ele>175.0</ele><time>2026-04-25T07:09:36.944Z</time></trkpt><trkpt lat="43.5585017" lon="13.099655"><ele>175.0</ele><time>2026-04-25T07:09:37.945Z</time></trkpt><trkpt lat="43.5584867" lon="13.09947"><ele>175.0</ele><time>2026-04-25T07:09:38.943Z</time></trkpt><trkpt lat="43.558475" lon="13.0992817"><ele>175.0</ele><time>2026-04-25T07:09:39.938Z</time></trkpt><trkpt lat="43.5584683" lon="13.09911"><ele>175.0</ele><time>2026-04-25T07:09:40.999Z</time></trkpt><trkpt lat="43.5584633" lon="13.0989533"><ele>175.5</ele><time>2026-04-25T07:09:41.94Z</time></trkpt><trkpt lat="43.5584683" lon="13.0987967"><ele>176.0</ele><time>2026-04-25T07:09:42.939Z</time></trkpt><trkpt lat="43.5584833" lon="13.0986383"><ele>176.5</ele><time>2026-04-25T07:09:43.944Z</time></trkpt><trkpt lat="43.55851" lon="13.0984717"><ele>177.0</ele><time>2026-04-25T07:09:44.945Z</time></trkpt><trkpt lat="43.5585383" lon="13.0983017"><ele>176.25</ele><time>2026-04-25T07:09:45.948Z</time></trkpt><trkpt lat="43.5585633" lon="13.0981383"><ele>175.5</ele><time>2026-04-25T07:09:46.997Z</time></trkpt><trkpt lat="43.5585733" lon="13.0979817"><ele>174.75</ele><time>2026-04-25T07:09:47.943Z</time></trkpt><trkpt lat="43.558575" lon="13.0978117"><ele>174.0</ele><time>2026-04-25T07:09:48.947Z</time></trkpt><trkpt lat="43.55856" lon="13.0976267"><ele>174.0</ele><time>2026-04-25T07:09:49.939Z</time></trkpt><trkpt lat="43.5585333" lon="13.09743"><ele>174.0</ele><time>2026-04-25T07:09:50.945Z</time></trkpt><trkpt lat="43.5585083" lon="13.09723"><ele>174.0</ele><time>2026-04-25T07:09:51.945Z</time></trkpt><trkpt lat="43.55848" lon="13.0970267"><ele>174.0</ele><time>2026-04-25T07:09:53.009Z</time></trkpt><trkpt lat="43.5584517" lon="13.0968267"><ele>172.25</ele><time>2026-04-25T07:09:53.933Z</time></trkpt><trkpt lat="43.5584233" lon="13.0966283"><ele>170.5</ele><time>2026-04-25T07:09:54.937Z</time></trkpt><trkpt lat="43.5583967" lon="13.0964283"><ele>168.75</ele><time>2026-04-25T07:09:55.943Z</time></trkpt><trkpt lat="43.5583717" lon="13.0962267"><ele>167.0</ele><time>2026-04-25T07:09:56.958Z</time></trkpt><trkpt lat="43.558355" lon="13.0960217"><ele>166.25</ele><time>2026-04-25T07:09:57.945Z</time></trkpt><trkpt lat="43.558345" lon="13.09582"><ele>165.5</ele><time>2026-04-25T07:09:59.006Z</time></trkpt><trkpt lat="43.5583367" lon="13.0956167"><ele>164.75</ele><time>2026-04-25T07:09:59.94Z</time></trkpt><trkpt lat="43.55833" lon="13.0954217"><ele>164.0</ele><time>2026-04-25T07:10:00.94Z</time></trkpt><trkpt lat="43.5583233" lon="13.095235"><ele>162.75</ele><time>2026-04-25T07:10:01.949Z</time></trkpt><trkpt lat="43.5583167" lon="13.0950517"><ele>161.5</ele><time>2026-04-25T07:10:02.938Z</time></trkpt><trkpt lat="43.5583033" lon="13.0948633"><ele>160.25</ele><time>2026-04-25T07:10:03.952Z</time></trkpt><trkpt lat="43.5582833" lon="13.0946683"><ele>159.0</ele><time>2026-04-25T07:10:04.993Z</time></trkpt><trkpt lat="43.5582583" lon="13.0944733"><ele>157.75</ele><time>2026-04-25T07:10:05.938Z</time></trkpt><trkpt lat="43.558235" lon="13.0942783"><ele>156.5</ele><time>2026-04-25T07:10:06.941Z</time></trkpt><trkpt lat="43.5582117" lon="13.0940833"><ele>155.25</ele><time>2026-04-25T07:10:07.941Z</time></trkpt><trkpt lat="43.5581867" lon="13.0938883"><ele>154.0</ele><time>2026-04-25T07:10:08.947Z</time></trkpt><trkpt lat="43.5581617" lon="13.0936933"><ele>153.0</ele><time>2026-04-25T07:10:09.94Z</time></trkpt><trkpt lat="43.5581367" lon="13.0935033"><ele>152.0</ele><time>2026-04-25T07:10:10.992Z</time></trkpt><trkpt lat="43.558105" lon="13.093315"><ele>151.0</ele><time>2026-04-25T07:10:11.936Z</time></trkpt><trkpt lat="43.5580733" lon="13.0931167"><ele>150.0</ele><time>2026-04-25T07:10:12.941Z</time></trkpt><trkpt lat="43.5580383" lon="13.0929283"><ele>149.25</ele><time>2026-04-25T07:10:13.94Z</time></trkpt><trkpt lat="43.5580033" lon="13.09275"><ele>148.5</ele><time>2026-04-25T07:10:14.948Z</time></trkpt><trkpt lat="43.55797" lon="13.0925767"><ele>147.75</ele><time>2026-04-25T07:10:15.944Z</time></trkpt><trkpt lat="43.557935" lon="13.0924183"><ele>147.0</ele><time>2026-04-25T07:10:16.997Z</time></trkpt><trkpt lat="43.5579067" lon="13.0922683"><ele>147.0</ele><time>2026-04-25T07:10:17.94Z</time></trkpt><trkpt lat="43.5578833" lon="13.0921233"><ele>147.0</ele><time>2026-04-25T07:10:18.942Z</time></trkpt><trkpt lat="43.5578683" lon="13.091965"><ele>147.0</ele><time>2026-04-25T07:10:19.948Z</time></trkpt><trkpt lat="43.557865" lon="13.0918017"><ele>147.0</ele><time>2026-04-25T07:10:20.948Z</time></trkpt><trkpt lat="43.5578783" lon="13.0916233"><ele>147.75</ele><time>2026-04-25T07:10:21.94Z</time></trkpt><trkpt lat="43.5579083" lon="13.0914367"><ele>148.5</ele><time>2026-04-25T07:10:22.943Z</time></trkpt><trkpt lat="43.5579417" lon="13.091245"><ele>149.25</ele><time>2026-04-25T07:10:23.947Z</time></trkpt><trkpt lat="43.5579767" lon="13.0910483"><ele>150.0</ele><time>2026-04-25T07:10:24.943Z</time></trkpt><trkpt lat="43.558015" lon="13.090855"><ele>149.75</ele><time>2026-04-25T07:10:25.954Z</time></trkpt><trkpt lat="43.5580567" lon="13.0906683"><ele>149.5</ele><time>2026-04-25T07:10:26.957Z</time></trkpt><trkpt lat="43.558105" lon="13.0904867"><ele>149.25</ele><time>2026-04-25T07:10:27.947Z</time></trkpt><trkpt lat="43.5581567" lon="13.0903083"><ele>149.0</ele><time>2026-04-25T07:10:29.009Z</time></trkpt><trkpt lat="43.558215" lon="13.0901317"><ele>149.0</ele><time>2026-04-25T07:10:29.94Z</time></trkpt><trkpt lat="43.5582817" lon="13.08996"><ele>149.0</ele><time>2026-04-25T07:10:30.936Z</time></trkpt><trkpt lat="43.5583467" lon="13.08978"><ele>149.0</ele><time>2026-04-25T07:10:31.949Z</time></trkpt><trkpt lat="43.5584167" lon="13.089605"><ele>149.0</ele><time>2026-04-25T07:10:32.938Z</time></trkpt><trkpt lat="43.5584983" lon="13.0894383"><ele>148.5</ele><time>2026-04-25T07:10:33.948Z</time></trkpt><trkpt lat="43.5585767" lon="13.089255"><ele>148.0</ele><time>2026-04-25T07:10:34.997Z</time></trkpt><trkpt lat="43.5586517" lon="13.0890817"><ele>147.5</ele><time>2026-04-25T07:10:35.941Z</time></trkpt><trkpt lat="43.5587283" lon="13.0889083"><ele>147.0</ele><time>2026-04-25T07:10:36.94Z</time></trkpt><trkpt lat="43.558805" lon="13.0887367"><ele>143.5</ele><time>2026-04-25T07:10:37.945Z</time></trkpt><trkpt lat="43.5588817" lon="13.08856"><ele>140.0</ele><time>2026-04-25T07:10:38.939Z</time></trkpt><trkpt lat="43.5589517" lon="13.08838"><ele>136.5</ele><time>2026-04-25T07:10:39.94Z</time></trkpt><trkpt lat="43.5590267" lon="13.0882"><ele>133.0</ele><time>2026-04-25T07:10:40.994Z</time></trkpt><trkpt lat="43.5591" lon="13.088015"><ele>133.0</ele><time>2026-04-25T07:10:41.935Z</time></trkpt><trkpt lat="43.5591733" lon="13.0878367"><ele>133.0</ele><time>2026-04-25T07:10:42.942Z</time></trkpt><trkpt lat="43.5592433" lon="13.08765"><ele>133.0</ele><time>2026-04-25T07:10:43.936Z</time></trkpt><trkpt lat="43.5593133" lon="13.0874583"><ele>131.0</ele><time>2026-04-25T07:10:44.942Z</time></trkpt><trkpt lat="43.5593867" lon="13.0872667"><ele>129.0</ele><time>2026-04-25T07:10:45.942Z</time></trkpt><trkpt lat="43.55946" lon="13.087075"><ele>127.0</ele><time>2026-04-25T07:10:46.994Z</time></trkpt><trkpt lat="43.5595267" lon="13.08689"><ele>127.5</ele><time>2026-04-25T07:10:47.94Z</time></trkpt><trkpt lat="43.5595933" lon="13.0867167"><ele>128.0</ele><time>2026-04-25T07:10:48.944Z</time></trkpt><trkpt lat="43.5596583" lon="13.0865433"><ele>128.5</ele><time>2026-04-25T07:10:49.941Z</time></trkpt><trkpt lat="43.5597233" lon="13.0863683"><ele>129.0</ele><time>2026-04-25T07:10:50.948Z</time></trkpt><trkpt lat="43.5597883" lon="13.0861917"><ele>129.0</ele><time>2026-04-25T07:10:51.951Z</time></trkpt><trkpt lat="43.55985" lon="13.0860217"><ele>129.0</ele><time>2026-04-25T07:10:52.941Z</time></trkpt><trkpt lat="43.5599117" lon="13.085845"><ele>129.0</ele><time>2026-04-25T07:10:53.941Z</time></trkpt><trkpt lat="43.5599733" lon="13.0856733"><ele>129.0</ele><time>2026-04-25T07:10:54.942Z</time></trkpt><trkpt lat="43.560035" lon="13.08551"><ele>130.0</ele><time>2026-04-25T07:10:55.941Z</time></trkpt><trkpt lat="43.5600933" lon="13.08536"><ele>131.0</ele><time>2026-04-25T07:10:56.948Z</time></trkpt><trkpt lat="43.5601467" lon="13.0852217"><ele>132.0</ele><time>2026-04-25T07:10:57.941Z</time></trkpt><trkpt lat="43.560195" lon="13.085095"><ele>133.0</ele><time>2026-04-25T07:10:58.945Z</time></trkpt><trkpt lat="43.5602367" lon="13.0849867"><ele>134.0</ele><time>2026-04-25T07:10:59.945Z</time></trkpt><trkpt lat="43.5602667" lon="13.0848917"><ele>135.0</ele><time>2026-04-25T07:11:00.94Z</time></trkpt><trkpt lat="43.5602733" lon="13.084805"><ele>136.0</ele><time>2026-04-25T07:11:01.942Z</time></trkpt><trkpt lat="43.56019" lon="13.084675"><ele>137.0</ele><time>2026-04-25T07:11:03.944Z</time></trkpt><trkpt lat="43.5601283" lon="13.0846017"><ele>138.0</ele><time>2026-04-25T07:11:05.007Z</time></trkpt><trkpt lat="43.5600617" lon="13.0845217"><ele>139.0</ele><time>2026-04-25T07:11:05.945Z</time></trkpt><trkpt lat="43.559975" lon="13.0844083"><ele>139.0</ele><time>2026-04-25T07:11:06.944Z</time></trkpt><trkpt lat="43.55989" lon="13.084285"><ele>139.0</ele><time>2026-04-25T07:11:07.944Z</time></trkpt><trkpt lat="43.5597983" lon="13.08415"><ele>139.0</ele><time>2026-04-25T07:11:08.945Z</time></trkpt><trkpt lat="43.5597067" lon="13.084015"><ele>139.0</ele><time>2026-04-25T07:11:09.942Z</time></trkpt><trkpt lat="43.5596183" lon="13.0838817"><ele>137.25</ele><time>2026-04-25T07:11:10.999Z</time></trkpt><trkpt lat="43.5595333" lon="13.0837617"><ele>135.5</ele><time>2026-04-25T07:11:11.94Z</time></trkpt><trkpt lat="43.559455" lon="13.0836517"><ele>133.75</ele><time>2026-04-25T07:11:12.939Z</time></trkpt><trkpt lat="43.5593883" lon="13.0835333"><ele>132.0</ele><time>2026-04-25T07:11:13.943Z</time></trkpt><trkpt lat="43.5593167" lon="13.083415"><ele>132.0</ele><time>2026-04-25T07:11:14.943Z</time></trkpt><trkpt lat="43.5592433" lon="13.0832783"><ele>132.0</ele><time>2026-04-25T07:11:15.944Z</time></trkpt><trkpt lat="43.55917" lon="13.0831267"><ele>132.0</ele><time>2026-04-25T07:11:16.998Z</time></trkpt><trkpt lat="43.5590933" lon="13.0829667"><ele>132.0</ele><time>2026-04-25T07:11:17.947Z</time></trkpt><trkpt lat="43.5590233" lon="13.0828067"><ele>131.5</ele><time>2026-04-25T07:11:18.939Z</time></trkpt><trkpt lat="43.5589583" lon="13.08265"><ele>131.0</ele><time>2026-04-25T07:11:19.936Z</time></trkpt><trkpt lat="43.558895" lon="13.0825017"><ele>130.5</ele><time>2026-04-25T07:11:20.94Z</time></trkpt><trkpt lat="43.558835" lon="13.0823567"><ele>130.0</ele><time>2026-04-25T07:11:21.946Z</time></trkpt><trkpt lat="43.5587717" lon="13.08222"><ele>129.0</ele><time>2026-04-25T07:11:23.013Z</time></trkpt><trkpt lat="43.5587067" lon="13.0820933"><ele>128.0</ele><time>2026-04-25T07:11:23.944Z</time></trkpt><trkpt lat="43.5586417" lon="13.0819667"><ele>127.0</ele><time>2026-04-25T07:11:24.94Z</time></trkpt><trkpt lat="43.5585783" lon="13.0818433"><ele>126.0</ele><time>2026-04-25T07:11:25.947Z</time></trkpt><trkpt lat="43.5585183" lon="13.08172"><ele>125.0</ele><time>2026-04-25T07:11:26.941Z</time></trkpt><trkpt lat="43.5584617" lon="13.0815933"><ele>123.0</ele><time>2026-04-25T07:11:27.949Z</time></trkpt><trkpt lat="43.5584033" lon="13.081475"><ele>121.0</ele><time>2026-04-25T07:11:29.002Z</time></trkpt><trkpt lat="43.5583483" lon="13.0813517"><ele>119.0</ele><time>2026-04-25T07:11:29.951Z</time></trkpt><trkpt lat="43.5582883" lon="13.0812317"><ele>117.0</ele><time>2026-04-25T07:11:30.946Z</time></trkpt><trkpt lat="43.55822" lon="13.08112"><ele>115.0</ele><time>2026-04-25T07:11:31.936Z</time></trkpt><trkpt lat="43.558145" lon="13.0810133"><ele>115.0</ele><time>2026-04-25T07:11:32.948Z</time></trkpt><trkpt lat="43.5580633" lon="13.08092"><ele>115.0</ele><time>2026-04-25T07:11:33.941Z</time></trkpt><trkpt lat="43.5579817" lon="13.0808433"><ele>115.0</ele><time>2026-04-25T07:11:34.991Z</time></trkpt><trkpt lat="43.5578983" lon="13.08078"><ele>115.0</ele><time>2026-04-25T07:11:35.941Z</time></trkpt><trkpt lat="43.5578133" lon="13.0807667"><ele>115.0</ele><time>2026-04-25T07:11:36.946Z</time></trkpt><trkpt lat="43.5577133" lon="13.080775"><ele>114.4</ele><time>2026-04-25T07:11:37.942Z</time></trkpt><trkpt lat="43.557605" lon="13.08082"><ele>113.8</ele><time>2026-04-25T07:11:38.946Z</time></trkpt><trkpt lat="43.5575" lon="13.08089"><ele>113.19999999999999</ele><time>2026-04-25T07:11:39.95Z</time></trkpt><trkpt lat="43.557405" lon="13.0809617"><ele>112.6</ele><time>2026-04-25T07:11:40.999Z</time></trkpt><trkpt lat="43.5573133" lon="13.08104"><ele>112.0</ele><time>2026-04-25T07:11:41.94Z</time></trkpt><trkpt lat="43.5572267" lon="13.0811417"><ele>112.0</ele><time>2026-04-25T07:11:42.945Z</time></trkpt><trkpt lat="43.5571467" lon="13.0812583"><ele>112.0</ele><time>2026-04-25T07:11:43.947Z</time></trkpt><trkpt lat="43.5570733" lon="13.0813867"><ele>112.0</ele><time>2026-04-25T07:11:44.943Z</time></trkpt><trkpt lat="43.5570067" lon="13.0815317"><ele>112.0</ele><time>2026-04-25T07:11:45.945Z</time></trkpt><trkpt lat="43.5569533" lon="13.0816917"><ele>109.5</ele><time>2026-04-25T07:11:46.994Z</time></trkpt><trkpt lat="43.5569" lon="13.0818583"><ele>107.0</ele><time>2026-04-25T07:11:47.943Z</time></trkpt><trkpt lat="43.556855" lon="13.0820217"><ele>104.5</ele><time>2026-04-25T07:11:48.948Z</time></trkpt><trkpt lat="43.5568017" lon="13.08218"><ele>102.0</ele><time>2026-04-25T07:11:49.94Z</time></trkpt><trkpt lat="43.556745" lon="13.08232"><ele>101.25</ele><time>2026-04-25T07:11:50.946Z</time></trkpt><trkpt lat="43.55668" lon="13.0824517"><ele>100.5</ele><time>2026-04-25T07:11:51.949Z</time></trkpt><trkpt lat="43.556605" lon="13.0825583"><ele>99.75</ele><time>2026-04-25T07:11:53.002Z</time></trkpt><trkpt lat="43.5564883" lon="13.082605"><ele>99.0</ele><time>2026-04-25T07:11:53.938Z</time></trkpt><trkpt lat="43.5563683" lon="13.082635"><ele>99.0</ele><time>2026-04-25T07:11:54.935Z</time></trkpt><trkpt lat="43.5562417" lon="13.0826317"><ele>99.0</ele><time>2026-04-25T07:11:55.943Z</time></trkpt><trkpt lat="43.5561067" lon="13.0826333"><ele>99.0</ele><time>2026-04-25T07:11:56.937Z</time></trkpt><trkpt lat="43.5559633" lon="13.08267"><ele>99.0</ele><time>2026-04-25T07:11:57.942Z</time></trkpt><trkpt lat="43.5558033" lon="13.08274"><ele>98.33333333333334</ele><time>2026-04-25T07:11:58.962Z</time></trkpt><trkpt lat="43.5556367" lon="13.0828233"><ele>97.66666666666667</ele><time>2026-04-25T07:11:59.949Z</time></trkpt><trkpt lat="43.5554683" lon="13.0829083"><ele>97.0</ele><time>2026-04-25T07:12:00.936Z</time></trkpt><trkpt lat="43.5553" lon="13.0829967"><ele>97.0</ele><time>2026-04-25T07:12:01.948Z</time></trkpt><trkpt lat="43.555135" lon="13.0830917"><ele>97.0</ele><time>2026-04-25T07:12:02.947Z</time></trkpt><trkpt lat="43.5549733" lon="13.08319"><ele>97.0</ele><time>2026-04-25T07:12:03.951Z</time></trkpt><trkpt lat="43.5548133" lon="13.083295"><ele>97.66666666666667</ele><time>2026-04-25T07:12:04.996Z</time></trkpt><trkpt lat="43.554665" lon="13.083405"><ele>98.33333333333334</ele><time>2026-04-25T07:12:05.938Z</time></trkpt><trkpt lat="43.5545233" lon="13.08351"><ele>99.0</ele><time>2026-04-25T07:12:06.934Z</time></trkpt><trkpt lat="43.5543883" lon="13.0836133"><ele>99.0</ele><time>2026-04-25T07:12:07.941Z</time></trkpt><trkpt lat="43.5542517" lon="13.0837033"><ele>99.0</ele><time>2026-04-25T07:12:08.938Z</time></trkpt><trkpt lat="43.5541117" lon="13.0837867"><ele>99.0</ele><time>2026-04-25T07:12:09.94Z</time></trkpt><trkpt lat="43.5539767" lon="13.0838717"><ele>99.0</ele><time>2026-04-25T07:12:10.993Z</time></trkpt><trkpt lat="43.5538267" lon="13.0839583"><ele>99.0</ele><time>2026-04-25T07:12:11.937Z</time></trkpt><trkpt lat="43.5536783" lon="13.0840433"><ele>99.0</ele><time>2026-04-25T07:12:12.943Z</time></trkpt><trkpt lat="43.55353" lon="13.08413"><ele>99.0</ele><time>2026-04-25T07:12:13.942Z</time></trkpt><trkpt lat="43.55338" lon="13.0842167"><ele>99.0</ele><time>2026-04-25T07:12:14.945Z</time></trkpt><trkpt lat="43.5532333" lon="13.0842933"><ele>99.0</ele><time>2026-04-25T07:12:15.942Z</time></trkpt><trkpt lat="43.55309" lon="13.0843517"><ele>99.0</ele><time>2026-04-25T07:12:16.991Z</time></trkpt><trkpt lat="43.55295" lon="13.084395"><ele>99.0</ele><time>2026-04-25T07:12:17.937Z</time></trkpt><trkpt lat="43.5528117" lon="13.0844283"><ele>99.0</ele><time>2026-04-25T07:12:18.94Z</time></trkpt><trkpt lat="43.5526833" lon="13.0844517"><ele>99.0</ele><time>2026-04-25T07:12:19.938Z</time></trkpt><trkpt lat="43.5525567" lon="13.0844617"><ele>99.0</ele><time>2026-04-25T07:12:20.936Z</time></trkpt><trkpt lat="43.5524367" lon="13.0844567"><ele>99.0</ele><time>2026-04-25T07:12:21.939Z</time></trkpt><trkpt lat="43.552325" lon="13.0844267"><ele>99.0</ele><time>2026-04-25T07:12:23.005Z</time></trkpt><trkpt lat="43.5522217" lon="13.0843767"><ele>99.0</ele><time>2026-04-25T07:12:23.935Z</time></trkpt><trkpt lat="43.55213" lon="13.0842983"><ele>99.0</ele><time>2026-04-25T07:12:24.942Z</time></trkpt><trkpt lat="43.5520433" lon="13.084195"><ele>99.0</ele><time>2026-04-25T07:12:25.945Z</time></trkpt><trkpt lat="43.5519533" lon="13.084055"><ele>99.0</ele><time>2026-04-25T07:12:26.949Z</time></trkpt><trkpt lat="43.5518533" lon="13.0839067"><ele>99.0</ele><time>2026-04-25T07:12:27.95Z</time></trkpt><trkpt lat="43.5517517" lon="13.0837467"><ele>98.66666666666666</ele><time>2026-04-25T07:12:28.965Z</time></trkpt><trkpt lat="43.5516567" lon="13.083585"><ele>98.33333333333333</ele><time>2026-04-25T07:12:29.941Z</time></trkpt><trkpt lat="43.551575" lon="13.083415"><ele>98.0</ele><time>2026-04-25T07:12:30.935Z</time></trkpt><trkpt lat="43.551495" lon="13.0832317"><ele>97.5</ele><time>2026-04-25T07:12:31.942Z</time></trkpt><trkpt lat="43.55142" lon="13.0830517"><ele>97.0</ele><time>2026-04-25T07:12:32.943Z</time></trkpt><trkpt lat="43.5513483" lon="13.08287"><ele>96.5</ele><time>2026-04-25T07:12:33.943Z</time></trkpt><trkpt lat="43.5512783" lon="13.0826967"><ele>96.0</ele><time>2026-04-25T07:12:35.003Z</time></trkpt><trkpt lat="43.5512117" lon="13.0825333"><ele>97.0</ele><time>2026-04-25T07:12:35.942Z</time></trkpt><trkpt lat="43.5511417" lon="13.0823817"><ele>98.0</ele><time>2026-04-25T07:12:36.94Z</time></trkpt><trkpt lat="43.5510667" lon="13.08224"><ele>99.0</ele><time>2026-04-25T07:12:37.939Z</time></trkpt><trkpt lat="43.550985" lon="13.0821"><ele>100.0</ele><time>2026-04-25T07:12:38.943Z</time></trkpt><trkpt lat="43.5509067" lon="13.0819683"><ele>100.00000000000001</ele><time>2026-04-25T07:12:39.946Z</time></trkpt><trkpt lat="43.5508317" lon="13.0818467"><ele>100.0</ele><time>2026-04-25T07:12:41.003Z</time></trkpt><trkpt lat="43.550765" lon="13.0817417"><ele>100.0</ele><time>2026-04-25T07:12:41.939Z</time></trkpt><trkpt lat="43.550705" lon="13.0816533"><ele>100.0</ele><time>2026-04-25T07:12:42.94Z</time></trkpt><trkpt lat="43.5506567" lon="13.0815717"><ele>100.00000000000001</ele><time>2026-04-25T07:12:43.944Z</time></trkpt><trkpt lat="43.5506183" lon="13.0814983"><ele>100.0</ele><time>2026-04-25T07:12:44.948Z</time></trkpt><trkpt lat="43.55059" lon="13.08134"><ele>100.0</ele><time>2026-04-25T07:12:46.993Z</time></trkpt><trkpt lat="43.5506017" lon="13.0812417"><ele>100.0</ele><time>2026-04-25T07:12:47.94Z</time></trkpt><trkpt lat="43.5506267" lon="13.08113"><ele>100.0</ele><time>2026-04-25T07:12:48.947Z</time></trkpt><trkpt lat="43.5506733" lon="13.0810033"><ele>100.0</ele><time>2026-04-25T07:12:49.945Z</time></trkpt><trkpt lat="43.55072" lon="13.0808633"><ele>100.0</ele><time>2026-04-25T07:12:50.941Z</time></trkpt><trkpt lat="43.5507733" lon="13.0807067"><ele>99.5</ele><time>2026-04-25T07:12:51.935Z</time></trkpt><trkpt lat="43.5508367" lon="13.0805483"><ele>99.0</ele><time>2026-04-25T07:12:53.008Z</time></trkpt><trkpt lat="43.55091" lon="13.0803933"><ele>98.5</ele><time>2026-04-25T07:12:53.942Z</time></trkpt><trkpt lat="43.5509683" lon="13.0802283"><ele>98.0</ele><time>2026-04-25T07:12:54.939Z</time></trkpt><trkpt lat="43.5510167" lon="13.0800617"><ele>98.25</ele><time>2026-04-25T07:12:55.941Z</time></trkpt><trkpt lat="43.5510483" lon="13.0798817"><ele>98.5</ele><time>2026-04-25T07:12:56.943Z</time></trkpt><trkpt lat="43.5510717" lon="13.0796833"><ele>98.75</ele><time>2026-04-25T07:12:57.94Z</time></trkpt><trkpt lat="43.551085" lon="13.0794817"><ele>99.0</ele><time>2026-04-25T07:12:59Z</time></trkpt><trkpt lat="43.5510883" lon="13.0792883"><ele>99.0</ele><time>2026-04-25T07:12:59.936Z</time></trkpt><trkpt lat="43.5510867" lon="13.0791017"><ele>99.0</ele><time>2026-04-25T07:13:00.944Z</time></trkpt><trkpt lat="43.5510933" lon="13.0789367"><ele>99.0</ele><time>2026-04-25T07:13:01.94Z</time></trkpt><trkpt lat="43.55111" lon="13.0787833"><ele>99.0</ele><time>2026-04-25T07:13:02.946Z</time></trkpt><trkpt lat="43.55112" lon="13.0786567"><ele>100.4</ele><time>2026-04-25T07:13:03.94Z</time></trkpt><trkpt lat="43.5511217" lon="13.0785433"><ele>101.80000000000001</ele><time>2026-04-25T07:13:04.995Z</time></trkpt><trkpt lat="43.5510867" lon="13.07844"><ele>103.19999999999999</ele><time>2026-04-25T07:13:05.937Z</time></trkpt><trkpt lat="43.5510217" lon="13.078355"><ele>104.6</ele><time>2026-04-25T07:13:06.942Z</time></trkpt><trkpt lat="43.5509383" lon="13.0782683"><ele>106.0</ele><time>2026-04-25T07:13:07.941Z</time></trkpt><trkpt lat="43.5508383" lon="13.0781683"><ele>107.75</ele><time>2026-04-25T07:13:08.943Z</time></trkpt><trkpt lat="43.5507367" lon="13.0780533"><ele>109.5</ele><time>2026-04-25T07:13:09.941Z</time></trkpt><trkpt lat="43.55063" lon="13.0779183"><ele>111.25</ele><time>2026-04-25T07:13:11Z</time></trkpt><trkpt lat="43.5505217" lon="13.0777733"><ele>113.0</ele><time>2026-04-25T07:13:11.945Z</time></trkpt><trkpt lat="43.5504117" lon="13.0776267"><ele>112.5</ele><time>2026-04-25T07:13:12.94Z</time></trkpt><trkpt lat="43.5503083" lon="13.0774833"><ele>112.0</ele><time>2026-04-25T07:13:13.948Z</time></trkpt><trkpt lat="43.5502233" lon="13.0773383"><ele>111.5</ele><time>2026-04-25T07:13:14.946Z</time></trkpt><trkpt lat="43.5501417" lon="13.0771833"><ele>111.0</ele><time>2026-04-25T07:13:15.942Z</time></trkpt><trkpt lat="43.550055" lon="13.0770333"><ele>111.0</ele><time>2026-04-25T07:13:16.999Z</time></trkpt><trkpt lat="43.5499767" lon="13.0768833"><ele>111.0</ele><time>2026-04-25T07:13:17.939Z</time></trkpt><trkpt lat="43.5499033" lon="13.0767517"><ele>111.0</ele><time>2026-04-25T07:13:18.947Z</time></trkpt><trkpt lat="43.549835" lon="13.0766267"><ele>111.0</ele><time>2026-04-25T07:13:19.944Z</time></trkpt><trkpt lat="43.5497567" lon="13.07651"><ele>112.25</ele><time>2026-04-25T07:13:20.943Z</time></trkpt><trkpt lat="43.54969" lon="13.076375"><ele>113.5</ele><time>2026-04-25T07:13:21.95Z</time></trkpt><trkpt lat="43.5496383" lon="13.0762117"><ele>114.75</ele><time>2026-04-25T07:13:23.009Z</time></trkpt><trkpt lat="43.549595" lon="13.0760383"><ele>116.0</ele><time>2026-04-25T07:13:23.94Z</time></trkpt><trkpt lat="43.5495483" lon="13.07586"><ele>116.75</ele><time>2026-04-25T07:13:24.944Z</time></trkpt><trkpt lat="43.5495" lon="13.0756917"><ele>117.5</ele><time>2026-04-25T07:13:25.94Z</time></trkpt><trkpt lat="43.549435" lon="13.0755317"><ele>118.25</ele><time>2026-04-25T07:13:26.946Z</time></trkpt><trkpt lat="43.5493567" lon="13.0753833"><ele>119.0</ele><time>2026-04-25T07:13:27.951Z</time></trkpt><trkpt lat="43.5492667" lon="13.075245"><ele>119.0</ele><time>2026-04-25T07:13:29.001Z</time></trkpt><trkpt lat="43.5491717" lon="13.07511"><ele>119.0</ele><time>2026-04-25T07:13:29.939Z</time></trkpt><trkpt lat="43.5490683" lon="13.0749783"><ele>119.0</ele><time>2026-04-25T07:13:30.944Z</time></trkpt><trkpt lat="43.5489683" lon="13.0748467"><ele>119.0</ele><time>2026-04-25T07:13:31.943Z</time></trkpt><trkpt lat="43.548865" lon="13.07473"><ele>120.2</ele><time>2026-04-25T07:13:32.944Z</time></trkpt><trkpt lat="43.5487683" lon="13.0746217"><ele>121.4</ele><time>2026-04-25T07:13:33.949Z</time></trkpt><trkpt lat="43.5486833" lon="13.074525"><ele>122.6</ele><time>2026-04-25T07:13:35.001Z</time></trkpt><trkpt lat="43.54861" lon="13.0744283"><ele>123.8</ele><time>2026-04-25T07:13:35.94Z</time></trkpt><trkpt lat="43.54855" lon="13.0743417"><ele>125.0</ele><time>2026-04-25T07:13:36.943Z</time></trkpt><trkpt lat="43.5485183" lon="13.0742583"><ele>125.0</ele><time>2026-04-25T07:13:37.946Z</time></trkpt><trkpt lat="43.548555" lon="13.07411"><ele>125.0</ele><time>2026-04-25T07:13:39.946Z</time></trkpt><trkpt lat="43.5486183" lon="13.0740317"><ele>125.0</ele><time>2026-04-25T07:13:40.994Z</time></trkpt><trkpt lat="43.5486933" lon="13.0739417"><ele>125.0</ele><time>2026-04-25T07:13:41.938Z</time></trkpt><trkpt lat="43.54878" lon="13.0738283"><ele>125.0</ele><time>2026-04-25T07:13:42.946Z</time></trkpt><trkpt lat="43.548865" lon="13.0737"><ele>127.75</ele><time>2026-04-25T07:13:43.942Z</time></trkpt><trkpt lat="43.5489517" lon="13.0735567"><ele>130.5</ele><time>2026-04-25T07:13:44.944Z</time></trkpt><trkpt lat="43.5490317" lon="13.0734067"><ele>133.25</ele><time>2026-04-25T07:13:45.946Z</time></trkpt><trkpt lat="43.54911" lon="13.07325"><ele>136.0</ele><time>2026-04-25T07:13:47Z</time></trkpt><trkpt lat="43.5491867" lon="13.0730917"><ele>137.25</ele><time>2026-04-25T07:13:47.945Z</time></trkpt><trkpt lat="43.5492583" lon="13.0729333"><ele>138.5</ele><time>2026-04-25T07:13:48.948Z</time></trkpt><trkpt lat="43.54933" lon="13.0727733"><ele>139.75</ele><time>2026-04-25T07:13:49.948Z</time></trkpt><trkpt lat="43.5494" lon="13.0726083"><ele>141.0</ele><time>2026-04-25T07:13:50.944Z</time></trkpt><trkpt lat="43.549465" lon="13.0724417"><ele>141.75</ele><time>2026-04-25T07:13:51.942Z</time></trkpt><trkpt lat="43.5495233" lon="13.0722733"><ele>142.5</ele><time>2026-04-25T07:13:53.011Z</time></trkpt><trkpt lat="43.5495667" lon="13.0720983"><ele>143.25</ele><time>2026-04-25T07:13:53.944Z</time></trkpt><trkpt lat="43.5496067" lon="13.0719117"><ele>144.0</ele><time>2026-04-25T07:13:54.944Z</time></trkpt><trkpt lat="43.5496417" lon="13.0717217"><ele>148.0</ele><time>2026-04-25T07:13:55.944Z</time></trkpt><trkpt lat="43.5496883" lon="13.0715417"><ele>152.0</ele><time>2026-04-25T07:13:56.944Z</time></trkpt><trkpt lat="43.54975" lon="13.071375"><ele>156.0</ele><time>2026-04-25T07:13:57.948Z</time></trkpt><trkpt lat="43.5498283" lon="13.071205"><ele>160.0</ele><time>2026-04-25T07:13:59.003Z</time></trkpt><trkpt lat="43.5499183" lon="13.071065"><ele>160.0</ele><time>2026-04-25T07:13:59.94Z</time></trkpt><trkpt lat="43.5499983" lon="13.070935"><ele>160.0</ele><time>2026-04-25T07:14:00.95Z</time></trkpt><trkpt lat="43.5500583" lon="13.0708133"><ele>160.0</ele><time>2026-04-25T07:14:01.946Z</time></trkpt><trkpt lat="43.5500983" lon="13.0706917"><ele>160.0</ele><time>2026-04-25T07:14:02.947Z</time></trkpt><trkpt lat="43.5500867" lon="13.0705533"><ele>160.0</ele><time>2026-04-25T07:14:03.94Z</time></trkpt><trkpt lat="43.5500583" lon="13.0704083"><ele>159.75</ele><time>2026-04-25T07:14:05.003Z</time></trkpt><trkpt lat="43.550015" lon="13.070245"><ele>159.5</ele><time>2026-04-25T07:14:05.946Z</time></trkpt><trkpt lat="43.5499667" lon="13.0700683"><ele>159.25</ele><time>2026-04-25T07:14:06.947Z</time></trkpt><trkpt lat="43.5499183" lon="13.069865"><ele>159.0</ele><time>2026-04-25T07:14:07.944Z</time></trkpt><trkpt lat="43.5498733" lon="13.069655"><ele>159.0</ele><time>2026-04-25T07:14:08.949Z</time></trkpt><trkpt lat="43.54983" lon="13.069445"><ele>159.0</ele><time>2026-04-25T07:14:09.94Z</time></trkpt><trkpt lat="43.5497933" lon="13.0692317"><ele>159.0</ele><time>2026-04-25T07:14:10.997Z</time></trkpt><trkpt lat="43.5497583" lon="13.0690167"><ele>157.0</ele><time>2026-04-25T07:14:11.94Z</time></trkpt><trkpt lat="43.5497233" lon="13.0687983"><ele>155.0</ele><time>2026-04-25T07:14:12.945Z</time></trkpt><trkpt lat="43.549685" lon="13.06858"><ele>153.0</ele><time>2026-04-25T07:14:13.949Z</time></trkpt><trkpt lat="43.5496467" lon="13.068365"><ele>152.75</ele><time>2026-04-25T07:14:14.947Z</time></trkpt><trkpt lat="43.549605" lon="13.06816"><ele>152.5</ele><time>2026-04-25T07:14:15.947Z</time></trkpt><trkpt lat="43.54957" lon="13.0679667"><ele>152.25</ele><time>2026-04-25T07:14:17.003Z</time></trkpt><trkpt lat="43.5495433" lon="13.0677667"><ele>152.0</ele><time>2026-04-25T07:14:17.944Z</time></trkpt><trkpt lat="43.5495283" lon="13.0675567"><ele>153.0</ele><time>2026-04-25T07:14:18.938Z</time></trkpt><trkpt lat="43.5495267" lon="13.06733"><ele>154.0</ele><time>2026-04-25T07:14:19.942Z</time></trkpt><trkpt lat="43.54954" lon="13.0670917"><ele>155.0</ele><time>2026-04-25T07:14:20.943Z</time></trkpt><trkpt lat="43.54956" lon="13.0668533"><ele>155.0</ele><time>2026-04-25T07:14:21.944Z</time></trkpt><trkpt lat="43.5495833" lon="13.0666117"><ele>155.0</ele><time>2026-04-25T07:14:23.008Z</time></trkpt><trkpt lat="43.5496117" lon="13.0663767"><ele>155.0</ele><time>2026-04-25T07:14:23.94Z</time></trkpt><trkpt lat="43.5496417" lon="13.066145"><ele>156.33333333333331</ele><time>2026-04-25T07:14:24.942Z</time></trkpt><trkpt lat="43.5496733" lon="13.065915"><ele>157.66666666666666</ele><time>2026-04-25T07:14:25.945Z</time></trkpt><trkpt lat="43.5497" lon="13.0656933"><ele>159.0</ele><time>2026-04-25T07:14:26.951Z</time></trkpt><trkpt lat="43.5497267" lon="13.065475"><ele>162.0</ele><time>2026-04-25T07:14:27.934Z</time></trkpt><trkpt lat="43.549755" lon="13.0652667"><ele>165.0</ele><time>2026-04-25T07:14:29.007Z</time></trkpt><trkpt lat="43.5497917" lon="13.0650633"><ele>168.0</ele><time>2026-04-25T07:14:29.938Z</time></trkpt><trkpt lat="43.5498467" lon="13.064865"><ele>170.25</ele><time>2026-04-25T07:14:30.943Z</time></trkpt><trkpt lat="43.5499183" lon="13.0646783"><ele>172.5</ele><time>2026-04-25T07:14:31.942Z</time></trkpt><trkpt lat="43.5499983" lon="13.0645"><ele>174.75</ele><time>2026-04-25T07:14:32.941Z</time></trkpt><trkpt lat="43.5500767" lon="13.064335"><ele>177.0</ele><time>2026-04-25T07:14:33.944Z</time></trkpt><trkpt lat="43.5501483" lon="13.0641733"><ele>178.5</ele><time>2026-04-25T07:14:34.99Z</time></trkpt><trkpt lat="43.550205" lon="13.064015"><ele>180.0</ele><time>2026-04-25T07:14:35.937Z</time></trkpt><trkpt lat="43.5502467" lon="13.06386"><ele>181.5</ele><time>2026-04-25T07:14:36.942Z</time></trkpt><trkpt lat="43.5502717" lon="13.0636983"><ele>183.0</ele><time>2026-04-25T07:14:37.94Z</time></trkpt><trkpt lat="43.550275" lon="13.063525"><ele>183.0</ele><time>2026-04-25T07:14:38.951Z</time></trkpt><trkpt lat="43.550265" lon="13.0633583"><ele>183.0</ele><time>2026-04-25T07:14:39.939Z</time></trkpt><trkpt lat="43.550245" lon="13.0632033"><ele>183.0</ele><time>2026-04-25T07:14:40.996Z</time></trkpt><trkpt lat="43.5502217" lon="13.0630617"><ele>183.0</ele><time>2026-04-25T07:14:41.941Z</time></trkpt><trkpt lat="43.5502" lon="13.0629417"><ele>183.0</ele><time>2026-04-25T07:14:42.941Z</time></trkpt><trkpt lat="43.55017" lon="13.06285"><ele>182.4</ele><time>2026-04-25T07:14:43.941Z</time></trkpt><trkpt lat="43.550125" lon="13.0627667"><ele>181.8</ele><time>2026-04-25T07:14:44.946Z</time></trkpt><trkpt lat="43.5500533" lon="13.0626883"><ele>181.2</ele><time>2026-04-25T07:14:45.942Z</time></trkpt><trkpt lat="43.549955" lon="13.0626167"><ele>180.6</ele><time>2026-04-25T07:14:46.994Z</time></trkpt><trkpt lat="43.5498433" lon="13.06255"><ele>180.0</ele><time>2026-04-25T07:14:47.94Z</time></trkpt><trkpt lat="43.5497167" lon="13.0624733"><ele>177.75</ele><time>2026-04-25T07:14:48.946Z</time></trkpt><trkpt lat="43.5495817" lon="13.0624"><ele>175.5</ele><time>2026-04-25T07:14:49.936Z</time></trkpt><trkpt lat="43.5494533" lon="13.062325"><ele>173.25</ele><time>2026-04-25T07:14:50.95Z</time></trkpt><trkpt lat="43.5493317" lon="13.0622533"><ele>171.0</ele><time>2026-04-25T07:14:51.94Z</time></trkpt><trkpt lat="43.549215" lon="13.0621967"><ele>171.0</ele><time>2026-04-25T07:14:53.013Z</time></trkpt><trkpt lat="43.5491017" lon="13.062155"><ele>171.0</ele><time>2026-04-25T07:14:53.942Z</time></trkpt><trkpt lat="43.5489883" lon="13.0621233"><ele>171.0</ele><time>2026-04-25T07:14:54.947Z</time></trkpt><trkpt lat="43.54887" lon="13.062095"><ele>171.0</ele><time>2026-04-25T07:14:55.939Z</time></trkpt><trkpt lat="43.548745" lon="13.062075"><ele>172.75</ele><time>2026-04-25T07:14:56.943Z</time></trkpt><trkpt lat="43.5486183" lon="13.0620617"><ele>174.5</ele><time>2026-04-25T07:14:57.943Z</time></trkpt><trkpt lat="43.5484967" lon="13.0620483"><ele>176.25</ele><time>2026-04-25T07:14:58.995Z</time></trkpt><trkpt lat="43.5483733" lon="13.0620333"><ele>178.0</ele><time>2026-04-25T07:14:59.935Z</time></trkpt><trkpt lat="43.5482533" lon="13.0620083"><ele>178.0</ele><time>2026-04-25T07:15:00.947Z</time></trkpt><trkpt lat="43.5481383" lon="13.061995"><ele>178.0</ele><time>2026-04-25T07:15:01.94Z</time></trkpt><trkpt lat="43.54802" lon="13.061995"><ele>178.0</ele><time>2026-04-25T07:15:02.944Z</time></trkpt><trkpt lat="43.5478967" lon="13.06201"><ele>178.0</ele><time>2026-04-25T07:15:03.945Z</time></trkpt><trkpt lat="43.54777" lon="13.062045"><ele>178.4</ele><time>2026-04-25T07:15:04.985Z</time></trkpt><trkpt lat="43.5476567" lon="13.0620783"><ele>178.8</ele><time>2026-04-25T07:15:05.939Z</time></trkpt><trkpt lat="43.547555" lon="13.0620967"><ele>179.2</ele><time>2026-04-25T07:15:06.943Z</time></trkpt><trkpt lat="43.547465" lon="13.0620933"><ele>179.6</ele><time>2026-04-25T07:15:07.944Z</time></trkpt><trkpt lat="43.5473717" lon="13.0620633"><ele>180.0</ele><time>2026-04-25T07:15:08.945Z</time></trkpt><trkpt lat="43.5472717" lon="13.0620133"><ele>180.0</ele><time>2026-04-25T07:15:09.937Z</time></trkpt><trkpt lat="43.54716" lon="13.06195"><ele>180.0</ele><time>2026-04-25T07:15:10.99Z</time></trkpt><trkpt lat="43.5470683" lon="13.061835"><ele>180.0</ele><time>2026-04-25T07:15:11.94Z</time></trkpt><trkpt lat="43.5469617" lon="13.0617233"><ele>180.0</ele><time>2026-04-25T07:15:12.945Z</time></trkpt><trkpt lat="43.5468467" lon="13.0616183"><ele>180.25</ele><time>2026-04-25T07:15:13.943Z</time></trkpt><trkpt lat="43.54673" lon="13.0615183"><ele>180.5</ele><time>2026-04-25T07:15:14.944Z</time></trkpt><trkpt lat="43.546605" lon="13.0614283"><ele>180.75</ele><time>2026-04-25T07:15:15.942Z</time></trkpt><trkpt lat="43.54648" lon="13.0613367"><ele>181.0</ele><time>2026-04-25T07:15:16.991Z</time></trkpt><trkpt lat="43.5463567" lon="13.061245"><ele>181.0</ele><time>2026-04-25T07:15:17.942Z</time></trkpt><trkpt lat="43.5462433" lon="13.0611533"><ele>181.0</ele><time>2026-04-25T07:15:18.944Z</time></trkpt><trkpt lat="43.5461417" lon="13.061055"><ele>181.0</ele><time>2026-04-25T07:15:19.943Z</time></trkpt><trkpt lat="43.5460517" lon="13.060945"><ele>181.0</ele><time>2026-04-25T07:15:20.948Z</time></trkpt><trkpt lat="43.54598" lon="13.060815"><ele>184.0</ele><time>2026-04-25T07:15:21.945Z</time></trkpt><trkpt lat="43.5459283" lon="13.06066"><ele>187.0</ele><time>2026-04-25T07:15:23.013Z</time></trkpt><trkpt lat="43.545895" lon="13.060485"><ele>190.0</ele><time>2026-04-25T07:15:23.944Z</time></trkpt><trkpt lat="43.5458683" lon="13.0603033"><ele>193.0</ele><time>2026-04-25T07:15:24.949Z</time></trkpt><trkpt lat="43.54584" lon="13.06012"><ele>193.5</ele><time>2026-04-25T07:15:25.947Z</time></trkpt><trkpt lat="43.54581" lon="13.0599283"><ele>194.0</ele><time>2026-04-25T07:15:26.954Z</time></trkpt><trkpt lat="43.5457667" lon="13.0597417"><ele>194.5</ele><time>2026-04-25T07:15:27.946Z</time></trkpt><trkpt lat="43.545715" lon="13.0595667"><ele>195.0</ele><time>2026-04-25T07:15:29.012Z</time></trkpt><trkpt lat="43.5456467" lon="13.05941"><ele>195.0</ele><time>2026-04-25T07:15:29.94Z</time></trkpt><trkpt lat="43.5455617" lon="13.059255"><ele>195.0</ele><time>2026-04-25T07:15:30.945Z</time></trkpt><trkpt lat="43.5454683" lon="13.0591033"><ele>195.0</ele><time>2026-04-25T07:15:31.949Z</time></trkpt><trkpt lat="43.5453633" lon="13.05896"><ele>195.0</ele><time>2026-04-25T07:15:32.946Z</time></trkpt><trkpt lat="43.54525" lon="13.0588183"><ele>199.0</ele><time>2026-04-25T07:15:33.948Z</time></trkpt><trkpt lat="43.5451433" lon="13.05868"><ele>203.0</ele><time>2026-04-25T07:15:34.995Z</time></trkpt><trkpt lat="43.5450333" lon="13.0585483"><ele>207.0</ele><time>2026-04-25T07:15:35.946Z</time></trkpt><trkpt lat="43.54492" lon="13.058425"><ele>211.0</ele><time>2026-04-25T07:15:36.945Z</time></trkpt><trkpt lat="43.5448017" lon="13.0583183"><ele>211.75</ele><time>2026-04-25T07:15:37.937Z</time></trkpt><trkpt lat="43.5446817" lon="13.0582283"><ele>212.5</ele><time>2026-04-25T07:15:38.937Z</time></trkpt><trkpt lat="43.5445558" lon="13.0581505"><ele>213.25</ele><time>2026-04-25T07:15:39.941Z</time></trkpt><trkpt lat="43.5444284" lon="13.05808"><ele>214.0</ele><time>2026-04-25T07:15:41.001Z</time></trkpt><trkpt lat="43.544306" lon="13.0580241"><ele>218.0</ele><time>2026-04-25T07:15:41.94Z</time></trkpt><trkpt lat="43.5441775" lon="13.0579722"><ele>222.0</ele><time>2026-04-25T07:15:42.95Z</time></trkpt><trkpt lat="43.5440522" lon="13.0579295"><ele>226.0</ele><time>2026-04-25T07:15:43.938Z</time></trkpt><trkpt lat="43.5439266" lon="13.0578756"><ele>230.0</ele><time>2026-04-25T07:15:44.944Z</time></trkpt><trkpt lat="43.5438047" lon="13.0578119"><ele>232.25</ele><time>2026-04-25T07:15:45.944Z</time></trkpt><trkpt lat="43.5436871" lon="13.0577301"><ele>234.5</ele><time>2026-04-25T07:15:46.994Z</time></trkpt><trkpt lat="43.5435785" lon="13.0576489"><ele>236.75</ele><time>2026-04-25T07:15:47.942Z</time></trkpt><trkpt lat="43.5434803" lon="13.0575592"><ele>239.0</ele><time>2026-04-25T07:15:48.943Z</time></trkpt><trkpt lat="43.5433988" lon="13.0574631"><ele>240.25</ele><time>2026-04-25T07:15:49.94Z</time></trkpt><trkpt lat="43.5433327" lon="13.0573438"><ele>241.5</ele><time>2026-04-25T07:15:50.945Z</time></trkpt><trkpt lat="43.5432793" lon="13.0572003"><ele>242.75</ele><time>2026-04-25T07:15:51.945Z</time></trkpt><trkpt lat="43.5432255" lon="13.0570303"><ele>244.0</ele><time>2026-04-25T07:15:53.002Z</time></trkpt><trkpt lat="43.5431712" lon="13.0568572"><ele>244.0</ele><time>2026-04-25T07:15:53.939Z</time></trkpt><trkpt lat="43.5431172" lon="13.0566921"><ele>243.99999999999997</ele><time>2026-04-25T07:15:54.943Z</time></trkpt><trkpt lat="43.5430757" lon="13.056545"><ele>243.99999999999997</ele><time>2026-04-25T07:15:55.945Z</time></trkpt><trkpt lat="43.5430562" lon="13.0564126"><ele>244.0</ele><time>2026-04-25T07:15:56.946Z</time></trkpt><trkpt lat="43.5430583" lon="13.0562809"><ele>244.0</ele><time>2026-04-25T07:15:57.944Z</time></trkpt><trkpt lat="43.5430877" lon="13.0561349"><ele>245.25</ele><time>2026-04-25T07:15:59.005Z</time></trkpt><trkpt lat="43.5431299" lon="13.0559816"><ele>246.5</ele><time>2026-04-25T07:15:59.946Z</time></trkpt><trkpt lat="43.5431752" lon="13.0558078"><ele>247.75</ele><time>2026-04-25T07:16:00.945Z</time></trkpt><trkpt lat="43.5432101" lon="13.0556283"><ele>249.0</ele><time>2026-04-25T07:16:01.947Z</time></trkpt><trkpt lat="43.5432165" lon="13.0554473"><ele>249.75</ele><time>2026-04-25T07:16:02.943Z</time></trkpt><trkpt lat="43.5432054" lon="13.0552575"><ele>250.5</ele><time>2026-04-25T07:16:03.948Z</time></trkpt><trkpt lat="43.5431954" lon="13.0550617"><ele>251.25</ele><time>2026-04-25T07:16:04.995Z</time></trkpt><trkpt lat="43.5431915" lon="13.0548886"><ele>252.0</ele><time>2026-04-25T07:16:05.944Z</time></trkpt><trkpt lat="43.5432049" lon="13.0547221"><ele>253.5</ele><time>2026-04-25T07:16:06.945Z</time></trkpt><trkpt lat="43.5432456" lon="13.0545818"><ele>255.0</ele><time>2026-04-25T07:16:07.953Z</time></trkpt><trkpt lat="43.543318" lon="13.054451"><ele>256.5</ele><time>2026-04-25T07:16:08.947Z</time></trkpt><trkpt lat="43.5434417" lon="13.05433"><ele>258.0</ele><time>2026-04-25T07:16:09.944Z</time></trkpt><trkpt lat="43.5435667" lon="13.0541983"><ele>257.25</ele><time>2026-04-25T07:16:10.992Z</time></trkpt><trkpt lat="43.5436933" lon="13.0540733"><ele>256.5</ele><time>2026-04-25T07:16:11.943Z</time></trkpt><trkpt lat="43.5438217" lon="13.0539483"><ele>255.75</ele><time>2026-04-25T07:16:12.943Z</time></trkpt><trkpt lat="43.5439333" lon="13.0538433"><ele>255.0</ele><time>2026-04-25T07:16:13.942Z</time></trkpt><trkpt lat="43.5440183" lon="13.0537283"><ele>255.0</ele><time>2026-04-25T07:16:14.949Z</time></trkpt><trkpt lat="43.5440817" lon="13.0535967"><ele>255.0</ele><time>2026-04-25T07:16:15.943Z</time></trkpt><trkpt lat="43.5441267" lon="13.05344"><ele>255.0</ele><time>2026-04-25T07:16:16.989Z</time></trkpt><trkpt lat="43.5441517" lon="13.0532583"><ele>255.0</ele><time>2026-04-25T07:16:17.941Z</time></trkpt><trkpt lat="43.544155" lon="13.053045"><ele>256.75</ele><time>2026-04-25T07:16:18.947Z</time></trkpt><trkpt lat="43.5441783" lon="13.05288"><ele>258.5</ele><time>2026-04-25T07:16:19.944Z</time></trkpt><trkpt lat="43.5442133" lon="13.0527167"><ele>260.25</ele><time>2026-04-25T07:16:20.946Z</time></trkpt><trkpt lat="43.5442567" lon="13.052565"><ele>262.0</ele><time>2026-04-25T07:16:21.944Z</time></trkpt><trkpt lat="43.5443067" lon="13.052465"><ele>263.4</ele><time>2026-04-25T07:16:23.003Z</time></trkpt><trkpt lat="43.54435" lon="13.0523417"><ele>264.79999999999995</ele><time>2026-04-25T07:16:23.945Z</time></trkpt><trkpt lat="43.5443483" lon="13.052205"><ele>266.2</ele><time>2026-04-25T07:16:24.941Z</time></trkpt><trkpt lat="43.5443317" lon="13.0520717"><ele>267.59999999999997</ele><time>2026-04-25T07:16:25.948Z</time></trkpt><trkpt lat="43.5442833" lon="13.051945"><ele>269.0</ele><time>2026-04-25T07:16:26.947Z</time></trkpt><trkpt lat="43.5442083" lon="13.05183"><ele>269.0</ele><time>2026-04-25T07:16:27.939Z</time></trkpt><trkpt lat="43.5441033" lon="13.0517333"><ele>269.0</ele><time>2026-04-25T07:16:29.002Z</time></trkpt><trkpt lat="43.5439917" lon="13.0516417"><ele>269.0</ele><time>2026-04-25T07:16:29.942Z</time></trkpt><trkpt lat="43.5438833" lon="13.0515683"><ele>269.0</ele><time>2026-04-25T07:16:30.943Z</time></trkpt><trkpt lat="43.5437883" lon="13.0514933"><ele>273.59999999999997</ele><time>2026-04-25T07:16:31.943Z</time></trkpt><trkpt lat="43.543705" lon="13.0514117"><ele>278.2</ele><time>2026-04-25T07:16:32.95Z</time></trkpt><trkpt lat="43.54368" lon="13.0513017"><ele>282.79999999999995</ele><time>2026-04-25T07:16:33.941Z</time></trkpt><trkpt lat="43.543665" lon="13.0511917"><ele>287.4</ele><time>2026-04-25T07:16:34.991Z</time></trkpt><trkpt lat="43.5436633" lon="13.0510833"><ele>292.0</ele><time>2026-04-25T07:16:35.937Z</time></trkpt><trkpt lat="43.5436817" lon="13.05093"><ele>293.0</ele><time>2026-04-25T07:16:36.94Z</time></trkpt><trkpt lat="43.543695" lon="13.0507533"><ele>294.0</ele><time>2026-04-25T07:16:37.944Z</time></trkpt><trkpt lat="43.54371" lon="13.050555"><ele>295.0</ele><time>2026-04-25T07:16:38.938Z</time></trkpt><trkpt lat="43.5437217" lon="13.0503567"><ele>296.0</ele><time>2026-04-25T07:16:39.945Z</time></trkpt><trkpt lat="43.543725" lon="13.05017"><ele>295.8</ele><time>2026-04-25T07:16:40.983Z</time></trkpt><trkpt lat="43.5437267" lon="13.05"><ele>295.6</ele><time>2026-04-25T07:16:41.941Z</time></trkpt><trkpt lat="43.5437217" lon="13.0498417"><ele>295.4</ele><time>2026-04-25T07:16:42.945Z</time></trkpt><trkpt lat="43.543715" lon="13.0497"><ele>295.2</ele><time>2026-04-25T07:16:43.94Z</time></trkpt><trkpt lat="43.5437033" lon="13.0495967"><ele>295.0</ele><time>2026-04-25T07:16:44.947Z</time></trkpt><trkpt lat="43.54365" lon="13.0494933"><ele>295.0</ele><time>2026-04-25T07:16:46.989Z</time></trkpt><trkpt lat="43.5435383" lon="13.0494733"><ele>295.0</ele><time>2026-04-25T07:16:48.946Z</time></trkpt><trkpt lat="43.5434683" lon="13.0495033"><ele>295.0</ele><time>2026-04-25T07:16:49.944Z</time></trkpt><trkpt lat="43.5433917" lon="13.0495567"><ele>295.0</ele><time>2026-04-25T07:16:50.941Z</time></trkpt><trkpt lat="43.5432983" lon="13.04963"><ele>295.0</ele><time>2026-04-25T07:16:51.944Z</time></trkpt><trkpt lat="43.5431933" lon="13.0497183"><ele>295.0</ele><time>2026-04-25T07:16:52.963Z</time></trkpt><trkpt lat="43.5430917" lon="13.0498017"><ele>295.0</ele><time>2026-04-25T07:16:53.933Z</time></trkpt><trkpt lat="43.5429933" lon="13.0498867"><ele>295.0</ele><time>2026-04-25T07:16:54.94Z</time></trkpt><trkpt lat="43.5428933" lon="13.0499733"><ele>295.0</ele><time>2026-04-25T07:16:55.943Z</time></trkpt><trkpt lat="43.54279" lon="13.050055"><ele>297.0</ele><time>2026-04-25T07:16:56.939Z</time></trkpt><trkpt lat="43.5426917" lon="13.0501333"><ele>299.0</ele><time>2026-04-25T07:16:57.938Z</time></trkpt><trkpt lat="43.5425983" lon="13.0502067"><ele>301.0</ele><time>2026-04-25T07:16:58.97Z</time></trkpt><trkpt lat="43.542515" lon="13.0502783"><ele>303.0</ele><time>2026-04-25T07:16:59.936Z</time></trkpt><trkpt lat="43.5424433" lon="13.0503467"><ele>305.0</ele><time>2026-04-25T07:17:00.938Z</time></trkpt><trkpt lat="43.5423767" lon="13.0503967"><ele>305.0</ele><time>2026-04-25T07:17:01.943Z</time></trkpt><trkpt lat="43.5423117" lon="13.0504283"><ele>305.0</ele><time>2026-04-25T07:17:02.938Z</time></trkpt><trkpt lat="43.54222" lon="13.0503817"><ele>305.0</ele><time>2026-04-25T07:17:04.999Z</time></trkpt><trkpt lat="43.5422033" lon="13.05029"><ele>305.0</ele><time>2026-04-25T07:17:05.943Z</time></trkpt><trkpt lat="43.5422117" lon="13.0501367"><ele>305.0</ele><time>2026-04-25T07:17:06.944Z</time></trkpt><trkpt lat="43.5422117" lon="13.0499783"><ele>304.75</ele><time>2026-04-25T07:17:07.942Z</time></trkpt><trkpt lat="43.542205" lon="13.0498133"><ele>304.5</ele><time>2026-04-25T07:17:08.944Z</time></trkpt><trkpt lat="43.54219" lon="13.0496433"><ele>304.25</ele><time>2026-04-25T07:17:09.946Z</time></trkpt><trkpt lat="43.5421733" lon="13.0494683"><ele>304.0</ele><time>2026-04-25T07:17:10.991Z</time></trkpt><trkpt lat="43.5421483" lon="13.0493"><ele>304.0</ele><time>2026-04-25T07:17:11.942Z</time></trkpt><trkpt lat="43.542125" lon="13.04914"><ele>304.0</ele><time>2026-04-25T07:17:12.946Z</time></trkpt><trkpt lat="43.5421017" lon="13.04898"><ele>304.0</ele><time>2026-04-25T07:17:13.944Z</time></trkpt><trkpt lat="43.54208" lon="13.04882"><ele>304.0</ele><time>2026-04-25T07:17:14.947Z</time></trkpt><trkpt lat="43.5420567" lon="13.048665"><ele>302.4</ele><time>2026-04-25T07:17:15.943Z</time></trkpt><trkpt lat="43.5420333" lon="13.0485167"><ele>300.79999999999995</ele><time>2026-04-25T07:17:16.992Z</time></trkpt><trkpt lat="43.5420117" lon="13.0483717"><ele>299.20000000000005</ele><time>2026-04-25T07:17:17.942Z</time></trkpt><trkpt lat="43.5419917" lon="13.048225"><ele>297.6</ele><time>2026-04-25T07:17:18.945Z</time></trkpt><trkpt lat="43.54197" lon="13.04808"><ele>296.0</ele><time>2026-04-25T07:17:19.944Z</time></trkpt><trkpt lat="43.5419433" lon="13.0479383"><ele>295.6</ele><time>2026-04-25T07:17:20.947Z</time></trkpt><trkpt lat="43.5419183" lon="13.0478"><ele>295.20000000000005</ele><time>2026-04-25T07:17:21.94Z</time></trkpt><trkpt lat="43.5418933" lon="13.0476667"><ele>294.79999999999995</ele><time>2026-04-25T07:17:23.011Z</time></trkpt><trkpt lat="43.54187" lon="13.0475367"><ele>294.4</ele><time>2026-04-25T07:17:23.947Z</time></trkpt><trkpt lat="43.5418517" lon="13.04741"><ele>294.0</ele><time>2026-04-25T07:17:24.947Z</time></trkpt><trkpt lat="43.5418333" lon="13.0472867"><ele>293.4</ele><time>2026-04-25T07:17:25.945Z</time></trkpt><trkpt lat="43.5418217" lon="13.0471617"><ele>292.79999999999995</ele><time>2026-04-25T07:17:26.946Z</time></trkpt><trkpt lat="43.5418133" lon="13.04703"><ele>292.20000000000005</ele><time>2026-04-25T07:17:27.946Z</time></trkpt><trkpt lat="43.54182" lon="13.0469033"><ele>291.6</ele><time>2026-04-25T07:17:29.008Z</time></trkpt><trkpt lat="43.5418383" lon="13.0467833"><ele>291.0</ele><time>2026-04-25T07:17:29.94Z</time></trkpt><trkpt lat="43.5418783" lon="13.0466583"><ele>289.40000000000003</ele><time>2026-04-25T07:17:30.945Z</time></trkpt><trkpt lat="43.54193" lon="13.0465333"><ele>287.8</ele><time>2026-04-25T07:17:31.948Z</time></trkpt><trkpt lat="43.5419967" lon="13.04641"><ele>286.20000000000005</ele><time>2026-04-25T07:17:32.945Z</time></trkpt><trkpt lat="43.54206" lon="13.046285"><ele>284.6</ele><time>2026-04-25T07:17:33.945Z</time></trkpt><trkpt lat="43.54212" lon="13.04615"><ele>283.0</ele><time>2026-04-25T07:17:35.002Z</time></trkpt><trkpt lat="43.54217" lon="13.046005"><ele>281.75</ele><time>2026-04-25T07:17:35.95Z</time></trkpt><trkpt lat="43.542215" lon="13.04585"><ele>280.5</ele><time>2026-04-25T07:17:36.944Z</time></trkpt><trkpt lat="43.542255" lon="13.0456867"><ele>279.25</ele><time>2026-04-25T07:17:37.938Z</time></trkpt><trkpt lat="43.5422783" lon="13.0455117"><ele>278.0</ele><time>2026-04-25T07:17:38.948Z</time></trkpt><trkpt lat="43.5422867" lon="13.0453217"><ele>275.0</ele><time>2026-04-25T07:17:39.946Z</time></trkpt><trkpt lat="43.5422833" lon="13.045125"><ele>272.0</ele><time>2026-04-25T07:17:40.984Z</time></trkpt><trkpt lat="43.5422767" lon="13.0449283"><ele>269.0</ele><time>2026-04-25T07:17:41.936Z</time></trkpt><trkpt lat="43.5422683" lon="13.0447317"><ele>266.0</ele><time>2026-04-25T07:17:42.942Z</time></trkpt><trkpt lat="43.54226" lon="13.044535"><ele>264.25</ele><time>2026-04-25T07:17:43.944Z</time></trkpt><trkpt lat="43.54225" lon="13.044335"><ele>262.5</ele><time>2026-04-25T07:17:44.95Z</time></trkpt><trkpt lat="43.5422467" lon="13.0441367"><ele>260.75</ele><time>2026-04-25T07:17:45.945Z</time></trkpt><trkpt lat="43.542245" lon="13.0439433"><ele>259.0</ele><time>2026-04-25T07:17:46.994Z</time></trkpt><trkpt lat="43.5422433" lon="13.0437583"><ele>256.75</ele><time>2026-04-25T07:17:47.945Z</time></trkpt><trkpt lat="43.5422367" lon="13.04358"><ele>254.5</ele><time>2026-04-25T07:17:48.944Z</time></trkpt><trkpt lat="43.5422183" lon="13.04341"><ele>252.25</ele><time>2026-04-25T07:17:49.945Z</time></trkpt><trkpt lat="43.54219" lon="13.0432417"><ele>250.0</ele><time>2026-04-25T07:17:50.944Z</time></trkpt><trkpt lat="43.5421567" lon="13.043075"><ele>248.5</ele><time>2026-04-25T07:17:51.94Z</time></trkpt><trkpt lat="43.5421167" lon="13.04292"><ele>247.0</ele><time>2026-04-25T07:17:53.003Z</time></trkpt><trkpt lat="43.5420733" lon="13.0427783"><ele>245.5</ele><time>2026-04-25T07:17:53.941Z</time></trkpt><trkpt lat="43.54202" lon="13.042635"><ele>244.0</ele><time>2026-04-25T07:17:54.943Z</time></trkpt><trkpt lat="43.54197" lon="13.0424933"><ele>241.0</ele><time>2026-04-25T07:17:55.945Z</time></trkpt><trkpt lat="43.5419133" lon="13.0423517"><ele>238.0</ele><time>2026-04-25T07:17:56.941Z</time></trkpt><trkpt lat="43.5418567" lon="13.0422083"><ele>235.0</ele><time>2026-04-25T07:17:57.945Z</time></trkpt><trkpt lat="43.5417967" lon="13.0420567"><ele>232.0</ele><time>2026-04-25T07:17:58.979Z</time></trkpt><trkpt lat="43.541745" lon="13.0418983"><ele>232.0</ele><time>2026-04-25T07:17:59.941Z</time></trkpt><trkpt lat="43.5416983" lon="13.0417433"><ele>232.0</ele><time>2026-04-25T07:18:00.936Z</time></trkpt><trkpt lat="43.541655" lon="13.0415933"><ele>232.0</ele><time>2026-04-25T07:18:01.947Z</time></trkpt><trkpt lat="43.5416083" lon="13.0414517"><ele>232.0</ele><time>2026-04-25T07:18:02.95Z</time></trkpt><trkpt lat="43.541565" lon="13.0413167"><ele>230.6</ele><time>2026-04-25T07:18:03.943Z</time></trkpt><trkpt lat="43.5415283" lon="13.0411867"><ele>229.2</ele><time>2026-04-25T07:18:04.988Z</time></trkpt><trkpt lat="43.5415" lon="13.0410533"><ele>227.8</ele><time>2026-04-25T07:18:05.939Z</time></trkpt><trkpt lat="43.5414783" lon="13.0409217"><ele>226.4</ele><time>2026-04-25T07:18:06.942Z</time></trkpt><trkpt lat="43.5414617" lon="13.0408"><ele>225.0</ele><time>2026-04-25T07:18:07.95Z</time></trkpt><trkpt lat="43.5414433" lon="13.04067"><ele>222.0</ele><time>2026-04-25T07:18:08.947Z</time></trkpt><trkpt lat="43.5414317" lon="13.0405317"><ele>219.0</ele><time>2026-04-25T07:18:09.947Z</time></trkpt><trkpt lat="43.541405" lon="13.0403383"><ele>216.0</ele><time>2026-04-25T07:18:10.988Z</time></trkpt><trkpt lat="43.54139" lon="13.0401733"><ele>213.0</ele><time>2026-04-25T07:18:11.944Z</time></trkpt><trkpt lat="43.54138" lon="13.040015"><ele>210.25</ele><time>2026-04-25T07:18:12.938Z</time></trkpt><trkpt lat="43.5413733" lon="13.0398517"><ele>207.5</ele><time>2026-04-25T07:18:13.946Z</time></trkpt><trkpt lat="43.541385" lon="13.0396717"><ele>204.75</ele><time>2026-04-25T07:18:14.943Z</time></trkpt><trkpt lat="43.5414083" lon="13.0394867"><ele>202.0</ele><time>2026-04-25T07:18:15.944Z</time></trkpt><trkpt lat="43.5414467" lon="13.0392933"><ele>202.0</ele><time>2026-04-25T07:18:16.99Z</time></trkpt><trkpt lat="43.541495" lon="13.0391083"><ele>202.0</ele><time>2026-04-25T07:18:17.938Z</time></trkpt><trkpt lat="43.5415583" lon="13.038935"><ele>202.0</ele><time>2026-04-25T07:18:18.941Z</time></trkpt><trkpt lat="43.541615" lon="13.0387467"><ele>202.0</ele><time>2026-04-25T07:18:19.939Z</time></trkpt><trkpt lat="43.54167" lon="13.03857"><ele>202.0</ele><time>2026-04-25T07:18:20.946Z</time></trkpt><trkpt lat="43.5417367" lon="13.0384483"><ele>202.0</ele><time>2026-04-25T07:18:21.935Z</time></trkpt><trkpt lat="43.5417867" lon="13.0382967"><ele>202.0</ele><time>2026-04-25T07:18:23.001Z</time></trkpt><trkpt lat="43.5418283" lon="13.0381533"><ele>202.0</ele><time>2026-04-25T07:18:23.943Z</time></trkpt><trkpt lat="43.541855" lon="13.0380067"><ele>201.6</ele><time>2026-04-25T07:18:24.939Z</time></trkpt><trkpt lat="43.541865" lon="13.0378567"><ele>201.2</ele><time>2026-04-25T07:18:25.942Z</time></trkpt><trkpt lat="43.5418583" lon="13.037705"><ele>200.8</ele><time>2026-04-25T07:18:26.941Z</time></trkpt><trkpt lat="43.54184" lon="13.03757"><ele>200.4</ele><time>2026-04-25T07:18:27.941Z</time></trkpt><trkpt lat="43.5418267" lon="13.0374583"><ele>200.0</ele><time>2026-04-25T07:18:28.997Z</time></trkpt><trkpt lat="43.5418283" lon="13.0373517"><ele>200.0</ele><time>2026-04-25T07:18:29.934Z</time></trkpt><trkpt lat="43.5418333" lon="13.0372533"><ele>200.0</ele><time>2026-04-25T07:18:31.94Z</time></trkpt><trkpt lat="43.5417517" lon="13.03721"><ele>200.0</ele><time>2026-04-25T07:18:34.987Z</time></trkpt><trkpt lat="43.541645" lon="13.03722"><ele>200.0</ele><time>2026-04-25T07:18:36.947Z</time></trkpt><trkpt lat="43.54155" lon="13.0372117"><ele>200.0</ele><time>2026-04-25T07:18:38.941Z</time></trkpt><trkpt lat="43.5414583" lon="13.0371667"><ele>200.0</ele><time>2026-04-25T07:18:40.99Z</time></trkpt><trkpt lat="43.5413333" lon="13.0370983"><ele>200.0</ele><time>2026-04-25T07:18:42.944Z</time></trkpt><trkpt lat="43.54125" lon="13.037095"><ele>200.0</ele><time>2026-04-25T07:18:43.948Z</time></trkpt><trkpt lat="43.541155" lon="13.0371067"><ele>200.0</ele><time>2026-04-25T07:18:44.94Z</time></trkpt><trkpt lat="43.5410617" lon="13.0371167"><ele>200.0</ele><time>2026-04-25T07:18:45.933Z</time></trkpt><trkpt lat="43.5409517" lon="13.0371283"><ele>200.0</ele><time>2026-04-25T07:18:46.989Z</time></trkpt><trkpt lat="43.540835" lon="13.037135"><ele>200.0</ele><time>2026-04-25T07:18:47.942Z</time></trkpt><trkpt lat="43.5407267" lon="13.0371183"><ele>200.0</ele><time>2026-04-25T07:18:48.943Z</time></trkpt><trkpt lat="43.5406233" lon="13.0370983"><ele>200.0</ele><time>2026-04-25T07:18:49.937Z</time></trkpt><trkpt lat="43.5405117" lon="13.0370733"><ele>200.0</ele><time>2026-04-25T07:18:50.944Z</time></trkpt><trkpt lat="43.5404" lon="13.0370567"><ele>199.75</ele><time>2026-04-25T07:18:51.936Z</time></trkpt><trkpt lat="43.5402717" lon="13.03703"><ele>199.5</ele><time>2026-04-25T07:18:53.002Z</time></trkpt><trkpt lat="43.5401467" lon="13.03701"><ele>199.25</ele><time>2026-04-25T07:18:53.939Z</time></trkpt><trkpt lat="43.5400233" lon="13.0370033"><ele>199.0</ele><time>2026-04-25T07:18:54.938Z</time></trkpt><trkpt lat="43.5399067" lon="13.0370183"><ele>199.0</ele><time>2026-04-25T07:18:55.942Z</time></trkpt><trkpt lat="43.5397867" lon="13.0370467"><ele>199.0</ele><time>2026-04-25T07:18:56.95Z</time></trkpt><trkpt lat="43.5396733" lon="13.0370817"><ele>199.0</ele><time>2026-04-25T07:18:57.936Z</time></trkpt><trkpt lat="43.5395683" lon="13.03711"><ele>199.0</ele><time>2026-04-25T07:18:59.007Z</time></trkpt><trkpt lat="43.53948" lon="13.0371233"><ele>199.0</ele><time>2026-04-25T07:18:59.942Z</time></trkpt><trkpt lat="43.5393933" lon="13.037115"><ele>197.39999999999998</ele><time>2026-04-25T07:19:00.934Z</time></trkpt><trkpt lat="43.539355" lon="13.037035"><ele>195.8</ele><time>2026-04-25T07:19:01.94Z</time></trkpt><trkpt lat="43.53933" lon="13.0369467"><ele>194.2</ele><time>2026-04-25T07:19:02.94Z</time></trkpt><trkpt lat="43.539355" lon="13.03676"><ele>192.60000000000002</ele><time>2026-04-25T07:19:04.993Z</time></trkpt><trkpt lat="43.5394167" lon="13.0366533"><ele>191.0</ele><time>2026-04-25T07:19:05.946Z</time></trkpt><trkpt lat="43.5395317" lon="13.0365433"><ele>189.66666666666666</ele><time>2026-04-25T07:19:06.944Z</time></trkpt><trkpt lat="43.5396733" lon="13.0364117"><ele>188.33333333333334</ele><time>2026-04-25T07:19:07.941Z</time></trkpt><trkpt lat="43.5398217" lon="13.0363017"><ele>187.0</ele><time>2026-04-25T07:19:08.945Z</time></trkpt><trkpt lat="43.53998" lon="13.0362217"><ele>187.0</ele><time>2026-04-25T07:19:09.941Z</time></trkpt><trkpt lat="43.5401267" lon="13.0361617"><ele>187.0</ele><time>2026-04-25T07:19:10.994Z</time></trkpt><trkpt lat="43.54027" lon="13.0361267"><ele>187.0</ele><time>2026-04-25T07:19:11.943Z</time></trkpt><trkpt lat="43.5404133" lon="13.0361133"><ele>187.0</ele><time>2026-04-25T07:19:12.95Z</time></trkpt><trkpt lat="43.5405617" lon="13.0360983"><ele>185.66666666666669</ele><time>2026-04-25T07:19:13.942Z</time></trkpt><trkpt lat="43.5407083" lon="13.036095"><ele>184.33333333333334</ele><time>2026-04-25T07:19:14.948Z</time></trkpt><trkpt lat="43.5408617" lon="13.0360883"><ele>183.0</ele><time>2026-04-25T07:19:15.946Z</time></trkpt><trkpt lat="43.5410133" lon="13.0360667"><ele>183.0</ele><time>2026-04-25T07:19:16.997Z</time></trkpt><trkpt lat="43.5411733" lon="13.03602"><ele>183.0</ele><time>2026-04-25T07:19:17.942Z</time></trkpt><trkpt lat="43.5413217" lon="13.0359667"><ele>183.0</ele><time>2026-04-25T07:19:18.943Z</time></trkpt><trkpt lat="43.54146" lon="13.0358833"><ele>180.5</ele><time>2026-04-25T07:19:19.946Z</time></trkpt><trkpt lat="43.5415867" lon="13.0357733"><ele>178.0</ele><time>2026-04-25T07:19:20.947Z</time></trkpt><trkpt lat="43.5416983" lon="13.0356417"><ele>175.5</ele><time>2026-04-25T07:19:21.943Z</time></trkpt><trkpt lat="43.5417883" lon="13.0354883"><ele>173.0</ele><time>2026-04-25T07:19:22.978Z</time></trkpt><trkpt lat="43.54188" lon="13.035345"><ele>173.0</ele><time>2026-04-25T07:19:23.942Z</time></trkpt><trkpt lat="43.5419783" lon="13.0352133"><ele>173.0</ele><time>2026-04-25T07:19:24.944Z</time></trkpt><trkpt lat="43.5420683" lon="13.0350767"><ele>173.0</ele><time>2026-04-25T07:19:25.948Z</time></trkpt><trkpt lat="43.54217" lon="13.03497"><ele>173.0</ele><time>2026-04-25T07:19:26.943Z</time></trkpt><trkpt lat="43.5422717" lon="13.03486"><ele>171.2</ele><time>2026-04-25T07:19:27.937Z</time></trkpt><trkpt lat="43.542385" lon="13.0347833"><ele>169.4</ele><time>2026-04-25T07:19:29.002Z</time></trkpt><trkpt lat="43.542495" lon="13.0347233"><ele>167.6</ele><time>2026-04-25T07:19:29.936Z</time></trkpt><trkpt lat="43.5425933" lon="13.0346767"><ele>165.79999999999998</ele><time>2026-04-25T07:19:30.941Z</time></trkpt><trkpt lat="43.54268" lon="13.0346267"><ele>164.0</ele><time>2026-04-25T07:19:31.938Z</time></trkpt><trkpt lat="43.54275" lon="13.034545"><ele>164.0</ele><time>2026-04-25T07:19:32.942Z</time></trkpt><trkpt lat="43.5428017" lon="13.0344533"><ele>164.0</ele><time>2026-04-25T07:19:33.939Z</time></trkpt><trkpt lat="43.54276" lon="13.0343117"><ele>164.0</ele><time>2026-04-25T07:19:34.995Z</time></trkpt><trkpt lat="43.54273" lon="13.03419"><ele>164.0</ele><time>2026-04-25T07:19:35.938Z</time></trkpt><trkpt lat="43.54264" lon="13.0341083"><ele>164.0</ele><time>2026-04-25T07:19:36.942Z</time></trkpt><trkpt lat="43.5425433" lon="13.034045"><ele>162.2</ele><time>2026-04-25T07:19:37.944Z</time></trkpt><trkpt lat="43.542435" lon="13.0340067"><ele>160.39999999999998</ele><time>2026-04-25T07:19:38.944Z</time></trkpt><trkpt lat="43.542325" lon="13.0339983"><ele>158.6</ele><time>2026-04-25T07:19:39.944Z</time></trkpt><trkpt lat="43.5422233" lon="13.034015"><ele>156.8</ele><time>2026-04-25T07:19:40.987Z</time></trkpt><trkpt lat="43.54213" lon="13.0340417"><ele>155.0</ele><time>2026-04-25T07:19:41.941Z</time></trkpt><trkpt lat="43.54204" lon="13.034065"><ele>154.83333333333331</ele><time>2026-04-25T07:19:42.942Z</time></trkpt><trkpt lat="43.5419517" lon="13.0340733"><ele>154.66666666666666</ele><time>2026-04-25T07:19:43.937Z</time></trkpt><trkpt lat="43.5418667" lon="13.0340633"><ele>154.5</ele><time>2026-04-25T07:19:44.941Z</time></trkpt><trkpt lat="43.5417867" lon="13.0340283"><ele>154.33333333333334</ele><time>2026-04-25T07:19:45.944Z</time></trkpt><trkpt lat="43.54171" lon="13.0339717"><ele>154.16666666666669</ele><time>2026-04-25T07:19:46.991Z</time></trkpt><trkpt lat="43.5416417" lon="13.0338967"><ele>154.0</ele><time>2026-04-25T07:19:47.936Z</time></trkpt><trkpt lat="43.541575" lon="13.0338167"><ele>154.0</ele><time>2026-04-25T07:19:48.941Z</time></trkpt><trkpt lat="43.5415233" lon="13.0337283"><ele>154.0</ele><time>2026-04-25T07:19:49.939Z</time></trkpt><trkpt lat="43.541495" lon="13.0336333"><ele>154.0</ele><time>2026-04-25T07:19:50.941Z</time></trkpt><trkpt lat="43.5414867" lon="13.0335333"><ele>154.0</ele><time>2026-04-25T07:19:51.944Z</time></trkpt><trkpt lat="43.5415033" lon="13.033435"><ele>154.0</ele><time>2026-04-25T07:19:53.003Z</time></trkpt><trkpt lat="43.5416083" lon="13.033365"><ele>154.0</ele><time>2026-04-25T07:19:53.934Z</time></trkpt><trkpt lat="43.541705" lon="13.0332917"><ele>153.0</ele><time>2026-04-25T07:19:54.939Z</time></trkpt><trkpt lat="43.5417983" lon="13.0332167"><ele>152.0</ele><time>2026-04-25T07:19:55.937Z</time></trkpt><trkpt lat="43.541895" lon="13.03314"><ele>151.0</ele><time>2026-04-25T07:19:56.944Z</time></trkpt><trkpt lat="43.5419917" lon="13.03306"><ele>150.0</ele><time>2026-04-25T07:19:57.944Z</time></trkpt><trkpt lat="43.542085" lon="13.0329833"><ele>149.0</ele><time>2026-04-25T07:19:59.005Z</time></trkpt><trkpt lat="43.5421833" lon="13.0329083"><ele>148.2</ele><time>2026-04-25T07:19:59.94Z</time></trkpt><trkpt lat="43.542285" lon="13.0328333"><ele>147.4</ele><time>2026-04-25T07:20:00.947Z</time></trkpt><trkpt lat="43.5423817" lon="13.0327667"><ele>146.6</ele><time>2026-04-25T07:20:01.944Z</time></trkpt><trkpt lat="43.5424733" lon="13.0327"><ele>145.8</ele><time>2026-04-25T07:20:02.945Z</time></trkpt><trkpt lat="43.5425583" lon="13.032625"><ele>145.0</ele><time>2026-04-25T07:20:03.937Z</time></trkpt><trkpt lat="43.5426383" lon="13.0325583"><ele>145.0</ele><time>2026-04-25T07:20:04.987Z</time></trkpt><trkpt lat="43.54271" lon="13.0324867"><ele>145.0</ele><time>2026-04-25T07:20:05.942Z</time></trkpt><trkpt lat="43.5427717" lon="13.0324083"><ele>145.0</ele><time>2026-04-25T07:20:06.946Z</time></trkpt><trkpt lat="43.542825" lon="13.0323133"><ele>145.0</ele><time>2026-04-25T07:20:07.934Z</time></trkpt><trkpt lat="43.5428683" lon="13.0322033"><ele>145.0</ele><time>2026-04-25T07:20:08.95Z</time></trkpt><trkpt lat="43.542905" lon="13.0320833"><ele>145.0</ele><time>2026-04-25T07:20:09.95Z</time></trkpt><trkpt lat="43.5429283" lon="13.0319567"><ele>143.2</ele><time>2026-04-25T07:20:10.993Z</time></trkpt><trkpt lat="43.5429583" lon="13.0318267"><ele>141.4</ele><time>2026-04-25T07:20:11.946Z</time></trkpt><trkpt lat="43.5429833" lon="13.0316967"><ele>139.6</ele><time>2026-04-25T07:20:12.947Z</time></trkpt><trkpt lat="43.5430083" lon="13.03156"><ele>137.8</ele><time>2026-04-25T07:20:13.94Z</time></trkpt><trkpt lat="43.5430317" lon="13.0314233"><ele>136.0</ele><time>2026-04-25T07:20:14.95Z</time></trkpt><trkpt lat="43.543055" lon="13.0312883"><ele>135.5</ele><time>2026-04-25T07:20:15.936Z</time></trkpt><trkpt lat="43.5430767" lon="13.031165"><ele>135.0</ele><time>2026-04-25T07:20:16.992Z</time></trkpt><trkpt lat="43.5431" lon="13.0310517"><ele>134.5</ele><time>2026-04-25T07:20:17.944Z</time></trkpt><trkpt lat="43.5431217" lon="13.0309567"><ele>134.0</ele><time>2026-04-25T07:20:18.949Z</time></trkpt><trkpt lat="43.5431417" lon="13.0308683"><ele>133.5</ele><time>2026-04-25T07:20:19.945Z</time></trkpt><trkpt lat="43.5431367" lon="13.0307333"><ele>133.0</ele><time>2026-04-25T07:20:21.946Z</time></trkpt><trkpt lat="43.54303" lon="13.0306433"><ele>132.20000000000002</ele><time>2026-04-25T07:20:23.941Z</time></trkpt><trkpt lat="43.5429483" lon="13.0306183"><ele>131.4</ele><time>2026-04-25T07:20:24.945Z</time></trkpt><trkpt lat="43.5428483" lon="13.0305933"><ele>130.60000000000002</ele><time>2026-04-25T07:20:25.946Z</time></trkpt><trkpt lat="43.5427417" lon="13.0305633"><ele>129.8</ele><time>2026-04-25T07:20:26.947Z</time></trkpt><trkpt lat="43.54263" lon="13.030525"><ele>129.0</ele><time>2026-04-25T07:20:27.952Z</time></trkpt><trkpt lat="43.5425233" lon="13.0304817"><ele>129.0</ele><time>2026-04-25T07:20:29.008Z</time></trkpt><trkpt lat="43.54241" lon="13.0304383"><ele>129.0</ele><time>2026-04-25T07:20:29.94Z</time></trkpt><trkpt lat="43.5422933" lon="13.0303933"><ele>129.0</ele><time>2026-04-25T07:20:30.947Z</time></trkpt><trkpt lat="43.5421667" lon="13.0303483"><ele>129.0</ele><time>2026-04-25T07:20:31.946Z</time></trkpt><trkpt lat="43.5420367" lon="13.0302967"><ele>129.5</ele><time>2026-04-25T07:20:32.944Z</time></trkpt><trkpt lat="43.54191" lon="13.0302433"><ele>130.0</ele><time>2026-04-25T07:20:33.951Z</time></trkpt><trkpt lat="43.5417817" lon="13.0301933"><ele>130.5</ele><time>2026-04-25T07:20:34.994Z</time></trkpt><trkpt lat="43.54165" lon="13.0301433"><ele>131.0</ele><time>2026-04-25T07:20:35.951Z</time></trkpt><trkpt lat="43.5415183" lon="13.030095"><ele>131.0</ele><time>2026-04-25T07:20:36.947Z</time></trkpt><trkpt lat="43.5413883" lon="13.030045"><ele>131.0</ele><time>2026-04-25T07:20:37.958Z</time></trkpt><trkpt lat="43.54126" lon="13.029985"><ele>131.0</ele><time>2026-04-25T07:20:38.951Z</time></trkpt><trkpt lat="43.54113" lon="13.0299283"><ele>131.0</ele><time>2026-04-25T07:20:39.943Z</time></trkpt><trkpt lat="43.5410017" lon="13.0298733"><ele>130.25</ele><time>2026-04-25T07:20:40.992Z</time></trkpt><trkpt lat="43.5408683" lon="13.0298133"><ele>129.5</ele><time>2026-04-25T07:20:41.945Z</time></trkpt><trkpt lat="43.5407333" lon="13.0297517"><ele>128.75</ele><time>2026-04-25T07:20:42.947Z</time></trkpt><trkpt lat="43.5405983" lon="13.0297"><ele>128.0</ele><time>2026-04-25T07:20:43.947Z</time></trkpt><trkpt lat="43.5404683" lon="13.0296433"><ele>129.0</ele><time>2026-04-25T07:20:44.946Z</time></trkpt><trkpt lat="43.5403417" lon="13.0295883"><ele>130.0</ele><time>2026-04-25T07:20:45.943Z</time></trkpt><trkpt lat="43.5402167" lon="13.0295433"><ele>131.0</ele><time>2026-04-25T07:20:47Z</time></trkpt><trkpt lat="43.5400783" lon="13.0295117"><ele>132.0</ele><time>2026-04-25T07:20:47.946Z</time></trkpt><trkpt lat="43.5399667" lon="13.0294667"><ele>132.0</ele><time>2026-04-25T07:20:48.955Z</time></trkpt><trkpt lat="43.539865" lon="13.0294233"><ele>132.0</ele><time>2026-04-25T07:20:49.946Z</time></trkpt><trkpt lat="43.5397733" lon="13.0293867"><ele>132.0</ele><time>2026-04-25T07:20:50.948Z</time></trkpt><trkpt lat="43.5396983" lon="13.029345"><ele>132.0</ele><time>2026-04-25T07:20:51.942Z</time></trkpt><trkpt lat="43.5396367" lon="13.029295"><ele>132.0</ele><time>2026-04-25T07:20:52.971Z</time></trkpt><trkpt lat="43.5395883" lon="13.0292333"><ele>132.0</ele><time>2026-04-25T07:20:53.944Z</time></trkpt><trkpt lat="43.539555" lon="13.0291433"><ele>132.4</ele><time>2026-04-25T07:20:54.945Z</time></trkpt><trkpt lat="43.53953" lon="13.0290183"><ele>132.79999999999998</ele><time>2026-04-25T07:20:55.948Z</time></trkpt><trkpt lat="43.5394983" lon="13.02888"><ele>133.2</ele><time>2026-04-25T07:20:56.946Z</time></trkpt><trkpt lat="43.53946" lon="13.02873"><ele>133.6</ele><time>2026-04-25T07:20:57.949Z</time></trkpt><trkpt lat="43.5394033" lon="13.0285833"><ele>134.0</ele><time>2026-04-25T07:20:59.003Z</time></trkpt><trkpt lat="43.53933" lon="13.028445"><ele>134.0</ele><time>2026-04-25T07:20:59.943Z</time></trkpt><trkpt lat="43.539225" lon="13.0283367"><ele>134.0</ele><time>2026-04-25T07:21:00.947Z</time></trkpt><trkpt lat="43.5390983" lon="13.0282533"><ele>134.0</ele><time>2026-04-25T07:21:01.947Z</time></trkpt><trkpt lat="43.5389633" lon="13.0281783"><ele>134.0</ele><time>2026-04-25T07:21:02.947Z</time></trkpt><trkpt lat="43.5388183" lon="13.0281167"><ele>132.5</ele><time>2026-04-25T07:21:03.944Z</time></trkpt><trkpt lat="43.5386733" lon="13.02806"><ele>131.0</ele><time>2026-04-25T07:21:04.991Z</time></trkpt><trkpt lat="43.5385333" lon="13.0279967"><ele>129.5</ele><time>2026-04-25T07:21:05.945Z</time></trkpt><trkpt lat="43.5383967" lon="13.0279183"><ele>128.0</ele><time>2026-04-25T07:21:06.948Z</time></trkpt><trkpt lat="43.538265" lon="13.0278067"><ele>128.0</ele><time>2026-04-25T07:21:07.945Z</time></trkpt><trkpt lat="43.5381483" lon="13.02766"><ele>128.0</ele><time>2026-04-25T07:21:08.944Z</time></trkpt><trkpt lat="43.53803" lon="13.0275017"><ele>128.0</ele><time>2026-04-25T07:21:09.947Z</time></trkpt><trkpt lat="43.5379183" lon="13.027345"><ele>126.66666666666666</ele><time>2026-04-25T07:21:10.984Z</time></trkpt><trkpt lat="43.5377967" lon="13.0272067"><ele>125.33333333333334</ele><time>2026-04-25T07:21:11.946Z</time></trkpt><trkpt lat="43.5376667" lon="13.027085"><ele>124.0</ele><time>2026-04-25T07:21:12.941Z</time></trkpt><trkpt lat="43.5375433" lon="13.026975"><ele>124.0</ele><time>2026-04-25T07:21:13.938Z</time></trkpt><trkpt lat="43.5374267" lon="13.026875"><ele>124.0</ele><time>2026-04-25T07:21:14.95Z</time></trkpt><trkpt lat="43.537305" lon="13.0267833"><ele>124.0</ele><time>2026-04-25T07:21:15.945Z</time></trkpt><trkpt lat="43.5372017" lon="13.0266883"><ele>124.0</ele><time>2026-04-25T07:21:16.995Z</time></trkpt><trkpt lat="43.5371167" lon="13.0266033"><ele>126.25</ele><time>2026-04-25T07:21:17.946Z</time></trkpt><trkpt lat="43.5370233" lon="13.026525"><ele>128.5</ele><time>2026-04-25T07:21:18.944Z</time></trkpt><trkpt lat="43.5369117" lon="13.0264417"><ele>130.75</ele><time>2026-04-25T07:21:19.948Z</time></trkpt><trkpt lat="43.536785" lon="13.026355"><ele>133.0</ele><time>2026-04-25T07:21:20.945Z</time></trkpt><trkpt lat="43.5366583" lon="13.0262617"><ele>133.0</ele><time>2026-04-25T07:21:21.948Z</time></trkpt><trkpt lat="43.5365367" lon="13.026165"><ele>133.0</ele><time>2026-04-25T07:21:23.011Z</time></trkpt><trkpt lat="43.536425" lon="13.0260633"><ele>133.0</ele><time>2026-04-25T07:21:23.937Z</time></trkpt><trkpt lat="43.53632" lon="13.0259517"><ele>133.0</ele><time>2026-04-25T07:21:24.942Z</time></trkpt><trkpt lat="43.5362167" lon="13.0258267"><ele>134.0</ele><time>2026-04-25T07:21:25.943Z</time></trkpt><trkpt lat="43.53612" lon="13.02569"><ele>135.0</ele><time>2026-04-25T07:21:26.949Z</time></trkpt><trkpt lat="43.536025" lon="13.0255517"><ele>136.0</ele><time>2026-04-25T07:21:27.943Z</time></trkpt><trkpt lat="43.5359333" lon="13.0254233"><ele>137.0</ele><time>2026-04-25T07:21:29.001Z</time></trkpt><trkpt lat="43.5358433" lon="13.0253017"><ele>137.0</ele><time>2026-04-25T07:21:29.935Z</time></trkpt><trkpt lat="43.5357667" lon="13.025165"><ele>137.0</ele><time>2026-04-25T07:21:30.942Z</time></trkpt><trkpt lat="43.5356983" lon="13.025015"><ele>137.0</ele><time>2026-04-25T07:21:31.946Z</time></trkpt><trkpt lat="43.535645" lon="13.0248417"><ele>137.0</ele><time>2026-04-25T07:21:32.941Z</time></trkpt><trkpt lat="43.5355967" lon="13.0246517"><ele>137.66666666666666</ele><time>2026-04-25T07:21:33.947Z</time></trkpt><trkpt lat="43.5355567" lon="13.024445"><ele>138.33333333333334</ele><time>2026-04-25T07:21:34.99Z</time></trkpt><trkpt lat="43.535515" lon="13.024225"><ele>139.0</ele><time>2026-04-25T07:21:35.939Z</time></trkpt><trkpt lat="43.5354667" lon="13.0240033"><ele>139.66666666666669</ele><time>2026-04-25T07:21:36.944Z</time></trkpt><trkpt lat="43.53542" lon="13.0237917"><ele>140.33333333333334</ele><time>2026-04-25T07:21:37.937Z</time></trkpt><trkpt lat="43.5353783" lon="13.0235867"><ele>141.0</ele><time>2026-04-25T07:21:38.946Z</time></trkpt><trkpt lat="43.5353367" lon="13.02339"><ele>141.0</ele><time>2026-04-25T07:21:39.945Z</time></trkpt><trkpt lat="43.5352967" lon="13.0232"><ele>141.0</ele><time>2026-04-25T07:21:40.988Z</time></trkpt><trkpt lat="43.535255" lon="13.0230117"><ele>141.0</ele><time>2026-04-25T07:21:41.936Z</time></trkpt><trkpt lat="43.53522" lon="13.02283"><ele>141.0</ele><time>2026-04-25T07:21:42.948Z</time></trkpt><trkpt lat="43.5351867" lon="13.0226633"><ele>141.0</ele><time>2026-04-25T07:21:43.943Z</time></trkpt><trkpt lat="43.5351567" lon="13.0225083"><ele>141.0</ele><time>2026-04-25T07:21:44.94Z</time></trkpt><trkpt lat="43.5351267" lon="13.0223633"><ele>141.0</ele><time>2026-04-25T07:21:45.936Z</time></trkpt><trkpt lat="43.5351017" lon="13.0222317"><ele>141.0</ele><time>2026-04-25T07:21:46.987Z</time></trkpt><trkpt lat="43.53508" lon="13.0221217"><ele>141.0</ele><time>2026-04-25T07:21:47.941Z</time></trkpt><trkpt lat="43.5350683" lon="13.0219633"><ele>141.0</ele><time>2026-04-25T07:21:49.942Z</time></trkpt><trkpt lat="43.535095" lon="13.0218183"><ele>141.0</ele><time>2026-04-25T07:21:51.949Z</time></trkpt><trkpt lat="43.5351083" lon="13.0217333"><ele>141.0</ele><time>2026-04-25T07:21:53.008Z</time></trkpt><trkpt lat="43.5351033" lon="13.0216367"><ele>141.0</ele><time>2026-04-25T07:21:53.938Z</time></trkpt><trkpt lat="43.5350933" lon="13.02154"><ele>141.0</ele><time>2026-04-25T07:21:54.945Z</time></trkpt><trkpt lat="43.5350883" lon="13.02145"><ele>141.0</ele><time>2026-04-25T07:21:55.947Z</time></trkpt><trkpt lat="43.5350933" lon="13.0213617"><ele>141.0</ele><time>2026-04-25T07:21:56.945Z</time></trkpt><trkpt lat="43.5351083" lon="13.0212617"><ele>141.0</ele><time>2026-04-25T07:21:57.948Z</time></trkpt><trkpt lat="43.53513" lon="13.0211433"><ele>141.0</ele><time>2026-04-25T07:21:59.001Z</time></trkpt><trkpt lat="43.5351517" lon="13.0210133"><ele>141.0</ele><time>2026-04-25T07:21:59.939Z</time></trkpt><trkpt lat="43.5351867" lon="13.0208667"><ele>141.0</ele><time>2026-04-25T07:22:00.942Z</time></trkpt><trkpt lat="43.53523" lon="13.02071"><ele>141.0</ele><time>2026-04-25T07:22:01.946Z</time></trkpt><trkpt lat="43.5352833" lon="13.020555"><ele>141.0</ele><time>2026-04-25T07:22:02.941Z</time></trkpt><trkpt lat="43.53535" lon="13.0203967"><ele>141.0</ele><time>2026-04-25T07:22:03.939Z</time></trkpt><trkpt lat="43.5354217" lon="13.0202417"><ele>141.0</ele><time>2026-04-25T07:22:04.989Z</time></trkpt><trkpt lat="43.535495" lon="13.0201033"><ele>141.0</ele><time>2026-04-25T07:22:05.941Z</time></trkpt><trkpt lat="43.5355683" lon="13.01997"><ele>140.8</ele><time>2026-04-25T07:22:06.944Z</time></trkpt><trkpt lat="43.5356367" lon="13.01984"><ele>140.6</ele><time>2026-04-25T07:22:07.941Z</time></trkpt><trkpt lat="43.5357033" lon="13.01972"><ele>140.4</ele><time>2026-04-25T07:22:08.94Z</time></trkpt><trkpt lat="43.5357583" lon="13.0196133"><ele>140.2</ele><time>2026-04-25T07:22:09.94Z</time></trkpt><trkpt lat="43.5357983" lon="13.0195033"><ele>140.0</ele><time>2026-04-25T07:22:10.993Z</time></trkpt><trkpt lat="43.5358283" lon="13.0193883"><ele>140.0</ele><time>2026-04-25T07:22:11.938Z</time></trkpt><trkpt lat="43.53585" lon="13.0192633"><ele>140.0</ele><time>2026-04-25T07:22:12.94Z</time></trkpt><trkpt lat="43.5358583" lon="13.0191233"><ele>140.0</ele><time>2026-04-25T07:22:13.945Z</time></trkpt><trkpt lat="43.535865" lon="13.01898"><ele>140.0</ele><time>2026-04-25T07:22:14.947Z</time></trkpt><trkpt lat="43.5358633" lon="13.0188233"><ele>140.0</ele><time>2026-04-25T07:22:15.945Z</time></trkpt><trkpt lat="43.5358433" lon="13.0186617"><ele>140.5</ele><time>2026-04-25T07:22:16.993Z</time></trkpt><trkpt lat="43.5357983" lon="13.0184883"><ele>141.0</ele><time>2026-04-25T07:22:17.944Z</time></trkpt><trkpt lat="43.5357317" lon="13.018305"><ele>141.5</ele><time>2026-04-25T07:22:18.948Z</time></trkpt><trkpt lat="43.5356633" lon="13.01812"><ele>142.0</ele><time>2026-04-25T07:22:19.946Z</time></trkpt><trkpt lat="43.5355883" lon="13.0179333"><ele>142.0</ele><time>2026-04-25T07:22:20.949Z</time></trkpt><trkpt lat="43.535515" lon="13.0177533"><ele>142.0</ele><time>2026-04-25T07:22:21.945Z</time></trkpt><trkpt lat="43.5354333" lon="13.017575"><ele>142.0</ele><time>2026-04-25T07:22:23.011Z</time></trkpt><trkpt lat="43.535345" lon="13.017405"><ele>142.0</ele><time>2026-04-25T07:22:23.943Z</time></trkpt><trkpt lat="43.5352467" lon="13.0172417"><ele>142.0</ele><time>2026-04-25T07:22:24.944Z</time></trkpt><trkpt lat="43.5351467" lon="13.0170817"><ele>142.0</ele><time>2026-04-25T07:22:25.943Z</time></trkpt><trkpt lat="43.5350417" lon="13.0169183"><ele>142.0</ele><time>2026-04-25T07:22:26.946Z</time></trkpt><trkpt lat="43.5349367" lon="13.0167533"><ele>142.0</ele><time>2026-04-25T07:22:27.943Z</time></trkpt><trkpt lat="43.5348233" lon="13.016595"><ele>142.0</ele><time>2026-04-25T07:22:28.994Z</time></trkpt><trkpt lat="43.5347133" lon="13.0164333"><ele>141.33333333333334</ele><time>2026-04-25T07:22:29.938Z</time></trkpt><trkpt lat="43.534595" lon="13.0162767"><ele>140.66666666666666</ele><time>2026-04-25T07:22:30.939Z</time></trkpt><trkpt lat="43.53447" lon="13.0161233"><ele>140.0</ele><time>2026-04-25T07:22:31.946Z</time></trkpt><trkpt lat="43.534345" lon="13.0159667"><ele>143.0</ele><time>2026-04-25T07:22:32.951Z</time></trkpt><trkpt lat="43.534225" lon="13.01581"><ele>146.0</ele><time>2026-04-25T07:22:33.948Z</time></trkpt><trkpt lat="43.5341133" lon="13.01566"><ele>149.0</ele><time>2026-04-25T07:22:35.001Z</time></trkpt><trkpt lat="43.5339883" lon="13.0155233"><ele>149.0</ele><time>2026-04-25T07:22:35.942Z</time></trkpt><trkpt lat="43.53386" lon="13.0153833"><ele>149.0</ele><time>2026-04-25T07:22:36.944Z</time></trkpt><trkpt lat="43.533735" lon="13.0152367"><ele>149.0</ele><time>2026-04-25T07:22:37.942Z</time></trkpt><trkpt lat="43.5336083" lon="13.0150883"><ele>150.33333333333331</ele><time>2026-04-25T07:22:38.947Z</time></trkpt><trkpt lat="43.5334883" lon="13.014935"><ele>151.66666666666666</ele><time>2026-04-25T07:22:39.947Z</time></trkpt><trkpt lat="43.5333783" lon="13.0147717"><ele>153.0</ele><time>2026-04-25T07:22:40.997Z</time></trkpt><trkpt lat="43.5332717" lon="13.0145983"><ele>153.0</ele><time>2026-04-25T07:22:41.944Z</time></trkpt><trkpt lat="43.5331667" lon="13.0144267"><ele>153.0</ele><time>2026-04-25T07:22:42.947Z</time></trkpt><trkpt lat="43.53306" lon="13.0142683"><ele>153.0</ele><time>2026-04-25T07:22:43.947Z</time></trkpt><trkpt lat="43.5329483" lon="13.0141183"><ele>157.33333333333334</ele><time>2026-04-25T07:22:44.953Z</time></trkpt><trkpt lat="43.5328333" lon="13.0139683"><ele>161.66666666666669</ele><time>2026-04-25T07:22:45.943Z</time></trkpt><trkpt lat="43.5327283" lon="13.01382"><ele>166.0</ele><time>2026-04-25T07:22:46.999Z</time></trkpt><trkpt lat="43.53262" lon="13.013665"><ele>166.0</ele><time>2026-04-25T07:22:47.945Z</time></trkpt><trkpt lat="43.532505" lon="13.0135"><ele>166.0</ele><time>2026-04-25T07:22:48.944Z</time></trkpt><trkpt lat="43.53239" lon="13.0133233"><ele>166.0</ele><time>2026-04-25T07:22:49.943Z</time></trkpt><trkpt lat="43.5322783" lon="13.0131483"><ele>166.33333333333334</ele><time>2026-04-25T07:22:50.948Z</time></trkpt><trkpt lat="43.5321733" lon="13.0129817"><ele>166.66666666666666</ele><time>2026-04-25T07:22:51.947Z</time></trkpt><trkpt lat="43.532065" lon="13.0128167"><ele>167.0</ele><time>2026-04-25T07:22:52.948Z</time></trkpt><trkpt lat="43.5319583" lon="13.0126583"><ele>169.66666666666666</ele><time>2026-04-25T07:22:53.946Z</time></trkpt><trkpt lat="43.5318567" lon="13.012495"><ele>172.33333333333334</ele><time>2026-04-25T07:22:54.945Z</time></trkpt><trkpt lat="43.531755" lon="13.0123283"><ele>175.0</ele><time>2026-04-25T07:22:55.946Z</time></trkpt><trkpt lat="43.53166" lon="13.012165"><ele>175.0</ele><time>2026-04-25T07:22:56.945Z</time></trkpt><trkpt lat="43.5315667" lon="13.0120067"><ele>175.0</ele><time>2026-04-25T07:22:57.948Z</time></trkpt><trkpt lat="43.5314783" lon="13.0118567"><ele>175.0</ele><time>2026-04-25T07:22:59.006Z</time></trkpt><trkpt lat="43.5313867" lon="13.011715"><ele>175.0</ele><time>2026-04-25T07:22:59.946Z</time></trkpt><trkpt lat="43.5312967" lon="13.011575"><ele>177.75</ele><time>2026-04-25T07:23:00.947Z</time></trkpt><trkpt lat="43.53121" lon="13.0114433"><ele>180.5</ele><time>2026-04-25T07:23:01.949Z</time></trkpt><trkpt lat="43.5311267" lon="13.0113033"><ele>183.25</ele><time>2026-04-25T07:23:02.948Z</time></trkpt><trkpt lat="43.5310517" lon="13.011155"><ele>186.0</ele><time>2026-04-25T07:23:03.948Z</time></trkpt><trkpt lat="43.530985" lon="13.011"><ele>186.0</ele><time>2026-04-25T07:23:04.998Z</time></trkpt><trkpt lat="43.5309417" lon="13.0108233"><ele>186.0</ele><time>2026-04-25T07:23:05.94Z</time></trkpt><trkpt lat="43.530915" lon="13.01065"><ele>186.0</ele><time>2026-04-25T07:23:06.952Z</time></trkpt><trkpt lat="43.5309" lon="13.01047"><ele>186.0</ele><time>2026-04-25T07:23:07.948Z</time></trkpt><trkpt lat="43.53089" lon="13.0102867"><ele>186.0</ele><time>2026-04-25T07:23:08.947Z</time></trkpt><trkpt lat="43.530875" lon="13.010115"><ele>186.0</ele><time>2026-04-25T07:23:09.937Z</time></trkpt><trkpt lat="43.5308533" lon="13.009945"><ele>186.0</ele><time>2026-04-25T07:23:10.995Z</time></trkpt><trkpt lat="43.53083" lon="13.0097767"><ele>186.0</ele><time>2026-04-25T07:23:11.938Z</time></trkpt><trkpt lat="43.5307817" lon="13.0096183"><ele>185.5</ele><time>2026-04-25T07:23:12.944Z</time></trkpt><trkpt lat="43.5307133" lon="13.00946"><ele>185.0</ele><time>2026-04-25T07:23:13.944Z</time></trkpt><trkpt lat="43.53064" lon="13.0093"><ele>184.5</ele><time>2026-04-25T07:23:14.946Z</time></trkpt><trkpt lat="43.5305483" lon="13.00915"><ele>184.0</ele><time>2026-04-25T07:23:15.949Z</time></trkpt><trkpt lat="43.5304433" lon="13.009005"><ele>185.5</ele><time>2026-04-25T07:23:16.998Z</time></trkpt><trkpt lat="43.53033" lon="13.008875"><ele>187.0</ele><time>2026-04-25T07:23:17.94Z</time></trkpt><trkpt lat="43.5302367" lon="13.0087467"><ele>188.5</ele><time>2026-04-25T07:23:18.944Z</time></trkpt><trkpt lat="43.53015" lon="13.00861"><ele>190.0</ele><time>2026-04-25T07:23:19.946Z</time></trkpt><trkpt lat="43.53008" lon="13.0084583"><ele>190.25</ele><time>2026-04-25T07:23:20.947Z</time></trkpt><trkpt lat="43.5300133" lon="13.0082967"><ele>190.5</ele><time>2026-04-25T07:23:21.943Z</time></trkpt><trkpt lat="43.5299417" lon="13.0081283"><ele>190.75</ele><time>2026-04-25T07:23:22.945Z</time></trkpt><trkpt lat="43.52987" lon="13.0079567"><ele>191.0</ele><time>2026-04-25T07:23:23.944Z</time></trkpt><trkpt lat="43.5298017" lon="13.0077767"><ele>191.0</ele><time>2026-04-25T07:23:24.948Z</time></trkpt><trkpt lat="43.5297317" lon="13.007595"><ele>191.0</ele><time>2026-04-25T07:23:25.947Z</time></trkpt><trkpt lat="43.5296583" lon="13.0074067"><ele>191.0</ele><time>2026-04-25T07:23:26.942Z</time></trkpt><trkpt lat="43.529585" lon="13.0072167"><ele>193.66666666666666</ele><time>2026-04-25T07:23:27.952Z</time></trkpt><trkpt lat="43.5295083" lon="13.0070317"><ele>196.33333333333331</ele><time>2026-04-25T07:23:28.937Z</time></trkpt><trkpt lat="43.5294317" lon="13.0068533"><ele>199.0</ele><time>2026-04-25T07:23:29.942Z</time></trkpt><trkpt lat="43.529355" lon="13.00667"><ele>199.33333333333331</ele><time>2026-04-25T07:23:30.942Z</time></trkpt><trkpt lat="43.5292767" lon="13.00649"><ele>199.66666666666669</ele><time>2026-04-25T07:23:31.944Z</time></trkpt><trkpt lat="43.5291983" lon="13.00631"><ele>200.0</ele><time>2026-04-25T07:23:32.948Z</time></trkpt><trkpt lat="43.529115" lon="13.0061367"><ele>200.0</ele><time>2026-04-25T07:23:33.94Z</time></trkpt><trkpt lat="43.5290383" lon="13.0059583"><ele>200.0</ele><time>2026-04-25T07:23:34.998Z</time></trkpt><trkpt lat="43.5289583" lon="13.0057733"><ele>200.0</ele><time>2026-04-25T07:23:35.935Z</time></trkpt><trkpt lat="43.52888" lon="13.0055833"><ele>200.0</ele><time>2026-04-25T07:23:36.94Z</time></trkpt><trkpt lat="43.5288067" lon="13.0054"><ele>200.0</ele><time>2026-04-25T07:23:37.944Z</time></trkpt><trkpt lat="43.5287367" lon="13.0052283"><ele>200.0</ele><time>2026-04-25T07:23:38.941Z</time></trkpt><trkpt lat="43.5286683" lon="13.0050633"><ele>200.0</ele><time>2026-04-25T07:23:39.935Z</time></trkpt><trkpt lat="43.528605" lon="13.0049"><ele>200.0</ele><time>2026-04-25T07:23:40.997Z</time></trkpt><trkpt lat="43.5285333" lon="13.0047333"><ele>200.0</ele><time>2026-04-25T07:23:41.942Z</time></trkpt><trkpt lat="43.5284633" lon="13.0045633"><ele>200.0</ele><time>2026-04-25T07:23:42.94Z</time></trkpt><trkpt lat="43.5283817" lon="13.0043867"><ele>200.0</ele><time>2026-04-25T07:23:43.94Z</time></trkpt><trkpt lat="43.5282933" lon="13.004215"><ele>199.0</ele><time>2026-04-25T07:23:44.941Z</time></trkpt><trkpt lat="43.5281917" lon="13.0040383"><ele>198.0</ele><time>2026-04-25T07:23:45.939Z</time></trkpt><trkpt lat="43.5280867" lon="13.0038633"><ele>197.0</ele><time>2026-04-25T07:23:46.996Z</time></trkpt><trkpt lat="43.5279783" lon="13.0036967"><ele>198.25</ele><time>2026-04-25T07:23:47.94Z</time></trkpt><trkpt lat="43.5278783" lon="13.0035367"><ele>199.5</ele><time>2026-04-25T07:23:48.948Z</time></trkpt><trkpt lat="43.5277867" lon="13.0033883"><ele>200.75</ele><time>2026-04-25T07:23:49.951Z</time></trkpt><trkpt lat="43.5277017" lon="13.0032483"><ele>202.0</ele><time>2026-04-25T07:23:50.949Z</time></trkpt><trkpt lat="43.5276283" lon="13.003115"><ele>203.0</ele><time>2026-04-25T07:23:51.94Z</time></trkpt><trkpt lat="43.52757" lon="13.0029783"><ele>204.0</ele><time>2026-04-25T07:23:53.004Z</time></trkpt><trkpt lat="43.5275317" lon="13.002845"><ele>205.0</ele><time>2026-04-25T07:23:53.944Z</time></trkpt><trkpt lat="43.5275167" lon="13.0027017"><ele>206.0</ele><time>2026-04-25T07:23:54.939Z</time></trkpt><trkpt lat="43.5275117" lon="13.0025567"><ele>207.0</ele><time>2026-04-25T07:23:55.945Z</time></trkpt><trkpt lat="43.527525" lon="13.0024067"><ele>207.0</ele><time>2026-04-25T07:23:56.943Z</time></trkpt><trkpt lat="43.5275417" lon="13.0022367"><ele>207.0</ele><time>2026-04-25T07:23:57.953Z</time></trkpt><trkpt lat="43.5275633" lon="13.002055"><ele>207.0</ele><time>2026-04-25T07:23:59.003Z</time></trkpt><trkpt lat="43.527585" lon="13.001865"><ele>207.0</ele><time>2026-04-25T07:23:59.947Z</time></trkpt><trkpt lat="43.5276067" lon="13.001675"><ele>206.5</ele><time>2026-04-25T07:24:00.945Z</time></trkpt><trkpt lat="43.52763" lon="13.0014867"><ele>206.0</ele><time>2026-04-25T07:24:01.945Z</time></trkpt><trkpt lat="43.5276533" lon="13.0013"><ele>205.5</ele><time>2026-04-25T07:24:02.948Z</time></trkpt><trkpt lat="43.5276817" lon="13.001115"><ele>205.0</ele><time>2026-04-25T07:24:03.944Z</time></trkpt><trkpt lat="43.52771" lon="13.000935"><ele>203.5</ele><time>2026-04-25T07:24:04.999Z</time></trkpt><trkpt lat="43.5277367" lon="13.00076"><ele>202.0</ele><time>2026-04-25T07:24:05.936Z</time></trkpt><trkpt lat="43.5277667" lon="13.0006"><ele>200.5</ele><time>2026-04-25T07:24:06.948Z</time></trkpt><trkpt lat="43.5278017" lon="13.000445"><ele>199.0</ele><time>2026-04-25T07:24:07.944Z</time></trkpt><trkpt lat="43.5278367" lon="13.000295"><ele>199.0</ele><time>2026-04-25T07:24:08.946Z</time></trkpt><trkpt lat="43.527865" lon="13.00015"><ele>199.0</ele><time>2026-04-25T07:24:09.938Z</time></trkpt><trkpt lat="43.5278817" lon="13.0000167"><ele>199.0</ele><time>2026-04-25T07:24:10.999Z</time></trkpt><trkpt lat="43.5278767" lon="12.9998967"><ele>199.0</ele><time>2026-04-25T07:24:11.934Z</time></trkpt><trkpt lat="43.5278617" lon="12.9997767"><ele>199.0</ele><time>2026-04-25T07:24:12.949Z</time></trkpt><trkpt lat="43.5277883" lon="12.999645"><ele>199.0</ele><time>2026-04-25T07:24:13.942Z</time></trkpt><trkpt lat="43.5277133" lon="12.9995017"><ele>199.0</ele><time>2026-04-25T07:24:14.947Z</time></trkpt><trkpt lat="43.527635" lon="12.9993533"><ele>199.0</ele><time>2026-04-25T07:24:15.944Z</time></trkpt><trkpt lat="43.527565" lon="12.9992017"><ele>199.0</ele><time>2026-04-25T07:24:16.997Z</time></trkpt><trkpt lat="43.5275067" lon="12.9990467"><ele>198.0</ele><time>2026-04-25T07:24:17.941Z</time></trkpt><trkpt lat="43.52746" lon="12.9988767"><ele>197.0</ele><time>2026-04-25T07:24:18.946Z</time></trkpt><trkpt lat="43.5274233" lon="12.9987083"><ele>196.0</ele><time>2026-04-25T07:24:19.947Z</time></trkpt><trkpt lat="43.5273917" lon="12.9985333"><ele>195.0</ele><time>2026-04-25T07:24:20.94Z</time></trkpt><trkpt lat="43.5273683" lon="12.9983467"><ele>193.75</ele><time>2026-04-25T07:24:21.94Z</time></trkpt><trkpt lat="43.52735" lon="12.9981533"><ele>192.5</ele><time>2026-04-25T07:24:23.009Z</time></trkpt><trkpt lat="43.5273317" lon="12.9979483"><ele>191.25</ele><time>2026-04-25T07:24:23.942Z</time></trkpt><trkpt lat="43.527315" lon="12.997735"><ele>190.0</ele><time>2026-04-25T07:24:24.946Z</time></trkpt><trkpt lat="43.527305" lon="12.9975183"><ele>189.75</ele><time>2026-04-25T07:24:25.944Z</time></trkpt><trkpt lat="43.5273017" lon="12.99732"><ele>189.5</ele><time>2026-04-25T07:24:26.936Z</time></trkpt><trkpt lat="43.5273067" lon="12.997135"><ele>189.25</ele><time>2026-04-25T07:24:27.937Z</time></trkpt><trkpt lat="43.5273117" lon="12.99695"><ele>189.0</ele><time>2026-04-25T07:24:28.958Z</time></trkpt><trkpt lat="43.5273167" lon="12.99677"><ele>188.75</ele><time>2026-04-25T07:24:29.937Z</time></trkpt><trkpt lat="43.5273233" lon="12.9965967"><ele>188.5</ele><time>2026-04-25T07:24:30.936Z</time></trkpt><trkpt lat="43.5273283" lon="12.996435"><ele>188.25</ele><time>2026-04-25T07:24:31.939Z</time></trkpt><trkpt lat="43.527335" lon="12.99628"><ele>188.0</ele><time>2026-04-25T07:24:32.94Z</time></trkpt><trkpt lat="43.5273417" lon="12.9961283"><ele>188.0</ele><time>2026-04-25T07:24:33.942Z</time></trkpt><trkpt lat="43.5273467" lon="12.995985"><ele>188.0</ele><time>2026-04-25T07:24:34.988Z</time></trkpt><trkpt lat="43.527345" lon="12.9958417"><ele>188.0</ele><time>2026-04-25T07:24:35.933Z</time></trkpt><trkpt lat="43.527335" lon="12.995695"><ele>188.0</ele><time>2026-04-25T07:24:36.943Z</time></trkpt><trkpt lat="43.52732" lon="12.9955433"><ele>188.0</ele><time>2026-04-25T07:24:37.945Z</time></trkpt><trkpt lat="43.5272983" lon="12.9953817"><ele>186.8</ele><time>2026-04-25T07:24:38.937Z</time></trkpt><trkpt lat="43.5272817" lon="12.9952217"><ele>185.60000000000002</ele><time>2026-04-25T07:24:39.945Z</time></trkpt><trkpt lat="43.5272683" lon="12.9950617"><ele>184.39999999999998</ele><time>2026-04-25T07:24:40.996Z</time></trkpt><trkpt lat="43.5272583" lon="12.9949117"><ele>183.2</ele><time>2026-04-25T07:24:41.936Z</time></trkpt><trkpt lat="43.5272383" lon="12.99478"><ele>182.0</ele><time>2026-04-25T07:24:42.944Z</time></trkpt><trkpt lat="43.5272217" lon="12.9946667"><ele>179.8</ele><time>2026-04-25T07:24:43.94Z</time></trkpt><trkpt lat="43.52723" lon="12.994555"><ele>177.6</ele><time>2026-04-25T07:24:44.938Z</time></trkpt><trkpt lat="43.5272517" lon="12.9944383"><ele>175.4</ele><time>2026-04-25T07:24:45.939Z</time></trkpt><trkpt lat="43.5273033" lon="12.9943217"><ele>173.20000000000002</ele><time>2026-04-25T07:24:46.996Z</time></trkpt><trkpt lat="43.52738" lon="12.9942133"><ele>171.0</ele><time>2026-04-25T07:24:47.942Z</time></trkpt><trkpt lat="43.5274617" lon="12.9941017"><ele>170.5</ele><time>2026-04-25T07:24:48.944Z</time></trkpt><trkpt lat="43.5275333" lon="12.9939867"><ele>170.0</ele><time>2026-04-25T07:24:49.938Z</time></trkpt><trkpt lat="43.527595" lon="12.9938583"><ele>169.5</ele><time>2026-04-25T07:24:50.937Z</time></trkpt><trkpt lat="43.5276483" lon="12.9937133"><ele>169.0</ele><time>2026-04-25T07:24:51.943Z</time></trkpt><trkpt lat="43.5276933" lon="12.993565"><ele>169.0</ele><time>2026-04-25T07:24:53.008Z</time></trkpt><trkpt lat="43.52772" lon="12.9934067"><ele>169.0</ele><time>2026-04-25T07:24:53.94Z</time></trkpt><trkpt lat="43.5277283" lon="12.993225"><ele>169.0</ele><time>2026-04-25T07:24:54.941Z</time></trkpt><trkpt lat="43.52773" lon="12.993055"><ele>169.0</ele><time>2026-04-25T07:24:55.938Z</time></trkpt><trkpt lat="43.527725" lon="12.9929"><ele>169.79999999999998</ele><time>2026-04-25T07:24:56.943Z</time></trkpt><trkpt lat="43.5277183" lon="12.9927633"><ele>170.6</ele><time>2026-04-25T07:24:57.938Z</time></trkpt><trkpt lat="43.5276967" lon="12.9926567"><ele>171.4</ele><time>2026-04-25T07:24:58.961Z</time></trkpt><trkpt lat="43.5276667" lon="12.9925517"><ele>172.2</ele><time>2026-04-25T07:24:59.939Z</time></trkpt><trkpt lat="43.5275867" lon="12.992475"><ele>173.0</ele><time>2026-04-25T07:25:00.943Z</time></trkpt><trkpt lat="43.527495" lon="12.992395"><ele>174.25</ele><time>2026-04-25T07:25:01.945Z</time></trkpt><trkpt lat="43.5273883" lon="12.99231"><ele>175.5</ele><time>2026-04-25T07:25:02.945Z</time></trkpt><trkpt lat="43.527285" lon="12.99221"><ele>176.75</ele><time>2026-04-25T07:25:03.939Z</time></trkpt><trkpt lat="43.5271883" lon="12.9921"><ele>178.0</ele><time>2026-04-25T07:25:04.988Z</time></trkpt><trkpt lat="43.5271067" lon="12.9919783"><ele>177.0</ele><time>2026-04-25T07:25:05.939Z</time></trkpt><trkpt lat="43.5270317" lon="12.9918433"><ele>176.0</ele><time>2026-04-25T07:25:06.936Z</time></trkpt><trkpt lat="43.5269867" lon="12.99168"><ele>175.0</ele><time>2026-04-25T07:25:07.939Z</time></trkpt><trkpt lat="43.526945" lon="12.9915083"><ele>174.0</ele><time>2026-04-25T07:25:08.94Z</time></trkpt><trkpt lat="43.5269133" lon="12.991325"><ele>176.75</ele><time>2026-04-25T07:25:09.952Z</time></trkpt><trkpt lat="43.5268917" lon="12.99113"><ele>179.5</ele><time>2026-04-25T07:25:10.997Z</time></trkpt><trkpt lat="43.5268717" lon="12.9909467"><ele>182.25</ele><time>2026-04-25T07:25:11.938Z</time></trkpt><trkpt lat="43.5268533" lon="12.99078"><ele>185.0</ele><time>2026-04-25T07:25:12.937Z</time></trkpt><trkpt lat="43.5268417" lon="12.9906167"><ele>186.8</ele><time>2026-04-25T07:25:13.94Z</time></trkpt><trkpt lat="43.5268367" lon="12.99047"><ele>188.6</ele><time>2026-04-25T07:25:14.947Z</time></trkpt><trkpt lat="43.526835" lon="12.9903283"><ele>190.39999999999998</ele><time>2026-04-25T07:25:15.943Z</time></trkpt><trkpt lat="43.5268333" lon="12.9901983"><ele>192.2</ele><time>2026-04-25T07:25:16.994Z</time></trkpt><trkpt lat="43.52683" lon="12.9900783"><ele>194.0</ele><time>2026-04-25T07:25:17.937Z</time></trkpt><trkpt lat="43.52683" lon="12.9899717"><ele>196.2</ele><time>2026-04-25T07:25:18.939Z</time></trkpt><trkpt lat="43.526835" lon="12.9898817"><ele>198.39999999999998</ele><time>2026-04-25T07:25:19.939Z</time></trkpt><trkpt lat="43.5268583" lon="12.9897217"><ele>200.6</ele><time>2026-04-25T07:25:21.937Z</time></trkpt><trkpt lat="43.5268883" lon="12.9895267"><ele>202.8</ele><time>2026-04-25T07:25:23.94Z</time></trkpt><trkpt lat="43.526885" lon="12.9893867"><ele>205.0</ele><time>2026-04-25T07:25:24.947Z</time></trkpt><trkpt lat="43.52686" lon="12.9892183"><ele>205.25</ele><time>2026-04-25T07:25:25.943Z</time></trkpt><trkpt lat="43.52683" lon="12.9890483"><ele>205.5</ele><time>2026-04-25T07:25:26.937Z</time></trkpt><trkpt lat="43.5267967" lon="12.9888833"><ele>205.75</ele><time>2026-04-25T07:25:27.945Z</time></trkpt><trkpt lat="43.52677" lon="12.98872"><ele>206.0</ele><time>2026-04-25T07:25:29.001Z</time></trkpt><trkpt lat="43.5267467" lon="12.98855"><ele>206.0</ele><time>2026-04-25T07:25:29.935Z</time></trkpt><trkpt lat="43.5267317" lon="12.988385"><ele>206.0</ele><time>2026-04-25T07:25:30.948Z</time></trkpt><trkpt lat="43.52672" lon="12.9882233"><ele>206.0</ele><time>2026-04-25T07:25:31.952Z</time></trkpt><trkpt lat="43.5267167" lon="12.9880583"><ele>206.0</ele><time>2026-04-25T07:25:32.936Z</time></trkpt><trkpt lat="43.5267217" lon="12.9878983"><ele>203.75</ele><time>2026-04-25T07:25:33.942Z</time></trkpt><trkpt lat="43.5267283" lon="12.98774"><ele>201.5</ele><time>2026-04-25T07:25:34.996Z</time></trkpt><trkpt lat="43.5267433" lon="12.9875717"><ele>199.25</ele><time>2026-04-25T07:25:35.939Z</time></trkpt><trkpt lat="43.52676" lon="12.9873967"><ele>197.0</ele><time>2026-04-25T07:25:36.945Z</time></trkpt><trkpt lat="43.5267767" lon="12.9872183"><ele>196.0</ele><time>2026-04-25T07:25:37.948Z</time></trkpt><trkpt lat="43.5267883" lon="12.98704"><ele>195.0</ele><time>2026-04-25T07:25:38.945Z</time></trkpt><trkpt lat="43.5267983" lon="12.986865"><ele>194.0</ele><time>2026-04-25T07:25:39.947Z</time></trkpt><trkpt lat="43.5267983" lon="12.98669"><ele>193.0</ele><time>2026-04-25T07:25:40.993Z</time></trkpt><trkpt lat="43.52679" lon="12.9865183"><ele>192.25</ele><time>2026-04-25T07:25:41.939Z</time></trkpt><trkpt lat="43.5267717" lon="12.9863483"><ele>191.5</ele><time>2026-04-25T07:25:42.94Z</time></trkpt><trkpt lat="43.5267367" lon="12.9861783"><ele>190.75</ele><time>2026-04-25T07:25:43.941Z</time></trkpt><trkpt lat="43.526695" lon="12.9860067"><ele>190.0</ele><time>2026-04-25T07:25:44.95Z</time></trkpt><trkpt lat="43.5266483" lon="12.9858367"><ele>188.75</ele><time>2026-04-25T07:25:45.937Z</time></trkpt><trkpt lat="43.5266017" lon="12.9856667"><ele>187.5</ele><time>2026-04-25T07:25:46.995Z</time></trkpt><trkpt lat="43.5265567" lon="12.9855033"><ele>186.25</ele><time>2026-04-25T07:25:47.935Z</time></trkpt><trkpt lat="43.5265117" lon="12.985345"><ele>185.0</ele><time>2026-04-25T07:25:48.938Z</time></trkpt><trkpt lat="43.5264633" lon="12.9851867"><ele>185.0</ele><time>2026-04-25T07:25:49.941Z</time></trkpt><trkpt lat="43.5264217" lon="12.9850283"><ele>185.0</ele><time>2026-04-25T07:25:50.947Z</time></trkpt><trkpt lat="43.5263883" lon="12.9848783"><ele>185.0</ele><time>2026-04-25T07:25:51.945Z</time></trkpt><trkpt lat="43.526375" lon="12.98473"><ele>185.0</ele><time>2026-04-25T07:25:53.012Z</time></trkpt><trkpt lat="43.526385" lon="12.9845783"><ele>183.75</ele><time>2026-04-25T07:25:53.938Z</time></trkpt><trkpt lat="43.5264433" lon="12.984445"><ele>182.5</ele><time>2026-04-25T07:25:54.944Z</time></trkpt><trkpt lat="43.5265183" lon="12.984315"><ele>181.25</ele><time>2026-04-25T07:25:55.951Z</time></trkpt><trkpt lat="43.5266233" lon="12.9841867"><ele>180.0</ele><time>2026-04-25T07:25:56.946Z</time></trkpt><trkpt lat="43.52673" lon="12.984065"><ele>180.5</ele><time>2026-04-25T07:25:57.944Z</time></trkpt><trkpt lat="43.526835" lon="12.983945"><ele>181.0</ele><time>2026-04-25T07:25:59.003Z</time></trkpt><trkpt lat="43.5269383" lon="12.9838167"><ele>181.5</ele><time>2026-04-25T07:25:59.934Z</time></trkpt><trkpt lat="43.5270283" lon="12.9836667"><ele>182.0</ele><time>2026-04-25T07:26:00.944Z</time></trkpt><trkpt lat="43.527105" lon="12.9834983"><ele>183.25</ele><time>2026-04-25T07:26:01.934Z</time></trkpt><trkpt lat="43.5271617" lon="12.9833167"><ele>184.5</ele><time>2026-04-25T07:26:02.942Z</time></trkpt><trkpt lat="43.527205" lon="12.9831233"><ele>185.75</ele><time>2026-04-25T07:26:03.939Z</time></trkpt><trkpt lat="43.5272333" lon="12.98293"><ele>187.0</ele><time>2026-04-25T07:26:04.998Z</time></trkpt><trkpt lat="43.5272433" lon="12.9827433"><ele>187.0</ele><time>2026-04-25T07:26:05.944Z</time></trkpt><trkpt lat="43.5272367" lon="12.9825667"><ele>187.0</ele><time>2026-04-25T07:26:06.944Z</time></trkpt><trkpt lat="43.527195" lon="12.9824167"><ele>187.0</ele><time>2026-04-25T07:26:07.941Z</time></trkpt><trkpt lat="43.5271217" lon="12.9822683"><ele>187.0</ele><time>2026-04-25T07:26:08.946Z</time></trkpt><trkpt lat="43.5270483" lon="12.9821083"><ele>187.39999999999998</ele><time>2026-04-25T07:26:09.938Z</time></trkpt><trkpt lat="43.5269817" lon="12.9819533"><ele>187.79999999999998</ele><time>2026-04-25T07:26:10.993Z</time></trkpt><trkpt lat="43.5269217" lon="12.9818183"><ele>188.2</ele><time>2026-04-25T07:26:11.941Z</time></trkpt><trkpt lat="43.526885" lon="12.981725"><ele>188.6</ele><time>2026-04-25T07:26:12.946Z</time></trkpt><trkpt lat="43.5268633" lon="12.9816433"><ele>189.0</ele><time>2026-04-25T07:26:14.936Z</time></trkpt><trkpt lat="43.5268333" lon="12.9815483"><ele>189.0</ele><time>2026-04-25T07:26:19.947Z</time></trkpt><trkpt lat="43.5267817" lon="12.9814717"><ele>189.0</ele><time>2026-04-25T07:26:20.953Z</time></trkpt><trkpt lat="43.5267233" lon="12.98139"><ele>189.0</ele><time>2026-04-25T07:26:21.94Z</time></trkpt><trkpt lat="43.526655" lon="12.981305"><ele>189.0</ele><time>2026-04-25T07:26:23.01Z</time></trkpt><trkpt lat="43.5265867" lon="12.9812133"><ele>189.0</ele><time>2026-04-25T07:26:23.939Z</time></trkpt><trkpt lat="43.5265133" lon="12.9811183"><ele>189.0</ele><time>2026-04-25T07:26:24.941Z</time></trkpt><trkpt lat="43.526435" lon="12.9810183"><ele>189.0</ele><time>2026-04-25T07:26:25.945Z</time></trkpt><trkpt lat="43.526345" lon="12.98091"><ele>189.0</ele><time>2026-04-25T07:26:26.942Z</time></trkpt><trkpt lat="43.5262467" lon="12.9807933"><ele>189.0</ele><time>2026-04-25T07:26:27.948Z</time></trkpt><trkpt lat="43.5261467" lon="12.98067"><ele>189.0</ele><time>2026-04-25T07:26:29.001Z</time></trkpt><trkpt lat="43.5260433" lon="12.98054"><ele>189.0</ele><time>2026-04-25T07:26:29.944Z</time></trkpt><trkpt lat="43.5259483" lon="12.980405"><ele>189.0</ele><time>2026-04-25T07:26:30.949Z</time></trkpt><trkpt lat="43.52584" lon="12.9802683"><ele>189.0</ele><time>2026-04-25T07:26:31.947Z</time></trkpt><trkpt lat="43.5257367" lon="12.980125"><ele>189.0</ele><time>2026-04-25T07:26:32.95Z</time></trkpt><trkpt lat="43.5256283" lon="12.9799767"><ele>189.0</ele><time>2026-04-25T07:26:33.941Z</time></trkpt><trkpt lat="43.5255133" lon="12.9798317"><ele>189.0</ele><time>2026-04-25T07:26:35Z</time></trkpt><trkpt lat="43.5253933" lon="12.9796867"><ele>189.0</ele><time>2026-04-25T07:26:35.94Z</time></trkpt><trkpt lat="43.5252733" lon="12.9795433"><ele>189.33333333333334</ele><time>2026-04-25T07:26:36.936Z</time></trkpt><trkpt lat="43.5251583" lon="12.9794017"><ele>189.66666666666669</ele><time>2026-04-25T07:26:37.942Z</time></trkpt><trkpt lat="43.52504" lon="12.9792633"><ele>190.0</ele><time>2026-04-25T07:26:38.945Z</time></trkpt><trkpt lat="43.5249217" lon="12.9791217"><ele>191.0</ele><time>2026-04-25T07:26:39.943Z</time></trkpt><trkpt lat="43.524805" lon="12.9789833"><ele>192.0</ele><time>2026-04-25T07:26:40.989Z</time></trkpt><trkpt lat="43.524695" lon="12.9788433"><ele>193.0</ele><time>2026-04-25T07:26:41.938Z</time></trkpt><trkpt lat="43.5245783" lon="12.9787183"><ele>192.25</ele><time>2026-04-25T07:26:42.942Z</time></trkpt><trkpt lat="43.524465" lon="12.9785867"><ele>191.5</ele><time>2026-04-25T07:26:43.948Z</time></trkpt><trkpt lat="43.5243517" lon="12.9784533"><ele>190.75</ele><time>2026-04-25T07:26:44.94Z</time></trkpt><trkpt lat="43.5242317" lon="12.9783283"><ele>190.0</ele><time>2026-04-25T07:26:45.936Z</time></trkpt><trkpt lat="43.5241133" lon="12.9781967"><ele>190.0</ele><time>2026-04-25T07:26:46.99Z</time></trkpt><trkpt lat="43.523995" lon="12.9780683"><ele>190.0</ele><time>2026-04-25T07:26:47.938Z</time></trkpt><trkpt lat="43.523885" lon="12.9779333"><ele>190.0</ele><time>2026-04-25T07:26:48.94Z</time></trkpt><trkpt lat="43.523775" lon="12.9777967"><ele>190.0</ele><time>2026-04-25T07:26:49.942Z</time></trkpt><trkpt lat="43.5236633" lon="12.9776567"><ele>190.0</ele><time>2026-04-25T07:26:50.945Z</time></trkpt><trkpt lat="43.5235417" lon="12.9775267"><ele>190.0</ele><time>2026-04-25T07:26:51.94Z</time></trkpt><trkpt lat="43.523425" lon="12.9773883"><ele>190.0</ele><time>2026-04-25T07:26:53.005Z</time></trkpt><trkpt lat="43.5233017" lon="12.9772483"><ele>190.0</ele><time>2026-04-25T07:26:53.941Z</time></trkpt><trkpt lat="43.5231733" lon="12.977105"><ele>190.0</ele><time>2026-04-25T07:26:54.943Z</time></trkpt><trkpt lat="43.5230467" lon="12.9769567"><ele>190.0</ele><time>2026-04-25T07:26:55.952Z</time></trkpt><trkpt lat="43.52292" lon="12.9768117"><ele>191.0</ele><time>2026-04-25T07:26:56.947Z</time></trkpt><trkpt lat="43.5227967" lon="12.97666"><ele>192.0</ele><time>2026-04-25T07:26:57.945Z</time></trkpt><trkpt lat="43.522675" lon="12.9765067"><ele>193.0</ele><time>2026-04-25T07:26:59.011Z</time></trkpt><trkpt lat="43.52255" lon="12.9763567"><ele>193.0</ele><time>2026-04-25T07:26:59.945Z</time></trkpt><trkpt lat="43.5224183" lon="12.97621"><ele>193.0</ele><time>2026-04-25T07:27:00.945Z</time></trkpt><trkpt lat="43.52229" lon="12.9760633"><ele>193.0</ele><time>2026-04-25T07:27:01.942Z</time></trkpt><trkpt lat="43.5221633" lon="12.975915"><ele>193.0</ele><time>2026-04-25T07:27:02.948Z</time></trkpt><trkpt lat="43.52204" lon="12.9757633"><ele>193.0</ele><time>2026-04-25T07:27:03.946Z</time></trkpt><trkpt lat="43.52192" lon="12.9756167"><ele>193.0</ele><time>2026-04-25T07:27:04.996Z</time></trkpt><trkpt lat="43.5218017" lon="12.9754683"><ele>193.0</ele><time>2026-04-25T07:27:05.94Z</time></trkpt><trkpt lat="43.5216783" lon="12.97532"><ele>193.0</ele><time>2026-04-25T07:27:06.943Z</time></trkpt><trkpt lat="43.5215567" lon="12.9751717"><ele>193.0</ele><time>2026-04-25T07:27:07.947Z</time></trkpt><trkpt lat="43.5214333" lon="12.9750233"><ele>193.66666666666666</ele><time>2026-04-25T07:27:08.947Z</time></trkpt><trkpt lat="43.5213083" lon="12.9748767"><ele>194.33333333333331</ele><time>2026-04-25T07:27:09.938Z</time></trkpt><trkpt lat="43.521185" lon="12.974735"><ele>195.0</ele><time>2026-04-25T07:27:10.999Z</time></trkpt><trkpt lat="43.5210617" lon="12.974595"><ele>195.0</ele><time>2026-04-25T07:27:11.94Z</time></trkpt><trkpt lat="43.5209333" lon="12.9744567"><ele>195.0</ele><time>2026-04-25T07:27:12.944Z</time></trkpt><trkpt lat="43.5208" lon="12.9743217"><ele>195.0</ele><time>2026-04-25T07:27:13.949Z</time></trkpt><trkpt lat="43.5206667" lon="12.9741883"><ele>197.0</ele><time>2026-04-25T07:27:14.949Z</time></trkpt><trkpt lat="43.520535" lon="12.974055"><ele>199.0</ele><time>2026-04-25T07:27:15.945Z</time></trkpt><trkpt lat="43.5204033" lon="12.97392"><ele>201.0</ele><time>2026-04-25T07:27:16.996Z</time></trkpt><trkpt lat="43.5202767" lon="12.973785"><ele>201.0</ele><time>2026-04-25T07:27:17.945Z</time></trkpt><trkpt lat="43.5201567" lon="12.9736533"><ele>201.0</ele><time>2026-04-25T07:27:18.946Z</time></trkpt><trkpt lat="43.520035" lon="12.97352"><ele>201.0</ele><time>2026-04-25T07:27:19.945Z</time></trkpt><trkpt lat="43.5199117" lon="12.9733833"><ele>201.0</ele><time>2026-04-25T07:27:20.95Z</time></trkpt><trkpt lat="43.51979" lon="12.9732383"><ele>201.0</ele><time>2026-04-25T07:27:21.948Z</time></trkpt><trkpt lat="43.5196667" lon="12.9730917"><ele>201.0</ele><time>2026-04-25T07:27:23.018Z</time></trkpt><trkpt lat="43.5195483" lon="12.97294"><ele>201.0</ele><time>2026-04-25T07:27:23.941Z</time></trkpt><trkpt lat="43.5194233" lon="12.9727867"><ele>201.0</ele><time>2026-04-25T07:27:24.948Z</time></trkpt><trkpt lat="43.5192967" lon="12.9726367"><ele>201.0</ele><time>2026-04-25T07:27:25.945Z</time></trkpt><trkpt lat="43.5191667" lon="12.97249"><ele>202.66666666666669</ele><time>2026-04-25T07:27:26.945Z</time></trkpt><trkpt lat="43.5190367" lon="12.9723367"><ele>204.33333333333334</ele><time>2026-04-25T07:27:27.942Z</time></trkpt><trkpt lat="43.5189017" lon="12.9721917"><ele>206.0</ele><time>2026-04-25T07:27:29.006Z</time></trkpt><trkpt lat="43.5187683" lon="12.9720467"><ele>207.0</ele><time>2026-04-25T07:27:29.949Z</time></trkpt><trkpt lat="43.5186383" lon="12.9719033"><ele>208.0</ele><time>2026-04-25T07:27:30.95Z</time></trkpt><trkpt lat="43.51851" lon="12.97176"><ele>209.0</ele><time>2026-04-25T07:27:31.946Z</time></trkpt><trkpt lat="43.5183783" lon="12.971615"><ele>209.0</ele><time>2026-04-25T07:27:32.945Z</time></trkpt><trkpt lat="43.518245" lon="12.9714767"><ele>209.0</ele><time>2026-04-25T07:27:33.944Z</time></trkpt><trkpt lat="43.51811" lon="12.9713383"><ele>209.0</ele><time>2026-04-25T07:27:34.999Z</time></trkpt><trkpt lat="43.5179783" lon="12.9711983"><ele>208.0</ele><time>2026-04-25T07:27:35.939Z</time></trkpt><trkpt lat="43.5178483" lon="12.97105"><ele>207.0</ele><time>2026-04-25T07:27:36.943Z</time></trkpt><trkpt lat="43.5177183" lon="12.970915"><ele>206.0</ele><time>2026-04-25T07:27:37.942Z</time></trkpt><trkpt lat="43.5175933" lon="12.9707833"><ele>209.0</ele><time>2026-04-25T07:27:38.945Z</time></trkpt><trkpt lat="43.51747" lon="12.9706517"><ele>212.0</ele><time>2026-04-25T07:27:39.946Z</time></trkpt><trkpt lat="43.5173433" lon="12.970515"><ele>215.0</ele><time>2026-04-25T07:27:40.997Z</time></trkpt><trkpt lat="43.5172283" lon="12.9703767"><ele>215.0</ele><time>2026-04-25T07:27:41.944Z</time></trkpt><trkpt lat="43.5171067" lon="12.97024"><ele>215.0</ele><time>2026-04-25T07:27:42.946Z</time></trkpt><trkpt lat="43.5169817" lon="12.9701017"><ele>215.0</ele><time>2026-04-25T07:27:43.945Z</time></trkpt><trkpt lat="43.51686" lon="12.9699567"><ele>215.0</ele><time>2026-04-25T07:27:44.944Z</time></trkpt><trkpt lat="43.5167467" lon="12.96981"><ele>215.0</ele><time>2026-04-25T07:27:45.947Z</time></trkpt><trkpt lat="43.516625" lon="12.9696567"><ele>215.0</ele><time>2026-04-25T07:27:46.998Z</time></trkpt><trkpt lat="43.5165" lon="12.969505"><ele>215.0</ele><time>2026-04-25T07:27:47.944Z</time></trkpt><trkpt lat="43.5163717" lon="12.9693517"><ele>215.0</ele><time>2026-04-25T07:27:48.945Z</time></trkpt><trkpt lat="43.51625" lon="12.96919"><ele>215.0</ele><time>2026-04-25T07:27:49.934Z</time></trkpt><trkpt lat="43.5161233" lon="12.9690333"><ele>215.33333333333334</ele><time>2026-04-25T07:27:50.942Z</time></trkpt><trkpt lat="43.515995" lon="12.9688733"><ele>215.66666666666669</ele><time>2026-04-25T07:27:51.948Z</time></trkpt><trkpt lat="43.5158717" lon="12.968715"><ele>216.0</ele><time>2026-04-25T07:27:53.017Z</time></trkpt><trkpt lat="43.5157467" lon="12.9685667"><ele>216.0</ele><time>2026-04-25T07:27:53.941Z</time></trkpt><trkpt lat="43.5156317" lon="12.9684117"><ele>216.0</ele><time>2026-04-25T07:27:54.952Z</time></trkpt><trkpt lat="43.5155217" lon="12.9682567"><ele>216.0</ele><time>2026-04-25T07:27:55.945Z</time></trkpt><trkpt lat="43.5154117" lon="12.9681033"><ele>218.0</ele><time>2026-04-25T07:27:56.946Z</time></trkpt><trkpt lat="43.51531" lon="12.9679433"><ele>220.0</ele><time>2026-04-25T07:27:57.937Z</time></trkpt><trkpt lat="43.5152133" lon="12.96778"><ele>222.0</ele><time>2026-04-25T07:27:59.006Z</time></trkpt><trkpt lat="43.515115" lon="12.9676117"><ele>224.33333333333331</ele><time>2026-04-25T07:27:59.937Z</time></trkpt><trkpt lat="43.5150233" lon="12.9674367"><ele>226.66666666666666</ele><time>2026-04-25T07:28:00.94Z</time></trkpt><trkpt lat="43.51494" lon="12.967265"><ele>229.0</ele><time>2026-04-25T07:28:01.935Z</time></trkpt><trkpt lat="43.5148617" lon="12.9670967"><ele>229.0</ele><time>2026-04-25T07:28:02.938Z</time></trkpt><trkpt lat="43.5147817" lon="12.9669333"><ele>229.0</ele><time>2026-04-25T07:28:03.932Z</time></trkpt><trkpt lat="43.5147017" lon="12.9667767"><ele>229.0</ele><time>2026-04-25T07:28:04.992Z</time></trkpt><trkpt lat="43.5146267" lon="12.9666217"><ele>229.0</ele><time>2026-04-25T07:28:05.941Z</time></trkpt><trkpt lat="43.5145533" lon="12.96646"><ele>229.5</ele><time>2026-04-25T07:28:06.932Z</time></trkpt><trkpt lat="43.514475" lon="12.966295"><ele>230.0</ele><time>2026-04-25T07:28:07.931Z</time></trkpt><trkpt lat="43.5143967" lon="12.96614"><ele>230.5</ele><time>2026-04-25T07:28:08.944Z</time></trkpt><trkpt lat="43.514315" lon="12.9659817"><ele>231.0</ele><time>2026-04-25T07:28:09.935Z</time></trkpt><trkpt lat="43.5142383" lon="12.9658183"><ele>232.75</ele><time>2026-04-25T07:28:10.999Z</time></trkpt><trkpt lat="43.5141617" lon="12.96566"><ele>234.5</ele><time>2026-04-25T07:28:11.94Z</time></trkpt><trkpt lat="43.5140883" lon="12.965495"><ele>236.25</ele><time>2026-04-25T07:28:12.946Z</time></trkpt><trkpt lat="43.514015" lon="12.9653183"><ele>238.0</ele><time>2026-04-25T07:28:13.941Z</time></trkpt><trkpt lat="43.51393" lon="12.9651367"><ele>240.0</ele><time>2026-04-25T07:28:14.945Z</time></trkpt><trkpt lat="43.5138433" lon="12.9649517"><ele>242.0</ele><time>2026-04-25T07:28:15.943Z</time></trkpt><trkpt lat="43.5137567" lon="12.964765"><ele>244.0</ele><time>2026-04-25T07:28:17Z</time></trkpt><trkpt lat="43.51367" lon="12.96457"><ele>243.33333333333331</ele><time>2026-04-25T07:28:17.945Z</time></trkpt><trkpt lat="43.51358" lon="12.9643817"><ele>242.66666666666669</ele><time>2026-04-25T07:28:18.939Z</time></trkpt><trkpt lat="43.5134883" lon="12.9641933"><ele>242.0</ele><time>2026-04-25T07:28:19.945Z</time></trkpt><trkpt lat="43.5133983" lon="12.9640017"><ele>242.0</ele><time>2026-04-25T07:28:20.946Z</time></trkpt><trkpt lat="43.5133133" lon="12.9638067"><ele>242.0</ele><time>2026-04-25T07:28:21.945Z</time></trkpt><trkpt lat="43.5132283" lon="12.9636183"><ele>242.0</ele><time>2026-04-25T07:28:23.001Z</time></trkpt><trkpt lat="43.5131417" lon="12.9634317"><ele>241.33333333333334</ele><time>2026-04-25T07:28:23.938Z</time></trkpt><trkpt lat="43.513055" lon="12.9632467"><ele>240.66666666666669</ele><time>2026-04-25T07:28:24.945Z</time></trkpt><trkpt lat="43.5129667" lon="12.9630633"><ele>240.0</ele><time>2026-04-25T07:28:25.946Z</time></trkpt><trkpt lat="43.5128833" lon="12.9628733"><ele>240.0</ele><time>2026-04-25T07:28:26.943Z</time></trkpt><trkpt lat="43.5127983" lon="12.9626917"><ele>240.0</ele><time>2026-04-25T07:28:27.943Z</time></trkpt><trkpt lat="43.5127167" lon="12.9625067"><ele>240.0</ele><time>2026-04-25T07:28:29.002Z</time></trkpt><trkpt lat="43.5126383" lon="12.9623167"><ele>242.33333333333331</ele><time>2026-04-25T07:28:29.94Z</time></trkpt><trkpt lat="43.5125533" lon="12.9621267"><ele>244.66666666666666</ele><time>2026-04-25T07:28:30.946Z</time></trkpt><trkpt lat="43.5124683" lon="12.96193"><ele>247.0</ele><time>2026-04-25T07:28:31.941Z</time></trkpt><trkpt lat="43.51238" lon="12.9617317"><ele>249.0</ele><time>2026-04-25T07:28:32.949Z</time></trkpt><trkpt lat="43.5122917" lon="12.9615433"><ele>251.0</ele><time>2026-04-25T07:28:33.939Z</time></trkpt><trkpt lat="43.5122017" lon="12.9613483"><ele>253.0</ele><time>2026-04-25T07:28:35Z</time></trkpt><trkpt lat="43.5121083" lon="12.96116"><ele>251.33333333333331</ele><time>2026-04-25T07:28:35.935Z</time></trkpt><trkpt lat="43.5120167" lon="12.960975"><ele>249.66666666666669</ele><time>2026-04-25T07:28:36.94Z</time></trkpt><trkpt lat="43.51192" lon="12.9607983"><ele>248.0</ele><time>2026-04-25T07:28:37.951Z</time></trkpt><trkpt lat="43.5118333" lon="12.96062"><ele>248.0</ele><time>2026-04-25T07:28:38.944Z</time></trkpt><trkpt lat="43.51175" lon="12.9604317"><ele>248.0</ele><time>2026-04-25T07:28:39.945Z</time></trkpt><trkpt lat="43.511675" lon="12.96024"><ele>248.0</ele><time>2026-04-25T07:28:40.999Z</time></trkpt><trkpt lat="43.5116033" lon="12.960045"><ele>251.0</ele><time>2026-04-25T07:28:41.949Z</time></trkpt><trkpt lat="43.5115333" lon="12.9598467"><ele>254.0</ele><time>2026-04-25T07:28:42.949Z</time></trkpt><trkpt lat="43.511465" lon="12.959645"><ele>257.0</ele><time>2026-04-25T07:28:43.944Z</time></trkpt><trkpt lat="43.511395" lon="12.95945"><ele>257.0</ele><time>2026-04-25T07:28:44.95Z</time></trkpt><trkpt lat="43.5113283" lon="12.9592617"><ele>257.0</ele><time>2026-04-25T07:28:45.945Z</time></trkpt><trkpt lat="43.5112567" lon="12.9590783"><ele>257.0</ele><time>2026-04-25T07:28:47.002Z</time></trkpt><trkpt lat="43.5111933" lon="12.9588983"><ele>257.0</ele><time>2026-04-25T07:28:47.944Z</time></trkpt><trkpt lat="43.511125" lon="12.9587183"><ele>257.0</ele><time>2026-04-25T07:28:48.946Z</time></trkpt><trkpt lat="43.5110583" lon="12.95854"><ele>257.0</ele><time>2026-04-25T07:28:49.943Z</time></trkpt><trkpt lat="43.51099" lon="12.9583633"><ele>257.0</ele><time>2026-04-25T07:28:50.943Z</time></trkpt><trkpt lat="43.5109067" lon="12.9581883"><ele>257.0</ele><time>2026-04-25T07:28:51.942Z</time></trkpt><trkpt lat="43.5108033" lon="12.9580167"><ele>259.33333333333337</ele><time>2026-04-25T07:28:53.01Z</time></trkpt><trkpt lat="43.5106933" lon="12.957855"><ele>261.6666666666667</ele><time>2026-04-25T07:28:53.95Z</time></trkpt><trkpt lat="43.51057" lon="12.9576917"><ele>264.0</ele><time>2026-04-25T07:28:54.946Z</time></trkpt><trkpt lat="43.51045" lon="12.95753"><ele>264.3333333333333</ele><time>2026-04-25T07:28:55.945Z</time></trkpt><trkpt lat="43.5103317" lon="12.95737"><ele>264.66666666666663</ele><time>2026-04-25T07:28:56.943Z</time></trkpt><trkpt lat="43.5102117" lon="12.9572067"><ele>265.0</ele><time>2026-04-25T07:28:57.947Z</time></trkpt><trkpt lat="43.5100917" lon="12.9570483"><ele>265.0</ele><time>2026-04-25T07:28:59.005Z</time></trkpt><trkpt lat="43.5099717" lon="12.95689"><ele>265.0</ele><time>2026-04-25T07:28:59.942Z</time></trkpt><trkpt lat="43.5098483" lon="12.956735"><ele>265.0</ele><time>2026-04-25T07:29:00.944Z</time></trkpt><trkpt lat="43.5097233" lon="12.956585"><ele>266.66666666666663</ele><time>2026-04-25T07:29:01.942Z</time></trkpt><trkpt lat="43.50959" lon="12.95644"><ele>268.3333333333333</ele><time>2026-04-25T07:29:02.945Z</time></trkpt><trkpt lat="43.5094567" lon="12.9563"><ele>270.0</ele><time>2026-04-25T07:29:03.945Z</time></trkpt><trkpt lat="43.5093283" lon="12.956155"><ele>270.0</ele><time>2026-04-25T07:29:05.002Z</time></trkpt><trkpt lat="43.5092017" lon="12.9560067"><ele>270.0</ele><time>2026-04-25T07:29:05.944Z</time></trkpt><trkpt lat="43.5090717" lon="12.9558633"><ele>270.0</ele><time>2026-04-25T07:29:06.944Z</time></trkpt><trkpt lat="43.50894" lon="12.9557167"><ele>272.0</ele><time>2026-04-25T07:29:07.946Z</time></trkpt><trkpt lat="43.50881" lon="12.9555667"><ele>274.0</ele><time>2026-04-25T07:29:08.948Z</time></trkpt><trkpt lat="43.50868" lon="12.9554217"><ele>276.0</ele><time>2026-04-25T07:29:09.946Z</time></trkpt><trkpt lat="43.5085483" lon="12.955275"><ele>276.0</ele><time>2026-04-25T07:29:10.998Z</time></trkpt><trkpt lat="43.5084167" lon="12.955135"><ele>276.0</ele><time>2026-04-25T07:29:11.95Z</time></trkpt><trkpt lat="43.5082833" lon="12.9550033"><ele>276.0</ele><time>2026-04-25T07:29:12.944Z</time></trkpt><trkpt lat="43.5081483" lon="12.954875"><ele>280.3333333333333</ele><time>2026-04-25T07:29:13.952Z</time></trkpt><trkpt lat="43.508015" lon="12.9547433"><ele>284.66666666666663</ele><time>2026-04-25T07:29:14.95Z</time></trkpt><trkpt lat="43.5078933" lon="12.9546"><ele>289.0</ele><time>2026-04-25T07:29:15.947Z</time></trkpt><trkpt lat="43.5077767" lon="12.9544567"><ele>289.0</ele><time>2026-04-25T07:29:17.005Z</time></trkpt><trkpt lat="43.5076617" lon="12.954305"><ele>289.0</ele><time>2026-04-25T07:29:17.943Z</time></trkpt><trkpt lat="43.5075617" lon="12.9541383"><ele>289.0</ele><time>2026-04-25T07:29:18.945Z</time></trkpt><trkpt lat="43.5074683" lon="12.9539683"><ele>293.3333333333333</ele><time>2026-04-25T07:29:19.945Z</time></trkpt><trkpt lat="43.507385" lon="12.953785"><ele>297.6666666666667</ele><time>2026-04-25T07:29:20.947Z</time></trkpt><trkpt lat="43.5072983" lon="12.9535983"><ele>302.0</ele><time>2026-04-25T07:29:21.945Z</time></trkpt><trkpt lat="43.50721" lon="12.9534067"><ele>306.0</ele><time>2026-04-25T07:29:22.97Z</time></trkpt><trkpt lat="43.507115" lon="12.95322"><ele>310.0</ele><time>2026-04-25T07:29:23.944Z</time></trkpt><trkpt lat="43.5070167" lon="12.9530367"><ele>314.0</ele><time>2026-04-25T07:29:24.947Z</time></trkpt><trkpt lat="43.5069167" lon="12.95286"><ele>314.33333333333337</ele><time>2026-04-25T07:29:25.943Z</time></trkpt><trkpt lat="43.5068133" lon="12.9527"><ele>314.6666666666667</ele><time>2026-04-25T07:29:26.945Z</time></trkpt><trkpt lat="43.5067067" lon="12.952555"><ele>315.0</ele><time>2026-04-25T07:29:27.946Z</time></trkpt><trkpt lat="43.5065867" lon="12.9524333"><ele>318.0</ele><time>2026-04-25T07:29:28.997Z</time></trkpt><trkpt lat="43.5064633" lon="12.95232"><ele>321.0</ele><time>2026-04-25T07:29:29.941Z</time></trkpt><trkpt lat="43.5063333" lon="12.9522067"><ele>324.0</ele><time>2026-04-25T07:29:30.948Z</time></trkpt><trkpt lat="43.5061917" lon="12.952105"><ele>325.3333333333333</ele><time>2026-04-25T07:29:31.941Z</time></trkpt><trkpt lat="43.50605" lon="12.9520083"><ele>326.66666666666663</ele><time>2026-04-25T07:29:32.945Z</time></trkpt><trkpt lat="43.50591" lon="12.9518883"><ele>328.0</ele><time>2026-04-25T07:29:33.946Z</time></trkpt><trkpt lat="43.5057717" lon="12.9517567"><ele>329.0</ele><time>2026-04-25T07:29:34.999Z</time></trkpt><trkpt lat="43.50564" lon="12.9516133"><ele>330.0</ele><time>2026-04-25T07:29:35.95Z</time></trkpt><trkpt lat="43.5055083" lon="12.9514683"><ele>331.0</ele><time>2026-04-25T07:29:36.948Z</time></trkpt><trkpt lat="43.50538" lon="12.9513133"><ele>331.0</ele><time>2026-04-25T07:29:37.95Z</time></trkpt><trkpt lat="43.50526" lon="12.9511583"><ele>331.0</ele><time>2026-04-25T07:29:38.946Z</time></trkpt><trkpt lat="43.5051533" lon="12.9510183"><ele>331.0</ele><time>2026-04-25T07:29:39.951Z</time></trkpt><trkpt lat="43.505065" lon="12.9508817"><ele>331.0</ele><time>2026-04-25T07:29:40.992Z</time></trkpt><trkpt lat="43.5049867" lon="12.9507433"><ele>335.0</ele><time>2026-04-25T07:29:41.948Z</time></trkpt><trkpt lat="43.50492" lon="12.95059"><ele>339.0</ele><time>2026-04-25T07:29:42.945Z</time></trkpt><trkpt lat="43.50486" lon="12.9504267"><ele>343.0</ele><time>2026-04-25T07:29:43.944Z</time></trkpt><trkpt lat="43.504805" lon="12.9502583"><ele>347.0</ele><time>2026-04-25T07:29:44.944Z</time></trkpt><trkpt lat="43.5047567" lon="12.95008"><ele>348.25</ele><time>2026-04-25T07:29:45.943Z</time></trkpt><trkpt lat="43.5047167" lon="12.949895"><ele>349.5</ele><time>2026-04-25T07:29:46.998Z</time></trkpt><trkpt lat="43.5046817" lon="12.949705"><ele>350.75</ele><time>2026-04-25T07:29:47.939Z</time></trkpt><trkpt lat="43.5046583" lon="12.9495117"><ele>352.0</ele><time>2026-04-25T07:29:48.94Z</time></trkpt><trkpt lat="43.504635" lon="12.9493283"><ele>352.0</ele><time>2026-04-25T07:29:49.933Z</time></trkpt><trkpt lat="43.504615" lon="12.9491583"><ele>352.0</ele><time>2026-04-25T07:29:50.938Z</time></trkpt><trkpt lat="43.5045783" lon="12.9490083"><ele>352.0</ele><time>2026-04-25T07:29:51.94Z</time></trkpt><trkpt lat="43.5045133" lon="12.9488967"><ele>352.0</ele><time>2026-04-25T07:29:53.011Z</time></trkpt><trkpt lat="43.5044467" lon="12.948805"><ele>352.0</ele><time>2026-04-25T07:29:53.939Z</time></trkpt><trkpt lat="43.50438" lon="12.9487183"><ele>352.0</ele><time>2026-04-25T07:29:54.938Z</time></trkpt><trkpt lat="43.5043233" lon="12.9486383"><ele>352.0</ele><time>2026-04-25T07:29:55.94Z</time></trkpt><trkpt lat="43.5042817" lon="12.948565"><ele>352.0</ele><time>2026-04-25T07:29:56.938Z</time></trkpt><trkpt lat="43.5042467" lon="12.9484567"><ele>352.0</ele><time>2026-04-25T07:29:59.002Z</time></trkpt><trkpt lat="43.5043283" lon="12.94843"><ele>352.0</ele><time>2026-04-25T07:30:00.935Z</time></trkpt><trkpt lat="43.5044" lon="12.948455"><ele>352.0</ele><time>2026-04-25T07:30:01.942Z</time></trkpt><trkpt lat="43.5044833" lon="12.94849"><ele>352.0</ele><time>2026-04-25T07:30:02.943Z</time></trkpt><trkpt lat="43.50456" lon="12.9485117"><ele>352.0</ele><time>2026-04-25T07:30:03.942Z</time></trkpt><trkpt lat="43.5046283" lon="12.9484767"><ele>352.0</ele><time>2026-04-25T07:30:04.999Z</time></trkpt><trkpt lat="43.5047" lon="12.9484033"><ele>352.0</ele><time>2026-04-25T07:30:05.939Z</time></trkpt><trkpt lat="43.5047717" lon="12.94831"><ele>352.0</ele><time>2026-04-25T07:30:06.943Z</time></trkpt><trkpt lat="43.50485" lon="12.94821"><ele>352.0</ele><time>2026-04-25T07:30:07.941Z</time></trkpt><trkpt lat="43.5049383" lon="12.9480983"><ele>354.0</ele><time>2026-04-25T07:30:08.947Z</time></trkpt><trkpt lat="43.5050233" lon="12.9479833"><ele>356.0</ele><time>2026-04-25T07:30:09.942Z</time></trkpt><trkpt lat="43.50512" lon="12.9478483"><ele>358.0</ele><time>2026-04-25T07:30:11Z</time></trkpt><trkpt lat="43.505215" lon="12.9477067"><ele>360.0</ele><time>2026-04-25T07:30:11.941Z</time></trkpt><trkpt lat="43.5053067" lon="12.9475633"><ele>359.25</ele><time>2026-04-25T07:30:12.946Z</time></trkpt><trkpt lat="43.5054017" lon="12.94744"><ele>358.5</ele><time>2026-04-25T07:30:13.943Z</time></trkpt><trkpt lat="43.5055133" lon="12.9473317"><ele>357.75</ele><time>2026-04-25T07:30:14.949Z</time></trkpt><trkpt lat="43.5056433" lon="12.9472383"><ele>357.0</ele><time>2026-04-25T07:30:15.945Z</time></trkpt><trkpt lat="43.5057783" lon="12.9471417"><ele>357.0</ele><time>2026-04-25T07:30:17Z</time></trkpt><trkpt lat="43.5059117" lon="12.94704"><ele>357.0</ele><time>2026-04-25T07:30:17.943Z</time></trkpt><trkpt lat="43.5060367" lon="12.9469383"><ele>357.0</ele><time>2026-04-25T07:30:18.943Z</time></trkpt><trkpt lat="43.5061533" lon="12.9468333"><ele>357.0</ele><time>2026-04-25T07:30:19.947Z</time></trkpt><trkpt lat="43.50627" lon="12.9467367"><ele>353.25</ele><time>2026-04-25T07:30:20.944Z</time></trkpt><trkpt lat="43.5063817" lon="12.94664"><ele>349.5</ele><time>2026-04-25T07:30:21.943Z</time></trkpt><trkpt lat="43.5064883" lon="12.9465367"><ele>345.75</ele><time>2026-04-25T07:30:23.012Z</time></trkpt><trkpt lat="43.5065967" lon="12.94645"><ele>342.0</ele><time>2026-04-25T07:30:23.941Z</time></trkpt><trkpt lat="43.50671" lon="12.94638"><ele>342.0</ele><time>2026-04-25T07:30:24.944Z</time></trkpt><trkpt lat="43.5068317" lon="12.9463417"><ele>342.0</ele><time>2026-04-25T07:30:25.94Z</time></trkpt><trkpt lat="43.506955" lon="12.9463217"><ele>342.0</ele><time>2026-04-25T07:30:26.943Z</time></trkpt><trkpt lat="43.5070817" lon="12.9464217"><ele>342.0</ele><time>2026-04-25T07:30:27.944Z</time></trkpt><trkpt lat="43.5072083" lon="12.9465617"><ele>341.3333333333333</ele><time>2026-04-25T07:30:28.978Z</time></trkpt><trkpt lat="43.507325" lon="12.9467167"><ele>340.66666666666663</ele><time>2026-04-25T07:30:29.941Z</time></trkpt><trkpt lat="43.50745" lon="12.9468883"><ele>340.0</ele><time>2026-04-25T07:30:30.945Z</time></trkpt><trkpt lat="43.50759" lon="12.9470717"><ele>340.0</ele><time>2026-04-25T07:30:31.944Z</time></trkpt><trkpt lat="43.5077283" lon="12.9472633"><ele>340.0</ele><time>2026-04-25T07:30:32.948Z</time></trkpt><trkpt lat="43.5078617" lon="12.9474567"><ele>340.0</ele><time>2026-04-25T07:30:33.944Z</time></trkpt><trkpt lat="43.5079967" lon="12.9476367"><ele>335.66666666666663</ele><time>2026-04-25T07:30:34.998Z</time></trkpt><trkpt lat="43.5081267" lon="12.947805"><ele>331.3333333333333</ele><time>2026-04-25T07:30:35.943Z</time></trkpt><trkpt lat="43.5082533" lon="12.9479733"><ele>327.0</ele><time>2026-04-25T07:30:36.934Z</time></trkpt><trkpt lat="43.508385" lon="12.9481367"><ele>327.0</ele><time>2026-04-25T07:30:37.945Z</time></trkpt><trkpt lat="43.5085167" lon="12.9482983"><ele>327.0</ele><time>2026-04-25T07:30:38.94Z</time></trkpt><trkpt lat="43.5086333" lon="12.9484583"><ele>327.0</ele><time>2026-04-25T07:30:39.934Z</time></trkpt><trkpt lat="43.5087183" lon="12.9486317"><ele>324.75</ele><time>2026-04-25T07:30:40.992Z</time></trkpt><trkpt lat="43.5088117" lon="12.9487933"><ele>322.5</ele><time>2026-04-25T07:30:41.936Z</time></trkpt><trkpt lat="43.508885" lon="12.9489583"><ele>320.25</ele><time>2026-04-25T07:30:42.936Z</time></trkpt><trkpt lat="43.50895" lon="12.9491217"><ele>318.0</ele><time>2026-04-25T07:30:43.937Z</time></trkpt><trkpt lat="43.5089883" lon="12.94928"><ele>322.0</ele><time>2026-04-25T07:30:44.944Z</time></trkpt><trkpt lat="43.5090233" lon="12.9494183"><ele>326.0</ele><time>2026-04-25T07:30:45.95Z</time></trkpt><trkpt lat="43.5090833" lon="12.9495167"><ele>330.0</ele><time>2026-04-25T07:30:46.992Z</time></trkpt><trkpt lat="43.5091467" lon="12.94956"><ele>334.0</ele><time>2026-04-25T07:30:47.942Z</time></trkpt><trkpt lat="43.5092367" lon="12.94956"><ele>338.0</ele><time>2026-04-25T07:30:48.942Z</time></trkpt><trkpt lat="43.509325" lon="12.9494983"><ele>338.0</ele><time>2026-04-25T07:30:49.942Z</time></trkpt><trkpt lat="43.5093883" lon="12.9494317"><ele>338.0</ele><time>2026-04-25T07:30:50.939Z</time></trkpt><trkpt lat="43.5093917" lon="12.949315"><ele>338.0</ele><time>2026-04-25T07:30:51.949Z</time></trkpt><trkpt lat="43.50939" lon="12.94914"><ele>338.0</ele><time>2026-04-25T07:30:53.005Z</time></trkpt><trkpt lat="43.5093383" lon="12.9489333"><ele>333.0</ele><time>2026-04-25T07:30:53.943Z</time></trkpt><trkpt lat="43.5093133" lon="12.9487133"><ele>328.0</ele><time>2026-04-25T07:30:54.94Z</time></trkpt><trkpt lat="43.50931" lon="12.9485333"><ele>323.0</ele><time>2026-04-25T07:30:55.939Z</time></trkpt><trkpt lat="43.5093283" lon="12.948385"><ele>318.0</ele><time>2026-04-25T07:30:56.945Z</time></trkpt><trkpt lat="43.5094167" lon="12.9482517"><ele>315.5</ele><time>2026-04-25T07:30:57.945Z</time></trkpt><trkpt lat="43.509515" lon="12.94812"><ele>313.0</ele><time>2026-04-25T07:30:58.997Z</time></trkpt><trkpt lat="43.5096233" lon="12.947985"><ele>310.5</ele><time>2026-04-25T07:30:59.936Z</time></trkpt><trkpt lat="43.50973" lon="12.9478583"><ele>308.0</ele><time>2026-04-25T07:31:00.941Z</time></trkpt><trkpt lat="43.5098217" lon="12.9477317"><ele>308.2</ele><time>2026-04-25T07:31:01.941Z</time></trkpt><trkpt lat="43.5099" lon="12.9476183"><ele>308.4</ele><time>2026-04-25T07:31:02.936Z</time></trkpt><trkpt lat="43.50997" lon="12.94752"><ele>308.59999999999997</ele><time>2026-04-25T07:31:03.937Z</time></trkpt><trkpt lat="43.51" lon="12.9474117"><ele>308.8</ele><time>2026-04-25T07:31:04.999Z</time></trkpt><trkpt lat="43.5099933" lon="12.9473"><ele>309.0</ele><time>2026-04-25T07:31:05.938Z</time></trkpt><trkpt lat="43.50996" lon="12.94718"><ele>309.0</ele><time>2026-04-25T07:31:06.942Z</time></trkpt><trkpt lat="43.5099033" lon="12.9470467"><ele>309.0</ele><time>2026-04-25T07:31:07.944Z</time></trkpt><trkpt lat="43.509825" lon="12.9469067"><ele>309.0</ele><time>2026-04-25T07:31:08.945Z</time></trkpt><trkpt lat="43.5097267" lon="12.9467683"><ele>309.0</ele><time>2026-04-25T07:31:09.942Z</time></trkpt><trkpt lat="43.509625" lon="12.9466233"><ele>308.0</ele><time>2026-04-25T07:31:10.999Z</time></trkpt><trkpt lat="43.50952" lon="12.946475"><ele>307.0</ele><time>2026-04-25T07:31:11.941Z</time></trkpt><trkpt lat="43.5094133" lon="12.946315"><ele>306.0</ele><time>2026-04-25T07:31:12.944Z</time></trkpt><trkpt lat="43.5092967" lon="12.9461633"><ele>306.0</ele><time>2026-04-25T07:31:13.945Z</time></trkpt><trkpt lat="43.5091817" lon="12.9460133"><ele>306.0</ele><time>2026-04-25T07:31:14.942Z</time></trkpt><trkpt lat="43.5090633" lon="12.945875"><ele>306.0</ele><time>2026-04-25T07:31:15.948Z</time></trkpt><trkpt lat="43.508925" lon="12.9457617"><ele>306.3333333333333</ele><time>2026-04-25T07:31:17.002Z</time></trkpt><trkpt lat="43.5087733" lon="12.945665"><ele>306.66666666666663</ele><time>2026-04-25T07:31:17.942Z</time></trkpt><trkpt lat="43.5086283" lon="12.945565"><ele>307.0</ele><time>2026-04-25T07:31:18.946Z</time></trkpt><trkpt lat="43.50849" lon="12.94548"><ele>307.0</ele><time>2026-04-25T07:31:19.934Z</time></trkpt><trkpt lat="43.5083567" lon="12.9453917"><ele>307.0</ele><time>2026-04-25T07:31:20.943Z</time></trkpt><trkpt lat="43.5082717" lon="12.9452717"><ele>307.0</ele><time>2026-04-25T07:31:21.944Z</time></trkpt><trkpt lat="43.5082167" lon="12.9451317"><ele>307.0</ele><time>2026-04-25T07:31:23.002Z</time></trkpt><trkpt lat="43.5081767" lon="12.9449717"><ele>309.5</ele><time>2026-04-25T07:31:23.937Z</time></trkpt><trkpt lat="43.508145" lon="12.9447917"><ele>312.0</ele><time>2026-04-25T07:31:24.942Z</time></trkpt><trkpt lat="43.5081017" lon="12.9446083"><ele>314.5</ele><time>2026-04-25T07:31:25.942Z</time></trkpt><trkpt lat="43.50804" lon="12.94444"><ele>317.0</ele><time>2026-04-25T07:31:26.946Z</time></trkpt><trkpt lat="43.5079533" lon="12.9442967"><ele>317.33333333333337</ele><time>2026-04-25T07:31:27.948Z</time></trkpt><trkpt lat="43.5078233" lon="12.9441867"><ele>317.6666666666667</ele><time>2026-04-25T07:31:29.007Z</time></trkpt><trkpt lat="43.5076883" lon="12.9440733"><ele>318.0</ele><time>2026-04-25T07:31:29.941Z</time></trkpt><trkpt lat="43.5075583" lon="12.943945"><ele>318.0</ele><time>2026-04-25T07:31:30.938Z</time></trkpt><trkpt lat="43.5074283" lon="12.9437917"><ele>318.0</ele><time>2026-04-25T07:31:31.946Z</time></trkpt><trkpt lat="43.5073067" lon="12.943615"><ele>318.0</ele><time>2026-04-25T07:31:32.944Z</time></trkpt><trkpt lat="43.5071783" lon="12.9434367"><ele>318.6666666666667</ele><time>2026-04-25T07:31:33.947Z</time></trkpt><trkpt lat="43.507045" lon="12.943255"><ele>319.33333333333337</ele><time>2026-04-25T07:31:34.999Z</time></trkpt><trkpt lat="43.5069167" lon="12.9430717"><ele>320.0</ele><time>2026-04-25T07:31:35.945Z</time></trkpt><trkpt lat="43.5067933" lon="12.942885"><ele>320.0</ele><time>2026-04-25T07:31:36.943Z</time></trkpt><trkpt lat="43.5066783" lon="12.9426883"><ele>320.0</ele><time>2026-04-25T07:31:37.938Z</time></trkpt><trkpt lat="43.50657" lon="12.942485"><ele>320.0</ele><time>2026-04-25T07:31:38.94Z</time></trkpt><trkpt lat="43.506465" lon="12.9422767"><ele>321.33333333333337</ele><time>2026-04-25T07:31:39.943Z</time></trkpt><trkpt lat="43.5063567" lon="12.9420683"><ele>322.6666666666667</ele><time>2026-04-25T07:31:40.994Z</time></trkpt><trkpt lat="43.50625" lon="12.9418617"><ele>324.0</ele><time>2026-04-25T07:31:41.939Z</time></trkpt><trkpt lat="43.50614" lon="12.9416533"><ele>324.0</ele><time>2026-04-25T07:31:42.945Z</time></trkpt><trkpt lat="43.5060417" lon="12.9414383"><ele>324.0</ele><time>2026-04-25T07:31:43.942Z</time></trkpt><trkpt lat="43.5059683" lon="12.9412167"><ele>324.0</ele><time>2026-04-25T07:31:44.944Z</time></trkpt><trkpt lat="43.50589" lon="12.941"><ele>330.3333333333333</ele><time>2026-04-25T07:31:45.941Z</time></trkpt><trkpt lat="43.5058033" lon="12.9407883"><ele>336.66666666666663</ele><time>2026-04-25T07:31:46.998Z</time></trkpt><trkpt lat="43.5057083" lon="12.94058"><ele>343.0</ele><time>2026-04-25T07:31:47.945Z</time></trkpt><trkpt lat="43.5055783" lon="12.9403917"><ele>343.0</ele><time>2026-04-25T07:31:48.943Z</time></trkpt><trkpt lat="43.505445" lon="12.940205"><ele>343.0</ele><time>2026-04-25T07:31:49.943Z</time></trkpt><trkpt lat="43.50532" lon="12.9400133"><ele>343.0</ele><time>2026-04-25T07:31:50.944Z</time></trkpt><trkpt lat="43.50519" lon="12.93982"><ele>339.3333333333333</ele><time>2026-04-25T07:31:51.943Z</time></trkpt><trkpt lat="43.5050633" lon="12.9396333"><ele>335.6666666666667</ele><time>2026-04-25T07:31:53.004Z</time></trkpt><trkpt lat="43.5049417" lon="12.9394433"><ele>332.0</ele><time>2026-04-25T07:31:53.939Z</time></trkpt><trkpt lat="43.5048217" lon="12.9392467"><ele>332.0</ele><time>2026-04-25T07:31:54.943Z</time></trkpt><trkpt lat="43.5047033" lon="12.9390517"><ele>332.0</ele><time>2026-04-25T07:31:55.948Z</time></trkpt><trkpt lat="43.5045783" lon="12.9388567"><ele>332.0</ele><time>2026-04-25T07:31:56.951Z</time></trkpt><trkpt lat="43.5044467" lon="12.9386733"><ele>332.0</ele><time>2026-04-25T07:31:57.941Z</time></trkpt><trkpt lat="43.504315" lon="12.9384917"><ele>332.0</ele><time>2026-04-25T07:31:59.01Z</time></trkpt><trkpt lat="43.50419" lon="12.938305"><ele>332.0</ele><time>2026-04-25T07:31:59.948Z</time></trkpt><trkpt lat="43.5040667" lon="12.938125"><ele>335.0</ele><time>2026-04-25T07:32:00.944Z</time></trkpt><trkpt lat="43.503945" lon="12.937955"><ele>338.0</ele><time>2026-04-25T07:32:01.944Z</time></trkpt><trkpt lat="43.5038117" lon="12.937805"><ele>341.0</ele><time>2026-04-25T07:32:02.944Z</time></trkpt><trkpt lat="43.5036783" lon="12.937665"><ele>340.6666666666667</ele><time>2026-04-25T07:32:03.94Z</time></trkpt><trkpt lat="43.503545" lon="12.9375383"><ele>340.3333333333333</ele><time>2026-04-25T07:32:04.995Z</time></trkpt><trkpt lat="43.5034017" lon="12.9374267"><ele>340.0</ele><time>2026-04-25T07:32:05.94Z</time></trkpt><trkpt lat="43.5032567" lon="12.9373117"><ele>340.0</ele><time>2026-04-25T07:32:06.939Z</time></trkpt><trkpt lat="43.5031183" lon="12.9371883"><ele>340.0</ele><time>2026-04-25T07:32:07.94Z</time></trkpt><trkpt lat="43.5030033" lon="12.937035"><ele>340.0</ele><time>2026-04-25T07:32:08.943Z</time></trkpt><trkpt lat="43.502895" lon="12.9368683"><ele>341.66666666666663</ele><time>2026-04-25T07:32:09.941Z</time></trkpt><trkpt lat="43.5027833" lon="12.9366967"><ele>343.3333333333333</ele><time>2026-04-25T07:32:10.998Z</time></trkpt><trkpt lat="43.5026883" lon="12.9365183"><ele>345.0</ele><time>2026-04-25T07:32:11.942Z</time></trkpt><trkpt lat="43.5026367" lon="12.9363283"><ele>345.0</ele><time>2026-04-25T07:32:12.943Z</time></trkpt><trkpt lat="43.5026333" lon="12.9361317"><ele>345.0</ele><time>2026-04-25T07:32:13.934Z</time></trkpt><trkpt lat="43.5026183" lon="12.9359233"><ele>345.0</ele><time>2026-04-25T07:32:14.943Z</time></trkpt><trkpt lat="43.50261" lon="12.93571"><ele>345.0</ele><time>2026-04-25T07:32:15.945Z</time></trkpt><trkpt lat="43.502605" lon="12.9354983"><ele>344.25</ele><time>2026-04-25T07:32:16.999Z</time></trkpt><trkpt lat="43.5026" lon="12.9352917"><ele>343.5</ele><time>2026-04-25T07:32:17.937Z</time></trkpt><trkpt lat="43.5025733" lon="12.9351067"><ele>342.75</ele><time>2026-04-25T07:32:18.943Z</time></trkpt><trkpt lat="43.502505" lon="12.934945"><ele>342.0</ele><time>2026-04-25T07:32:19.944Z</time></trkpt><trkpt lat="43.5024217" lon="12.93478"><ele>344.3333333333333</ele><time>2026-04-25T07:32:20.943Z</time></trkpt><trkpt lat="43.502315" lon="12.9346183"><ele>346.66666666666663</ele><time>2026-04-25T07:32:21.942Z</time></trkpt><trkpt lat="43.5022133" lon="12.9344483"><ele>349.0</ele><time>2026-04-25T07:32:23.007Z</time></trkpt><trkpt lat="43.50211" lon="12.9342733"><ele>350.0</ele><time>2026-04-25T07:32:23.94Z</time></trkpt><trkpt lat="43.502" lon="12.934105"><ele>351.0</ele><time>2026-04-25T07:32:24.942Z</time></trkpt><trkpt lat="43.5018817" lon="12.933955"><ele>352.0</ele><time>2026-04-25T07:32:25.946Z</time></trkpt><trkpt lat="43.5017483" lon="12.93384"><ele>352.0</ele><time>2026-04-25T07:32:26.943Z</time></trkpt><trkpt lat="43.5016" lon="12.9337433"><ele>352.0</ele><time>2026-04-25T07:32:27.946Z</time></trkpt><trkpt lat="43.501445" lon="12.9336517"><ele>352.0</ele><time>2026-04-25T07:32:28.993Z</time></trkpt><trkpt lat="43.5012767" lon="12.9335633"><ele>353.3333333333333</ele><time>2026-04-25T07:32:29.937Z</time></trkpt><trkpt lat="43.5011117" lon="12.9334767"><ele>354.6666666666667</ele><time>2026-04-25T07:32:30.939Z</time></trkpt><trkpt lat="43.5009483" lon="12.9333983"><ele>356.0</ele><time>2026-04-25T07:32:31.947Z</time></trkpt><trkpt lat="43.50079" lon="12.9333333"><ele>356.25</ele><time>2026-04-25T07:32:32.951Z</time></trkpt><trkpt lat="43.5006417" lon="12.9332783"><ele>356.5</ele><time>2026-04-25T07:32:33.943Z</time></trkpt><trkpt lat="43.5005017" lon="12.9332267"><ele>356.75</ele><time>2026-04-25T07:32:34.999Z</time></trkpt><trkpt lat="43.5003683" lon="12.9331683"><ele>357.0</ele><time>2026-04-25T07:32:35.947Z</time></trkpt><trkpt lat="43.5002383" lon="12.933105"><ele>354.75</ele><time>2026-04-25T07:32:36.943Z</time></trkpt><trkpt lat="43.50012" lon="12.933025"><ele>352.5</ele><time>2026-04-25T07:32:37.949Z</time></trkpt><trkpt lat="43.4999983" lon="12.9329417"><ele>350.25</ele><time>2026-04-25T07:32:38.947Z</time></trkpt><trkpt lat="43.4998917" lon="12.932835"><ele>348.0</ele><time>2026-04-25T07:32:39.943Z</time></trkpt><trkpt lat="43.4997883" lon="12.9327217"><ele>348.0</ele><time>2026-04-25T07:32:41Z</time></trkpt><trkpt lat="43.4996917" lon="12.9326067"><ele>348.0</ele><time>2026-04-25T07:32:41.94Z</time></trkpt><trkpt lat="43.4995983" lon="12.9324917"><ele>348.0</ele><time>2026-04-25T07:32:42.948Z</time></trkpt><trkpt lat="43.4995067" lon="12.9323717"><ele>348.0</ele><time>2026-04-25T07:32:43.943Z</time></trkpt><trkpt lat="43.49941" lon="12.9322467"><ele>347.5</ele><time>2026-04-25T07:32:44.947Z</time></trkpt><trkpt lat="43.499315" lon="12.9321233"><ele>347.0</ele><time>2026-04-25T07:32:45.944Z</time></trkpt><trkpt lat="43.4992233" lon="12.9320017"><ele>346.5</ele><time>2026-04-25T07:32:47.007Z</time></trkpt><trkpt lat="43.4991333" lon="12.93188"><ele>346.0</ele><time>2026-04-25T07:32:47.94Z</time></trkpt><trkpt lat="43.499045" lon="12.9317583"><ele>346.25</ele><time>2026-04-25T07:32:48.943Z</time></trkpt><trkpt lat="43.4989667" lon="12.93164"><ele>346.5</ele><time>2026-04-25T07:32:49.946Z</time></trkpt><trkpt lat="43.4988883" lon="12.9315233"><ele>346.75</ele><time>2026-04-25T07:32:50.947Z</time></trkpt><trkpt lat="43.4988183" lon="12.9314083"><ele>347.0</ele><time>2026-04-25T07:32:51.944Z</time></trkpt><trkpt lat="43.4987467" lon="12.9312917"><ele>347.20000000000005</ele><time>2026-04-25T07:32:53.004Z</time></trkpt><trkpt lat="43.4986817" lon="12.9311667"><ele>347.4</ele><time>2026-04-25T07:32:53.944Z</time></trkpt><trkpt lat="43.4986333" lon="12.93103"><ele>347.6</ele><time>2026-04-25T07:32:54.942Z</time></trkpt><trkpt lat="43.4985917" lon="12.9309"><ele>347.79999999999995</ele><time>2026-04-25T07:32:55.945Z</time></trkpt><trkpt lat="43.49855" lon="12.93078"><ele>348.0</ele><time>2026-04-25T07:32:56.938Z</time></trkpt><trkpt lat="43.4985167" lon="12.9306617"><ele>348.0</ele><time>2026-04-25T07:32:57.936Z</time></trkpt><trkpt lat="43.49849" lon="12.9305533"><ele>348.0</ele><time>2026-04-25T07:32:59.002Z</time></trkpt><trkpt lat="43.4984733" lon="12.93045"><ele>348.0</ele><time>2026-04-25T07:32:59.937Z</time></trkpt><trkpt lat="43.49846" lon="12.9303617"><ele>348.0</ele><time>2026-04-25T07:33:00.939Z</time></trkpt><trkpt lat="43.4984483" lon="12.9302133"><ele>348.0</ele><time>2026-04-25T07:33:02.943Z</time></trkpt><trkpt lat="43.4984567" lon="12.9301"><ele>348.0</ele><time>2026-04-25T07:33:05.017Z</time></trkpt><trkpt lat="43.4985267" lon="12.930075"><ele>348.0</ele><time>2026-04-25T07:33:06.945Z</time></trkpt><trkpt lat="43.4985917" lon="12.9301067"><ele>348.0</ele><time>2026-04-25T07:33:08.946Z</time></trkpt><trkpt lat="43.49866" lon="12.930165"><ele>348.0</ele><time>2026-04-25T07:33:11.935Z</time></trkpt><trkpt lat="43.498715" lon="12.93021"><ele>348.0</ele><time>2026-04-25T07:33:14.943Z</time></trkpt><trkpt lat="43.4987783" lon="12.9302167"><ele>348.0</ele><time>2026-04-25T07:33:23.935Z</time></trkpt><trkpt lat="43.4988483" lon="12.9302417"><ele>348.0</ele><time>2026-04-25T07:33:26.94Z</time></trkpt><trkpt lat="43.4989433" lon="12.9301633"><ele>348.0</ele><time>2026-04-25T07:38:55.934Z</time></trkpt><trkpt lat="43.4988633" lon="12.930225"><ele>348.0</ele><time>2026-04-25T07:41:12.942Z</time></trkpt><trkpt lat="43.49888" lon="12.9303217"><ele>348.0</ele><time>2026-04-25T07:41:22.996Z</time></trkpt><trkpt lat="43.4988867" lon="12.9304217"><ele>348.0</ele><time>2026-04-25T07:41:24.94Z</time></trkpt><trkpt lat="43.4989117" lon="12.9305367"><ele>348.0</ele><time>2026-04-25T07:41:26.944Z</time></trkpt><trkpt lat="43.4989383" lon="12.9306617"><ele>348.0</ele><time>2026-04-25T07:41:28.991Z</time></trkpt><trkpt lat="43.4989567" lon="12.930765"><ele>348.0</ele><time>2026-04-25T07:41:31.937Z</time></trkpt><trkpt lat="43.4989933" lon="12.9306583"><ele>348.0</ele><time>2026-04-25T07:41:57.937Z</time></trkpt><trkpt lat="43.4990667" lon="12.9305283"><ele>348.0</ele><time>2026-04-25T07:41:59.938Z</time></trkpt><trkpt lat="43.4991267" lon="12.9303883"><ele>348.0</ele><time>2026-04-25T07:42:01.935Z</time></trkpt><trkpt lat="43.4991467" lon="12.9302467"><ele>348.0</ele><time>2026-04-25T07:42:03.942Z</time></trkpt><trkpt lat="43.49916" lon="12.9301233"><ele>350.0</ele><time>2026-04-25T07:42:05.943Z</time></trkpt><trkpt lat="43.4992033" lon="12.9300267"><ele>352.0</ele><time>2026-04-25T07:42:07.943Z</time></trkpt><trkpt lat="43.499255" lon="12.929925"><ele>354.0</ele><time>2026-04-25T07:42:09.958Z</time></trkpt><trkpt lat="43.4993133" lon="12.929835"><ele>356.0</ele><time>2026-04-25T07:42:11.93Z</time></trkpt><trkpt lat="43.4993983" lon="12.9297633"><ele>358.0</ele><time>2026-04-25T07:42:13.943Z</time></trkpt><trkpt lat="43.4995017" lon="12.9297"><ele>356.79999999999995</ele><time>2026-04-25T07:42:15.938Z</time></trkpt><trkpt lat="43.49959" lon="12.9296433"><ele>355.6</ele><time>2026-04-25T07:42:17.938Z</time></trkpt><trkpt lat="43.4996683" lon="12.9295767"><ele>354.4</ele><time>2026-04-25T07:42:19.935Z</time></trkpt><trkpt lat="43.4997467" lon="12.929505"><ele>353.20000000000005</ele><time>2026-04-25T07:42:21.936Z</time></trkpt><trkpt lat="43.49982" lon="12.9294667"><ele>352.0</ele><time>2026-04-25T07:42:23.934Z</time></trkpt><trkpt lat="43.4999083" lon="12.92942"><ele>352.0</ele><time>2026-04-25T07:42:25.941Z</time></trkpt><trkpt lat="43.5000033" lon="12.9293483"><ele>352.0</ele><time>2026-04-25T07:42:27.947Z</time></trkpt><trkpt lat="43.5000967" lon="12.9292717"><ele>352.0</ele><time>2026-04-25T07:42:29.942Z</time></trkpt><trkpt lat="43.500195" lon="12.929195"><ele>352.0</ele><time>2026-04-25T07:42:31.943Z</time></trkpt><trkpt lat="43.5002983" lon="12.9291483"><ele>352.0</ele><time>2026-04-25T07:42:33.94Z</time></trkpt><trkpt lat="43.5003617" lon="12.9291217"><ele>355.66666666666663</ele><time>2026-04-25T07:42:34.992Z</time></trkpt><trkpt lat="43.5004367" lon="12.92909"><ele>359.3333333333333</ele><time>2026-04-25T07:42:35.937Z</time></trkpt><trkpt lat="43.5005183" lon="12.9290567"><ele>363.0</ele><time>2026-04-25T07:42:36.941Z</time></trkpt><trkpt lat="43.5006059" lon="12.9290153"><ele>366.6666666666667</ele><time>2026-04-25T07:42:37.94Z</time></trkpt><trkpt lat="43.5006914" lon="12.928972"><ele>370.33333333333337</ele><time>2026-04-25T07:42:38.939Z</time></trkpt><trkpt lat="43.5007726" lon="12.9289336"><ele>374.0</ele><time>2026-04-25T07:42:39.942Z</time></trkpt><trkpt lat="43.5008538" lon="12.928893"><ele>374.0</ele><time>2026-04-25T07:42:40.991Z</time></trkpt><trkpt lat="43.5009279" lon="12.9288564"><ele>374.0</ele><time>2026-04-25T07:42:41.939Z</time></trkpt><trkpt lat="43.5009984" lon="12.928821"><ele>374.0</ele><time>2026-04-25T07:42:42.944Z</time></trkpt><trkpt lat="43.5010647" lon="12.928776"><ele>374.0</ele><time>2026-04-25T07:42:43.944Z</time></trkpt><trkpt lat="43.5011257" lon="12.9287303"><ele>374.0</ele><time>2026-04-25T07:42:44.944Z</time></trkpt><trkpt lat="43.5011842" lon="12.9286875"><ele>374.0</ele><time>2026-04-25T07:42:45.939Z</time></trkpt><trkpt lat="43.5012958" lon="12.9286209"><ele>379.0</ele><time>2026-04-25T07:42:47.952Z</time></trkpt><trkpt lat="43.5014034" lon="12.9285626"><ele>384.0</ele><time>2026-04-25T07:42:49.95Z</time></trkpt><trkpt lat="43.5014957" lon="12.9284912"><ele>389.0</ele><time>2026-04-25T07:42:51.944Z</time></trkpt><trkpt lat="43.5015758" lon="12.9283832"><ele>394.0</ele><time>2026-04-25T07:42:53.939Z</time></trkpt><trkpt lat="43.5016476" lon="12.9282817"><ele>399.0</ele><time>2026-04-25T07:42:55.945Z</time></trkpt><trkpt lat="43.5016941" lon="12.9281798"><ele>400.0</ele><time>2026-04-25T07:42:57.943Z</time></trkpt><trkpt lat="43.5017273" lon="12.9280642"><ele>401.0</ele><time>2026-04-25T07:42:59.939Z</time></trkpt><trkpt lat="43.5017496" lon="12.9279205"><ele>402.0</ele><time>2026-04-25T07:43:01.946Z</time></trkpt><trkpt lat="43.5016816" lon="12.927915"><ele>403.0</ele><time>2026-04-25T07:43:05.938Z</time></trkpt><trkpt lat="43.5016604" lon="12.9280026"><ele>404.0</ele><time>2026-04-25T07:43:08.944Z</time></trkpt><trkpt lat="43.5016639" lon="12.9279009"><ele>405.0</ele><time>2026-04-25T07:43:15.944Z</time></trkpt><trkpt lat="43.5016658" lon="12.927789"><ele>405.0</ele><time>2026-04-25T07:43:17.939Z</time></trkpt><trkpt lat="43.5016682" lon="12.9276799"><ele>405.0</ele><time>2026-04-25T07:43:19.942Z</time></trkpt><trkpt lat="43.501585" lon="12.9277017"><ele>405.0</ele><time>2026-04-25T07:43:57.943Z</time></trkpt><trkpt lat="43.5016117" lon="12.9278533"><ele>405.0</ele><time>2026-04-25T07:44:14.942Z</time></trkpt><trkpt lat="43.5016483" lon="12.92793"><ele>405.0</ele><time>2026-04-25T07:44:19.936Z</time></trkpt><trkpt lat="43.501675" lon="12.928035"><ele>405.0</ele><time>2026-04-25T07:44:28.988Z</time></trkpt><trkpt lat="43.5016833" lon="12.9281233"><ele>405.0</ele><time>2026-04-25T07:44:31.942Z</time></trkpt><trkpt lat="43.501635" lon="12.9282483"><ele>405.0</ele><time>2026-04-25T07:44:34.993Z</time></trkpt><trkpt lat="43.50157" lon="12.9283583"><ele>405.0</ele><time>2026-04-25T07:44:36.937Z</time></trkpt><trkpt lat="43.5015067" lon="12.9284283"><ele>405.0</ele><time>2026-04-25T07:44:37.937Z</time></trkpt><trkpt lat="43.5014467" lon="12.92849"><ele>405.0</ele><time>2026-04-25T07:44:38.934Z</time></trkpt><trkpt lat="43.50138" lon="12.9285283"><ele>405.0</ele><time>2026-04-25T07:44:39.942Z</time></trkpt><trkpt lat="43.5013217" lon="12.928565"><ele>399.8333333333333</ele><time>2026-04-25T07:44:40.992Z</time></trkpt><trkpt lat="43.501225" lon="12.9286367"><ele>394.6666666666667</ele><time>2026-04-25T07:44:42.943Z</time></trkpt><trkpt lat="43.5011583" lon="12.9286817"><ele>389.5</ele><time>2026-04-25T07:44:43.944Z</time></trkpt><trkpt lat="43.5011" lon="12.928715"><ele>384.33333333333337</ele><time>2026-04-25T07:44:44.943Z</time></trkpt><trkpt lat="43.501035" lon="12.9287483"><ele>379.1666666666667</ele><time>2026-04-25T07:44:45.94Z</time></trkpt><trkpt lat="43.5009667" lon="12.928785"><ele>374.0</ele><time>2026-04-25T07:44:46.986Z</time></trkpt><trkpt lat="43.5008933" lon="12.9288233"><ele>374.0</ele><time>2026-04-25T07:44:47.934Z</time></trkpt><trkpt lat="43.5008267" lon="12.9288533"><ele>374.0</ele><time>2026-04-25T07:44:48.943Z</time></trkpt><trkpt lat="43.5007533" lon="12.9288883"><ele>374.0</ele><time>2026-04-25T07:44:49.944Z</time></trkpt><trkpt lat="43.5006883" lon="12.9289233"><ele>374.0</ele><time>2026-04-25T07:44:50.944Z</time></trkpt><trkpt lat="43.5006167" lon="12.92896"><ele>374.0</ele><time>2026-04-25T07:44:51.944Z</time></trkpt><trkpt lat="43.50054" lon="12.9289917"><ele>374.0</ele><time>2026-04-25T07:44:53.009Z</time></trkpt><trkpt lat="43.500455" lon="12.929035"><ele>373.6666666666667</ele><time>2026-04-25T07:44:53.941Z</time></trkpt><trkpt lat="43.5003733" lon="12.9290717"><ele>373.33333333333337</ele><time>2026-04-25T07:44:54.941Z</time></trkpt><trkpt lat="43.5003" lon="12.9290983"><ele>373.0</ele><time>2026-04-25T07:44:55.94Z</time></trkpt><trkpt lat="43.5002317" lon="12.929125"><ele>372.6666666666667</ele><time>2026-04-25T07:44:56.935Z</time></trkpt><trkpt lat="43.50017" lon="12.9291467"><ele>372.3333333333333</ele><time>2026-04-25T07:44:57.944Z</time></trkpt><trkpt lat="43.5000733" lon="12.9292067"><ele>372.0</ele><time>2026-04-25T07:44:59.934Z</time></trkpt><trkpt lat="43.499995" lon="12.9292767"><ele>368.0</ele><time>2026-04-25T07:45:01.928Z</time></trkpt><trkpt lat="43.4999167" lon="12.9293333"><ele>364.0</ele><time>2026-04-25T07:45:03.938Z</time></trkpt><trkpt lat="43.49982" lon="12.9294067"><ele>360.0</ele><time>2026-04-25T07:45:05.942Z</time></trkpt><trkpt lat="43.4997517" lon="12.9294567"><ele>356.0</ele><time>2026-04-25T07:45:07.944Z</time></trkpt><trkpt lat="43.4996817" lon="12.9295233"><ele>352.0</ele><time>2026-04-25T07:45:09.935Z</time></trkpt><trkpt lat="43.4995867" lon="12.9296083"><ele>351.20000000000005</ele><time>2026-04-25T07:45:11.93Z</time></trkpt><trkpt lat="43.499495" lon="12.9296917"><ele>350.4</ele><time>2026-04-25T07:45:13.937Z</time></trkpt><trkpt lat="43.499415" lon="12.929765"><ele>349.6</ele><time>2026-04-25T07:45:15.937Z</time></trkpt><trkpt lat="43.49936" lon="12.929845"><ele>348.79999999999995</ele><time>2026-04-25T07:45:17.937Z</time></trkpt><trkpt lat="43.4993017" lon="12.9299467"><ele>348.0</ele><time>2026-04-25T07:45:19.939Z</time></trkpt><trkpt lat="43.49925" lon="12.9300817"><ele>348.0</ele><time>2026-04-25T07:45:21.943Z</time></trkpt><trkpt lat="43.4992067" lon="12.9302017"><ele>348.0</ele><time>2026-04-25T07:45:23.933Z</time></trkpt><trkpt lat="43.49919" lon="12.9302967"><ele>348.0</ele><time>2026-04-25T07:45:26.941Z</time></trkpt><trkpt lat="43.49917" lon="12.93043"><ele>348.0</ele><time>2026-04-25T07:45:29.936Z</time></trkpt><trkpt lat="43.4991383" lon="12.9305317"><ele>348.0</ele><time>2026-04-25T07:45:31.934Z</time></trkpt><trkpt lat="43.499095" lon="12.93063"><ele>348.0</ele><time>2026-04-25T07:45:33.934Z</time></trkpt><trkpt lat="43.49904" lon="12.9306867"><ele>348.0</ele><time>2026-04-25T07:45:35.942Z</time></trkpt><trkpt lat="43.4989667" lon="12.9306667"><ele>348.0</ele><time>2026-04-25T07:45:38.943Z</time></trkpt><trkpt lat="43.4989383" lon="12.9305667"><ele>348.0</ele><time>2026-04-25T07:45:40.986Z</time></trkpt><trkpt lat="43.4989017" lon="12.93041"><ele>348.0</ele><time>2026-04-25T07:45:42.941Z</time></trkpt><trkpt lat="43.498855" lon="12.9302933"><ele>348.0</ele><time>2026-04-25T07:45:44.941Z</time></trkpt><trkpt lat="43.498795" lon="12.930205"><ele>348.0</ele><time>2026-04-25T07:45:46.99Z</time></trkpt><trkpt lat="43.49872" lon="12.93012"><ele>348.0</ele><time>2026-04-25T07:45:48.937Z</time></trkpt><trkpt lat="43.49865" lon="12.9300667"><ele>348.0</ele><time>2026-04-25T07:45:50.935Z</time></trkpt><trkpt lat="43.4985667" lon="12.9300217"><ele>348.0</ele><time>2026-04-25T07:45:52.979Z</time></trkpt><trkpt lat="43.4985033" lon="12.9300117"><ele>348.0</ele><time>2026-04-25T07:45:53.933Z</time></trkpt><trkpt lat="43.4984017" lon="12.9299583"><ele>348.0</ele><time>2026-04-25T07:45:55.94Z</time></trkpt><trkpt lat="43.4983483" lon="12.92991"><ele>348.59999999999997</ele><time>2026-04-25T07:45:56.939Z</time></trkpt><trkpt lat="43.4982917" lon="12.9298133"><ele>349.2</ele><time>2026-04-25T07:45:57.938Z</time></trkpt><trkpt lat="43.4982467" lon="12.92971"><ele>349.8</ele><time>2026-04-25T07:45:59.002Z</time></trkpt><trkpt lat="43.4982067" lon="12.9295917"><ele>350.4</ele><time>2026-04-25T07:45:59.935Z</time></trkpt><trkpt lat="43.49816" lon="12.9294517"><ele>351.0</ele><time>2026-04-25T07:46:00.944Z</time></trkpt><trkpt lat="43.498105" lon="12.9292967"><ele>355.3333333333333</ele><time>2026-04-25T07:46:01.941Z</time></trkpt><trkpt lat="43.4980467" lon="12.9291117"><ele>359.66666666666663</ele><time>2026-04-25T07:46:02.941Z</time></trkpt><trkpt lat="43.49799" lon="12.9289167"><ele>364.0</ele><time>2026-04-25T07:46:03.943Z</time></trkpt><trkpt lat="43.4979267" lon="12.9287183"><ele>362.66666666666663</ele><time>2026-04-25T07:46:04.987Z</time></trkpt><trkpt lat="43.4978583" lon="12.9285117"><ele>361.3333333333333</ele><time>2026-04-25T07:46:05.935Z</time></trkpt><trkpt lat="43.49779" lon="12.9283083"><ele>360.0</ele><time>2026-04-25T07:46:06.942Z</time></trkpt><trkpt lat="43.4977233" lon="12.928105"><ele>361.3333333333333</ele><time>2026-04-25T07:46:07.94Z</time></trkpt><trkpt lat="43.4976533" lon="12.9278983"><ele>362.66666666666663</ele><time>2026-04-25T07:46:08.945Z</time></trkpt><trkpt lat="43.49758" lon="12.927695"><ele>364.0</ele><time>2026-04-25T07:46:09.95Z</time></trkpt><trkpt lat="43.497505" lon="12.9274917"><ele>364.0</ele><time>2026-04-25T07:46:10.994Z</time></trkpt><trkpt lat="43.4974317" lon="12.927285"><ele>364.0</ele><time>2026-04-25T07:46:11.938Z</time></trkpt><trkpt lat="43.4973567" lon="12.9270833"><ele>364.0</ele><time>2026-04-25T07:46:12.937Z</time></trkpt><trkpt lat="43.4972783" lon="12.9268883"><ele>361.66666666666663</ele><time>2026-04-25T07:46:13.938Z</time></trkpt><trkpt lat="43.4971833" lon="12.926705"><ele>359.3333333333333</ele><time>2026-04-25T07:46:14.944Z</time></trkpt><trkpt lat="43.4970567" lon="12.9265467"><ele>357.0</ele><time>2026-04-25T07:46:15.944Z</time></trkpt><trkpt lat="43.49691" lon="12.92641"><ele>357.0</ele><time>2026-04-25T07:46:17Z</time></trkpt><trkpt lat="43.496765" lon="12.9262733"><ele>357.0</ele><time>2026-04-25T07:46:17.939Z</time></trkpt><trkpt lat="43.496625" lon="12.9261383"><ele>357.0</ele><time>2026-04-25T07:46:18.944Z</time></trkpt><trkpt lat="43.4964933" lon="12.925995"><ele>358.3333333333333</ele><time>2026-04-25T07:46:19.94Z</time></trkpt><trkpt lat="43.4963617" lon="12.925845"><ele>359.66666666666663</ele><time>2026-04-25T07:46:20.941Z</time></trkpt><trkpt lat="43.4962367" lon="12.9256933"><ele>361.0</ele><time>2026-04-25T07:46:21.936Z</time></trkpt><trkpt lat="43.4961117" lon="12.925545"><ele>361.0</ele><time>2026-04-25T07:46:23.006Z</time></trkpt><trkpt lat="43.495985" lon="12.9254067"><ele>361.0</ele><time>2026-04-25T07:46:23.94Z</time></trkpt><trkpt lat="43.4958283" lon="12.9253033"><ele>361.0</ele><time>2026-04-25T07:46:24.938Z</time></trkpt><trkpt lat="43.495665" lon="12.9252167"><ele>361.0</ele><time>2026-04-25T07:46:25.946Z</time></trkpt><trkpt lat="43.4954967" lon="12.9251333"><ele>361.0</ele><time>2026-04-25T07:46:26.942Z</time></trkpt><trkpt lat="43.4953417" lon="12.9250283"><ele>361.0</ele><time>2026-04-25T07:46:27.942Z</time></trkpt><trkpt lat="43.4951983" lon="12.9249033"><ele>363.3333333333333</ele><time>2026-04-25T07:46:28.994Z</time></trkpt><trkpt lat="43.495065" lon="12.924765"><ele>365.6666666666667</ele><time>2026-04-25T07:46:29.939Z</time></trkpt><trkpt lat="43.49495" lon="12.9246067"><ele>368.0</ele><time>2026-04-25T07:46:30.943Z</time></trkpt><trkpt lat="43.4948433" lon="12.9244583"><ele>368.0</ele><time>2026-04-25T07:46:31.943Z</time></trkpt><trkpt lat="43.4947433" lon="12.9243283"><ele>368.0</ele><time>2026-04-25T07:46:32.951Z</time></trkpt><trkpt lat="43.4946433" lon="12.92422"><ele>368.0</ele><time>2026-04-25T07:46:33.953Z</time></trkpt><trkpt lat="43.4945383" lon="12.92413"><ele>368.0</ele><time>2026-04-25T07:46:34.996Z</time></trkpt><trkpt lat="43.49443" lon="12.92412"><ele>368.5</ele><time>2026-04-25T07:46:35.938Z</time></trkpt><trkpt lat="43.4943" lon="12.92417"><ele>369.0</ele><time>2026-04-25T07:46:36.942Z</time></trkpt><trkpt lat="43.4941767" lon="12.92426"><ele>369.5</ele><time>2026-04-25T07:46:37.944Z</time></trkpt><trkpt lat="43.494055" lon="12.9243817"><ele>370.0</ele><time>2026-04-25T07:46:38.941Z</time></trkpt><trkpt lat="43.493945" lon="12.9245217"><ele>369.5</ele><time>2026-04-25T07:46:39.939Z</time></trkpt><trkpt lat="43.4938467" lon="12.924675"><ele>369.0</ele><time>2026-04-25T07:46:40.992Z</time></trkpt><trkpt lat="43.4937667" lon="12.9248217"><ele>368.5</ele><time>2026-04-25T07:46:41.945Z</time></trkpt><trkpt lat="43.4936967" lon="12.9249567"><ele>368.0</ele><time>2026-04-25T07:46:42.939Z</time></trkpt><trkpt lat="43.4936233" lon="12.9250783"><ele>368.0</ele><time>2026-04-25T07:46:43.941Z</time></trkpt><trkpt lat="43.49353" lon="12.925155"><ele>368.0</ele><time>2026-04-25T07:46:44.94Z</time></trkpt><trkpt lat="43.4934417" lon="12.92519"><ele>368.0</ele><time>2026-04-25T07:46:45.943Z</time></trkpt><trkpt lat="43.4933367" lon="12.9251933"><ele>368.0</ele><time>2026-04-25T07:46:46.991Z</time></trkpt><trkpt lat="43.493225" lon="12.9251517"><ele>368.0</ele><time>2026-04-25T07:46:47.934Z</time></trkpt><trkpt lat="43.49313" lon="12.9250517"><ele>368.0</ele><time>2026-04-25T07:46:48.939Z</time></trkpt><trkpt lat="43.49303" lon="12.9248983"><ele>368.0</ele><time>2026-04-25T07:46:49.94Z</time></trkpt><trkpt lat="43.4929183" lon="12.924735"><ele>368.0</ele><time>2026-04-25T07:46:50.944Z</time></trkpt><trkpt lat="43.4928083" lon="12.9246083"><ele>370.0</ele><time>2026-04-25T07:46:51.943Z</time></trkpt><trkpt lat="43.4927" lon="12.924515"><ele>372.0</ele><time>2026-04-25T07:46:53.007Z</time></trkpt><trkpt lat="43.4925917" lon="12.9244617"><ele>374.0</ele><time>2026-04-25T07:46:53.934Z</time></trkpt><trkpt lat="43.4924783" lon="12.9244783"><ele>376.0</ele><time>2026-04-25T07:46:54.941Z</time></trkpt><trkpt lat="43.492355" lon="12.9245633"><ele>376.0</ele><time>2026-04-25T07:46:55.948Z</time></trkpt><trkpt lat="43.4922183" lon="12.9246783"><ele>376.0</ele><time>2026-04-25T07:46:56.94Z</time></trkpt><trkpt lat="43.4920867" lon="12.9247917"><ele>376.0</ele><time>2026-04-25T07:46:57.941Z</time></trkpt><trkpt lat="43.4919717" lon="12.9248833"><ele>376.0</ele><time>2026-04-25T07:46:58.997Z</time></trkpt><trkpt lat="43.4918533" lon="12.92496"><ele>377.25</ele><time>2026-04-25T07:46:59.939Z</time></trkpt><trkpt lat="43.49174" lon="12.9249783"><ele>378.5</ele><time>2026-04-25T07:47:00.941Z</time></trkpt><trkpt lat="43.4916267" lon="12.9249433"><ele>379.75</ele><time>2026-04-25T07:47:01.945Z</time></trkpt><trkpt lat="43.4915283" lon="12.9248517"><ele>381.0</ele><time>2026-04-25T07:47:02.943Z</time></trkpt><trkpt lat="43.49145" lon="12.9247383"><ele>381.0</ele><time>2026-04-25T07:47:03.945Z</time></trkpt><trkpt lat="43.4913733" lon="12.924635"><ele>381.0</ele><time>2026-04-25T07:47:04.993Z</time></trkpt><trkpt lat="43.4912867" lon="12.9245817"><ele>381.0</ele><time>2026-04-25T07:47:05.938Z</time></trkpt><trkpt lat="43.4912" lon="12.9245933"><ele>381.0</ele><time>2026-04-25T07:47:06.941Z</time></trkpt><trkpt lat="43.4911233" lon="12.9246633"><ele>381.0</ele><time>2026-04-25T07:47:07.938Z</time></trkpt><trkpt lat="43.491065" lon="12.9248217"><ele>384.25</ele><time>2026-04-25T07:47:08.942Z</time></trkpt><trkpt lat="43.49108" lon="12.9249533"><ele>387.5</ele><time>2026-04-25T07:47:09.945Z</time></trkpt><trkpt lat="43.4911467" lon="12.925085"><ele>390.75</ele><time>2026-04-25T07:47:11Z</time></trkpt><trkpt lat="43.4912267" lon="12.9252183"><ele>394.0</ele><time>2026-04-25T07:47:11.942Z</time></trkpt><trkpt lat="43.4913117" lon="12.9253683"><ele>394.0</ele><time>2026-04-25T07:47:12.941Z</time></trkpt><trkpt lat="43.4913917" lon="12.92553"><ele>394.0</ele><time>2026-04-25T07:47:13.937Z</time></trkpt><trkpt lat="43.4914683" lon="12.925695"><ele>394.0</ele><time>2026-04-25T07:47:14.944Z</time></trkpt><trkpt lat="43.491535" lon="12.9258467"><ele>394.0</ele><time>2026-04-25T07:47:15.949Z</time></trkpt><trkpt lat="43.49164" lon="12.92593"><ele>397.5</ele><time>2026-04-25T07:47:16.996Z</time></trkpt><trkpt lat="43.4917467" lon="12.9259867"><ele>401.0</ele><time>2026-04-25T07:47:17.938Z</time></trkpt><trkpt lat="43.4918733" lon="12.926025"><ele>404.5</ele><time>2026-04-25T07:47:18.939Z</time></trkpt><trkpt lat="43.491985" lon="12.926085"><ele>408.0</ele><time>2026-04-25T07:47:19.941Z</time></trkpt><trkpt lat="43.4920683" lon="12.926175"><ele>405.0</ele><time>2026-04-25T07:47:20.941Z</time></trkpt><trkpt lat="43.49211" lon="12.926315"><ele>402.0</ele><time>2026-04-25T07:47:21.936Z</time></trkpt><trkpt lat="43.49213" lon="12.92647"><ele>399.0</ele><time>2026-04-25T07:47:23.009Z</time></trkpt><trkpt lat="43.4921333" lon="12.9266467"><ele>396.0</ele><time>2026-04-25T07:47:23.941Z</time></trkpt><trkpt lat="43.4921583" lon="12.9268167"><ele>400.8</ele><time>2026-04-25T07:47:24.939Z</time></trkpt><trkpt lat="43.4922083" lon="12.92696"><ele>405.6</ele><time>2026-04-25T07:47:25.944Z</time></trkpt><trkpt lat="43.4922617" lon="12.9270833"><ele>410.4</ele><time>2026-04-25T07:47:26.943Z</time></trkpt><trkpt lat="43.4923033" lon="12.927205"><ele>415.2</ele><time>2026-04-25T07:47:27.938Z</time></trkpt><trkpt lat="43.4922983" lon="12.9273067"><ele>420.0</ele><time>2026-04-25T07:47:28.992Z</time></trkpt><trkpt lat="43.4922717" lon="12.9273967"><ele>420.0</ele><time>2026-04-25T07:47:29.938Z</time></trkpt><trkpt lat="43.4921783" lon="12.927425"><ele>420.0</ele><time>2026-04-25T07:47:30.945Z</time></trkpt><trkpt lat="43.492095" lon="12.92739"><ele>420.0</ele><time>2026-04-25T07:47:31.934Z</time></trkpt><trkpt lat="43.4920033" lon="12.9273033"><ele>420.0</ele><time>2026-04-25T07:47:32.943Z</time></trkpt><trkpt lat="43.49191" lon="12.9271833"><ele>420.0</ele><time>2026-04-25T07:47:33.94Z</time></trkpt><trkpt lat="43.4918133" lon="12.9270433"><ele>420.66666666666663</ele><time>2026-04-25T07:47:34.995Z</time></trkpt><trkpt lat="43.4917067" lon="12.9269067"><ele>421.3333333333333</ele><time>2026-04-25T07:47:35.935Z</time></trkpt><trkpt lat="43.49159" lon="12.926765"><ele>422.0</ele><time>2026-04-25T07:47:36.937Z</time></trkpt><trkpt lat="43.491465" lon="12.92662"><ele>424.75</ele><time>2026-04-25T07:47:37.94Z</time></trkpt><trkpt lat="43.491345" lon="12.92649"><ele>427.5</ele><time>2026-04-25T07:47:38.94Z</time></trkpt><trkpt lat="43.4912517" lon="12.926345"><ele>430.25</ele><time>2026-04-25T07:47:39.94Z</time></trkpt><trkpt lat="43.491165" lon="12.9261867"><ele>433.0</ele><time>2026-04-25T07:47:40.993Z</time></trkpt><trkpt lat="43.4910833" lon="12.9260217"><ele>429.75</ele><time>2026-04-25T07:47:41.934Z</time></trkpt><trkpt lat="43.490995" lon="12.92586"><ele>426.5</ele><time>2026-04-25T07:47:42.944Z</time></trkpt><trkpt lat="43.4909017" lon="12.92571"><ele>423.25</ele><time>2026-04-25T07:47:43.94Z</time></trkpt><trkpt lat="43.4908" lon="12.9255717"><ele>420.0</ele><time>2026-04-25T07:47:44.943Z</time></trkpt><trkpt lat="43.4906867" lon="12.9254617"><ele>420.0</ele><time>2026-04-25T07:47:45.945Z</time></trkpt><trkpt lat="43.4905633" lon="12.92539"><ele>420.0</ele><time>2026-04-25T07:47:46.986Z</time></trkpt><trkpt lat="43.4904367" lon="12.925455"><ele>420.0</ele><time>2026-04-25T07:47:47.936Z</time></trkpt><trkpt lat="43.49031" lon="12.9255367"><ele>420.0</ele><time>2026-04-25T07:47:48.945Z</time></trkpt><trkpt lat="43.4901767" lon="12.9256183"><ele>422.0</ele><time>2026-04-25T07:47:49.946Z</time></trkpt><trkpt lat="43.4900383" lon="12.92569"><ele>424.0</ele><time>2026-04-25T07:47:50.942Z</time></trkpt><trkpt lat="43.489905" lon="12.925745"><ele>426.0</ele><time>2026-04-25T07:47:51.938Z</time></trkpt><trkpt lat="43.4897717" lon="12.9257933"><ele>428.0</ele><time>2026-04-25T07:47:53.01Z</time></trkpt><trkpt lat="43.48964" lon="12.925845"><ele>431.0</ele><time>2026-04-25T07:47:53.94Z</time></trkpt><trkpt lat="43.4895083" lon="12.9258983"><ele>434.0</ele><time>2026-04-25T07:47:54.944Z</time></trkpt><trkpt lat="43.4893767" lon="12.925945"><ele>437.0</ele><time>2026-04-25T07:47:55.938Z</time></trkpt><trkpt lat="43.4892633" lon="12.9259883"><ele>440.0</ele><time>2026-04-25T07:47:56.943Z</time></trkpt><trkpt lat="43.4891433" lon="12.9260567"><ele>440.0</ele><time>2026-04-25T07:47:57.944Z</time></trkpt><trkpt lat="43.489025" lon="12.926145"><ele>440.0</ele><time>2026-04-25T07:47:58.995Z</time></trkpt><trkpt lat="43.488915" lon="12.9262417"><ele>440.0</ele><time>2026-04-25T07:47:59.942Z</time></trkpt><trkpt lat="43.488825" lon="12.9263317"><ele>440.0</ele><time>2026-04-25T07:48:00.941Z</time></trkpt><trkpt lat="43.4887517" lon="12.92643"><ele>440.2</ele><time>2026-04-25T07:48:01.942Z</time></trkpt><trkpt lat="43.4887383" lon="12.9265517"><ele>440.4</ele><time>2026-04-25T07:48:02.933Z</time></trkpt><trkpt lat="43.48875" lon="12.9266883"><ele>440.6</ele><time>2026-04-25T07:48:03.941Z</time></trkpt><trkpt lat="43.4888317" lon="12.9267767"><ele>440.8</ele><time>2026-04-25T07:48:04.992Z</time></trkpt><trkpt lat="43.48893" lon="12.926805"><ele>441.0</ele><time>2026-04-25T07:48:05.94Z</time></trkpt><trkpt lat="43.4890133" lon="12.92682"><ele>440.75</ele><time>2026-04-25T07:48:06.944Z</time></trkpt><trkpt lat="43.489135" lon="12.92677"><ele>440.5</ele><time>2026-04-25T07:48:07.946Z</time></trkpt><trkpt lat="43.48927" lon="12.926715"><ele>440.25</ele><time>2026-04-25T07:48:08.942Z</time></trkpt><trkpt lat="43.4894133" lon="12.9266517"><ele>440.0</ele><time>2026-04-25T07:48:09.942Z</time></trkpt><trkpt lat="43.4895517" lon="12.9265933"><ele>442.0</ele><time>2026-04-25T07:48:10.993Z</time></trkpt><trkpt lat="43.48968" lon="12.92655"><ele>444.0</ele><time>2026-04-25T07:48:11.937Z</time></trkpt><trkpt lat="43.4898033" lon="12.926535"><ele>446.0</ele><time>2026-04-25T07:48:12.943Z</time></trkpt><trkpt lat="43.48993" lon="12.9265317"><ele>448.0</ele><time>2026-04-25T07:48:13.933Z</time></trkpt><trkpt lat="43.4900533" lon="12.9265383"><ele>448.0</ele><time>2026-04-25T07:48:14.938Z</time></trkpt><trkpt lat="43.4901733" lon="12.9265467"><ele>447.99999999999994</ele><time>2026-04-25T07:48:15.939Z</time></trkpt><trkpt lat="43.4903" lon="12.9265517"><ele>447.99999999999994</ele><time>2026-04-25T07:48:16.992Z</time></trkpt><trkpt lat="43.4903833" lon="12.926595"><ele>448.0</ele><time>2026-04-25T07:48:17.931Z</time></trkpt><trkpt lat="43.4904333" lon="12.9266733"><ele>448.0</ele><time>2026-04-25T07:48:18.937Z</time></trkpt><trkpt lat="43.4904717" lon="12.92677"><ele>446.0</ele><time>2026-04-25T07:48:19.938Z</time></trkpt><trkpt lat="43.490465" lon="12.92686"><ele>443.99999999999994</ele><time>2026-04-25T07:48:20.943Z</time></trkpt><trkpt lat="43.4903967" lon="12.9269267"><ele>441.99999999999994</ele><time>2026-04-25T07:48:21.94Z</time></trkpt><trkpt lat="43.49031" lon="12.92696"><ele>440.0</ele><time>2026-04-25T07:48:22.953Z</time></trkpt><trkpt lat="43.490195" lon="12.9269233"><ele>438.0</ele><time>2026-04-25T07:48:23.933Z</time></trkpt><trkpt lat="43.4900767" lon="12.9268867"><ele>443.5</ele><time>2026-04-25T07:48:24.941Z</time></trkpt><trkpt lat="43.4899667" lon="12.92686"><ele>449.0</ele><time>2026-04-25T07:48:25.944Z</time></trkpt><trkpt lat="43.4898667" lon="12.9268817"><ele>454.5</ele><time>2026-04-25T07:48:26.942Z</time></trkpt><trkpt lat="43.4897533" lon="12.9269433"><ele>460.0</ele><time>2026-04-25T07:48:27.946Z</time></trkpt><trkpt lat="43.4896367" lon="12.927035"><ele>459.25</ele><time>2026-04-25T07:48:28.991Z</time></trkpt><trkpt lat="43.489515" lon="12.927125"><ele>458.5</ele><time>2026-04-25T07:48:29.94Z</time></trkpt><trkpt lat="43.4893767" lon="12.9272117"><ele>457.75</ele><time>2026-04-25T07:48:30.939Z</time></trkpt><trkpt lat="43.4892433" lon="12.9272817"><ele>457.0</ele><time>2026-04-25T07:48:31.93Z</time></trkpt><trkpt lat="43.489105" lon="12.9273533"><ele>457.0</ele><time>2026-04-25T07:48:32.944Z</time></trkpt><trkpt lat="43.4889733" lon="12.9274217"><ele>457.0</ele><time>2026-04-25T07:48:33.942Z</time></trkpt><trkpt lat="43.4888333" lon="12.9274867"><ele>457.0</ele><time>2026-04-25T07:48:34.989Z</time></trkpt><trkpt lat="43.4886833" lon="12.9275533"><ele>457.0</ele><time>2026-04-25T07:48:35.936Z</time></trkpt><trkpt lat="43.4885317" lon="12.9276217"><ele>456.75</ele><time>2026-04-25T07:48:36.939Z</time></trkpt><trkpt lat="43.4883883" lon="12.9276833"><ele>456.5</ele><time>2026-04-25T07:48:37.946Z</time></trkpt><trkpt lat="43.4882517" lon="12.9277217"><ele>456.25</ele><time>2026-04-25T07:48:38.941Z</time></trkpt><trkpt lat="43.4881167" lon="12.9277267"><ele>456.0</ele><time>2026-04-25T07:48:39.943Z</time></trkpt><trkpt lat="43.4879817" lon="12.9276733"><ele>453.66666666666663</ele><time>2026-04-25T07:48:40.989Z</time></trkpt><trkpt lat="43.4878467" lon="12.9275983"><ele>451.3333333333333</ele><time>2026-04-25T07:48:41.936Z</time></trkpt><trkpt lat="43.4877333" lon="12.927445"><ele>449.0</ele><time>2026-04-25T07:48:42.943Z</time></trkpt><trkpt lat="43.4876283" lon="12.927275"><ele>449.0</ele><time>2026-04-25T07:48:43.938Z</time></trkpt><trkpt lat="43.487535" lon="12.9270883"><ele>449.0</ele><time>2026-04-25T07:48:44.94Z</time></trkpt><trkpt lat="43.4874617" lon="12.9268883"><ele>449.0</ele><time>2026-04-25T07:48:45.94Z</time></trkpt><trkpt lat="43.487395" lon="12.9266833"><ele>448.66666666666663</ele><time>2026-04-25T07:48:46.991Z</time></trkpt><trkpt lat="43.48735" lon="12.9264683"><ele>448.33333333333337</ele><time>2026-04-25T07:48:47.937Z</time></trkpt><trkpt lat="43.4873333" lon="12.9262467"><ele>448.0</ele><time>2026-04-25T07:48:48.945Z</time></trkpt><trkpt lat="43.4873233" lon="12.9260333"><ele>447.5</ele><time>2026-04-25T07:48:49.944Z</time></trkpt><trkpt lat="43.487315" lon="12.925855"><ele>447.0</ele><time>2026-04-25T07:48:50.941Z</time></trkpt><trkpt lat="43.4872933" lon="12.9256917"><ele>446.5</ele><time>2026-04-25T07:48:51.947Z</time></trkpt><trkpt lat="43.4872583" lon="12.9255383"><ele>446.0</ele><time>2026-04-25T07:48:53.006Z</time></trkpt><trkpt lat="43.4872117" lon="12.9253917"><ele>451.0</ele><time>2026-04-25T07:48:53.939Z</time></trkpt><trkpt lat="43.4870883" lon="12.9253033"><ele>456.0</ele><time>2026-04-25T07:48:54.942Z</time></trkpt><trkpt lat="43.4869683" lon="12.9252267"><ele>461.0</ele><time>2026-04-25T07:48:55.932Z</time></trkpt><trkpt lat="43.4868217" lon="12.9251633"><ele>466.0</ele><time>2026-04-25T07:48:56.946Z</time></trkpt><trkpt lat="43.48667" lon="12.9250683"><ele>462.0</ele><time>2026-04-25T07:48:57.941Z</time></trkpt><trkpt lat="43.486545" lon="12.92494"><ele>458.0</ele><time>2026-04-25T07:48:58.991Z</time></trkpt><trkpt lat="43.48645" lon="12.9247733"><ele>454.0</ele><time>2026-04-25T07:48:59.936Z</time></trkpt><trkpt lat="43.4863567" lon="12.9245817"><ele>454.0</ele><time>2026-04-25T07:49:00.944Z</time></trkpt><trkpt lat="43.4862717" lon="12.9243767"><ele>454.0</ele><time>2026-04-25T07:49:01.94Z</time></trkpt><trkpt lat="43.4861883" lon="12.9241667"><ele>454.0</ele><time>2026-04-25T07:49:02.941Z</time></trkpt><trkpt lat="43.4861033" lon="12.9239617"><ele>455.6666666666667</ele><time>2026-04-25T07:49:03.941Z</time></trkpt><trkpt lat="43.4860217" lon="12.92377"><ele>457.33333333333337</ele><time>2026-04-25T07:49:04.995Z</time></trkpt><trkpt lat="43.4859433" lon="12.9235833"><ele>459.0</ele><time>2026-04-25T07:49:05.937Z</time></trkpt><trkpt lat="43.4858667" lon="12.9234117"><ele>456.25</ele><time>2026-04-25T07:49:06.937Z</time></trkpt><trkpt lat="43.4857867" lon="12.9232517"><ele>453.5</ele><time>2026-04-25T07:49:07.945Z</time></trkpt><trkpt lat="43.4857033" lon="12.9231083"><ele>450.75</ele><time>2026-04-25T07:49:08.943Z</time></trkpt><trkpt lat="43.485605" lon="12.92299"><ele>448.0</ele><time>2026-04-25T07:49:09.944Z</time></trkpt><trkpt lat="43.4854933" lon="12.9229017"><ele>448.75</ele><time>2026-04-25T07:49:10.988Z</time></trkpt><trkpt lat="43.485345" lon="12.9228967"><ele>449.5</ele><time>2026-04-25T07:49:11.935Z</time></trkpt><trkpt lat="43.4852" lon="12.9229383"><ele>450.25</ele><time>2026-04-25T07:49:12.942Z</time></trkpt><trkpt lat="43.48506" lon="12.9230067"><ele>451.0</ele><time>2026-04-25T07:49:13.942Z</time></trkpt><trkpt lat="43.4849267" lon="12.923065"><ele>451.0</ele><time>2026-04-25T07:49:14.942Z</time></trkpt><trkpt lat="43.4847967" lon="12.9230767"><ele>451.0</ele><time>2026-04-25T07:49:15.938Z</time></trkpt><trkpt lat="43.4846533" lon="12.923035"><ele>451.0</ele><time>2026-04-25T07:49:16.993Z</time></trkpt><trkpt lat="43.4845083" lon="12.9229683"><ele>451.0</ele><time>2026-04-25T07:49:17.94Z</time></trkpt><trkpt lat="43.48435" lon="12.9228833"><ele>451.33333333333337</ele><time>2026-04-25T07:49:18.946Z</time></trkpt><trkpt lat="43.4842017" lon="12.9227833"><ele>451.66666666666663</ele><time>2026-04-25T07:49:19.943Z</time></trkpt><trkpt lat="43.4840617" lon="12.9226717"><ele>452.0</ele><time>2026-04-25T07:49:20.94Z</time></trkpt><trkpt lat="43.4839367" lon="12.9225517"><ele>450.75</ele><time>2026-04-25T07:49:21.942Z</time></trkpt><trkpt lat="43.48383" lon="12.9224133"><ele>449.5</ele><time>2026-04-25T07:49:23.011Z</time></trkpt><trkpt lat="43.48375" lon="12.9222517"><ele>448.25</ele><time>2026-04-25T07:49:23.943Z</time></trkpt><trkpt lat="43.4836633" lon="12.9220917"><ele>447.0</ele><time>2026-04-25T07:49:24.942Z</time></trkpt><trkpt lat="43.483585" lon="12.9219483"><ele>447.0</ele><time>2026-04-25T07:49:25.94Z</time></trkpt><trkpt lat="43.48349" lon="12.9218233"><ele>447.0</ele><time>2026-04-25T07:49:26.94Z</time></trkpt><trkpt lat="43.483375" lon="12.9217417"><ele>447.0</ele><time>2026-04-25T07:49:27.941Z</time></trkpt><trkpt lat="43.4832517" lon="12.9216733"><ele>447.0</ele><time>2026-04-25T07:49:28.965Z</time></trkpt><trkpt lat="43.4831233" lon="12.921605"><ele>445.33333333333337</ele><time>2026-04-25T07:49:29.94Z</time></trkpt><trkpt lat="43.483" lon="12.9214883"><ele>443.6666666666667</ele><time>2026-04-25T07:49:30.942Z</time></trkpt><trkpt lat="43.4828883" lon="12.9213433"><ele>442.0</ele><time>2026-04-25T07:49:31.949Z</time></trkpt><trkpt lat="43.4827917" lon="12.92118"><ele>442.0</ele><time>2026-04-25T07:49:32.94Z</time></trkpt><trkpt lat="43.48269" lon="12.92101"><ele>442.0</ele><time>2026-04-25T07:49:33.949Z</time></trkpt><trkpt lat="43.48259" lon="12.9208433"><ele>442.0</ele><time>2026-04-25T07:49:34.991Z</time></trkpt><trkpt lat="43.4824933" lon="12.9206733"><ele>439.75</ele><time>2026-04-25T07:49:35.94Z</time></trkpt><trkpt lat="43.4824017" lon="12.9205033"><ele>437.5</ele><time>2026-04-25T07:49:36.945Z</time></trkpt><trkpt lat="43.4823233" lon="12.9203317"><ele>435.25</ele><time>2026-04-25T07:49:37.939Z</time></trkpt><trkpt lat="43.4822617" lon="12.920155"><ele>433.0</ele><time>2026-04-25T07:49:38.945Z</time></trkpt><trkpt lat="43.4822283" lon="12.9199633"><ele>430.25</ele><time>2026-04-25T07:49:39.929Z</time></trkpt><trkpt lat="43.48223" lon="12.9197617"><ele>427.5</ele><time>2026-04-25T07:49:40.996Z</time></trkpt><trkpt lat="43.48224" lon="12.91956"><ele>424.75</ele><time>2026-04-25T07:49:41.939Z</time></trkpt><trkpt lat="43.4822333" lon="12.9193767"><ele>422.0</ele><time>2026-04-25T07:49:42.944Z</time></trkpt><trkpt lat="43.4822083" lon="12.9192183"><ele>422.25</ele><time>2026-04-25T07:49:43.943Z</time></trkpt><trkpt lat="43.482135" lon="12.919105"><ele>422.5</ele><time>2026-04-25T07:49:44.941Z</time></trkpt><trkpt lat="43.482035" lon="12.9190367"><ele>422.75</ele><time>2026-04-25T07:49:45.942Z</time></trkpt><trkpt lat="43.48191" lon="12.9190267"><ele>423.0</ele><time>2026-04-25T07:49:46.993Z</time></trkpt><trkpt lat="43.48179" lon="12.919035"><ele>423.0</ele><time>2026-04-25T07:49:47.939Z</time></trkpt><trkpt lat="43.4816417" lon="12.91908"><ele>423.0</ele><time>2026-04-25T07:49:48.943Z</time></trkpt><trkpt lat="43.4814817" lon="12.9191283"><ele>423.0</ele><time>2026-04-25T07:49:49.94Z</time></trkpt><trkpt lat="43.4813183" lon="12.9191833"><ele>422.25</ele><time>2026-04-25T07:49:50.94Z</time></trkpt><trkpt lat="43.48117" lon="12.9192383"><ele>421.5</ele><time>2026-04-25T07:49:51.938Z</time></trkpt><trkpt lat="43.4810367" lon="12.9193083"><ele>420.75</ele><time>2026-04-25T07:49:53.002Z</time></trkpt><trkpt lat="43.4809183" lon="12.919385"><ele>420.0</ele><time>2026-04-25T07:49:53.936Z</time></trkpt><trkpt lat="43.4808183" lon="12.9194733"><ele>420.0</ele><time>2026-04-25T07:49:54.949Z</time></trkpt><trkpt lat="43.4807283" lon="12.9195517"><ele>420.0</ele><time>2026-04-25T07:49:55.941Z</time></trkpt><trkpt lat="43.4806533" lon="12.91963"><ele>420.0</ele><time>2026-04-25T07:49:56.936Z</time></trkpt><trkpt lat="43.48059" lon="12.919695"><ele>420.0</ele><time>2026-04-25T07:49:57.934Z</time></trkpt><trkpt lat="43.4805117" lon="12.9197767"><ele>420.0</ele><time>2026-04-25T07:49:59.94Z</time></trkpt><trkpt lat="43.4804446" lon="12.9198541"><ele>418.0</ele><time>2026-04-25T07:51:14.941Z</time></trkpt><trkpt lat="43.4803887" lon="12.9199068"><ele>416.0</ele><time>2026-04-25T07:51:15.933Z</time></trkpt><trkpt lat="43.4802993" lon="12.9199957"><ele>414.0</ele><time>2026-04-25T07:51:16.993Z</time></trkpt><trkpt lat="43.4801559" lon="12.9200742"><ele>412.0</ele><time>2026-04-25T07:51:17.934Z</time></trkpt><trkpt lat="43.4800261" lon="12.9200585"><ele>416.75</ele><time>2026-04-25T07:51:18.936Z</time></trkpt><trkpt lat="43.4799115" lon="12.9199888"><ele>421.5</ele><time>2026-04-25T07:51:19.943Z</time></trkpt><trkpt lat="43.4798084" lon="12.9198931"><ele>426.25</ele><time>2026-04-25T07:51:20.944Z</time></trkpt><trkpt lat="43.4797298" lon="12.9197741"><ele>431.0</ele><time>2026-04-25T07:51:21.942Z</time></trkpt><trkpt lat="43.4796675" lon="12.9196376"><ele>431.0</ele><time>2026-04-25T07:51:23.008Z</time></trkpt><trkpt lat="43.4796171" lon="12.9194943"><ele>431.0</ele><time>2026-04-25T07:51:23.941Z</time></trkpt><trkpt lat="43.47958" lon="12.919315"><ele>431.0</ele><time>2026-04-25T07:51:24.935Z</time></trkpt><trkpt lat="43.4795517" lon="12.9191367"><ele>431.0</ele><time>2026-04-25T07:51:25.938Z</time></trkpt><trkpt lat="43.47952" lon="12.9189567"><ele>430.5</ele><time>2026-04-25T07:51:26.946Z</time></trkpt><trkpt lat="43.4794533" lon="12.9188117"><ele>430.0</ele><time>2026-04-25T07:51:27.938Z</time></trkpt><trkpt lat="43.479325" lon="12.9187333"><ele>429.5</ele><time>2026-04-25T07:51:28.993Z</time></trkpt><trkpt lat="43.4791933" lon="12.9186783"><ele>429.0</ele><time>2026-04-25T07:51:29.938Z</time></trkpt><trkpt lat="43.4790533" lon="12.9186533"><ele>429.0</ele><time>2026-04-25T07:51:30.94Z</time></trkpt><trkpt lat="43.478915" lon="12.9186333"><ele>429.0</ele><time>2026-04-25T07:51:31.936Z</time></trkpt><trkpt lat="43.478775" lon="12.9186117"><ele>429.0</ele><time>2026-04-25T07:51:32.949Z</time></trkpt><trkpt lat="43.4786433" lon="12.9186"><ele>429.0</ele><time>2026-04-25T07:51:33.946Z</time></trkpt><trkpt lat="43.4785283" lon="12.9186167"><ele>429.0</ele><time>2026-04-25T07:51:34.997Z</time></trkpt><trkpt lat="43.4784217" lon="12.9186617"><ele>429.0</ele><time>2026-04-25T07:51:35.937Z</time></trkpt><trkpt lat="43.4783217" lon="12.9187333"><ele>429.0</ele><time>2026-04-25T07:51:36.941Z</time></trkpt><trkpt lat="43.478215" lon="12.9188267"><ele>429.0</ele><time>2026-04-25T07:51:37.939Z</time></trkpt><trkpt lat="43.478105" lon="12.918895"><ele>429.0</ele><time>2026-04-25T07:51:38.94Z</time></trkpt><trkpt lat="43.477985" lon="12.9189433"><ele>429.0</ele><time>2026-04-25T07:51:39.94Z</time></trkpt><trkpt lat="43.4778583" lon="12.9189617"><ele>429.0</ele><time>2026-04-25T07:51:40.993Z</time></trkpt><trkpt lat="43.4777283" lon="12.9189417"><ele>429.0</ele><time>2026-04-25T07:51:41.938Z</time></trkpt><trkpt lat="43.4775967" lon="12.9188733"><ele>431.0</ele><time>2026-04-25T07:51:42.941Z</time></trkpt><trkpt lat="43.4774483" lon="12.9187583"><ele>433.0</ele><time>2026-04-25T07:51:43.933Z</time></trkpt><trkpt lat="43.4773" lon="12.9186683"><ele>435.0</ele><time>2026-04-25T07:51:44.945Z</time></trkpt><trkpt lat="43.4771517" lon="12.9185983"><ele>433.0</ele><time>2026-04-25T07:51:45.94Z</time></trkpt><trkpt lat="43.477" lon="12.91856"><ele>431.0</ele><time>2026-04-25T07:51:46.997Z</time></trkpt><trkpt lat="43.476855" lon="12.9185317"><ele>429.0</ele><time>2026-04-25T07:51:47.939Z</time></trkpt><trkpt lat="43.4767117" lon="12.9185317"><ele>427.0</ele><time>2026-04-25T07:51:48.937Z</time></trkpt><trkpt lat="43.4765817" lon="12.9185167"><ele>427.0</ele><time>2026-04-25T07:51:49.941Z</time></trkpt><trkpt lat="43.4764517" lon="12.9185017"><ele>427.0</ele><time>2026-04-25T07:51:50.937Z</time></trkpt><trkpt lat="43.476325" lon="12.91847"><ele>427.0</ele><time>2026-04-25T07:51:51.938Z</time></trkpt><trkpt lat="43.4762117" lon="12.9184233"><ele>427.0</ele><time>2026-04-25T07:51:52.998Z</time></trkpt><trkpt lat="43.476135" lon="12.9183133"><ele>427.0</ele><time>2026-04-25T07:51:53.931Z</time></trkpt><trkpt lat="43.476075" lon="12.9181667"><ele>427.0</ele><time>2026-04-25T07:51:54.936Z</time></trkpt><trkpt lat="43.476055" lon="12.9179717"><ele>427.0</ele><time>2026-04-25T07:51:55.937Z</time></trkpt><trkpt lat="43.4760417" lon="12.9177733"><ele>427.0</ele><time>2026-04-25T07:51:56.943Z</time></trkpt><trkpt lat="43.476025" lon="12.91756"><ele>429.33333333333337</ele><time>2026-04-25T07:51:57.937Z</time></trkpt><trkpt lat="43.476005" lon="12.91734"><ele>431.66666666666663</ele><time>2026-04-25T07:51:59.013Z</time></trkpt><trkpt lat="43.4759817" lon="12.917115"><ele>434.0</ele><time>2026-04-25T07:51:59.941Z</time></trkpt><trkpt lat="43.4759533" lon="12.91689"><ele>437.3333333333333</ele><time>2026-04-25T07:52:00.943Z</time></trkpt><trkpt lat="43.4759167" lon="12.9166617"><ele>440.66666666666663</ele><time>2026-04-25T07:52:01.941Z</time></trkpt><trkpt lat="43.4758583" lon="12.91643"><ele>444.0</ele><time>2026-04-25T07:52:02.94Z</time></trkpt><trkpt lat="43.4757833" lon="12.9161967"><ele>444.0</ele><time>2026-04-25T07:52:03.94Z</time></trkpt><trkpt lat="43.4757033" lon="12.9159667"><ele>444.0</ele><time>2026-04-25T07:52:04.996Z</time></trkpt><trkpt lat="43.4756217" lon="12.9157367"><ele>444.0</ele><time>2026-04-25T07:52:05.937Z</time></trkpt><trkpt lat="43.475535" lon="12.9155083"><ele>442.0</ele><time>2026-04-25T07:52:06.931Z</time></trkpt><trkpt lat="43.47545" lon="12.91528"><ele>440.0</ele><time>2026-04-25T07:52:07.932Z</time></trkpt><trkpt lat="43.4753617" lon="12.9150583"><ele>438.0</ele><time>2026-04-25T07:52:08.934Z</time></trkpt><trkpt lat="43.4752667" lon="12.9148367"><ele>438.0</ele><time>2026-04-25T07:52:09.94Z</time></trkpt><trkpt lat="43.47517" lon="12.9146283"><ele>438.0</ele><time>2026-04-25T07:52:10.984Z</time></trkpt><trkpt lat="43.47509" lon="12.9144217"><ele>438.0</ele><time>2026-04-25T07:52:11.933Z</time></trkpt><trkpt lat="43.47502" lon="12.9142233"><ele>440.5</ele><time>2026-04-25T07:52:12.929Z</time></trkpt><trkpt lat="43.4749467" lon="12.9140383"><ele>443.0</ele><time>2026-04-25T07:52:13.933Z</time></trkpt><trkpt lat="43.4748683" lon="12.913875"><ele>445.5</ele><time>2026-04-25T07:52:14.934Z</time></trkpt><trkpt lat="43.4747767" lon="12.91373"><ele>448.0</ele><time>2026-04-25T07:52:15.939Z</time></trkpt><trkpt lat="43.4746717" lon="12.913615"><ele>446.75</ele><time>2026-04-25T07:52:16.992Z</time></trkpt><trkpt lat="43.4745367" lon="12.9135633"><ele>445.5</ele><time>2026-04-25T07:52:17.935Z</time></trkpt><trkpt lat="43.474385" lon="12.913575"><ele>444.25</ele><time>2026-04-25T07:52:18.936Z</time></trkpt><trkpt lat="43.47425" lon="12.9136117"><ele>443.0</ele><time>2026-04-25T07:52:19.94Z</time></trkpt><trkpt lat="43.474135" lon="12.913745"><ele>443.0</ele><time>2026-04-25T07:52:20.936Z</time></trkpt><trkpt lat="43.4740333" lon="12.9139033"><ele>443.0</ele><time>2026-04-25T07:52:21.941Z</time></trkpt><trkpt lat="43.47396" lon="12.9141033"><ele>443.0</ele><time>2026-04-25T07:52:23.006Z</time></trkpt><trkpt lat="43.4739383" lon="12.9143467"><ele>441.0</ele><time>2026-04-25T07:52:23.934Z</time></trkpt><trkpt lat="43.4739233" lon="12.9145767"><ele>439.0</ele><time>2026-04-25T07:52:24.931Z</time></trkpt><trkpt lat="43.4739267" lon="12.9147783"><ele>437.0</ele><time>2026-04-25T07:52:25.937Z</time></trkpt><trkpt lat="43.4739233" lon="12.9149633"><ele>435.0</ele><time>2026-04-25T07:52:26.938Z</time></trkpt><trkpt lat="43.4739" lon="12.91514"><ele>435.75</ele><time>2026-04-25T07:52:27.937Z</time></trkpt><trkpt lat="43.4738383" lon="12.91528"><ele>436.5</ele><time>2026-04-25T07:52:28.994Z</time></trkpt><trkpt lat="43.4737383" lon="12.9153767"><ele>437.25</ele><time>2026-04-25T07:52:29.937Z</time></trkpt><trkpt lat="43.4736133" lon="12.9154417"><ele>438.0</ele><time>2026-04-25T07:52:30.939Z</time></trkpt><trkpt lat="43.4734717" lon="12.9154767"><ele>438.0</ele><time>2026-04-25T07:52:31.936Z</time></trkpt><trkpt lat="43.4733233" lon="12.915485"><ele>438.0</ele><time>2026-04-25T07:52:32.93Z</time></trkpt><trkpt lat="43.4731833" lon="12.9154667"><ele>438.0</ele><time>2026-04-25T07:52:33.928Z</time></trkpt><trkpt lat="43.4730617" lon="12.915435"><ele>438.0</ele><time>2026-04-25T07:52:34.989Z</time></trkpt><trkpt lat="43.4729367" lon="12.91541"><ele>438.59999999999997</ele><time>2026-04-25T07:52:35.933Z</time></trkpt><trkpt lat="43.472835" lon="12.915375"><ele>439.19999999999993</ele><time>2026-04-25T07:52:36.934Z</time></trkpt><trkpt lat="43.4727433" lon="12.91534"><ele>439.8</ele><time>2026-04-25T07:52:37.942Z</time></trkpt><trkpt lat="43.472675" lon="12.9153117"><ele>440.4</ele><time>2026-04-25T07:52:38.937Z</time></trkpt><trkpt lat="43.4725733" lon="12.91525"><ele>441.0</ele><time>2026-04-25T07:52:40.988Z</time></trkpt><trkpt lat="43.4724867" lon="12.9152233"><ele>441.0</ele><time>2026-04-25T07:52:42.942Z</time></trkpt><trkpt lat="43.4723917" lon="12.9153167"><ele>441.0</ele><time>2026-04-25T07:52:44.938Z</time></trkpt><trkpt lat="43.4723583" lon="12.9153967"><ele>441.0</ele><time>2026-04-25T07:52:45.934Z</time></trkpt><trkpt lat="43.472315" lon="12.9155033"><ele>441.0</ele><time>2026-04-25T07:52:46.994Z</time></trkpt><trkpt lat="43.4722683" lon="12.9156133"><ele>441.0</ele><time>2026-04-25T07:52:47.941Z</time></trkpt><trkpt lat="43.47221" lon="12.9157283"><ele>441.0</ele><time>2026-04-25T07:52:48.939Z</time></trkpt><trkpt lat="43.4721667" lon="12.9158117"><ele>441.0</ele><time>2026-04-25T07:52:49.938Z</time></trkpt><trkpt lat="43.4721317" lon="12.9158917"><ele>441.0</ele><time>2026-04-25T07:52:50.941Z</time></trkpt><trkpt lat="43.4720983" lon="12.915985"><ele>441.0</ele><time>2026-04-25T07:52:52.992Z</time></trkpt><trkpt lat="43.47206" lon="12.9160667"><ele>441.0</ele><time>2026-04-25T07:53:06.938Z</time></trkpt><trkpt lat="43.4719683" lon="12.9161767"><ele>441.0</ele><time>2026-04-25T07:53:08.942Z</time></trkpt><trkpt lat="43.4719067" lon="12.91622"><ele>442.6</ele><time>2026-04-25T07:53:09.937Z</time></trkpt><trkpt lat="43.4718183" lon="12.9162533"><ele>444.20000000000005</ele><time>2026-04-25T07:53:10.994Z</time></trkpt><trkpt lat="43.471725" lon="12.9162633"><ele>445.79999999999995</ele><time>2026-04-25T07:53:11.944Z</time></trkpt><trkpt lat="43.471625" lon="12.916255"><ele>447.4</ele><time>2026-04-25T07:53:12.944Z</time></trkpt><trkpt lat="43.4714683" lon="12.9162567"><ele>449.0</ele><time>2026-04-25T07:53:13.943Z</time></trkpt><trkpt lat="43.4713633" lon="12.916255"><ele>449.0</ele><time>2026-04-25T07:53:14.939Z</time></trkpt><trkpt lat="43.471265" lon="12.9162833"><ele>449.0</ele><time>2026-04-25T07:53:15.942Z</time></trkpt><trkpt lat="43.4711883" lon="12.9163633"><ele>449.0</ele><time>2026-04-25T07:53:16.99Z</time></trkpt><trkpt lat="43.4711433" lon="12.9164967"><ele>449.0</ele><time>2026-04-25T07:53:17.933Z</time></trkpt><trkpt lat="43.4711083" lon="12.9166617"><ele>449.0</ele><time>2026-04-25T07:53:18.946Z</time></trkpt><trkpt lat="43.47107" lon="12.9168433"><ele>449.0</ele><time>2026-04-25T07:53:19.949Z</time></trkpt><trkpt lat="43.4710333" lon="12.9170417"><ele>449.0</ele><time>2026-04-25T07:53:20.95Z</time></trkpt><trkpt lat="43.470995" lon="12.917245"><ele>449.0</ele><time>2026-04-25T07:53:21.938Z</time></trkpt><trkpt lat="43.4709617" lon="12.917445"><ele>451.0</ele><time>2026-04-25T07:53:23.002Z</time></trkpt><trkpt lat="43.470935" lon="12.9176383"><ele>453.0</ele><time>2026-04-25T07:53:23.936Z</time></trkpt><trkpt lat="43.4709033" lon="12.9178317"><ele>455.0</ele><time>2026-04-25T07:53:24.939Z</time></trkpt><trkpt lat="43.470865" lon="12.9180217"><ele>457.0</ele><time>2026-04-25T07:53:25.934Z</time></trkpt><trkpt lat="43.4708317" lon="12.9181967"><ele>457.0</ele><time>2026-04-25T07:53:26.938Z</time></trkpt><trkpt lat="43.4708033" lon="12.91836"><ele>457.00000000000006</ele><time>2026-04-25T07:53:27.928Z</time></trkpt><trkpt lat="43.4707867" lon="12.9184833"><ele>457.00000000000006</ele><time>2026-04-25T07:53:28.992Z</time></trkpt><trkpt lat="43.4707583" lon="12.9186017"><ele>457.0</ele><time>2026-04-25T07:53:29.934Z</time></trkpt><trkpt lat="43.4707167" lon="12.9186967"><ele>457.0</ele><time>2026-04-25T07:53:30.934Z</time></trkpt><trkpt lat="43.4706183" lon="12.9186833"><ele>458.6</ele><time>2026-04-25T07:53:31.931Z</time></trkpt><trkpt lat="43.470515" lon="12.918655"><ele>460.20000000000005</ele><time>2026-04-25T07:53:32.936Z</time></trkpt><trkpt lat="43.4704117" lon="12.91862"><ele>461.8</ele><time>2026-04-25T07:53:33.94Z</time></trkpt><trkpt lat="43.4703067" lon="12.9185783"><ele>463.4</ele><time>2026-04-25T07:53:34.991Z</time></trkpt><trkpt lat="43.4702083" lon="12.9185583"><ele>465.0</ele><time>2026-04-25T07:53:35.932Z</time></trkpt><trkpt lat="43.4701083" lon="12.9185667"><ele>468.5</ele><time>2026-04-25T07:53:36.939Z</time></trkpt><trkpt lat="43.47" lon="12.9186133"><ele>472.0</ele><time>2026-04-25T07:53:37.936Z</time></trkpt><trkpt lat="43.46988" lon="12.9186717"><ele>475.5</ele><time>2026-04-25T07:53:38.94Z</time></trkpt><trkpt lat="43.4697617" lon="12.9187367"><ele>479.0</ele><time>2026-04-25T07:53:39.946Z</time></trkpt><trkpt lat="43.4696517" lon="12.9188083"><ele>480.0</ele><time>2026-04-25T07:53:40.989Z</time></trkpt><trkpt lat="43.469535" lon="12.918885"><ele>481.0</ele><time>2026-04-25T07:53:41.933Z</time></trkpt><trkpt lat="43.46943" lon="12.918955"><ele>482.0</ele><time>2026-04-25T07:53:42.934Z</time></trkpt><trkpt lat="43.4693367" lon="12.9190217"><ele>483.0</ele><time>2026-04-25T07:53:43.93Z</time></trkpt><trkpt lat="43.4692467" lon="12.9190833"><ele>483.0</ele><time>2026-04-25T07:53:44.937Z</time></trkpt><trkpt lat="43.4691733" lon="12.9191233"><ele>483.0</ele><time>2026-04-25T07:53:45.935Z</time></trkpt><trkpt lat="43.4690917" lon="12.91916"><ele>483.0</ele><time>2026-04-25T07:53:46.984Z</time></trkpt><trkpt lat="43.4690117" lon="12.9191683"><ele>483.0</ele><time>2026-04-25T07:53:47.929Z</time></trkpt><trkpt lat="43.4689117" lon="12.919175"><ele>483.0</ele><time>2026-04-25T07:53:48.933Z</time></trkpt><trkpt lat="43.4688117" lon="12.9191733"><ele>483.0</ele><time>2026-04-25T07:53:49.934Z</time></trkpt><trkpt lat="43.4687033" lon="12.9191667"><ele>483.4</ele><time>2026-04-25T07:53:50.938Z</time></trkpt><trkpt lat="43.46858" lon="12.9191667"><ele>483.79999999999995</ele><time>2026-04-25T07:53:51.934Z</time></trkpt><trkpt lat="43.468465" lon="12.919165"><ele>484.2</ele><time>2026-04-25T07:53:52.997Z</time></trkpt><trkpt lat="43.4683583" lon="12.919165"><ele>484.6</ele><time>2026-04-25T07:53:53.93Z</time></trkpt><trkpt lat="43.4682567" lon="12.9191667"><ele>485.0</ele><time>2026-04-25T07:53:54.939Z</time></trkpt><trkpt lat="43.468165" lon="12.9191733"><ele>485.00000000000006</ele><time>2026-04-25T07:53:55.929Z</time></trkpt><trkpt lat="43.4680933" lon="12.9191917"><ele>485.0</ele><time>2026-04-25T07:53:56.935Z</time></trkpt><trkpt lat="43.468015" lon="12.919225"><ele>485.00000000000006</ele><time>2026-04-25T07:53:57.938Z</time></trkpt><trkpt lat="43.4679467" lon="12.9192417"><ele>485.00000000000006</ele><time>2026-04-25T07:53:58.989Z</time></trkpt><trkpt lat="43.46788" lon="12.9192367"><ele>485.0</ele><time>2026-04-25T07:53:59.939Z</time></trkpt><trkpt lat="43.4678033" lon="12.91922"><ele>485.00000000000006</ele><time>2026-04-25T07:54:00.941Z</time></trkpt><trkpt lat="43.4677267" lon="12.9192067"><ele>485.00000000000006</ele><time>2026-04-25T07:54:01.943Z</time></trkpt><trkpt lat="43.4676533" lon="12.919195"><ele>486.3333333333333</ele><time>2026-04-25T07:54:02.947Z</time></trkpt><trkpt lat="43.4675833" lon="12.91918"><ele>487.66666666666663</ele><time>2026-04-25T07:54:03.941Z</time></trkpt><trkpt lat="43.467515" lon="12.9191533"><ele>489.0</ele><time>2026-04-25T07:54:04.995Z</time></trkpt><trkpt lat="43.4674383" lon="12.9191233"><ele>490.33333333333337</ele><time>2026-04-25T07:54:05.936Z</time></trkpt><trkpt lat="43.467355" lon="12.91907"><ele>491.6666666666667</ele><time>2026-04-25T07:54:06.937Z</time></trkpt><trkpt lat="43.4672767" lon="12.919015"><ele>493.0</ele><time>2026-04-25T07:54:07.937Z</time></trkpt><trkpt lat="43.467205" lon="12.9189667"><ele>493.0</ele><time>2026-04-25T07:54:08.941Z</time></trkpt><trkpt lat="43.467135" lon="12.918945"><ele>492.99999999999994</ele><time>2026-04-25T07:54:09.938Z</time></trkpt><trkpt lat="43.46703" lon="12.9189067"><ele>492.99999999999994</ele><time>2026-04-25T07:54:11.939Z</time></trkpt><trkpt lat="43.4669183" lon="12.9189017"><ele>493.0</ele><time>2026-04-25T07:54:13.946Z</time></trkpt><trkpt lat="43.4668183" lon="12.918925"><ele>493.0</ele><time>2026-04-25T07:54:15.937Z</time></trkpt><trkpt lat="43.4667217" lon="12.9189217"><ele>495.2</ele><time>2026-04-25T07:54:17.929Z</time></trkpt><trkpt lat="43.4666033" lon="12.9189167"><ele>497.4</ele><time>2026-04-25T07:54:19.935Z</time></trkpt><trkpt lat="43.4665067" lon="12.91889"><ele>499.59999999999997</ele><time>2026-04-25T07:54:21.935Z</time></trkpt><trkpt lat="43.4663917" lon="12.918875"><ele>501.79999999999995</ele><time>2026-04-25T07:54:23.935Z</time></trkpt><trkpt lat="43.4663283" lon="12.9188717"><ele>504.0</ele><time>2026-04-25T07:54:24.939Z</time></trkpt><trkpt lat="43.4662617" lon="12.918865"><ele>507.79999999999995</ele><time>2026-04-25T07:54:25.933Z</time></trkpt><trkpt lat="43.466155" lon="12.9188383"><ele>511.59999999999997</ele><time>2026-04-25T07:54:27.941Z</time></trkpt><trkpt lat="43.4660467" lon="12.9187933"><ele>515.4</ele><time>2026-04-25T07:54:29.938Z</time></trkpt><trkpt lat="43.46595" lon="12.9187483"><ele>519.1999999999999</ele><time>2026-04-25T07:54:31.941Z</time></trkpt><trkpt lat="43.4658517" lon="12.9186917"><ele>523.0</ele><time>2026-04-25T07:54:33.934Z</time></trkpt><trkpt lat="43.465755" lon="12.9185767"><ele>522.9999999999999</ele><time>2026-04-25T07:54:35.934Z</time></trkpt><trkpt lat="43.4657117" lon="12.9184967"><ele>523.0</ele><time>2026-04-25T07:54:36.939Z</time></trkpt><trkpt lat="43.4656667" lon="12.918425"><ele>523.0</ele><time>2026-04-25T07:54:37.934Z</time></trkpt><trkpt lat="43.4656183" lon="12.9183633"><ele>523.0</ele><time>2026-04-25T07:54:38.939Z</time></trkpt><trkpt lat="43.4655567" lon="12.9183267"><ele>523.0</ele><time>2026-04-25T07:54:39.94Z</time></trkpt><trkpt lat="43.4654983" lon="12.9182883"><ele>522.9999999999999</ele><time>2026-04-25T07:54:40.986Z</time></trkpt><trkpt lat="43.465435" lon="12.91824"><ele>523.0</ele><time>2026-04-25T07:54:41.933Z</time></trkpt><trkpt lat="43.4653567" lon="12.918125"><ele>526.8333333333334</ele><time>2026-04-25T07:54:43.934Z</time></trkpt><trkpt lat="43.4652967" lon="12.9180767"><ele>530.6666666666667</ele><time>2026-04-25T07:54:44.937Z</time></trkpt><trkpt lat="43.4652333" lon="12.9180267"><ele>534.5</ele><time>2026-04-25T07:54:45.935Z</time></trkpt><trkpt lat="43.4651917" lon="12.9179517"><ele>538.3333333333334</ele><time>2026-04-25T07:54:46.997Z</time></trkpt><trkpt lat="43.4651" lon="12.9178583"><ele>542.1666666666666</ele><time>2026-04-25T07:54:48.938Z</time></trkpt><trkpt lat="43.4650383" lon="12.9177717"><ele>546.0</ele><time>2026-04-25T07:54:50.939Z</time></trkpt><trkpt lat="43.4649733" lon="12.9177033"><ele>546.0</ele><time>2026-04-25T07:54:53.008Z</time></trkpt><trkpt lat="43.4649033" lon="12.9176433"><ele>546.0</ele><time>2026-04-25T07:54:54.931Z</time></trkpt><trkpt lat="43.46482" lon="12.9176033"><ele>546.0</ele><time>2026-04-25T07:54:56.937Z</time></trkpt><trkpt lat="43.4647133" lon="12.91755"><ele>546.0</ele><time>2026-04-25T07:54:58.985Z</time></trkpt><trkpt lat="43.464625" lon="12.9175267"><ele>546.0</ele><time>2026-04-25T07:55:00.935Z</time></trkpt><trkpt lat="43.4645617" lon="12.9174583"><ele>551.4</ele><time>2026-04-25T07:55:01.937Z</time></trkpt><trkpt lat="43.4644733" lon="12.9174017"><ele>556.8</ele><time>2026-04-25T07:55:02.942Z</time></trkpt><trkpt lat="43.4643933" lon="12.91736"><ele>562.1999999999999</ele><time>2026-04-25T07:55:03.941Z</time></trkpt><trkpt lat="43.4643183" lon="12.917325"><ele>567.6</ele><time>2026-04-25T07:55:04.999Z</time></trkpt><trkpt lat="43.4642483" lon="12.9173"><ele>573.0</ele><time>2026-04-25T07:55:05.942Z</time></trkpt><trkpt lat="43.46412" lon="12.9172833"><ele>573.0</ele><time>2026-04-25T07:55:07.938Z</time></trkpt><trkpt lat="43.4639967" lon="12.9172633"><ele>573.0</ele><time>2026-04-25T07:55:09.941Z</time></trkpt><trkpt lat="43.463925" lon="12.917245"><ele>573.0</ele><time>2026-04-25T07:55:10.993Z</time></trkpt><trkpt lat="43.4638433" lon="12.9172317"><ele>573.0</ele><time>2026-04-25T07:55:11.938Z</time></trkpt><trkpt lat="43.4637683" lon="12.9172217"><ele>573.0</ele><time>2026-04-25T07:55:12.936Z</time></trkpt><trkpt lat="43.4637033" lon="12.9172083"><ele>573.0</ele><time>2026-04-25T07:55:13.945Z</time></trkpt><trkpt lat="43.463635" lon="12.917195"><ele>576.3333333333334</ele><time>2026-04-25T07:55:14.947Z</time></trkpt><trkpt lat="43.4635583" lon="12.9171817"><ele>579.6666666666666</ele><time>2026-04-25T07:55:15.939Z</time></trkpt><trkpt lat="43.4634783" lon="12.917175"><ele>583.0</ele><time>2026-04-25T07:55:16.997Z</time></trkpt><trkpt lat="43.4634067" lon="12.91717"><ele>586.3333333333333</ele><time>2026-04-25T07:55:17.938Z</time></trkpt><trkpt lat="43.4633333" lon="12.9171767"><ele>589.6666666666666</ele><time>2026-04-25T07:55:18.934Z</time></trkpt><trkpt lat="43.4632633" lon="12.917185"><ele>593.0</ele><time>2026-04-25T07:55:19.94Z</time></trkpt><trkpt lat="43.46314" lon="12.9172283"><ele>593.0</ele><time>2026-04-25T07:55:21.944Z</time></trkpt><trkpt lat="43.4630383" lon="12.9172833"><ele>593.0</ele><time>2026-04-25T07:55:23.94Z</time></trkpt><trkpt lat="43.4629467" lon="12.9173283"><ele>593.0</ele><time>2026-04-25T07:55:25.94Z</time></trkpt><trkpt lat="43.462845" lon="12.9173433"><ele>593.0</ele><time>2026-04-25T07:55:26.941Z</time></trkpt><trkpt lat="43.4627583" lon="12.9173517"><ele>593.0</ele><time>2026-04-25T07:55:27.938Z</time></trkpt><trkpt lat="43.4626783" lon="12.917345"><ele>594.5</ele><time>2026-04-25T07:55:28.996Z</time></trkpt><trkpt lat="43.4625817" lon="12.9173617"><ele>596.0</ele><time>2026-04-25T07:55:29.94Z</time></trkpt><trkpt lat="43.4624883" lon="12.9173533"><ele>597.5</ele><time>2026-04-25T07:55:30.942Z</time></trkpt><trkpt lat="43.4624067" lon="12.91736"><ele>599.0</ele><time>2026-04-25T07:55:31.945Z</time></trkpt><trkpt lat="43.4623283" lon="12.91735"><ele>600.5</ele><time>2026-04-25T07:55:32.944Z</time></trkpt><trkpt lat="43.46225" lon="12.9173517"><ele>602.0</ele><time>2026-04-25T07:55:33.933Z</time></trkpt><trkpt lat="43.4621667" lon="12.9173667"><ele>602.5</ele><time>2026-04-25T07:55:34.984Z</time></trkpt><trkpt lat="43.4620883" lon="12.917375"><ele>603.0</ele><time>2026-04-25T07:55:35.933Z</time></trkpt><trkpt lat="43.4620033" lon="12.917395"><ele>603.5</ele><time>2026-04-25T07:55:36.935Z</time></trkpt><trkpt lat="43.4619283" lon="12.9174117"><ele>604.0</ele><time>2026-04-25T07:55:37.941Z</time></trkpt><trkpt lat="43.4618617" lon="12.91743"><ele>604.5</ele><time>2026-04-25T07:55:38.943Z</time></trkpt><trkpt lat="43.461785" lon="12.9174583"><ele>605.0</ele><time>2026-04-25T07:55:39.939Z</time></trkpt><trkpt lat="43.461715" lon="12.9174767"><ele>605.0</ele><time>2026-04-25T07:55:40.997Z</time></trkpt><trkpt lat="43.4616467" lon="12.9175017"><ele>605.0</ele><time>2026-04-25T07:55:41.937Z</time></trkpt><trkpt lat="43.4615783" lon="12.9175317"><ele>605.0</ele><time>2026-04-25T07:55:42.942Z</time></trkpt><trkpt lat="43.4615133" lon="12.91756"><ele>605.0</ele><time>2026-04-25T07:55:43.931Z</time></trkpt><trkpt lat="43.4614533" lon="12.9175933"><ele>605.0</ele><time>2026-04-25T07:55:44.936Z</time></trkpt><trkpt lat="43.4613883" lon="12.9176267"><ele>605.0</ele><time>2026-04-25T07:55:45.934Z</time></trkpt><trkpt lat="43.4613217" lon="12.917645"><ele>605.0</ele><time>2026-04-25T07:55:46.99Z</time></trkpt><trkpt lat="43.461255" lon="12.917655"><ele>604.8333333333333</ele><time>2026-04-25T07:55:47.933Z</time></trkpt><trkpt lat="43.46118" lon="12.9176583"><ele>604.6666666666666</ele><time>2026-04-25T07:55:48.933Z</time></trkpt><trkpt lat="43.4611067" lon="12.9176667"><ele>604.5</ele><time>2026-04-25T07:55:49.929Z</time></trkpt><trkpt lat="43.4610317" lon="12.9177"><ele>604.3333333333334</ele><time>2026-04-25T07:55:50.934Z</time></trkpt><trkpt lat="43.46097" lon="12.9177283"><ele>604.1666666666667</ele><time>2026-04-25T07:55:51.934Z</time></trkpt><trkpt lat="43.4608867" lon="12.917765"><ele>604.0</ele><time>2026-04-25T07:55:52.995Z</time></trkpt><trkpt lat="43.4608183" lon="12.9177933"><ele>604.0</ele><time>2026-04-25T07:55:53.933Z</time></trkpt><trkpt lat="43.4607317" lon="12.9178133"><ele>604.0</ele><time>2026-04-25T07:55:54.944Z</time></trkpt><trkpt lat="43.4606533" lon="12.91783"><ele>604.0</ele><time>2026-04-25T07:55:55.937Z</time></trkpt><trkpt lat="43.4605883" lon="12.9178317"><ele>604.0</ele><time>2026-04-25T07:55:56.946Z</time></trkpt><trkpt lat="43.460485" lon="12.9177767"><ele>604.0</ele><time>2026-04-25T07:55:58.993Z</time></trkpt><trkpt lat="43.4603833" lon="12.9176933"><ele>606.8333333333334</ele><time>2026-04-25T07:56:00.942Z</time></trkpt><trkpt lat="43.46032" lon="12.917665"><ele>609.6666666666667</ele><time>2026-04-25T07:56:01.939Z</time></trkpt><trkpt lat="43.460255" lon="12.9176467"><ele>612.5</ele><time>2026-04-25T07:56:02.936Z</time></trkpt><trkpt lat="43.46018" lon="12.9176467"><ele>615.3333333333334</ele><time>2026-04-25T07:56:03.935Z</time></trkpt><trkpt lat="43.4600983" lon="12.9176633"><ele>618.1666666666666</ele><time>2026-04-25T07:56:04.993Z</time></trkpt><trkpt lat="43.4600117" lon="12.91768"><ele>621.0</ele><time>2026-04-25T07:56:05.933Z</time></trkpt><trkpt lat="43.4599317" lon="12.9176967"><ele>621.0</ele><time>2026-04-25T07:56:06.938Z</time></trkpt><trkpt lat="43.4598567" lon="12.9177217"><ele>621.0</ele><time>2026-04-25T07:56:07.934Z</time></trkpt><trkpt lat="43.4597867" lon="12.9177567"><ele>621.0</ele><time>2026-04-25T07:56:08.931Z</time></trkpt><trkpt lat="43.4597283" lon="12.9178067"><ele>621.0</ele><time>2026-04-25T07:56:09.937Z</time></trkpt><trkpt lat="43.4596533" lon="12.9179117"><ele>621.0</ele><time>2026-04-25T07:56:11.936Z</time></trkpt><trkpt lat="43.4596267" lon="12.9180517"><ele>621.0</ele><time>2026-04-25T07:56:13.934Z</time></trkpt><trkpt lat="43.45963" lon="12.9182133"><ele>621.0</ele><time>2026-04-25T07:56:15.943Z</time></trkpt><trkpt lat="43.4596283" lon="12.9183117"><ele>621.0</ele><time>2026-04-25T07:56:17Z</time></trkpt><trkpt lat="43.4596217" lon="12.9184567"><ele>621.0</ele><time>2026-04-25T07:56:17.934Z</time></trkpt><trkpt lat="43.4596233" lon="12.9185667"><ele>621.0</ele><time>2026-04-25T07:56:18.941Z</time></trkpt><trkpt lat="43.4596233" lon="12.9186783"><ele>621.0</ele><time>2026-04-25T07:56:19.938Z</time></trkpt><trkpt lat="43.4596167" lon="12.91879"><ele>621.0</ele><time>2026-04-25T07:56:20.943Z</time></trkpt><trkpt lat="43.45961" lon="12.9189017"><ele>626.0</ele><time>2026-04-25T07:56:21.939Z</time></trkpt><trkpt lat="43.45961" lon="12.9190133"><ele>631.0</ele><time>2026-04-25T07:56:22.997Z</time></trkpt><trkpt lat="43.459595" lon="12.9191283"><ele>636.0</ele><time>2026-04-25T07:56:23.938Z</time></trkpt><trkpt lat="43.459575" lon="12.9192483"><ele>641.0</ele><time>2026-04-25T07:56:24.943Z</time></trkpt><trkpt lat="43.459555" lon="12.9193617"><ele>646.0</ele><time>2026-04-25T07:56:25.928Z</time></trkpt><trkpt lat="43.4595317" lon="12.9194667"><ele>651.0</ele><time>2026-04-25T07:56:26.939Z</time></trkpt><trkpt lat="43.45951" lon="12.9195733"><ele>652.5</ele><time>2026-04-25T07:56:27.933Z</time></trkpt><trkpt lat="43.4594967" lon="12.91968"><ele>654.0</ele><time>2026-04-25T07:56:28.991Z</time></trkpt><trkpt lat="43.459485" lon="12.9197867"><ele>655.5</ele><time>2026-04-25T07:56:29.932Z</time></trkpt><trkpt lat="43.4594767" lon="12.919895"><ele>657.0</ele><time>2026-04-25T07:56:30.932Z</time></trkpt><trkpt lat="43.4594667" lon="12.92001"><ele>658.5</ele><time>2026-04-25T07:56:31.936Z</time></trkpt><trkpt lat="43.4594617" lon="12.9201383"><ele>660.0</ele><time>2026-04-25T07:56:32.936Z</time></trkpt><trkpt lat="43.4594533" lon="12.920275"><ele>660.4</ele><time>2026-04-25T07:56:33.939Z</time></trkpt><trkpt lat="43.4594467" lon="12.9203983"><ele>660.8</ele><time>2026-04-25T07:56:35.002Z</time></trkpt><trkpt lat="43.4594367" lon="12.9205167"><ele>661.2</ele><time>2026-04-25T07:56:35.932Z</time></trkpt><trkpt lat="43.45942" lon="12.92063"><ele>661.6</ele><time>2026-04-25T07:56:36.942Z</time></trkpt><trkpt lat="43.4593817" lon="12.9207783"><ele>662.0</ele><time>2026-04-25T07:56:38.939Z</time></trkpt><trkpt lat="43.459355" lon="12.9208783"><ele>662.0</ele><time>2026-04-25T07:56:41.001Z</time></trkpt><trkpt lat="43.4593433" lon="12.92099"><ele>662.0</ele><time>2026-04-25T07:57:30.938Z</time></trkpt><trkpt lat="43.4593183" lon="12.921105"><ele>662.0</ele><time>2026-04-25T07:57:32.939Z</time></trkpt><trkpt lat="43.4592867" lon="12.9212183"><ele>662.0</ele><time>2026-04-25T07:57:34.989Z</time></trkpt><trkpt lat="43.459255" lon="12.921295"><ele>662.0</ele><time>2026-04-25T07:57:35.933Z</time></trkpt><trkpt lat="43.4592117" lon="12.921375"><ele>662.0</ele><time>2026-04-25T07:57:36.933Z</time></trkpt><trkpt lat="43.45917" lon="12.9214467"><ele>662.0</ele><time>2026-04-25T07:57:37.937Z</time></trkpt><trkpt lat="43.4591283" lon="12.9215233"><ele>662.0</ele><time>2026-04-25T07:57:38.938Z</time></trkpt><trkpt lat="43.4590983" lon="12.9216"><ele>662.0</ele><time>2026-04-25T07:57:39.936Z</time></trkpt><trkpt lat="43.459055" lon="12.9217483"><ele>662.0</ele><time>2026-04-25T07:57:41.933Z</time></trkpt><trkpt lat="43.4590717" lon="12.9219083"><ele>662.0</ele><time>2026-04-25T07:57:43.942Z</time></trkpt><trkpt lat="43.4591117" lon="12.92207"><ele>661.8333333333333</ele><time>2026-04-25T07:57:45.939Z</time></trkpt><trkpt lat="43.459175" lon="12.9221467"><ele>661.6666666666666</ele><time>2026-04-25T07:57:46.995Z</time></trkpt><trkpt lat="43.459175" lon="12.9222583"><ele>661.5</ele><time>2026-04-25T07:57:48.936Z</time></trkpt><trkpt lat="43.45915" lon="12.9223567"><ele>661.3333333333334</ele><time>2026-04-25T07:57:50.933Z</time></trkpt><trkpt lat="43.4591117" lon="12.9224917"><ele>661.1666666666667</ele><time>2026-04-25T07:57:53.004Z</time></trkpt><trkpt lat="43.4590983" lon="12.922605"><ele>661.0</ele><time>2026-04-25T07:57:54.934Z</time></trkpt><trkpt lat="43.4590983" lon="12.9227267"><ele>659.0</ele><time>2026-04-25T07:57:56.941Z</time></trkpt><trkpt lat="43.459135" lon="12.9228633"><ele>657.0</ele><time>2026-04-25T07:57:58.995Z</time></trkpt><trkpt lat="43.459185" lon="12.9230167"><ele>655.0</ele><time>2026-04-25T07:58:00.94Z</time></trkpt><trkpt lat="43.459245" lon="12.92316"><ele>653.0</ele><time>2026-04-25T07:58:02.939Z</time></trkpt><trkpt lat="43.4592867" lon="12.9232767"><ele>651.0</ele><time>2026-04-25T07:58:04.992Z</time></trkpt><trkpt lat="43.4593417" lon="12.92336"><ele>649.6666666666666</ele><time>2026-04-25T07:58:07.939Z</time></trkpt><trkpt lat="43.459285" lon="12.92343"><ele>648.3333333333334</ele><time>2026-04-25T07:58:11.935Z</time></trkpt><trkpt lat="43.4592283" lon="12.9234683"><ele>647.0</ele><time>2026-04-25T07:58:13.951Z</time></trkpt><trkpt lat="43.4591467" lon="12.9235283"><ele>645.6666666666667</ele><time>2026-04-25T07:58:15.938Z</time></trkpt><trkpt lat="43.4590767" lon="12.923605"><ele>644.3333333333334</ele><time>2026-04-25T07:58:17.933Z</time></trkpt><trkpt lat="43.4589933" lon="12.9236917"><ele>643.0</ele><time>2026-04-25T07:58:19.937Z</time></trkpt><trkpt lat="43.458915" lon="12.9237467"><ele>643.0</ele><time>2026-04-25T07:58:21.939Z</time></trkpt><trkpt lat="43.45885" lon="12.9237783"><ele>643.0</ele><time>2026-04-25T07:58:23.934Z</time></trkpt><trkpt lat="43.458785" lon="12.9238033"><ele>643.0</ele><time>2026-04-25T07:58:25.931Z</time></trkpt><trkpt lat="43.4587117" lon="12.92385"><ele>643.0</ele><time>2026-04-25T07:58:27.947Z</time></trkpt><trkpt lat="43.4586167" lon="12.9239"><ele>643.0</ele><time>2026-04-25T07:58:29.944Z</time></trkpt><trkpt lat="43.4585233" lon="12.9239367"><ele>643.0</ele><time>2026-04-25T07:58:31.941Z</time></trkpt><trkpt lat="43.4584383" lon="12.9239633"><ele>642.8</ele><time>2026-04-25T07:58:33.937Z</time></trkpt><trkpt lat="43.4583517" lon="12.92399"><ele>642.5999999999999</ele><time>2026-04-25T07:58:35.936Z</time></trkpt><trkpt lat="43.458235" lon="12.92406"><ele>642.4000000000001</ele><time>2026-04-25T07:58:37.943Z</time></trkpt><trkpt lat="43.4581433" lon="12.9241267"><ele>642.2</ele><time>2026-04-25T07:58:39.936Z</time></trkpt><trkpt lat="43.4580783" lon="12.9241467"><ele>642.0</ele><time>2026-04-25T07:58:40.984Z</time></trkpt><trkpt lat="43.45797" lon="12.9241683"><ele>642.0</ele><time>2026-04-25T07:58:41.936Z</time></trkpt><trkpt lat="43.4579017" lon="12.92415"><ele>642.0</ele><time>2026-04-25T07:58:43.929Z</time></trkpt><trkpt lat="43.4579667" lon="12.9242017"><ele>642.0</ele><time>2026-04-25T07:59:04.989Z</time></trkpt><trkpt lat="43.4580183" lon="12.9242517"><ele>642.0</ele><time>2026-04-25T07:59:06.933Z</time></trkpt><trkpt lat="43.458095" lon="12.9243183"><ele>642.0</ele><time>2026-04-25T07:59:08.934Z</time></trkpt><trkpt lat="43.45819" lon="12.9244"><ele>642.0</ele><time>2026-04-25T07:59:10.993Z</time></trkpt><trkpt lat="43.4582733" lon="12.92449"><ele>643.2</ele><time>2026-04-25T07:59:12.937Z</time></trkpt><trkpt lat="43.458355" lon="12.9246067"><ele>644.4000000000001</ele><time>2026-04-25T07:59:14.935Z</time></trkpt><trkpt lat="43.4584333" lon="12.9246983"><ele>645.5999999999999</ele><time>2026-04-25T07:59:16.993Z</time></trkpt><trkpt lat="43.4585267" lon="12.9247483"><ele>646.8</ele><time>2026-04-25T07:59:18.937Z</time></trkpt><trkpt lat="43.4585933" lon="12.9247683"><ele>648.0</ele><time>2026-04-25T07:59:20.936Z</time></trkpt><trkpt lat="43.4585883" lon="12.9248767"><ele>648.0</ele><time>2026-04-25T07:59:44.934Z</time></trkpt><trkpt lat="43.4585233" lon="12.924985"><ele>648.0</ele><time>2026-04-25T07:59:47.94Z</time></trkpt><trkpt lat="43.45845" lon="12.9250633"><ele>648.0</ele><time>2026-04-25T07:59:49.942Z</time></trkpt><trkpt lat="43.4583767" lon="12.9251267"><ele>648.0</ele><time>2026-04-25T07:59:51.938Z</time></trkpt><trkpt lat="43.4582883" lon="12.92519"><ele>648.0</ele><time>2026-04-25T07:59:53.939Z</time></trkpt><trkpt lat="43.458185" lon="12.925245"><ele>650.3333333333334</ele><time>2026-04-25T07:59:55.941Z</time></trkpt><trkpt lat="43.45812" lon="12.9252817"><ele>652.6666666666666</ele><time>2026-04-25T07:59:56.938Z</time></trkpt><trkpt lat="43.4580117" lon="12.9253083"><ele>655.0</ele><time>2026-04-25T07:59:58.984Z</time></trkpt><trkpt lat="43.45794" lon="12.925345"><ele>657.3333333333333</ele><time>2026-04-25T07:59:59.936Z</time></trkpt><trkpt lat="43.4578817" lon="12.9253867"><ele>659.6666666666666</ele><time>2026-04-25T08:00:00.932Z</time></trkpt><trkpt lat="43.457785" lon="12.9254567"><ele>662.0</ele><time>2026-04-25T08:00:02.929Z</time></trkpt><trkpt lat="43.4577033" lon="12.9255383"><ele>662.25</ele><time>2026-04-25T08:00:04.941Z</time></trkpt><trkpt lat="43.45763" lon="12.9256167"><ele>662.5</ele><time>2026-04-25T08:00:06.938Z</time></trkpt><trkpt lat="43.4575183" lon="12.9256867"><ele>662.75</ele><time>2026-04-25T08:00:08.941Z</time></trkpt><trkpt lat="43.457405" lon="12.9257433"><ele>663.0</ele><time>2026-04-25T08:00:10.938Z</time></trkpt><trkpt lat="43.4572867" lon="12.9257933"><ele>663.0</ele><time>2026-04-25T08:00:12.944Z</time></trkpt><trkpt lat="43.45721" lon="12.9258033"><ele>663.0</ele><time>2026-04-25T08:00:13.941Z</time></trkpt><trkpt lat="43.4571283" lon="12.9258217"><ele>663.0</ele><time>2026-04-25T08:00:14.941Z</time></trkpt><trkpt lat="43.4570517" lon="12.925825"><ele>663.0</ele><time>2026-04-25T08:00:15.941Z</time></trkpt><trkpt lat="43.4569367" lon="12.9258117"><ele>663.0</ele><time>2026-04-25T08:00:17.942Z</time></trkpt><trkpt lat="43.45687" lon="12.925825"><ele>663.0</ele><time>2026-04-25T08:00:18.939Z</time></trkpt><trkpt lat="43.456765" lon="12.9257867"><ele>665.0</ele><time>2026-04-25T08:00:20.935Z</time></trkpt><trkpt lat="43.4566817" lon="12.92577"><ele>667.0</ele><time>2026-04-25T08:00:23.003Z</time></trkpt><trkpt lat="43.4565967" lon="12.9257317"><ele>669.0</ele><time>2026-04-25T08:00:24.933Z</time></trkpt><trkpt lat="43.456525" lon="12.9256883"><ele>671.0</ele><time>2026-04-25T08:00:26.937Z</time></trkpt><trkpt lat="43.4564217" lon="12.9256733"><ele>673.0</ele><time>2026-04-25T08:00:28.988Z</time></trkpt><trkpt lat="43.4562933" lon="12.9256767"><ele>675.8</ele><time>2026-04-25T08:00:30.939Z</time></trkpt><trkpt lat="43.4561833" lon="12.9256983"><ele>678.5999999999999</ele><time>2026-04-25T08:00:32.943Z</time></trkpt><trkpt lat="43.4560833" lon="12.925715"><ele>681.4000000000001</ele><time>2026-04-25T08:00:34.936Z</time></trkpt><trkpt lat="43.4559683" lon="12.9257383"><ele>684.2</ele><time>2026-04-25T08:00:36.941Z</time></trkpt><trkpt lat="43.4558733" lon="12.925765"><ele>687.0</ele><time>2026-04-25T08:00:38.938Z</time></trkpt><trkpt lat="43.455805" lon="12.9257933"><ele>687.0</ele><time>2026-04-25T08:00:40.939Z</time></trkpt><trkpt lat="43.4557236" lon="12.9258154"><ele>687.0</ele><time>2026-04-25T08:00:42.931Z</time></trkpt><trkpt lat="43.4555996" lon="12.9258212"><ele>687.0</ele><time>2026-04-25T08:00:44.939Z</time></trkpt><trkpt lat="43.4554965" lon="12.9257639"><ele>687.0</ele><time>2026-04-25T08:00:46.929Z</time></trkpt><trkpt lat="43.4554294" lon="12.925726"><ele>687.0</ele><time>2026-04-25T08:00:48.939Z</time></trkpt><trkpt lat="43.4553468" lon="12.9256931"><ele>689.4285714285714</ele><time>2026-04-25T08:00:50.929Z</time></trkpt><trkpt lat="43.4552888" lon="12.9256461"><ele>691.8571428571428</ele><time>2026-04-25T08:00:52.976Z</time></trkpt><trkpt lat="43.4552335" lon="12.9255884"><ele>694.2857142857142</ele><time>2026-04-25T08:00:54.944Z</time></trkpt><trkpt lat="43.4551783" lon="12.9255231"><ele>696.7142857142858</ele><time>2026-04-25T08:00:56.942Z</time></trkpt><trkpt lat="43.4551195" lon="12.9254842"><ele>699.1428571428571</ele><time>2026-04-25T08:00:58.849Z</time></trkpt><trkpt lat="43.4550517" lon="12.925475"><ele>701.5714285714286</ele><time>2026-04-25T08:01:02.931Z</time></trkpt><trkpt lat="43.4549617" lon="12.925525"><ele>704.0</ele><time>2026-04-25T08:01:43.94Z</time></trkpt><trkpt lat="43.4550767" lon="12.9255667"><ele>704.0</ele><time>2026-04-25T08:02:08.932Z</time></trkpt><trkpt lat="43.455125" lon="12.9256417"><ele>704.0</ele><time>2026-04-25T08:02:10.938Z</time></trkpt><trkpt lat="43.4552017" lon="12.92567"><ele>704.0</ele><time>2026-04-25T08:02:12.939Z</time></trkpt><trkpt lat="43.4552783" lon="12.925705"><ele>704.0</ele><time>2026-04-25T08:02:14.933Z</time></trkpt><trkpt lat="43.4553517" lon="12.925755"><ele>704.0</ele><time>2026-04-25T08:02:16.941Z</time></trkpt><trkpt lat="43.4554267" lon="12.9258183"><ele>704.0</ele><time>2026-04-25T08:02:18.93Z</time></trkpt><trkpt lat="43.4554983" lon="12.9258933"><ele>705.2857142857143</ele><time>2026-04-25T08:02:20.94Z</time></trkpt><trkpt lat="43.4555633" lon="12.9259067"><ele>706.5714285714286</ele><time>2026-04-25T08:02:23.004Z</time></trkpt><trkpt lat="43.45563" lon="12.9259067"><ele>707.8571428571429</ele><time>2026-04-25T08:02:24.932Z</time></trkpt><trkpt lat="43.4556917" lon="12.925885"><ele>709.1428571428571</ele><time>2026-04-25T08:02:27.937Z</time></trkpt><trkpt lat="43.4557683" lon="12.9258567"><ele>710.4285714285714</ele><time>2026-04-25T08:02:29.939Z</time></trkpt><trkpt lat="43.45584" lon="12.9258717"><ele>711.7142857142857</ele><time>2026-04-25T08:02:32.937Z</time></trkpt><trkpt lat="43.45588" lon="12.92594"><ele>713.0</ele><time>2026-04-25T08:02:34.947Z</time></trkpt><trkpt lat="43.45597" lon="12.9259017"><ele>708.6666666666666</ele><time>2026-04-25T08:02:38.945Z</time></trkpt><trkpt lat="43.456035" lon="12.9258267"><ele>704.3333333333333</ele><time>2026-04-25T08:02:40.936Z</time></trkpt><trkpt lat="43.4561083" lon="12.925755"><ele>700.0</ele><time>2026-04-25T08:02:42.934Z</time></trkpt><trkpt lat="43.456195" lon="12.9257233"><ele>695.6666666666666</ele><time>2026-04-25T08:02:44.943Z</time></trkpt><trkpt lat="43.4562767" lon="12.9256983"><ele>691.3333333333334</ele><time>2026-04-25T08:02:46.94Z</time></trkpt><trkpt lat="43.4563583" lon="12.925695"><ele>687.0</ele><time>2026-04-25T08:02:48.941Z</time></trkpt><trkpt lat="43.456445" lon="12.925725"><ele>684.2</ele><time>2026-04-25T08:02:50.935Z</time></trkpt><trkpt lat="43.4565533" lon="12.9257633"><ele>681.4000000000001</ele><time>2026-04-25T08:02:53Z</time></trkpt><trkpt lat="43.4566617" lon="12.9258017"><ele>678.5999999999999</ele><time>2026-04-25T08:02:54.937Z</time></trkpt><trkpt lat="43.4567767" lon="12.925835"><ele>675.8</ele><time>2026-04-25T08:02:56.934Z</time></trkpt><trkpt lat="43.4568733" lon="12.92584"><ele>673.0</ele><time>2026-04-25T08:02:58.987Z</time></trkpt><trkpt lat="43.45698" lon="12.9258317"><ele>673.0</ele><time>2026-04-25T08:03:00.935Z</time></trkpt><trkpt lat="43.4571017" lon="12.9258367"><ele>673.0</ele><time>2026-04-25T08:03:02.935Z</time></trkpt><trkpt lat="43.45722" lon="12.9258267"><ele>673.0</ele><time>2026-04-25T08:03:04.935Z</time></trkpt><trkpt lat="43.45733" lon="12.9258117"><ele>673.0</ele><time>2026-04-25T08:03:06.938Z</time></trkpt><trkpt lat="43.4574217" lon="12.9257783"><ele>673.0</ele><time>2026-04-25T08:03:08.939Z</time></trkpt><trkpt lat="43.4574967" lon="12.925715"><ele>671.0</ele><time>2026-04-25T08:03:10.94Z</time></trkpt><trkpt lat="43.4575633" lon="12.9256317"><ele>669.0</ele><time>2026-04-25T08:03:12.939Z</time></trkpt><trkpt lat="43.4576517" lon="12.9255583"><ele>667.0</ele><time>2026-04-25T08:03:14.938Z</time></trkpt><trkpt lat="43.45772" lon="12.9255067"><ele>665.0</ele><time>2026-04-25T08:03:16.942Z</time></trkpt><trkpt lat="43.4578067" lon="12.925435"><ele>663.0</ele><time>2026-04-25T08:03:18.934Z</time></trkpt><trkpt lat="43.4579117" lon="12.9253933"><ele>662.8333333333334</ele><time>2026-04-25T08:03:20.94Z</time></trkpt><trkpt lat="43.4580017" lon="12.92537"><ele>662.6666666666666</ele><time>2026-04-25T08:03:23.001Z</time></trkpt><trkpt lat="43.45808" lon="12.9253483"><ele>662.5</ele><time>2026-04-25T08:03:24.941Z</time></trkpt><trkpt lat="43.458155" lon="12.9253167"><ele>662.3333333333333</ele><time>2026-04-25T08:03:26.936Z</time></trkpt><trkpt lat="43.458235" lon="12.9252683"><ele>662.1666666666666</ele><time>2026-04-25T08:03:28.983Z</time></trkpt><trkpt lat="43.4583033" lon="12.9252067"><ele>662.0</ele><time>2026-04-25T08:03:30.941Z</time></trkpt><trkpt lat="43.45838" lon="12.9251267"><ele>659.6666666666666</ele><time>2026-04-25T08:03:32.942Z</time></trkpt><trkpt lat="43.4584367" lon="12.9250283"><ele>657.3333333333333</ele><time>2026-04-25T08:03:34.946Z</time></trkpt><trkpt lat="43.4584967" lon="12.924935"><ele>655.0</ele><time>2026-04-25T08:03:36.94Z</time></trkpt><trkpt lat="43.4585483" lon="12.9248533"><ele>652.6666666666666</ele><time>2026-04-25T08:03:38.939Z</time></trkpt><trkpt lat="43.4585883" lon="12.9247683"><ele>650.3333333333334</ele><time>2026-04-25T08:03:40.932Z</time></trkpt><trkpt lat="43.458655" lon="12.924735"><ele>648.0</ele><time>2026-04-25T08:03:42.936Z</time></trkpt><trkpt lat="43.4587467" lon="12.924725"><ele>647.1666666666666</ele><time>2026-04-25T08:03:44.937Z</time></trkpt><trkpt lat="43.4588117" lon="12.9247217"><ele>646.3333333333334</ele><time>2026-04-25T08:03:45.941Z</time></trkpt><trkpt lat="43.4588767" lon="12.924745"><ele>645.5</ele><time>2026-04-25T08:03:46.937Z</time></trkpt><trkpt lat="43.4589717" lon="12.924745"><ele>644.6666666666667</ele><time>2026-04-25T08:03:48.93Z</time></trkpt><trkpt lat="43.4590433" lon="12.92473"><ele>643.8333333333334</ele><time>2026-04-25T08:03:50.94Z</time></trkpt><trkpt lat="43.4590533" lon="12.9248417"><ele>643.0</ele><time>2026-04-25T08:03:58.986Z</time></trkpt><trkpt lat="43.4590017" lon="12.9249783"><ele>644.4</ele><time>2026-04-25T08:04:00.934Z</time></trkpt><trkpt lat="43.458965" lon="12.9251067"><ele>645.8</ele><time>2026-04-25T08:04:02.944Z</time></trkpt><trkpt lat="43.4589533" lon="12.9252567"><ele>647.2</ele><time>2026-04-25T08:04:04.942Z</time></trkpt><trkpt lat="43.45896" lon="12.925415"><ele>648.6</ele><time>2026-04-25T08:04:06.932Z</time></trkpt><trkpt lat="43.4589683" lon="12.9255467"><ele>650.0</ele><time>2026-04-25T08:04:08.934Z</time></trkpt><trkpt lat="43.4590183" lon="12.9256833"><ele>650.0</ele><time>2026-04-25T08:04:10.932Z</time></trkpt><trkpt lat="43.4590867" lon="12.9257533"><ele>650.0</ele><time>2026-04-25T08:04:11.94Z</time></trkpt><trkpt lat="43.4591567" lon="12.9258733"><ele>650.0</ele><time>2026-04-25T08:04:13.932Z</time></trkpt><trkpt lat="43.45923" lon="12.9259733"><ele>650.0</ele><time>2026-04-25T08:04:15.934Z</time></trkpt><trkpt lat="43.45931" lon="12.9260583"><ele>650.0</ele><time>2026-04-25T08:04:17.935Z</time></trkpt><trkpt lat="43.4593583" lon="12.9261867"><ele>651.8</ele><time>2026-04-25T08:04:19.936Z</time></trkpt><trkpt lat="43.459405" lon="12.9263067"><ele>653.6</ele><time>2026-04-25T08:04:21.939Z</time></trkpt><trkpt lat="43.459395" lon="12.9264433"><ele>655.4000000000001</ele><time>2026-04-25T08:04:23.932Z</time></trkpt><trkpt lat="43.459375" lon="12.9265483"><ele>657.2</ele><time>2026-04-25T08:04:25.935Z</time></trkpt><trkpt lat="43.4593517" lon="12.9266533"><ele>659.0</ele><time>2026-04-25T08:04:27.938Z</time></trkpt><trkpt lat="43.4592833" lon="12.9267517"><ele>660.1666666666666</ele><time>2026-04-25T08:04:29.93Z</time></trkpt><trkpt lat="43.4592033" lon="12.9268083"><ele>661.3333333333333</ele><time>2026-04-25T08:04:31.933Z</time></trkpt><trkpt lat="43.4591433" lon="12.92685"><ele>662.5</ele><time>2026-04-25T08:04:32.944Z</time></trkpt><trkpt lat="43.4590767" lon="12.9268983"><ele>663.6666666666666</ele><time>2026-04-25T08:04:33.941Z</time></trkpt><trkpt lat="43.459" lon="12.927025"><ele>664.8333333333334</ele><time>2026-04-25T08:04:35.938Z</time></trkpt><trkpt lat="43.4589617" lon="12.92711"><ele>666.0</ele><time>2026-04-25T08:04:36.934Z</time></trkpt><trkpt lat="43.4589367" lon="12.927275"><ele>666.0</ele><time>2026-04-25T08:04:38.945Z</time></trkpt><trkpt lat="43.45892" lon="12.92743"><ele>666.0</ele><time>2026-04-25T08:04:40.937Z</time></trkpt><trkpt lat="43.4589317" lon="12.9275333"><ele>666.0</ele><time>2026-04-25T08:04:42.933Z</time></trkpt><trkpt lat="43.458915" lon="12.9276333"><ele>666.0</ele><time>2026-04-25T08:04:44.936Z</time></trkpt><trkpt lat="43.4588933" lon="12.9277267"><ele>666.0</ele><time>2026-04-25T08:04:46.948Z</time></trkpt><trkpt lat="43.4588467" lon="12.92784"><ele>666.0</ele><time>2026-04-25T08:04:48.933Z</time></trkpt><trkpt lat="43.4588067" lon="12.9279683"><ele>670.8333333333334</ele><time>2026-04-25T08:04:50.932Z</time></trkpt><trkpt lat="43.4587783" lon="12.9280633"><ele>675.6666666666666</ele><time>2026-04-25T08:04:53.934Z</time></trkpt><trkpt lat="43.458745" lon="12.9281733"><ele>680.5</ele><time>2026-04-25T08:04:57.934Z</time></trkpt><trkpt lat="43.4586933" lon="12.9282633"><ele>685.3333333333333</ele><time>2026-04-25T08:04:59.935Z</time></trkpt><trkpt lat="43.4586283" lon="12.9283683"><ele>690.1666666666666</ele><time>2026-04-25T08:05:01.929Z</time></trkpt><trkpt lat="43.45859" lon="12.9284767"><ele>695.0</ele><time>2026-04-25T08:05:03.931Z</time></trkpt><trkpt lat="43.4585733" lon="12.9285983"><ele>697.6</ele><time>2026-04-25T08:05:05.936Z</time></trkpt><trkpt lat="43.4585933" lon="12.92874"><ele>700.2</ele><time>2026-04-25T08:05:07.942Z</time></trkpt><trkpt lat="43.4585967" lon="12.9288883"><ele>702.8</ele><time>2026-04-25T08:05:09.935Z</time></trkpt><trkpt lat="43.4585667" lon="12.9290283"><ele>705.4</ele><time>2026-04-25T08:05:11.939Z</time></trkpt><trkpt lat="43.4585283" lon="12.9291067"><ele>708.0</ele><time>2026-04-25T08:05:12.931Z</time></trkpt><trkpt lat="43.4585367" lon="12.9292033"><ele>710.2</ele><time>2026-04-25T08:05:13.933Z</time></trkpt><trkpt lat="43.4585367" lon="12.929355"><ele>712.4</ele><time>2026-04-25T08:05:15.93Z</time></trkpt><trkpt lat="43.4585333" lon="12.9294433"><ele>714.6</ele><time>2026-04-25T08:05:16.933Z</time></trkpt><trkpt lat="43.45853" lon="12.92953"><ele>716.8000000000001</ele><time>2026-04-25T08:05:17.931Z</time></trkpt><trkpt lat="43.45852" lon="12.9296917"><ele>719.0</ele><time>2026-04-25T08:05:19.942Z</time></trkpt><trkpt lat="43.4584883" lon="12.9298617"><ele>719.0</ele><time>2026-04-25T08:05:21.935Z</time></trkpt><trkpt lat="43.45847" lon="12.9300267"><ele>719.0</ele><time>2026-04-25T08:05:23.931Z</time></trkpt><trkpt lat="43.45845" lon="12.9301217"><ele>719.0</ele><time>2026-04-25T08:05:24.943Z</time></trkpt><trkpt lat="43.4584567" lon="12.9302567"><ele>719.0</ele><time>2026-04-25T08:05:26.936Z</time></trkpt><trkpt lat="43.4584717" lon="12.9303783"><ele>719.0</ele><time>2026-04-25T08:05:28.982Z</time></trkpt><trkpt lat="43.4584617" lon="12.93049"><ele>719.8000000000001</ele><time>2026-04-25T08:05:30.937Z</time></trkpt><trkpt lat="43.4584167" lon="12.930605"><ele>720.6</ele><time>2026-04-25T08:05:32.938Z</time></trkpt><trkpt lat="43.4583367" lon="12.9306783"><ele>721.4</ele><time>2026-04-25T08:05:34.945Z</time></trkpt><trkpt lat="43.4582317" lon="12.9306833"><ele>722.2</ele><time>2026-04-25T08:05:36.939Z</time></trkpt><trkpt lat="43.458145" lon="12.9306283"><ele>723.0</ele><time>2026-04-25T08:05:38.945Z</time></trkpt><trkpt lat="43.4580517" lon="12.9306233"><ele>723.0</ele><time>2026-04-25T08:05:40.931Z</time></trkpt><trkpt lat="43.4579533" lon="12.9306317"><ele>723.0</ele><time>2026-04-25T08:05:42.937Z</time></trkpt><trkpt lat="43.457845" lon="12.9306167"><ele>723.0</ele><time>2026-04-25T08:05:44.939Z</time></trkpt><trkpt lat="43.4577283" lon="12.93057"><ele>723.0</ele><time>2026-04-25T08:05:46.939Z</time></trkpt><trkpt lat="43.4576667" lon="12.93054"><ele>723.0</ele><time>2026-04-25T08:05:47.938Z</time></trkpt><trkpt lat="43.4575483" lon="12.93047"><ele>725.8</ele><time>2026-04-25T08:05:49.934Z</time></trkpt><trkpt lat="43.4574883" lon="12.9304367"><ele>728.5999999999999</ele><time>2026-04-25T08:05:50.941Z</time></trkpt><trkpt lat="43.4574233" lon="12.9303933"><ele>731.4000000000001</ele><time>2026-04-25T08:05:51.939Z</time></trkpt><trkpt lat="43.4572967" lon="12.9303433"><ele>734.2</ele><time>2026-04-25T08:05:53.934Z</time></trkpt><trkpt lat="43.45719" lon="12.9302883"><ele>737.0</ele><time>2026-04-25T08:05:55.94Z</time></trkpt><trkpt lat="43.4570867" lon="12.9302167"><ele>739.5</ele><time>2026-04-25T08:05:57.944Z</time></trkpt><trkpt lat="43.4570217" lon="12.9301817"><ele>742.0</ele><time>2026-04-25T08:05:58.986Z</time></trkpt><trkpt lat="43.4569617" lon="12.9301467"><ele>744.5</ele><time>2026-04-25T08:05:59.932Z</time></trkpt><trkpt lat="43.456865" lon="12.9300833"><ele>747.0</ele><time>2026-04-25T08:06:01.94Z</time></trkpt><trkpt lat="43.4567867" lon="12.930065"><ele>749.5</ele><time>2026-04-25T08:06:03.942Z</time></trkpt><trkpt lat="43.4567233" lon="12.9300233"><ele>752.0</ele><time>2026-04-25T08:06:10.934Z</time></trkpt><trkpt lat="43.4566517" lon="12.93004"><ele>752.0</ele><time>2026-04-25T08:06:15.939Z</time></trkpt><trkpt lat="43.4565817" lon="12.9299883"><ele>752.0</ele><time>2026-04-25T08:06:22.987Z</time></trkpt><trkpt lat="43.4565483" lon="12.9299083"><ele>752.0</ele><time>2026-04-25T08:06:26.94Z</time></trkpt><trkpt lat="43.4564933" lon="12.9298"><ele>752.0</ele><time>2026-04-25T08:06:31.94Z</time></trkpt><trkpt lat="43.4564883" lon="12.9297133"><ele>752.0</ele><time>2026-04-25T08:06:34.932Z</time></trkpt><trkpt lat="43.4565267" lon="12.9296183"><ele>752.0</ele><time>2026-04-25T08:06:37.939Z</time></trkpt><trkpt lat="43.4566067" lon="12.9295267"><ele>752.0</ele><time>2026-04-25T08:06:39.943Z</time></trkpt><trkpt lat="43.4566056" lon="12.9293878"><ele>752.0</ele><time>2026-04-25T08:06:42.94Z</time></trkpt><trkpt lat="43.456576" lon="12.929291"><ele>752.0</ele><time>2026-04-25T08:06:44.851Z</time></trkpt><trkpt lat="43.4564967" lon="12.9291617"><ele>752.0</ele><time>2026-04-25T08:06:46.943Z</time></trkpt><trkpt lat="43.4564067" lon="12.929075"><ele>752.0</ele><time>2026-04-25T08:06:48.932Z</time></trkpt><trkpt lat="43.4563317" lon="12.9290067"><ele>755.1666666666666</ele><time>2026-04-25T08:06:50.941Z</time></trkpt><trkpt lat="43.4562583" lon="12.9289567"><ele>758.3333333333333</ele><time>2026-04-25T08:06:52.981Z</time></trkpt><trkpt lat="43.4561933" lon="12.928905"><ele>761.5</ele><time>2026-04-25T08:06:55.944Z</time></trkpt><trkpt lat="43.4561233" lon="12.9288933"><ele>764.6666666666666</ele><time>2026-04-25T08:06:57.94Z</time></trkpt><trkpt lat="43.4560483" lon="12.92891"><ele>767.8333333333334</ele><time>2026-04-25T08:06:59.935Z</time></trkpt><trkpt lat="43.455945" lon="12.928925"><ele>771.0</ele><time>2026-04-25T08:07:02.938Z</time></trkpt><trkpt lat="43.455875" lon="12.9289667"><ele>771.0</ele><time>2026-04-25T08:07:04.942Z</time></trkpt><trkpt lat="43.4558117" lon="12.9289983"><ele>771.0</ele><time>2026-04-25T08:07:06.935Z</time></trkpt><trkpt lat="43.4557567" lon="12.9290917"><ele>771.0</ele><time>2026-04-25T08:07:08.936Z</time></trkpt><trkpt lat="43.4556983" lon="12.92917"><ele>771.0</ele><time>2026-04-25T08:07:10.942Z</time></trkpt><trkpt lat="43.4556267" lon="12.92922"><ele>771.0</ele><time>2026-04-25T08:07:12.927Z</time></trkpt><trkpt lat="43.4555417" lon="12.9292383"><ele>771.0</ele><time>2026-04-25T08:07:14.943Z</time></trkpt><trkpt lat="43.4554533" lon="12.9291983"><ele>772.4</ele><time>2026-04-25T08:07:16.952Z</time></trkpt><trkpt lat="43.45535" lon="12.92914"><ele>773.8</ele><time>2026-04-25T08:07:18.94Z</time></trkpt><trkpt lat="43.4552417" lon="12.9290583"><ele>775.1999999999999</ele><time>2026-04-25T08:07:20.94Z</time></trkpt><trkpt lat="43.4551533" lon="12.9289933"><ele>776.5999999999999</ele><time>2026-04-25T08:07:23.003Z</time></trkpt><trkpt lat="43.4550917" lon="12.9289583"><ele>778.0</ele><time>2026-04-25T08:07:24.927Z</time></trkpt><trkpt lat="43.4550267" lon="12.92889"><ele>777.9999999999999</ele><time>2026-04-25T08:07:28.985Z</time></trkpt><trkpt lat="43.454955" lon="12.9288383"><ele>778.0</ele><time>2026-04-25T08:07:32.936Z</time></trkpt><trkpt lat="43.4548667" lon="12.928785"><ele>778.0</ele><time>2026-04-25T08:07:35.943Z</time></trkpt><trkpt lat="43.4548017" lon="12.928745"><ele>778.0</ele><time>2026-04-25T08:07:37.936Z</time></trkpt><trkpt lat="43.4547517" lon="12.92868"><ele>777.9999999999999</ele><time>2026-04-25T08:07:40.941Z</time></trkpt><trkpt lat="43.4546767" lon="12.928665"><ele>778.0</ele><time>2026-04-25T08:07:44.945Z</time></trkpt><trkpt lat="43.4546317" lon="12.9285567"><ele>779.2857142857143</ele><time>2026-04-25T08:07:59.929Z</time></trkpt><trkpt lat="43.4545683" lon="12.928505"><ele>780.5714285714286</ele><time>2026-04-25T08:08:01.939Z</time></trkpt><trkpt lat="43.4545083" lon="12.9284617"><ele>781.8571428571429</ele><time>2026-04-25T08:08:03.937Z</time></trkpt><trkpt lat="43.454445" lon="12.9284217"><ele>783.1428571428571</ele><time>2026-04-25T08:08:05.934Z</time></trkpt><trkpt lat="43.4543717" lon="12.9283767"><ele>784.4285714285713</ele><time>2026-04-25T08:08:08.935Z</time></trkpt><trkpt lat="43.4543033" lon="12.9283433"><ele>785.7142857142857</ele><time>2026-04-25T08:08:12.933Z</time></trkpt><trkpt lat="43.4542417" lon="12.9282983"><ele>787.0</ele><time>2026-04-25T08:08:17.94Z</time></trkpt><trkpt lat="43.4541483" lon="12.9282367"><ele>786.9999999999999</ele><time>2026-04-25T08:08:29.93Z</time></trkpt><trkpt lat="43.4540883" lon="12.92821"><ele>787.0</ele><time>2026-04-25T08:08:32.942Z</time></trkpt><trkpt lat="43.4540633" lon="12.92802"><ele>787.0</ele><time>2026-04-25T08:09:55.938Z</time></trkpt><trkpt lat="43.4541217" lon="12.92811"><ele>787.0</ele><time>2026-04-25T08:10:37.936Z</time></trkpt><trkpt lat="43.4540583" lon="12.9280933"><ele>786.9999999999999</ele><time>2026-04-25T08:12:38.93Z</time></trkpt><trkpt lat="43.4539717" lon="12.928125"><ele>787.0</ele><time>2026-04-25T08:12:39.938Z</time></trkpt><trkpt lat="43.4540533" lon="12.9281033"><ele>787.0</ele><time>2026-04-25T08:14:29.935Z</time></trkpt><trkpt lat="43.4539883" lon="12.928215"><ele>787.0</ele><time>2026-04-25T08:16:52.996Z</time></trkpt><trkpt lat="43.4540733" lon="12.9281917"><ele>787.0</ele><time>2026-04-25T08:17:17.929Z</time></trkpt><trkpt lat="43.45412" lon="12.9282717"><ele>787.0</ele><time>2026-04-25T08:17:21.935Z</time></trkpt><trkpt lat="43.4541817" lon="12.92831"><ele>787.0</ele><time>2026-04-25T08:17:24.927Z</time></trkpt><trkpt lat="43.4543" lon="12.9284"><ele>785.4999999999999</ele><time>2026-04-25T08:17:38.934Z</time></trkpt><trkpt lat="43.45437" lon="12.9284517"><ele>784.0</ele><time>2026-04-25T08:17:42.931Z</time></trkpt><trkpt lat="43.4544517" lon="12.928505"><ele>782.5</ele><time>2026-04-25T08:17:45.929Z</time></trkpt><trkpt lat="43.454535" lon="12.928605"><ele>781.0</ele><time>2026-04-25T08:18:24.933Z</time></trkpt><trkpt lat="43.4545867" lon="12.9286567"><ele>779.4999999999999</ele><time>2026-04-25T08:18:27.933Z</time></trkpt><trkpt lat="43.4546533" lon="12.9286583"><ele>778.0</ele><time>2026-04-25T08:18:30.936Z</time></trkpt><trkpt lat="43.4547283" lon="12.9287133"><ele>778.0</ele><time>2026-04-25T08:18:34.946Z</time></trkpt><trkpt lat="43.454795" lon="12.928775"><ele>778.0</ele><time>2026-04-25T08:18:37.937Z</time></trkpt><trkpt lat="43.4548767" lon="12.928845"><ele>778.0</ele><time>2026-04-25T08:18:40.947Z</time></trkpt><trkpt lat="43.45493" lon="12.9289033"><ele>778.0</ele><time>2026-04-25T08:18:42.938Z</time></trkpt><trkpt lat="43.45498" lon="12.92896"><ele>778.0</ele><time>2026-04-25T08:18:44.94Z</time></trkpt><trkpt lat="43.455035" lon="12.9290067"><ele>778.0</ele><time>2026-04-25T08:18:46.951Z</time></trkpt><trkpt lat="43.4551" lon="12.9290467"><ele>778.0</ele><time>2026-04-25T08:18:48.937Z</time></trkpt><trkpt lat="43.45517" lon="12.9290883"><ele>778.0</ele><time>2026-04-25T08:18:50.932Z</time></trkpt><trkpt lat="43.4552283" lon="12.9291283"><ele>778.0</ele><time>2026-04-25T08:18:52.98Z</time></trkpt><trkpt lat="43.4552983" lon="12.9291933"><ele>778.0</ele><time>2026-04-25T08:18:55.941Z</time></trkpt><trkpt lat="43.4553617" lon="12.9292233"><ele>778.0</ele><time>2026-04-25T08:18:58.983Z</time></trkpt><trkpt lat="43.45544" lon="12.9292333"><ele>778.0</ele><time>2026-04-25T08:19:04.951Z</time></trkpt><trkpt lat="43.4555067" lon="12.9291667"><ele>778.0</ele><time>2026-04-25T08:19:07.937Z</time></trkpt><trkpt lat="43.45555" lon="12.9291033"><ele>778.0</ele><time>2026-04-25T08:19:09.94Z</time></trkpt><trkpt lat="43.4555867" lon="12.9290283"><ele>777.0</ele><time>2026-04-25T08:19:12.941Z</time></trkpt><trkpt lat="43.455645" lon="12.9289767"><ele>776.0</ele><time>2026-04-25T08:19:16.949Z</time></trkpt><trkpt lat="43.4557167" lon="12.9289183"><ele>775.0</ele><time>2026-04-25T08:19:19.943Z</time></trkpt><trkpt lat="43.45578" lon="12.9288783"><ele>774.0</ele><time>2026-04-25T08:19:21.939Z</time></trkpt><trkpt lat="43.4558517" lon="12.9288683"><ele>773.0</ele><time>2026-04-25T08:19:24.935Z</time></trkpt><trkpt lat="43.4559283" lon="12.9288517"><ele>772.0</ele><time>2026-04-25T08:19:27.943Z</time></trkpt><trkpt lat="43.456" lon="12.9288533"><ele>771.0</ele><time>2026-04-25T08:19:30.935Z</time></trkpt><trkpt lat="43.456075" lon="12.9289133"><ele>771.0</ele><time>2026-04-25T08:19:33.941Z</time></trkpt><trkpt lat="43.4561317" lon="12.9289817"><ele>771.0</ele><time>2026-04-25T08:19:35.938Z</time></trkpt><trkpt lat="43.4561767" lon="12.9290583"><ele>771.0</ele><time>2026-04-25T08:19:37.937Z</time></trkpt><trkpt lat="43.4562517" lon="12.9291217"><ele>771.0</ele><time>2026-04-25T08:19:39.94Z</time></trkpt><trkpt lat="43.4563133" lon="12.9291883"><ele>771.0</ele><time>2026-04-25T08:19:41.942Z</time></trkpt><trkpt lat="43.4563667" lon="12.9292867"><ele>771.0</ele><time>2026-04-25T08:19:43.937Z</time></trkpt><trkpt lat="43.4564233" lon="12.92937"><ele>768.2857142857143</ele><time>2026-04-25T08:19:45.936Z</time></trkpt><trkpt lat="43.4564667" lon="12.9294683"><ele>765.5714285714286</ele><time>2026-04-25T08:19:48.935Z</time></trkpt><trkpt lat="43.4564667" lon="12.9295583"><ele>762.8571428571429</ele><time>2026-04-25T08:19:53.94Z</time></trkpt><trkpt lat="43.4564233" lon="12.9296317"><ele>760.1428571428571</ele><time>2026-04-25T08:19:56.938Z</time></trkpt><trkpt lat="43.4563767" lon="12.9297317"><ele>757.4285714285713</ele><time>2026-04-25T08:19:59.934Z</time></trkpt><trkpt lat="43.456375" lon="12.929835"><ele>754.7142857142857</ele><time>2026-04-25T08:20:01.939Z</time></trkpt><trkpt lat="43.4564067" lon="12.92992"><ele>752.0</ele><time>2026-04-25T08:20:03.932Z</time></trkpt><trkpt lat="43.456455" lon="12.9300167"><ele>752.0</ele><time>2026-04-25T08:20:09.936Z</time></trkpt><trkpt lat="43.4565817" lon="12.9300383"><ele>752.0</ele><time>2026-04-25T08:20:21.933Z</time></trkpt><trkpt lat="43.4566033" lon="12.93015"><ele>752.0</ele><time>2026-04-25T08:20:24.936Z</time></trkpt><trkpt lat="43.456685" lon="12.93022"><ele>752.0</ele><time>2026-04-25T08:20:26.937Z</time></trkpt><trkpt lat="43.4567767" lon="12.93027"><ele>752.0</ele><time>2026-04-25T08:20:28.984Z</time></trkpt><trkpt lat="43.45685" lon="12.93032"><ele>752.2</ele><time>2026-04-25T08:20:30.934Z</time></trkpt><trkpt lat="43.4569567" lon="12.9303617"><ele>752.4000000000001</ele><time>2026-04-25T08:20:32.937Z</time></trkpt><trkpt lat="43.4570617" lon="12.9303933"><ele>752.5999999999999</ele><time>2026-04-25T08:20:34.953Z</time></trkpt><trkpt lat="43.457155" lon="12.93042"><ele>752.8</ele><time>2026-04-25T08:20:36.932Z</time></trkpt><trkpt lat="43.45724" lon="12.9304617"><ele>753.0</ele><time>2026-04-25T08:20:38.939Z</time></trkpt><trkpt lat="43.457345" lon="12.9305283"><ele>749.8</ele><time>2026-04-25T08:20:40.954Z</time></trkpt><trkpt lat="43.457405" lon="12.93056"><ele>746.5999999999999</ele><time>2026-04-25T08:20:41.931Z</time></trkpt><trkpt lat="43.4575017" lon="12.9306267"><ele>743.4000000000001</ele><time>2026-04-25T08:20:43.937Z</time></trkpt><trkpt lat="43.4575917" lon="12.93069"><ele>740.2</ele><time>2026-04-25T08:20:45.937Z</time></trkpt><trkpt lat="43.4577033" lon="12.930725"><ele>737.0</ele><time>2026-04-25T08:20:47.938Z</time></trkpt><trkpt lat="43.457815" lon="12.9307233"><ele>737.0</ele><time>2026-04-25T08:20:49.936Z</time></trkpt><trkpt lat="43.4579283" lon="12.9306967"><ele>737.0</ele><time>2026-04-25T08:20:51.94Z</time></trkpt><trkpt lat="43.45803" lon="12.9306933"><ele>737.0</ele><time>2026-04-25T08:20:53.932Z</time></trkpt><trkpt lat="43.4581167" lon="12.9307"><ele>737.0</ele><time>2026-04-25T08:20:55.937Z</time></trkpt><trkpt lat="43.4582033" lon="12.930715"><ele>737.0</ele><time>2026-04-25T08:20:57.933Z</time></trkpt><trkpt lat="43.458305" lon="12.9307267"><ele>734.2</ele><time>2026-04-25T08:20:59.936Z</time></trkpt><trkpt lat="43.4584017" lon="12.93072"><ele>731.4000000000001</ele><time>2026-04-25T08:21:01.937Z</time></trkpt><trkpt lat="43.458485" lon="12.9306667"><ele>728.5999999999999</ele><time>2026-04-25T08:21:03.94Z</time></trkpt><trkpt lat="43.45854" lon="12.9305517"><ele>725.8</ele><time>2026-04-25T08:21:05.943Z</time></trkpt><trkpt lat="43.4585567" lon="12.9304133"><ele>723.0</ele><time>2026-04-25T08:21:07.939Z</time></trkpt><trkpt lat="43.4585617" lon="12.9302933"><ele>723.0</ele><time>2026-04-25T08:21:09.936Z</time></trkpt><trkpt lat="43.45853" lon="12.9302067"><ele>723.0</ele><time>2026-04-25T08:21:10.95Z</time></trkpt><trkpt lat="43.4585117" lon="12.9300783"><ele>723.0</ele><time>2026-04-25T08:21:13.931Z</time></trkpt><trkpt lat="43.4584917" lon="12.9299817"><ele>723.0</ele><time>2026-04-25T08:21:15.935Z</time></trkpt><trkpt lat="43.4584683" lon="12.9298967"><ele>723.0</ele><time>2026-04-25T08:21:17.93Z</time></trkpt><trkpt lat="43.45844" lon="12.9297867"><ele>723.0</ele><time>2026-04-25T08:21:20.938Z</time></trkpt><trkpt lat="43.458455" lon="12.9296933"><ele>722.3333333333334</ele><time>2026-04-25T08:21:22.976Z</time></trkpt><trkpt lat="43.4584767" lon="12.9295783"><ele>721.6666666666666</ele><time>2026-04-25T08:21:24.934Z</time></trkpt><trkpt lat="43.4584917" lon="12.9294383"><ele>721.0</ele><time>2026-04-25T08:21:26.931Z</time></trkpt><trkpt lat="43.4585033" lon="12.929315"><ele>720.3333333333333</ele><time>2026-04-25T08:21:28.988Z</time></trkpt><trkpt lat="43.45852" lon="12.92921"><ele>719.6666666666666</ele><time>2026-04-25T08:21:30.937Z</time></trkpt><trkpt lat="43.4585567" lon="12.9291167"><ele>719.0</ele><time>2026-04-25T08:21:32.931Z</time></trkpt><trkpt lat="43.45856" lon="12.9289783"><ele>717.1666666666666</ele><time>2026-04-25T08:21:35.935Z</time></trkpt><trkpt lat="43.4585567" lon="12.9288717"><ele>715.3333333333333</ele><time>2026-04-25T08:21:37.937Z</time></trkpt><trkpt lat="43.4585483" lon="12.92877"><ele>713.5</ele><time>2026-04-25T08:21:39.931Z</time></trkpt><trkpt lat="43.4585667" lon="12.9286517"><ele>711.6666666666666</ele><time>2026-04-25T08:21:41.937Z</time></trkpt><trkpt lat="43.4585983" lon="12.9285383"><ele>709.8333333333334</ele><time>2026-04-25T08:21:43.93Z</time></trkpt><trkpt lat="43.4586283" lon="12.9284217"><ele>708.0</ele><time>2026-04-25T08:21:45.934Z</time></trkpt><trkpt lat="43.4586667" lon="12.92831"><ele>705.8333333333334</ele><time>2026-04-25T08:21:47.935Z</time></trkpt><trkpt lat="43.4587167" lon="12.9282017"><ele>703.6666666666666</ele><time>2026-04-25T08:21:50.94Z</time></trkpt><trkpt lat="43.458765" lon="12.928105"><ele>701.5</ele><time>2026-04-25T08:21:53.932Z</time></trkpt><trkpt lat="43.45881" lon="12.9280017"><ele>699.3333333333333</ele><time>2026-04-25T08:21:56.937Z</time></trkpt><trkpt lat="43.4588383" lon="12.9279133"><ele>697.1666666666666</ele><time>2026-04-25T08:21:58.983Z</time></trkpt><trkpt lat="43.4588817" lon="12.9277967"><ele>695.0</ele><time>2026-04-25T08:22:01.936Z</time></trkpt><trkpt lat="43.4589117" lon="12.927705"><ele>690.4</ele><time>2026-04-25T08:22:03.934Z</time></trkpt><trkpt lat="43.4589283" lon="12.9276117"><ele>685.8</ele><time>2026-04-25T08:22:05.94Z</time></trkpt><trkpt lat="43.4589433" lon="12.927495"><ele>681.2</ele><time>2026-04-25T08:22:07.933Z</time></trkpt><trkpt lat="43.458965" lon="12.9273417"><ele>676.6</ele><time>2026-04-25T08:22:09.939Z</time></trkpt><trkpt lat="43.45898" lon="12.9272233"><ele>672.0</ele><time>2026-04-25T08:22:11.938Z</time></trkpt><trkpt lat="43.45901" lon="12.9270883"><ele>671.0</ele><time>2026-04-25T08:22:13.936Z</time></trkpt><trkpt lat="43.45907" lon="12.9270083"><ele>670.0</ele><time>2026-04-25T08:22:15.931Z</time></trkpt><trkpt lat="43.4591467" lon="12.926935"><ele>669.0</ele><time>2026-04-25T08:22:17.937Z</time></trkpt><trkpt lat="43.4592283" lon="12.9268817"><ele>668.0</ele><time>2026-04-25T08:22:19.938Z</time></trkpt><trkpt lat="43.4592767" lon="12.9267917"><ele>667.0</ele><time>2026-04-25T08:22:21.951Z</time></trkpt><trkpt lat="43.4593167" lon="12.92668"><ele>666.0</ele><time>2026-04-25T08:22:23.929Z</time></trkpt><trkpt lat="43.45935" lon="12.926585"><ele>664.8333333333334</ele><time>2026-04-25T08:22:25.938Z</time></trkpt><trkpt lat="43.4593683" lon="12.9265"><ele>663.6666666666666</ele><time>2026-04-25T08:22:27.927Z</time></trkpt><trkpt lat="43.45939" lon="12.9263883"><ele>662.5</ele><time>2026-04-25T08:22:29.936Z</time></trkpt><trkpt lat="43.459355" lon="12.9262783"><ele>661.3333333333333</ele><time>2026-04-25T08:22:31.937Z</time></trkpt><trkpt lat="43.4593133" lon="12.9261517"><ele>660.1666666666666</ele><time>2026-04-25T08:22:33.934Z</time></trkpt><trkpt lat="43.4592467" lon="12.9261117"><ele>659.0</ele><time>2026-04-25T08:22:34.949Z</time></trkpt><trkpt lat="43.45915" lon="12.9260067"><ele>659.0</ele><time>2026-04-25T08:22:36.939Z</time></trkpt><trkpt lat="43.4591" lon="12.9259483"><ele>659.0</ele><time>2026-04-25T08:22:37.936Z</time></trkpt><trkpt lat="43.4590433" lon="12.92588"><ele>659.0</ele><time>2026-04-25T08:22:38.936Z</time></trkpt><trkpt lat="43.45899" lon="12.92582"><ele>659.0</ele><time>2026-04-25T08:22:39.937Z</time></trkpt><trkpt lat="43.4589067" lon="12.9257167"><ele>659.0</ele><time>2026-04-25T08:22:41.937Z</time></trkpt><trkpt lat="43.4588783" lon="12.9256083"><ele>659.0</ele><time>2026-04-25T08:22:43.937Z</time></trkpt><trkpt lat="43.458895" lon="12.9254783"><ele>657.2</ele><time>2026-04-25T08:22:45.935Z</time></trkpt><trkpt lat="43.4589267" lon="12.9253217"><ele>655.4000000000001</ele><time>2026-04-25T08:22:47.937Z</time></trkpt><trkpt lat="43.4589483" lon="12.9251483"><ele>653.6</ele><time>2026-04-25T08:22:49.94Z</time></trkpt><trkpt lat="43.4589667" lon="12.9250617"><ele>651.8</ele><time>2026-04-25T08:22:50.933Z</time></trkpt><trkpt lat="43.458995" lon="12.9249217"><ele>650.0</ele><time>2026-04-25T08:22:52.998Z</time></trkpt><trkpt lat="43.45903" lon="12.9247933"><ele>648.6</ele><time>2026-04-25T08:22:54.935Z</time></trkpt><trkpt lat="43.459065" lon="12.9246583"><ele>647.2</ele><time>2026-04-25T08:22:56.938Z</time></trkpt><trkpt lat="43.4590833" lon="12.9245583"><ele>645.8</ele><time>2026-04-25T08:22:57.931Z</time></trkpt><trkpt lat="43.4591017" lon="12.9244467"><ele>644.4</ele><time>2026-04-25T08:22:58.988Z</time></trkpt><trkpt lat="43.4591317" lon="12.924315"><ele>643.0</ele><time>2026-04-25T08:22:59.927Z</time></trkpt><trkpt lat="43.4591633" lon="12.9241817"><ele>643.0</ele><time>2026-04-25T08:23:00.934Z</time></trkpt><trkpt lat="43.4591883" lon="12.92406"><ele>643.0</ele><time>2026-04-25T08:23:01.932Z</time></trkpt><trkpt lat="43.459205" lon="12.9239433"><ele>643.0</ele><time>2026-04-25T08:23:02.931Z</time></trkpt><trkpt lat="43.45922" lon="12.923825"><ele>643.0</ele><time>2026-04-25T08:23:03.926Z</time></trkpt><trkpt lat="43.4592317" lon="12.9237167"><ele>643.0</ele><time>2026-04-25T08:23:04.941Z</time></trkpt><trkpt lat="43.4592433" lon="12.92362"><ele>643.0</ele><time>2026-04-25T08:23:05.93Z</time></trkpt><trkpt lat="43.4592633" lon="12.9235333"><ele>644.5999999999999</ele><time>2026-04-25T08:23:06.929Z</time></trkpt><trkpt lat="43.4593033" lon="12.9233883"><ele>646.1999999999999</ele><time>2026-04-25T08:23:08.94Z</time></trkpt><trkpt lat="43.459325" lon="12.9232633"><ele>647.8</ele><time>2026-04-25T08:23:10.949Z</time></trkpt><trkpt lat="43.4592833" lon="12.9231333"><ele>649.4</ele><time>2026-04-25T08:23:12.928Z</time></trkpt><trkpt lat="43.459215" lon="12.9230233"><ele>651.0</ele><time>2026-04-25T08:23:14.932Z</time></trkpt><trkpt lat="43.459145" lon="12.9229017"><ele>651.0</ele><time>2026-04-25T08:23:16.942Z</time></trkpt><trkpt lat="43.4591017" lon="12.92282"><ele>651.0</ele><time>2026-04-25T08:23:17.936Z</time></trkpt><trkpt lat="43.4590683" lon="12.9227283"><ele>651.0</ele><time>2026-04-25T08:23:18.932Z</time></trkpt><trkpt lat="43.4590333" lon="12.92258"><ele>651.0</ele><time>2026-04-25T08:23:20.935Z</time></trkpt><trkpt lat="43.45906" lon="12.922445"><ele>651.0</ele><time>2026-04-25T08:23:22.963Z</time></trkpt><trkpt lat="43.4590983" lon="12.9223267"><ele>652.6666666666666</ele><time>2026-04-25T08:23:24.936Z</time></trkpt><trkpt lat="43.4591067" lon="12.9221517"><ele>654.3333333333334</ele><time>2026-04-25T08:23:26.935Z</time></trkpt><trkpt lat="43.4590917" lon="12.9220433"><ele>656.0</ele><time>2026-04-25T08:23:27.93Z</time></trkpt><trkpt lat="43.459075" lon="12.9219433"><ele>657.6666666666667</ele><time>2026-04-25T08:23:28.989Z</time></trkpt><trkpt lat="43.4590683" lon="12.92185"><ele>659.3333333333334</ele><time>2026-04-25T08:23:29.932Z</time></trkpt><trkpt lat="43.45906" lon="12.92176"><ele>661.0</ele><time>2026-04-25T08:23:30.928Z</time></trkpt><trkpt lat="43.4590683" lon="12.92167"><ele>661.1999999999999</ele><time>2026-04-25T08:23:31.93Z</time></trkpt><trkpt lat="43.459095" lon="12.9215217"><ele>661.4</ele><time>2026-04-25T08:23:33.934Z</time></trkpt><trkpt lat="43.45912" lon="12.921435"><ele>661.6</ele><time>2026-04-25T08:23:34.944Z</time></trkpt><trkpt lat="43.459195" lon="12.921275"><ele>661.8</ele><time>2026-04-25T08:23:36.923Z</time></trkpt><trkpt lat="43.4592333" lon="12.9211767"><ele>662.0</ele><time>2026-04-25T08:23:37.934Z</time></trkpt><trkpt lat="43.4592667" lon="12.9210683"><ele>662.0</ele><time>2026-04-25T08:23:38.943Z</time></trkpt><trkpt lat="43.4592883" lon="12.9209683"><ele>662.0</ele><time>2026-04-25T08:23:39.937Z</time></trkpt><trkpt lat="43.4593033" lon="12.9208617"><ele>662.0</ele><time>2026-04-25T08:23:40.955Z</time></trkpt><trkpt lat="43.4593317" lon="12.920755"><ele>662.0</ele><time>2026-04-25T08:23:41.936Z</time></trkpt><trkpt lat="43.45936" lon="12.920665"><ele>662.0</ele><time>2026-04-25T08:23:42.939Z</time></trkpt><trkpt lat="43.4594233" lon="12.920535"><ele>662.0</ele><time>2026-04-25T08:23:44.939Z</time></trkpt><trkpt lat="43.459425" lon="12.9203933"><ele>662.0</ele><time>2026-04-25T08:23:46.948Z</time></trkpt><trkpt lat="43.4594267" lon="12.920235"><ele>662.0</ele><time>2026-04-25T08:23:48.943Z</time></trkpt><trkpt lat="43.4594317" lon="12.9201"><ele>662.0</ele><time>2026-04-25T08:23:50.938Z</time></trkpt><trkpt lat="43.459445" lon="12.9199883"><ele>662.0</ele><time>2026-04-25T08:23:53.002Z</time></trkpt><trkpt lat="43.4594483" lon="12.919835"><ele>662.0</ele><time>2026-04-25T08:23:54.938Z</time></trkpt><trkpt lat="43.4594483" lon="12.9197417"><ele>661.6</ele><time>2026-04-25T08:23:55.936Z</time></trkpt><trkpt lat="43.45946" lon="12.9196533"><ele>661.2</ele><time>2026-04-25T08:23:56.93Z</time></trkpt><trkpt lat="43.459475" lon="12.9194967"><ele>660.8</ele><time>2026-04-25T08:23:58.984Z</time></trkpt><trkpt lat="43.4595017" lon="12.9193467"><ele>660.4</ele><time>2026-04-25T08:24:00.933Z</time></trkpt><trkpt lat="43.4595333" lon="12.91919"><ele>660.0</ele><time>2026-04-25T08:24:02.939Z</time></trkpt><trkpt lat="43.4595533" lon="12.9190483"><ele>658.2</ele><time>2026-04-25T08:24:04.95Z</time></trkpt><trkpt lat="43.459575" lon="12.9188983"><ele>656.4</ele><time>2026-04-25T08:24:06.933Z</time></trkpt><trkpt lat="43.4595817" lon="12.9187833"><ele>654.5999999999999</ele><time>2026-04-25T08:24:08.937Z</time></trkpt><trkpt lat="43.459575" lon="12.9186833"><ele>652.8</ele><time>2026-04-25T08:24:10.941Z</time></trkpt><trkpt lat="43.4595717" lon="12.9185683"><ele>651.0</ele><time>2026-04-25T08:24:12.937Z</time></trkpt><trkpt lat="43.459575" lon="12.918405"><ele>648.5999999999999</ele><time>2026-04-25T08:24:14.941Z</time></trkpt><trkpt lat="43.4595667" lon="12.9182433"><ele>646.1999999999999</ele><time>2026-04-25T08:24:16.938Z</time></trkpt><trkpt lat="43.45957" lon="12.9181133"><ele>643.8</ele><time>2026-04-25T08:24:18.931Z</time></trkpt><trkpt lat="43.4595483" lon="12.918005"><ele>641.4</ele><time>2026-04-25T08:24:20.934Z</time></trkpt><trkpt lat="43.459515" lon="12.917895"><ele>639.0</ele><time>2026-04-25T08:24:22.998Z</time></trkpt><trkpt lat="43.4594733" lon="12.917785"><ele>639.0</ele><time>2026-04-25T08:24:24.93Z</time></trkpt><trkpt lat="43.45943" lon="12.9176933"><ele>639.0</ele><time>2026-04-25T08:24:26.936Z</time></trkpt><trkpt lat="43.4593933" lon="12.91757"><ele>639.0</ele><time>2026-04-25T08:24:28.978Z</time></trkpt><trkpt lat="43.4593667" lon="12.9174317"><ele>639.0</ele><time>2026-04-25T08:24:30.931Z</time></trkpt><trkpt lat="43.459335" lon="12.9173033"><ele>639.0</ele><time>2026-04-25T08:24:32.932Z</time></trkpt><trkpt lat="43.4593067" lon="12.9171817"><ele>635.0</ele><time>2026-04-25T08:24:34.943Z</time></trkpt><trkpt lat="43.459265" lon="12.9170767"><ele>631.0</ele><time>2026-04-25T08:24:36.93Z</time></trkpt><trkpt lat="43.4592117" lon="12.916975"><ele>627.0</ele><time>2026-04-25T08:24:38.934Z</time></trkpt><trkpt lat="43.4591617" lon="12.9168583"><ele>623.0</ele><time>2026-04-25T08:24:40.941Z</time></trkpt><trkpt lat="43.4591533" lon="12.91674"><ele>619.0</ele><time>2026-04-25T08:24:42.937Z</time></trkpt><trkpt lat="43.4591517" lon="12.9166117"><ele>615.4</ele><time>2026-04-25T08:24:44.935Z</time></trkpt><trkpt lat="43.4590967" lon="12.9165"><ele>611.8</ele><time>2026-04-25T08:24:46.95Z</time></trkpt><trkpt lat="43.4590383" lon="12.916405"><ele>608.2</ele><time>2026-04-25T08:24:48.932Z</time></trkpt><trkpt lat="43.4589667" lon="12.9162633"><ele>604.6</ele><time>2026-04-25T08:24:50.944Z</time></trkpt><trkpt lat="43.45893" lon="12.9161767"><ele>601.0</ele><time>2026-04-25T08:24:51.934Z</time></trkpt><trkpt lat="43.4589083" lon="12.9160933"><ele>601.0</ele><time>2026-04-25T08:24:52.996Z</time></trkpt><trkpt lat="43.4588983" lon="12.9159967"><ele>601.0</ele><time>2026-04-25T08:24:53.93Z</time></trkpt><trkpt lat="43.4588733" lon="12.91584"><ele>601.0</ele><time>2026-04-25T08:24:55.934Z</time></trkpt><trkpt lat="43.4588217" lon="12.915715"><ele>601.0</ele><time>2026-04-25T08:24:57.938Z</time></trkpt><trkpt lat="43.4587533" lon="12.915575"><ele>601.0</ele><time>2026-04-25T08:24:59.936Z</time></trkpt><trkpt lat="43.4587183" lon="12.915495"><ele>598.0</ele><time>2026-04-25T08:25:00.93Z</time></trkpt><trkpt lat="43.4586783" lon="12.915425"><ele>595.0</ele><time>2026-04-25T08:25:01.929Z</time></trkpt><trkpt lat="43.458645" lon="12.91535"><ele>592.0</ele><time>2026-04-25T08:25:02.938Z</time></trkpt><trkpt lat="43.4586067" lon="12.91528"><ele>589.0</ele><time>2026-04-25T08:25:03.935Z</time></trkpt><trkpt lat="43.4585683" lon="12.9151967"><ele>586.0</ele><time>2026-04-25T08:25:04.947Z</time></trkpt><trkpt lat="43.4585417" lon="12.9150883"><ele>583.0</ele><time>2026-04-25T08:25:05.928Z</time></trkpt><trkpt lat="43.4585067" lon="12.9149917"><ele>580.0</ele><time>2026-04-25T08:25:06.933Z</time></trkpt><trkpt lat="43.458475" lon="12.9148933"><ele>577.5</ele><time>2026-04-25T08:25:07.933Z</time></trkpt><trkpt lat="43.4584517" lon="12.9147867"><ele>575.0</ele><time>2026-04-25T08:25:08.937Z</time></trkpt><trkpt lat="43.4584467" lon="12.9146567"><ele>572.5</ele><time>2026-04-25T08:25:09.928Z</time></trkpt><trkpt lat="43.4584283" lon="12.9145383"><ele>570.0</ele><time>2026-04-25T08:25:10.943Z</time></trkpt><trkpt lat="43.4584117" lon="12.9144433"><ele>567.5</ele><time>2026-04-25T08:25:11.93Z</time></trkpt><trkpt lat="43.4583933" lon="12.9142883"><ele>565.0</ele><time>2026-04-25T08:25:13.932Z</time></trkpt><trkpt lat="43.45836" lon="12.9141567"><ele>564.1666666666667</ele><time>2026-04-25T08:25:15.933Z</time></trkpt><trkpt lat="43.4583367" lon="12.9140617"><ele>563.3333333333334</ele><time>2026-04-25T08:25:16.939Z</time></trkpt><trkpt lat="43.45832" lon="12.913965"><ele>562.5</ele><time>2026-04-25T08:25:17.931Z</time></trkpt><trkpt lat="43.458295" lon="12.9138683"><ele>561.6666666666666</ele><time>2026-04-25T08:25:18.931Z</time></trkpt><trkpt lat="43.45827" lon="12.9137683"><ele>560.8333333333333</ele><time>2026-04-25T08:25:19.933Z</time></trkpt><trkpt lat="43.4582383" lon="12.9136617"><ele>560.0</ele><time>2026-04-25T08:25:20.928Z</time></trkpt><trkpt lat="43.4581883" lon="12.9135517"><ele>560.0</ele><time>2026-04-25T08:25:21.935Z</time></trkpt><trkpt lat="43.45815" lon="12.913435"><ele>560.0</ele><time>2026-04-25T08:25:22.999Z</time></trkpt><trkpt lat="43.4581133" lon="12.9133117"><ele>560.0</ele><time>2026-04-25T08:25:23.932Z</time></trkpt><trkpt lat="43.4580783" lon="12.913185"><ele>560.0</ele><time>2026-04-25T08:25:24.934Z</time></trkpt><trkpt lat="43.458035" lon="12.9130733"><ele>560.0</ele><time>2026-04-25T08:25:25.931Z</time></trkpt><trkpt lat="43.45799" lon="12.9129667"><ele>559.6666666666666</ele><time>2026-04-25T08:25:26.933Z</time></trkpt><trkpt lat="43.4579467" lon="12.9128617"><ele>559.3333333333333</ele><time>2026-04-25T08:25:27.932Z</time></trkpt><trkpt lat="43.4579083" lon="12.9127683"><ele>559.0</ele><time>2026-04-25T08:25:28.978Z</time></trkpt><trkpt lat="43.4578717" lon="12.9126767"><ele>558.6666666666666</ele><time>2026-04-25T08:25:29.937Z</time></trkpt><trkpt lat="43.4578483" lon="12.9125817"><ele>558.3333333333334</ele><time>2026-04-25T08:25:30.938Z</time></trkpt><trkpt lat="43.457825" lon="12.912485"><ele>558.0</ele><time>2026-04-25T08:25:31.933Z</time></trkpt><trkpt lat="43.4578017" lon="12.9123883"><ele>557.8333333333334</ele><time>2026-04-25T08:25:32.929Z</time></trkpt><trkpt lat="43.4577633" lon="12.91229"><ele>557.6666666666666</ele><time>2026-04-25T08:25:33.931Z</time></trkpt><trkpt lat="43.4577233" lon="12.9121833"><ele>557.5</ele><time>2026-04-25T08:25:34.939Z</time></trkpt><trkpt lat="43.4576833" lon="12.91209"><ele>557.3333333333333</ele><time>2026-04-25T08:25:35.937Z</time></trkpt><trkpt lat="43.4576483" lon="12.912005"><ele>557.1666666666666</ele><time>2026-04-25T08:25:36.928Z</time></trkpt><trkpt lat="43.45762" lon="12.9119217"><ele>557.0</ele><time>2026-04-25T08:25:37.933Z</time></trkpt><trkpt lat="43.4575883" lon="12.9118433"><ele>557.0</ele><time>2026-04-25T08:25:38.934Z</time></trkpt><trkpt lat="43.457545" lon="12.9117483"><ele>557.0</ele><time>2026-04-25T08:25:39.939Z</time></trkpt><trkpt lat="43.4574983" lon="12.9116433"><ele>557.0</ele><time>2026-04-25T08:25:40.942Z</time></trkpt><trkpt lat="43.4574517" lon="12.9115433"><ele>557.0</ele><time>2026-04-25T08:25:41.938Z</time></trkpt><trkpt lat="43.4574083" lon="12.91144"><ele>557.0</ele><time>2026-04-25T08:25:42.932Z</time></trkpt><trkpt lat="43.4573667" lon="12.9113333"><ele>557.0</ele><time>2026-04-25T08:25:43.935Z</time></trkpt><trkpt lat="43.4573283" lon="12.9112283"><ele>554.8333333333333</ele><time>2026-04-25T08:25:44.939Z</time></trkpt><trkpt lat="43.4572617" lon="12.911125"><ele>552.6666666666666</ele><time>2026-04-25T08:25:45.937Z</time></trkpt><trkpt lat="43.4572083" lon="12.9110333"><ele>550.5</ele><time>2026-04-25T08:25:46.946Z</time></trkpt><trkpt lat="43.457155" lon="12.91094"><ele>548.3333333333334</ele><time>2026-04-25T08:25:47.938Z</time></trkpt><trkpt lat="43.4571083" lon="12.9108567"><ele>546.1666666666667</ele><time>2026-04-25T08:25:48.929Z</time></trkpt><trkpt lat="43.4570617" lon="12.910775"><ele>544.0</ele><time>2026-04-25T08:25:49.935Z</time></trkpt><trkpt lat="43.4570117" lon="12.9106983"><ele>543.2857142857142</ele><time>2026-04-25T08:25:50.936Z</time></trkpt><trkpt lat="43.45696" lon="12.91063"><ele>542.5714285714286</ele><time>2026-04-25T08:25:51.936Z</time></trkpt><trkpt lat="43.4569033" lon="12.9105733"><ele>541.8571428571429</ele><time>2026-04-25T08:25:52.962Z</time></trkpt><trkpt lat="43.456845" lon="12.9105217"><ele>541.1428571428571</ele><time>2026-04-25T08:25:53.93Z</time></trkpt><trkpt lat="43.45678" lon="12.9104783"><ele>540.4285714285714</ele><time>2026-04-25T08:25:54.929Z</time></trkpt><trkpt lat="43.456705" lon="12.9104433"><ele>539.7142857142857</ele><time>2026-04-25T08:25:55.937Z</time></trkpt><trkpt lat="43.4566283" lon="12.9104067"><ele>539.0</ele><time>2026-04-25T08:25:56.927Z</time></trkpt><trkpt lat="43.4565567" lon="12.9103717"><ele>539.0</ele><time>2026-04-25T08:25:57.933Z</time></trkpt><trkpt lat="43.4564883" lon="12.91034"><ele>539.0</ele><time>2026-04-25T08:25:58.986Z</time></trkpt><trkpt lat="43.4564117" lon="12.9103083"><ele>539.0</ele><time>2026-04-25T08:25:59.929Z</time></trkpt><trkpt lat="43.4563333" lon="12.910275"><ele>539.0</ele><time>2026-04-25T08:26:00.934Z</time></trkpt><trkpt lat="43.456255" lon="12.9102383"><ele>539.0</ele><time>2026-04-25T08:26:01.936Z</time></trkpt><trkpt lat="43.4561833" lon="12.910195"><ele>539.0</ele><time>2026-04-25T08:26:02.935Z</time></trkpt><trkpt lat="43.456115" lon="12.9101517"><ele>537.0</ele><time>2026-04-25T08:26:03.933Z</time></trkpt><trkpt lat="43.45605" lon="12.9101083"><ele>535.0</ele><time>2026-04-25T08:26:04.944Z</time></trkpt><trkpt lat="43.45599" lon="12.9100683"><ele>533.0</ele><time>2026-04-25T08:26:05.938Z</time></trkpt><trkpt lat="43.4559283" lon="12.910035"><ele>531.0</ele><time>2026-04-25T08:26:06.934Z</time></trkpt><trkpt lat="43.4558083" lon="12.91"><ele>529.0</ele><time>2026-04-25T08:26:08.935Z</time></trkpt><trkpt lat="43.455745" lon="12.9099983"><ele>527.0</ele><time>2026-04-25T08:26:09.937Z</time></trkpt><trkpt lat="43.4556333" lon="12.91"><ele>524.8000000000001</ele><time>2026-04-25T08:26:11.934Z</time></trkpt><trkpt lat="43.4555233" lon="12.9100183"><ele>522.6</ele><time>2026-04-25T08:26:13.934Z</time></trkpt><trkpt lat="43.4554167" lon="12.9100483"><ele>520.4000000000001</ele><time>2026-04-25T08:26:15.929Z</time></trkpt><trkpt lat="43.4553217" lon="12.9100717"><ele>518.2</ele><time>2026-04-25T08:26:17.932Z</time></trkpt><trkpt lat="43.4552533" lon="12.9100483"><ele>516.0</ele><time>2026-04-25T08:26:19.929Z</time></trkpt><trkpt lat="43.45524" lon="12.9099167"><ele>512.4</ele><time>2026-04-25T08:26:21.93Z</time></trkpt><trkpt lat="43.45523" lon="12.9097383"><ele>508.8</ele><time>2026-04-25T08:26:23.929Z</time></trkpt><trkpt lat="43.4552" lon="12.90964"><ele>505.19999999999993</ele><time>2026-04-25T08:26:24.933Z</time></trkpt><trkpt lat="43.45517" lon="12.9095567"><ele>501.59999999999997</ele><time>2026-04-25T08:26:25.931Z</time></trkpt><trkpt lat="43.45508" lon="12.90945"><ele>498.0</ele><time>2026-04-25T08:26:27.93Z</time></trkpt><trkpt lat="43.4550067" lon="12.9094283"><ele>498.0</ele><time>2026-04-25T08:26:28.978Z</time></trkpt><trkpt lat="43.45486" lon="12.9094467"><ele>497.99999999999994</ele><time>2026-04-25T08:26:30.934Z</time></trkpt><trkpt lat="43.4547767" lon="12.909455"><ele>497.99999999999994</ele><time>2026-04-25T08:26:31.926Z</time></trkpt><trkpt lat="43.4546967" lon="12.909455"><ele>498.0</ele><time>2026-04-25T08:26:32.935Z</time></trkpt><trkpt lat="43.4546217" lon="12.9094383"><ele>498.0</ele><time>2026-04-25T08:26:33.931Z</time></trkpt><trkpt lat="43.45455" lon="12.9094133"><ele>496.1666666666667</ele><time>2026-04-25T08:26:34.943Z</time></trkpt><trkpt lat="43.4544817" lon="12.90937"><ele>494.33333333333337</ele><time>2026-04-25T08:26:35.926Z</time></trkpt><trkpt lat="43.454415" lon="12.909325"><ele>492.5</ele><time>2026-04-25T08:26:36.927Z</time></trkpt><trkpt lat="43.4543517" lon="12.9092767"><ele>490.6666666666667</ele><time>2026-04-25T08:26:37.936Z</time></trkpt><trkpt lat="43.4542783" lon="12.9092233"><ele>488.83333333333337</ele><time>2026-04-25T08:26:38.931Z</time></trkpt><trkpt lat="43.4542083" lon="12.909175"><ele>487.0</ele><time>2026-04-25T08:26:39.93Z</time></trkpt><trkpt lat="43.4541317" lon="12.9091367"><ele>487.00000000000006</ele><time>2026-04-25T08:26:40.941Z</time></trkpt><trkpt lat="43.4540383" lon="12.909105"><ele>487.0</ele><time>2026-04-25T08:26:41.935Z</time></trkpt><trkpt lat="43.453955" lon="12.9090683"><ele>487.0</ele><time>2026-04-25T08:26:42.933Z</time></trkpt><trkpt lat="43.4538667" lon="12.909035"><ele>487.0</ele><time>2026-04-25T08:26:43.935Z</time></trkpt><trkpt lat="43.453795" lon="12.9089917"><ele>487.00000000000006</ele><time>2026-04-25T08:26:44.939Z</time></trkpt><trkpt lat="43.4537267" lon="12.9089567"><ele>487.0</ele><time>2026-04-25T08:26:45.935Z</time></trkpt><trkpt lat="43.453655" lon="12.9089283"><ele>482.33333333333337</ele><time>2026-04-25T08:26:46.947Z</time></trkpt><trkpt lat="43.453585" lon="12.9089117"><ele>477.6666666666667</ele><time>2026-04-25T08:26:47.94Z</time></trkpt><trkpt lat="43.45351" lon="12.9089133"><ele>473.0</ele><time>2026-04-25T08:26:48.937Z</time></trkpt><trkpt lat="43.4534433" lon="12.9089167"><ele>468.33333333333337</ele><time>2026-04-25T08:26:49.936Z</time></trkpt><trkpt lat="43.4533367" lon="12.908885"><ele>463.6666666666667</ele><time>2026-04-25T08:26:51.932Z</time></trkpt><trkpt lat="43.4532833" lon="12.90877"><ele>459.0</ele><time>2026-04-25T08:26:53.929Z</time></trkpt><trkpt lat="43.4532633" lon="12.90867"><ele>459.0</ele><time>2026-04-25T08:26:54.933Z</time></trkpt><trkpt lat="43.4532717" lon="12.908535"><ele>459.0</ele><time>2026-04-25T08:26:55.928Z</time></trkpt><trkpt lat="43.453275" lon="12.9083983"><ele>459.0</ele><time>2026-04-25T08:26:56.937Z</time></trkpt><trkpt lat="43.453275" lon="12.9082617"><ele>459.0</ele><time>2026-04-25T08:26:57.932Z</time></trkpt><trkpt lat="43.4532683" lon="12.9081317"><ele>459.0</ele><time>2026-04-25T08:26:58.979Z</time></trkpt><trkpt lat="43.45327" lon="12.908005"><ele>460.3333333333333</ele><time>2026-04-25T08:26:59.927Z</time></trkpt><trkpt lat="43.4532767" lon="12.907885"><ele>461.66666666666663</ele><time>2026-04-25T08:27:00.936Z</time></trkpt><trkpt lat="43.4532633" lon="12.90777"><ele>463.0</ele><time>2026-04-25T08:27:01.93Z</time></trkpt><trkpt lat="43.453215" lon="12.9077017"><ele>464.3333333333333</ele><time>2026-04-25T08:27:02.931Z</time></trkpt><trkpt lat="43.45316" lon="12.9076367"><ele>465.66666666666663</ele><time>2026-04-25T08:27:03.932Z</time></trkpt><trkpt lat="43.453095" lon="12.9075733"><ele>467.0</ele><time>2026-04-25T08:27:04.941Z</time></trkpt><trkpt lat="43.4530317" lon="12.9075317"><ele>467.0</ele><time>2026-04-25T08:27:05.927Z</time></trkpt><trkpt lat="43.4529367" lon="12.90748"><ele>467.00000000000006</ele><time>2026-04-25T08:27:07.923Z</time></trkpt><trkpt lat="43.4529483" lon="12.9073917"><ele>467.00000000000006</ele><time>2026-04-25T08:27:09.935Z</time></trkpt><trkpt lat="43.4529983" lon="12.9072217"><ele>467.0</ele><time>2026-04-25T08:27:11.934Z</time></trkpt><trkpt lat="43.453005" lon="12.9071117"><ele>467.0</ele><time>2026-04-25T08:27:12.933Z</time></trkpt><trkpt lat="43.453" lon="12.907005"><ele>467.0</ele><time>2026-04-25T08:27:13.932Z</time></trkpt><trkpt lat="43.4529933" lon="12.9069"><ele>467.00000000000006</ele><time>2026-04-25T08:27:14.928Z</time></trkpt><trkpt lat="43.4529883" lon="12.9067933"><ele>467.00000000000006</ele><time>2026-04-25T08:27:15.934Z</time></trkpt><trkpt lat="43.4529867" lon="12.9066933"><ele>467.0</ele><time>2026-04-25T08:27:16.939Z</time></trkpt><trkpt lat="43.452995" lon="12.9065283"><ele>467.0</ele><time>2026-04-25T08:27:18.933Z</time></trkpt><trkpt lat="43.4530183" lon="12.90637"><ele>463.75</ele><time>2026-04-25T08:27:20.932Z</time></trkpt><trkpt lat="43.4530717" lon="12.90622"><ele>460.5</ele><time>2026-04-25T08:27:22.994Z</time></trkpt><trkpt lat="43.4531333" lon="12.906075"><ele>457.25</ele><time>2026-04-25T08:27:24.933Z</time></trkpt><trkpt lat="43.453175" lon="12.9059183"><ele>454.0</ele><time>2026-04-25T08:27:26.93Z</time></trkpt><trkpt lat="43.45316" lon="12.9057583"><ele>451.83333333333337</ele><time>2026-04-25T08:27:28.981Z</time></trkpt><trkpt lat="43.4531233" lon="12.9056833"><ele>449.6666666666667</ele><time>2026-04-25T08:27:29.937Z</time></trkpt><trkpt lat="43.4530783" lon="12.90561"><ele>447.5</ele><time>2026-04-25T08:27:30.93Z</time></trkpt><trkpt lat="43.4530333" lon="12.905545"><ele>445.33333333333337</ele><time>2026-04-25T08:27:31.935Z</time></trkpt><trkpt lat="43.4529633" lon="12.9054417"><ele>443.1666666666667</ele><time>2026-04-25T08:27:33.935Z</time></trkpt><trkpt lat="43.4529317" lon="12.905345"><ele>441.0</ele><time>2026-04-25T08:27:35.933Z</time></trkpt><trkpt lat="43.4529533" lon="12.90524"><ele>441.0</ele><time>2026-04-25T08:27:38.932Z</time></trkpt><trkpt lat="43.4530267" lon="12.90516"><ele>441.0</ele><time>2026-04-25T08:27:40.943Z</time></trkpt><trkpt lat="43.4530883" lon="12.9050867"><ele>441.0</ele><time>2026-04-25T08:27:42.929Z</time></trkpt><trkpt lat="43.4531483" lon="12.904995"><ele>441.0</ele><time>2026-04-25T08:27:44.929Z</time></trkpt><trkpt lat="43.4531917" lon="12.90489"><ele>441.0</ele><time>2026-04-25T08:27:46.943Z</time></trkpt><trkpt lat="43.45318" lon="12.9047833"><ele>441.0</ele><time>2026-04-25T08:27:48.933Z</time></trkpt><trkpt lat="43.4531217" lon="12.9047067"><ele>437.8333333333333</ele><time>2026-04-25T08:27:50.934Z</time></trkpt><trkpt lat="43.45301" lon="12.9046417"><ele>434.66666666666663</ele><time>2026-04-25T08:27:52.999Z</time></trkpt><trkpt lat="43.45295" lon="12.904605"><ele>431.5</ele><time>2026-04-25T08:27:53.928Z</time></trkpt><trkpt lat="43.45289" lon="12.9045683"><ele>428.3333333333333</ele><time>2026-04-25T08:27:54.937Z</time></trkpt><trkpt lat="43.4527867" lon="12.90448"><ele>425.16666666666663</ele><time>2026-04-25T08:27:56.935Z</time></trkpt><trkpt lat="43.45273" lon="12.9044383"><ele>422.0</ele><time>2026-04-25T08:27:57.934Z</time></trkpt><trkpt lat="43.4526433" lon="12.9043867"><ele>420.20000000000005</ele><time>2026-04-25T08:27:59.932Z</time></trkpt><trkpt lat="43.4525667" lon="12.9042833"><ele>418.4</ele><time>2026-04-25T08:28:17.932Z</time></trkpt><trkpt lat="43.4524983" lon="12.904165"><ele>416.6</ele><time>2026-04-25T08:28:20.932Z</time></trkpt><trkpt lat="43.4524333" lon="12.9040683"><ele>414.79999999999995</ele><time>2026-04-25T08:28:22.995Z</time></trkpt><trkpt lat="43.4523733" lon="12.90398"><ele>413.0</ele><time>2026-04-25T08:28:24.933Z</time></trkpt><trkpt lat="43.4522933" lon="12.9038733"><ele>410.2</ele><time>2026-04-25T08:28:26.925Z</time></trkpt><trkpt lat="43.4522217" lon="12.9037533"><ele>407.4</ele><time>2026-04-25T08:28:28.982Z</time></trkpt><trkpt lat="43.4521617" lon="12.9036433"><ele>404.59999999999997</ele><time>2026-04-25T08:28:30.929Z</time></trkpt><trkpt lat="43.4521" lon="12.90355"><ele>401.79999999999995</ele><time>2026-04-25T08:28:32.933Z</time></trkpt><trkpt lat="43.4520217" lon="12.9034683"><ele>399.0</ele><time>2026-04-25T08:28:34.942Z</time></trkpt><trkpt lat="43.4519533" lon="12.90339"><ele>394.6</ele><time>2026-04-25T08:28:36.933Z</time></trkpt><trkpt lat="43.4519183" lon="12.9032967"><ele>390.2</ele><time>2026-04-25T08:28:38.936Z</time></trkpt><trkpt lat="43.4519" lon="12.9032033"><ele>385.8</ele><time>2026-04-25T08:28:40.944Z</time></trkpt><trkpt lat="43.4518833" lon="12.90308"><ele>381.40000000000003</ele><time>2026-04-25T08:28:42.936Z</time></trkpt><trkpt lat="43.4518583" lon="12.90293"><ele>377.0</ele><time>2026-04-25T08:28:44.937Z</time></trkpt><trkpt lat="43.4518433" lon="12.9027817"><ele>377.0</ele><time>2026-04-25T08:28:46.945Z</time></trkpt><trkpt lat="43.4518333" lon="12.9026467"><ele>377.0</ele><time>2026-04-25T08:28:48.931Z</time></trkpt><trkpt lat="43.45182" lon="12.902525"><ele>377.0</ele><time>2026-04-25T08:28:50.932Z</time></trkpt><trkpt lat="43.4518117" lon="12.902385"><ele>377.0</ele><time>2026-04-25T08:28:52.994Z</time></trkpt><trkpt lat="43.4518033" lon="12.90226"><ele>377.0</ele><time>2026-04-25T08:28:54.939Z</time></trkpt><trkpt lat="43.4518117" lon="12.902125"><ele>376.0</ele><time>2026-04-25T08:28:56.936Z</time></trkpt><trkpt lat="43.45183" lon="12.9019933"><ele>375.0</ele><time>2026-04-25T08:28:58.987Z</time></trkpt><trkpt lat="43.45184" lon="12.9018617"><ele>374.0</ele><time>2026-04-25T08:29:00.936Z</time></trkpt><trkpt lat="43.4518333" lon="12.901755"><ele>373.0</ele><time>2026-04-25T08:29:02.937Z</time></trkpt><trkpt lat="43.4517833" lon="12.9016683"><ele>372.0</ele><time>2026-04-25T08:29:04.945Z</time></trkpt><trkpt lat="43.4517083" lon="12.9016033"><ele>371.0</ele><time>2026-04-25T08:29:06.934Z</time></trkpt><trkpt lat="43.45159" lon="12.901575"><ele>371.0</ele><time>2026-04-25T08:29:08.93Z</time></trkpt><trkpt lat="43.4515233" lon="12.90158"><ele>371.0</ele><time>2026-04-25T08:29:09.934Z</time></trkpt><trkpt lat="43.4514583" lon="12.9016017"><ele>371.0</ele><time>2026-04-25T08:29:10.951Z</time></trkpt><trkpt lat="43.4513933" lon="12.9016383"><ele>371.0</ele><time>2026-04-25T08:29:11.936Z</time></trkpt><trkpt lat="43.45132" lon="12.9017733"><ele>371.0</ele><time>2026-04-25T08:29:13.934Z</time></trkpt><trkpt lat="43.4513" lon="12.9018717"><ele>371.0</ele><time>2026-04-25T08:29:14.936Z</time></trkpt><trkpt lat="43.45129" lon="12.901985"><ele>367.1666666666667</ele><time>2026-04-25T08:29:15.933Z</time></trkpt><trkpt lat="43.4512717" lon="12.902095"><ele>363.33333333333337</ele><time>2026-04-25T08:29:16.943Z</time></trkpt><trkpt lat="43.451255" lon="12.9021817"><ele>359.5</ele><time>2026-04-25T08:29:17.929Z</time></trkpt><trkpt lat="43.451195" lon="12.90233"><ele>355.6666666666667</ele><time>2026-04-25T08:29:19.93Z</time></trkpt><trkpt lat="43.4511417" lon="12.90239"><ele>351.8333333333333</ele><time>2026-04-25T08:29:20.93Z</time></trkpt><trkpt lat="43.4510917" lon="12.9024617"><ele>348.0</ele><time>2026-04-25T08:29:21.925Z</time></trkpt><trkpt lat="43.4510433" lon="12.9025467"><ele>348.6666666666667</ele><time>2026-04-25T08:29:22.998Z</time></trkpt><trkpt lat="43.4510117" lon="12.9026383"><ele>349.3333333333333</ele><time>2026-04-25T08:29:23.927Z</time></trkpt><trkpt lat="43.4509867" lon="12.9027233"><ele>350.0</ele><time>2026-04-25T08:29:24.929Z</time></trkpt><trkpt lat="43.4509567" lon="12.9028817"><ele>350.66666666666663</ele><time>2026-04-25T08:29:26.941Z</time></trkpt><trkpt lat="43.4509383" lon="12.9029967"><ele>351.3333333333333</ele><time>2026-04-25T08:29:28.995Z</time></trkpt><trkpt lat="43.4508867" lon="12.9029467"><ele>352.0</ele><time>2026-04-25T08:29:32.927Z</time></trkpt><trkpt lat="43.450925" lon="12.902765"><ele>352.0</ele><time>2026-04-25T08:29:34.946Z</time></trkpt><trkpt lat="43.4509383" lon="12.9026417"><ele>352.0</ele><time>2026-04-25T08:29:35.935Z</time></trkpt><trkpt lat="43.4509517" lon="12.90251"><ele>352.0</ele><time>2026-04-25T08:29:36.933Z</time></trkpt><trkpt lat="43.4509733" lon="12.9023767"><ele>352.0</ele><time>2026-04-25T08:29:37.932Z</time></trkpt><trkpt lat="43.45099" lon="12.902245"><ele>352.0</ele><time>2026-04-25T08:29:38.933Z</time></trkpt><trkpt lat="43.4509933" lon="12.9021167"><ele>351.20000000000005</ele><time>2026-04-25T08:29:39.932Z</time></trkpt><trkpt lat="43.4509867" lon="12.9019867"><ele>350.4</ele><time>2026-04-25T08:29:40.943Z</time></trkpt><trkpt lat="43.4509667" lon="12.901855"><ele>349.6</ele><time>2026-04-25T08:29:41.935Z</time></trkpt><trkpt lat="43.45095" lon="12.9017283"><ele>348.79999999999995</ele><time>2026-04-25T08:29:42.934Z</time></trkpt><trkpt lat="43.4509383" lon="12.9016117"><ele>348.0</ele><time>2026-04-25T08:29:43.937Z</time></trkpt><trkpt lat="43.45094" lon="12.9014933"><ele>347.4</ele><time>2026-04-25T08:29:44.931Z</time></trkpt><trkpt lat="43.450945" lon="12.901365"><ele>346.79999999999995</ele><time>2026-04-25T08:29:45.934Z</time></trkpt><trkpt lat="43.45095" lon="12.9012217"><ele>346.2</ele><time>2026-04-25T08:29:46.947Z</time></trkpt><trkpt lat="43.4509567" lon="12.9010833"><ele>345.6</ele><time>2026-04-25T08:29:47.931Z</time></trkpt><trkpt lat="43.450965" lon="12.90095"><ele>345.0</ele><time>2026-04-25T08:29:48.937Z</time></trkpt><trkpt lat="43.4509567" lon="12.9008133"><ele>343.8</ele><time>2026-04-25T08:29:49.938Z</time></trkpt><trkpt lat="43.4509367" lon="12.900675"><ele>342.6</ele><time>2026-04-25T08:29:50.937Z</time></trkpt><trkpt lat="43.4509" lon="12.9005433"><ele>341.4</ele><time>2026-04-25T08:29:51.933Z</time></trkpt><trkpt lat="43.450845" lon="12.9004167"><ele>340.2</ele><time>2026-04-25T08:29:53.004Z</time></trkpt><trkpt lat="43.45078" lon="12.9002967"><ele>339.0</ele><time>2026-04-25T08:29:53.931Z</time></trkpt><trkpt lat="43.4507067" lon="12.9001817"><ele>338.2</ele><time>2026-04-25T08:29:54.933Z</time></trkpt><trkpt lat="43.4506317" lon="12.9000733"><ele>337.4</ele><time>2026-04-25T08:29:55.936Z</time></trkpt><trkpt lat="43.4505633" lon="12.8999633"><ele>336.6</ele><time>2026-04-25T08:29:56.935Z</time></trkpt><trkpt lat="43.4505" lon="12.899855"><ele>335.8</ele><time>2026-04-25T08:29:57.93Z</time></trkpt><trkpt lat="43.4504517" lon="12.899735"><ele>335.0</ele><time>2026-04-25T08:29:58.98Z</time></trkpt><trkpt lat="43.4504233" lon="12.8996033"><ele>333.75</ele><time>2026-04-25T08:29:59.932Z</time></trkpt><trkpt lat="43.4504133" lon="12.89944"><ele>332.5</ele><time>2026-04-25T08:30:00.936Z</time></trkpt><trkpt lat="43.4503983" lon="12.899275"><ele>331.25</ele><time>2026-04-25T08:30:01.93Z</time></trkpt><trkpt lat="43.45038" lon="12.8991067"><ele>330.0</ele><time>2026-04-25T08:30:02.936Z</time></trkpt><trkpt lat="43.4503617" lon="12.89893"><ele>328.5</ele><time>2026-04-25T08:30:03.928Z</time></trkpt><trkpt lat="43.4503417" lon="12.8987583"><ele>327.0</ele><time>2026-04-25T08:30:04.949Z</time></trkpt><trkpt lat="43.4503167" lon="12.89859"><ele>325.5</ele><time>2026-04-25T08:30:05.934Z</time></trkpt><trkpt lat="43.45029" lon="12.89842"><ele>324.0</ele><time>2026-04-25T08:30:06.935Z</time></trkpt><trkpt lat="43.4502633" lon="12.8982617"><ele>322.5</ele><time>2026-04-25T08:30:07.939Z</time></trkpt><trkpt lat="43.4502517" lon="12.898105"><ele>321.0</ele><time>2026-04-25T08:30:08.931Z</time></trkpt><trkpt lat="43.4502433" lon="12.8979483"><ele>319.5</ele><time>2026-04-25T08:30:09.937Z</time></trkpt><trkpt lat="43.4502417" lon="12.8977883"><ele>318.0</ele><time>2026-04-25T08:30:10.945Z</time></trkpt><trkpt lat="43.4502467" lon="12.8976183"><ele>317.0</ele><time>2026-04-25T08:30:11.928Z</time></trkpt><trkpt lat="43.4502533" lon="12.8974517"><ele>316.0</ele><time>2026-04-25T08:30:12.93Z</time></trkpt><trkpt lat="43.4502583" lon="12.8972833"><ele>315.0</ele><time>2026-04-25T08:30:13.935Z</time></trkpt><trkpt lat="43.450265" lon="12.8971083"><ele>314.0</ele><time>2026-04-25T08:30:14.933Z</time></trkpt><trkpt lat="43.4502567" lon="12.8969367"><ele>314.0</ele><time>2026-04-25T08:30:15.93Z</time></trkpt><trkpt lat="43.450245" lon="12.89677"><ele>314.0</ele><time>2026-04-25T08:30:16.938Z</time></trkpt><trkpt lat="43.4502367" lon="12.8966117"><ele>314.0</ele><time>2026-04-25T08:30:17.935Z</time></trkpt><trkpt lat="43.4502283" lon="12.8964683"><ele>314.0</ele><time>2026-04-25T08:30:18.934Z</time></trkpt><trkpt lat="43.450225" lon="12.8963333"><ele>314.0</ele><time>2026-04-25T08:30:19.93Z</time></trkpt><trkpt lat="43.450225" lon="12.8962183"><ele>313.6666666666667</ele><time>2026-04-25T08:30:20.937Z</time></trkpt><trkpt lat="43.4502317" lon="12.89612"><ele>313.33333333333337</ele><time>2026-04-25T08:30:21.938Z</time></trkpt><trkpt lat="43.4502417" lon="12.89602"><ele>313.0</ele><time>2026-04-25T08:30:22.987Z</time></trkpt><trkpt lat="43.45026" lon="12.895915"><ele>312.6666666666667</ele><time>2026-04-25T08:30:23.929Z</time></trkpt><trkpt lat="43.4503017" lon="12.89581"><ele>312.3333333333333</ele><time>2026-04-25T08:30:24.935Z</time></trkpt><trkpt lat="43.4503783" lon="12.8957067"><ele>312.0</ele><time>2026-04-25T08:30:25.935Z</time></trkpt><trkpt lat="43.45045" lon="12.89562"><ele>312.3333333333333</ele><time>2026-04-25T08:30:26.93Z</time></trkpt><trkpt lat="43.450515" lon="12.8955433"><ele>312.6666666666667</ele><time>2026-04-25T08:30:27.931Z</time></trkpt><trkpt lat="43.4505667" lon="12.89548"><ele>313.0</ele><time>2026-04-25T08:30:28.977Z</time></trkpt><trkpt lat="43.4506467" lon="12.8954033"><ele>313.33333333333337</ele><time>2026-04-25T08:30:30.932Z</time></trkpt><trkpt lat="43.4506917" lon="12.895315"><ele>313.6666666666667</ele><time>2026-04-25T08:30:34.941Z</time></trkpt><trkpt lat="43.4506567" lon="12.89524"><ele>314.0</ele><time>2026-04-25T08:30:35.934Z</time></trkpt><trkpt lat="43.4505983" lon="12.8951467"><ele>313.2</ele><time>2026-04-25T08:30:36.946Z</time></trkpt><trkpt lat="43.45053" lon="12.8950567"><ele>312.4</ele><time>2026-04-25T08:30:37.936Z</time></trkpt><trkpt lat="43.4504617" lon="12.8949683"><ele>311.6</ele><time>2026-04-25T08:30:38.929Z</time></trkpt><trkpt lat="43.4503933" lon="12.89488"><ele>310.8</ele><time>2026-04-25T08:30:39.942Z</time></trkpt><trkpt lat="43.4503317" lon="12.8947967"><ele>310.0</ele><time>2026-04-25T08:30:40.949Z</time></trkpt><trkpt lat="43.4502733" lon="12.8947167"><ele>309.6</ele><time>2026-04-25T08:30:41.933Z</time></trkpt><trkpt lat="43.4502067" lon="12.8946017"><ele>309.2</ele><time>2026-04-25T08:30:43.937Z</time></trkpt><trkpt lat="43.4502" lon="12.894505"><ele>308.8</ele><time>2026-04-25T08:32:08.928Z</time></trkpt><trkpt lat="43.4500883" lon="12.894365"><ele>308.4</ele><time>2026-04-25T08:32:10.954Z</time></trkpt><trkpt lat="43.4500067" lon="12.89431"><ele>308.0</ele><time>2026-04-25T08:32:11.934Z</time></trkpt><trkpt lat="43.4499183" lon="12.8942717"><ele>308.0</ele><time>2026-04-25T08:32:12.933Z</time></trkpt><trkpt lat="43.44982" lon="12.8942633"><ele>308.0</ele><time>2026-04-25T08:32:13.931Z</time></trkpt><trkpt lat="43.4497067" lon="12.8943983"><ele>308.0</ele><time>2026-04-25T08:32:14.947Z</time></trkpt><trkpt lat="43.449605" lon="12.8944783"><ele>308.0</ele><time>2026-04-25T08:32:15.938Z</time></trkpt><trkpt lat="43.44948" lon="12.8945"><ele>308.5</ele><time>2026-04-25T08:32:16.949Z</time></trkpt><trkpt lat="43.4493533" lon="12.8944967"><ele>309.0</ele><time>2026-04-25T08:32:17.926Z</time></trkpt><trkpt lat="43.4492317" lon="12.894445"><ele>309.5</ele><time>2026-04-25T08:32:18.928Z</time></trkpt><trkpt lat="43.4491133" lon="12.8943633"><ele>310.0</ele><time>2026-04-25T08:32:19.933Z</time></trkpt><trkpt lat="43.4490383" lon="12.8942133"><ele>310.25</ele><time>2026-04-25T08:32:20.931Z</time></trkpt><trkpt lat="43.4489733" lon="12.8940333"><ele>310.5</ele><time>2026-04-25T08:32:21.934Z</time></trkpt><trkpt lat="43.4489133" lon="12.89385"><ele>310.75</ele><time>2026-04-25T08:32:22.995Z</time></trkpt><trkpt lat="43.4488267" lon="12.8936817"><ele>311.0</ele><time>2026-04-25T08:32:23.929Z</time></trkpt><trkpt lat="43.4487233" lon="12.8935317"><ele>308.0</ele><time>2026-04-25T08:32:24.934Z</time></trkpt><trkpt lat="43.448605" lon="12.8933967"><ele>305.0</ele><time>2026-04-25T08:32:25.935Z</time></trkpt><trkpt lat="43.4484817" lon="12.8932783"><ele>302.0</ele><time>2026-04-25T08:32:26.936Z</time></trkpt><trkpt lat="43.448345" lon="12.8931867"><ele>302.0</ele><time>2026-04-25T08:32:27.931Z</time></trkpt><trkpt lat="43.44818" lon="12.893135"><ele>302.0</ele><time>2026-04-25T08:32:28.969Z</time></trkpt><trkpt lat="43.44801" lon="12.8930917"><ele>302.0</ele><time>2026-04-25T08:32:29.925Z</time></trkpt><trkpt lat="43.4478383" lon="12.8930467"><ele>301.0</ele><time>2026-04-25T08:32:30.927Z</time></trkpt><trkpt lat="43.4476517" lon="12.8930233"><ele>300.0</ele><time>2026-04-25T08:32:31.931Z</time></trkpt><trkpt lat="43.4474733" lon="12.8930167"><ele>299.0</ele><time>2026-04-25T08:32:32.939Z</time></trkpt><trkpt lat="43.4473033" lon="12.8930317"><ele>299.0</ele><time>2026-04-25T08:32:33.937Z</time></trkpt><trkpt lat="43.4471333" lon="12.8930617"><ele>299.0</ele><time>2026-04-25T08:32:34.946Z</time></trkpt><trkpt lat="43.4469683" lon="12.8931133"><ele>299.0</ele><time>2026-04-25T08:32:35.938Z</time></trkpt><trkpt lat="43.4468083" lon="12.8931617"><ele>296.6666666666667</ele><time>2026-04-25T08:32:36.936Z</time></trkpt><trkpt lat="43.446645" lon="12.8932233"><ele>294.3333333333333</ele><time>2026-04-25T08:32:37.933Z</time></trkpt><trkpt lat="43.446475" lon="12.8932883"><ele>292.0</ele><time>2026-04-25T08:32:38.934Z</time></trkpt><trkpt lat="43.4463067" lon="12.8933567"><ele>290.3333333333333</ele><time>2026-04-25T08:32:39.937Z</time></trkpt><trkpt lat="43.44614" lon="12.893425"><ele>288.6666666666667</ele><time>2026-04-25T08:32:40.949Z</time></trkpt><trkpt lat="43.4459783" lon="12.8935"><ele>287.0</ele><time>2026-04-25T08:32:41.936Z</time></trkpt><trkpt lat="43.4458167" lon="12.8935833"><ele>287.0</ele><time>2026-04-25T08:32:42.928Z</time></trkpt><trkpt lat="43.445655" lon="12.8936783"><ele>287.0</ele><time>2026-04-25T08:32:43.935Z</time></trkpt><trkpt lat="43.4454967" lon="12.893775"><ele>287.0</ele><time>2026-04-25T08:32:44.938Z</time></trkpt><trkpt lat="43.4453417" lon="12.8938633"><ele>285.0</ele><time>2026-04-25T08:32:45.933Z</time></trkpt><trkpt lat="43.4451867" lon="12.8939333"><ele>283.0</ele><time>2026-04-25T08:32:46.957Z</time></trkpt><trkpt lat="43.4450317" lon="12.8939783"><ele>281.0</ele><time>2026-04-25T08:32:47.936Z</time></trkpt><trkpt lat="43.44488" lon="12.8940017"><ele>281.0</ele><time>2026-04-25T08:32:48.932Z</time></trkpt><trkpt lat="43.4447283" lon="12.8940117"><ele>281.0</ele><time>2026-04-25T08:32:49.932Z</time></trkpt><trkpt lat="43.4445767" lon="12.89401"><ele>281.0</ele><time>2026-04-25T08:32:50.941Z</time></trkpt><trkpt lat="43.4444333" lon="12.893985"><ele>281.0</ele><time>2026-04-25T08:32:51.934Z</time></trkpt><trkpt lat="43.444295" lon="12.8939417"><ele>279.5</ele><time>2026-04-25T08:32:52.979Z</time></trkpt><trkpt lat="43.44416" lon="12.8939033"><ele>278.0</ele><time>2026-04-25T08:32:53.929Z</time></trkpt><trkpt lat="43.4440183" lon="12.8938883"><ele>276.5</ele><time>2026-04-25T08:32:54.936Z</time></trkpt><trkpt lat="43.4438867" lon="12.893905"><ele>275.0</ele><time>2026-04-25T08:32:55.933Z</time></trkpt><trkpt lat="43.443765" lon="12.893975"><ele>274.0</ele><time>2026-04-25T08:32:56.935Z</time></trkpt><trkpt lat="43.4436567" lon="12.8940267"><ele>273.0</ele><time>2026-04-25T08:32:57.936Z</time></trkpt><trkpt lat="43.443565" lon="12.8940783"><ele>272.0</ele><time>2026-04-25T08:32:58.984Z</time></trkpt><trkpt lat="43.4434783" lon="12.8941217"><ele>271.0</ele><time>2026-04-25T08:32:59.934Z</time></trkpt><trkpt lat="43.4434033" lon="12.8941517"><ele>270.0</ele><time>2026-04-25T08:33:00.934Z</time></trkpt><trkpt lat="43.4433167" lon="12.89417"><ele>270.0</ele><time>2026-04-25T08:33:02.938Z</time></trkpt><trkpt lat="43.4432333" lon="12.89415"><ele>270.0</ele><time>2026-04-25T08:33:15.928Z</time></trkpt><trkpt lat="43.4431217" lon="12.894145"><ele>270.0</ele><time>2026-04-25T08:33:16.961Z</time></trkpt><trkpt lat="43.4430317" lon="12.8941067"><ele>270.0</ele><time>2026-04-25T08:33:17.941Z</time></trkpt><trkpt lat="43.44293" lon="12.8940683"><ele>270.0</ele><time>2026-04-25T08:33:18.934Z</time></trkpt><trkpt lat="43.4428333" lon="12.894035"><ele>269.75</ele><time>2026-04-25T08:33:19.934Z</time></trkpt><trkpt lat="43.442725" lon="12.893995"><ele>269.5</ele><time>2026-04-25T08:33:20.929Z</time></trkpt><trkpt lat="43.4426117" lon="12.89395"><ele>269.25</ele><time>2026-04-25T08:33:21.934Z</time></trkpt><trkpt lat="43.44249" lon="12.8939083"><ele>269.0</ele><time>2026-04-25T08:33:22.982Z</time></trkpt><trkpt lat="43.442375" lon="12.8938667"><ele>269.0</ele><time>2026-04-25T08:33:23.934Z</time></trkpt><trkpt lat="43.4422633" lon="12.893825"><ele>269.0</ele><time>2026-04-25T08:33:24.935Z</time></trkpt><trkpt lat="43.44215" lon="12.89378"><ele>269.0</ele><time>2026-04-25T08:33:25.932Z</time></trkpt><trkpt lat="43.4420367" lon="12.8937467"><ele>269.0</ele><time>2026-04-25T08:33:26.935Z</time></trkpt><trkpt lat="43.4419233" lon="12.8937083"><ele>269.5</ele><time>2026-04-25T08:33:27.936Z</time></trkpt><trkpt lat="43.44181" lon="12.8936617"><ele>270.0</ele><time>2026-04-25T08:33:28.982Z</time></trkpt><trkpt lat="43.4417017" lon="12.8936"><ele>270.5</ele><time>2026-04-25T08:33:29.943Z</time></trkpt><trkpt lat="43.4416017" lon="12.893515"><ele>271.0</ele><time>2026-04-25T08:33:30.935Z</time></trkpt><trkpt lat="43.4415067" lon="12.893405"><ele>272.25</ele><time>2026-04-25T08:33:31.934Z</time></trkpt><trkpt lat="43.44141" lon="12.8932883"><ele>273.5</ele><time>2026-04-25T08:33:32.936Z</time></trkpt><trkpt lat="43.4413183" lon="12.8931533"><ele>274.75</ele><time>2026-04-25T08:33:33.928Z</time></trkpt><trkpt lat="43.4412417" lon="12.8929867"><ele>276.0</ele><time>2026-04-25T08:33:34.968Z</time></trkpt><trkpt lat="43.4411667" lon="12.892805"><ele>276.3333333333333</ele><time>2026-04-25T08:33:35.935Z</time></trkpt><trkpt lat="43.4410933" lon="12.8926033"><ele>276.66666666666663</ele><time>2026-04-25T08:33:36.933Z</time></trkpt><trkpt lat="43.4410183" lon="12.89237"><ele>277.0</ele><time>2026-04-25T08:33:37.939Z</time></trkpt><trkpt lat="43.4409383" lon="12.8921217"><ele>277.0</ele><time>2026-04-25T08:33:38.938Z</time></trkpt><trkpt lat="43.4408583" lon="12.891855"><ele>277.0</ele><time>2026-04-25T08:33:39.936Z</time></trkpt><trkpt lat="43.440785" lon="12.8915933"><ele>277.0</ele><time>2026-04-25T08:33:40.965Z</time></trkpt><trkpt lat="43.4407067" lon="12.8913317"><ele>276.3333333333333</ele><time>2026-04-25T08:33:41.936Z</time></trkpt><trkpt lat="43.440625" lon="12.89108"><ele>275.6666666666667</ele><time>2026-04-25T08:33:42.934Z</time></trkpt><trkpt lat="43.4405483" lon="12.8908317"><ele>275.0</ele><time>2026-04-25T08:33:43.937Z</time></trkpt><trkpt lat="43.4404667" lon="12.890575"><ele>274.33333333333337</ele><time>2026-04-25T08:33:44.937Z</time></trkpt><trkpt lat="43.4403833" lon="12.8903233"><ele>273.6666666666667</ele><time>2026-04-25T08:33:45.934Z</time></trkpt><trkpt lat="43.4403" lon="12.8900733"><ele>273.0</ele><time>2026-04-25T08:33:46.962Z</time></trkpt><trkpt lat="43.440215" lon="12.88982"><ele>273.0</ele><time>2026-04-25T08:33:47.938Z</time></trkpt><trkpt lat="43.4401317" lon="12.8895633"><ele>273.0</ele><time>2026-04-25T08:33:48.936Z</time></trkpt><trkpt lat="43.440045" lon="12.8893083"><ele>273.0</ele><time>2026-04-25T08:33:49.925Z</time></trkpt><trkpt lat="43.439955" lon="12.8890517"><ele>272.0</ele><time>2026-04-25T08:33:50.921Z</time></trkpt><trkpt lat="43.4398667" lon="12.8887967"><ele>271.0</ele><time>2026-04-25T08:33:51.933Z</time></trkpt><trkpt lat="43.4397883" lon="12.8885367"><ele>270.0</ele><time>2026-04-25T08:33:52.981Z</time></trkpt><trkpt lat="43.4397083" lon="12.8882783"><ele>268.3333333333333</ele><time>2026-04-25T08:33:53.923Z</time></trkpt><trkpt lat="43.4396267" lon="12.88802"><ele>266.66666666666663</ele><time>2026-04-25T08:33:54.922Z</time></trkpt><trkpt lat="43.439545" lon="12.8877617"><ele>265.0</ele><time>2026-04-25T08:33:55.923Z</time></trkpt><trkpt lat="43.4394583" lon="12.8875083"><ele>264.66666666666663</ele><time>2026-04-25T08:33:56.934Z</time></trkpt><trkpt lat="43.4393717" lon="12.8872533"><ele>264.3333333333333</ele><time>2026-04-25T08:33:57.934Z</time></trkpt><trkpt lat="43.4392867" lon="12.8869933"><ele>264.0</ele><time>2026-04-25T08:33:58.984Z</time></trkpt><trkpt lat="43.439195" lon="12.8867333"><ele>264.6666666666667</ele><time>2026-04-25T08:33:59.934Z</time></trkpt><trkpt lat="43.4391067" lon="12.886475"><ele>265.33333333333337</ele><time>2026-04-25T08:34:00.933Z</time></trkpt><trkpt lat="43.4390167" lon="12.88622"><ele>266.0</ele><time>2026-04-25T08:34:01.936Z</time></trkpt><trkpt lat="43.4389267" lon="12.8859683"><ele>266.0</ele><time>2026-04-25T08:34:02.934Z</time></trkpt><trkpt lat="43.4388333" lon="12.8857167"><ele>266.0</ele><time>2026-04-25T08:34:03.935Z</time></trkpt><trkpt lat="43.4387417" lon="12.8854617"><ele>266.0</ele><time>2026-04-25T08:34:04.966Z</time></trkpt><trkpt lat="43.438655" lon="12.8852033"><ele>265.0</ele><time>2026-04-25T08:34:05.936Z</time></trkpt><trkpt lat="43.43857" lon="12.884945"><ele>264.0</ele><time>2026-04-25T08:34:06.934Z</time></trkpt><trkpt lat="43.4384833" lon="12.884685"><ele>263.0</ele><time>2026-04-25T08:34:07.934Z</time></trkpt><trkpt lat="43.4383917" lon="12.8844217"><ele>263.6666666666667</ele><time>2026-04-25T08:34:08.935Z</time></trkpt><trkpt lat="43.4383033" lon="12.88416"><ele>264.3333333333333</ele><time>2026-04-25T08:34:09.928Z</time></trkpt><trkpt lat="43.4382167" lon="12.8839067"><ele>265.0</ele><time>2026-04-25T08:34:10.958Z</time></trkpt><trkpt lat="43.4381233" lon="12.88365"><ele>264.66666666666663</ele><time>2026-04-25T08:34:11.933Z</time></trkpt><trkpt lat="43.4380333" lon="12.8833883"><ele>264.3333333333333</ele><time>2026-04-25T08:34:12.938Z</time></trkpt><trkpt lat="43.4379433" lon="12.8831317"><ele>264.0</ele><time>2026-04-25T08:34:13.929Z</time></trkpt><trkpt lat="43.4378517" lon="12.882875"><ele>264.0</ele><time>2026-04-25T08:34:14.94Z</time></trkpt><trkpt lat="43.43776" lon="12.8826233"><ele>264.0</ele><time>2026-04-25T08:34:15.94Z</time></trkpt><trkpt lat="43.43767" lon="12.8823683"><ele>264.0</ele><time>2026-04-25T08:34:16.965Z</time></trkpt><trkpt lat="43.4375817" lon="12.882115"><ele>266.0</ele><time>2026-04-25T08:34:17.934Z</time></trkpt><trkpt lat="43.4375" lon="12.8818667"><ele>268.0</ele><time>2026-04-25T08:34:18.933Z</time></trkpt><trkpt lat="43.4374183" lon="12.8816167"><ele>270.0</ele><time>2026-04-25T08:34:19.936Z</time></trkpt><trkpt lat="43.4373333" lon="12.88137"><ele>270.6666666666667</ele><time>2026-04-25T08:34:20.935Z</time></trkpt><trkpt lat="43.4372517" lon="12.88112"><ele>271.33333333333337</ele><time>2026-04-25T08:34:21.93Z</time></trkpt><trkpt lat="43.43717" lon="12.8808667"><ele>272.0</ele><time>2026-04-25T08:34:22.988Z</time></trkpt><trkpt lat="43.437085" lon="12.8806133"><ele>272.33333333333337</ele><time>2026-04-25T08:34:23.935Z</time></trkpt><trkpt lat="43.4370017" lon="12.8803617"><ele>272.6666666666667</ele><time>2026-04-25T08:34:24.934Z</time></trkpt><trkpt lat="43.436915" lon="12.8801117"><ele>273.0</ele><time>2026-04-25T08:34:25.934Z</time></trkpt><trkpt lat="43.43683" lon="12.8798633"><ele>273.6666666666667</ele><time>2026-04-25T08:34:26.936Z</time></trkpt><trkpt lat="43.4367483" lon="12.87961"><ele>274.33333333333337</ele><time>2026-04-25T08:34:27.929Z</time></trkpt><trkpt lat="43.43667" lon="12.8793667"><ele>275.0</ele><time>2026-04-25T08:34:28.986Z</time></trkpt><trkpt lat="43.4365883" lon="12.87913"><ele>277.0</ele><time>2026-04-25T08:34:29.931Z</time></trkpt><trkpt lat="43.4365117" lon="12.878895"><ele>279.0</ele><time>2026-04-25T08:34:30.936Z</time></trkpt><trkpt lat="43.4364367" lon="12.8786567"><ele>281.0</ele><time>2026-04-25T08:34:31.936Z</time></trkpt><trkpt lat="43.4363733" lon="12.8784133"><ele>282.0</ele><time>2026-04-25T08:34:32.942Z</time></trkpt><trkpt lat="43.436325" lon="12.878165"><ele>283.0</ele><time>2026-04-25T08:34:33.933Z</time></trkpt><trkpt lat="43.43631" lon="12.8779017"><ele>284.0</ele><time>2026-04-25T08:34:34.963Z</time></trkpt><trkpt lat="43.4363" lon="12.87764"><ele>285.33333333333337</ele><time>2026-04-25T08:34:35.925Z</time></trkpt><trkpt lat="43.4363" lon="12.87737"><ele>286.6666666666667</ele><time>2026-04-25T08:34:36.935Z</time></trkpt><trkpt lat="43.4363017" lon="12.8771"><ele>288.0</ele><time>2026-04-25T08:34:37.934Z</time></trkpt><trkpt lat="43.436305" lon="12.87683"><ele>283.3333333333333</ele><time>2026-04-25T08:34:38.937Z</time></trkpt><trkpt lat="43.4363017" lon="12.876565"><ele>278.66666666666663</ele><time>2026-04-25T08:34:39.937Z</time></trkpt><trkpt lat="43.4362967" lon="12.8763"><ele>274.0</ele><time>2026-04-25T08:34:40.964Z</time></trkpt><trkpt lat="43.43629" lon="12.8760383"><ele>275.3333333333333</ele><time>2026-04-25T08:34:41.942Z</time></trkpt><trkpt lat="43.43628" lon="12.8757867"><ele>276.6666666666667</ele><time>2026-04-25T08:34:42.942Z</time></trkpt><trkpt lat="43.4362717" lon="12.8755333"><ele>278.0</ele><time>2026-04-25T08:34:43.938Z</time></trkpt><trkpt lat="43.4362633" lon="12.87529"><ele>278.0</ele><time>2026-04-25T08:34:44.934Z</time></trkpt><trkpt lat="43.4362467" lon="12.87506"><ele>278.0</ele><time>2026-04-25T08:34:45.929Z</time></trkpt><trkpt lat="43.436225" lon="12.8748433"><ele>278.0</ele><time>2026-04-25T08:34:46.965Z</time></trkpt><trkpt lat="43.4362017" lon="12.8746317"><ele>278.0</ele><time>2026-04-25T08:34:47.922Z</time></trkpt><trkpt lat="43.43617" lon="12.8744267"><ele>278.0</ele><time>2026-04-25T08:34:48.931Z</time></trkpt><trkpt lat="43.4361283" lon="12.874235"><ele>278.0</ele><time>2026-04-25T08:34:49.934Z</time></trkpt><trkpt lat="43.4360783" lon="12.8740567"><ele>278.0</ele><time>2026-04-25T08:34:50.935Z</time></trkpt><trkpt lat="43.4360333" lon="12.8738933"><ele>278.8</ele><time>2026-04-25T08:34:51.934Z</time></trkpt><trkpt lat="43.4359983" lon="12.8737417"><ele>279.6</ele><time>2026-04-25T08:34:52.988Z</time></trkpt><trkpt lat="43.4359733" lon="12.8736083"><ele>280.4</ele><time>2026-04-25T08:34:53.928Z</time></trkpt><trkpt lat="43.4359617" lon="12.8734983"><ele>281.2</ele><time>2026-04-25T08:34:54.922Z</time></trkpt><trkpt lat="43.4359633" lon="12.873395"><ele>282.0</ele><time>2026-04-25T08:34:55.921Z</time></trkpt><trkpt lat="43.4360033" lon="12.87325"><ele>282.0</ele><time>2026-04-25T08:34:57.931Z</time></trkpt><trkpt lat="43.4360683" lon="12.87317"><ele>282.0</ele><time>2026-04-25T08:34:59.933Z</time></trkpt><trkpt lat="43.4361333" lon="12.87306"><ele>282.0</ele><time>2026-04-25T08:35:01.935Z</time></trkpt><trkpt lat="43.436165" lon="12.8729783"><ele>282.0</ele><time>2026-04-25T08:35:03.933Z</time></trkpt><trkpt lat="43.4360967" lon="12.87276"><ele>282.0</ele><time>2026-04-25T08:36:01.925Z</time></trkpt><trkpt lat="43.4361567" lon="12.8728583"><ele>282.0</ele><time>2026-04-25T08:37:27.931Z</time></trkpt><trkpt lat="43.4361433" lon="12.8727733"><ele>282.0</ele><time>2026-04-25T08:38:53.929Z</time></trkpt><trkpt lat="43.4360867" lon="12.8727017"><ele>282.0</ele><time>2026-04-25T08:38:55.932Z</time></trkpt><trkpt lat="43.4359917" lon="12.8726617"><ele>282.0</ele><time>2026-04-25T08:38:56.931Z</time></trkpt><trkpt lat="43.4359333" lon="12.8724817"><ele>282.0</ele><time>2026-04-25T08:38:58.989Z</time></trkpt><trkpt lat="43.4359167" lon="12.8723633"><ele>282.4</ele><time>2026-04-25T08:38:59.92Z</time></trkpt><trkpt lat="43.43591" lon="12.8722167"><ele>282.79999999999995</ele><time>2026-04-25T08:39:00.921Z</time></trkpt><trkpt lat="43.4359083" lon="12.87207"><ele>283.2</ele><time>2026-04-25T08:39:01.931Z</time></trkpt><trkpt lat="43.435905" lon="12.8719317"><ele>283.59999999999997</ele><time>2026-04-25T08:39:02.928Z</time></trkpt><trkpt lat="43.4358983" lon="12.87179"><ele>284.0</ele><time>2026-04-25T08:39:03.927Z</time></trkpt><trkpt lat="43.4358867" lon="12.87164"><ele>284.0</ele><time>2026-04-25T08:39:04.961Z</time></trkpt><trkpt lat="43.435875" lon="12.87148"><ele>284.0</ele><time>2026-04-25T08:39:05.929Z</time></trkpt><trkpt lat="43.4358567" lon="12.8712983"><ele>284.0</ele><time>2026-04-25T08:39:06.92Z</time></trkpt><trkpt lat="43.4358367" lon="12.8711033"><ele>284.0</ele><time>2026-04-25T08:39:07.93Z</time></trkpt><trkpt lat="43.4358033" lon="12.870905"><ele>284.6666666666667</ele><time>2026-04-25T08:39:08.937Z</time></trkpt><trkpt lat="43.4357617" lon="12.8707083"><ele>285.3333333333333</ele><time>2026-04-25T08:39:09.94Z</time></trkpt><trkpt lat="43.43571" lon="12.8705133"><ele>286.0</ele><time>2026-04-25T08:39:10.98Z</time></trkpt><trkpt lat="43.4356367" lon="12.8703233"><ele>286.0</ele><time>2026-04-25T08:39:11.93Z</time></trkpt><trkpt lat="43.4355533" lon="12.8701383"><ele>286.0</ele><time>2026-04-25T08:39:12.931Z</time></trkpt><trkpt lat="43.4354467" lon="12.8699683"><ele>286.0</ele><time>2026-04-25T08:39:13.924Z</time></trkpt><trkpt lat="43.4353167" lon="12.869815"><ele>284.66666666666663</ele><time>2026-04-25T08:39:14.931Z</time></trkpt><trkpt lat="43.4351833" lon="12.8696667"><ele>283.3333333333333</ele><time>2026-04-25T08:39:15.932Z</time></trkpt><trkpt lat="43.4350417" lon="12.8695217"><ele>282.0</ele><time>2026-04-25T08:39:16.977Z</time></trkpt><trkpt lat="43.4349067" lon="12.869365"><ele>280.3333333333333</ele><time>2026-04-25T08:39:17.925Z</time></trkpt><trkpt lat="43.4347683" lon="12.8692133"><ele>278.66666666666663</ele><time>2026-04-25T08:39:18.935Z</time></trkpt><trkpt lat="43.4346333" lon="12.86904"><ele>277.0</ele><time>2026-04-25T08:39:19.935Z</time></trkpt><trkpt lat="43.4345033" lon="12.868865"><ele>277.0</ele><time>2026-04-25T08:39:20.941Z</time></trkpt><trkpt lat="43.4343817" lon="12.8686833"><ele>277.0</ele><time>2026-04-25T08:39:21.934Z</time></trkpt><trkpt lat="43.434275" lon="12.868475"><ele>277.0</ele><time>2026-04-25T08:39:23Z</time></trkpt><trkpt lat="43.4341767" lon="12.8682583"><ele>279.66666666666663</ele><time>2026-04-25T08:39:23.925Z</time></trkpt><trkpt lat="43.4340867" lon="12.8680433"><ele>282.3333333333333</ele><time>2026-04-25T08:39:24.932Z</time></trkpt><trkpt lat="43.4340067" lon="12.867825"><ele>285.0</ele><time>2026-04-25T08:39:25.935Z</time></trkpt><trkpt lat="43.4339467" lon="12.8675967"><ele>286.6666666666667</ele><time>2026-04-25T08:39:26.933Z</time></trkpt><trkpt lat="43.43391" lon="12.8673567"><ele>288.33333333333337</ele><time>2026-04-25T08:39:27.928Z</time></trkpt><trkpt lat="43.4338883" lon="12.8671067"><ele>290.0</ele><time>2026-04-25T08:39:28.991Z</time></trkpt><trkpt lat="43.4338817" lon="12.8668583"><ele>291.33333333333337</ele><time>2026-04-25T08:39:29.934Z</time></trkpt><trkpt lat="43.43388" lon="12.86662"><ele>292.6666666666667</ele><time>2026-04-25T08:39:30.929Z</time></trkpt><trkpt lat="43.4338783" lon="12.8663817"><ele>294.0</ele><time>2026-04-25T08:39:31.932Z</time></trkpt><trkpt lat="43.43387" lon="12.86614"><ele>296.3333333333333</ele><time>2026-04-25T08:39:32.933Z</time></trkpt><trkpt lat="43.4338617" lon="12.8659017"><ele>298.66666666666663</ele><time>2026-04-25T08:39:33.933Z</time></trkpt><trkpt lat="43.4338517" lon="12.8656683"><ele>301.0</ele><time>2026-04-25T08:39:34.973Z</time></trkpt><trkpt lat="43.4338433" lon="12.86544"><ele>301.0</ele><time>2026-04-25T08:39:35.932Z</time></trkpt><trkpt lat="43.433835" lon="12.8652083"><ele>301.0</ele><time>2026-04-25T08:39:36.93Z</time></trkpt><trkpt lat="43.4338283" lon="12.8649817"><ele>301.0</ele><time>2026-04-25T08:39:37.934Z</time></trkpt><trkpt lat="43.43382" lon="12.8647617"><ele>300.66666666666663</ele><time>2026-04-25T08:39:38.93Z</time></trkpt><trkpt lat="43.433815" lon="12.8645433"><ele>300.3333333333333</ele><time>2026-04-25T08:39:39.928Z</time></trkpt><trkpt lat="43.4338083" lon="12.8643317"><ele>300.0</ele><time>2026-04-25T08:39:40.975Z</time></trkpt><trkpt lat="43.4337967" lon="12.8641283"><ele>295.5</ele><time>2026-04-25T08:39:41.927Z</time></trkpt><trkpt lat="43.4337883" lon="12.863925"><ele>291.0</ele><time>2026-04-25T08:39:42.927Z</time></trkpt><trkpt lat="43.4337833" lon="12.8637167"><ele>286.5</ele><time>2026-04-25T08:39:43.933Z</time></trkpt><trkpt lat="43.43377" lon="12.8635117"><ele>282.0</ele><time>2026-04-25T08:39:44.934Z</time></trkpt><trkpt lat="43.4337567" lon="12.8633033"><ele>282.0</ele><time>2026-04-25T08:39:45.933Z</time></trkpt><trkpt lat="43.4337483" lon="12.863095"><ele>282.0</ele><time>2026-04-25T08:39:46.972Z</time></trkpt><trkpt lat="43.4337433" lon="12.8628883"><ele>282.0</ele><time>2026-04-25T08:39:47.931Z</time></trkpt><trkpt lat="43.4337267" lon="12.862685"><ele>283.0</ele><time>2026-04-25T08:39:48.934Z</time></trkpt><trkpt lat="43.433715" lon="12.86247"><ele>284.0</ele><time>2026-04-25T08:39:49.935Z</time></trkpt><trkpt lat="43.4337067" lon="12.86226"><ele>285.0</ele><time>2026-04-25T08:39:50.936Z</time></trkpt><trkpt lat="43.4337017" lon="12.8620667"><ele>285.0</ele><time>2026-04-25T08:39:51.934Z</time></trkpt><trkpt lat="43.4336967" lon="12.8618833"><ele>285.0</ele><time>2026-04-25T08:39:53.002Z</time></trkpt><trkpt lat="43.4336867" lon="12.86171"><ele>285.0</ele><time>2026-04-25T08:39:53.922Z</time></trkpt><trkpt lat="43.4336733" lon="12.8615367"><ele>285.0</ele><time>2026-04-25T08:39:54.932Z</time></trkpt><trkpt lat="43.4336367" lon="12.8613633"><ele>285.25</ele><time>2026-04-25T08:39:55.934Z</time></trkpt><trkpt lat="43.4335933" lon="12.8611867"><ele>285.5</ele><time>2026-04-25T08:39:56.933Z</time></trkpt><trkpt lat="43.4335433" lon="12.86101"><ele>285.75</ele><time>2026-04-25T08:39:57.927Z</time></trkpt><trkpt lat="43.4334833" lon="12.8608267"><ele>286.0</ele><time>2026-04-25T08:39:58.989Z</time></trkpt><trkpt lat="43.4334233" lon="12.8606433"><ele>286.75</ele><time>2026-04-25T08:39:59.931Z</time></trkpt><trkpt lat="43.4333633" lon="12.8604633"><ele>287.5</ele><time>2026-04-25T08:40:00.931Z</time></trkpt><trkpt lat="43.4332967" lon="12.860285"><ele>288.25</ele><time>2026-04-25T08:40:01.925Z</time></trkpt><trkpt lat="43.4332233" lon="12.860115"><ele>289.0</ele><time>2026-04-25T08:40:02.929Z</time></trkpt><trkpt lat="43.4331367" lon="12.859955"><ele>288.25</ele><time>2026-04-25T08:40:03.93Z</time></trkpt><trkpt lat="43.4330417" lon="12.8598133"><ele>287.5</ele><time>2026-04-25T08:40:04.966Z</time></trkpt><trkpt lat="43.4329383" lon="12.8596983"><ele>286.75</ele><time>2026-04-25T08:40:05.922Z</time></trkpt><trkpt lat="43.4328467" lon="12.8596017"><ele>286.0</ele><time>2026-04-25T08:40:06.929Z</time></trkpt><trkpt lat="43.432765" lon="12.859515"><ele>286.0</ele><time>2026-04-25T08:40:07.93Z</time></trkpt><trkpt lat="43.4326867" lon="12.85944"><ele>286.0</ele><time>2026-04-25T08:40:08.93Z</time></trkpt><trkpt lat="43.4326233" lon="12.85938"><ele>286.0</ele><time>2026-04-25T08:40:09.924Z</time></trkpt><trkpt lat="43.4325667" lon="12.85933"><ele>286.0</ele><time>2026-04-25T08:40:10.972Z</time></trkpt><trkpt lat="43.43251" lon="12.859275"><ele>286.0</ele><time>2026-04-25T08:40:12.926Z</time></trkpt><trkpt lat="43.4324433" lon="12.8592817"><ele>286.0</ele><time>2026-04-25T08:40:14.925Z</time></trkpt><trkpt lat="43.4323767" lon="12.8592083"><ele>286.8333333333333</ele><time>2026-04-25T08:40:17.927Z</time></trkpt><trkpt lat="43.4323333" lon="12.8591183"><ele>287.66666666666663</ele><time>2026-04-25T08:40:20.929Z</time></trkpt><trkpt lat="43.43227" lon="12.859115"><ele>288.5</ele><time>2026-04-25T08:40:23.928Z</time></trkpt><trkpt lat="43.43221" lon="12.859145"><ele>289.3333333333333</ele><time>2026-04-25T08:40:30.929Z</time></trkpt><trkpt lat="43.432225" lon="12.8590517"><ele>290.1666666666667</ele><time>2026-04-25T08:41:07.945Z</time></trkpt><trkpt lat="43.43213" lon="12.8590333"><ele>291.0</ele><time>2026-04-25T08:41:08.933Z</time></trkpt><trkpt lat="43.4322317" lon="12.8589717"><ele>291.0</ele><time>2026-04-25T08:46:08.946Z</time></trkpt><trkpt lat="43.4321567" lon="12.8590533"><ele>291.0</ele><time>2026-04-25T08:46:59.003Z</time></trkpt><trkpt lat="43.4320967" lon="12.8591617"><ele>291.0</ele><time>2026-04-25T08:47:56.931Z</time></trkpt><trkpt lat="43.43216" lon="12.859125"><ele>291.0</ele><time>2026-04-25T08:51:29.003Z</time></trkpt><trkpt lat="43.43225" lon="12.8590983"><ele>291.0</ele><time>2026-04-25T08:51:29.931Z</time></trkpt><trkpt lat="43.432185" lon="12.8591567"><ele>291.0</ele><time>2026-04-25T08:54:13.929Z</time></trkpt><trkpt lat="43.4322767" lon="12.8591317"><ele>291.0</ele><time>2026-04-25T08:54:57.924Z</time></trkpt><trkpt lat="43.432285" lon="12.8590267"><ele>291.0</ele><time>2026-04-25T08:55:07.924Z</time></trkpt><trkpt lat="43.432185" lon="12.8589433"><ele>291.0</ele><time>2026-04-25T08:55:09.929Z</time></trkpt><trkpt lat="43.4321067" lon="12.8589233"><ele>291.0</ele><time>2026-04-25T08:55:10.968Z</time></trkpt><trkpt lat="43.43203" lon="12.8588933"><ele>291.0</ele><time>2026-04-25T08:55:11.923Z</time></trkpt><trkpt lat="43.4319433" lon="12.8588517"><ele>291.0</ele><time>2026-04-25T08:55:12.928Z</time></trkpt><trkpt lat="43.4318717" lon="12.8587883"><ele>291.0</ele><time>2026-04-25T08:55:13.933Z</time></trkpt><trkpt lat="43.4317883" lon="12.8587317"><ele>291.0</ele><time>2026-04-25T08:55:14.933Z</time></trkpt><trkpt lat="43.4317" lon="12.85867"><ele>291.0</ele><time>2026-04-25T08:55:15.932Z</time></trkpt><trkpt lat="43.4316" lon="12.8585933"><ele>291.0</ele><time>2026-04-25T08:55:16.968Z</time></trkpt><trkpt lat="43.431515" lon="12.858515"><ele>291.0</ele><time>2026-04-25T08:55:17.927Z</time></trkpt><trkpt lat="43.4314167" lon="12.8584217"><ele>292.0</ele><time>2026-04-25T08:55:18.936Z</time></trkpt><trkpt lat="43.4313117" lon="12.8583433"><ele>293.0</ele><time>2026-04-25T08:55:19.931Z</time></trkpt><trkpt lat="43.431215" lon="12.8582617"><ele>294.0</ele><time>2026-04-25T08:55:20.935Z</time></trkpt><trkpt lat="43.43112" lon="12.858185"><ele>295.0</ele><time>2026-04-25T08:55:21.93Z</time></trkpt><trkpt lat="43.43103" lon="12.8581033"><ele>292.4</ele><time>2026-04-25T08:55:22.993Z</time></trkpt><trkpt lat="43.430935" lon="12.85803"><ele>289.8</ele><time>2026-04-25T08:55:23.94Z</time></trkpt><trkpt lat="43.4308383" lon="12.85796"><ele>287.2</ele><time>2026-04-25T08:55:24.946Z</time></trkpt><trkpt lat="43.43075" lon="12.8578883"><ele>284.6</ele><time>2026-04-25T08:55:25.937Z</time></trkpt><trkpt lat="43.4306683" lon="12.8578333"><ele>282.0</ele><time>2026-04-25T08:55:26.935Z</time></trkpt><trkpt lat="43.4305783" lon="12.8577783"><ele>282.0</ele><time>2026-04-25T08:55:27.935Z</time></trkpt><trkpt lat="43.4304867" lon="12.8576783"><ele>282.0</ele><time>2026-04-25T08:55:29.001Z</time></trkpt><trkpt lat="43.4303917" lon="12.8575917"><ele>282.0</ele><time>2026-04-25T08:55:29.931Z</time></trkpt><trkpt lat="43.4302933" lon="12.8575083"><ele>282.0</ele><time>2026-04-25T08:55:30.936Z</time></trkpt><trkpt lat="43.430185" lon="12.8574233"><ele>282.5</ele><time>2026-04-25T08:55:31.928Z</time></trkpt><trkpt lat="43.4300817" lon="12.8573367"><ele>283.0</ele><time>2026-04-25T08:55:32.929Z</time></trkpt><trkpt lat="43.429975" lon="12.8572533"><ele>283.5</ele><time>2026-04-25T08:55:33.925Z</time></trkpt><trkpt lat="43.4298617" lon="12.8571683"><ele>284.0</ele><time>2026-04-25T08:55:34.977Z</time></trkpt><trkpt lat="43.429735" lon="12.8571133"><ele>285.25</ele><time>2026-04-25T08:55:35.934Z</time></trkpt><trkpt lat="43.4296" lon="12.8570867"><ele>286.5</ele><time>2026-04-25T08:55:36.926Z</time></trkpt><trkpt lat="43.4294683" lon="12.8570533"><ele>287.75</ele><time>2026-04-25T08:55:37.93Z</time></trkpt><trkpt lat="43.4293217" lon="12.8570417"><ele>289.0</ele><time>2026-04-25T08:55:38.93Z</time></trkpt><trkpt lat="43.4291817" lon="12.857025"><ele>289.0</ele><time>2026-04-25T08:55:39.929Z</time></trkpt><trkpt lat="43.42905" lon="12.857005"><ele>289.0</ele><time>2026-04-25T08:55:40.97Z</time></trkpt><trkpt lat="43.428925" lon="12.8569717"><ele>289.0</ele><time>2026-04-25T08:55:41.931Z</time></trkpt><trkpt lat="43.42881" lon="12.85694"><ele>289.0</ele><time>2026-04-25T08:55:42.931Z</time></trkpt><trkpt lat="43.4286817" lon="12.8569033"><ele>288.75</ele><time>2026-04-25T08:55:43.921Z</time></trkpt><trkpt lat="43.4285567" lon="12.8568683"><ele>288.5</ele><time>2026-04-25T08:55:44.927Z</time></trkpt><trkpt lat="43.4284233" lon="12.85683"><ele>288.25</ele><time>2026-04-25T08:55:45.93Z</time></trkpt><trkpt lat="43.4282933" lon="12.8567933"><ele>288.0</ele><time>2026-04-25T08:55:46.968Z</time></trkpt><trkpt lat="43.42818" lon="12.856755"><ele>288.0</ele><time>2026-04-25T08:55:47.932Z</time></trkpt><trkpt lat="43.4280583" lon="12.85671"><ele>288.0</ele><time>2026-04-25T08:55:48.933Z</time></trkpt><trkpt lat="43.4279317" lon="12.85667"><ele>288.0</ele><time>2026-04-25T08:55:49.928Z</time></trkpt><trkpt lat="43.4278067" lon="12.8566283"><ele>288.0</ele><time>2026-04-25T08:55:50.934Z</time></trkpt><trkpt lat="43.4276883" lon="12.856595"><ele>289.0</ele><time>2026-04-25T08:55:51.931Z</time></trkpt><trkpt lat="43.42758" lon="12.85655"><ele>290.0</ele><time>2026-04-25T08:55:52.994Z</time></trkpt><trkpt lat="43.4274567" lon="12.8565217"><ele>291.0</ele><time>2026-04-25T08:55:53.925Z</time></trkpt><trkpt lat="43.4273367" lon="12.856495"><ele>292.0</ele><time>2026-04-25T08:55:54.931Z</time></trkpt><trkpt lat="43.4272267" lon="12.8564817"><ele>293.0</ele><time>2026-04-25T08:55:55.929Z</time></trkpt><trkpt lat="43.4271183" lon="12.856465"><ele>294.0</ele><time>2026-04-25T08:55:56.932Z</time></trkpt><trkpt lat="43.427015" lon="12.8564433"><ele>295.0</ele><time>2026-04-25T08:55:57.934Z</time></trkpt><trkpt lat="43.4269233" lon="12.8564283"><ele>296.0</ele><time>2026-04-25T08:55:58.991Z</time></trkpt><trkpt lat="43.4268383" lon="12.85641"><ele>297.0</ele><time>2026-04-25T08:55:59.931Z</time></trkpt><trkpt lat="43.4267617" lon="12.8563917"><ele>297.0</ele><time>2026-04-25T08:56:00.932Z</time></trkpt><trkpt lat="43.4266817" lon="12.8563567"><ele>297.0</ele><time>2026-04-25T08:56:01.921Z</time></trkpt><trkpt lat="43.4265917" lon="12.8563333"><ele>297.0</ele><time>2026-04-25T08:56:02.932Z</time></trkpt><trkpt lat="43.426495" lon="12.8563083"><ele>297.0</ele><time>2026-04-25T08:56:03.935Z</time></trkpt><trkpt lat="43.4263817" lon="12.856285"><ele>297.0</ele><time>2026-04-25T08:56:04.976Z</time></trkpt><trkpt lat="43.4262633" lon="12.856255"><ele>298.0</ele><time>2026-04-25T08:56:05.93Z</time></trkpt><trkpt lat="43.4261283" lon="12.856225"><ele>299.0</ele><time>2026-04-25T08:56:06.933Z</time></trkpt><trkpt lat="43.4259733" lon="12.8561983"><ele>300.0</ele><time>2026-04-25T08:56:07.927Z</time></trkpt><trkpt lat="43.4258083" lon="12.8561583"><ele>300.0</ele><time>2026-04-25T08:56:08.932Z</time></trkpt><trkpt lat="43.4256367" lon="12.856115"><ele>300.0</ele><time>2026-04-25T08:56:09.935Z</time></trkpt><trkpt lat="43.4254567" lon="12.8560767"><ele>300.0</ele><time>2026-04-25T08:56:10.968Z</time></trkpt><trkpt lat="43.425285" lon="12.8560233"><ele>300.0</ele><time>2026-04-25T08:56:11.927Z</time></trkpt><trkpt lat="43.4251033" lon="12.8559733"><ele>300.0</ele><time>2026-04-25T08:56:12.924Z</time></trkpt><trkpt lat="43.4249317" lon="12.8559083"><ele>300.0</ele><time>2026-04-25T08:56:13.926Z</time></trkpt><trkpt lat="43.424765" lon="12.8558317"><ele>299.6666666666667</ele><time>2026-04-25T08:56:14.933Z</time></trkpt><trkpt lat="43.4246" lon="12.8557383"><ele>299.33333333333337</ele><time>2026-04-25T08:56:15.931Z</time></trkpt><trkpt lat="43.4244383" lon="12.85563"><ele>299.0</ele><time>2026-04-25T08:56:16.969Z</time></trkpt><trkpt lat="43.4242817" lon="12.85551"><ele>299.0</ele><time>2026-04-25T08:56:17.923Z</time></trkpt><trkpt lat="43.42413" lon="12.8553767"><ele>299.0</ele><time>2026-04-25T08:56:18.93Z</time></trkpt><trkpt lat="43.4239783" lon="12.8552483"><ele>299.0</ele><time>2026-04-25T08:56:19.931Z</time></trkpt><trkpt lat="43.4238267" lon="12.8551233"><ele>301.6666666666667</ele><time>2026-04-25T08:56:20.929Z</time></trkpt><trkpt lat="43.42367" lon="12.8550017"><ele>304.3333333333333</ele><time>2026-04-25T08:56:21.927Z</time></trkpt><trkpt lat="43.4235133" lon="12.8548833"><ele>307.0</ele><time>2026-04-25T08:56:22.987Z</time></trkpt><trkpt lat="43.4233567" lon="12.8547583"><ele>307.0</ele><time>2026-04-25T08:56:23.926Z</time></trkpt><trkpt lat="43.4232033" lon="12.8546317"><ele>307.0</ele><time>2026-04-25T08:56:24.928Z</time></trkpt><trkpt lat="43.42305" lon="12.8545033"><ele>307.0</ele><time>2026-04-25T08:56:25.927Z</time></trkpt><trkpt lat="43.4228983" lon="12.8543733"><ele>307.3333333333333</ele><time>2026-04-25T08:56:26.927Z</time></trkpt><trkpt lat="43.4227467" lon="12.8542467"><ele>307.6666666666667</ele><time>2026-04-25T08:56:27.928Z</time></trkpt><trkpt lat="43.4225917" lon="12.854125"><ele>308.0</ele><time>2026-04-25T08:56:28.986Z</time></trkpt><trkpt lat="43.4224333" lon="12.854005"><ele>308.0</ele><time>2026-04-25T08:56:29.921Z</time></trkpt><trkpt lat="43.4222767" lon="12.8538817"><ele>308.0</ele><time>2026-04-25T08:56:30.925Z</time></trkpt><trkpt lat="43.4221233" lon="12.85376"><ele>308.0</ele><time>2026-04-25T08:56:31.927Z</time></trkpt><trkpt lat="43.42197" lon="12.8536317"><ele>308.0</ele><time>2026-04-25T08:56:32.928Z</time></trkpt><trkpt lat="43.4218133" lon="12.853505"><ele>308.0</ele><time>2026-04-25T08:56:33.936Z</time></trkpt><trkpt lat="43.4216567" lon="12.8533817"><ele>308.0</ele><time>2026-04-25T08:56:34.97Z</time></trkpt><trkpt lat="43.4215017" lon="12.8532617"><ele>308.0</ele><time>2026-04-25T08:56:35.932Z</time></trkpt><trkpt lat="43.4213467" lon="12.8531433"><ele>308.0</ele><time>2026-04-25T08:56:36.923Z</time></trkpt><trkpt lat="43.4211883" lon="12.853025"><ele>308.0</ele><time>2026-04-25T08:56:37.932Z</time></trkpt><trkpt lat="43.4210333" lon="12.8529117"><ele>308.0</ele><time>2026-04-25T08:56:38.932Z</time></trkpt><trkpt lat="43.42088" lon="12.8528"><ele>308.0</ele><time>2026-04-25T08:56:39.941Z</time></trkpt><trkpt lat="43.420735" lon="12.85269"><ele>308.0</ele><time>2026-04-25T08:56:40.976Z</time></trkpt><trkpt lat="43.4206" lon="12.8525833"><ele>307.75</ele><time>2026-04-25T08:56:41.939Z</time></trkpt><trkpt lat="43.4204717" lon="12.8524783"><ele>307.5</ele><time>2026-04-25T08:56:42.935Z</time></trkpt><trkpt lat="43.4203567" lon="12.8523767"><ele>307.25</ele><time>2026-04-25T08:56:43.933Z</time></trkpt><trkpt lat="43.4202517" lon="12.8522783"><ele>307.0</ele><time>2026-04-25T08:56:44.93Z</time></trkpt><trkpt lat="43.4201567" lon="12.8521833"><ele>307.0</ele><time>2026-04-25T08:56:45.933Z</time></trkpt><trkpt lat="43.4200617" lon="12.8520917"><ele>307.0</ele><time>2026-04-25T08:56:46.968Z</time></trkpt><trkpt lat="43.4199583" lon="12.8520133"><ele>307.0</ele><time>2026-04-25T08:56:47.93Z</time></trkpt><trkpt lat="43.419845" lon="12.8519383"><ele>307.0</ele><time>2026-04-25T08:56:48.921Z</time></trkpt><trkpt lat="43.4197133" lon="12.8518667"><ele>306.3333333333333</ele><time>2026-04-25T08:56:49.925Z</time></trkpt><trkpt lat="43.4195733" lon="12.851795"><ele>305.6666666666667</ele><time>2026-04-25T08:56:50.921Z</time></trkpt><trkpt lat="43.419425" lon="12.851725"><ele>305.0</ele><time>2026-04-25T08:56:51.927Z</time></trkpt><trkpt lat="43.4192667" lon="12.85167"><ele>307.33333333333337</ele><time>2026-04-25T08:56:52.99Z</time></trkpt><trkpt lat="43.4191033" lon="12.85162"><ele>309.6666666666667</ele><time>2026-04-25T08:56:53.929Z</time></trkpt><trkpt lat="43.4189333" lon="12.851595"><ele>312.0</ele><time>2026-04-25T08:56:54.929Z</time></trkpt><trkpt lat="43.4187567" lon="12.8516033"><ele>313.0</ele><time>2026-04-25T08:56:55.938Z</time></trkpt><trkpt lat="43.4185783" lon="12.851615"><ele>314.0</ele><time>2026-04-25T08:56:56.942Z</time></trkpt><trkpt lat="43.4184" lon="12.851625"><ele>315.0</ele><time>2026-04-25T08:56:57.92Z</time></trkpt><trkpt lat="43.4182267" lon="12.8516317"><ele>315.0</ele><time>2026-04-25T08:56:58.987Z</time></trkpt><trkpt lat="43.4180517" lon="12.8516433"><ele>315.0</ele><time>2026-04-25T08:56:59.925Z</time></trkpt><trkpt lat="43.4178717" lon="12.8516617"><ele>315.0</ele><time>2026-04-25T08:57:00.932Z</time></trkpt><trkpt lat="43.4176883" lon="12.85168"><ele>315.3333333333333</ele><time>2026-04-25T08:57:01.932Z</time></trkpt><trkpt lat="43.4174967" lon="12.8516933"><ele>315.66666666666663</ele><time>2026-04-25T08:57:02.934Z</time></trkpt><trkpt lat="43.4173117" lon="12.8517"><ele>316.0</ele><time>2026-04-25T08:57:03.926Z</time></trkpt><trkpt lat="43.4171267" lon="12.851705"><ele>316.3333333333333</ele><time>2026-04-25T08:57:04.971Z</time></trkpt><trkpt lat="43.4169417" lon="12.8517133"><ele>316.6666666666667</ele><time>2026-04-25T08:57:05.929Z</time></trkpt><trkpt lat="43.416755" lon="12.8517217"><ele>317.0</ele><time>2026-04-25T08:57:06.927Z</time></trkpt><trkpt lat="43.41657" lon="12.8517317"><ele>317.0</ele><time>2026-04-25T08:57:07.926Z</time></trkpt><trkpt lat="43.4163883" lon="12.851745"><ele>317.0</ele><time>2026-04-25T08:57:08.927Z</time></trkpt><trkpt lat="43.4162033" lon="12.8517583"><ele>317.0</ele><time>2026-04-25T08:57:09.929Z</time></trkpt><trkpt lat="43.4160167" lon="12.8517683"><ele>316.6666666666667</ele><time>2026-04-25T08:57:10.974Z</time></trkpt><trkpt lat="43.41583" lon="12.851775"><ele>316.3333333333333</ele><time>2026-04-25T08:57:11.932Z</time></trkpt><trkpt lat="43.415645" lon="12.8517817"><ele>316.0</ele><time>2026-04-25T08:57:12.934Z</time></trkpt><trkpt lat="43.415455" lon="12.8517933"><ele>315.0</ele><time>2026-04-25T08:57:13.929Z</time></trkpt><trkpt lat="43.4152667" lon="12.8518033"><ele>314.0</ele><time>2026-04-25T08:57:14.936Z</time></trkpt><trkpt lat="43.4150783" lon="12.8518133"><ele>313.0</ele><time>2026-04-25T08:57:15.942Z</time></trkpt><trkpt lat="43.4148883" lon="12.851825"><ele>313.0</ele><time>2026-04-25T08:57:16.972Z</time></trkpt><trkpt lat="43.4146967" lon="12.8518383"><ele>313.0</ele><time>2026-04-25T08:57:17.93Z</time></trkpt><trkpt lat="43.4145067" lon="12.85185"><ele>313.0</ele><time>2026-04-25T08:57:18.929Z</time></trkpt><trkpt lat="43.4143183" lon="12.85186"><ele>313.66666666666663</ele><time>2026-04-25T08:57:19.929Z</time></trkpt><trkpt lat="43.4141267" lon="12.8518683"><ele>314.3333333333333</ele><time>2026-04-25T08:57:20.934Z</time></trkpt><trkpt lat="43.413935" lon="12.8518767"><ele>315.0</ele><time>2026-04-25T08:57:21.935Z</time></trkpt><trkpt lat="43.4137417" lon="12.8518867"><ele>315.6666666666667</ele><time>2026-04-25T08:57:22.999Z</time></trkpt><trkpt lat="43.4135567" lon="12.8518983"><ele>316.33333333333337</ele><time>2026-04-25T08:57:23.933Z</time></trkpt><trkpt lat="43.4133733" lon="12.8519083"><ele>317.0</ele><time>2026-04-25T08:57:24.928Z</time></trkpt><trkpt lat="43.413185" lon="12.8519167"><ele>317.0</ele><time>2026-04-25T08:57:25.933Z</time></trkpt><trkpt lat="43.4129983" lon="12.8519233"><ele>317.0</ele><time>2026-04-25T08:57:26.935Z</time></trkpt><trkpt lat="43.4128083" lon="12.8519267"><ele>317.0</ele><time>2026-04-25T08:57:27.934Z</time></trkpt><trkpt lat="43.4126183" lon="12.8519267"><ele>317.0</ele><time>2026-04-25T08:57:28.989Z</time></trkpt><trkpt lat="43.41243" lon="12.85192"><ele>317.0</ele><time>2026-04-25T08:57:29.929Z</time></trkpt><trkpt lat="43.4122467" lon="12.8518967"><ele>317.0</ele><time>2026-04-25T08:57:30.933Z</time></trkpt><trkpt lat="43.4120667" lon="12.8518417"><ele>319.0</ele><time>2026-04-25T08:57:31.935Z</time></trkpt><trkpt lat="43.411885" lon="12.8517667"><ele>321.0</ele><time>2026-04-25T08:57:32.932Z</time></trkpt><trkpt lat="43.4117067" lon="12.8516867"><ele>323.0</ele><time>2026-04-25T08:57:33.928Z</time></trkpt><trkpt lat="43.4115217" lon="12.8516133"><ele>323.0</ele><time>2026-04-25T08:57:34.974Z</time></trkpt><trkpt lat="43.4113367" lon="12.8515417"><ele>323.0</ele><time>2026-04-25T08:57:35.919Z</time></trkpt><trkpt lat="43.4111483" lon="12.8514783"><ele>323.0</ele><time>2026-04-25T08:57:36.919Z</time></trkpt><trkpt lat="43.41096" lon="12.8514183"><ele>322.0</ele><time>2026-04-25T08:57:37.92Z</time></trkpt><trkpt lat="43.410775" lon="12.85136"><ele>321.0</ele><time>2026-04-25T08:57:38.921Z</time></trkpt><trkpt lat="43.4105883" lon="12.8513"><ele>320.0</ele><time>2026-04-25T08:57:39.92Z</time></trkpt><trkpt lat="43.410395" lon="12.851235"><ele>320.0</ele><time>2026-04-25T08:57:40.969Z</time></trkpt><trkpt lat="43.4102033" lon="12.85117"><ele>320.0</ele><time>2026-04-25T08:57:41.921Z</time></trkpt><trkpt lat="43.4100083" lon="12.8511033"><ele>320.0</ele><time>2026-04-25T08:57:42.919Z</time></trkpt><trkpt lat="43.4098117" lon="12.85104"><ele>319.6666666666667</ele><time>2026-04-25T08:57:43.919Z</time></trkpt><trkpt lat="43.40962" lon="12.8509883"><ele>319.3333333333333</ele><time>2026-04-25T08:57:44.922Z</time></trkpt><trkpt lat="43.4094317" lon="12.8509317"><ele>319.0</ele><time>2026-04-25T08:57:45.929Z</time></trkpt><trkpt lat="43.409245" lon="12.8508617"><ele>321.66666666666663</ele><time>2026-04-25T08:57:46.979Z</time></trkpt><trkpt lat="43.40906" lon="12.850795"><ele>324.3333333333333</ele><time>2026-04-25T08:57:47.929Z</time></trkpt><trkpt lat="43.4088733" lon="12.8507283"><ele>327.0</ele><time>2026-04-25T08:57:48.934Z</time></trkpt><trkpt lat="43.4086867" lon="12.8506617"><ele>327.3333333333333</ele><time>2026-04-25T08:57:49.938Z</time></trkpt><trkpt lat="43.4084983" lon="12.8506033"><ele>327.66666666666663</ele><time>2026-04-25T08:57:50.941Z</time></trkpt><trkpt lat="43.4083083" lon="12.8505433"><ele>328.0</ele><time>2026-04-25T08:57:51.934Z</time></trkpt><trkpt lat="43.4081217" lon="12.8504833"><ele>328.0</ele><time>2026-04-25T08:57:52.987Z</time></trkpt><trkpt lat="43.4079383" lon="12.8504233"><ele>328.0</ele><time>2026-04-25T08:57:53.925Z</time></trkpt><trkpt lat="43.407755" lon="12.8503683"><ele>328.0</ele><time>2026-04-25T08:57:54.923Z</time></trkpt><trkpt lat="43.4075717" lon="12.8503133"><ele>328.0</ele><time>2026-04-25T08:57:55.925Z</time></trkpt><trkpt lat="43.4073867" lon="12.8502567"><ele>328.0</ele><time>2026-04-25T08:57:56.932Z</time></trkpt><trkpt lat="43.407205" lon="12.8502"><ele>328.0</ele><time>2026-04-25T08:57:57.927Z</time></trkpt><trkpt lat="43.4070217" lon="12.8501483"><ele>329.0</ele><time>2026-04-25T08:57:58.993Z</time></trkpt><trkpt lat="43.4068417" lon="12.8500867"><ele>330.0</ele><time>2026-04-25T08:57:59.935Z</time></trkpt><trkpt lat="43.4066617" lon="12.85002"><ele>331.0</ele><time>2026-04-25T08:58:00.926Z</time></trkpt><trkpt lat="43.4064817" lon="12.8499567"><ele>330.3333333333333</ele><time>2026-04-25T08:58:01.932Z</time></trkpt><trkpt lat="43.4063" lon="12.8498933"><ele>329.6666666666667</ele><time>2026-04-25T08:58:02.935Z</time></trkpt><trkpt lat="43.406115" lon="12.8498317"><ele>329.0</ele><time>2026-04-25T08:58:03.934Z</time></trkpt><trkpt lat="43.4059333" lon="12.84977"><ele>329.0</ele><time>2026-04-25T08:58:04.978Z</time></trkpt><trkpt lat="43.4057483" lon="12.849705"><ele>329.0</ele><time>2026-04-25T08:58:05.928Z</time></trkpt><trkpt lat="43.4055667" lon="12.8496433"><ele>329.0</ele><time>2026-04-25T08:58:06.936Z</time></trkpt><trkpt lat="43.4053833" lon="12.8495867"><ele>329.0</ele><time>2026-04-25T08:58:07.936Z</time></trkpt><trkpt lat="43.4051967" lon="12.84953"><ele>329.0</ele><time>2026-04-25T08:58:08.931Z</time></trkpt><trkpt lat="43.4050117" lon="12.84947"><ele>329.0</ele><time>2026-04-25T08:58:09.93Z</time></trkpt><trkpt lat="43.404825" lon="12.84941"><ele>329.0</ele><time>2026-04-25T08:58:10.982Z</time></trkpt><trkpt lat="43.4046367" lon="12.8493567"><ele>329.0</ele><time>2026-04-25T08:58:11.929Z</time></trkpt><trkpt lat="43.4044583" lon="12.8493"><ele>329.0</ele><time>2026-04-25T08:58:12.932Z</time></trkpt><trkpt lat="43.40427" lon="12.8492467"><ele>329.0</ele><time>2026-04-25T08:58:13.933Z</time></trkpt><trkpt lat="43.4040867" lon="12.8491917"><ele>329.0</ele><time>2026-04-25T08:58:14.929Z</time></trkpt><trkpt lat="43.4039033" lon="12.849135"><ele>329.0</ele><time>2026-04-25T08:58:15.93Z</time></trkpt><trkpt lat="43.40372" lon="12.8490783"><ele>329.33333333333337</ele><time>2026-04-25T08:58:16.984Z</time></trkpt><trkpt lat="43.4035367" lon="12.849025"><ele>329.6666666666667</ele><time>2026-04-25T08:58:17.936Z</time></trkpt><trkpt lat="43.4033517" lon="12.8489683"><ele>330.0</ele><time>2026-04-25T08:58:18.939Z</time></trkpt><trkpt lat="43.4031667" lon="12.8489083"><ele>330.6666666666667</ele><time>2026-04-25T08:58:19.929Z</time></trkpt><trkpt lat="43.4029867" lon="12.8488467"><ele>331.33333333333337</ele><time>2026-04-25T08:58:20.932Z</time></trkpt><trkpt lat="43.4028067" lon="12.8487867"><ele>332.0</ele><time>2026-04-25T08:58:21.932Z</time></trkpt><trkpt lat="43.402625" lon="12.84874"><ele>332.0</ele><time>2026-04-25T08:58:22.992Z</time></trkpt><trkpt lat="43.4024417" lon="12.84871"><ele>332.0</ele><time>2026-04-25T08:58:23.929Z</time></trkpt><trkpt lat="43.4022567" lon="12.8486967"><ele>332.0</ele><time>2026-04-25T08:58:24.933Z</time></trkpt><trkpt lat="43.40207" lon="12.8486967"><ele>332.33333333333337</ele><time>2026-04-25T08:58:25.932Z</time></trkpt><trkpt lat="43.401885" lon="12.848705"><ele>332.6666666666667</ele><time>2026-04-25T08:58:26.929Z</time></trkpt><trkpt lat="43.4017" lon="12.84871"><ele>333.0</ele><time>2026-04-25T08:58:27.932Z</time></trkpt><trkpt lat="43.401515" lon="12.8487117"><ele>333.3333333333333</ele><time>2026-04-25T08:58:28.986Z</time></trkpt><trkpt lat="43.40133" lon="12.848715"><ele>333.66666666666663</ele><time>2026-04-25T08:58:29.927Z</time></trkpt><trkpt lat="43.401145" lon="12.8487183"><ele>334.0</ele><time>2026-04-25T08:58:30.928Z</time></trkpt><trkpt lat="43.4009583" lon="12.8487167"><ele>334.0</ele><time>2026-04-25T08:58:31.933Z</time></trkpt><trkpt lat="43.40077" lon="12.8487167"><ele>334.0</ele><time>2026-04-25T08:58:32.93Z</time></trkpt><trkpt lat="43.40058" lon="12.848715"><ele>334.0</ele><time>2026-04-25T08:58:33.931Z</time></trkpt><trkpt lat="43.400385" lon="12.8487183"><ele>336.0</ele><time>2026-04-25T08:58:34.978Z</time></trkpt><trkpt lat="43.400195" lon="12.84872"><ele>338.0</ele><time>2026-04-25T08:58:35.926Z</time></trkpt><trkpt lat="43.400005" lon="12.8487183"><ele>340.0</ele><time>2026-04-25T08:58:36.93Z</time></trkpt><trkpt lat="43.399815" lon="12.8487217"><ele>339.66666666666663</ele><time>2026-04-25T08:58:37.932Z</time></trkpt><trkpt lat="43.3996267" lon="12.8487283"><ele>339.3333333333333</ele><time>2026-04-25T08:58:38.934Z</time></trkpt><trkpt lat="43.3994367" lon="12.84873"><ele>339.0</ele><time>2026-04-25T08:58:39.937Z</time></trkpt><trkpt lat="43.3992483" lon="12.8487333"><ele>339.0</ele><time>2026-04-25T08:58:40.98Z</time></trkpt><trkpt lat="43.3990583" lon="12.8487333"><ele>339.0</ele><time>2026-04-25T08:58:41.924Z</time></trkpt><trkpt lat="43.3988683" lon="12.8487333"><ele>339.0</ele><time>2026-04-25T08:58:42.933Z</time></trkpt><trkpt lat="43.3986833" lon="12.8487317"><ele>338.3333333333333</ele><time>2026-04-25T08:58:43.933Z</time></trkpt><trkpt lat="43.3985017" lon="12.8487267"><ele>337.66666666666663</ele><time>2026-04-25T08:58:44.932Z</time></trkpt><trkpt lat="43.3983217" lon="12.8487167"><ele>337.0</ele><time>2026-04-25T08:58:45.931Z</time></trkpt><trkpt lat="43.3981417" lon="12.84869"><ele>334.66666666666663</ele><time>2026-04-25T08:58:46.975Z</time></trkpt><trkpt lat="43.3979633" lon="12.8486433"><ele>332.3333333333333</ele><time>2026-04-25T08:58:47.927Z</time></trkpt><trkpt lat="43.3977917" lon="12.8485717"><ele>330.0</ele><time>2026-04-25T08:58:48.931Z</time></trkpt><trkpt lat="43.39762" lon="12.84849"><ele>330.6666666666667</ele><time>2026-04-25T08:58:49.929Z</time></trkpt><trkpt lat="43.3974517" lon="12.8483983"><ele>331.33333333333337</ele><time>2026-04-25T08:58:50.931Z</time></trkpt><trkpt lat="43.397285" lon="12.8482983"><ele>332.0</ele><time>2026-04-25T08:58:51.931Z</time></trkpt><trkpt lat="43.3971133" lon="12.8482017"><ele>332.0</ele><time>2026-04-25T08:58:52.997Z</time></trkpt><trkpt lat="43.3969417" lon="12.8481133"><ele>332.0</ele><time>2026-04-25T08:58:53.932Z</time></trkpt><trkpt lat="43.3967717" lon="12.848025"><ele>332.0</ele><time>2026-04-25T08:58:54.931Z</time></trkpt><trkpt lat="43.3966017" lon="12.8479367"><ele>332.0</ele><time>2026-04-25T08:58:55.932Z</time></trkpt><trkpt lat="43.396435" lon="12.847845"><ele>332.0</ele><time>2026-04-25T08:58:56.931Z</time></trkpt><trkpt lat="43.3962633" lon="12.847755"><ele>332.0</ele><time>2026-04-25T08:58:57.93Z</time></trkpt><trkpt lat="43.3960933" lon="12.8476617"><ele>335.6666666666667</ele><time>2026-04-25T08:58:58.996Z</time></trkpt><trkpt lat="43.3959217" lon="12.8475683"><ele>339.3333333333333</ele><time>2026-04-25T08:58:59.932Z</time></trkpt><trkpt lat="43.395755" lon="12.8474767"><ele>343.0</ele><time>2026-04-25T08:59:00.933Z</time></trkpt><trkpt lat="43.3955883" lon="12.8473883"><ele>344.0</ele><time>2026-04-25T08:59:01.948Z</time></trkpt><trkpt lat="43.39542" lon="12.8473033"><ele>345.0</ele><time>2026-04-25T08:59:02.931Z</time></trkpt><trkpt lat="43.3952517" lon="12.847215"><ele>346.0</ele><time>2026-04-25T08:59:03.935Z</time></trkpt><trkpt lat="43.3950817" lon="12.8471233"><ele>346.0</ele><time>2026-04-25T08:59:04.979Z</time></trkpt><trkpt lat="43.39491" lon="12.8470317"><ele>346.0</ele><time>2026-04-25T08:59:05.934Z</time></trkpt><trkpt lat="43.3947367" lon="12.8469383"><ele>346.0</ele><time>2026-04-25T08:59:06.936Z</time></trkpt><trkpt lat="43.3945617" lon="12.846845"><ele>347.3333333333333</ele><time>2026-04-25T08:59:07.933Z</time></trkpt><trkpt lat="43.3943833" lon="12.846755"><ele>348.6666666666667</ele><time>2026-04-25T08:59:08.933Z</time></trkpt><trkpt lat="43.3942067" lon="12.846665"><ele>350.0</ele><time>2026-04-25T08:59:09.934Z</time></trkpt><trkpt lat="43.39403" lon="12.846575"><ele>350.0</ele><time>2026-04-25T08:59:10.98Z</time></trkpt><trkpt lat="43.3938517" lon="12.8464883"><ele>350.0</ele><time>2026-04-25T08:59:11.933Z</time></trkpt><trkpt lat="43.3936733" lon="12.8464033"><ele>350.0</ele><time>2026-04-25T08:59:12.934Z</time></trkpt><trkpt lat="43.393495" lon="12.8463133"><ele>351.33333333333337</ele><time>2026-04-25T08:59:13.927Z</time></trkpt><trkpt lat="43.3933167" lon="12.846225"><ele>352.6666666666667</ele><time>2026-04-25T08:59:14.932Z</time></trkpt><trkpt lat="43.3931383" lon="12.8461317"><ele>354.0</ele><time>2026-04-25T08:59:15.929Z</time></trkpt><trkpt lat="43.3929633" lon="12.846035"><ele>355.3333333333333</ele><time>2026-04-25T08:59:16.979Z</time></trkpt><trkpt lat="43.3927867" lon="12.84594"><ele>356.66666666666663</ele><time>2026-04-25T08:59:17.929Z</time></trkpt><trkpt lat="43.3926083" lon="12.8458467"><ele>358.0</ele><time>2026-04-25T08:59:18.934Z</time></trkpt><trkpt lat="43.392435" lon="12.8457517"><ele>358.0</ele><time>2026-04-25T08:59:19.931Z</time></trkpt><trkpt lat="43.39226" lon="12.8456583"><ele>358.0</ele><time>2026-04-25T08:59:20.932Z</time></trkpt><trkpt lat="43.3920833" lon="12.8455633"><ele>358.0</ele><time>2026-04-25T08:59:21.929Z</time></trkpt><trkpt lat="43.3919017" lon="12.8454667"><ele>358.0</ele><time>2026-04-25T08:59:22.992Z</time></trkpt><trkpt lat="43.3917233" lon="12.84537"><ele>358.0</ele><time>2026-04-25T08:59:23.931Z</time></trkpt><trkpt lat="43.39154" lon="12.845275"><ele>358.0</ele><time>2026-04-25T08:59:24.932Z</time></trkpt><trkpt lat="43.3913567" lon="12.8451783"><ele>358.66666666666663</ele><time>2026-04-25T08:59:25.939Z</time></trkpt><trkpt lat="43.3911717" lon="12.8450817"><ele>359.3333333333333</ele><time>2026-04-25T08:59:26.931Z</time></trkpt><trkpt lat="43.3909883" lon="12.8449883"><ele>360.0</ele><time>2026-04-25T08:59:27.926Z</time></trkpt><trkpt lat="43.3908067" lon="12.8448933"><ele>360.0</ele><time>2026-04-25T08:59:28.985Z</time></trkpt><trkpt lat="43.3906217" lon="12.8448017"><ele>360.0</ele><time>2026-04-25T08:59:29.928Z</time></trkpt><trkpt lat="43.3904383" lon="12.84471"><ele>360.0</ele><time>2026-04-25T08:59:30.933Z</time></trkpt><trkpt lat="43.3902583" lon="12.8446167"><ele>359.6666666666667</ele><time>2026-04-25T08:59:31.925Z</time></trkpt><trkpt lat="43.3900817" lon="12.8445267"><ele>359.33333333333337</ele><time>2026-04-25T08:59:32.93Z</time></trkpt><trkpt lat="43.389905" lon="12.844435"><ele>359.0</ele><time>2026-04-25T08:59:33.932Z</time></trkpt><trkpt lat="43.3897333" lon="12.84434"><ele>359.33333333333337</ele><time>2026-04-25T08:59:34.988Z</time></trkpt><trkpt lat="43.38956" lon="12.844255"><ele>359.6666666666667</ele><time>2026-04-25T08:59:35.932Z</time></trkpt><trkpt lat="43.3893867" lon="12.8441733"><ele>360.0</ele><time>2026-04-25T08:59:36.942Z</time></trkpt><trkpt lat="43.3892117" lon="12.8440883"><ele>360.0</ele><time>2026-04-25T08:59:37.926Z</time></trkpt><trkpt lat="43.38904" lon="12.843995"><ele>360.0</ele><time>2026-04-25T08:59:38.922Z</time></trkpt><trkpt lat="43.38887" lon="12.8439033"><ele>360.0</ele><time>2026-04-25T08:59:39.926Z</time></trkpt><trkpt lat="43.3886983" lon="12.84381"><ele>360.0</ele><time>2026-04-25T08:59:40.975Z</time></trkpt><trkpt lat="43.38852" lon="12.8437167"><ele>360.0</ele><time>2026-04-25T08:59:41.928Z</time></trkpt><trkpt lat="43.3883417" lon="12.8436317"><ele>360.0</ele><time>2026-04-25T08:59:42.929Z</time></trkpt><trkpt lat="43.3881667" lon="12.8435483"><ele>361.0</ele><time>2026-04-25T08:59:43.924Z</time></trkpt><trkpt lat="43.3879933" lon="12.8434617"><ele>362.0</ele><time>2026-04-25T08:59:44.925Z</time></trkpt><trkpt lat="43.3878067" lon="12.8433667"><ele>363.0</ele><time>2026-04-25T08:59:45.92Z</time></trkpt><trkpt lat="43.3876233" lon="12.84327"><ele>363.0</ele><time>2026-04-25T08:59:46.97Z</time></trkpt><trkpt lat="43.3874417" lon="12.8431767"><ele>363.0</ele><time>2026-04-25T08:59:47.925Z</time></trkpt><trkpt lat="43.3872667" lon="12.8430817"><ele>363.0</ele><time>2026-04-25T08:59:48.923Z</time></trkpt><trkpt lat="43.387095" lon="12.842985"><ele>363.0</ele><time>2026-04-25T08:59:49.931Z</time></trkpt><trkpt lat="43.386925" lon="12.8428867"><ele>363.0</ele><time>2026-04-25T08:59:50.935Z</time></trkpt><trkpt lat="43.3867517" lon="12.8427917"><ele>363.0</ele><time>2026-04-25T08:59:51.931Z</time></trkpt><trkpt lat="43.38658" lon="12.8426983"><ele>366.0</ele><time>2026-04-25T08:59:52.99Z</time></trkpt><trkpt lat="43.386235" lon="12.8425233"><ele>369.0</ele><time>2026-04-25T08:59:54.933Z</time></trkpt><trkpt lat="43.3858967" lon="12.8423283"><ele>369.0</ele><time>2026-04-25T08:59:56.926Z</time></trkpt><trkpt lat="43.3857217" lon="12.84224"><ele>369.0</ele><time>2026-04-25T08:59:57.922Z</time></trkpt><trkpt lat="43.38555" lon="12.8421533"><ele>369.0</ele><time>2026-04-25T08:59:58.99Z</time></trkpt><trkpt lat="43.3853783" lon="12.84206"><ele>369.0</ele><time>2026-04-25T08:59:59.924Z</time></trkpt><trkpt lat="43.38521" lon="12.84196"><ele>369.0</ele><time>2026-04-25T09:00:00.93Z</time></trkpt><trkpt lat="43.3850433" lon="12.8418517"><ele>369.0</ele><time>2026-04-25T09:00:01.925Z</time></trkpt><trkpt lat="43.3848817" lon="12.8417317"><ele>369.3333333333333</ele><time>2026-04-25T09:00:02.928Z</time></trkpt><trkpt lat="43.3847183" lon="12.8416133"><ele>369.66666666666663</ele><time>2026-04-25T09:00:03.93Z</time></trkpt><trkpt lat="43.384555" lon="12.841485"><ele>370.0</ele><time>2026-04-25T09:00:04.977Z</time></trkpt><trkpt lat="43.3844017" lon="12.8413367"><ele>370.0</ele><time>2026-04-25T09:00:05.925Z</time></trkpt><trkpt lat="43.3842533" lon="12.8411767"><ele>370.0</ele><time>2026-04-25T09:00:06.931Z</time></trkpt><trkpt lat="43.3841033" lon="12.8410133"><ele>370.0</ele><time>2026-04-25T09:00:07.931Z</time></trkpt><trkpt lat="43.38395" lon="12.8408517"><ele>370.3333333333333</ele><time>2026-04-25T09:00:08.929Z</time></trkpt><trkpt lat="43.3838" lon="12.8406867"><ele>370.6666666666667</ele><time>2026-04-25T09:00:09.931Z</time></trkpt><trkpt lat="43.3836517" lon="12.8405233"><ele>371.0</ele><time>2026-04-25T09:00:10.976Z</time></trkpt><trkpt lat="43.3835" lon="12.8403617"><ele>371.0</ele><time>2026-04-25T09:00:11.93Z</time></trkpt><trkpt lat="43.3833617" lon="12.840195"><ele>371.0</ele><time>2026-04-25T09:00:12.929Z</time></trkpt><trkpt lat="43.38322" lon="12.840025"><ele>371.0</ele><time>2026-04-25T09:00:13.924Z</time></trkpt><trkpt lat="43.3830867" lon="12.8398483"><ele>371.33333333333337</ele><time>2026-04-25T09:00:14.932Z</time></trkpt><trkpt lat="43.38295" lon="12.8396733"><ele>371.6666666666667</ele><time>2026-04-25T09:00:15.929Z</time></trkpt><trkpt lat="43.3828033" lon="12.8395067"><ele>372.0</ele><time>2026-04-25T09:00:16.979Z</time></trkpt><trkpt lat="43.382655" lon="12.8393533"><ele>372.3333333333333</ele><time>2026-04-25T09:00:17.925Z</time></trkpt><trkpt lat="43.3825067" lon="12.8392067"><ele>372.66666666666663</ele><time>2026-04-25T09:00:18.931Z</time></trkpt><trkpt lat="43.382365" lon="12.839055"><ele>373.0</ele><time>2026-04-25T09:00:19.929Z</time></trkpt><trkpt lat="43.3822217" lon="12.8389083"><ele>372.66666666666663</ele><time>2026-04-25T09:00:20.929Z</time></trkpt><trkpt lat="43.3820767" lon="12.8387567"><ele>372.3333333333333</ele><time>2026-04-25T09:00:21.935Z</time></trkpt><trkpt lat="43.381935" lon="12.8385983"><ele>372.0</ele><time>2026-04-25T09:00:22.993Z</time></trkpt><trkpt lat="43.381795" lon="12.8384383"><ele>373.0</ele><time>2026-04-25T09:00:23.93Z</time></trkpt><trkpt lat="43.3816567" lon="12.8382817"><ele>374.0</ele><time>2026-04-25T09:00:24.927Z</time></trkpt><trkpt lat="43.3815183" lon="12.8381233"><ele>375.0</ele><time>2026-04-25T09:00:25.928Z</time></trkpt><trkpt lat="43.38138" lon="12.8379683"><ele>375.6666666666667</ele><time>2026-04-25T09:00:26.927Z</time></trkpt><trkpt lat="43.3812383" lon="12.83781"><ele>376.33333333333337</ele><time>2026-04-25T09:00:27.933Z</time></trkpt><trkpt lat="43.3811" lon="12.837645"><ele>377.0</ele><time>2026-04-25T09:00:28.99Z</time></trkpt><trkpt lat="43.3809533" lon="12.8374833"><ele>377.0</ele><time>2026-04-25T09:00:29.925Z</time></trkpt><trkpt lat="43.3808117" lon="12.8373183"><ele>377.0</ele><time>2026-04-25T09:00:30.935Z</time></trkpt><trkpt lat="43.3806717" lon="12.8371433"><ele>377.0</ele><time>2026-04-25T09:00:31.928Z</time></trkpt><trkpt lat="43.3805417" lon="12.83696"><ele>375.6666666666667</ele><time>2026-04-25T09:00:32.932Z</time></trkpt><trkpt lat="43.3804083" lon="12.8367733"><ele>374.3333333333333</ele><time>2026-04-25T09:00:33.934Z</time></trkpt><trkpt lat="43.3802833" lon="12.8365783"><ele>373.0</ele><time>2026-04-25T09:00:34.975Z</time></trkpt><trkpt lat="43.38016" lon="12.8363817"><ele>373.0</ele><time>2026-04-25T09:00:35.927Z</time></trkpt><trkpt lat="43.3800283" lon="12.83619"><ele>373.0</ele><time>2026-04-25T09:00:36.93Z</time></trkpt><trkpt lat="43.3798967" lon="12.8359967"><ele>373.0</ele><time>2026-04-25T09:00:37.929Z</time></trkpt><trkpt lat="43.379775" lon="12.8358033"><ele>372.3333333333333</ele><time>2026-04-25T09:00:38.933Z</time></trkpt><trkpt lat="43.3796533" lon="12.8356067"><ele>371.6666666666667</ele><time>2026-04-25T09:00:39.935Z</time></trkpt><trkpt lat="43.379535" lon="12.8354133"><ele>371.0</ele><time>2026-04-25T09:00:40.978Z</time></trkpt><trkpt lat="43.379415" lon="12.83522"><ele>372.6666666666667</ele><time>2026-04-25T09:00:41.931Z</time></trkpt><trkpt lat="43.3793" lon="12.8350267"><ele>374.3333333333333</ele><time>2026-04-25T09:00:42.935Z</time></trkpt><trkpt lat="43.3791833" lon="12.8348383"><ele>376.0</ele><time>2026-04-25T09:00:43.926Z</time></trkpt><trkpt lat="43.3790667" lon="12.83465"><ele>376.0</ele><time>2026-04-25T09:00:44.927Z</time></trkpt><trkpt lat="43.3789467" lon="12.834465"><ele>376.0</ele><time>2026-04-25T09:00:45.925Z</time></trkpt><trkpt lat="43.3788317" lon="12.83428"><ele>376.0</ele><time>2026-04-25T09:00:46.979Z</time></trkpt><trkpt lat="43.3787067" lon="12.834095"><ele>374.66666666666663</ele><time>2026-04-25T09:00:47.93Z</time></trkpt><trkpt lat="43.3785833" lon="12.8339067"><ele>373.3333333333333</ele><time>2026-04-25T09:00:48.928Z</time></trkpt><trkpt lat="43.378465" lon="12.8337167"><ele>372.0</ele><time>2026-04-25T09:00:49.934Z</time></trkpt><trkpt lat="43.3783533" lon="12.8335233"><ele>376.0</ele><time>2026-04-25T09:00:50.934Z</time></trkpt><trkpt lat="43.378245" lon="12.8333267"><ele>380.0</ele><time>2026-04-25T09:00:51.934Z</time></trkpt><trkpt lat="43.3781383" lon="12.833125"><ele>384.0</ele><time>2026-04-25T09:00:52.963Z</time></trkpt><trkpt lat="43.3780333" lon="12.8329267"><ele>384.0</ele><time>2026-04-25T09:00:53.93Z</time></trkpt><trkpt lat="43.3779267" lon="12.8327283"><ele>384.0</ele><time>2026-04-25T09:00:54.932Z</time></trkpt><trkpt lat="43.3778083" lon="12.8325367"><ele>384.0</ele><time>2026-04-25T09:00:55.926Z</time></trkpt><trkpt lat="43.3776783" lon="12.83236"><ele>383.0</ele><time>2026-04-25T09:00:56.942Z</time></trkpt><trkpt lat="43.3775433" lon="12.8321917"><ele>382.0</ele><time>2026-04-25T09:00:57.922Z</time></trkpt><trkpt lat="43.3773983" lon="12.83204"><ele>381.0</ele><time>2026-04-25T09:00:58.992Z</time></trkpt><trkpt lat="43.3772367" lon="12.8319033"><ele>382.66666666666663</ele><time>2026-04-25T09:00:59.928Z</time></trkpt><trkpt lat="43.377075" lon="12.8317883"><ele>384.3333333333333</ele><time>2026-04-25T09:01:00.926Z</time></trkpt><trkpt lat="43.3769067" lon="12.8317117"><ele>386.0</ele><time>2026-04-25T09:01:01.929Z</time></trkpt><trkpt lat="43.3767267" lon="12.8316583"><ele>386.0</ele><time>2026-04-25T09:01:02.929Z</time></trkpt><trkpt lat="43.3765417" lon="12.83162"><ele>386.0</ele><time>2026-04-25T09:01:03.929Z</time></trkpt><trkpt lat="43.3763583" lon="12.8315833"><ele>386.0</ele><time>2026-04-25T09:01:04.975Z</time></trkpt><trkpt lat="43.3761733" lon="12.8315417"><ele>386.0</ele><time>2026-04-25T09:01:05.928Z</time></trkpt><trkpt lat="43.3759883" lon="12.831505"><ele>386.0</ele><time>2026-04-25T09:01:06.932Z</time></trkpt><trkpt lat="43.3758083" lon="12.8314517"><ele>386.0</ele><time>2026-04-25T09:01:07.926Z</time></trkpt><trkpt lat="43.37563" lon="12.831385"><ele>386.0</ele><time>2026-04-25T09:01:08.929Z</time></trkpt><trkpt lat="43.3754567" lon="12.8313017"><ele>386.0</ele><time>2026-04-25T09:01:09.924Z</time></trkpt><trkpt lat="43.3752917" lon="12.8312067"><ele>386.0</ele><time>2026-04-25T09:01:10.977Z</time></trkpt><trkpt lat="43.3751383" lon="12.831105"><ele>388.3333333333333</ele><time>2026-04-25T09:01:11.92Z</time></trkpt><trkpt lat="43.375005" lon="12.83097"><ele>390.66666666666663</ele><time>2026-04-25T09:01:12.923Z</time></trkpt><trkpt lat="43.3748617" lon="12.8308233"><ele>393.0</ele><time>2026-04-25T09:01:13.918Z</time></trkpt><trkpt lat="43.374705" lon="12.8306717"><ele>390.66666666666663</ele><time>2026-04-25T09:01:14.93Z</time></trkpt><trkpt lat="43.3745517" lon="12.83052"><ele>388.3333333333333</ele><time>2026-04-25T09:01:15.928Z</time></trkpt><trkpt lat="43.3744017" lon="12.8303767"><ele>386.0</ele><time>2026-04-25T09:01:16.979Z</time></trkpt><trkpt lat="43.374265" lon="12.8302433"><ele>386.5</ele><time>2026-04-25T09:01:17.927Z</time></trkpt><trkpt lat="43.3741367" lon="12.8301167"><ele>387.0</ele><time>2026-04-25T09:01:18.932Z</time></trkpt><trkpt lat="43.3740233" lon="12.8299983"><ele>387.5</ele><time>2026-04-25T09:01:19.928Z</time></trkpt><trkpt lat="43.3739217" lon="12.8298917"><ele>388.0</ele><time>2026-04-25T09:01:20.931Z</time></trkpt><trkpt lat="43.3738217" lon="12.8297933"><ele>388.0</ele><time>2026-04-25T09:01:21.929Z</time></trkpt><trkpt lat="43.3737367" lon="12.829705"><ele>388.0</ele><time>2026-04-25T09:01:22.998Z</time></trkpt><trkpt lat="43.37366" lon="12.8296217"><ele>388.0</ele><time>2026-04-25T09:01:23.926Z</time></trkpt><trkpt lat="43.3735967" lon="12.8295467"><ele>388.0</ele><time>2026-04-25T09:01:24.925Z</time></trkpt><trkpt lat="43.37354" lon="12.8294733"><ele>388.0</ele><time>2026-04-25T09:01:25.925Z</time></trkpt><trkpt lat="43.3734767" lon="12.8293967"><ele>388.83333333333337</ele><time>2026-04-25T09:01:26.929Z</time></trkpt><trkpt lat="43.3734117" lon="12.8293017"><ele>389.6666666666667</ele><time>2026-04-25T09:01:27.926Z</time></trkpt><trkpt lat="43.3733417" lon="12.8292217"><ele>390.5</ele><time>2026-04-25T09:01:28.981Z</time></trkpt><trkpt lat="43.3732817" lon="12.8291483"><ele>391.33333333333337</ele><time>2026-04-25T09:01:29.932Z</time></trkpt><trkpt lat="43.37323" lon="12.8290783"><ele>392.1666666666667</ele><time>2026-04-25T09:01:30.924Z</time></trkpt><trkpt lat="43.373205" lon="12.82899"><ele>393.0</ele><time>2026-04-25T09:01:31.925Z</time></trkpt><trkpt lat="43.37318" lon="12.828885"><ele>393.0</ele><time>2026-04-25T09:01:32.928Z</time></trkpt><trkpt lat="43.3731467" lon="12.828765"><ele>393.0</ele><time>2026-04-25T09:01:33.933Z</time></trkpt><trkpt lat="43.3731133" lon="12.82863"><ele>393.0</ele><time>2026-04-25T09:01:34.983Z</time></trkpt><trkpt lat="43.373085" lon="12.828495"><ele>393.0</ele><time>2026-04-25T09:01:35.924Z</time></trkpt><trkpt lat="43.3730717" lon="12.828355"><ele>393.0</ele><time>2026-04-25T09:01:36.936Z</time></trkpt><trkpt lat="43.3730683" lon="12.8282033"><ele>396.25</ele><time>2026-04-25T09:01:37.927Z</time></trkpt><trkpt lat="43.3730817" lon="12.8280383"><ele>399.5</ele><time>2026-04-25T09:01:38.93Z</time></trkpt><trkpt lat="43.3731" lon="12.8278633"><ele>402.75</ele><time>2026-04-25T09:01:39.926Z</time></trkpt><trkpt lat="43.37312" lon="12.82769"><ele>406.0</ele><time>2026-04-25T09:01:40.978Z</time></trkpt><trkpt lat="43.373145" lon="12.8275133"><ele>406.25</ele><time>2026-04-25T09:01:41.93Z</time></trkpt><trkpt lat="43.3731717" lon="12.827345"><ele>406.5</ele><time>2026-04-25T09:01:42.933Z</time></trkpt><trkpt lat="43.3732033" lon="12.8271717"><ele>406.75</ele><time>2026-04-25T09:01:43.928Z</time></trkpt><trkpt lat="43.373225" lon="12.8270083"><ele>407.0</ele><time>2026-04-25T09:01:44.939Z</time></trkpt><trkpt lat="43.3732267" lon="12.826855"><ele>406.75</ele><time>2026-04-25T09:01:45.928Z</time></trkpt><trkpt lat="43.373195" lon="12.826705"><ele>406.5</ele><time>2026-04-25T09:01:46.979Z</time></trkpt><trkpt lat="43.3731583" lon="12.82654"><ele>406.25</ele><time>2026-04-25T09:01:47.934Z</time></trkpt><trkpt lat="43.3731183" lon="12.8263817"><ele>406.0</ele><time>2026-04-25T09:01:48.931Z</time></trkpt><trkpt lat="43.3730567" lon="12.8262267"><ele>405.5</ele><time>2026-04-25T09:01:49.927Z</time></trkpt><trkpt lat="43.3729867" lon="12.8260783"><ele>405.0</ele><time>2026-04-25T09:01:50.932Z</time></trkpt><trkpt lat="43.3729033" lon="12.8259417"><ele>404.5</ele><time>2026-04-25T09:01:51.931Z</time></trkpt><trkpt lat="43.37282" lon="12.8258017"><ele>404.0</ele><time>2026-04-25T09:01:52.992Z</time></trkpt><trkpt lat="43.3727367" lon="12.8256683"><ele>404.0</ele><time>2026-04-25T09:01:53.932Z</time></trkpt><trkpt lat="43.3726467" lon="12.82553"><ele>404.0</ele><time>2026-04-25T09:01:54.931Z</time></trkpt><trkpt lat="43.37257" lon="12.8253867"><ele>404.0</ele><time>2026-04-25T09:01:55.927Z</time></trkpt><trkpt lat="43.3724883" lon="12.8252683"><ele>404.0</ele><time>2026-04-25T09:01:56.935Z</time></trkpt><trkpt lat="43.3724283" lon="12.8251633"><ele>404.8333333333333</ele><time>2026-04-25T09:01:57.933Z</time></trkpt><trkpt lat="43.37238" lon="12.825075"><ele>405.66666666666663</ele><time>2026-04-25T09:01:58.984Z</time></trkpt><trkpt lat="43.372355" lon="12.8249733"><ele>406.5</ele><time>2026-04-25T09:01:59.93Z</time></trkpt><trkpt lat="43.37236" lon="12.8248633"><ele>407.33333333333337</ele><time>2026-04-25T09:02:00.927Z</time></trkpt><trkpt lat="43.3724067" lon="12.8247517"><ele>408.1666666666667</ele><time>2026-04-25T09:02:01.924Z</time></trkpt><trkpt lat="43.37246" lon="12.82464"><ele>409.0</ele><time>2026-04-25T09:02:02.931Z</time></trkpt><trkpt lat="43.3725167" lon="12.8245267"><ele>409.0</ele><time>2026-04-25T09:02:03.922Z</time></trkpt><trkpt lat="43.37258" lon="12.8244083"><ele>409.0</ele><time>2026-04-25T09:02:04.975Z</time></trkpt><trkpt lat="43.37265" lon="12.824305"><ele>409.0</ele><time>2026-04-25T09:02:05.925Z</time></trkpt><trkpt lat="43.372725" lon="12.824225"><ele>409.0</ele><time>2026-04-25T09:02:06.936Z</time></trkpt><trkpt lat="43.3728067" lon="12.824165"><ele>409.0</ele><time>2026-04-25T09:02:07.924Z</time></trkpt><trkpt lat="43.3729083" lon="12.8241233"><ele>410.5</ele><time>2026-04-25T09:02:08.932Z</time></trkpt><trkpt lat="43.372995" lon="12.824085"><ele>412.0</ele><time>2026-04-25T09:02:09.928Z</time></trkpt><trkpt lat="43.3731133" lon="12.8240583"><ele>413.5</ele><time>2026-04-25T09:02:10.975Z</time></trkpt><trkpt lat="43.37323" lon="12.8240283"><ele>415.0</ele><time>2026-04-25T09:02:11.92Z</time></trkpt><trkpt lat="43.37337" lon="12.8239933"><ele>415.25</ele><time>2026-04-25T09:02:12.935Z</time></trkpt><trkpt lat="43.3735017" lon="12.8239583"><ele>415.5</ele><time>2026-04-25T09:02:13.929Z</time></trkpt><trkpt lat="43.37363" lon="12.8239233"><ele>415.75</ele><time>2026-04-25T09:02:14.929Z</time></trkpt><trkpt lat="43.37376" lon="12.8239"><ele>416.0</ele><time>2026-04-25T09:02:15.929Z</time></trkpt><trkpt lat="43.37389" lon="12.8238767"><ele>417.75</ele><time>2026-04-25T09:02:16.971Z</time></trkpt><trkpt lat="43.374015" lon="12.8238533"><ele>419.5</ele><time>2026-04-25T09:02:17.928Z</time></trkpt><trkpt lat="43.3741333" lon="12.8238267"><ele>421.25</ele><time>2026-04-25T09:02:18.93Z</time></trkpt><trkpt lat="43.3742483" lon="12.8238083"><ele>423.0</ele><time>2026-04-25T09:02:19.93Z</time></trkpt><trkpt lat="43.3743667" lon="12.8238"><ele>423.0</ele><time>2026-04-25T09:02:20.934Z</time></trkpt><trkpt lat="43.3744833" lon="12.8237983"><ele>423.0</ele><time>2026-04-25T09:02:21.929Z</time></trkpt><trkpt lat="43.3745933" lon="12.823805"><ele>423.0</ele><time>2026-04-25T09:02:22.995Z</time></trkpt><trkpt lat="43.3746917" lon="12.8238317"><ele>423.0</ele><time>2026-04-25T09:02:23.928Z</time></trkpt><trkpt lat="43.37477" lon="12.8238867"><ele>423.0</ele><time>2026-04-25T09:02:24.933Z</time></trkpt><trkpt lat="43.374845" lon="12.8239583"><ele>424.79999999999995</ele><time>2026-04-25T09:02:25.923Z</time></trkpt><trkpt lat="43.3749233" lon="12.82403"><ele>426.6</ele><time>2026-04-25T09:02:26.929Z</time></trkpt><trkpt lat="43.375015" lon="12.8240867"><ele>428.40000000000003</ele><time>2026-04-25T09:02:27.93Z</time></trkpt><trkpt lat="43.375115" lon="12.8241267"><ele>430.20000000000005</ele><time>2026-04-25T09:02:28.993Z</time></trkpt><trkpt lat="43.3752167" lon="12.824135"><ele>432.0</ele><time>2026-04-25T09:02:29.931Z</time></trkpt><trkpt lat="43.3753283" lon="12.8241183"><ele>432.0</ele><time>2026-04-25T09:02:30.936Z</time></trkpt><trkpt lat="43.3754433" lon="12.8240767"><ele>432.00000000000006</ele><time>2026-04-25T09:02:31.921Z</time></trkpt><trkpt lat="43.375545" lon="12.8240283"><ele>432.00000000000006</ele><time>2026-04-25T09:02:32.932Z</time></trkpt><trkpt lat="43.3756383" lon="12.82397"><ele>432.0</ele><time>2026-04-25T09:02:33.931Z</time></trkpt><trkpt lat="43.375685" lon="12.8238967"><ele>432.0</ele><time>2026-04-25T09:02:34.974Z</time></trkpt><trkpt lat="43.3757117" lon="12.8238067"><ele>433.5</ele><time>2026-04-25T09:02:35.922Z</time></trkpt><trkpt lat="43.37568" lon="12.823725"><ele>435.0</ele><time>2026-04-25T09:02:36.93Z</time></trkpt><trkpt lat="43.37564" lon="12.8236383"><ele>436.5</ele><time>2026-04-25T09:02:37.929Z</time></trkpt><trkpt lat="43.3755983" lon="12.8235367"><ele>438.0</ele><time>2026-04-25T09:02:38.939Z</time></trkpt><trkpt lat="43.375575" lon="12.8234217"><ele>439.5</ele><time>2026-04-25T09:02:39.928Z</time></trkpt><trkpt lat="43.3755483" lon="12.8233083"><ele>441.0</ele><time>2026-04-25T09:02:40.981Z</time></trkpt><trkpt lat="43.37556" lon="12.8231983"><ele>443.5</ele><time>2026-04-25T09:02:41.928Z</time></trkpt><trkpt lat="43.375595" lon="12.823095"><ele>446.0</ele><time>2026-04-25T09:02:42.926Z</time></trkpt><trkpt lat="43.3756583" lon="12.8230517"><ele>448.5</ele><time>2026-04-25T09:02:43.931Z</time></trkpt><trkpt lat="43.3757267" lon="12.8230267"><ele>451.0</ele><time>2026-04-25T09:02:44.928Z</time></trkpt><trkpt lat="43.3758033" lon="12.82303"><ele>453.5</ele><time>2026-04-25T09:02:45.928Z</time></trkpt><trkpt lat="43.3758817" lon="12.82304"><ele>456.0</ele><time>2026-04-25T09:02:46.977Z</time></trkpt><trkpt lat="43.3759667" lon="12.823045"><ele>456.0</ele><time>2026-04-25T09:02:47.925Z</time></trkpt><trkpt lat="43.3760367" lon="12.8230433"><ele>456.0</ele><time>2026-04-25T09:02:48.931Z</time></trkpt><trkpt lat="43.3761117" lon="12.82302"><ele>456.0</ele><time>2026-04-25T09:02:49.931Z</time></trkpt><trkpt lat="43.3761983" lon="12.82296"><ele>456.0</ele><time>2026-04-25T09:02:50.928Z</time></trkpt><trkpt lat="43.3762917" lon="12.8229217"><ele>456.0</ele><time>2026-04-25T09:02:51.935Z</time></trkpt><trkpt lat="43.3763867" lon="12.8228883"><ele>456.0</ele><time>2026-04-25T09:02:53Z</time></trkpt><trkpt lat="43.3764767" lon="12.82284"><ele>458.4</ele><time>2026-04-25T09:02:53.924Z</time></trkpt><trkpt lat="43.3765617" lon="12.82279"><ele>460.8</ele><time>2026-04-25T09:02:54.932Z</time></trkpt><trkpt lat="43.3766467" lon="12.8227417"><ele>463.19999999999993</ele><time>2026-04-25T09:02:55.928Z</time></trkpt><trkpt lat="43.3767333" lon="12.8226783"><ele>465.59999999999997</ele><time>2026-04-25T09:02:56.929Z</time></trkpt><trkpt lat="43.3768217" lon="12.822625"><ele>468.0</ele><time>2026-04-25T09:02:57.931Z</time></trkpt><trkpt lat="43.376905" lon="12.8225767"><ele>470.4</ele><time>2026-04-25T09:02:58.981Z</time></trkpt><trkpt lat="43.3769817" lon="12.8225367"><ele>472.79999999999995</ele><time>2026-04-25T09:02:59.924Z</time></trkpt><trkpt lat="43.3770517" lon="12.8224883"><ele>475.2</ele><time>2026-04-25T09:03:01.926Z</time></trkpt><trkpt lat="43.3770933" lon="12.82239"><ele>477.6</ele><time>2026-04-25T09:03:03.933Z</time></trkpt><trkpt lat="43.3769967" lon="12.822275"><ele>480.0</ele><time>2026-04-25T09:03:05.924Z</time></trkpt><trkpt lat="43.3769333" lon="12.8222"><ele>480.0</ele><time>2026-04-25T09:03:06.925Z</time></trkpt><trkpt lat="43.37686" lon="12.8221117"><ele>480.0</ele><time>2026-04-25T09:03:07.925Z</time></trkpt><trkpt lat="43.37679" lon="12.8220217"><ele>480.0</ele><time>2026-04-25T09:03:08.929Z</time></trkpt><trkpt lat="43.3767217" lon="12.821945"><ele>480.0</ele><time>2026-04-25T09:03:09.929Z</time></trkpt><trkpt lat="43.376655" lon="12.821885"><ele>480.0</ele><time>2026-04-25T09:03:10.974Z</time></trkpt><trkpt lat="43.3765833" lon="12.82184"><ele>480.0</ele><time>2026-04-25T09:03:11.929Z</time></trkpt><trkpt lat="43.376525" lon="12.8217917"><ele>481.3333333333333</ele><time>2026-04-25T09:03:12.93Z</time></trkpt><trkpt lat="43.3764733" lon="12.8217417"><ele>482.66666666666663</ele><time>2026-04-25T09:03:13.926Z</time></trkpt><trkpt lat="43.3763717" lon="12.8216517"><ele>484.0</ele><time>2026-04-25T09:03:15.93Z</time></trkpt><trkpt lat="43.3763067" lon="12.8216117"><ele>485.3333333333333</ele><time>2026-04-25T09:03:16.981Z</time></trkpt><trkpt lat="43.3762367" lon="12.821575"><ele>486.66666666666663</ele><time>2026-04-25T09:03:17.926Z</time></trkpt><trkpt lat="43.376155" lon="12.8215367"><ele>488.0</ele><time>2026-04-25T09:03:18.925Z</time></trkpt><trkpt lat="43.37607" lon="12.8214933"><ele>487.99999999999994</ele><time>2026-04-25T09:03:19.928Z</time></trkpt><trkpt lat="43.3759833" lon="12.821455"><ele>488.0</ele><time>2026-04-25T09:03:20.929Z</time></trkpt><trkpt lat="43.375895" lon="12.82143"><ele>488.0</ele><time>2026-04-25T09:03:21.929Z</time></trkpt><trkpt lat="43.3758117" lon="12.8214033"><ele>488.0</ele><time>2026-04-25T09:03:22.961Z</time></trkpt><trkpt lat="43.3757233" lon="12.8213833"><ele>487.99999999999994</ele><time>2026-04-25T09:03:23.927Z</time></trkpt><trkpt lat="43.3756433" lon="12.8213617"><ele>488.0</ele><time>2026-04-25T09:03:24.932Z</time></trkpt><trkpt lat="43.3755717" lon="12.8213333"><ele>485.99999999999994</ele><time>2026-04-25T09:03:25.93Z</time></trkpt><trkpt lat="43.375445" lon="12.8213017"><ele>484.0</ele><time>2026-04-25T09:03:27.933Z</time></trkpt><trkpt lat="43.375375" lon="12.821285"><ele>482.0</ele><time>2026-04-25T09:03:28.985Z</time></trkpt><trkpt lat="43.3753167" lon="12.821245"><ele>480.0</ele><time>2026-04-25T09:03:29.935Z</time></trkpt><trkpt lat="43.375265" lon="12.82118"><ele>477.99999999999994</ele><time>2026-04-25T09:03:30.931Z</time></trkpt><trkpt lat="43.3752183" lon="12.8211083"><ele>476.0</ele><time>2026-04-25T09:03:31.934Z</time></trkpt><trkpt lat="43.3751683" lon="12.8210467"><ele>481.20000000000005</ele><time>2026-04-25T09:03:32.93Z</time></trkpt><trkpt lat="43.375075" lon="12.8209383"><ele>486.40000000000003</ele><time>2026-04-25T09:03:34.98Z</time></trkpt><trkpt lat="43.3749867" lon="12.8208233"><ele>491.6</ele><time>2026-04-25T09:03:36.93Z</time></trkpt><trkpt lat="43.3748867" lon="12.8207183"><ele>496.8</ele><time>2026-04-25T09:03:38.928Z</time></trkpt><trkpt lat="43.3748317" lon="12.8206583"><ele>502.0</ele><time>2026-04-25T09:03:39.927Z</time></trkpt><trkpt lat="43.3747867" lon="12.820585"><ele>502.0</ele><time>2026-04-25T09:03:40.982Z</time></trkpt><trkpt lat="43.3747467" lon="12.820515"><ele>502.00000000000006</ele><time>2026-04-25T09:03:41.924Z</time></trkpt><trkpt lat="43.3746933" lon="12.8203817"><ele>502.00000000000006</ele><time>2026-04-25T09:03:43.93Z</time></trkpt><trkpt lat="43.37462" lon="12.820205"><ele>502.0</ele><time>2026-04-25T09:04:10.982Z</time></trkpt><trkpt lat="43.37459" lon="12.8201267"><ele>502.0</ele><time>2026-04-25T09:04:11.926Z</time></trkpt><trkpt lat="43.37457" lon="12.82003"><ele>502.1666666666667</ele><time>2026-04-25T09:04:12.927Z</time></trkpt><trkpt lat="43.37455" lon="12.8199267"><ele>502.33333333333337</ele><time>2026-04-25T09:04:13.933Z</time></trkpt><trkpt lat="43.3745283" lon="12.819835"><ele>502.5</ele><time>2026-04-25T09:04:14.927Z</time></trkpt><trkpt lat="43.3745117" lon="12.8197267"><ele>502.66666666666663</ele><time>2026-04-25T09:04:15.93Z</time></trkpt><trkpt lat="43.3744817" lon="12.8196233"><ele>502.8333333333333</ele><time>2026-04-25T09:04:16.977Z</time></trkpt><trkpt lat="43.3744467" lon="12.8195217"><ele>503.0</ele><time>2026-04-25T09:04:17.928Z</time></trkpt><trkpt lat="43.3744117" lon="12.8194283"><ele>502.99999999999994</ele><time>2026-04-25T09:04:18.932Z</time></trkpt><trkpt lat="43.3743967" lon="12.8193267"><ele>503.0</ele><time>2026-04-25T09:04:19.93Z</time></trkpt><trkpt lat="43.3744" lon="12.8192333"><ele>503.0</ele><time>2026-04-25T09:04:20.931Z</time></trkpt><trkpt lat="43.3743683" lon="12.819125"><ele>503.0</ele><time>2026-04-25T09:04:23Z</time></trkpt><trkpt lat="43.3743467" lon="12.81902"><ele>502.99999999999994</ele><time>2026-04-25T09:04:24.934Z</time></trkpt><trkpt lat="43.3744" lon="12.818955"><ele>503.0</ele><time>2026-04-25T09:04:26.938Z</time></trkpt><trkpt lat="43.3744533" lon="12.8188717"><ele>503.49999999999994</ele><time>2026-04-25T09:04:28.982Z</time></trkpt><trkpt lat="43.3745217" lon="12.8187483"><ele>504.0</ele><time>2026-04-25T09:04:30.932Z</time></trkpt><trkpt lat="43.3745683" lon="12.81866"><ele>504.5</ele><time>2026-04-25T09:04:31.934Z</time></trkpt><trkpt lat="43.3746233" lon="12.8185733"><ele>505.0</ele><time>2026-04-25T09:04:32.928Z</time></trkpt><trkpt lat="43.3746711" lon="12.818487"><ele>505.49999999999994</ele><time>2026-04-25T09:04:33.919Z</time></trkpt><trkpt lat="43.3747153" lon="12.8183986"><ele>506.0</ele><time>2026-04-25T09:04:34.976Z</time></trkpt><trkpt lat="43.3747589" lon="12.8183069"><ele>508.49999999999994</ele><time>2026-04-25T09:04:35.921Z</time></trkpt><trkpt lat="43.3748143" lon="12.8182243"><ele>511.0</ele><time>2026-04-25T09:04:36.936Z</time></trkpt><trkpt lat="43.3748697" lon="12.8181412"><ele>513.5</ele><time>2026-04-25T09:04:37.932Z</time></trkpt><trkpt lat="43.3749255" lon="12.8180666"><ele>516.0</ele><time>2026-04-25T09:04:38.931Z</time></trkpt><trkpt lat="43.3749825" lon="12.8179972"><ele>518.5</ele><time>2026-04-25T09:04:39.935Z</time></trkpt><trkpt lat="43.3750499" lon="12.8179321"><ele>521.0</ele><time>2026-04-25T09:04:40.98Z</time></trkpt><trkpt lat="43.3751211" lon="12.8178811"><ele>521.0</ele><time>2026-04-25T09:04:41.935Z</time></trkpt><trkpt lat="43.3751907" lon="12.81782"><ele>521.0</ele><time>2026-04-25T09:04:42.931Z</time></trkpt><trkpt lat="43.375255" lon="12.8177498"><ele>521.0</ele><time>2026-04-25T09:04:43.93Z</time></trkpt><trkpt lat="43.3753122" lon="12.8176759"><ele>521.0</ele><time>2026-04-25T09:04:44.932Z</time></trkpt><trkpt lat="43.3753628" lon="12.8176034"><ele>521.0</ele><time>2026-04-25T09:04:45.932Z</time></trkpt><trkpt lat="43.37541" lon="12.8175342"><ele>521.0</ele><time>2026-04-25T09:04:46.975Z</time></trkpt><trkpt lat="43.3754489" lon="12.8174548"><ele>518.1666666666666</ele><time>2026-04-25T09:04:47.928Z</time></trkpt><trkpt lat="43.3754911" lon="12.8173687"><ele>515.3333333333333</ele><time>2026-04-25T09:04:48.937Z</time></trkpt><trkpt lat="43.3755376" lon="12.8172868"><ele>512.5</ele><time>2026-04-25T09:04:49.928Z</time></trkpt><trkpt lat="43.3755961" lon="12.8172107"><ele>509.66666666666663</ele><time>2026-04-25T09:04:50.933Z</time></trkpt><trkpt lat="43.3756623" lon="12.8171396"><ele>506.8333333333333</ele><time>2026-04-25T09:04:51.93Z</time></trkpt><trkpt lat="43.3757213" lon="12.8170609"><ele>504.0</ele><time>2026-04-25T09:04:53Z</time></trkpt><trkpt lat="43.3757763" lon="12.8169825"><ele>508.0</ele><time>2026-04-25T09:04:53.929Z</time></trkpt><trkpt lat="43.3758245" lon="12.8168951"><ele>512.0</ele><time>2026-04-25T09:04:54.933Z</time></trkpt><trkpt lat="43.3758748" lon="12.8168199"><ele>516.0</ele><time>2026-04-25T09:04:55.929Z</time></trkpt><trkpt lat="43.3759311" lon="12.8167352"><ele>520.0</ele><time>2026-04-25T09:04:56.927Z</time></trkpt><trkpt lat="43.3759852" lon="12.8166549"><ele>524.0</ele><time>2026-04-25T09:04:57.931Z</time></trkpt><trkpt lat="43.3760366" lon="12.8165681"><ele>528.0</ele><time>2026-04-25T09:04:58.984Z</time></trkpt><trkpt lat="43.3760878" lon="12.816481"><ele>528.0</ele><time>2026-04-25T09:04:59.925Z</time></trkpt><trkpt lat="43.3761362" lon="12.8163863"><ele>528.0</ele><time>2026-04-25T09:05:00.925Z</time></trkpt><trkpt lat="43.3761869" lon="12.8163009"><ele>528.0</ele><time>2026-04-25T09:05:01.932Z</time></trkpt><trkpt lat="43.3762336" lon="12.8162178"><ele>528.0</ele><time>2026-04-25T09:05:02.932Z</time></trkpt><trkpt lat="43.3762801" lon="12.8161277"><ele>528.0</ele><time>2026-04-25T09:05:03.925Z</time></trkpt><trkpt lat="43.3763248" lon="12.8160428"><ele>528.0</ele><time>2026-04-25T09:05:04.98Z</time></trkpt><trkpt lat="43.3763643" lon="12.8159663"><ele>533.3333333333334</ele><time>2026-04-25T09:05:05.926Z</time></trkpt><trkpt lat="43.3764031" lon="12.8158885"><ele>538.6666666666666</ele><time>2026-04-25T09:05:06.931Z</time></trkpt><trkpt lat="43.3764432" lon="12.815801"><ele>544.0</ele><time>2026-04-25T09:05:07.925Z</time></trkpt><trkpt lat="43.3764776" lon="12.8157204"><ele>549.3333333333333</ele><time>2026-04-25T09:05:08.925Z</time></trkpt><trkpt lat="43.3765105" lon="12.8156281"><ele>554.6666666666666</ele><time>2026-04-25T09:05:09.927Z</time></trkpt><trkpt lat="43.3765375" lon="12.8155386"><ele>560.0</ele><time>2026-04-25T09:05:10.979Z</time></trkpt><trkpt lat="43.3765898" lon="12.8153895"><ele>560.0</ele><time>2026-04-25T09:05:12.929Z</time></trkpt><trkpt lat="43.3766597" lon="12.8152703"><ele>560.0</ele><time>2026-04-25T09:05:14.936Z</time></trkpt><trkpt lat="43.3767379" lon="12.8151555"><ele>560.0</ele><time>2026-04-25T09:05:16.973Z</time></trkpt><trkpt lat="43.3767906" lon="12.8150344"><ele>560.0</ele><time>2026-04-25T09:05:18.929Z</time></trkpt><trkpt lat="43.3768459" lon="12.8148824"><ele>557.3333333333333</ele><time>2026-04-25T09:05:20.924Z</time></trkpt><trkpt lat="43.3768814" lon="12.8148081"><ele>554.6666666666666</ele><time>2026-04-25T09:05:21.929Z</time></trkpt><trkpt lat="43.3769248" lon="12.8147305"><ele>552.0</ele><time>2026-04-25T09:05:22.994Z</time></trkpt><trkpt lat="43.376966" lon="12.8146507"><ele>549.3333333333334</ele><time>2026-04-25T09:05:23.93Z</time></trkpt><trkpt lat="43.3770147" lon="12.8145557"><ele>546.6666666666667</ele><time>2026-04-25T09:05:24.928Z</time></trkpt><trkpt lat="43.3770598" lon="12.8144584"><ele>544.0</ele><time>2026-04-25T09:05:25.924Z</time></trkpt><trkpt lat="43.3771052" lon="12.8143716"><ele>541.1666666666667</ele><time>2026-04-25T09:05:26.93Z</time></trkpt><trkpt lat="43.3771467" lon="12.8142883"><ele>538.3333333333334</ele><time>2026-04-25T09:05:27.926Z</time></trkpt><trkpt lat="43.3772233" lon="12.814205"><ele>535.5</ele><time>2026-04-25T09:05:29.928Z</time></trkpt><trkpt lat="43.3773016" lon="12.8141136"><ele>532.6666666666666</ele><time>2026-04-25T09:05:31.923Z</time></trkpt><trkpt lat="43.3773877" lon="12.8140665"><ele>529.8333333333333</ele><time>2026-04-25T09:05:33.924Z</time></trkpt><trkpt lat="43.3774467" lon="12.814105"><ele>527.0</ele><time>2026-04-25T09:05:37.928Z</time></trkpt><trkpt lat="43.3775583" lon="12.814015"><ele>534.2</ele><time>2026-04-25T09:05:47.926Z</time></trkpt><trkpt lat="43.3776367" lon="12.81399"><ele>541.4000000000001</ele><time>2026-04-25T09:05:49.924Z</time></trkpt><trkpt lat="43.3777433" lon="12.8139783"><ele>548.5999999999999</ele><time>2026-04-25T09:05:51.934Z</time></trkpt><trkpt lat="43.3778867" lon="12.81395"><ele>555.8</ele><time>2026-04-25T09:05:53.926Z</time></trkpt><trkpt lat="43.3779583" lon="12.8139117"><ele>563.0</ele><time>2026-04-25T09:05:54.932Z</time></trkpt><trkpt lat="43.3780567" lon="12.8138517"><ele>564.3333333333333</ele><time>2026-04-25T09:05:56.931Z</time></trkpt><trkpt lat="43.3781333" lon="12.813825"><ele>565.6666666666666</ele><time>2026-04-25T09:06:00.928Z</time></trkpt><trkpt lat="43.3782133" lon="12.8137883"><ele>567.0</ele><time>2026-04-25T09:06:04.972Z</time></trkpt><trkpt lat="43.378275" lon="12.81375"><ele>568.3333333333334</ele><time>2026-04-25T09:06:06.927Z</time></trkpt><trkpt lat="43.378335" lon="12.8136917"><ele>569.6666666666667</ele><time>2026-04-25T09:06:08.931Z</time></trkpt><trkpt lat="43.378415" lon="12.8136467"><ele>571.0</ele><time>2026-04-25T09:06:10.973Z</time></trkpt><trkpt lat="43.3785017" lon="12.8136483"><ele>571.0</ele><time>2026-04-25T09:06:12.929Z</time></trkpt><trkpt lat="43.3785867" lon="12.81363"><ele>571.0</ele><time>2026-04-25T09:06:14.949Z</time></trkpt><trkpt lat="43.378715" lon="12.8136383"><ele>571.0</ele><time>2026-04-25T09:06:16.977Z</time></trkpt><trkpt lat="43.3789" lon="12.8135983"><ele>571.0</ele><time>2026-04-25T09:06:18.937Z</time></trkpt><trkpt lat="43.379005" lon="12.8135767"><ele>573.0</ele><time>2026-04-25T09:06:19.932Z</time></trkpt><trkpt lat="43.3791117" lon="12.8135683"><ele>575.0</ele><time>2026-04-25T09:06:20.928Z</time></trkpt><trkpt lat="43.37922" lon="12.8135633"><ele>577.0</ele><time>2026-04-25T09:06:21.931Z</time></trkpt><trkpt lat="43.3793217" lon="12.81356"><ele>579.0</ele><time>2026-04-25T09:06:22.992Z</time></trkpt><trkpt lat="43.3794" lon="12.81355"><ele>581.0</ele><time>2026-04-25T09:06:23.917Z</time></trkpt><trkpt lat="43.3794867" lon="12.813545"><ele>581.0</ele><time>2026-04-25T09:06:24.934Z</time></trkpt><trkpt lat="43.3795617" lon="12.8135383"><ele>581.0</ele><time>2026-04-25T09:06:25.931Z</time></trkpt><trkpt lat="43.3796483" lon="12.8135117"><ele>581.0</ele><time>2026-04-25T09:06:26.925Z</time></trkpt><trkpt lat="43.3797367" lon="12.8134667"><ele>581.0</ele><time>2026-04-25T09:06:27.928Z</time></trkpt><trkpt lat="43.3798017" lon="12.813415"><ele>581.0</ele><time>2026-04-25T09:06:28.98Z</time></trkpt><trkpt lat="43.3798533" lon="12.8133633"><ele>581.0</ele><time>2026-04-25T09:06:29.925Z</time></trkpt><trkpt lat="43.3799217" lon="12.8132517"><ele>584.5</ele><time>2026-04-25T09:06:31.929Z</time></trkpt><trkpt lat="43.3799767" lon="12.813145"><ele>588.0</ele><time>2026-04-25T09:06:33.927Z</time></trkpt><trkpt lat="43.3800417" lon="12.8129967"><ele>591.5</ele><time>2026-04-25T09:06:35.925Z</time></trkpt><trkpt lat="43.3800667" lon="12.8129"><ele>595.0</ele><time>2026-04-25T09:06:36.927Z</time></trkpt><trkpt lat="43.38009" lon="12.81281"><ele>598.5</ele><time>2026-04-25T09:06:37.921Z</time></trkpt><trkpt lat="43.3800967" lon="12.8127033"><ele>602.0</ele><time>2026-04-25T09:06:38.924Z</time></trkpt><trkpt lat="43.3800967" lon="12.8125917"><ele>603.0</ele><time>2026-04-25T09:06:39.929Z</time></trkpt><trkpt lat="43.3800983" lon="12.8124783"><ele>604.0</ele><time>2026-04-25T09:06:40.977Z</time></trkpt><trkpt lat="43.38012" lon="12.812355"><ele>605.0</ele><time>2026-04-25T09:06:41.924Z</time></trkpt><trkpt lat="43.3801333" lon="12.8122067"><ele>606.0</ele><time>2026-04-25T09:06:43.928Z</time></trkpt><trkpt lat="43.38015" lon="12.8120467"><ele>607.0</ele><time>2026-04-25T09:06:45.928Z</time></trkpt><trkpt lat="43.3801617" lon="12.8119417"><ele>607.0</ele><time>2026-04-25T09:06:46.973Z</time></trkpt><trkpt lat="43.38016" lon="12.8118417"><ele>607.0</ele><time>2026-04-25T09:06:47.926Z</time></trkpt><trkpt lat="43.3801517" lon="12.811755"><ele>607.0</ele><time>2026-04-25T09:06:48.931Z</time></trkpt><trkpt lat="43.3801433" lon="12.8115867"><ele>607.0</ele><time>2026-04-25T09:06:50.924Z</time></trkpt><trkpt lat="43.3801283" lon="12.8115017"><ele>607.0</ele><time>2026-04-25T09:06:51.926Z</time></trkpt><trkpt lat="43.3801017" lon="12.81141"><ele>607.0</ele><time>2026-04-25T09:06:52.992Z</time></trkpt><trkpt lat="43.3800667" lon="12.8112367"><ele>608.8000000000001</ele><time>2026-04-25T09:06:54.931Z</time></trkpt><trkpt lat="43.3800467" lon="12.8110817"><ele>610.6</ele><time>2026-04-25T09:06:55.92Z</time></trkpt><trkpt lat="43.3800583" lon="12.8109717"><ele>612.4000000000001</ele><time>2026-04-25T09:06:56.928Z</time></trkpt><trkpt lat="43.38008" lon="12.810885"><ele>614.2</ele><time>2026-04-25T09:06:57.927Z</time></trkpt><trkpt lat="43.3800867" lon="12.81073"><ele>616.0</ele><time>2026-04-25T09:06:59.924Z</time></trkpt><trkpt lat="43.3801167" lon="12.8106267"><ele>617.3333333333334</ele><time>2026-04-25T09:07:00.929Z</time></trkpt><trkpt lat="43.3801917" lon="12.8105417"><ele>618.6666666666667</ele><time>2026-04-25T09:07:12.923Z</time></trkpt><trkpt lat="43.3801583" lon="12.810455"><ele>620.0</ele><time>2026-04-25T09:07:19.933Z</time></trkpt><trkpt lat="43.38015" lon="12.8103617"><ele>621.3333333333334</ele><time>2026-04-25T09:07:32.924Z</time></trkpt><trkpt lat="43.3801733" lon="12.81024"><ele>622.6666666666666</ele><time>2026-04-25T09:07:34.974Z</time></trkpt><trkpt lat="43.3801983" lon="12.8101183"><ele>624.0</ele><time>2026-04-25T09:07:37.924Z</time></trkpt><trkpt lat="43.3802367" lon="12.8099633"><ele>625.0</ele><time>2026-04-25T09:07:39.925Z</time></trkpt><trkpt lat="43.3802417" lon="12.8098083"><ele>626.0</ele><time>2026-04-25T09:07:41.922Z</time></trkpt><trkpt lat="43.38026" lon="12.8097183"><ele>627.0</ele><time>2026-04-25T09:07:42.926Z</time></trkpt><trkpt lat="43.38028" lon="12.809625"><ele>628.0</ele><time>2026-04-25T09:07:43.928Z</time></trkpt><trkpt lat="43.3803" lon="12.8095117"><ele>629.0</ele><time>2026-04-25T09:07:44.926Z</time></trkpt><trkpt lat="43.380315" lon="12.8093867"><ele>630.0</ele><time>2026-04-25T09:07:45.931Z</time></trkpt><trkpt lat="43.3803317" lon="12.8092383"><ele>631.6</ele><time>2026-04-25T09:07:46.975Z</time></trkpt><trkpt lat="43.3803633" lon="12.8090283"><ele>633.2</ele><time>2026-04-25T09:07:47.925Z</time></trkpt><trkpt lat="43.3803817" lon="12.808865"><ele>634.8</ele><time>2026-04-25T09:07:48.93Z</time></trkpt><trkpt lat="43.3803867" lon="12.8087433"><ele>636.4</ele><time>2026-04-25T09:07:49.928Z</time></trkpt><trkpt lat="43.380395" lon="12.808655"><ele>638.0</ele><time>2026-04-25T09:07:50.926Z</time></trkpt><trkpt lat="43.3804067" lon="12.8085483"><ele>639.4</ele><time>2026-04-25T09:07:52.977Z</time></trkpt><trkpt lat="43.3804433" lon="12.8084617"><ele>640.8</ele><time>2026-04-25T09:07:54.93Z</time></trkpt><trkpt lat="43.3805233" lon="12.80848"><ele>642.2</ele><time>2026-04-25T09:08:09.922Z</time></trkpt><trkpt lat="43.3805617" lon="12.8083867"><ele>643.6</ele><time>2026-04-25T09:08:11.927Z</time></trkpt><trkpt lat="43.3806283" lon="12.8081983"><ele>645.0</ele><time>2026-04-25T09:08:13.928Z</time></trkpt><trkpt lat="43.38067" lon="12.8080983"><ele>644.0</ele><time>2026-04-25T09:08:14.926Z</time></trkpt><trkpt lat="43.3807117" lon="12.8079883"><ele>643.0</ele><time>2026-04-25T09:08:15.928Z</time></trkpt><trkpt lat="43.3807617" lon="12.8078617"><ele>642.0</ele><time>2026-04-25T09:08:16.97Z</time></trkpt><trkpt lat="43.3808133" lon="12.8077367"><ele>641.0</ele><time>2026-04-25T09:08:17.925Z</time></trkpt><trkpt lat="43.3808833" lon="12.8076317"><ele>640.0</ele><time>2026-04-25T09:08:18.923Z</time></trkpt><trkpt lat="43.3809367" lon="12.8075533"><ele>640.0</ele><time>2026-04-25T09:08:19.926Z</time></trkpt><trkpt lat="43.380995" lon="12.807455"><ele>640.0</ele><time>2026-04-25T09:08:20.925Z</time></trkpt><trkpt lat="43.3810533" lon="12.8073617"><ele>640.0</ele><time>2026-04-25T09:08:21.931Z</time></trkpt><trkpt lat="43.38111" lon="12.8072717"><ele>640.0</ele><time>2026-04-25T09:08:22.98Z</time></trkpt><trkpt lat="43.3811533" lon="12.807195"><ele>640.0</ele><time>2026-04-25T09:08:23.925Z</time></trkpt><trkpt lat="43.3812067" lon="12.807055"><ele>640.0</ele><time>2026-04-25T09:08:25.92Z</time></trkpt><trkpt lat="43.381285" lon="12.806975"><ele>640.0</ele><time>2026-04-25T09:08:27.926Z</time></trkpt><trkpt lat="43.3813417" lon="12.8069367"><ele>640.0</ele><time>2026-04-25T09:08:28.985Z</time></trkpt><trkpt lat="43.3814033" lon="12.806895"><ele>640.0</ele><time>2026-04-25T09:08:29.922Z</time></trkpt><trkpt lat="43.381505" lon="12.8068433"><ele>640.0</ele><time>2026-04-25T09:08:30.931Z</time></trkpt><trkpt lat="43.3815783" lon="12.8068"><ele>640.0</ele><time>2026-04-25T09:08:31.925Z</time></trkpt><trkpt lat="43.3816567" lon="12.8067717"><ele>642.1428571428571</ele><time>2026-04-25T09:08:32.929Z</time></trkpt><trkpt lat="43.38173" lon="12.8067367"><ele>644.2857142857143</ele><time>2026-04-25T09:08:33.929Z</time></trkpt><trkpt lat="43.3818033" lon="12.8067133"><ele>646.4285714285714</ele><time>2026-04-25T09:08:34.979Z</time></trkpt><trkpt lat="43.38188" lon="12.8066967"><ele>648.5714285714286</ele><time>2026-04-25T09:08:35.925Z</time></trkpt><trkpt lat="43.3819533" lon="12.8066883"><ele>650.7142857142857</ele><time>2026-04-25T09:08:36.924Z</time></trkpt><trkpt lat="43.3820283" lon="12.8066783"><ele>652.8571428571429</ele><time>2026-04-25T09:08:37.925Z</time></trkpt><trkpt lat="43.382095" lon="12.8066767"><ele>655.0</ele><time>2026-04-25T09:08:38.928Z</time></trkpt><trkpt lat="43.38216" lon="12.8066733"><ele>657.6666666666667</ele><time>2026-04-25T09:08:39.926Z</time></trkpt><trkpt lat="43.3822233" lon="12.806695"><ele>660.3333333333334</ele><time>2026-04-25T09:08:40.971Z</time></trkpt><trkpt lat="43.3822883" lon="12.8067083"><ele>663.0</ele><time>2026-04-25T09:08:41.926Z</time></trkpt><trkpt lat="43.38241" lon="12.8067667"><ele>665.6666666666666</ele><time>2026-04-25T09:08:43.926Z</time></trkpt><trkpt lat="43.3824733" lon="12.8068167"><ele>668.3333333333333</ele><time>2026-04-25T09:08:44.933Z</time></trkpt><trkpt lat="43.3825403" lon="12.8068678"><ele>671.0</ele><time>2026-04-25T09:08:45.929Z</time></trkpt><trkpt lat="43.3826135" lon="12.8069308"><ele>669.6666666666666</ele><time>2026-04-25T09:08:46.975Z</time></trkpt><trkpt lat="43.382685" lon="12.8069947"><ele>668.3333333333333</ele><time>2026-04-25T09:08:47.927Z</time></trkpt><trkpt lat="43.3827597" lon="12.8070545"><ele>667.0</ele><time>2026-04-25T09:08:48.924Z</time></trkpt><trkpt lat="43.38283" lon="12.8071021"><ele>665.6666666666666</ele><time>2026-04-25T09:08:49.933Z</time></trkpt><trkpt lat="43.382897" lon="12.8071503"><ele>664.3333333333334</ele><time>2026-04-25T09:08:50.929Z</time></trkpt><trkpt lat="43.3829609" lon="12.8071954"><ele>663.0</ele><time>2026-04-25T09:08:51.933Z</time></trkpt><trkpt lat="43.3830247" lon="12.8072375"><ele>662.9999999999999</ele><time>2026-04-25T09:08:52.981Z</time></trkpt><trkpt lat="43.3830925" lon="12.8072733"><ele>663.0</ele><time>2026-04-25T09:08:53.927Z</time></trkpt><trkpt lat="43.3831621" lon="12.8073121"><ele>663.0</ele><time>2026-04-25T09:08:54.924Z</time></trkpt><trkpt lat="43.3832297" lon="12.8073473"><ele>663.0</ele><time>2026-04-25T09:08:55.927Z</time></trkpt><trkpt lat="43.3832978" lon="12.807376"><ele>663.0</ele><time>2026-04-25T09:08:56.923Z</time></trkpt><trkpt lat="43.3833611" lon="12.8074086"><ele>662.9999999999999</ele><time>2026-04-25T09:08:57.929Z</time></trkpt><trkpt lat="43.3834191" lon="12.8074495"><ele>663.0</ele><time>2026-04-25T09:08:58.979Z</time></trkpt><trkpt lat="43.3835194" lon="12.8075426"><ele>663.0</ele><time>2026-04-25T09:09:00.925Z</time></trkpt><trkpt lat="43.3836123" lon="12.8076416"><ele>663.0</ele><time>2026-04-25T09:09:02.928Z</time></trkpt><trkpt lat="43.3837165" lon="12.8077418"><ele>663.0</ele><time>2026-04-25T09:09:04.973Z</time></trkpt><trkpt lat="43.3837853" lon="12.8078212"><ele>663.0</ele><time>2026-04-25T09:09:05.932Z</time></trkpt><trkpt lat="43.3838434" lon="12.8078937"><ele>663.0</ele><time>2026-04-25T09:09:06.929Z</time></trkpt><trkpt lat="43.383896" lon="12.8079638"><ele>663.1666666666666</ele><time>2026-04-25T09:09:07.922Z</time></trkpt><trkpt lat="43.383947" lon="12.8080306"><ele>663.3333333333334</ele><time>2026-04-25T09:09:08.931Z</time></trkpt><trkpt lat="43.384001" lon="12.8080925"><ele>663.5</ele><time>2026-04-25T09:09:09.931Z</time></trkpt><trkpt lat="43.3840571" lon="12.8081531"><ele>663.6666666666667</ele><time>2026-04-25T09:09:10.975Z</time></trkpt><trkpt lat="43.3841146" lon="12.8082052"><ele>663.8333333333334</ele><time>2026-04-25T09:09:11.927Z</time></trkpt><trkpt lat="43.3841719" lon="12.8082529"><ele>664.0</ele><time>2026-04-25T09:09:12.933Z</time></trkpt><trkpt lat="43.384262" lon="12.808319"><ele>664.0</ele><time>2026-04-25T09:09:14.925Z</time></trkpt><trkpt lat="43.3843383" lon="12.808275"><ele>664.0</ele><time>2026-04-25T09:09:16.975Z</time></trkpt><trkpt lat="43.38442" lon="12.808205"><ele>664.0</ele><time>2026-04-25T09:09:18.928Z</time></trkpt><trkpt lat="43.3844583" lon="12.8081267"><ele>664.0</ele><time>2026-04-25T09:09:20.929Z</time></trkpt><trkpt lat="43.3844617" lon="12.80797"><ele>664.0</ele><time>2026-04-25T09:09:22.976Z</time></trkpt><trkpt lat="43.3845067" lon="12.8078417"><ele>664.0</ele><time>2026-04-25T09:09:24.933Z</time></trkpt><trkpt lat="43.3845417" lon="12.8077317"><ele>664.0</ele><time>2026-04-25T09:09:26.929Z</time></trkpt><trkpt lat="43.3845883" lon="12.8076067"><ele>664.0</ele><time>2026-04-25T09:09:28.981Z</time></trkpt><trkpt lat="43.3846267" lon="12.8074967"><ele>664.0</ele><time>2026-04-25T09:09:30.928Z</time></trkpt><trkpt lat="43.3846767" lon="12.8073783"><ele>664.0</ele><time>2026-04-25T09:09:32.929Z</time></trkpt><trkpt lat="43.3847017" lon="12.807245"><ele>663.6666666666667</ele><time>2026-04-25T09:09:34.979Z</time></trkpt><trkpt lat="43.3847335" lon="12.807144"><ele>663.3333333333334</ele><time>2026-04-25T09:09:36.929Z</time></trkpt><trkpt lat="43.384751" lon="12.807026"><ele>663.0</ele><time>2026-04-25T09:09:38.929Z</time></trkpt><trkpt lat="43.3847743" lon="12.8069051"><ele>662.6666666666666</ele><time>2026-04-25T09:09:40.972Z</time></trkpt><trkpt lat="43.3848041" lon="12.8068224"><ele>662.3333333333333</ele><time>2026-04-25T09:09:42.924Z</time></trkpt><trkpt lat="43.3848369" lon="12.8067454"><ele>662.0</ele><time>2026-04-25T09:09:45.928Z</time></trkpt><trkpt lat="43.3849017" lon="12.806715"><ele>666.5</ele><time>2026-04-25T09:10:16.97Z</time></trkpt><trkpt lat="43.3849717" lon="12.8067067"><ele>671.0</ele><time>2026-04-25T09:10:17.926Z</time></trkpt><trkpt lat="43.3850433" lon="12.8066717"><ele>675.5</ele><time>2026-04-25T09:10:27.928Z</time></trkpt><trkpt lat="43.3851267" lon="12.80664"><ele>680.0</ele><time>2026-04-25T09:10:33.924Z</time></trkpt><trkpt lat="43.3851983" lon="12.8066067"><ele>684.5</ele><time>2026-04-25T09:10:38.931Z</time></trkpt><trkpt lat="43.3851633" lon="12.8065033"><ele>689.0</ele><time>2026-04-25T09:10:41.932Z</time></trkpt><trkpt lat="43.3851983" lon="12.8064117"><ele>689.0</ele><time>2026-04-25T09:10:44.929Z</time></trkpt><trkpt lat="43.3852667" lon="12.80633"><ele>689.0</ele><time>2026-04-25T09:10:47.928Z</time></trkpt><trkpt lat="43.38531" lon="12.8062667"><ele>689.0</ele><time>2026-04-25T09:10:49.927Z</time></trkpt><trkpt lat="43.3853933" lon="12.806225"><ele>689.0</ele><time>2026-04-25T09:10:51.931Z</time></trkpt><trkpt lat="43.3854833" lon="12.8062"><ele>689.0</ele><time>2026-04-25T09:10:53.925Z</time></trkpt><trkpt lat="43.38556" lon="12.8061833"><ele>689.0</ele><time>2026-04-25T09:10:56.929Z</time></trkpt><trkpt lat="43.3856217" lon="12.8061567"><ele>688.8333333333333</ele><time>2026-04-25T09:11:01.924Z</time></trkpt><trkpt lat="43.38567" lon="12.8060817"><ele>688.6666666666666</ele><time>2026-04-25T09:11:08.925Z</time></trkpt><trkpt lat="43.3857117" lon="12.8060033"><ele>688.5</ele><time>2026-04-25T09:11:10.973Z</time></trkpt><trkpt lat="43.3857533" lon="12.8059217"><ele>688.3333333333334</ele><time>2026-04-25T09:11:12.927Z</time></trkpt><trkpt lat="43.385805" lon="12.8058283"><ele>688.1666666666667</ele><time>2026-04-25T09:11:14.93Z</time></trkpt><trkpt lat="43.3858833" lon="12.805715"><ele>688.0</ele><time>2026-04-25T09:11:16.975Z</time></trkpt><trkpt lat="43.3859283" lon="12.8056417"><ele>688.0</ele><time>2026-04-25T09:11:18.931Z</time></trkpt><trkpt lat="43.3859767" lon="12.805555"><ele>688.0</ele><time>2026-04-25T09:11:25.92Z</time></trkpt><trkpt lat="43.3860867" lon="12.8055267"><ele>688.0</ele><time>2026-04-25T09:11:32.926Z</time></trkpt><trkpt lat="43.385995" lon="12.8055133"><ele>688.0</ele><time>2026-04-25T09:11:47.928Z</time></trkpt><trkpt lat="43.38593" lon="12.8055317"><ele>688.0</ele><time>2026-04-25T09:12:24.933Z</time></trkpt><trkpt lat="43.3860867" lon="12.8055417"><ele>688.0</ele><time>2026-04-25T09:12:28.99Z</time></trkpt><trkpt lat="43.3861233" lon="12.8054567"><ele>688.0</ele><time>2026-04-25T09:12:34.966Z</time></trkpt><trkpt lat="43.386195" lon="12.8054417"><ele>688.0</ele><time>2026-04-25T09:12:37.929Z</time></trkpt><trkpt lat="43.3860983" lon="12.8054533"><ele>688.0</ele><time>2026-04-25T09:12:48.93Z</time></trkpt><trkpt lat="43.3860083" lon="12.8055267"><ele>688.0</ele><time>2026-04-25T09:12:53.928Z</time></trkpt><trkpt lat="43.385995" lon="12.805615"><ele>688.0</ele><time>2026-04-25T09:13:02.928Z</time></trkpt><trkpt lat="43.3858567" lon="12.8056833"><ele>688.0</ele><time>2026-04-25T09:13:06.928Z</time></trkpt><trkpt lat="43.3859233" lon="12.80566"><ele>688.0</ele><time>2026-04-25T09:13:16.97Z</time></trkpt><trkpt lat="43.385935" lon="12.8054883"><ele>688.0</ele><time>2026-04-25T09:13:35.922Z</time></trkpt><trkpt lat="43.3860283" lon="12.8053883"><ele>688.0</ele><time>2026-04-25T09:13:41.925Z</time></trkpt><trkpt lat="43.3859433" lon="12.8054233"><ele>688.0</ele><time>2026-04-25T09:13:52.993Z</time></trkpt><trkpt lat="43.3859033" lon="12.80553"><ele>688.0</ele><time>2026-04-25T09:14:13.926Z</time></trkpt><trkpt lat="43.3858433" lon="12.8056"><ele>688.0</ele><time>2026-04-25T09:14:16.974Z</time></trkpt><trkpt lat="43.3858283" lon="12.8056967"><ele>688.0</ele><time>2026-04-25T09:14:20.926Z</time></trkpt><trkpt lat="43.3859217" lon="12.80562"><ele>688.0</ele><time>2026-04-25T09:14:43.926Z</time></trkpt><trkpt lat="43.3858417" lon="12.805665"><ele>688.0</ele><time>2026-04-25T09:14:59.926Z</time></trkpt><trkpt lat="43.3857817" lon="12.8057783"><ele>688.0</ele><time>2026-04-25T09:15:02.93Z</time></trkpt><trkpt lat="43.38576" lon="12.805875"><ele>688.0</ele><time>2026-04-25T09:15:03.928Z</time></trkpt><trkpt lat="43.3856733" lon="12.805975"><ele>688.0</ele><time>2026-04-25T09:15:05.922Z</time></trkpt><trkpt lat="43.3855983" lon="12.80603"><ele>688.0</ele><time>2026-04-25T09:15:07.929Z</time></trkpt><trkpt lat="43.3855217" lon="12.80604"><ele>688.0</ele><time>2026-04-25T09:15:10.977Z</time></trkpt><trkpt lat="43.3854233" lon="12.8060633"><ele>688.0</ele><time>2026-04-25T09:15:13.922Z</time></trkpt><trkpt lat="43.3853467" lon="12.806085"><ele>688.1428571428572</ele><time>2026-04-25T09:15:15.928Z</time></trkpt><trkpt lat="43.38533" lon="12.8062067"><ele>688.2857142857143</ele><time>2026-04-25T09:15:16.973Z</time></trkpt><trkpt lat="43.38528" lon="12.8062767"><ele>688.4285714285714</ele><time>2026-04-25T09:15:20.926Z</time></trkpt><trkpt lat="43.38526" lon="12.8063633"><ele>688.5714285714287</ele><time>2026-04-25T09:15:23.929Z</time></trkpt><trkpt lat="43.3851967" lon="12.8063983"><ele>688.7142857142858</ele><time>2026-04-25T09:15:26.928Z</time></trkpt><trkpt lat="43.3851367" lon="12.8064283"><ele>688.8571428571429</ele><time>2026-04-25T09:15:29.926Z</time></trkpt><trkpt lat="43.38507" lon="12.8064883"><ele>689.0</ele><time>2026-04-25T09:15:35.924Z</time></trkpt><trkpt lat="43.3850083" lon="12.8065467"><ele>689.0</ele><time>2026-04-25T09:15:39.92Z</time></trkpt><trkpt lat="43.3849667" lon="12.8066167"><ele>689.0</ele><time>2026-04-25T09:15:41.921Z</time></trkpt><trkpt lat="43.384915" lon="12.8067"><ele>689.0</ele><time>2026-04-25T09:15:44.924Z</time></trkpt><trkpt lat="43.3848833" lon="12.8068133"><ele>689.0</ele><time>2026-04-25T09:15:47.922Z</time></trkpt><trkpt lat="43.3848617" lon="12.8069033"><ele>689.0</ele><time>2026-04-25T09:15:49.921Z</time></trkpt><trkpt lat="43.3848367" lon="12.8069833"><ele>689.0</ele><time>2026-04-25T09:15:51.93Z</time></trkpt><trkpt lat="43.3847883" lon="12.8070883"><ele>688.4000000000001</ele><time>2026-04-25T09:15:53.935Z</time></trkpt><trkpt lat="43.38473" lon="12.8072033"><ele>687.8</ele><time>2026-04-25T09:15:55.927Z</time></trkpt><trkpt lat="43.3846733" lon="12.8073133"><ele>687.2</ele><time>2026-04-25T09:15:57.929Z</time></trkpt><trkpt lat="43.3846133" lon="12.8074183"><ele>686.5999999999999</ele><time>2026-04-25T09:15:59.927Z</time></trkpt><trkpt lat="43.3845517" lon="12.8075317"><ele>686.0</ele><time>2026-04-25T09:16:01.928Z</time></trkpt><trkpt lat="43.3845133" lon="12.807655"><ele>682.8571428571429</ele><time>2026-04-25T09:16:03.927Z</time></trkpt><trkpt lat="43.3844917" lon="12.8077683"><ele>679.7142857142858</ele><time>2026-04-25T09:16:05.929Z</time></trkpt><trkpt lat="43.3844667" lon="12.8078783"><ele>676.5714285714286</ele><time>2026-04-25T09:16:07.924Z</time></trkpt><trkpt lat="43.3844433" lon="12.8079883"><ele>673.4285714285714</ele><time>2026-04-25T09:16:09.93Z</time></trkpt><trkpt lat="43.384445" lon="12.8080767"><ele>670.2857142857143</ele><time>2026-04-25T09:16:11.925Z</time></trkpt><trkpt lat="43.384425" lon="12.80816"><ele>667.1428571428571</ele><time>2026-04-25T09:16:13.929Z</time></trkpt><trkpt lat="43.3843767" lon="12.8082183"><ele>664.0</ele><time>2026-04-25T09:16:15.923Z</time></trkpt><trkpt lat="43.3843133" lon="12.8082417"><ele>664.0</ele><time>2026-04-25T09:16:19.923Z</time></trkpt><trkpt lat="43.38424" lon="12.8081983"><ele>664.0</ele><time>2026-04-25T09:16:21.929Z</time></trkpt><trkpt lat="43.384155" lon="12.8081383"><ele>664.0</ele><time>2026-04-25T09:16:23.923Z</time></trkpt><trkpt lat="43.384065" lon="12.808065"><ele>664.0</ele><time>2026-04-25T09:16:25.926Z</time></trkpt><trkpt lat="43.3839683" lon="12.8079617"><ele>664.0</ele><time>2026-04-25T09:16:27.925Z</time></trkpt><trkpt lat="43.3839167" lon="12.807895"><ele>664.0</ele><time>2026-04-25T09:16:28.978Z</time></trkpt><trkpt lat="43.3838633" lon="12.8078233"><ele>664.0</ele><time>2026-04-25T09:16:29.926Z</time></trkpt><trkpt lat="43.3838033" lon="12.8077483"><ele>664.0</ele><time>2026-04-25T09:16:30.926Z</time></trkpt><trkpt lat="43.383745" lon="12.8076783"><ele>664.0</ele><time>2026-04-25T09:16:31.923Z</time></trkpt><trkpt lat="43.3836983" lon="12.8076133"><ele>664.0</ele><time>2026-04-25T09:16:32.93Z</time></trkpt><trkpt lat="43.3836167" lon="12.8075167"><ele>664.0</ele><time>2026-04-25T09:16:34.98Z</time></trkpt><trkpt lat="43.383525" lon="12.807445"><ele>663.8333333333334</ele><time>2026-04-25T09:16:36.935Z</time></trkpt><trkpt lat="43.3834133" lon="12.8073667"><ele>663.6666666666667</ele><time>2026-04-25T09:16:38.925Z</time></trkpt><trkpt lat="43.3833483" lon="12.8073267"><ele>663.5</ele><time>2026-04-25T09:16:39.924Z</time></trkpt><trkpt lat="43.3832767" lon="12.807285"><ele>663.3333333333334</ele><time>2026-04-25T09:16:40.971Z</time></trkpt><trkpt lat="43.3832033" lon="12.8072433"><ele>663.1666666666666</ele><time>2026-04-25T09:16:41.928Z</time></trkpt><trkpt lat="43.3831283" lon="12.8072117"><ele>663.0</ele><time>2026-04-25T09:16:42.925Z</time></trkpt><trkpt lat="43.383055" lon="12.8071817"><ele>664.1428571428571</ele><time>2026-04-25T09:16:43.931Z</time></trkpt><trkpt lat="43.3829883" lon="12.8071467"><ele>665.2857142857142</ele><time>2026-04-25T09:16:44.925Z</time></trkpt><trkpt lat="43.3829283" lon="12.8071083"><ele>666.4285714285713</ele><time>2026-04-25T09:16:45.925Z</time></trkpt><trkpt lat="43.3828667" lon="12.8070583"><ele>667.5714285714286</ele><time>2026-04-25T09:16:46.972Z</time></trkpt><trkpt lat="43.382805" lon="12.8070017"><ele>668.7142857142858</ele><time>2026-04-25T09:16:47.923Z</time></trkpt><trkpt lat="43.3827417" lon="12.806935"><ele>669.8571428571428</ele><time>2026-04-25T09:16:48.932Z</time></trkpt><trkpt lat="43.3826717" lon="12.80687"><ele>671.0</ele><time>2026-04-25T09:16:49.929Z</time></trkpt><trkpt lat="43.3826017" lon="12.80681"><ele>671.0</ele><time>2026-04-25T09:16:50.928Z</time></trkpt><trkpt lat="43.38253" lon="12.8067633"><ele>671.0</ele><time>2026-04-25T09:16:51.934Z</time></trkpt><trkpt lat="43.38242" lon="12.8067133"><ele>671.0</ele><time>2026-04-25T09:16:53.925Z</time></trkpt><trkpt lat="43.3822933" lon="12.806675"><ele>671.0</ele><time>2026-04-25T09:16:55.924Z</time></trkpt><trkpt lat="43.3821783" lon="12.8066583"><ele>671.0</ele><time>2026-04-25T09:16:57.929Z</time></trkpt><trkpt lat="43.3820767" lon="12.8066517"><ele>667.8</ele><time>2026-04-25T09:16:59.922Z</time></trkpt><trkpt lat="43.3819583" lon="12.80667"><ele>664.5999999999999</ele><time>2026-04-25T09:17:01.929Z</time></trkpt><trkpt lat="43.3818933" lon="12.8066933"><ele>661.4</ele><time>2026-04-25T09:17:02.926Z</time></trkpt><trkpt lat="43.3818083" lon="12.806735"><ele>658.2</ele><time>2026-04-25T09:17:03.925Z</time></trkpt><trkpt lat="43.3817233" lon="12.80678"><ele>655.0</ele><time>2026-04-25T09:17:04.971Z</time></trkpt><trkpt lat="43.3816433" lon="12.8068267"><ele>652.5</ele><time>2026-04-25T09:17:05.925Z</time></trkpt><trkpt lat="43.381565" lon="12.8068683"><ele>650.0</ele><time>2026-04-25T09:17:06.925Z</time></trkpt><trkpt lat="43.3814967" lon="12.8069067"><ele>647.5</ele><time>2026-04-25T09:17:07.932Z</time></trkpt><trkpt lat="43.3814383" lon="12.806965"><ele>645.0</ele><time>2026-04-25T09:17:08.93Z</time></trkpt><trkpt lat="43.381375" lon="12.8070267"><ele>642.5</ele><time>2026-04-25T09:17:09.93Z</time></trkpt><trkpt lat="43.38131" lon="12.8070917"><ele>640.0</ele><time>2026-04-25T09:17:10.974Z</time></trkpt><trkpt lat="43.3812433" lon="12.8071633"><ele>640.0</ele><time>2026-04-25T09:17:11.929Z</time></trkpt><trkpt lat="43.3811733" lon="12.8072433"><ele>640.0</ele><time>2026-04-25T09:17:12.925Z</time></trkpt><trkpt lat="43.38111" lon="12.807315"><ele>640.0</ele><time>2026-04-25T09:17:13.931Z</time></trkpt><trkpt lat="43.3810417" lon="12.8073883"><ele>640.0</ele><time>2026-04-25T09:17:14.925Z</time></trkpt><trkpt lat="43.3809767" lon="12.80747"><ele>640.0</ele><time>2026-04-25T09:17:15.92Z</time></trkpt><trkpt lat="43.3809117" lon="12.80756"><ele>640.0</ele><time>2026-04-25T09:17:16.972Z</time></trkpt><trkpt lat="43.3808533" lon="12.80765"><ele>637.4</ele><time>2026-04-25T09:17:17.923Z</time></trkpt><trkpt lat="43.3808" lon="12.807745"><ele>634.8</ele><time>2026-04-25T09:17:18.925Z</time></trkpt><trkpt lat="43.3807483" lon="12.80785"><ele>632.2</ele><time>2026-04-25T09:17:19.92Z</time></trkpt><trkpt lat="43.3806933" lon="12.8079717"><ele>629.6</ele><time>2026-04-25T09:17:20.929Z</time></trkpt><trkpt lat="43.380645" lon="12.80809"><ele>627.0</ele><time>2026-04-25T09:17:21.927Z</time></trkpt><trkpt lat="43.380595" lon="12.8082033"><ele>627.0</ele><time>2026-04-25T09:17:22.991Z</time></trkpt><trkpt lat="43.3805433" lon="12.8083117"><ele>627.0</ele><time>2026-04-25T09:17:23.92Z</time></trkpt><trkpt lat="43.380505" lon="12.8084083"><ele>627.0</ele><time>2026-04-25T09:17:24.929Z</time></trkpt><trkpt lat="43.3805" lon="12.8085217"><ele>627.0</ele><time>2026-04-25T09:17:26.926Z</time></trkpt><trkpt lat="43.3804683" lon="12.8084117"><ele>627.0</ele><time>2026-04-25T09:17:33.929Z</time></trkpt><trkpt lat="43.380475" lon="12.80832"><ele>627.0</ele><time>2026-04-25T09:17:34.971Z</time></trkpt><trkpt lat="43.380485" lon="12.8082217"><ele>627.0</ele><time>2026-04-25T09:17:35.918Z</time></trkpt><trkpt lat="43.3804983" lon="12.8081217"><ele>627.0</ele><time>2026-04-25T09:17:36.925Z</time></trkpt><trkpt lat="43.38054" lon="12.8080267"><ele>627.0</ele><time>2026-04-25T09:17:37.926Z</time></trkpt><trkpt lat="43.3805683" lon="12.80794"><ele>627.0</ele><time>2026-04-25T09:17:38.927Z</time></trkpt><trkpt lat="43.3805983" lon="12.8078467"><ele>627.0</ele><time>2026-04-25T09:17:39.925Z</time></trkpt><trkpt lat="43.3806083" lon="12.8077467"><ele>627.0</ele><time>2026-04-25T09:17:40.97Z</time></trkpt><trkpt lat="43.38067" lon="12.8075533"><ele>629.1666666666666</ele><time>2026-04-25T09:17:42.924Z</time></trkpt><trkpt lat="43.3807367" lon="12.8074567"><ele>631.3333333333334</ele><time>2026-04-25T09:17:43.929Z</time></trkpt><trkpt lat="43.38078" lon="12.80736"><ele>633.5</ele><time>2026-04-25T09:17:44.923Z</time></trkpt><trkpt lat="43.3808217" lon="12.8072767"><ele>635.6666666666667</ele><time>2026-04-25T09:17:45.927Z</time></trkpt><trkpt lat="43.38088" lon="12.8071917"><ele>637.8333333333334</ele><time>2026-04-25T09:17:46.968Z</time></trkpt><trkpt lat="43.3809283" lon="12.8071033"><ele>640.0</ele><time>2026-04-25T09:17:47.919Z</time></trkpt><trkpt lat="43.3809767" lon="12.80703"><ele>640.0</ele><time>2026-04-25T09:17:48.927Z</time></trkpt><trkpt lat="43.3810317" lon="12.8069467"><ele>640.0</ele><time>2026-04-25T09:17:49.925Z</time></trkpt><trkpt lat="43.3810683" lon="12.8068667"><ele>640.0</ele><time>2026-04-25T09:17:50.934Z</time></trkpt><trkpt lat="43.3811367" lon="12.8067067"><ele>640.0</ele><time>2026-04-25T09:17:52.987Z</time></trkpt><trkpt lat="43.3811517" lon="12.8066033"><ele>640.0</ele><time>2026-04-25T09:17:53.925Z</time></trkpt><trkpt lat="43.3812083" lon="12.8065317"><ele>640.0</ele><time>2026-04-25T09:17:54.921Z</time></trkpt><trkpt lat="43.3812617" lon="12.8064467"><ele>642.5</ele><time>2026-04-25T09:17:55.922Z</time></trkpt><trkpt lat="43.38132" lon="12.806375"><ele>645.0</ele><time>2026-04-25T09:17:56.932Z</time></trkpt><trkpt lat="43.3813817" lon="12.8063"><ele>647.5</ele><time>2026-04-25T09:17:57.926Z</time></trkpt><trkpt lat="43.3814367" lon="12.8062267"><ele>650.0</ele><time>2026-04-25T09:17:58.973Z</time></trkpt><trkpt lat="43.38149" lon="12.8061517"><ele>652.5</ele><time>2026-04-25T09:17:59.92Z</time></trkpt><trkpt lat="43.38157" lon="12.8060817"><ele>655.0</ele><time>2026-04-25T09:18:00.927Z</time></trkpt><trkpt lat="43.38164" lon="12.80604"><ele>655.0</ele><time>2026-04-25T09:18:01.925Z</time></trkpt><trkpt lat="43.3817117" lon="12.8060133"><ele>655.0</ele><time>2026-04-25T09:18:02.928Z</time></trkpt><trkpt lat="43.381775" lon="12.805985"><ele>655.0</ele><time>2026-04-25T09:18:03.922Z</time></trkpt><trkpt lat="43.381845" lon="12.8059517"><ele>655.0</ele><time>2026-04-25T09:18:04.97Z</time></trkpt><trkpt lat="43.38191" lon="12.8059283"><ele>655.0</ele><time>2026-04-25T09:18:05.923Z</time></trkpt><trkpt lat="43.38199" lon="12.80591"><ele>655.0</ele><time>2026-04-25T09:18:06.922Z</time></trkpt><trkpt lat="43.382075" lon="12.8058967"><ele>655.0</ele><time>2026-04-25T09:18:07.926Z</time></trkpt><trkpt lat="43.3821517" lon="12.8058867"><ele>663.0</ele><time>2026-04-25T09:18:08.928Z</time></trkpt><trkpt lat="43.3822317" lon="12.8058833"><ele>671.0</ele><time>2026-04-25T09:18:09.925Z</time></trkpt><trkpt lat="43.3823117" lon="12.8058783"><ele>679.0</ele><time>2026-04-25T09:18:10.974Z</time></trkpt><trkpt lat="43.38238" lon="12.80588"><ele>687.0</ele><time>2026-04-25T09:18:11.924Z</time></trkpt><trkpt lat="43.3825067" lon="12.8058983"><ele>695.0</ele><time>2026-04-25T09:18:13.922Z</time></trkpt><trkpt lat="43.3826233" lon="12.80593"><ele>695.0</ele><time>2026-04-25T09:18:15.925Z</time></trkpt><trkpt lat="43.382735" lon="12.8059517"><ele>695.0</ele><time>2026-04-25T09:18:17.922Z</time></trkpt><trkpt lat="43.3828517" lon="12.8059883"><ele>695.0</ele><time>2026-04-25T09:18:19.929Z</time></trkpt><trkpt lat="43.3829733" lon="12.8060317"><ele>695.0</ele><time>2026-04-25T09:18:21.927Z</time></trkpt><trkpt lat="43.3830433" lon="12.8060533"><ele>695.0</ele><time>2026-04-25T09:18:22.989Z</time></trkpt><trkpt lat="43.3831067" lon="12.8060733"><ele>694.5714285714287</ele><time>2026-04-25T09:18:23.927Z</time></trkpt><trkpt lat="43.3831917" lon="12.8061067"><ele>694.1428571428571</ele><time>2026-04-25T09:18:24.925Z</time></trkpt><trkpt lat="43.3832683" lon="12.806135"><ele>693.7142857142858</ele><time>2026-04-25T09:18:25.923Z</time></trkpt><trkpt lat="43.3833333" lon="12.8061583"><ele>693.2857142857143</ele><time>2026-04-25T09:18:26.922Z</time></trkpt><trkpt lat="43.383395" lon="12.8061883"><ele>692.8571428571429</ele><time>2026-04-25T09:18:27.928Z</time></trkpt><trkpt lat="43.3834567" lon="12.8062167"><ele>692.4285714285714</ele><time>2026-04-25T09:18:28.978Z</time></trkpt><trkpt lat="43.3835167" lon="12.8062483"><ele>692.0</ele><time>2026-04-25T09:18:29.921Z</time></trkpt><trkpt lat="43.383575" lon="12.8062817"><ele>692.0</ele><time>2026-04-25T09:18:30.919Z</time></trkpt><trkpt lat="43.3836833" lon="12.8063183"><ele>692.0</ele><time>2026-04-25T09:18:32.927Z</time></trkpt><trkpt lat="43.3837483" lon="12.8063267"><ele>692.0</ele><time>2026-04-25T09:18:33.922Z</time></trkpt><trkpt lat="43.3838667" lon="12.806355"><ele>692.0</ele><time>2026-04-25T09:18:35.927Z</time></trkpt><trkpt lat="43.3839667" lon="12.80635"><ele>692.0</ele><time>2026-04-25T09:18:37.924Z</time></trkpt><trkpt lat="43.3840867" lon="12.8062933"><ele>695.0</ele><time>2026-04-25T09:18:39.93Z</time></trkpt><trkpt lat="43.3841983" lon="12.8062067"><ele>698.0</ele><time>2026-04-25T09:18:41.923Z</time></trkpt><trkpt lat="43.384295" lon="12.8061033"><ele>701.0</ele><time>2026-04-25T09:18:43.926Z</time></trkpt><trkpt lat="43.3843483" lon="12.806045"><ele>704.0</ele><time>2026-04-25T09:18:44.925Z</time></trkpt><trkpt lat="43.3844117" lon="12.80598"><ele>707.0</ele><time>2026-04-25T09:18:45.924Z</time></trkpt><trkpt lat="43.3844833" lon="12.80591"><ele>709.8333333333333</ele><time>2026-04-25T09:18:46.972Z</time></trkpt><trkpt lat="43.38456" lon="12.8058483"><ele>712.6666666666666</ele><time>2026-04-25T09:18:47.923Z</time></trkpt><trkpt lat="43.3846333" lon="12.805795"><ele>715.5</ele><time>2026-04-25T09:18:48.925Z</time></trkpt><trkpt lat="43.3846967" lon="12.805735"><ele>718.3333333333334</ele><time>2026-04-25T09:18:49.925Z</time></trkpt><trkpt lat="43.38476" lon="12.8056833"><ele>721.1666666666667</ele><time>2026-04-25T09:18:50.929Z</time></trkpt><trkpt lat="43.3848117" lon="12.8056217"><ele>724.0</ele><time>2026-04-25T09:18:51.923Z</time></trkpt><trkpt lat="43.3848583" lon="12.8055583"><ele>724.0</ele><time>2026-04-25T09:18:52.994Z</time></trkpt><trkpt lat="43.384915" lon="12.805445"><ele>724.0</ele><time>2026-04-25T09:18:54.93Z</time></trkpt><trkpt lat="43.3849717" lon="12.8053417"><ele>724.0</ele><time>2026-04-25T09:18:56.934Z</time></trkpt><trkpt lat="43.3850367" lon="12.805205"><ele>724.0</ele><time>2026-04-25T09:18:58.986Z</time></trkpt><trkpt lat="43.3850717" lon="12.80513"><ele>724.0</ele><time>2026-04-25T09:18:59.929Z</time></trkpt><trkpt lat="43.3851083" lon="12.805055"><ele>724.0</ele><time>2026-04-25T09:19:00.923Z</time></trkpt><trkpt lat="43.3851467" lon="12.80498"><ele>729.6</ele><time>2026-04-25T09:19:01.92Z</time></trkpt><trkpt lat="43.3851917" lon="12.8048483"><ele>735.2</ele><time>2026-04-25T09:19:03.924Z</time></trkpt><trkpt lat="43.3852317" lon="12.8047233"><ele>740.8000000000001</ele><time>2026-04-25T09:19:05.919Z</time></trkpt><trkpt lat="43.3852997" lon="12.8045885"><ele>746.4000000000001</ele><time>2026-04-25T09:19:07.922Z</time></trkpt><trkpt lat="43.3853836" lon="12.8044633"><ele>752.0</ele><time>2026-04-25T09:19:09.929Z</time></trkpt><trkpt lat="43.3854311" lon="12.8044012"><ele>752.0</ele><time>2026-04-25T09:19:11.925Z</time></trkpt><trkpt lat="43.3854868" lon="12.8043371"><ele>752.0</ele><time>2026-04-25T09:19:13.923Z</time></trkpt><trkpt lat="43.3855434" lon="12.8042873"><ele>752.0</ele><time>2026-04-25T09:19:15.927Z</time></trkpt><trkpt lat="43.3855993" lon="12.804226"><ele>752.0</ele><time>2026-04-25T09:19:17.922Z</time></trkpt><trkpt lat="43.3856735" lon="12.8041624"><ele>752.0</ele><time>2026-04-25T09:19:19.928Z</time></trkpt><trkpt lat="43.3857502" lon="12.8041041"><ele>752.0</ele><time>2026-04-25T09:19:21.924Z</time></trkpt><trkpt lat="43.3858167" lon="12.8040583"><ele>752.1666666666666</ele><time>2026-04-25T09:19:23.925Z</time></trkpt><trkpt lat="43.3858783" lon="12.8039833"><ele>752.3333333333333</ele><time>2026-04-25T09:19:29.922Z</time></trkpt><trkpt lat="43.3859117" lon="12.8038733"><ele>752.5</ele><time>2026-04-25T09:19:31.932Z</time></trkpt><trkpt lat="43.3859267" lon="12.803745"><ele>752.6666666666666</ele><time>2026-04-25T09:19:33.927Z</time></trkpt><trkpt lat="43.38592" lon="12.8036283"><ele>752.8333333333334</ele><time>2026-04-25T09:19:35.931Z</time></trkpt><trkpt lat="43.3858983" lon="12.8035367"><ele>753.0</ele><time>2026-04-25T09:19:37.927Z</time></trkpt><trkpt lat="43.3858767" lon="12.8034467"><ele>755.1666666666666</ele><time>2026-04-25T09:19:39.93Z</time></trkpt><trkpt lat="43.3859833" lon="12.8034183"><ele>757.3333333333334</ele><time>2026-04-25T09:20:25.926Z</time></trkpt><trkpt lat="43.3860667" lon="12.803435"><ele>759.5</ele><time>2026-04-25T09:20:28.992Z</time></trkpt><trkpt lat="43.3861483" lon="12.8034367"><ele>761.6666666666667</ele><time>2026-04-25T09:20:31.921Z</time></trkpt><trkpt lat="43.38622" lon="12.80343"><ele>763.8333333333334</ele><time>2026-04-25T09:20:34.983Z</time></trkpt><trkpt lat="43.3863017" lon="12.803405"><ele>766.0</ele><time>2026-04-25T09:20:40.973Z</time></trkpt><trkpt lat="43.3863767" lon="12.8033417"><ele>761.1666666666667</ele><time>2026-04-25T09:20:44.925Z</time></trkpt><trkpt lat="43.3864517" lon="12.803315"><ele>756.3333333333334</ele><time>2026-04-25T09:20:46.971Z</time></trkpt><trkpt lat="43.38648" lon="12.8033933"><ele>751.5</ele><time>2026-04-25T09:20:48.927Z</time></trkpt><trkpt lat="43.386535" lon="12.8034917"><ele>746.6666666666666</ele><time>2026-04-25T09:20:51.932Z</time></trkpt><trkpt lat="43.3865767" lon="12.8035683"><ele>741.8333333333333</ele><time>2026-04-25T09:20:53.921Z</time></trkpt><trkpt lat="43.386595" lon="12.803675"><ele>737.0</ele><time>2026-04-25T09:20:55.932Z</time></trkpt><trkpt lat="43.38662" lon="12.8037733"><ele>737.0</ele><time>2026-04-25T09:20:57.928Z</time></trkpt><trkpt lat="43.386655" lon="12.8038567"><ele>737.0</ele><time>2026-04-25T09:20:59.922Z</time></trkpt><trkpt lat="43.386695" lon="12.8039317"><ele>737.0</ele><time>2026-04-25T09:21:01.921Z</time></trkpt><trkpt lat="43.3867617" lon="12.804025"><ele>737.0</ele><time>2026-04-25T09:21:03.935Z</time></trkpt><trkpt lat="43.386815" lon="12.8041267"><ele>737.0</ele><time>2026-04-25T09:21:05.927Z</time></trkpt><trkpt lat="43.38687" lon="12.80424"><ele>737.0</ele><time>2026-04-25T09:21:07.928Z</time></trkpt><trkpt lat="43.386945" lon="12.80436"><ele>733.1666666666666</ele><time>2026-04-25T09:21:09.933Z</time></trkpt><trkpt lat="43.3870067" lon="12.80443"><ele>729.3333333333333</ele><time>2026-04-25T09:21:10.976Z</time></trkpt><trkpt lat="43.3870633" lon="12.8045033"><ele>725.5</ele><time>2026-04-25T09:21:11.926Z</time></trkpt><trkpt lat="43.387125" lon="12.8045833"><ele>721.6666666666666</ele><time>2026-04-25T09:21:12.929Z</time></trkpt><trkpt lat="43.387175" lon="12.8046533"><ele>717.8333333333334</ele><time>2026-04-25T09:21:13.924Z</time></trkpt><trkpt lat="43.3872283" lon="12.8047167"><ele>714.0</ele><time>2026-04-25T09:21:14.931Z</time></trkpt><trkpt lat="43.3873033" lon="12.8048183"><ele>713.4000000000001</ele><time>2026-04-25T09:21:16.981Z</time></trkpt><trkpt lat="43.3873883" lon="12.80489"><ele>712.8</ele><time>2026-04-25T09:21:18.928Z</time></trkpt><trkpt lat="43.3875" lon="12.8049583"><ele>712.2</ele><time>2026-04-25T09:21:20.93Z</time></trkpt><trkpt lat="43.3876083" lon="12.805075"><ele>711.5999999999999</ele><time>2026-04-25T09:21:22.982Z</time></trkpt><trkpt lat="43.3876567" lon="12.8051433"><ele>711.0</ele><time>2026-04-25T09:21:23.925Z</time></trkpt><trkpt lat="43.3877033" lon="12.805225"><ele>710.3333333333334</ele><time>2026-04-25T09:21:24.93Z</time></trkpt><trkpt lat="43.3877417" lon="12.8052983"><ele>709.6666666666666</ele><time>2026-04-25T09:21:25.926Z</time></trkpt><trkpt lat="43.3877833" lon="12.8053783"><ele>709.0</ele><time>2026-04-25T09:21:26.93Z</time></trkpt><trkpt lat="43.3878317" lon="12.805455"><ele>708.3333333333333</ele><time>2026-04-25T09:21:27.926Z</time></trkpt><trkpt lat="43.3878933" lon="12.8055383"><ele>707.6666666666666</ele><time>2026-04-25T09:21:28.982Z</time></trkpt><trkpt lat="43.387955" lon="12.8056217"><ele>707.0</ele><time>2026-04-25T09:21:29.925Z</time></trkpt><trkpt lat="43.3880217" lon="12.8057083"><ele>707.0</ele><time>2026-04-25T09:21:30.928Z</time></trkpt><trkpt lat="43.3880917" lon="12.80579"><ele>707.0</ele><time>2026-04-25T09:21:31.935Z</time></trkpt><trkpt lat="43.3881617" lon="12.805865"><ele>707.0</ele><time>2026-04-25T09:21:32.93Z</time></trkpt><trkpt lat="43.3882333" lon="12.8059283"><ele>707.0</ele><time>2026-04-25T09:21:33.931Z</time></trkpt><trkpt lat="43.3882917" lon="12.80599"><ele>707.0</ele><time>2026-04-25T09:21:34.98Z</time></trkpt><trkpt lat="43.3883383" lon="12.806065"><ele>707.0</ele><time>2026-04-25T09:21:35.929Z</time></trkpt><trkpt lat="43.3883833" lon="12.8061383"><ele>707.0</ele><time>2026-04-25T09:21:36.929Z</time></trkpt><trkpt lat="43.3884333" lon="12.8062017"><ele>707.0</ele><time>2026-04-25T09:21:37.921Z</time></trkpt><trkpt lat="43.3884883" lon="12.8062633"><ele>707.0</ele><time>2026-04-25T09:21:38.928Z</time></trkpt><trkpt lat="43.3885417" lon="12.806325"><ele>707.0</ele><time>2026-04-25T09:21:39.929Z</time></trkpt><trkpt lat="43.3885983" lon="12.8063917"><ele>707.0</ele><time>2026-04-25T09:21:40.977Z</time></trkpt><trkpt lat="43.3886617" lon="12.8064517"><ele>707.0</ele><time>2026-04-25T09:21:41.923Z</time></trkpt><trkpt lat="43.388715" lon="12.80651"><ele>707.0</ele><time>2026-04-25T09:21:42.929Z</time></trkpt><trkpt lat="43.3887617" lon="12.8065733"><ele>707.0</ele><time>2026-04-25T09:21:43.927Z</time></trkpt><trkpt lat="43.388805" lon="12.8066567"><ele>707.0</ele><time>2026-04-25T09:21:44.928Z</time></trkpt><trkpt lat="43.388845" lon="12.80674"><ele>707.0</ele><time>2026-04-25T09:21:45.925Z</time></trkpt><trkpt lat="43.3888833" lon="12.8068333"><ele>707.0</ele><time>2026-04-25T09:21:46.975Z</time></trkpt><trkpt lat="43.3889233" lon="12.80693"><ele>707.0</ele><time>2026-04-25T09:21:47.926Z</time></trkpt><trkpt lat="43.38896" lon="12.80704"><ele>707.0</ele><time>2026-04-25T09:21:48.927Z</time></trkpt><trkpt lat="43.3889883" lon="12.807135"><ele>707.5</ele><time>2026-04-25T09:21:49.928Z</time></trkpt><trkpt lat="43.3890167" lon="12.8072183"><ele>708.0</ele><time>2026-04-25T09:21:50.929Z</time></trkpt><trkpt lat="43.3890533" lon="12.807305"><ele>708.5</ele><time>2026-04-25T09:21:51.929Z</time></trkpt><trkpt lat="43.3891017" lon="12.8074017"><ele>709.0</ele><time>2026-04-25T09:21:52.981Z</time></trkpt><trkpt lat="43.3891517" lon="12.8075"><ele>709.5</ele><time>2026-04-25T09:21:53.916Z</time></trkpt><trkpt lat="43.3892067" lon="12.8076"><ele>710.0</ele><time>2026-04-25T09:21:54.928Z</time></trkpt><trkpt lat="43.3892617" lon="12.807685"><ele>710.0</ele><time>2026-04-25T09:21:55.93Z</time></trkpt><trkpt lat="43.38931" lon="12.8077683"><ele>710.0</ele><time>2026-04-25T09:21:56.925Z</time></trkpt><trkpt lat="43.3893583" lon="12.8078283"><ele>710.0</ele><time>2026-04-25T09:21:57.932Z</time></trkpt><trkpt lat="43.389435" lon="12.80796"><ele>710.0</ele><time>2026-04-25T09:21:59.92Z</time></trkpt><trkpt lat="43.38947" lon="12.80804"><ele>710.0</ele><time>2026-04-25T09:22:00.93Z</time></trkpt><trkpt lat="43.389505" lon="12.8081133"><ele>710.0</ele><time>2026-04-25T09:22:01.927Z</time></trkpt><trkpt lat="43.3895433" lon="12.8082667"><ele>710.0</ele><time>2026-04-25T09:22:03.929Z</time></trkpt><trkpt lat="43.3895683" lon="12.808415"><ele>710.0</ele><time>2026-04-25T09:22:05.919Z</time></trkpt><trkpt lat="43.3895833" lon="12.8085017"><ele>710.0</ele><time>2026-04-25T09:22:06.932Z</time></trkpt><trkpt lat="43.38963" lon="12.808665"><ele>710.0</ele><time>2026-04-25T09:22:08.932Z</time></trkpt><trkpt lat="43.3897083" lon="12.808805"><ele>710.0</ele><time>2026-04-25T09:22:10.976Z</time></trkpt><trkpt lat="43.3897533" lon="12.80887"><ele>710.3333333333333</ele><time>2026-04-25T09:22:11.927Z</time></trkpt><trkpt lat="43.389805" lon="12.8089367"><ele>710.6666666666666</ele><time>2026-04-25T09:22:12.927Z</time></trkpt><trkpt lat="43.389855" lon="12.8090117"><ele>711.0</ele><time>2026-04-25T09:22:13.936Z</time></trkpt><trkpt lat="43.3899117" lon="12.809145"><ele>711.3333333333334</ele><time>2026-04-25T09:22:14.931Z</time></trkpt><trkpt lat="43.3899583" lon="12.809215"><ele>711.6666666666667</ele><time>2026-04-25T09:22:15.926Z</time></trkpt><trkpt lat="43.390005" lon="12.80929"><ele>712.0</ele><time>2026-04-25T09:22:16.977Z</time></trkpt><trkpt lat="43.3900417" lon="12.8093617"><ele>712.0</ele><time>2026-04-25T09:22:17.928Z</time></trkpt><trkpt lat="43.3901133" lon="12.8094867"><ele>712.0</ele><time>2026-04-25T09:22:19.922Z</time></trkpt><trkpt lat="43.3901917" lon="12.8096017"><ele>712.0</ele><time>2026-04-25T09:22:21.923Z</time></trkpt><trkpt lat="43.3902633" lon="12.80974"><ele>712.0</ele><time>2026-04-25T09:22:23.923Z</time></trkpt><trkpt lat="43.3902967" lon="12.8098267"><ele>712.0</ele><time>2026-04-25T09:22:24.928Z</time></trkpt><trkpt lat="43.390325" lon="12.8099183"><ele>712.0</ele><time>2026-04-25T09:22:25.924Z</time></trkpt><trkpt lat="43.3903567" lon="12.8100183"><ele>712.0</ele><time>2026-04-25T09:22:26.929Z</time></trkpt><trkpt lat="43.3903883" lon="12.81012"><ele>712.0</ele><time>2026-04-25T09:22:27.923Z</time></trkpt><trkpt lat="43.3904233" lon="12.8102233"><ele>712.0</ele><time>2026-04-25T09:22:28.977Z</time></trkpt><trkpt lat="43.3904633" lon="12.8103317"><ele>712.0</ele><time>2026-04-25T09:22:29.917Z</time></trkpt><trkpt lat="43.3905017" lon="12.81044"><ele>712.0</ele><time>2026-04-25T09:22:30.926Z</time></trkpt><trkpt lat="43.3905383" lon="12.81055"><ele>711.6666666666667</ele><time>2026-04-25T09:22:31.925Z</time></trkpt><trkpt lat="43.3905767" lon="12.810655"><ele>711.3333333333334</ele><time>2026-04-25T09:22:32.925Z</time></trkpt><trkpt lat="43.390615" lon="12.8107533"><ele>711.0</ele><time>2026-04-25T09:22:33.917Z</time></trkpt><trkpt lat="43.39065" lon="12.8108517"><ele>710.6666666666666</ele><time>2026-04-25T09:22:34.975Z</time></trkpt><trkpt lat="43.3906867" lon="12.8109483"><ele>710.3333333333333</ele><time>2026-04-25T09:22:35.919Z</time></trkpt><trkpt lat="43.39072" lon="12.8110383"><ele>710.0</ele><time>2026-04-25T09:22:36.923Z</time></trkpt><trkpt lat="43.3907533" lon="12.8111367"><ele>709.8333333333333</ele><time>2026-04-25T09:22:37.925Z</time></trkpt><trkpt lat="43.39078" lon="12.8112367"><ele>709.6666666666666</ele><time>2026-04-25T09:22:38.926Z</time></trkpt><trkpt lat="43.3908133" lon="12.81134"><ele>709.5</ele><time>2026-04-25T09:22:39.946Z</time></trkpt><trkpt lat="43.3908433" lon="12.8114417"><ele>709.3333333333334</ele><time>2026-04-25T09:22:40.976Z</time></trkpt><trkpt lat="43.39088" lon="12.8115417"><ele>709.1666666666667</ele><time>2026-04-25T09:22:41.921Z</time></trkpt><trkpt lat="43.3909183" lon="12.811635"><ele>709.0</ele><time>2026-04-25T09:22:42.921Z</time></trkpt><trkpt lat="43.39096" lon="12.81173"><ele>708.0</ele><time>2026-04-25T09:22:43.927Z</time></trkpt><trkpt lat="43.3910017" lon="12.8118417"><ele>707.0</ele><time>2026-04-25T09:22:44.92Z</time></trkpt><trkpt lat="43.3910433" lon="12.8119533"><ele>706.0</ele><time>2026-04-25T09:22:45.921Z</time></trkpt><trkpt lat="43.3910733" lon="12.812055"><ele>705.0</ele><time>2026-04-25T09:22:46.97Z</time></trkpt><trkpt lat="43.391115" lon="12.8121333"><ele>704.0</ele><time>2026-04-25T09:22:47.926Z</time></trkpt><trkpt lat="43.391165" lon="12.8122183"><ele>703.0</ele><time>2026-04-25T09:22:48.925Z</time></trkpt><trkpt lat="43.39121" lon="12.812295"><ele>703.0</ele><time>2026-04-25T09:22:49.925Z</time></trkpt><trkpt lat="43.39126" lon="12.8123833"><ele>703.0</ele><time>2026-04-25T09:22:50.929Z</time></trkpt><trkpt lat="43.3913067" lon="12.8124717"><ele>703.0</ele><time>2026-04-25T09:22:51.924Z</time></trkpt><trkpt lat="43.3913467" lon="12.8125567"><ele>703.0</ele><time>2026-04-25T09:22:52.977Z</time></trkpt><trkpt lat="43.3913867" lon="12.8126483"><ele>703.0</ele><time>2026-04-25T09:22:53.919Z</time></trkpt><trkpt lat="43.3914333" lon="12.8127433"><ele>703.0</ele><time>2026-04-25T09:22:54.927Z</time></trkpt><trkpt lat="43.3914817" lon="12.812835"><ele>702.8571428571429</ele><time>2026-04-25T09:22:55.927Z</time></trkpt><trkpt lat="43.3915233" lon="12.8129267"><ele>702.7142857142858</ele><time>2026-04-25T09:22:56.924Z</time></trkpt><trkpt lat="43.3915617" lon="12.813015"><ele>702.5714285714287</ele><time>2026-04-25T09:22:57.919Z</time></trkpt><trkpt lat="43.3916017" lon="12.8130967"><ele>702.4285714285714</ele><time>2026-04-25T09:22:58.973Z</time></trkpt><trkpt lat="43.3916433" lon="12.8131817"><ele>702.2857142857143</ele><time>2026-04-25T09:22:59.924Z</time></trkpt><trkpt lat="43.3916867" lon="12.8132617"><ele>702.1428571428572</ele><time>2026-04-25T09:23:00.921Z</time></trkpt><trkpt lat="43.39173" lon="12.813335"><ele>702.0</ele><time>2026-04-25T09:23:01.921Z</time></trkpt><trkpt lat="43.3917667" lon="12.8134117"><ele>702.0</ele><time>2026-04-25T09:23:02.931Z</time></trkpt><trkpt lat="43.3918067" lon="12.8134833"><ele>702.0</ele><time>2026-04-25T09:23:03.936Z</time></trkpt><trkpt lat="43.391845" lon="12.813555"><ele>702.0</ele><time>2026-04-25T09:23:04.974Z</time></trkpt><trkpt lat="43.3919117" lon="12.813695"><ele>702.0</ele><time>2026-04-25T09:23:06.927Z</time></trkpt><trkpt lat="43.391955" lon="12.8138483"><ele>702.0</ele><time>2026-04-25T09:23:08.931Z</time></trkpt><trkpt lat="43.3919717" lon="12.8139333"><ele>702.0</ele><time>2026-04-25T09:23:09.927Z</time></trkpt><trkpt lat="43.3919917" lon="12.81402"><ele>701.4000000000001</ele><time>2026-04-25T09:23:10.972Z</time></trkpt><trkpt lat="43.3920167" lon="12.8141033"><ele>700.8000000000001</ele><time>2026-04-25T09:23:11.921Z</time></trkpt><trkpt lat="43.3920417" lon="12.8141867"><ele>700.2</ele><time>2026-04-25T09:23:12.921Z</time></trkpt><trkpt lat="43.39208" lon="12.8143317"><ele>699.6</ele><time>2026-04-25T09:23:14.923Z</time></trkpt><trkpt lat="43.39213" lon="12.81446"><ele>699.0</ele><time>2026-04-25T09:23:16.975Z</time></trkpt><trkpt lat="43.3921767" lon="12.8145983"><ele>697.0</ele><time>2026-04-25T09:23:18.928Z</time></trkpt><trkpt lat="43.3922317" lon="12.8147483"><ele>695.0</ele><time>2026-04-25T09:23:20.923Z</time></trkpt><trkpt lat="43.3922783" lon="12.81489"><ele>693.0</ele><time>2026-04-25T09:23:22.979Z</time></trkpt><trkpt lat="43.3923217" lon="12.815035"><ele>691.0</ele><time>2026-04-25T09:23:24.933Z</time></trkpt><trkpt lat="43.3923767" lon="12.8151817"><ele>689.0</ele><time>2026-04-25T09:23:26.93Z</time></trkpt><trkpt lat="43.3924317" lon="12.8153283"><ele>687.0</ele><time>2026-04-25T09:23:28.985Z</time></trkpt><trkpt lat="43.3924917" lon="12.8154533"><ele>685.0</ele><time>2026-04-25T09:23:30.926Z</time></trkpt><trkpt lat="43.3925533" lon="12.8155867"><ele>683.0</ele><time>2026-04-25T09:23:32.921Z</time></trkpt><trkpt lat="43.3926217" lon="12.8157267"><ele>683.0</ele><time>2026-04-25T09:23:34.981Z</time></trkpt><trkpt lat="43.39269" lon="12.8158617"><ele>683.0</ele><time>2026-04-25T09:23:36.932Z</time></trkpt><trkpt lat="43.392745" lon="12.8159767"><ele>683.0</ele><time>2026-04-25T09:23:38.924Z</time></trkpt><trkpt lat="43.3928" lon="12.816075"><ele>683.0</ele><time>2026-04-25T09:23:40.973Z</time></trkpt><trkpt lat="43.3928467" lon="12.8161733"><ele>683.0</ele><time>2026-04-25T09:23:42.928Z</time></trkpt><trkpt lat="43.3929083" lon="12.8162733"><ele>680.2</ele><time>2026-04-25T09:23:44.92Z</time></trkpt><trkpt lat="43.392995" lon="12.81637"><ele>677.4</ele><time>2026-04-25T09:23:46.974Z</time></trkpt><trkpt lat="43.3930917" lon="12.8164583"><ele>674.6</ele><time>2026-04-25T09:23:48.924Z</time></trkpt><trkpt lat="43.3931583" lon="12.8165083"><ele>671.8000000000001</ele><time>2026-04-25T09:23:49.924Z</time></trkpt><trkpt lat="43.393225" lon="12.8165983"><ele>669.0</ele><time>2026-04-25T09:23:51.923Z</time></trkpt><trkpt lat="43.393285" lon="12.8166883"><ele>668.8333333333334</ele><time>2026-04-25T09:23:53.922Z</time></trkpt><trkpt lat="43.39333" lon="12.8167817"><ele>668.6666666666666</ele><time>2026-04-25T09:23:55.923Z</time></trkpt><trkpt lat="43.3933917" lon="12.8168567"><ele>668.5</ele><time>2026-04-25T09:23:57.922Z</time></trkpt><trkpt lat="43.3934733" lon="12.8169233"><ele>668.3333333333333</ele><time>2026-04-25T09:23:59.925Z</time></trkpt><trkpt lat="43.39356" lon="12.816985"><ele>668.1666666666666</ele><time>2026-04-25T09:24:01.93Z</time></trkpt><trkpt lat="43.3936167" lon="12.8170267"><ele>668.0</ele><time>2026-04-25T09:24:03.921Z</time></trkpt><trkpt lat="43.3936983" lon="12.8170633"><ele>666.1666666666666</ele><time>2026-04-25T09:24:06.926Z</time></trkpt><trkpt lat="43.3937917" lon="12.8170883"><ele>664.3333333333333</ele><time>2026-04-25T09:24:08.925Z</time></trkpt><trkpt lat="43.3938817" lon="12.8171367"><ele>662.5</ele><time>2026-04-25T09:24:10.975Z</time></trkpt><trkpt lat="43.3939567" lon="12.8171717"><ele>660.6666666666666</ele><time>2026-04-25T09:24:12.926Z</time></trkpt><trkpt lat="43.39404" lon="12.8172"><ele>658.8333333333334</ele><time>2026-04-25T09:24:15.929Z</time></trkpt><trkpt lat="43.3941033" lon="12.817135"><ele>657.0</ele><time>2026-04-25T09:24:19.931Z</time></trkpt><trkpt lat="43.3941117" lon="12.81699"><ele>655.8</ele><time>2026-04-25T09:24:21.929Z</time></trkpt><trkpt lat="43.3941167" lon="12.8168533"><ele>654.6</ele><time>2026-04-25T09:24:23.922Z</time></trkpt><trkpt lat="43.394115" lon="12.8167283"><ele>653.4</ele><time>2026-04-25T09:24:25.928Z</time></trkpt><trkpt lat="43.3941333" lon="12.816605"><ele>652.1999999999999</ele><time>2026-04-25T09:24:27.924Z</time></trkpt><trkpt lat="43.3941383" lon="12.8164567"><ele>651.0</ele><time>2026-04-25T09:24:29.925Z</time></trkpt><trkpt lat="43.3941283" lon="12.8162733"><ele>651.0</ele><time>2026-04-25T09:24:31.924Z</time></trkpt><trkpt lat="43.3941283" lon="12.816165"><ele>651.0</ele><time>2026-04-25T09:24:32.928Z</time></trkpt><trkpt lat="43.394125" lon="12.8160633"><ele>651.0</ele><time>2026-04-25T09:24:33.921Z</time></trkpt><trkpt lat="43.3941017" lon="12.8159483"><ele>651.0</ele><time>2026-04-25T09:24:34.975Z</time></trkpt><trkpt lat="43.3940833" lon="12.8158117"><ele>651.0</ele><time>2026-04-25T09:24:35.928Z</time></trkpt><trkpt lat="43.3940617" lon="12.81568"><ele>651.0</ele><time>2026-04-25T09:24:36.928Z</time></trkpt><trkpt lat="43.3940483" lon="12.8155683"><ele>651.0</ele><time>2026-04-25T09:24:37.924Z</time></trkpt><trkpt lat="43.3940317" lon="12.8154617"><ele>651.0</ele><time>2026-04-25T09:24:38.926Z</time></trkpt><trkpt lat="43.3940183" lon="12.8153517"><ele>651.0</ele><time>2026-04-25T09:24:39.919Z</time></trkpt><trkpt lat="43.3940283" lon="12.8152517"><ele>651.0</ele><time>2026-04-25T09:24:40.977Z</time></trkpt><trkpt lat="43.3940217" lon="12.81514"><ele>651.0</ele><time>2026-04-25T09:24:41.926Z</time></trkpt><trkpt lat="43.3940117" lon="12.8150483"><ele>651.0</ele><time>2026-04-25T09:24:42.925Z</time></trkpt><trkpt lat="43.3940017" lon="12.81496"><ele>651.0</ele><time>2026-04-25T09:24:43.928Z</time></trkpt><trkpt lat="43.3939967" lon="12.8148583"><ele>651.0</ele><time>2026-04-25T09:24:44.927Z</time></trkpt><trkpt lat="43.3939883" lon="12.8147517"><ele>651.0</ele><time>2026-04-25T09:24:45.93Z</time></trkpt><trkpt lat="43.3939817" lon="12.8146433"><ele>651.0</ele><time>2026-04-25T09:24:46.97Z</time></trkpt><trkpt lat="43.39397" lon="12.8145317"><ele>651.0</ele><time>2026-04-25T09:24:47.926Z</time></trkpt><trkpt lat="43.3939517" lon="12.8144117"><ele>651.0</ele><time>2026-04-25T09:24:48.932Z</time></trkpt><trkpt lat="43.3939317" lon="12.814285"><ele>651.0</ele><time>2026-04-25T09:24:49.926Z</time></trkpt><trkpt lat="43.393905" lon="12.8141517"><ele>649.5</ele><time>2026-04-25T09:24:50.931Z</time></trkpt><trkpt lat="43.3938667" lon="12.81404"><ele>648.0</ele><time>2026-04-25T09:24:51.929Z</time></trkpt><trkpt lat="43.3938317" lon="12.81394"><ele>646.5</ele><time>2026-04-25T09:24:52.991Z</time></trkpt><trkpt lat="43.3938" lon="12.81384"><ele>645.0</ele><time>2026-04-25T09:24:53.927Z</time></trkpt><trkpt lat="43.3937717" lon="12.8137433"><ele>643.5</ele><time>2026-04-25T09:24:54.926Z</time></trkpt><trkpt lat="43.3937417" lon="12.8136617"><ele>642.0</ele><time>2026-04-25T09:24:55.925Z</time></trkpt><trkpt lat="43.3936733" lon="12.81354"><ele>646.6</ele><time>2026-04-25T09:24:57.919Z</time></trkpt><trkpt lat="43.393615" lon="12.8134283"><ele>651.2</ele><time>2026-04-25T09:24:59.918Z</time></trkpt><trkpt lat="43.3935483" lon="12.81329"><ele>655.8</ele><time>2026-04-25T09:25:01.92Z</time></trkpt><trkpt lat="43.3934883" lon="12.81317"><ele>660.4</ele><time>2026-04-25T09:25:03.927Z</time></trkpt><trkpt lat="43.3934283" lon="12.813055"><ele>665.0</ele><time>2026-04-25T09:25:05.926Z</time></trkpt><trkpt lat="43.3933717" lon="12.81294"><ele>665.0</ele><time>2026-04-25T09:25:07.93Z</time></trkpt><trkpt lat="43.393335" lon="12.8128267"><ele>665.0</ele><time>2026-04-25T09:25:10.969Z</time></trkpt><trkpt lat="43.3932933" lon="12.81265"><ele>665.0</ele><time>2026-04-25T09:25:13.923Z</time></trkpt><trkpt lat="43.3932717" lon="12.8125217"><ele>665.0</ele><time>2026-04-25T09:25:16.977Z</time></trkpt><trkpt lat="43.3932617" lon="12.812435"><ele>665.0</ele><time>2026-04-25T09:25:18.927Z</time></trkpt><trkpt lat="43.3932417" lon="12.8123167"><ele>662.6</ele><time>2026-04-25T09:25:21.921Z</time></trkpt><trkpt lat="43.3932317" lon="12.812215"><ele>660.2</ele><time>2026-04-25T09:25:23.925Z</time></trkpt><trkpt lat="43.3932017" lon="12.8121217"><ele>657.8</ele><time>2026-04-25T09:25:25.929Z</time></trkpt><trkpt lat="43.3931733" lon="12.8119883"><ele>655.4</ele><time>2026-04-25T09:25:28.985Z</time></trkpt><trkpt lat="43.3931217" lon="12.8118683"><ele>653.0</ele><time>2026-04-25T09:25:30.927Z</time></trkpt><trkpt lat="43.3930133" lon="12.81168"><ele>656.5999999999999</ele><time>2026-04-25T09:25:32.927Z</time></trkpt><trkpt lat="43.39297" lon="12.81158"><ele>660.1999999999999</ele><time>2026-04-25T09:25:33.928Z</time></trkpt><trkpt lat="43.39291" lon="12.8114917"><ele>663.8</ele><time>2026-04-25T09:25:34.969Z</time></trkpt><trkpt lat="43.392845" lon="12.8113933"><ele>667.4</ele><time>2026-04-25T09:25:35.926Z</time></trkpt><trkpt lat="43.3927933" lon="12.811295"><ele>671.0</ele><time>2026-04-25T09:25:36.93Z</time></trkpt><trkpt lat="43.392695" lon="12.8112183"><ele>671.0</ele><time>2026-04-25T09:25:37.922Z</time></trkpt><trkpt lat="43.392605" lon="12.8111317"><ele>671.0</ele><time>2026-04-25T09:25:38.929Z</time></trkpt><trkpt lat="43.392515" lon="12.811045"><ele>671.0</ele><time>2026-04-25T09:25:39.929Z</time></trkpt><trkpt lat="43.3924283" lon="12.81096"><ele>671.0</ele><time>2026-04-25T09:25:40.984Z</time></trkpt><trkpt lat="43.3923517" lon="12.81088"><ele>671.0</ele><time>2026-04-25T09:25:41.927Z</time></trkpt><trkpt lat="43.3922883" lon="12.8108017"><ele>668.6666666666666</ele><time>2026-04-25T09:25:42.929Z</time></trkpt><trkpt lat="43.3922267" lon="12.810725"><ele>666.3333333333333</ele><time>2026-04-25T09:25:43.929Z</time></trkpt><trkpt lat="43.3921567" lon="12.810635"><ele>664.0</ele><time>2026-04-25T09:25:44.928Z</time></trkpt><trkpt lat="43.392105" lon="12.8105483"><ele>661.6666666666666</ele><time>2026-04-25T09:25:45.92Z</time></trkpt><trkpt lat="43.392065" lon="12.810445"><ele>659.3333333333334</ele><time>2026-04-25T09:25:46.973Z</time></trkpt><trkpt lat="43.3920067" lon="12.8103483"><ele>657.0</ele><time>2026-04-25T09:25:47.928Z</time></trkpt><trkpt lat="43.3919433" lon="12.8102483"><ele>660.2</ele><time>2026-04-25T09:25:48.928Z</time></trkpt><trkpt lat="43.3918817" lon="12.8101517"><ele>663.4000000000001</ele><time>2026-04-25T09:25:49.923Z</time></trkpt><trkpt lat="43.39181" lon="12.810045"><ele>666.5999999999999</ele><time>2026-04-25T09:25:50.931Z</time></trkpt><trkpt lat="43.39175" lon="12.809945"><ele>669.8</ele><time>2026-04-25T09:25:51.922Z</time></trkpt><trkpt lat="43.3916933" lon="12.8098267"><ele>673.0</ele><time>2026-04-25T09:25:52.963Z</time></trkpt><trkpt lat="43.3916533" lon="12.8096983"><ele>673.0</ele><time>2026-04-25T09:25:53.92Z</time></trkpt><trkpt lat="43.3916467" lon="12.8095567"><ele>673.0</ele><time>2026-04-25T09:25:54.933Z</time></trkpt><trkpt lat="43.3916333" lon="12.8094167"><ele>673.0</ele><time>2026-04-25T09:25:55.928Z</time></trkpt><trkpt lat="43.3915967" lon="12.8093167"><ele>673.0</ele><time>2026-04-25T09:25:56.928Z</time></trkpt><trkpt lat="43.3915483" lon="12.8092083"><ele>673.0</ele><time>2026-04-25T09:25:57.923Z</time></trkpt><trkpt lat="43.3914933" lon="12.809135"><ele>670.6666666666667</ele><time>2026-04-25T09:25:58.982Z</time></trkpt><trkpt lat="43.39144" lon="12.809035"><ele>668.3333333333334</ele><time>2026-04-25T09:25:59.922Z</time></trkpt><trkpt lat="43.39139" lon="12.8089567"><ele>666.0</ele><time>2026-04-25T09:26:00.924Z</time></trkpt><trkpt lat="43.391335" lon="12.8088717"><ele>663.6666666666666</ele><time>2026-04-25T09:26:01.92Z</time></trkpt><trkpt lat="43.3912783" lon="12.8088117"><ele>661.3333333333333</ele><time>2026-04-25T09:26:02.93Z</time></trkpt><trkpt lat="43.3912333" lon="12.80873"><ele>659.0</ele><time>2026-04-25T09:26:03.92Z</time></trkpt><trkpt lat="43.3911983" lon="12.8086467"><ele>662.0</ele><time>2026-04-25T09:26:04.975Z</time></trkpt><trkpt lat="43.39114" lon="12.808515"><ele>665.0</ele><time>2026-04-25T09:26:06.927Z</time></trkpt><trkpt lat="43.39109" lon="12.8083767"><ele>668.0</ele><time>2026-04-25T09:26:08.924Z</time></trkpt><trkpt lat="43.391055" lon="12.8082983"><ele>671.0</ele><time>2026-04-25T09:26:09.922Z</time></trkpt><trkpt lat="43.3910317" lon="12.8082"><ele>674.0</ele><time>2026-04-25T09:26:10.974Z</time></trkpt><trkpt lat="43.391005" lon="12.8081017"><ele>677.0</ele><time>2026-04-25T09:26:11.922Z</time></trkpt><trkpt lat="43.3909683" lon="12.80799"><ele>677.0</ele><time>2026-04-25T09:26:12.928Z</time></trkpt><trkpt lat="43.390915" lon="12.8078517"><ele>677.0</ele><time>2026-04-25T09:26:13.927Z</time></trkpt><trkpt lat="43.3908317" lon="12.8077267"><ele>677.0</ele><time>2026-04-25T09:26:14.928Z</time></trkpt><trkpt lat="43.3907683" lon="12.8076067"><ele>677.0</ele><time>2026-04-25T09:26:15.921Z</time></trkpt><trkpt lat="43.390705" lon="12.807495"><ele>677.0</ele><time>2026-04-25T09:26:16.978Z</time></trkpt><trkpt lat="43.3906433" lon="12.8073833"><ele>680.4000000000001</ele><time>2026-04-25T09:26:17.922Z</time></trkpt><trkpt lat="43.390555" lon="12.807315"><ele>683.8000000000001</ele><time>2026-04-25T09:26:18.927Z</time></trkpt><trkpt lat="43.3904883" lon="12.8072383"><ele>687.2</ele><time>2026-04-25T09:26:19.921Z</time></trkpt><trkpt lat="43.39042" lon="12.8071483"><ele>690.6</ele><time>2026-04-25T09:26:20.929Z</time></trkpt><trkpt lat="43.3903617" lon="12.8070717"><ele>694.0</ele><time>2026-04-25T09:26:21.926Z</time></trkpt><trkpt lat="43.39029" lon="12.8069967"><ele>694.0</ele><time>2026-04-25T09:26:22.992Z</time></trkpt><trkpt lat="43.390205" lon="12.8069433"><ele>694.0</ele><time>2026-04-25T09:26:23.923Z</time></trkpt><trkpt lat="43.39012" lon="12.806905"><ele>694.0</ele><time>2026-04-25T09:26:24.925Z</time></trkpt><trkpt lat="43.390035" lon="12.8068633"><ele>694.0</ele><time>2026-04-25T09:26:25.917Z</time></trkpt><trkpt lat="43.3899517" lon="12.8068167"><ele>694.0</ele><time>2026-04-25T09:26:26.924Z</time></trkpt><trkpt lat="43.389875" lon="12.8067517"><ele>696.0</ele><time>2026-04-25T09:26:27.921Z</time></trkpt><trkpt lat="43.3898067" lon="12.806675"><ele>698.0</ele><time>2026-04-25T09:26:28.986Z</time></trkpt><trkpt lat="43.3897467" lon="12.8066067"><ele>700.0</ele><time>2026-04-25T09:26:29.921Z</time></trkpt><trkpt lat="43.389685" lon="12.8065367"><ele>702.0</ele><time>2026-04-25T09:26:30.925Z</time></trkpt><trkpt lat="43.3896317" lon="12.8064467"><ele>704.0</ele><time>2026-04-25T09:26:31.975Z</time></trkpt><trkpt lat="43.3895717" lon="12.806365"><ele>706.0</ele><time>2026-04-25T09:26:32.922Z</time></trkpt><trkpt lat="43.389525" lon="12.8062417"><ele>706.0</ele><time>2026-04-25T09:26:33.921Z</time></trkpt><trkpt lat="43.38948" lon="12.8061033"><ele>706.0</ele><time>2026-04-25T09:26:34.967Z</time></trkpt><trkpt lat="43.3894283" lon="12.8059683"><ele>706.0</ele><time>2026-04-25T09:26:35.923Z</time></trkpt><trkpt lat="43.389365" lon="12.8058317"><ele>706.0</ele><time>2026-04-25T09:26:36.922Z</time></trkpt><trkpt lat="43.3892983" lon="12.805795"><ele>706.0</ele><time>2026-04-25T09:26:37.924Z</time></trkpt><trkpt lat="43.3892467" lon="12.8057267"><ele>701.3333333333334</ele><time>2026-04-25T09:26:38.928Z</time></trkpt><trkpt lat="43.3892" lon="12.8056367"><ele>696.6666666666667</ele><time>2026-04-25T09:26:39.919Z</time></trkpt><trkpt lat="43.389125" lon="12.805535"><ele>692.0</ele><time>2026-04-25T09:26:40.974Z</time></trkpt><trkpt lat="43.3890583" lon="12.8054817"><ele>687.3333333333334</ele><time>2026-04-25T09:26:41.922Z</time></trkpt><trkpt lat="43.3889983" lon="12.8054417"><ele>682.6666666666666</ele><time>2026-04-25T09:26:42.93Z</time></trkpt><trkpt lat="43.3889417" lon="12.8054"><ele>678.0</ele><time>2026-04-25T09:26:43.925Z</time></trkpt><trkpt lat="43.38888" lon="12.80533"><ele>678.8333333333334</ele><time>2026-04-25T09:26:44.924Z</time></trkpt><trkpt lat="43.3888133" lon="12.8052583"><ele>679.6666666666666</ele><time>2026-04-25T09:26:45.927Z</time></trkpt><trkpt lat="43.388765" lon="12.8051683"><ele>680.5</ele><time>2026-04-25T09:26:46.97Z</time></trkpt><trkpt lat="43.3887183" lon="12.805075"><ele>681.3333333333333</ele><time>2026-04-25T09:26:47.923Z</time></trkpt><trkpt lat="43.38865" lon="12.805"><ele>682.1666666666666</ele><time>2026-04-25T09:26:48.92Z</time></trkpt><trkpt lat="43.388585" lon="12.8049167"><ele>683.0</ele><time>2026-04-25T09:26:49.92Z</time></trkpt><trkpt lat="43.3885283" lon="12.8048417"><ele>683.0</ele><time>2026-04-25T09:26:50.921Z</time></trkpt><trkpt lat="43.38846" lon="12.804695"><ele>683.0</ele><time>2026-04-25T09:26:52.993Z</time></trkpt><trkpt lat="43.3884267" lon="12.804615"><ele>683.0</ele><time>2026-04-25T09:26:53.919Z</time></trkpt><trkpt lat="43.388335" lon="12.8044933"><ele>683.0</ele><time>2026-04-25T09:26:55.926Z</time></trkpt><trkpt lat="43.388275" lon="12.80441"><ele>683.0</ele><time>2026-04-25T09:26:56.925Z</time></trkpt><trkpt lat="43.3882183" lon="12.8043233"><ele>686.4</ele><time>2026-04-25T09:26:57.932Z</time></trkpt><trkpt lat="43.38816" lon="12.8042367"><ele>689.8</ele><time>2026-04-25T09:26:58.982Z</time></trkpt><trkpt lat="43.3880933" lon="12.8041417"><ele>693.2</ele><time>2026-04-25T09:26:59.926Z</time></trkpt><trkpt lat="43.38802" lon="12.8040383"><ele>696.6</ele><time>2026-04-25T09:27:00.936Z</time></trkpt><trkpt lat="43.3879567" lon="12.8039317"><ele>700.0</ele><time>2026-04-25T09:27:01.925Z</time></trkpt><trkpt lat="43.3878983" lon="12.8038117"><ele>700.0</ele><time>2026-04-25T09:27:02.929Z</time></trkpt><trkpt lat="43.3878483" lon="12.8036917"><ele>700.0</ele><time>2026-04-25T09:27:03.925Z</time></trkpt><trkpt lat="43.38778" lon="12.8035617"><ele>700.0</ele><time>2026-04-25T09:27:04.977Z</time></trkpt><trkpt lat="43.38771" lon="12.8034483"><ele>700.0</ele><time>2026-04-25T09:27:05.927Z</time></trkpt><trkpt lat="43.3876467" lon="12.8033367"><ele>700.0</ele><time>2026-04-25T09:27:06.931Z</time></trkpt><trkpt lat="43.387585" lon="12.8032283"><ele>695.6</ele><time>2026-04-25T09:27:07.925Z</time></trkpt><trkpt lat="43.3875333" lon="12.80313"><ele>691.2</ele><time>2026-04-25T09:27:08.927Z</time></trkpt><trkpt lat="43.38749" lon="12.803045"><ele>686.8</ele><time>2026-04-25T09:27:09.929Z</time></trkpt><trkpt lat="43.3874083" lon="12.8029"><ele>682.4</ele><time>2026-04-25T09:27:11.944Z</time></trkpt><trkpt lat="43.3873533" lon="12.8028067"><ele>678.0</ele><time>2026-04-25T09:27:12.921Z</time></trkpt><trkpt lat="43.3873033" lon="12.8027383"><ele>675.5</ele><time>2026-04-25T09:27:13.928Z</time></trkpt><trkpt lat="43.3873" lon="12.8026367"><ele>673.0</ele><time>2026-04-25T09:27:14.927Z</time></trkpt><trkpt lat="43.387305" lon="12.8025233"><ele>670.5</ele><time>2026-04-25T09:27:15.924Z</time></trkpt><trkpt lat="43.3873217" lon="12.8023717"><ele>668.0</ele><time>2026-04-25T09:27:16.973Z</time></trkpt><trkpt lat="43.3873283" lon="12.80225"><ele>665.5</ele><time>2026-04-25T09:27:17.924Z</time></trkpt><trkpt lat="43.3873183" lon="12.8021467"><ele>663.0</ele><time>2026-04-25T09:27:18.928Z</time></trkpt><trkpt lat="43.3873117" lon="12.8020333"><ele>663.0</ele><time>2026-04-25T09:27:19.922Z</time></trkpt><trkpt lat="43.3872883" lon="12.8019267"><ele>663.0</ele><time>2026-04-25T09:27:20.92Z</time></trkpt><trkpt lat="43.38728" lon="12.8018267"><ele>663.0</ele><time>2026-04-25T09:27:21.925Z</time></trkpt><trkpt lat="43.38727" lon="12.801725"><ele>663.0</ele><time>2026-04-25T09:27:22.989Z</time></trkpt><trkpt lat="43.3872683" lon="12.8016317"><ele>663.0</ele><time>2026-04-25T09:27:23.92Z</time></trkpt><trkpt lat="43.3872633" lon="12.8015417"><ele>663.0</ele><time>2026-04-25T09:27:24.922Z</time></trkpt><trkpt lat="43.3872667" lon="12.8013867"><ele>662.5999999999999</ele><time>2026-04-25T09:27:26.928Z</time></trkpt><trkpt lat="43.38727" lon="12.801225"><ele>662.1999999999999</ele><time>2026-04-25T09:27:28.976Z</time></trkpt><trkpt lat="43.3872917" lon="12.80112"><ele>661.8</ele><time>2026-04-25T09:27:29.915Z</time></trkpt><trkpt lat="43.3873017" lon="12.8010317"><ele>661.4</ele><time>2026-04-25T09:27:30.922Z</time></trkpt><trkpt lat="43.3872917" lon="12.8008583"><ele>661.0</ele><time>2026-04-25T09:27:32.929Z</time></trkpt><trkpt lat="43.3872983" lon="12.8006833"><ele>663.1999999999999</ele><time>2026-04-25T09:27:34.976Z</time></trkpt><trkpt lat="43.3873083" lon="12.8005733"><ele>665.4</ele><time>2026-04-25T09:27:35.92Z</time></trkpt><trkpt lat="43.3873267" lon="12.8004717"><ele>667.6</ele><time>2026-04-25T09:27:36.924Z</time></trkpt><trkpt lat="43.3873783" lon="12.8003217"><ele>669.8</ele><time>2026-04-25T09:27:38.928Z</time></trkpt><trkpt lat="43.387405" lon="12.80019"><ele>672.0</ele><time>2026-04-25T09:27:40.972Z</time></trkpt><trkpt lat="43.3874233" lon="12.8000367"><ele>675.0</ele><time>2026-04-25T09:27:42.926Z</time></trkpt><trkpt lat="43.3874533" lon="12.79988"><ele>678.0</ele><time>2026-04-25T09:27:44.925Z</time></trkpt><trkpt lat="43.387515" lon="12.7998433"><ele>681.0</ele><time>2026-04-25T09:27:45.928Z</time></trkpt><trkpt lat="43.3875783" lon="12.79982"><ele>684.0</ele><time>2026-04-25T09:27:46.967Z</time></trkpt><trkpt lat="43.38769" lon="12.7997767"><ele>687.0</ele><time>2026-04-25T09:27:48.923Z</time></trkpt><trkpt lat="43.3877617" lon="12.7997317"><ele>690.0</ele><time>2026-04-25T09:27:49.927Z</time></trkpt><trkpt lat="43.387815" lon="12.79967"><ele>690.0</ele><time>2026-04-25T09:27:50.926Z</time></trkpt><trkpt lat="43.3878517" lon="12.7995783"><ele>690.0</ele><time>2026-04-25T09:27:51.921Z</time></trkpt><trkpt lat="43.38789" lon="12.7994783"><ele>690.0</ele><time>2026-04-25T09:27:52.986Z</time></trkpt><trkpt lat="43.3879183" lon="12.7993717"><ele>690.0</ele><time>2026-04-25T09:27:53.927Z</time></trkpt><trkpt lat="43.3879433" lon="12.7992467"><ele>690.0</ele><time>2026-04-25T09:27:54.926Z</time></trkpt><trkpt lat="43.3879467" lon="12.7991417"><ele>690.0</ele><time>2026-04-25T09:27:55.921Z</time></trkpt><trkpt lat="43.38795" lon="12.79904"><ele>690.6</ele><time>2026-04-25T09:27:56.925Z</time></trkpt><trkpt lat="43.387945" lon="12.7988783"><ele>691.2</ele><time>2026-04-25T09:27:58.978Z</time></trkpt><trkpt lat="43.38795" lon="12.79875"><ele>691.8</ele><time>2026-04-25T09:28:00.933Z</time></trkpt><trkpt lat="43.387965" lon="12.7986367"><ele>692.4</ele><time>2026-04-25T09:28:02.926Z</time></trkpt><trkpt lat="43.3879783" lon="12.79852"><ele>693.0</ele><time>2026-04-25T09:28:04.969Z</time></trkpt><trkpt lat="43.3880083" lon="12.7984067"><ele>690.3333333333334</ele><time>2026-04-25T09:28:06.922Z</time></trkpt><trkpt lat="43.3880533" lon="12.7983033"><ele>687.6666666666666</ele><time>2026-04-25T09:28:08.928Z</time></trkpt><trkpt lat="43.388095" lon="12.7981867"><ele>685.0</ele><time>2026-04-25T09:28:10.975Z</time></trkpt><trkpt lat="43.3881567" lon="12.798095"><ele>682.3333333333333</ele><time>2026-04-25T09:28:12.927Z</time></trkpt><trkpt lat="43.38822" lon="12.7980167"><ele>679.6666666666666</ele><time>2026-04-25T09:28:14.926Z</time></trkpt><trkpt lat="43.3882917" lon="12.7979517"><ele>677.0</ele><time>2026-04-25T09:28:16.97Z</time></trkpt><trkpt lat="43.3883833" lon="12.79786"><ele>677.0</ele><time>2026-04-25T09:28:18.925Z</time></trkpt><trkpt lat="43.388475" lon="12.7977567"><ele>677.0</ele><time>2026-04-25T09:28:20.918Z</time></trkpt><trkpt lat="43.3885733" lon="12.7976683"><ele>677.0</ele><time>2026-04-25T09:28:22.96Z</time></trkpt><trkpt lat="43.38867" lon="12.7976033"><ele>677.0</ele><time>2026-04-25T09:28:24.927Z</time></trkpt><trkpt lat="43.3887733" lon="12.7975467"><ele>677.4285714285713</ele><time>2026-04-25T09:28:26.926Z</time></trkpt><trkpt lat="43.3888617" lon="12.7975083"><ele>677.8571428571429</ele><time>2026-04-25T09:28:28.983Z</time></trkpt><trkpt lat="43.3889217" lon="12.79748"><ele>678.2857142857142</ele><time>2026-04-25T09:28:30.926Z</time></trkpt><trkpt lat="43.38894" lon="12.79739"><ele>678.7142857142857</ele><time>2026-04-25T09:28:38.931Z</time></trkpt><trkpt lat="43.3888967" lon="12.797315"><ele>679.1428571428571</ele><time>2026-04-25T09:28:41.925Z</time></trkpt><trkpt lat="43.3888617" lon="12.797395"><ele>679.5714285714286</ele><time>2026-04-25T09:30:55.925Z</time></trkpt><trkpt lat="43.3887967" lon="12.797415"><ele>680.0</ele><time>2026-04-25T09:35:41.923Z</time></trkpt><trkpt lat="43.38888" lon="12.7974083"><ele>680.0</ele><time>2026-04-25T09:36:21.924Z</time></trkpt><trkpt lat="43.3888883" lon="12.7975167"><ele>680.0</ele><time>2026-04-25T09:36:23.919Z</time></trkpt><trkpt lat="43.3888167" lon="12.7975933"><ele>680.0</ele><time>2026-04-25T09:36:25.92Z</time></trkpt><trkpt lat="43.38869" lon="12.7976383"><ele>680.0</ele><time>2026-04-25T09:36:27.925Z</time></trkpt><trkpt lat="43.3886183" lon="12.7976617"><ele>680.0</ele><time>2026-04-25T09:36:28.983Z</time></trkpt><trkpt lat="43.3885467" lon="12.797685"><ele>680.0</ele><time>2026-04-25T09:36:29.921Z</time></trkpt><trkpt lat="43.3884633" lon="12.7977117"><ele>679.4</ele><time>2026-04-25T09:36:30.925Z</time></trkpt><trkpt lat="43.3883733" lon="12.7977283"><ele>678.8</ele><time>2026-04-25T09:36:31.924Z</time></trkpt><trkpt lat="43.3882733" lon="12.797745"><ele>678.2</ele><time>2026-04-25T09:36:32.927Z</time></trkpt><trkpt lat="43.3881717" lon="12.797765"><ele>677.6</ele><time>2026-04-25T09:36:33.92Z</time></trkpt><trkpt lat="43.3880683" lon="12.79779"><ele>677.0</ele><time>2026-04-25T09:36:34.984Z</time></trkpt><trkpt lat="43.387955" lon="12.7978117"><ele>681.0</ele><time>2026-04-25T09:36:35.92Z</time></trkpt><trkpt lat="43.38784" lon="12.7978317"><ele>685.0</ele><time>2026-04-25T09:36:36.928Z</time></trkpt><trkpt lat="43.387725" lon="12.7978533"><ele>689.0</ele><time>2026-04-25T09:36:37.923Z</time></trkpt><trkpt lat="43.3876083" lon="12.79788"><ele>693.0</ele><time>2026-04-25T09:36:38.924Z</time></trkpt><trkpt lat="43.3874883" lon="12.79791"><ele>693.0</ele><time>2026-04-25T09:36:39.926Z</time></trkpt><trkpt lat="43.3873667" lon="12.7979383"><ele>693.0</ele><time>2026-04-25T09:36:40.984Z</time></trkpt><trkpt lat="43.38725" lon="12.7979633"><ele>693.0</ele><time>2026-04-25T09:36:41.919Z</time></trkpt><trkpt lat="43.387135" lon="12.7979917"><ele>693.0</ele><time>2026-04-25T09:36:42.921Z</time></trkpt><trkpt lat="43.3870233" lon="12.79801"><ele>696.8333333333334</ele><time>2026-04-25T09:36:43.923Z</time></trkpt><trkpt lat="43.3869217" lon="12.7980267"><ele>700.6666666666666</ele><time>2026-04-25T09:36:44.924Z</time></trkpt><trkpt lat="43.386835" lon="12.7980467"><ele>704.5</ele><time>2026-04-25T09:36:45.927Z</time></trkpt><trkpt lat="43.3867533" lon="12.7980667"><ele>708.3333333333333</ele><time>2026-04-25T09:36:46.987Z</time></trkpt><trkpt lat="43.386675" lon="12.7980817"><ele>712.1666666666666</ele><time>2026-04-25T09:36:47.92Z</time></trkpt><trkpt lat="43.386595" lon="12.7981033"><ele>716.0</ele><time>2026-04-25T09:36:48.925Z</time></trkpt><trkpt lat="43.3865117" lon="12.7981217"><ele>716.0</ele><time>2026-04-25T09:36:49.92Z</time></trkpt><trkpt lat="43.3864333" lon="12.79814"><ele>716.0</ele><time>2026-04-25T09:36:50.922Z</time></trkpt><trkpt lat="43.38635" lon="12.7981717"><ele>716.0</ele><time>2026-04-25T09:36:51.919Z</time></trkpt><trkpt lat="43.3862683" lon="12.79822"><ele>716.0</ele><time>2026-04-25T09:36:52.98Z</time></trkpt><trkpt lat="43.3861867" lon="12.798275"><ele>716.0</ele><time>2026-04-25T09:36:53.919Z</time></trkpt><trkpt lat="43.3861017" lon="12.7983267"><ele>716.0</ele><time>2026-04-25T09:36:54.92Z</time></trkpt><trkpt lat="43.38602" lon="12.79838"><ele>720.5</ele><time>2026-04-25T09:36:55.93Z</time></trkpt><trkpt lat="43.3859417" lon="12.7984417"><ele>725.0</ele><time>2026-04-25T09:36:56.926Z</time></trkpt><trkpt lat="43.3858567" lon="12.7985133"><ele>729.5</ele><time>2026-04-25T09:36:57.922Z</time></trkpt><trkpt lat="43.3857817" lon="12.798565"><ele>734.0</ele><time>2026-04-25T09:36:58.981Z</time></trkpt><trkpt lat="43.3857167" lon="12.798615"><ele>738.5</ele><time>2026-04-25T09:36:59.921Z</time></trkpt><trkpt lat="43.385655" lon="12.7986633"><ele>743.0</ele><time>2026-04-25T09:37:00.923Z</time></trkpt><trkpt lat="43.3856017" lon="12.7987183"><ele>744.1428571428572</ele><time>2026-04-25T09:37:01.922Z</time></trkpt><trkpt lat="43.3855517" lon="12.7987767"><ele>745.2857142857142</ele><time>2026-04-25T09:37:02.922Z</time></trkpt><trkpt lat="43.3855033" lon="12.79884"><ele>746.4285714285714</ele><time>2026-04-25T09:37:03.927Z</time></trkpt><trkpt lat="43.385455" lon="12.79891"><ele>747.5714285714287</ele><time>2026-04-25T09:37:04.979Z</time></trkpt><trkpt lat="43.3854117" lon="12.798985"><ele>748.7142857142858</ele><time>2026-04-25T09:37:05.921Z</time></trkpt><trkpt lat="43.3853783" lon="12.79906"><ele>749.8571428571429</ele><time>2026-04-25T09:37:06.919Z</time></trkpt><trkpt lat="43.38534" lon="12.7991817"><ele>751.0</ele><time>2026-04-25T09:37:07.923Z</time></trkpt><trkpt lat="43.3853133" lon="12.7992833"><ele>755.5999999999999</ele><time>2026-04-25T09:37:08.923Z</time></trkpt><trkpt lat="43.38529" lon="12.7994"><ele>760.2</ele><time>2026-04-25T09:37:09.919Z</time></trkpt><trkpt lat="43.3852733" lon="12.7995267"><ele>764.8</ele><time>2026-04-25T09:37:10.981Z</time></trkpt><trkpt lat="43.3852583" lon="12.7996533"><ele>769.4000000000001</ele><time>2026-04-25T09:37:11.923Z</time></trkpt><trkpt lat="43.3852483" lon="12.7997817"><ele>774.0</ele><time>2026-04-25T09:37:12.924Z</time></trkpt><trkpt lat="43.3852383" lon="12.7999"><ele>774.0</ele><time>2026-04-25T09:37:13.919Z</time></trkpt><trkpt lat="43.3852267" lon="12.8000233"><ele>774.0</ele><time>2026-04-25T09:37:14.933Z</time></trkpt><trkpt lat="43.38522" lon="12.8001433"><ele>774.0</ele><time>2026-04-25T09:37:15.926Z</time></trkpt><trkpt lat="43.38521" lon="12.8002667"><ele>774.0</ele><time>2026-04-25T09:37:16.981Z</time></trkpt><trkpt lat="43.3852" lon="12.8003967"><ele>774.0</ele><time>2026-04-25T09:37:17.919Z</time></trkpt><trkpt lat="43.3851883" lon="12.8005267"><ele>774.8333333333334</ele><time>2026-04-25T09:37:18.925Z</time></trkpt><trkpt lat="43.38518" lon="12.8006617"><ele>775.6666666666667</ele><time>2026-04-25T09:37:19.927Z</time></trkpt><trkpt lat="43.3851683" lon="12.800775"><ele>776.5</ele><time>2026-04-25T09:37:20.924Z</time></trkpt><trkpt lat="43.385155" lon="12.8008867"><ele>777.3333333333334</ele><time>2026-04-25T09:37:21.921Z</time></trkpt><trkpt lat="43.385145" lon="12.8010017"><ele>778.1666666666667</ele><time>2026-04-25T09:37:22.985Z</time></trkpt><trkpt lat="43.3851367" lon="12.80112"><ele>779.0</ele><time>2026-04-25T09:37:23.925Z</time></trkpt><trkpt lat="43.385125" lon="12.8012283"><ele>780.1666666666667</ele><time>2026-04-25T09:37:24.924Z</time></trkpt><trkpt lat="43.38512" lon="12.8013233"><ele>781.3333333333334</ele><time>2026-04-25T09:37:25.921Z</time></trkpt><trkpt lat="43.3851067" lon="12.8014683"><ele>782.5</ele><time>2026-04-25T09:37:27.925Z</time></trkpt><trkpt lat="43.385065" lon="12.8015583"><ele>783.6666666666667</ele><time>2026-04-25T09:37:28.983Z</time></trkpt><trkpt lat="43.38504" lon="12.8016467"><ele>784.8333333333334</ele><time>2026-04-25T09:37:29.918Z</time></trkpt><trkpt lat="43.3850067" lon="12.801735"><ele>786.0</ele><time>2026-04-25T09:37:30.923Z</time></trkpt><trkpt lat="43.384975" lon="12.8018317"><ele>786.0</ele><time>2026-04-25T09:37:31.928Z</time></trkpt><trkpt lat="43.3849417" lon="12.801925"><ele>786.0</ele><time>2026-04-25T09:37:32.923Z</time></trkpt><trkpt lat="43.3849117" lon="12.8020067"><ele>786.0</ele><time>2026-04-25T09:37:33.918Z</time></trkpt><trkpt lat="43.384935" lon="12.8019217"><ele>786.0</ele><time>2026-04-25T09:39:33.919Z</time></trkpt><trkpt lat="43.3849583" lon="12.8018233"><ele>786.0</ele><time>2026-04-25T09:39:34.98Z</time></trkpt><trkpt lat="43.3849867" lon="12.8017083"><ele>786.0</ele><time>2026-04-25T09:39:35.916Z</time></trkpt><trkpt lat="43.3850183" lon="12.8015983"><ele>786.0</ele><time>2026-04-25T09:39:36.929Z</time></trkpt><trkpt lat="43.3850533" lon="12.80151"><ele>786.0</ele><time>2026-04-25T09:39:37.924Z</time></trkpt><trkpt lat="43.3851" lon="12.80139"><ele>786.0</ele><time>2026-04-25T09:39:39.92Z</time></trkpt><trkpt lat="43.38514" lon="12.8012633"><ele>786.0</ele><time>2026-04-25T09:39:41.919Z</time></trkpt><trkpt lat="43.3851783" lon="12.8011117"><ele>786.0</ele><time>2026-04-25T09:39:43.921Z</time></trkpt><trkpt lat="43.3852033" lon="12.8010183"><ele>784.8333333333334</ele><time>2026-04-25T09:39:44.926Z</time></trkpt><trkpt lat="43.3852317" lon="12.8009233"><ele>783.6666666666667</ele><time>2026-04-25T09:39:45.924Z</time></trkpt><trkpt lat="43.3852583" lon="12.800825"><ele>782.5</ele><time>2026-04-25T09:39:46.982Z</time></trkpt><trkpt lat="43.3852833" lon="12.8007367"><ele>781.3333333333334</ele><time>2026-04-25T09:39:47.922Z</time></trkpt><trkpt lat="43.3853183" lon="12.8006133"><ele>780.1666666666667</ele><time>2026-04-25T09:39:49.923Z</time></trkpt><trkpt lat="43.3853367" lon="12.800515"><ele>779.0</ele><time>2026-04-25T09:39:51.917Z</time></trkpt><trkpt lat="43.3853667" lon="12.800375"><ele>779.0000000000001</ele><time>2026-04-25T09:39:53.921Z</time></trkpt><trkpt lat="43.3854033" lon="12.8002033"><ele>779.0</ele><time>2026-04-25T09:39:55.932Z</time></trkpt><trkpt lat="43.3854167" lon="12.8001117"><ele>779.0</ele><time>2026-04-25T09:39:56.923Z</time></trkpt><trkpt lat="43.38543" lon="12.8000133"><ele>779.0</ele><time>2026-04-25T09:39:57.925Z</time></trkpt><trkpt lat="43.385445" lon="12.79992"><ele>779.0000000000001</ele><time>2026-04-25T09:39:58.977Z</time></trkpt><trkpt lat="43.3854567" lon="12.7998267"><ele>779.0</ele><time>2026-04-25T09:39:59.928Z</time></trkpt><trkpt lat="43.3854717" lon="12.799735"><ele>778.1666666666667</ele><time>2026-04-25T09:40:00.923Z</time></trkpt><trkpt lat="43.385485" lon="12.7996433"><ele>777.3333333333334</ele><time>2026-04-25T09:40:01.928Z</time></trkpt><trkpt lat="43.3854967" lon="12.7995533"><ele>776.5</ele><time>2026-04-25T09:40:02.92Z</time></trkpt><trkpt lat="43.3855133" lon="12.7994617"><ele>775.6666666666667</ele><time>2026-04-25T09:40:03.92Z</time></trkpt><trkpt lat="43.38553" lon="12.7993733"><ele>774.8333333333334</ele><time>2026-04-25T09:40:04.987Z</time></trkpt><trkpt lat="43.3855483" lon="12.79929"><ele>774.0</ele><time>2026-04-25T09:40:05.925Z</time></trkpt><trkpt lat="43.3855967" lon="12.7991333"><ele>770.1666666666666</ele><time>2026-04-25T09:40:07.925Z</time></trkpt><trkpt lat="43.3856483" lon="12.7990083"><ele>766.3333333333334</ele><time>2026-04-25T09:40:09.923Z</time></trkpt><trkpt lat="43.3856983" lon="12.7989217"><ele>762.5</ele><time>2026-04-25T09:40:11.923Z</time></trkpt><trkpt lat="43.38576" lon="12.7988367"><ele>758.6666666666667</ele><time>2026-04-25T09:40:14.923Z</time></trkpt><trkpt lat="43.38582" lon="12.7987433"><ele>754.8333333333334</ele><time>2026-04-25T09:40:17.924Z</time></trkpt><trkpt lat="43.38587" lon="12.7986867"><ele>751.0</ele><time>2026-04-25T09:40:19.923Z</time></trkpt><trkpt lat="43.3859267" lon="12.7986283"><ele>751.0</ele><time>2026-04-25T09:40:21.925Z</time></trkpt><trkpt lat="43.3859867" lon="12.7985517"><ele>751.0</ele><time>2026-04-25T09:40:23.915Z</time></trkpt><trkpt lat="43.3860533" lon="12.79848"><ele>751.0</ele><time>2026-04-25T09:40:25.922Z</time></trkpt><trkpt lat="43.38611" lon="12.798425"><ele>751.0</ele><time>2026-04-25T09:40:27.924Z</time></trkpt><trkpt lat="43.386175" lon="12.7983667"><ele>751.0</ele><time>2026-04-25T09:40:29.92Z</time></trkpt><trkpt lat="43.3862433" lon="12.7983367"><ele>751.0</ele><time>2026-04-25T09:40:31.919Z</time></trkpt><trkpt lat="43.386305" lon="12.7983033"><ele>745.1666666666667</ele><time>2026-04-25T09:40:33.921Z</time></trkpt><trkpt lat="43.3863683" lon="12.7982533"><ele>739.3333333333334</ele><time>2026-04-25T09:40:35.925Z</time></trkpt><trkpt lat="43.3864417" lon="12.798205"><ele>733.5</ele><time>2026-04-25T09:40:37.922Z</time></trkpt><trkpt lat="43.38651" lon="12.798165"><ele>727.6666666666666</ele><time>2026-04-25T09:40:39.92Z</time></trkpt><trkpt lat="43.38659" lon="12.7981333"><ele>721.8333333333333</ele><time>2026-04-25T09:40:41.921Z</time></trkpt><trkpt lat="43.386685" lon="12.798085"><ele>716.0</ele><time>2026-04-25T09:40:43.922Z</time></trkpt><trkpt lat="43.3867967" lon="12.798045"><ele>716.0</ele><time>2026-04-25T09:40:45.922Z</time></trkpt><trkpt lat="43.386905" lon="12.798005"><ele>716.0</ele><time>2026-04-25T09:40:47.923Z</time></trkpt><trkpt lat="43.3870167" lon="12.7979917"><ele>716.0</ele><time>2026-04-25T09:40:49.917Z</time></trkpt><trkpt lat="43.3870833" lon="12.7979783"><ele>716.0</ele><time>2026-04-25T09:40:50.922Z</time></trkpt><trkpt lat="43.3871683" lon="12.7979633"><ele>716.0</ele><time>2026-04-25T09:40:51.922Z</time></trkpt><trkpt lat="43.3872417" lon="12.79795"><ele>712.1666666666666</ele><time>2026-04-25T09:40:52.955Z</time></trkpt><trkpt lat="43.3873217" lon="12.7979267"><ele>708.3333333333333</ele><time>2026-04-25T09:40:53.919Z</time></trkpt><trkpt lat="43.3874067" lon="12.7978983"><ele>704.5</ele><time>2026-04-25T09:40:54.926Z</time></trkpt><trkpt lat="43.3874917" lon="12.7978667"><ele>700.6666666666666</ele><time>2026-04-25T09:40:55.926Z</time></trkpt><trkpt lat="43.3875783" lon="12.7978367"><ele>696.8333333333334</ele><time>2026-04-25T09:40:56.921Z</time></trkpt><trkpt lat="43.3876767" lon="12.797805"><ele>693.0</ele><time>2026-04-25T09:40:57.925Z</time></trkpt><trkpt lat="43.3877767" lon="12.797765"><ele>693.0</ele><time>2026-04-25T09:40:58.982Z</time></trkpt><trkpt lat="43.3878733" lon="12.7977267"><ele>693.0</ele><time>2026-04-25T09:40:59.919Z</time></trkpt><trkpt lat="43.387965" lon="12.797685"><ele>693.0</ele><time>2026-04-25T09:41:00.922Z</time></trkpt><trkpt lat="43.38805" lon="12.79765"><ele>693.0</ele><time>2026-04-25T09:41:01.917Z</time></trkpt><trkpt lat="43.3881267" lon="12.79762"><ele>693.0</ele><time>2026-04-25T09:41:02.916Z</time></trkpt><trkpt lat="43.388205" lon="12.7976"><ele>693.0</ele><time>2026-04-25T09:41:03.925Z</time></trkpt><trkpt lat="43.3883283" lon="12.79757"><ele>690.4</ele><time>2026-04-25T09:41:05.916Z</time></trkpt><trkpt lat="43.3883917" lon="12.797555"><ele>687.8</ele><time>2026-04-25T09:41:06.929Z</time></trkpt><trkpt lat="43.3885" lon="12.7975517"><ele>685.2</ele><time>2026-04-25T09:41:08.922Z</time></trkpt><trkpt lat="43.3886267" lon="12.7975417"><ele>682.6</ele><time>2026-04-25T09:41:10.988Z</time></trkpt><trkpt lat="43.3886967" lon="12.79754"><ele>680.0</ele><time>2026-04-25T09:41:11.925Z</time></trkpt><trkpt lat="43.3888233" lon="12.7975383"><ele>678.8333333333333</ele><time>2026-04-25T09:41:13.927Z</time></trkpt><trkpt lat="43.38892" lon="12.7975217"><ele>677.6666666666666</ele><time>2026-04-25T09:41:15.921Z</time></trkpt><trkpt lat="43.3889733" lon="12.7974567"><ele>676.5</ele><time>2026-04-25T09:41:17.92Z</time></trkpt><trkpt lat="43.3889667" lon="12.7973517"><ele>675.3333333333334</ele><time>2026-04-25T09:41:20.921Z</time></trkpt><trkpt lat="43.3890017" lon="12.797235"><ele>674.1666666666667</ele><time>2026-04-25T09:41:23.923Z</time></trkpt><trkpt lat="43.3890517" lon="12.7971383"><ele>673.0</ele><time>2026-04-25T09:41:25.923Z</time></trkpt><trkpt lat="43.389085" lon="12.7970633"><ele>673.0</ele><time>2026-04-25T09:41:26.926Z</time></trkpt><trkpt lat="43.3891267" lon="12.7969017"><ele>673.0</ele><time>2026-04-25T09:41:28.989Z</time></trkpt><trkpt lat="43.3891467" lon="12.7968033"><ele>673.0</ele><time>2026-04-25T09:41:29.915Z</time></trkpt><trkpt lat="43.389165" lon="12.7967017"><ele>673.0</ele><time>2026-04-25T09:41:30.924Z</time></trkpt><trkpt lat="43.3891983" lon="12.7966083"><ele>673.0</ele><time>2026-04-25T09:41:31.933Z</time></trkpt><trkpt lat="43.3892317" lon="12.7965217"><ele>673.0</ele><time>2026-04-25T09:41:32.926Z</time></trkpt><trkpt lat="43.38927" lon="12.79645"><ele>674.7142857142858</ele><time>2026-04-25T09:41:33.926Z</time></trkpt><trkpt lat="43.3893117" lon="12.79636"><ele>676.4285714285713</ele><time>2026-04-25T09:41:34.986Z</time></trkpt><trkpt lat="43.389355" lon="12.7962633"><ele>678.1428571428571</ele><time>2026-04-25T09:41:35.925Z</time></trkpt><trkpt lat="43.3893967" lon="12.7961733"><ele>679.8571428571429</ele><time>2026-04-25T09:41:36.925Z</time></trkpt><trkpt lat="43.3894383" lon="12.79609"><ele>681.5714285714287</ele><time>2026-04-25T09:41:37.925Z</time></trkpt><trkpt lat="43.3894717" lon="12.7960033"><ele>683.2857142857142</ele><time>2026-04-25T09:41:38.926Z</time></trkpt><trkpt lat="43.3895067" lon="12.79593"><ele>685.0</ele><time>2026-04-25T09:41:39.929Z</time></trkpt><trkpt lat="43.389575" lon="12.7958217"><ele>686.8333333333334</ele><time>2026-04-25T09:41:41.924Z</time></trkpt><trkpt lat="43.3896667" lon="12.7957933"><ele>688.6666666666667</ele><time>2026-04-25T09:41:43.924Z</time></trkpt><trkpt lat="43.3897633" lon="12.79577"><ele>690.5</ele><time>2026-04-25T09:41:45.928Z</time></trkpt><trkpt lat="43.389825" lon="12.7957383"><ele>692.3333333333334</ele><time>2026-04-25T09:41:46.986Z</time></trkpt><trkpt lat="43.389885" lon="12.7957033"><ele>694.1666666666666</ele><time>2026-04-25T09:41:47.931Z</time></trkpt><trkpt lat="43.3899933" lon="12.7956367"><ele>696.0</ele><time>2026-04-25T09:41:49.925Z</time></trkpt><trkpt lat="43.3900517" lon="12.795595"><ele>698.5</ele><time>2026-04-25T09:41:50.927Z</time></trkpt><trkpt lat="43.390165" lon="12.7955233"><ele>701.0</ele><time>2026-04-25T09:41:52.991Z</time></trkpt><trkpt lat="43.390225" lon="12.7954867"><ele>703.5</ele><time>2026-04-25T09:41:53.922Z</time></trkpt><trkpt lat="43.3902883" lon="12.7954383"><ele>706.0</ele><time>2026-04-25T09:41:54.928Z</time></trkpt><trkpt lat="43.3903567" lon="12.795385"><ele>708.5</ele><time>2026-04-25T09:41:55.924Z</time></trkpt><trkpt lat="43.3904167" lon="12.7953283"><ele>711.0</ele><time>2026-04-25T09:41:56.923Z</time></trkpt><trkpt lat="43.390475" lon="12.7952633"><ele>711.8333333333334</ele><time>2026-04-25T09:41:57.927Z</time></trkpt><trkpt lat="43.3905283" lon="12.7951833"><ele>712.6666666666666</ele><time>2026-04-25T09:41:58.987Z</time></trkpt><trkpt lat="43.39058" lon="12.7951033"><ele>713.5</ele><time>2026-04-25T09:41:59.922Z</time></trkpt><trkpt lat="43.3906267" lon="12.7950233"><ele>714.3333333333333</ele><time>2026-04-25T09:42:00.928Z</time></trkpt><trkpt lat="43.3906717" lon="12.7949283"><ele>715.1666666666666</ele><time>2026-04-25T09:42:01.927Z</time></trkpt><trkpt lat="43.390715" lon="12.7948317"><ele>716.0</ele><time>2026-04-25T09:42:02.928Z</time></trkpt><trkpt lat="43.3907483" lon="12.79473"><ele>719.0</ele><time>2026-04-25T09:42:03.93Z</time></trkpt><trkpt lat="43.39078" lon="12.7946233"><ele>722.0</ele><time>2026-04-25T09:42:04.989Z</time></trkpt><trkpt lat="43.39081" lon="12.7945333"><ele>725.0</ele><time>2026-04-25T09:42:05.923Z</time></trkpt><trkpt lat="43.39088" lon="12.7943917"><ele>728.0</ele><time>2026-04-25T09:42:07.929Z</time></trkpt><trkpt lat="43.3909633" lon="12.7942817"><ele>731.0</ele><time>2026-04-25T09:42:09.929Z</time></trkpt><trkpt lat="43.391025" lon="12.7941933"><ele>730.5999999999999</ele><time>2026-04-25T09:42:11.928Z</time></trkpt><trkpt lat="43.3910883" lon="12.7941133"><ele>730.2</ele><time>2026-04-25T09:45:56.928Z</time></trkpt><trkpt lat="43.3911683" lon="12.7940133"><ele>729.8</ele><time>2026-04-25T09:45:58.973Z</time></trkpt><trkpt lat="43.3912533" lon="12.7938833"><ele>729.4000000000001</ele><time>2026-04-25T09:46:00.921Z</time></trkpt><trkpt lat="43.3913" lon="12.793805"><ele>729.0</ele><time>2026-04-25T09:46:01.925Z</time></trkpt><trkpt lat="43.3913583" lon="12.79372"><ele>729.0</ele><time>2026-04-25T09:46:02.921Z</time></trkpt><trkpt lat="43.39142" lon="12.793635"><ele>729.0</ele><time>2026-04-25T09:46:03.927Z</time></trkpt><trkpt lat="43.391485" lon="12.7935467"><ele>729.0</ele><time>2026-04-25T09:46:04.972Z</time></trkpt><trkpt lat="43.3915533" lon="12.7934617"><ele>729.0</ele><time>2026-04-25T09:46:05.919Z</time></trkpt><trkpt lat="43.3916217" lon="12.79338"><ele>729.0</ele><time>2026-04-25T09:46:06.926Z</time></trkpt><trkpt lat="43.391685" lon="12.7933"><ele>729.0</ele><time>2026-04-25T09:46:07.925Z</time></trkpt><trkpt lat="43.39175" lon="12.793225"><ele>730.3333333333334</ele><time>2026-04-25T09:46:08.934Z</time></trkpt><trkpt lat="43.391815" lon="12.7931533"><ele>731.6666666666666</ele><time>2026-04-25T09:46:09.926Z</time></trkpt><trkpt lat="43.3918783" lon="12.7930833"><ele>733.0</ele><time>2026-04-25T09:46:10.98Z</time></trkpt><trkpt lat="43.3919417" lon="12.79302"><ele>734.3333333333333</ele><time>2026-04-25T09:46:11.913Z</time></trkpt><trkpt lat="43.3919983" lon="12.79296"><ele>735.6666666666666</ele><time>2026-04-25T09:46:12.925Z</time></trkpt><trkpt lat="43.3920483" lon="12.7928933"><ele>737.0</ele><time>2026-04-25T09:46:13.926Z</time></trkpt><trkpt lat="43.3921233" lon="12.792755"><ele>737.0</ele><time>2026-04-25T09:46:15.913Z</time></trkpt><trkpt lat="43.39217" lon="12.7926767"><ele>737.0</ele><time>2026-04-25T09:46:16.976Z</time></trkpt><trkpt lat="43.392225" lon="12.7925883"><ele>737.0</ele><time>2026-04-25T09:46:17.92Z</time></trkpt><trkpt lat="43.3922867" lon="12.7925067"><ele>737.0</ele><time>2026-04-25T09:46:18.924Z</time></trkpt><trkpt lat="43.3923633" lon="12.79243"><ele>737.0</ele><time>2026-04-25T09:46:19.921Z</time></trkpt><trkpt lat="43.392445" lon="12.792365"><ele>737.0</ele><time>2026-04-25T09:46:20.922Z</time></trkpt><trkpt lat="43.3925267" lon="12.7923033"><ele>737.8333333333333</ele><time>2026-04-25T09:46:21.925Z</time></trkpt><trkpt lat="43.3926" lon="12.7922517"><ele>738.6666666666666</ele><time>2026-04-25T09:46:22.975Z</time></trkpt><trkpt lat="43.3926667" lon="12.7922117"><ele>739.5</ele><time>2026-04-25T09:46:23.921Z</time></trkpt><trkpt lat="43.3927817" lon="12.7922217"><ele>740.3333333333334</ele><time>2026-04-25T09:46:25.929Z</time></trkpt><trkpt lat="43.392845" lon="12.7922483"><ele>741.1666666666667</ele><time>2026-04-25T09:46:26.933Z</time></trkpt><trkpt lat="43.3929133" lon="12.7922783"><ele>742.0</ele><time>2026-04-25T09:46:27.92Z</time></trkpt><trkpt lat="43.393015" lon="12.7923533"><ele>744.0</ele><time>2026-04-25T09:46:28.972Z</time></trkpt><trkpt lat="43.39312" lon="12.7924117"><ele>746.0</ele><time>2026-04-25T09:46:29.924Z</time></trkpt><trkpt lat="43.3932233" lon="12.7924617"><ele>748.0</ele><time>2026-04-25T09:46:30.922Z</time></trkpt><trkpt lat="43.39332" lon="12.7925083"><ele>750.0</ele><time>2026-04-25T09:46:31.919Z</time></trkpt><trkpt lat="43.3934067" lon="12.7925433"><ele>752.0</ele><time>2026-04-25T09:46:32.916Z</time></trkpt><trkpt lat="43.3934817" lon="12.792575"><ele>752.0</ele><time>2026-04-25T09:46:33.919Z</time></trkpt><trkpt lat="43.3935533" lon="12.7926"><ele>752.0</ele><time>2026-04-25T09:46:34.975Z</time></trkpt><trkpt lat="43.3936233" lon="12.7926117"><ele>752.0</ele><time>2026-04-25T09:46:35.917Z</time></trkpt><trkpt lat="43.3936917" lon="12.7926217"><ele>752.0</ele><time>2026-04-25T09:46:36.92Z</time></trkpt><trkpt lat="43.3937567" lon="12.7926133"><ele>752.0</ele><time>2026-04-25T09:46:37.918Z</time></trkpt><trkpt lat="43.3938733" lon="12.7925833"><ele>752.0</ele><time>2026-04-25T09:46:39.92Z</time></trkpt><trkpt lat="43.393975" lon="12.7924983"><ele>756.6</ele><time>2026-04-25T09:46:41.926Z</time></trkpt><trkpt lat="43.3940133" lon="12.792365"><ele>761.2</ele><time>2026-04-25T09:46:43.933Z</time></trkpt><trkpt lat="43.3940246" lon="12.7922226"><ele>765.8</ele><time>2026-04-25T09:46:45.926Z</time></trkpt><trkpt lat="43.394024" lon="12.7920859"><ele>770.4</ele><time>2026-04-25T09:46:47.928Z</time></trkpt><trkpt lat="43.3940394" lon="12.7919516"><ele>775.0</ele><time>2026-04-25T09:46:49.921Z</time></trkpt><trkpt lat="43.3940327" lon="12.7918426"><ele>777.1666666666666</ele><time>2026-04-25T09:46:51.921Z</time></trkpt><trkpt lat="43.3940302" lon="12.7917397"><ele>779.3333333333333</ele><time>2026-04-25T09:46:53.925Z</time></trkpt><trkpt lat="43.394035" lon="12.791625"><ele>781.5</ele><time>2026-04-25T09:46:55.919Z</time></trkpt><trkpt lat="43.3940967" lon="12.7914783"><ele>783.6666666666667</ele><time>2026-04-25T09:46:57.924Z</time></trkpt><trkpt lat="43.39414" lon="12.791415"><ele>785.8333333333334</ele><time>2026-04-25T09:46:58.977Z</time></trkpt><trkpt lat="43.3941983" lon="12.791355"><ele>788.0</ele><time>2026-04-25T09:46:59.917Z</time></trkpt><trkpt lat="43.3942533" lon="12.7913017"><ele>788.0000000000001</ele><time>2026-04-25T09:47:00.923Z</time></trkpt><trkpt lat="43.39432" lon="12.7912667"><ele>788.0</ele><time>2026-04-25T09:47:01.925Z</time></trkpt><trkpt lat="43.39439" lon="12.7912433"><ele>788.0</ele><time>2026-04-25T09:47:02.918Z</time></trkpt><trkpt lat="43.3944617" lon="12.7912283"><ele>788.0</ele><time>2026-04-25T09:47:03.922Z</time></trkpt><trkpt lat="43.39453" lon="12.7912233"><ele>788.0000000000001</ele><time>2026-04-25T09:47:04.978Z</time></trkpt><trkpt lat="43.3945983" lon="12.7912117"><ele>788.0</ele><time>2026-04-25T09:47:05.926Z</time></trkpt><trkpt lat="43.3947033" lon="12.791195"><ele>787.5999999999999</ele><time>2026-04-25T09:47:07.916Z</time></trkpt><trkpt lat="43.3947833" lon="12.7911833"><ele>787.1999999999999</ele><time>2026-04-25T09:47:10.973Z</time></trkpt><trkpt lat="43.394864" lon="12.7911236"><ele>786.8</ele><time>2026-04-25T09:47:36.866Z</time></trkpt><trkpt lat="43.3948788" lon="12.7910126"><ele>786.4</ele><time>2026-04-25T09:47:39.922Z</time></trkpt><trkpt lat="43.3947809" lon="12.7908814"><ele>786.0</ele><time>2026-04-25T09:47:41.928Z</time></trkpt><trkpt lat="43.3946967" lon="12.79079"><ele>785.6666666666666</ele><time>2026-04-25T09:47:42.927Z</time></trkpt><trkpt lat="43.394655" lon="12.79072"><ele>785.3333333333333</ele><time>2026-04-25T09:47:43.933Z</time></trkpt><trkpt lat="43.394615" lon="12.790635"><ele>785.0</ele><time>2026-04-25T09:47:44.921Z</time></trkpt><trkpt lat="43.3945733" lon="12.7905467"><ele>784.6666666666666</ele><time>2026-04-25T09:47:45.923Z</time></trkpt><trkpt lat="43.3945233" lon="12.79046"><ele>784.3333333333333</ele><time>2026-04-25T09:47:46.973Z</time></trkpt><trkpt lat="43.3944933" lon="12.7903817"><ele>784.0</ele><time>2026-04-25T09:47:47.922Z</time></trkpt><trkpt lat="43.394435" lon="12.7902433"><ele>783.9999999999999</ele><time>2026-04-25T09:47:49.919Z</time></trkpt><trkpt lat="43.3943783" lon="12.7901167"><ele>784.0</ele><time>2026-04-25T09:47:51.923Z</time></trkpt><trkpt lat="43.39433" lon="12.790015"><ele>784.0</ele><time>2026-04-25T09:47:53.922Z</time></trkpt><trkpt lat="43.3943" lon="12.7899267"><ele>784.0</ele><time>2026-04-25T09:47:56.921Z</time></trkpt><trkpt lat="43.3943983" lon="12.7899633"><ele>783.9999999999999</ele><time>2026-04-25T09:48:22.974Z</time></trkpt><trkpt lat="43.3944333" lon="12.7900467"><ele>784.0</ele><time>2026-04-25T09:48:25.92Z</time></trkpt><trkpt lat="43.3945233" lon="12.7901833"><ele>783.9999999999999</ele><time>2026-04-25T09:48:26.92Z</time></trkpt><trkpt lat="43.3945767" lon="12.7903317"><ele>784.0</ele><time>2026-04-25T09:48:28.974Z</time></trkpt><trkpt lat="43.39463" lon="12.7904817"><ele>784.0</ele><time>2026-04-25T09:48:30.922Z</time></trkpt><trkpt lat="43.394675" lon="12.7905533"><ele>784.0</ele><time>2026-04-25T09:48:31.923Z</time></trkpt><trkpt lat="43.394725" lon="12.7906217"><ele>783.9999999999999</ele><time>2026-04-25T09:48:32.928Z</time></trkpt><trkpt lat="43.39477" lon="12.79069"><ele>784.0</ele><time>2026-04-25T09:48:33.932Z</time></trkpt><trkpt lat="43.3948133" lon="12.7907533"><ele>784.4000000000001</ele><time>2026-04-25T09:48:34.979Z</time></trkpt><trkpt lat="43.3949067" lon="12.790855"><ele>784.8</ele><time>2026-04-25T09:48:36.923Z</time></trkpt><trkpt lat="43.3949583" lon="12.79091"><ele>785.2</ele><time>2026-04-25T09:48:37.918Z</time></trkpt><trkpt lat="43.3950667" lon="12.7909833"><ele>785.5999999999999</ele><time>2026-04-25T09:48:39.917Z</time></trkpt><trkpt lat="43.3951833" lon="12.7910217"><ele>786.0</ele><time>2026-04-25T09:48:41.93Z</time></trkpt><trkpt lat="43.3953033" lon="12.791025"><ele>787.5999999999999</ele><time>2026-04-25T09:48:43.929Z</time></trkpt><trkpt lat="43.3953983" lon="12.79103"><ele>789.2</ele><time>2026-04-25T09:48:45.931Z</time></trkpt><trkpt lat="43.3954483" lon="12.79109"><ele>790.8</ele><time>2026-04-25T09:48:47.931Z</time></trkpt><trkpt lat="43.3955" lon="12.7912267"><ele>792.4000000000001</ele><time>2026-04-25T09:48:49.921Z</time></trkpt><trkpt lat="43.3955233" lon="12.7913133"><ele>794.0</ele><time>2026-04-25T09:48:50.931Z</time></trkpt><trkpt lat="43.3955633" lon="12.791475"><ele>795.2</ele><time>2026-04-25T09:48:52.976Z</time></trkpt><trkpt lat="43.3956133" lon="12.79162"><ele>796.4000000000001</ele><time>2026-04-25T09:48:54.92Z</time></trkpt><trkpt lat="43.3956783" lon="12.7917617"><ele>797.6</ele><time>2026-04-25T09:48:56.917Z</time></trkpt><trkpt lat="43.3957233" lon="12.7918267"><ele>798.8</ele><time>2026-04-25T09:48:57.923Z</time></trkpt><trkpt lat="43.3957733" lon="12.7918883"><ele>800.0</ele><time>2026-04-25T09:48:58.976Z</time></trkpt><trkpt lat="43.3958583" lon="12.7919883"><ele>800.3333333333334</ele><time>2026-04-25T09:49:00.92Z</time></trkpt><trkpt lat="43.3959067" lon="12.792045"><ele>800.6666666666667</ele><time>2026-04-25T09:49:01.917Z</time></trkpt><trkpt lat="43.39596" lon="12.7921083"><ele>801.0</ele><time>2026-04-25T09:49:02.925Z</time></trkpt><trkpt lat="43.396015" lon="12.79218"><ele>801.3333333333333</ele><time>2026-04-25T09:49:03.922Z</time></trkpt><trkpt lat="43.396075" lon="12.792255"><ele>801.6666666666666</ele><time>2026-04-25T09:49:04.973Z</time></trkpt><trkpt lat="43.3961317" lon="12.7923283"><ele>802.0</ele><time>2026-04-25T09:49:05.916Z</time></trkpt><trkpt lat="43.396195" lon="12.7924033"><ele>801.9999999999999</ele><time>2026-04-25T09:49:06.922Z</time></trkpt><trkpt lat="43.3962633" lon="12.79248"><ele>802.0</ele><time>2026-04-25T09:49:07.92Z</time></trkpt><trkpt lat="43.3963333" lon="12.792555"><ele>802.0</ele><time>2026-04-25T09:49:08.929Z</time></trkpt><trkpt lat="43.3964017" lon="12.7926333"><ele>802.0</ele><time>2026-04-25T09:49:09.93Z</time></trkpt><trkpt lat="43.39646" lon="12.7927167"><ele>801.9999999999999</ele><time>2026-04-25T09:49:10.984Z</time></trkpt><trkpt lat="43.396515" lon="12.7927967"><ele>802.0</ele><time>2026-04-25T09:49:11.924Z</time></trkpt><trkpt lat="43.3965683" lon="12.792875"><ele>803.2</ele><time>2026-04-25T09:49:12.92Z</time></trkpt><trkpt lat="43.3966167" lon="12.7929533"><ele>804.4000000000001</ele><time>2026-04-25T09:49:13.93Z</time></trkpt><trkpt lat="43.3966833" lon="12.7930767"><ele>805.5999999999999</ele><time>2026-04-25T09:49:15.926Z</time></trkpt><trkpt lat="43.3967567" lon="12.793205"><ele>806.8</ele><time>2026-04-25T09:49:17.923Z</time></trkpt><trkpt lat="43.3967983" lon="12.7932817"><ele>808.0</ele><time>2026-04-25T09:49:18.927Z</time></trkpt><trkpt lat="43.3968433" lon="12.7933733"><ele>807.9999999999999</ele><time>2026-04-25T09:49:19.932Z</time></trkpt><trkpt lat="43.3968917" lon="12.793465"><ele>808.0</ele><time>2026-04-25T09:49:20.932Z</time></trkpt><trkpt lat="43.3969383" lon="12.7935567"><ele>808.0</ele><time>2026-04-25T09:49:21.927Z</time></trkpt><trkpt lat="43.39698" lon="12.79365"><ele>808.0</ele><time>2026-04-25T09:49:22.984Z</time></trkpt><trkpt lat="43.39702" lon="12.7937467"><ele>807.9999999999999</ele><time>2026-04-25T09:49:23.925Z</time></trkpt><trkpt lat="43.39707" lon="12.793835"><ele>808.0</ele><time>2026-04-25T09:49:24.93Z</time></trkpt><trkpt lat="43.3971133" lon="12.7939333"><ele>807.8333333333333</ele><time>2026-04-25T09:49:25.925Z</time></trkpt><trkpt lat="43.397165" lon="12.7940267"><ele>807.6666666666666</ele><time>2026-04-25T09:49:26.924Z</time></trkpt><trkpt lat="43.3972183" lon="12.79412"><ele>807.5</ele><time>2026-04-25T09:49:27.926Z</time></trkpt><trkpt lat="43.397285" lon="12.794215"><ele>807.3333333333333</ele><time>2026-04-25T09:49:28.973Z</time></trkpt><trkpt lat="43.39735" lon="12.794305"><ele>807.1666666666666</ele><time>2026-04-25T09:49:29.913Z</time></trkpt><trkpt lat="43.397405" lon="12.794395"><ele>807.0</ele><time>2026-04-25T09:49:30.923Z</time></trkpt><trkpt lat="43.39746" lon="12.7944833"><ele>807.5</ele><time>2026-04-25T09:49:31.922Z</time></trkpt><trkpt lat="43.3975083" lon="12.7945717"><ele>808.0</ele><time>2026-04-25T09:49:32.917Z</time></trkpt><trkpt lat="43.39755" lon="12.794655"><ele>808.5</ele><time>2026-04-25T09:49:33.926Z</time></trkpt><trkpt lat="43.3975883" lon="12.7947367"><ele>809.0</ele><time>2026-04-25T09:49:34.976Z</time></trkpt><trkpt lat="43.3976517" lon="12.7948667"><ele>809.5</ele><time>2026-04-25T09:49:36.926Z</time></trkpt><trkpt lat="43.397715" lon="12.7949867"><ele>810.0</ele><time>2026-04-25T09:49:38.918Z</time></trkpt><trkpt lat="43.397755" lon="12.7950633"><ele>810.0</ele><time>2026-04-25T09:49:39.92Z</time></trkpt><trkpt lat="43.3978017" lon="12.7951467"><ele>810.0</ele><time>2026-04-25T09:49:40.978Z</time></trkpt><trkpt lat="43.3978467" lon="12.7952283"><ele>810.0</ele><time>2026-04-25T09:49:41.919Z</time></trkpt><trkpt lat="43.39789" lon="12.7953017"><ele>810.0</ele><time>2026-04-25T09:49:42.925Z</time></trkpt><trkpt lat="43.39797" lon="12.79544"><ele>810.0</ele><time>2026-04-25T09:49:44.92Z</time></trkpt><trkpt lat="43.398015" lon="12.795505"><ele>810.0</ele><time>2026-04-25T09:49:45.923Z</time></trkpt><trkpt lat="43.3980967" lon="12.7956383"><ele>809.6</ele><time>2026-04-25T09:49:47.921Z</time></trkpt><trkpt lat="43.398175" lon="12.795765"><ele>809.2</ele><time>2026-04-25T09:49:49.922Z</time></trkpt><trkpt lat="43.3982567" lon="12.7958733"><ele>808.8</ele><time>2026-04-25T09:49:51.921Z</time></trkpt><trkpt lat="43.39834" lon="12.7959667"><ele>808.4</ele><time>2026-04-25T09:49:53.921Z</time></trkpt><trkpt lat="43.398425" lon="12.796055"><ele>808.0</ele><time>2026-04-25T09:49:55.925Z</time></trkpt><trkpt lat="43.398505" lon="12.796145"><ele>806.0</ele><time>2026-04-25T09:49:57.926Z</time></trkpt><trkpt lat="43.398585" lon="12.7962267"><ele>804.0</ele><time>2026-04-25T09:49:59.916Z</time></trkpt><trkpt lat="43.39866" lon="12.796295"><ele>802.0</ele><time>2026-04-25T09:50:01.924Z</time></trkpt><trkpt lat="43.3987383" lon="12.796345"><ele>800.0</ele><time>2026-04-25T09:50:03.919Z</time></trkpt><trkpt lat="43.3988283" lon="12.7963833"><ele>798.0</ele><time>2026-04-25T09:50:05.915Z</time></trkpt><trkpt lat="43.3989317" lon="12.796395"><ele>797.6666666666666</ele><time>2026-04-25T09:50:07.919Z</time></trkpt><trkpt lat="43.3990517" lon="12.7964117"><ele>797.3333333333333</ele><time>2026-04-25T09:50:09.921Z</time></trkpt><trkpt lat="43.399115" lon="12.7964167"><ele>797.0</ele><time>2026-04-25T09:50:10.973Z</time></trkpt><trkpt lat="43.3991883" lon="12.7964067"><ele>796.6666666666666</ele><time>2026-04-25T09:50:12.934Z</time></trkpt><trkpt lat="43.3992767" lon="12.7963883"><ele>796.3333333333333</ele><time>2026-04-25T09:50:14.919Z</time></trkpt><trkpt lat="43.3993583" lon="12.7963783"><ele>796.0</ele><time>2026-04-25T09:50:16.971Z</time></trkpt><trkpt lat="43.39944" lon="12.79636"><ele>796.0</ele><time>2026-04-25T09:50:18.928Z</time></trkpt><trkpt lat="43.3995367" lon="12.79632"><ele>796.0</ele><time>2026-04-25T09:50:20.92Z</time></trkpt><trkpt lat="43.3996317" lon="12.7962633"><ele>796.0</ele><time>2026-04-25T09:50:22.988Z</time></trkpt><trkpt lat="43.399715" lon="12.7962217"><ele>796.0</ele><time>2026-04-25T09:50:24.917Z</time></trkpt><trkpt lat="43.3997983" lon="12.7961783"><ele>796.0</ele><time>2026-04-25T09:50:26.924Z</time></trkpt><trkpt lat="43.3998833" lon="12.7961267"><ele>793.0</ele><time>2026-04-25T09:50:28.975Z</time></trkpt><trkpt lat="43.3999617" lon="12.7960733"><ele>790.0</ele><time>2026-04-25T09:50:30.918Z</time></trkpt><trkpt lat="43.4000267" lon="12.7960633"><ele>787.0</ele><time>2026-04-25T09:50:32.922Z</time></trkpt><trkpt lat="43.4000933" lon="12.7960583"><ele>784.0</ele><time>2026-04-25T09:50:34.976Z</time></trkpt><trkpt lat="43.4002117" lon="12.7960417"><ele>781.0</ele><time>2026-04-25T09:50:36.925Z</time></trkpt><trkpt lat="43.4003567" lon="12.7959817"><ele>779.8</ele><time>2026-04-25T09:50:38.928Z</time></trkpt><trkpt lat="43.40046" lon="12.7959267"><ele>778.5999999999999</ele><time>2026-04-25T09:50:40.977Z</time></trkpt><trkpt lat="43.4005633" lon="12.79589"><ele>777.4</ele><time>2026-04-25T09:50:42.928Z</time></trkpt><trkpt lat="43.4006583" lon="12.7958733"><ele>776.2</ele><time>2026-04-25T09:50:44.927Z</time></trkpt><trkpt lat="43.400735" lon="12.795845"><ele>775.0</ele><time>2026-04-25T09:50:46.969Z</time></trkpt><trkpt lat="43.400785" lon="12.795765"><ele>772.1666666666666</ele><time>2026-04-25T09:50:48.926Z</time></trkpt><trkpt lat="43.4008267" lon="12.7956483"><ele>769.3333333333333</ele><time>2026-04-25T09:50:50.921Z</time></trkpt><trkpt lat="43.40086" lon="12.79555"><ele>766.5</ele><time>2026-04-25T09:50:52.949Z</time></trkpt><trkpt lat="43.4008783" lon="12.7954417"><ele>763.6666666666666</ele><time>2026-04-25T09:50:54.924Z</time></trkpt><trkpt lat="43.4008633" lon="12.7953033"><ele>760.8333333333333</ele><time>2026-04-25T09:50:56.928Z</time></trkpt><trkpt lat="43.400845" lon="12.7951867"><ele>758.0</ele><time>2026-04-25T09:50:58.979Z</time></trkpt><trkpt lat="43.4008833" lon="12.79508"><ele>757.0</ele><time>2026-04-25T09:51:01.923Z</time></trkpt><trkpt lat="43.4009683" lon="12.7950383"><ele>756.0</ele><time>2026-04-25T09:51:03.929Z</time></trkpt><trkpt lat="43.401065" lon="12.7950167"><ele>755.0</ele><time>2026-04-25T09:51:05.922Z</time></trkpt><trkpt lat="43.4011583" lon="12.79503"><ele>754.0</ele><time>2026-04-25T09:51:07.918Z</time></trkpt><trkpt lat="43.4012517" lon="12.7950917"><ele>753.0</ele><time>2026-04-25T09:51:09.923Z</time></trkpt><trkpt lat="43.4013433" lon="12.7952283"><ele>748.2</ele><time>2026-04-25T09:51:11.919Z</time></trkpt><trkpt lat="43.4013933" lon="12.7953267"><ele>743.4</ele><time>2026-04-25T09:51:12.924Z</time></trkpt><trkpt lat="43.4014433" lon="12.795435"><ele>738.6</ele><time>2026-04-25T09:51:13.921Z</time></trkpt><trkpt lat="43.4014933" lon="12.7955417"><ele>733.8000000000001</ele><time>2026-04-25T09:51:14.918Z</time></trkpt><trkpt lat="43.4015417" lon="12.7956517"><ele>729.0</ele><time>2026-04-25T09:51:15.921Z</time></trkpt><trkpt lat="43.4015917" lon="12.79576"><ele>729.0</ele><time>2026-04-25T09:51:16.974Z</time></trkpt><trkpt lat="43.4016433" lon="12.7958767"><ele>729.0</ele><time>2026-04-25T09:51:17.921Z</time></trkpt><trkpt lat="43.40169" lon="12.7959967"><ele>729.0</ele><time>2026-04-25T09:51:18.93Z</time></trkpt><trkpt lat="43.4017317" lon="12.7961167"><ele>729.0</ele><time>2026-04-25T09:51:19.925Z</time></trkpt><trkpt lat="43.401775" lon="12.796235"><ele>729.0</ele><time>2026-04-25T09:51:20.922Z</time></trkpt><trkpt lat="43.4018117" lon="12.79635"><ele>729.4000000000001</ele><time>2026-04-25T09:51:21.922Z</time></trkpt><trkpt lat="43.4018483" lon="12.7964667"><ele>729.8</ele><time>2026-04-25T09:51:22.989Z</time></trkpt><trkpt lat="43.401885" lon="12.7965833"><ele>730.2</ele><time>2026-04-25T09:51:23.929Z</time></trkpt><trkpt lat="43.40192" lon="12.7966983"><ele>730.5999999999999</ele><time>2026-04-25T09:51:24.924Z</time></trkpt><trkpt lat="43.4019583" lon="12.79681"><ele>731.0</ele><time>2026-04-25T09:51:25.92Z</time></trkpt><trkpt lat="43.4019983" lon="12.7969217"><ele>731.0</ele><time>2026-04-25T09:51:26.919Z</time></trkpt><trkpt lat="43.40203" lon="12.7970367"><ele>731.0</ele><time>2026-04-25T09:51:27.924Z</time></trkpt><trkpt lat="43.402055" lon="12.7971567"><ele>731.0</ele><time>2026-04-25T09:51:28.974Z</time></trkpt><trkpt lat="43.40208" lon="12.79727"><ele>731.0</ele><time>2026-04-25T09:51:29.919Z</time></trkpt><trkpt lat="43.4021033" lon="12.7973783"><ele>731.0</ele><time>2026-04-25T09:51:30.915Z</time></trkpt><trkpt lat="43.4021217" lon="12.7974833"><ele>731.0</ele><time>2026-04-25T09:51:31.923Z</time></trkpt><trkpt lat="43.402135" lon="12.7975783"><ele>731.0</ele><time>2026-04-25T09:51:32.921Z</time></trkpt><trkpt lat="43.4021483" lon="12.797665"><ele>731.0</ele><time>2026-04-25T09:51:33.923Z</time></trkpt><trkpt lat="43.4021667" lon="12.797815"><ele>731.0</ele><time>2026-04-25T09:51:35.919Z</time></trkpt><trkpt lat="43.4021867" lon="12.7979467"><ele>731.0</ele><time>2026-04-25T09:51:37.919Z</time></trkpt><trkpt lat="43.40219" lon="12.7980683"><ele>731.0</ele><time>2026-04-25T09:51:39.926Z</time></trkpt><trkpt lat="43.4021717" lon="12.7981767"><ele>731.0</ele><time>2026-04-25T09:51:41.92Z</time></trkpt><trkpt lat="43.4022267" lon="12.79813"><ele>725.75</ele><time>2026-04-25T09:51:47.925Z</time></trkpt><trkpt lat="43.4023433" lon="12.7979917"><ele>720.5</ele><time>2026-04-25T09:51:49.928Z</time></trkpt><trkpt lat="43.4024167" lon="12.797905"><ele>715.25</ele><time>2026-04-25T09:51:50.92Z</time></trkpt><trkpt lat="43.4024867" lon="12.7977667"><ele>710.0</ele><time>2026-04-25T09:51:51.924Z</time></trkpt><trkpt lat="43.4025483" lon="12.7976317"><ele>710.0</ele><time>2026-04-25T09:51:52.985Z</time></trkpt><trkpt lat="43.4025967" lon="12.7974983"><ele>710.0</ele><time>2026-04-25T09:51:53.918Z</time></trkpt><trkpt lat="43.40265" lon="12.797365"><ele>710.0</ele><time>2026-04-25T09:51:54.919Z</time></trkpt><trkpt lat="43.4027033" lon="12.79723"><ele>710.0</ele><time>2026-04-25T09:51:55.926Z</time></trkpt><trkpt lat="43.4027483" lon="12.797095"><ele>710.0</ele><time>2026-04-25T09:51:56.923Z</time></trkpt><trkpt lat="43.4027933" lon="12.796965"><ele>710.25</ele><time>2026-04-25T09:51:57.929Z</time></trkpt><trkpt lat="43.4028433" lon="12.7968283"><ele>710.5</ele><time>2026-04-25T09:51:58.972Z</time></trkpt><trkpt lat="43.4028917" lon="12.7966967"><ele>710.75</ele><time>2026-04-25T09:51:59.921Z</time></trkpt><trkpt lat="43.4029383" lon="12.7965567"><ele>711.0</ele><time>2026-04-25T09:52:00.92Z</time></trkpt><trkpt lat="43.403005" lon="12.7964183"><ele>707.25</ele><time>2026-04-25T09:52:01.919Z</time></trkpt><trkpt lat="43.40307" lon="12.7962917"><ele>703.5</ele><time>2026-04-25T09:52:02.92Z</time></trkpt><trkpt lat="43.4031433" lon="12.7961633"><ele>699.75</ele><time>2026-04-25T09:52:03.925Z</time></trkpt><trkpt lat="43.40321" lon="12.7960283"><ele>696.0</ele><time>2026-04-25T09:52:04.977Z</time></trkpt><trkpt lat="43.4032783" lon="12.7958933"><ele>696.0</ele><time>2026-04-25T09:52:05.918Z</time></trkpt><trkpt lat="43.4033367" lon="12.795755"><ele>696.0</ele><time>2026-04-25T09:52:06.915Z</time></trkpt><trkpt lat="43.4033867" lon="12.7956133"><ele>696.0</ele><time>2026-04-25T09:52:07.923Z</time></trkpt><trkpt lat="43.403435" lon="12.7954633"><ele>696.0</ele><time>2026-04-25T09:52:08.924Z</time></trkpt><trkpt lat="43.403475" lon="12.7953067"><ele>697.0</ele><time>2026-04-25T09:52:09.916Z</time></trkpt><trkpt lat="43.403505" lon="12.7951433"><ele>698.0</ele><time>2026-04-25T09:52:10.972Z</time></trkpt><trkpt lat="43.403525" lon="12.79498"><ele>699.0</ele><time>2026-04-25T09:52:11.926Z</time></trkpt><trkpt lat="43.4035267" lon="12.7948"><ele>700.0</ele><time>2026-04-25T09:52:12.926Z</time></trkpt><trkpt lat="43.4035183" lon="12.7946267"><ele>700.0</ele><time>2026-04-25T09:52:13.931Z</time></trkpt><trkpt lat="43.4034483" lon="12.794425"><ele>700.0</ele><time>2026-04-25T09:52:14.922Z</time></trkpt><trkpt lat="43.40341" lon="12.7942883"><ele>700.0</ele><time>2026-04-25T09:52:15.925Z</time></trkpt><trkpt lat="43.40338" lon="12.7941867"><ele>700.0</ele><time>2026-04-25T09:52:16.974Z</time></trkpt><trkpt lat="43.403355" lon="12.7940967"><ele>700.0</ele><time>2026-04-25T09:52:17.916Z</time></trkpt><trkpt lat="43.4033383" lon="12.7939767"><ele>699.2</ele><time>2026-04-25T09:52:19.92Z</time></trkpt><trkpt lat="43.4034133" lon="12.793915"><ele>698.4</ele><time>2026-04-25T09:52:22.98Z</time></trkpt><trkpt lat="43.40352" lon="12.793895"><ele>697.5999999999999</ele><time>2026-04-25T09:52:24.918Z</time></trkpt><trkpt lat="43.4036183" lon="12.7938267"><ele>696.8</ele><time>2026-04-25T09:52:26.918Z</time></trkpt><trkpt lat="43.403685" lon="12.793785"><ele>696.0</ele><time>2026-04-25T09:52:28.973Z</time></trkpt><trkpt lat="43.4038217" lon="12.7936283"><ele>697.0</ele><time>2026-04-25T09:53:14.923Z</time></trkpt><trkpt lat="43.403905" lon="12.7935583"><ele>698.0</ele><time>2026-04-25T09:53:15.918Z</time></trkpt><trkpt lat="43.403985" lon="12.793515"><ele>699.0</ele><time>2026-04-25T09:53:16.973Z</time></trkpt><trkpt lat="43.4040633" lon="12.793525"><ele>700.0</ele><time>2026-04-25T09:53:17.921Z</time></trkpt><trkpt lat="43.40414" lon="12.7935533"><ele>701.0</ele><time>2026-04-25T09:53:18.924Z</time></trkpt><trkpt lat="43.4042167" lon="12.793605"><ele>702.0</ele><time>2026-04-25T09:53:19.917Z</time></trkpt><trkpt lat="43.404275" lon="12.793715"><ele>702.0</ele><time>2026-04-25T09:53:20.928Z</time></trkpt><trkpt lat="43.40434" lon="12.7937967"><ele>702.0</ele><time>2026-04-25T09:53:21.913Z</time></trkpt><trkpt lat="43.40441" lon="12.793865"><ele>702.0</ele><time>2026-04-25T09:53:22.952Z</time></trkpt><trkpt lat="43.40448" lon="12.7939317"><ele>702.0</ele><time>2026-04-25T09:53:23.92Z</time></trkpt><trkpt lat="43.4045333" lon="12.794005"><ele>702.0</ele><time>2026-04-25T09:53:24.921Z</time></trkpt><trkpt lat="43.4045767" lon="12.7940733"><ele>702.0</ele><time>2026-04-25T09:53:25.92Z</time></trkpt><trkpt lat="43.4046333" lon="12.7941683"><ele>702.0</ele><time>2026-04-25T09:53:27.925Z</time></trkpt><trkpt lat="43.4046133" lon="12.7940717"><ele>702.0</ele><time>2026-04-25T09:53:43.92Z</time></trkpt><trkpt lat="43.4045267" lon="12.7939783"><ele>702.0</ele><time>2026-04-25T09:53:45.929Z</time></trkpt><trkpt lat="43.4044233" lon="12.793865"><ele>702.0</ele><time>2026-04-25T09:53:48.922Z</time></trkpt><trkpt lat="43.4043517" lon="12.7938017"><ele>702.0</ele><time>2026-04-25T09:53:50.924Z</time></trkpt><trkpt lat="43.4042683" lon="12.7936933"><ele>702.0</ele><time>2026-04-25T09:53:52.98Z</time></trkpt><trkpt lat="43.4041883" lon="12.7935733"><ele>702.0</ele><time>2026-04-25T09:53:54.921Z</time></trkpt><trkpt lat="43.4040833" lon="12.7934983"><ele>702.0</ele><time>2026-04-25T09:53:56.919Z</time></trkpt><trkpt lat="43.40402" lon="12.79348"><ele>702.0</ele><time>2026-04-25T09:53:57.918Z</time></trkpt><trkpt lat="43.4039" lon="12.79352"><ele>702.0</ele><time>2026-04-25T09:53:59.916Z</time></trkpt><trkpt lat="43.40384" lon="12.7936133"><ele>701.0</ele><time>2026-04-25T09:54:00.92Z</time></trkpt><trkpt lat="43.403785" lon="12.793685"><ele>700.0</ele><time>2026-04-25T09:54:01.922Z</time></trkpt><trkpt lat="43.4037217" lon="12.7937633"><ele>699.0</ele><time>2026-04-25T09:54:02.922Z</time></trkpt><trkpt lat="43.403655" lon="12.7938467"><ele>698.0</ele><time>2026-04-25T09:54:03.931Z</time></trkpt><trkpt lat="43.403595" lon="12.7939183"><ele>697.0</ele><time>2026-04-25T09:54:04.976Z</time></trkpt><trkpt lat="43.403535" lon="12.7939817"><ele>696.0</ele><time>2026-04-25T09:54:05.923Z</time></trkpt><trkpt lat="43.4034667" lon="12.7940417"><ele>696.0</ele><time>2026-04-25T09:54:06.922Z</time></trkpt><trkpt lat="43.403405" lon="12.794085"><ele>696.0</ele><time>2026-04-25T09:54:07.921Z</time></trkpt><trkpt lat="43.40334" lon="12.79418"><ele>696.0</ele><time>2026-04-25T09:54:09.92Z</time></trkpt><trkpt lat="43.403355" lon="12.794265"><ele>696.0</ele><time>2026-04-25T09:54:10.971Z</time></trkpt><trkpt lat="43.403385" lon="12.7943733"><ele>696.0</ele><time>2026-04-25T09:54:11.914Z</time></trkpt><trkpt lat="43.4034367" lon="12.7945017"><ele>696.0</ele><time>2026-04-25T09:54:12.922Z</time></trkpt><trkpt lat="43.4034633" lon="12.7946267"><ele>696.0</ele><time>2026-04-25T09:54:13.916Z</time></trkpt><trkpt lat="43.403485" lon="12.7947617"><ele>696.0</ele><time>2026-04-25T09:54:14.922Z</time></trkpt><trkpt lat="43.4035067" lon="12.7949167"><ele>696.0</ele><time>2026-04-25T09:54:15.924Z</time></trkpt><trkpt lat="43.4035083" lon="12.7950433"><ele>696.0</ele><time>2026-04-25T09:54:16.974Z</time></trkpt><trkpt lat="43.4035117" lon="12.7952067"><ele>696.0</ele><time>2026-04-25T09:54:18.921Z</time></trkpt><trkpt lat="43.4035367" lon="12.7953233"><ele>696.0</ele><time>2026-04-25T09:54:20.925Z</time></trkpt><trkpt lat="43.403655" lon="12.7953867"><ele>696.0</ele><time>2026-04-25T09:54:22.995Z</time></trkpt><trkpt lat="43.4037367" lon="12.7954117"><ele>696.0</ele><time>2026-04-25T09:54:23.923Z</time></trkpt><trkpt lat="43.4038183" lon="12.7954383"><ele>696.0</ele><time>2026-04-25T09:54:24.924Z</time></trkpt><trkpt lat="43.403895" lon="12.7954683"><ele>696.0</ele><time>2026-04-25T09:54:25.914Z</time></trkpt><trkpt lat="43.4039667" lon="12.7954983"><ele>696.0</ele><time>2026-04-25T09:54:26.925Z</time></trkpt><trkpt lat="43.4040267" lon="12.7955317"><ele>694.0</ele><time>2026-04-25T09:54:27.921Z</time></trkpt><trkpt lat="43.404085" lon="12.7955717"><ele>692.0</ele><time>2026-04-25T09:54:28.983Z</time></trkpt><trkpt lat="43.4041567" lon="12.7956517"><ele>690.0</ele><time>2026-04-25T09:54:30.925Z</time></trkpt><trkpt lat="43.404235" lon="12.7957383"><ele>688.0</ele><time>2026-04-25T09:54:32.924Z</time></trkpt><trkpt lat="43.4043083" lon="12.79582"><ele>686.0</ele><time>2026-04-25T09:54:34.979Z</time></trkpt><trkpt lat="43.4043683" lon="12.7959017"><ele>684.0</ele><time>2026-04-25T09:54:36.923Z</time></trkpt><trkpt lat="43.4044317" lon="12.796"><ele>681.5</ele><time>2026-04-25T09:54:38.925Z</time></trkpt><trkpt lat="43.4044933" lon="12.7960867"><ele>679.0</ele><time>2026-04-25T09:54:40.976Z</time></trkpt><trkpt lat="43.40457" lon="12.7961467"><ele>676.5</ele><time>2026-04-25T09:54:42.919Z</time></trkpt><trkpt lat="43.4046333" lon="12.796165"><ele>674.0</ele><time>2026-04-25T09:54:44.927Z</time></trkpt><trkpt lat="43.4047167" lon="12.7960867"><ele>671.5</ele><time>2026-04-25T09:55:55.926Z</time></trkpt><trkpt lat="43.40481" lon="12.7960733"><ele>669.0</ele><time>2026-04-25T09:55:58.972Z</time></trkpt><trkpt lat="43.4049317" lon="12.7960967"><ele>669.0</ele><time>2026-04-25T09:56:00.93Z</time></trkpt><trkpt lat="43.405005" lon="12.796115"><ele>669.0</ele><time>2026-04-25T09:56:01.922Z</time></trkpt><trkpt lat="43.40509" lon="12.7961367"><ele>669.0</ele><time>2026-04-25T09:56:02.924Z</time></trkpt><trkpt lat="43.405165" lon="12.7961567"><ele>669.0</ele><time>2026-04-25T09:56:03.919Z</time></trkpt><trkpt lat="43.4052317" lon="12.796185"><ele>669.0</ele><time>2026-04-25T09:56:04.98Z</time></trkpt><trkpt lat="43.405295" lon="12.7962167"><ele>669.0</ele><time>2026-04-25T09:56:05.922Z</time></trkpt><trkpt lat="43.4053567" lon="12.796295"><ele>669.0</ele><time>2026-04-25T09:56:06.926Z</time></trkpt><trkpt lat="43.4054167" lon="12.7963483"><ele>669.0</ele><time>2026-04-25T09:56:07.925Z</time></trkpt><trkpt lat="43.4054783" lon="12.7964283"><ele>669.0</ele><time>2026-04-25T09:56:08.925Z</time></trkpt><trkpt lat="43.4055417" lon="12.7964817"><ele>669.0</ele><time>2026-04-25T09:56:09.925Z</time></trkpt><trkpt lat="43.40561" lon="12.7965417"><ele>669.0</ele><time>2026-04-25T09:56:10.981Z</time></trkpt><trkpt lat="43.40568" lon="12.796585"><ele>669.0</ele><time>2026-04-25T09:56:11.92Z</time></trkpt><trkpt lat="43.405745" lon="12.7966567"><ele>669.6666666666666</ele><time>2026-04-25T09:56:12.928Z</time></trkpt><trkpt lat="43.4058067" lon="12.7967017"><ele>670.3333333333334</ele><time>2026-04-25T09:56:13.923Z</time></trkpt><trkpt lat="43.4058667" lon="12.7967517"><ele>671.0</ele><time>2026-04-25T09:56:14.924Z</time></trkpt><trkpt lat="43.4059717" lon="12.7968367"><ele>671.6666666666667</ele><time>2026-04-25T09:56:16.975Z</time></trkpt><trkpt lat="43.4060183" lon="12.796905"><ele>672.3333333333334</ele><time>2026-04-25T09:56:17.925Z</time></trkpt><trkpt lat="43.4060683" lon="12.7969783"><ele>673.0</ele><time>2026-04-25T09:56:18.924Z</time></trkpt><trkpt lat="43.406115" lon="12.7970583"><ele>673.0</ele><time>2026-04-25T09:56:19.917Z</time></trkpt><trkpt lat="43.4061633" lon="12.7971517"><ele>673.0</ele><time>2026-04-25T09:56:20.924Z</time></trkpt><trkpt lat="43.4062017" lon="12.7973517"><ele>673.0</ele><time>2026-04-25T09:56:21.917Z</time></trkpt><trkpt lat="43.4062417" lon="12.79744"><ele>673.0</ele><time>2026-04-25T09:56:23.002Z</time></trkpt><trkpt lat="43.4062767" lon="12.79752"><ele>673.0</ele><time>2026-04-25T09:56:23.929Z</time></trkpt><trkpt lat="43.4063083" lon="12.7975967"><ele>673.0</ele><time>2026-04-25T09:56:24.923Z</time></trkpt><trkpt lat="43.4063767" lon="12.7976383"><ele>675.1428571428572</ele><time>2026-04-25T09:56:25.923Z</time></trkpt><trkpt lat="43.4064083" lon="12.7977183"><ele>677.2857142857142</ele><time>2026-04-25T09:56:26.924Z</time></trkpt><trkpt lat="43.4064333" lon="12.7978033"><ele>679.4285714285714</ele><time>2026-04-25T09:56:27.921Z</time></trkpt><trkpt lat="43.4064683" lon="12.7978917"><ele>681.5714285714287</ele><time>2026-04-25T09:56:28.974Z</time></trkpt><trkpt lat="43.4065117" lon="12.7979767"><ele>683.7142857142858</ele><time>2026-04-25T09:56:29.922Z</time></trkpt><trkpt lat="43.4065617" lon="12.798065"><ele>685.8571428571429</ele><time>2026-04-25T09:56:30.923Z</time></trkpt><trkpt lat="43.4066083" lon="12.79815"><ele>688.0</ele><time>2026-04-25T09:56:31.914Z</time></trkpt><trkpt lat="43.40665" lon="12.7982267"><ele>688.0</ele><time>2026-04-25T09:56:32.923Z</time></trkpt><trkpt lat="43.406705" lon="12.7983633"><ele>688.0</ele><time>2026-04-25T09:56:34.977Z</time></trkpt><trkpt lat="43.4067417" lon="12.7984733"><ele>688.0</ele><time>2026-04-25T09:56:36.925Z</time></trkpt><trkpt lat="43.4067667" lon="12.7985733"><ele>688.0</ele><time>2026-04-25T09:56:38.923Z</time></trkpt><trkpt lat="43.4068" lon="12.7986967"><ele>688.0</ele><time>2026-04-25T09:56:40.976Z</time></trkpt><trkpt lat="43.4068617" lon="12.7988033"><ele>684.8333333333334</ele><time>2026-04-25T09:56:42.923Z</time></trkpt><trkpt lat="43.4069183" lon="12.798885"><ele>681.6666666666667</ele><time>2026-04-25T09:56:44.923Z</time></trkpt><trkpt lat="43.4069583" lon="12.79896"><ele>678.5</ele><time>2026-04-25T09:56:47.919Z</time></trkpt><trkpt lat="43.406965" lon="12.7990683"><ele>675.3333333333334</ele><time>2026-04-25T09:56:58.992Z</time></trkpt><trkpt lat="43.407" lon="12.7991833"><ele>672.1666666666666</ele><time>2026-04-25T09:57:12.918Z</time></trkpt><trkpt lat="43.40704" lon="12.7992633"><ele>669.0</ele><time>2026-04-25T09:57:32.919Z</time></trkpt><trkpt lat="43.407065" lon="12.7994417"><ele>671.5</ele><time>2026-04-25T09:57:40.968Z</time></trkpt><trkpt lat="43.4071" lon="12.7995617"><ele>674.0</ele><time>2026-04-25T09:57:43.931Z</time></trkpt><trkpt lat="43.4071417" lon="12.7996633"><ele>676.5</ele><time>2026-04-25T09:57:46.978Z</time></trkpt><trkpt lat="43.4071667" lon="12.7997567"><ele>679.0</ele><time>2026-04-25T09:57:48.926Z</time></trkpt><trkpt lat="43.4071867" lon="12.7998583"><ele>681.5</ele><time>2026-04-25T09:57:50.923Z</time></trkpt><trkpt lat="43.4072417" lon="12.7999683"><ele>684.0</ele><time>2026-04-25T09:57:51.924Z</time></trkpt><trkpt lat="43.40728" lon="12.8000767"><ele>679.4000000000001</ele><time>2026-04-25T09:57:53.92Z</time></trkpt><trkpt lat="43.4073267" lon="12.8002267"><ele>674.8</ele><time>2026-04-25T09:57:55.922Z</time></trkpt><trkpt lat="43.4073517" lon="12.8003167"><ele>670.2</ele><time>2026-04-25T09:57:56.925Z</time></trkpt><trkpt lat="43.4073967" lon="12.800425"><ele>665.5999999999999</ele><time>2026-04-25T09:57:57.919Z</time></trkpt><trkpt lat="43.40744" lon="12.8005283"><ele>661.0</ele><time>2026-04-25T09:57:58.982Z</time></trkpt><trkpt lat="43.4074833" lon="12.80064"><ele>661.0</ele><time>2026-04-25T09:57:59.917Z</time></trkpt><trkpt lat="43.40752" lon="12.800755"><ele>661.0</ele><time>2026-04-25T09:58:00.925Z</time></trkpt><trkpt lat="43.4075617" lon="12.800865"><ele>661.0</ele><time>2026-04-25T09:58:01.919Z</time></trkpt><trkpt lat="43.4076017" lon="12.8009717"><ele>661.0</ele><time>2026-04-25T09:58:02.928Z</time></trkpt><trkpt lat="43.4076383" lon="12.8010733"><ele>661.0</ele><time>2026-04-25T09:58:03.925Z</time></trkpt><trkpt lat="43.40768" lon="12.8011717"><ele>661.0</ele><time>2026-04-25T09:58:04.977Z</time></trkpt><trkpt lat="43.4077217" lon="12.801275"><ele>663.75</ele><time>2026-04-25T09:58:05.92Z</time></trkpt><trkpt lat="43.4077633" lon="12.80138"><ele>666.5</ele><time>2026-04-25T09:58:06.925Z</time></trkpt><trkpt lat="43.4078083" lon="12.8014783"><ele>669.25</ele><time>2026-04-25T09:58:07.922Z</time></trkpt><trkpt lat="43.40786" lon="12.8015867"><ele>672.0</ele><time>2026-04-25T09:58:08.93Z</time></trkpt><trkpt lat="43.4080033" lon="12.8017917"><ele>668.5714285714286</ele><time>2026-04-25T09:58:09.917Z</time></trkpt><trkpt lat="43.4080333" lon="12.8019083"><ele>665.1428571428571</ele><time>2026-04-25T09:58:10.974Z</time></trkpt><trkpt lat="43.4080583" lon="12.802"><ele>661.7142857142858</ele><time>2026-04-25T09:58:11.921Z</time></trkpt><trkpt lat="43.408085" lon="12.8020933"><ele>658.2857142857142</ele><time>2026-04-25T09:58:12.925Z</time></trkpt><trkpt lat="43.4081067" lon="12.8021833"><ele>654.8571428571429</ele><time>2026-04-25T09:58:13.923Z</time></trkpt><trkpt lat="43.4081283" lon="12.80227"><ele>651.4285714285714</ele><time>2026-04-25T09:58:14.93Z</time></trkpt><trkpt lat="43.4081617" lon="12.80235"><ele>648.0</ele><time>2026-04-25T09:58:15.927Z</time></trkpt><trkpt lat="43.4081933" lon="12.8024317"><ele>648.0</ele><time>2026-04-25T09:58:16.987Z</time></trkpt><trkpt lat="43.4082217" lon="12.802515"><ele>648.0</ele><time>2026-04-25T09:58:17.923Z</time></trkpt><trkpt lat="43.4082483" lon="12.8026017"><ele>648.0</ele><time>2026-04-25T09:58:18.929Z</time></trkpt><trkpt lat="43.408285" lon="12.8026967"><ele>648.0</ele><time>2026-04-25T09:58:19.923Z</time></trkpt><trkpt lat="43.4083083" lon="12.802785"><ele>648.0</ele><time>2026-04-25T09:58:20.932Z</time></trkpt><trkpt lat="43.4083333" lon="12.8028667"><ele>648.0</ele><time>2026-04-25T09:58:21.925Z</time></trkpt><trkpt lat="43.4083917" lon="12.80302"><ele>644.0</ele><time>2026-04-25T09:58:23.918Z</time></trkpt><trkpt lat="43.4084717" lon="12.803155"><ele>640.0</ele><time>2026-04-25T09:58:25.921Z</time></trkpt><trkpt lat="43.408515" lon="12.8032283"><ele>636.0</ele><time>2026-04-25T09:58:26.924Z</time></trkpt><trkpt lat="43.4085567" lon="12.8033"><ele>632.0</ele><time>2026-04-25T09:58:27.914Z</time></trkpt><trkpt lat="43.40859" lon="12.80338"><ele>628.0</ele><time>2026-04-25T09:58:28.984Z</time></trkpt><trkpt lat="43.4086467" lon="12.803545"><ele>625.3333333333334</ele><time>2026-04-25T09:58:30.914Z</time></trkpt><trkpt lat="43.4086733" lon="12.8036417"><ele>622.6666666666667</ele><time>2026-04-25T09:58:31.923Z</time></trkpt><trkpt lat="43.408695" lon="12.8037567"><ele>620.0</ele><time>2026-04-25T09:58:32.921Z</time></trkpt><trkpt lat="43.4087117" lon="12.80387"><ele>617.3333333333334</ele><time>2026-04-25T09:58:33.922Z</time></trkpt><trkpt lat="43.40871" lon="12.8039983"><ele>614.6666666666666</ele><time>2026-04-25T09:58:34.971Z</time></trkpt><trkpt lat="43.4087167" lon="12.80411"><ele>612.0</ele><time>2026-04-25T09:58:35.919Z</time></trkpt><trkpt lat="43.4087167" lon="12.8042117"><ele>612.0</ele><time>2026-04-25T09:58:36.917Z</time></trkpt><trkpt lat="43.4087167" lon="12.804315"><ele>612.0</ele><time>2026-04-25T09:58:37.921Z</time></trkpt><trkpt lat="43.408705" lon="12.8044267"><ele>612.0</ele><time>2026-04-25T09:58:38.913Z</time></trkpt><trkpt lat="43.4087167" lon="12.804525"><ele>612.0</ele><time>2026-04-25T09:58:39.925Z</time></trkpt><trkpt lat="43.4087233" lon="12.8046333"><ele>612.0</ele><time>2026-04-25T09:58:40.973Z</time></trkpt><trkpt lat="43.408735" lon="12.804735"><ele>612.0</ele><time>2026-04-25T09:58:41.916Z</time></trkpt><trkpt lat="43.408745" lon="12.8048267"><ele>611.8571428571429</ele><time>2026-04-25T09:58:42.915Z</time></trkpt><trkpt lat="43.4087333" lon="12.8049167"><ele>611.7142857142858</ele><time>2026-04-25T09:58:43.919Z</time></trkpt><trkpt lat="43.408715" lon="12.8050067"><ele>611.5714285714287</ele><time>2026-04-25T09:58:44.922Z</time></trkpt><trkpt lat="43.40871" lon="12.8050933"><ele>611.4285714285714</ele><time>2026-04-25T09:58:45.921Z</time></trkpt><trkpt lat="43.4087" lon="12.8051817"><ele>611.2857142857143</ele><time>2026-04-25T09:58:46.97Z</time></trkpt><trkpt lat="43.4086917" lon="12.80527"><ele>611.1428571428572</ele><time>2026-04-25T09:58:47.912Z</time></trkpt><trkpt lat="43.40868" lon="12.8053583"><ele>611.0</ele><time>2026-04-25T09:58:48.92Z</time></trkpt><trkpt lat="43.408665" lon="12.8055"><ele>609.4</ele><time>2026-04-25T09:58:50.916Z</time></trkpt><trkpt lat="43.408635" lon="12.805645"><ele>607.8</ele><time>2026-04-25T09:58:52.976Z</time></trkpt><trkpt lat="43.408595" lon="12.8057817"><ele>606.1999999999999</ele><time>2026-04-25T09:58:54.915Z</time></trkpt><trkpt lat="43.408545" lon="12.80592"><ele>604.6</ele><time>2026-04-25T09:58:56.923Z</time></trkpt><trkpt lat="43.4084917" lon="12.8060433"><ele>603.0</ele><time>2026-04-25T09:58:58.977Z</time></trkpt><trkpt lat="43.408425" lon="12.8061617"><ele>601.1666666666666</ele><time>2026-04-25T09:59:00.92Z</time></trkpt><trkpt lat="43.4083533" lon="12.8062217"><ele>599.3333333333334</ele><time>2026-04-25T09:59:02.925Z</time></trkpt><trkpt lat="43.4082817" lon="12.8062967"><ele>597.5</ele><time>2026-04-25T09:59:04.975Z</time></trkpt><trkpt lat="43.408205" lon="12.806385"><ele>595.6666666666667</ele><time>2026-04-25T09:59:06.915Z</time></trkpt><trkpt lat="43.4081317" lon="12.806455"><ele>593.8333333333334</ele><time>2026-04-25T09:59:08.924Z</time></trkpt><trkpt lat="43.40808" lon="12.8065383"><ele>592.0</ele><time>2026-04-25T09:59:10.969Z</time></trkpt><trkpt lat="43.4080267" lon="12.80671"><ele>590.0</ele><time>2026-04-25T09:59:12.918Z</time></trkpt><trkpt lat="43.4079733" lon="12.8068633"><ele>588.0</ele><time>2026-04-25T09:59:14.925Z</time></trkpt><trkpt lat="43.4079217" lon="12.80692"><ele>586.0</ele><time>2026-04-25T09:59:15.921Z</time></trkpt><trkpt lat="43.4078233" lon="12.8070417"><ele>584.0</ele><time>2026-04-25T09:59:17.916Z</time></trkpt><trkpt lat="43.4077633" lon="12.8070983"><ele>582.0</ele><time>2026-04-25T09:59:18.921Z</time></trkpt><trkpt lat="43.4076967" lon="12.8071733"><ele>582.0</ele><time>2026-04-25T09:59:19.918Z</time></trkpt><trkpt lat="43.4076217" lon="12.8072583"><ele>582.0</ele><time>2026-04-25T09:59:20.921Z</time></trkpt><trkpt lat="43.40757" lon="12.8073417"><ele>582.0</ele><time>2026-04-25T09:59:21.919Z</time></trkpt><trkpt lat="43.4075017" lon="12.8074317"><ele>582.0</ele><time>2026-04-25T09:59:22.969Z</time></trkpt><trkpt lat="43.40743" lon="12.8075217"><ele>582.0</ele><time>2026-04-25T09:59:23.912Z</time></trkpt><trkpt lat="43.4073233" lon="12.8076067"><ele>582.5</ele><time>2026-04-25T09:59:24.919Z</time></trkpt><trkpt lat="43.4072533" lon="12.8077033"><ele>583.0</ele><time>2026-04-25T09:59:25.915Z</time></trkpt><trkpt lat="43.407195" lon="12.8077883"><ele>583.5</ele><time>2026-04-25T09:59:26.923Z</time></trkpt><trkpt lat="43.40712" lon="12.807865"><ele>584.0</ele><time>2026-04-25T09:59:27.917Z</time></trkpt><trkpt lat="43.4070667" lon="12.80795"><ele>584.5</ele><time>2026-04-25T09:59:28.969Z</time></trkpt><trkpt lat="43.40701" lon="12.8080367"><ele>585.0</ele><time>2026-04-25T09:59:29.917Z</time></trkpt><trkpt lat="43.40696" lon="12.8081483"><ele>585.0</ele><time>2026-04-25T09:59:30.922Z</time></trkpt><trkpt lat="43.4069433" lon="12.8082333"><ele>585.0</ele><time>2026-04-25T09:59:31.925Z</time></trkpt><trkpt lat="43.4068967" lon="12.8083267"><ele>585.0</ele><time>2026-04-25T09:59:32.92Z</time></trkpt><trkpt lat="43.4068367" lon="12.808415"><ele>585.0</ele><time>2026-04-25T09:59:33.919Z</time></trkpt><trkpt lat="43.40679" lon="12.8085033"><ele>585.0</ele><time>2026-04-25T09:59:34.928Z</time></trkpt><trkpt lat="43.4067417" lon="12.8085883"><ele>585.0</ele><time>2026-04-25T09:59:35.92Z</time></trkpt><trkpt lat="43.4067" lon="12.8087317"><ele>583.5</ele><time>2026-04-25T09:59:37.925Z</time></trkpt><trkpt lat="43.406665" lon="12.8088417"><ele>582.0</ele><time>2026-04-25T09:59:39.917Z</time></trkpt><trkpt lat="43.4066183" lon="12.808905"><ele>580.5</ele><time>2026-04-25T09:59:40.925Z</time></trkpt><trkpt lat="43.4065633" lon="12.8089667"><ele>579.0</ele><time>2026-04-25T09:59:41.912Z</time></trkpt><trkpt lat="43.406505" lon="12.8090333"><ele>577.5</ele><time>2026-04-25T09:59:42.923Z</time></trkpt><trkpt lat="43.4064517" lon="12.8091"><ele>576.0</ele><time>2026-04-25T09:59:43.917Z</time></trkpt><trkpt lat="43.40637" lon="12.8092217"><ele>575.8571428571429</ele><time>2026-04-25T09:59:45.916Z</time></trkpt><trkpt lat="43.4063267" lon="12.8093"><ele>575.7142857142858</ele><time>2026-04-25T09:59:46.924Z</time></trkpt><trkpt lat="43.4062833" lon="12.8093667"><ele>575.5714285714286</ele><time>2026-04-25T09:59:47.923Z</time></trkpt><trkpt lat="43.4062317" lon="12.809425"><ele>575.4285714285714</ele><time>2026-04-25T09:59:48.92Z</time></trkpt><trkpt lat="43.40618" lon="12.809495"><ele>575.2857142857142</ele><time>2026-04-25T09:59:49.921Z</time></trkpt><trkpt lat="43.4061233" lon="12.8095783"><ele>575.1428571428571</ele><time>2026-04-25T09:59:50.917Z</time></trkpt><trkpt lat="43.406065" lon="12.809665"><ele>575.0</ele><time>2026-04-25T09:59:51.924Z</time></trkpt><trkpt lat="43.40593" lon="12.8098833"><ele>572.4</ele><time>2026-04-25T09:59:52.985Z</time></trkpt><trkpt lat="43.4058733" lon="12.8099667"><ele>569.8</ele><time>2026-04-25T09:59:53.916Z</time></trkpt><trkpt lat="43.405815" lon="12.81005"><ele>567.2</ele><time>2026-04-25T09:59:54.922Z</time></trkpt><trkpt lat="43.405725" lon="12.8102067"><ele>564.6</ele><time>2026-04-25T09:59:56.92Z</time></trkpt><trkpt lat="43.4056733" lon="12.81033"><ele>562.0</ele><time>2026-04-25T09:59:58.966Z</time></trkpt><trkpt lat="43.40559" lon="12.810375"><ele>562.0</ele><time>2026-04-25T10:00:02.918Z</time></trkpt><trkpt lat="43.4055533" lon="12.810265"><ele>562.0</ele><time>2026-04-25T10:00:04.918Z</time></trkpt><trkpt lat="43.4055233" lon="12.81012"><ele>562.0</ele><time>2026-04-25T10:00:06.919Z</time></trkpt><trkpt lat="43.4054667" lon="12.8100417"><ele>562.0</ele><time>2026-04-25T10:00:08.92Z</time></trkpt><trkpt lat="43.4054033" lon="12.8099583"><ele>562.0</ele><time>2026-04-25T10:00:10.927Z</time></trkpt><trkpt lat="43.4053333" lon="12.8098817"><ele>560.2</ele><time>2026-04-25T10:00:12.92Z</time></trkpt><trkpt lat="43.40528" lon="12.8098117"><ele>558.4000000000001</ele><time>2026-04-25T10:00:14.918Z</time></trkpt><trkpt lat="43.40524" lon="12.80971"><ele>556.5999999999999</ele><time>2026-04-25T10:00:17.918Z</time></trkpt><trkpt lat="43.40521" lon="12.809625"><ele>554.8</ele><time>2026-04-25T10:00:19.923Z</time></trkpt><trkpt lat="43.4051567" lon="12.8094933"><ele>553.0</ele><time>2026-04-25T10:00:21.925Z</time></trkpt><trkpt lat="43.4050817" lon="12.8093667"><ele>552.6666666666667</ele><time>2026-04-25T10:00:23.929Z</time></trkpt><trkpt lat="43.40502" lon="12.8092567"><ele>552.3333333333334</ele><time>2026-04-25T10:00:25.928Z</time></trkpt><trkpt lat="43.404965" lon="12.809185"><ele>552.0</ele><time>2026-04-25T10:00:27.919Z</time></trkpt><trkpt lat="43.4049133" lon="12.8091117"><ele>551.6666666666666</ele><time>2026-04-25T10:00:29.93Z</time></trkpt><trkpt lat="43.404845" lon="12.8090417"><ele>551.3333333333333</ele><time>2026-04-25T10:00:31.928Z</time></trkpt><trkpt lat="43.40478" lon="12.8089683"><ele>551.0</ele><time>2026-04-25T10:00:33.927Z</time></trkpt><trkpt lat="43.404755" lon="12.8088767"><ele>551.0</ele><time>2026-04-25T10:00:35.918Z</time></trkpt><trkpt lat="43.404735" lon="12.8087483"><ele>551.0</ele><time>2026-04-25T10:00:37.919Z</time></trkpt><trkpt lat="43.404715" lon="12.8086567"><ele>551.0</ele><time>2026-04-25T10:00:38.922Z</time></trkpt><trkpt lat="43.4046567" lon="12.8084983"><ele>551.0</ele><time>2026-04-25T10:00:40.929Z</time></trkpt><trkpt lat="43.4046267" lon="12.8084033"><ele>551.0</ele><time>2026-04-25T10:00:41.923Z</time></trkpt><trkpt lat="43.4045933" lon="12.808315"><ele>551.0</ele><time>2026-04-25T10:00:42.921Z</time></trkpt><trkpt lat="43.4045583" lon="12.808185"><ele>544.8</ele><time>2026-04-25T10:00:44.917Z</time></trkpt><trkpt lat="43.40451" lon="12.8080717"><ele>538.6</ele><time>2026-04-25T10:00:46.921Z</time></trkpt><trkpt lat="43.40446" lon="12.807955"><ele>532.4</ele><time>2026-04-25T10:00:48.922Z</time></trkpt><trkpt lat="43.40442" lon="12.80783"><ele>526.2</ele><time>2026-04-25T10:00:50.924Z</time></trkpt><trkpt lat="43.4043733" lon="12.807695"><ele>520.0</ele><time>2026-04-25T10:00:52.971Z</time></trkpt><trkpt lat="43.40433" lon="12.80756"><ele>520.0</ele><time>2026-04-25T10:00:54.925Z</time></trkpt><trkpt lat="43.404285" lon="12.807445"><ele>520.0</ele><time>2026-04-25T10:00:56.926Z</time></trkpt><trkpt lat="43.4042733" lon="12.807335"><ele>520.0</ele><time>2026-04-25T10:00:58.974Z</time></trkpt><trkpt lat="43.4042733" lon="12.80722"><ele>520.0</ele><time>2026-04-25T10:01:00.916Z</time></trkpt><trkpt lat="43.4042667" lon="12.807115"><ele>520.0</ele><time>2026-04-25T10:01:02.923Z</time></trkpt><trkpt lat="43.4042617" lon="12.8070133"><ele>520.0</ele><time>2026-04-25T10:01:04.915Z</time></trkpt><trkpt lat="43.404215" lon="12.806865"><ele>520.0000000000001</ele><time>2026-04-25T10:01:06.919Z</time></trkpt><trkpt lat="43.4041817" lon="12.80679"><ele>520.0</ele><time>2026-04-25T10:01:07.921Z</time></trkpt><trkpt lat="43.40414" lon="12.8067017"><ele>520.0</ele><time>2026-04-25T10:01:08.919Z</time></trkpt><trkpt lat="43.40409" lon="12.8066117"><ele>520.0</ele><time>2026-04-25T10:01:09.916Z</time></trkpt><trkpt lat="43.4040467" lon="12.8065233"><ele>520.0</ele><time>2026-04-25T10:01:10.919Z</time></trkpt><trkpt lat="43.4040067" lon="12.806445"><ele>520.0000000000001</ele><time>2026-04-25T10:01:11.918Z</time></trkpt><trkpt lat="43.40398" lon="12.806355"><ele>520.0</ele><time>2026-04-25T10:01:12.917Z</time></trkpt><trkpt lat="43.4039483" lon="12.8062317"><ele>520.0</ele><time>2026-04-25T10:01:14.923Z</time></trkpt><trkpt lat="43.4039067" lon="12.8061083"><ele>520.0</ele><time>2026-04-25T10:01:16.923Z</time></trkpt><trkpt lat="43.403865" lon="12.805975"><ele>520.0</ele><time>2026-04-25T10:01:18.922Z</time></trkpt><trkpt lat="43.4038267" lon="12.8058117"><ele>520.0</ele><time>2026-04-25T10:01:20.922Z</time></trkpt><trkpt lat="43.4038217" lon="12.8056467"><ele>520.0</ele><time>2026-04-25T10:01:22.972Z</time></trkpt><trkpt lat="43.4038267" lon="12.8055583"><ele>520.0</ele><time>2026-04-25T10:01:23.916Z</time></trkpt><trkpt lat="43.4038417" lon="12.8054483"><ele>520.0</ele><time>2026-04-25T10:01:25.913Z</time></trkpt><trkpt lat="43.4038417" lon="12.8053567"><ele>520.0</ele><time>2026-04-25T10:01:28.975Z</time></trkpt><trkpt lat="43.4038733" lon="12.8052417"><ele>520.0</ele><time>2026-04-25T10:01:39.925Z</time></trkpt><trkpt lat="43.4039233" lon="12.80509"><ele>520.0</ele><time>2026-04-25T10:01:41.92Z</time></trkpt><trkpt lat="43.4039633" lon="12.80497"><ele>519.1666666666667</ele><time>2026-04-25T10:01:43.917Z</time></trkpt><trkpt lat="43.4040117" lon="12.80487"><ele>518.3333333333334</ele><time>2026-04-25T10:01:45.918Z</time></trkpt><trkpt lat="43.404025" lon="12.804765"><ele>517.5</ele><time>2026-04-25T10:01:47.921Z</time></trkpt><trkpt lat="43.4040633" lon="12.804665"><ele>516.6666666666666</ele><time>2026-04-25T10:01:49.924Z</time></trkpt><trkpt lat="43.40414" lon="12.8045833"><ele>515.8333333333333</ele><time>2026-04-25T10:01:51.921Z</time></trkpt><trkpt lat="43.4041917" lon="12.80449"><ele>515.0</ele><time>2026-04-25T10:01:53.92Z</time></trkpt><trkpt lat="43.40425" lon="12.804355"><ele>513.4</ele><time>2026-04-25T10:01:55.915Z</time></trkpt><trkpt lat="43.40432" lon="12.80422"><ele>511.8</ele><time>2026-04-25T10:01:57.919Z</time></trkpt><trkpt lat="43.4043617" lon="12.804085"><ele>510.20000000000005</ele><time>2026-04-25T10:01:59.916Z</time></trkpt><trkpt lat="43.404315" lon="12.8039333"><ele>508.6</ele><time>2026-04-25T10:02:01.923Z</time></trkpt><trkpt lat="43.4042317" lon="12.8039433"><ele>507.0</ele><time>2026-04-25T10:02:03.914Z</time></trkpt><trkpt lat="43.4041317" lon="12.803965"><ele>507.0</ele><time>2026-04-25T10:02:05.924Z</time></trkpt><trkpt lat="43.4040117" lon="12.8040133"><ele>507.00000000000006</ele><time>2026-04-25T10:02:07.926Z</time></trkpt><trkpt lat="43.4039383" lon="12.8040533"><ele>507.00000000000006</ele><time>2026-04-25T10:02:08.929Z</time></trkpt><trkpt lat="43.4038417" lon="12.8041083"><ele>507.0</ele><time>2026-04-25T10:02:09.921Z</time></trkpt><trkpt lat="43.4037617" lon="12.8041733"><ele>507.0</ele><time>2026-04-25T10:02:10.925Z</time></trkpt><trkpt lat="43.4036883" lon="12.8042183"><ele>507.8333333333333</ele><time>2026-04-25T10:02:11.92Z</time></trkpt><trkpt lat="43.40362" lon="12.8042467"><ele>508.66666666666663</ele><time>2026-04-25T10:02:12.916Z</time></trkpt><trkpt lat="43.403555" lon="12.8042567"><ele>509.5</ele><time>2026-04-25T10:02:13.918Z</time></trkpt><trkpt lat="43.4034433" lon="12.8042067"><ele>510.3333333333333</ele><time>2026-04-25T10:02:15.921Z</time></trkpt><trkpt lat="43.40339" lon="12.804145"><ele>511.16666666666663</ele><time>2026-04-25T10:02:16.927Z</time></trkpt><trkpt lat="43.403325" lon="12.8040633"><ele>512.0</ele><time>2026-04-25T10:02:17.924Z</time></trkpt><trkpt lat="43.4032717" lon="12.803975"><ele>511.99999999999994</ele><time>2026-04-25T10:02:18.918Z</time></trkpt><trkpt lat="43.4032133" lon="12.80389"><ele>512.0</ele><time>2026-04-25T10:02:19.917Z</time></trkpt><trkpt lat="43.4031633" lon="12.80381"><ele>512.0</ele><time>2026-04-25T10:02:20.926Z</time></trkpt><trkpt lat="43.4031117" lon="12.803745"><ele>512.0</ele><time>2026-04-25T10:02:21.918Z</time></trkpt><trkpt lat="43.40305" lon="12.8036917"><ele>511.99999999999994</ele><time>2026-04-25T10:02:22.983Z</time></trkpt><trkpt lat="43.4029717" lon="12.80374"><ele>512.0</ele><time>2026-04-25T10:02:24.92Z</time></trkpt><trkpt lat="43.4029133" lon="12.8037983"><ele>516.3333333333333</ele><time>2026-04-25T10:02:26.919Z</time></trkpt><trkpt lat="43.4028667" lon="12.8039133"><ele>520.6666666666666</ele><time>2026-04-25T10:02:28.976Z</time></trkpt><trkpt lat="43.4028517" lon="12.8040133"><ele>525.0</ele><time>2026-04-25T10:02:29.917Z</time></trkpt><trkpt lat="43.40286" lon="12.80412"><ele>529.3333333333334</ele><time>2026-04-25T10:02:30.922Z</time></trkpt><trkpt lat="43.4028767" lon="12.8042167"><ele>533.6666666666667</ele><time>2026-04-25T10:02:31.926Z</time></trkpt><trkpt lat="43.4028833" lon="12.8043167"><ele>538.0</ele><time>2026-04-25T10:02:32.922Z</time></trkpt><trkpt lat="43.4028867" lon="12.8044183"><ele>539.0</ele><time>2026-04-25T10:02:33.927Z</time></trkpt><trkpt lat="43.402895" lon="12.8045267"><ele>540.0</ele><time>2026-04-25T10:02:34.915Z</time></trkpt><trkpt lat="43.4029083" lon="12.8046333"><ele>541.0</ele><time>2026-04-25T10:02:35.911Z</time></trkpt><trkpt lat="43.4029333" lon="12.8047417"><ele>542.0</ele><time>2026-04-25T10:02:36.916Z</time></trkpt><trkpt lat="43.402945" lon="12.8048367"><ele>543.0</ele><time>2026-04-25T10:02:37.918Z</time></trkpt><trkpt lat="43.4029517" lon="12.8049433"><ele>544.0</ele><time>2026-04-25T10:02:38.916Z</time></trkpt><trkpt lat="43.402955" lon="12.8050517"><ele>542.8</ele><time>2026-04-25T10:02:39.918Z</time></trkpt><trkpt lat="43.4029383" lon="12.8051683"><ele>541.5999999999999</ele><time>2026-04-25T10:02:40.923Z</time></trkpt><trkpt lat="43.40292" lon="12.80529"><ele>540.4</ele><time>2026-04-25T10:02:41.922Z</time></trkpt><trkpt lat="43.402895" lon="12.805415"><ele>539.1999999999999</ele><time>2026-04-25T10:02:42.921Z</time></trkpt><trkpt lat="43.4028567" lon="12.8055417"><ele>538.0</ele><time>2026-04-25T10:02:43.919Z</time></trkpt><trkpt lat="43.4028233" lon="12.80566"><ele>538.0</ele><time>2026-04-25T10:02:44.922Z</time></trkpt><trkpt lat="43.40279" lon="12.8057817"><ele>538.0</ele><time>2026-04-25T10:02:45.911Z</time></trkpt><trkpt lat="43.40277" lon="12.8059083"><ele>538.0</ele><time>2026-04-25T10:02:46.914Z</time></trkpt><trkpt lat="43.402755" lon="12.8060417"><ele>538.0</ele><time>2026-04-25T10:02:47.919Z</time></trkpt><trkpt lat="43.40275" lon="12.8061733"><ele>538.0</ele><time>2026-04-25T10:02:48.925Z</time></trkpt><trkpt lat="43.4027233" lon="12.80627"><ele>535.6</ele><time>2026-04-25T10:02:49.933Z</time></trkpt><trkpt lat="43.4027083" lon="12.8063567"><ele>533.1999999999999</ele><time>2026-04-25T10:02:50.918Z</time></trkpt><trkpt lat="43.402665" lon="12.8064233"><ele>530.8</ele><time>2026-04-25T10:02:51.923Z</time></trkpt><trkpt lat="43.40258" lon="12.8065233"><ele>528.4</ele><time>2026-04-25T10:02:53.928Z</time></trkpt><trkpt lat="43.4025167" lon="12.80667"><ele>526.0</ele><time>2026-04-25T10:02:55.917Z</time></trkpt><trkpt lat="43.40247" lon="12.8068"><ele>523.5</ele><time>2026-04-25T10:02:57.914Z</time></trkpt><trkpt lat="43.40245" lon="12.80698"><ele>521.0</ele><time>2026-04-25T10:02:59.917Z</time></trkpt><trkpt lat="43.402455" lon="12.8070917"><ele>518.5</ele><time>2026-04-25T10:03:00.923Z</time></trkpt><trkpt lat="43.4024367" lon="12.8072017"><ele>516.0</ele><time>2026-04-25T10:03:01.916Z</time></trkpt><trkpt lat="43.4024167" lon="12.8073017"><ele>513.5</ele><time>2026-04-25T10:03:02.926Z</time></trkpt><trkpt lat="43.4024017" lon="12.8073967"><ele>511.0</ele><time>2026-04-25T10:03:03.922Z</time></trkpt><trkpt lat="43.4023833" lon="12.8074817"><ele>511.0</ele><time>2026-04-25T10:03:04.919Z</time></trkpt><trkpt lat="43.402345" lon="12.8076267"><ele>511.0</ele><time>2026-04-25T10:03:06.921Z</time></trkpt><trkpt lat="43.4022467" lon="12.80773"><ele>511.0</ele><time>2026-04-25T10:03:08.921Z</time></trkpt><trkpt lat="43.4021267" lon="12.80776"><ele>511.0</ele><time>2026-04-25T10:03:10.913Z</time></trkpt><trkpt lat="43.4020283" lon="12.807825"><ele>512.6666666666667</ele><time>2026-04-25T10:03:12.92Z</time></trkpt><trkpt lat="43.40198" lon="12.8079733"><ele>514.3333333333334</ele><time>2026-04-25T10:03:14.918Z</time></trkpt><trkpt lat="43.401975" lon="12.8080617"><ele>516.0</ele><time>2026-04-25T10:03:15.92Z</time></trkpt><trkpt lat="43.4019517" lon="12.8081583"><ele>517.6666666666666</ele><time>2026-04-25T10:03:16.919Z</time></trkpt><trkpt lat="43.401925" lon="12.808245"><ele>519.3333333333333</ele><time>2026-04-25T10:03:17.915Z</time></trkpt><trkpt lat="43.4018967" lon="12.8083233"><ele>521.0</ele><time>2026-04-25T10:03:18.921Z</time></trkpt><trkpt lat="43.4018617" lon="12.8084133"><ele>515.0</ele><time>2026-04-25T10:03:19.925Z</time></trkpt><trkpt lat="43.401835" lon="12.8084967"><ele>509.0</ele><time>2026-04-25T10:03:20.919Z</time></trkpt><trkpt lat="43.40182" lon="12.8085867"><ele>503.0</ele><time>2026-04-25T10:03:21.92Z</time></trkpt><trkpt lat="43.40178" lon="12.808745"><ele>497.0</ele><time>2026-04-25T10:03:23.922Z</time></trkpt><trkpt lat="43.4017067" lon="12.8088317"><ele>491.0</ele><time>2026-04-25T10:03:24.917Z</time></trkpt><trkpt lat="43.4015983" lon="12.8089333"><ele>490.99999999999994</ele><time>2026-04-25T10:03:26.921Z</time></trkpt><trkpt lat="43.4015467" lon="12.808985"><ele>491.0</ele><time>2026-04-25T10:03:27.923Z</time></trkpt><trkpt lat="43.40149" lon="12.80904"><ele>491.0</ele><time>2026-04-25T10:03:28.967Z</time></trkpt><trkpt lat="43.4014267" lon="12.8091"><ele>491.0</ele><time>2026-04-25T10:03:29.922Z</time></trkpt><trkpt lat="43.4013733" lon="12.80916"><ele>490.99999999999994</ele><time>2026-04-25T10:03:30.912Z</time></trkpt><trkpt lat="43.40129" lon="12.8092567"><ele>491.0</ele><time>2026-04-25T10:03:32.919Z</time></trkpt><trkpt lat="43.401215" lon="12.8093117"><ele>492.6</ele><time>2026-04-25T10:03:34.917Z</time></trkpt><trkpt lat="43.4011383" lon="12.8093633"><ele>494.20000000000005</ele><time>2026-04-25T10:03:36.92Z</time></trkpt><trkpt lat="43.4010733" lon="12.809455"><ele>495.79999999999995</ele><time>2026-04-25T10:03:38.92Z</time></trkpt><trkpt lat="43.401015" lon="12.8096083"><ele>497.4</ele><time>2026-04-25T10:03:40.921Z</time></trkpt><trkpt lat="43.4009783" lon="12.8097683"><ele>499.0</ele><time>2026-04-25T10:03:42.911Z</time></trkpt><trkpt lat="43.4009583" lon="12.8098683"><ele>499.00000000000006</ele><time>2026-04-25T10:03:43.924Z</time></trkpt><trkpt lat="43.400935" lon="12.809985"><ele>499.0</ele><time>2026-04-25T10:03:44.915Z</time></trkpt><trkpt lat="43.4009133" lon="12.8101033"><ele>499.0</ele><time>2026-04-25T10:03:45.926Z</time></trkpt><trkpt lat="43.4008933" lon="12.81021"><ele>499.0</ele><time>2026-04-25T10:03:46.918Z</time></trkpt><trkpt lat="43.4008817" lon="12.810305"><ele>499.00000000000006</ele><time>2026-04-25T10:03:47.921Z</time></trkpt><trkpt lat="43.400885" lon="12.8103933"><ele>499.0</ele><time>2026-04-25T10:03:48.915Z</time></trkpt><trkpt lat="43.4009017" lon="12.8105717"><ele>496.00000000000006</ele><time>2026-04-25T10:03:50.915Z</time></trkpt><trkpt lat="43.400925" lon="12.8107167"><ele>493.0</ele><time>2026-04-25T10:03:51.927Z</time></trkpt><trkpt lat="43.400935" lon="12.8108167"><ele>490.0</ele><time>2026-04-25T10:03:52.979Z</time></trkpt><trkpt lat="43.400945" lon="12.810915"><ele>487.0</ele><time>2026-04-25T10:03:53.913Z</time></trkpt><trkpt lat="43.4009583" lon="12.8110167"><ele>484.00000000000006</ele><time>2026-04-25T10:03:54.906Z</time></trkpt><trkpt lat="43.400935" lon="12.8111683"><ele>481.0</ele><time>2026-04-25T10:03:56.917Z</time></trkpt><trkpt lat="43.4008983" lon="12.81133"><ele>478.83333333333337</ele><time>2026-04-25T10:03:58.965Z</time></trkpt><trkpt lat="43.40089" lon="12.8114217"><ele>476.6666666666667</ele><time>2026-04-25T10:03:59.92Z</time></trkpt><trkpt lat="43.4008617" lon="12.8115983"><ele>474.5</ele><time>2026-04-25T10:04:01.915Z</time></trkpt><trkpt lat="43.400845" lon="12.8116917"><ele>472.33333333333337</ele><time>2026-04-25T10:04:02.927Z</time></trkpt><trkpt lat="43.4008317" lon="12.811785"><ele>470.1666666666667</ele><time>2026-04-25T10:04:03.921Z</time></trkpt><trkpt lat="43.4008183" lon="12.81192"><ele>468.0</ele><time>2026-04-25T10:04:04.92Z</time></trkpt><trkpt lat="43.4008267" lon="12.8120233"><ele>465.8333333333333</ele><time>2026-04-25T10:04:05.924Z</time></trkpt><trkpt lat="43.4008483" lon="12.8121817"><ele>463.66666666666663</ele><time>2026-04-25T10:04:07.918Z</time></trkpt><trkpt lat="43.4008817" lon="12.8122617"><ele>461.5</ele><time>2026-04-25T10:04:08.917Z</time></trkpt><trkpt lat="43.4009117" lon="12.8123433"><ele>459.3333333333333</ele><time>2026-04-25T10:04:09.919Z</time></trkpt><trkpt lat="43.4009433" lon="12.8124233"><ele>457.16666666666663</ele><time>2026-04-25T10:04:10.919Z</time></trkpt><trkpt lat="43.4009833" lon="12.812575"><ele>455.0</ele><time>2026-04-25T10:04:12.914Z</time></trkpt><trkpt lat="43.4010117" lon="12.8127233"><ele>450.8</ele><time>2026-04-25T10:04:14.922Z</time></trkpt><trkpt lat="43.4009483" lon="12.812835"><ele>446.6</ele><time>2026-04-25T10:04:16.915Z</time></trkpt><trkpt lat="43.4009033" lon="12.8129667"><ele>442.4</ele><time>2026-04-25T10:04:18.918Z</time></trkpt><trkpt lat="43.4008617" lon="12.8131067"><ele>438.2</ele><time>2026-04-25T10:04:20.921Z</time></trkpt><trkpt lat="43.4007833" lon="12.8132067"><ele>434.0</ele><time>2026-04-25T10:04:22.979Z</time></trkpt><trkpt lat="43.4006883" lon="12.813275"><ele>434.0</ele><time>2026-04-25T10:04:24.914Z</time></trkpt><trkpt lat="43.40057" lon="12.8133567"><ele>434.0</ele><time>2026-04-25T10:04:26.925Z</time></trkpt><trkpt lat="43.4005067" lon="12.8134033"><ele>434.0</ele><time>2026-04-25T10:04:27.919Z</time></trkpt><trkpt lat="43.4004433" lon="12.8134483"><ele>434.0</ele><time>2026-04-25T10:04:28.968Z</time></trkpt><trkpt lat="43.4003833" lon="12.8134883"><ele>434.0</ele><time>2026-04-25T10:04:29.919Z</time></trkpt><trkpt lat="43.4002667" lon="12.8135667"><ele>430.8333333333333</ele><time>2026-04-25T10:04:31.916Z</time></trkpt><trkpt lat="43.4002033" lon="12.8135917"><ele>427.66666666666663</ele><time>2026-04-25T10:04:32.915Z</time></trkpt><trkpt lat="43.400135" lon="12.8136083"><ele>424.5</ele><time>2026-04-25T10:04:33.923Z</time></trkpt><trkpt lat="43.4000683" lon="12.8136083"><ele>421.33333333333337</ele><time>2026-04-25T10:04:34.924Z</time></trkpt><trkpt lat="43.3999433" lon="12.8136317"><ele>418.1666666666667</ele><time>2026-04-25T10:04:36.918Z</time></trkpt><trkpt lat="43.3998633" lon="12.813665"><ele>415.0</ele><time>2026-04-25T10:04:37.913Z</time></trkpt><trkpt lat="43.399785" lon="12.8137"><ele>415.0</ele><time>2026-04-25T10:04:38.921Z</time></trkpt><trkpt lat="43.39971" lon="12.8137433"><ele>415.0</ele><time>2026-04-25T10:04:39.919Z</time></trkpt><trkpt lat="43.39964" lon="12.813785"><ele>415.0</ele><time>2026-04-25T10:04:40.918Z</time></trkpt><trkpt lat="43.39958" lon="12.81383"><ele>415.0</ele><time>2026-04-25T10:04:41.918Z</time></trkpt><trkpt lat="43.3995167" lon="12.81387"><ele>415.0</ele><time>2026-04-25T10:04:42.912Z</time></trkpt><trkpt lat="43.39945" lon="12.8139083"><ele>415.0</ele><time>2026-04-25T10:04:43.918Z</time></trkpt><trkpt lat="43.3993883" lon="12.8139467"><ele>415.0</ele><time>2026-04-25T10:04:44.919Z</time></trkpt><trkpt lat="43.3993283" lon="12.8139883"><ele>414.6666666666667</ele><time>2026-04-25T10:04:45.924Z</time></trkpt><trkpt lat="43.399235" lon="12.81406"><ele>414.33333333333337</ele><time>2026-04-25T10:04:47.917Z</time></trkpt><trkpt lat="43.39914" lon="12.8140883"><ele>414.0</ele><time>2026-04-25T10:04:49.925Z</time></trkpt><trkpt lat="43.3990583" lon="12.8141233"><ele>413.66666666666663</ele><time>2026-04-25T10:04:51.917Z</time></trkpt><trkpt lat="43.398995" lon="12.8141283"><ele>413.3333333333333</ele><time>2026-04-25T10:04:54.919Z</time></trkpt><trkpt lat="43.3989433" lon="12.81406"><ele>413.0</ele><time>2026-04-25T10:05:03.917Z</time></trkpt><trkpt lat="43.398905" lon="12.8139083"><ele>413.0</ele><time>2026-04-25T10:05:05.912Z</time></trkpt><trkpt lat="43.3988967" lon="12.8137517"><ele>413.0</ele><time>2026-04-25T10:05:07.917Z</time></trkpt><trkpt lat="43.398885" lon="12.8135883"><ele>413.0</ele><time>2026-04-25T10:05:09.923Z</time></trkpt><trkpt lat="43.39885" lon="12.813455"><ele>413.0</ele><time>2026-04-25T10:05:10.923Z</time></trkpt><trkpt lat="43.39882" lon="12.8133383"><ele>413.0</ele><time>2026-04-25T10:05:11.915Z</time></trkpt><trkpt lat="43.3987867" lon="12.8132283"><ele>414.7142857142857</ele><time>2026-04-25T10:05:12.913Z</time></trkpt><trkpt lat="43.398755" lon="12.8131283"><ele>416.42857142857144</ele><time>2026-04-25T10:05:13.922Z</time></trkpt><trkpt lat="43.3987133" lon="12.8130417"><ele>418.1428571428571</ele><time>2026-04-25T10:05:14.916Z</time></trkpt><trkpt lat="43.3986567" lon="12.8129717"><ele>419.8571428571429</ele><time>2026-04-25T10:05:15.918Z</time></trkpt><trkpt lat="43.3985967" lon="12.8129017"><ele>421.57142857142856</ele><time>2026-04-25T10:05:16.92Z</time></trkpt><trkpt lat="43.3985417" lon="12.81285"><ele>423.2857142857143</ele><time>2026-04-25T10:05:17.924Z</time></trkpt><trkpt lat="43.3984917" lon="12.8127833"><ele>425.0</ele><time>2026-04-25T10:05:18.916Z</time></trkpt><trkpt lat="43.3984467" lon="12.8127033"><ele>426.6</ele><time>2026-04-25T10:05:19.917Z</time></trkpt><trkpt lat="43.3983983" lon="12.8126017"><ele>428.2</ele><time>2026-04-25T10:05:20.925Z</time></trkpt><trkpt lat="43.3983433" lon="12.8124967"><ele>429.79999999999995</ele><time>2026-04-25T10:05:21.92Z</time></trkpt><trkpt lat="43.3982833" lon="12.81239"><ele>431.4</ele><time>2026-04-25T10:05:22.99Z</time></trkpt><trkpt lat="43.398225" lon="12.81229"><ele>433.0</ele><time>2026-04-25T10:05:23.915Z</time></trkpt><trkpt lat="43.39816" lon="12.81221"><ele>433.00000000000006</ele><time>2026-04-25T10:05:24.919Z</time></trkpt><trkpt lat="43.3981183" lon="12.8121233"><ele>433.0</ele><time>2026-04-25T10:05:25.923Z</time></trkpt><trkpt lat="43.39808" lon="12.8120283"><ele>433.0</ele><time>2026-04-25T10:05:26.918Z</time></trkpt><trkpt lat="43.3980367" lon="12.8119367"><ele>433.0</ele><time>2026-04-25T10:05:27.912Z</time></trkpt><trkpt lat="43.3979867" lon="12.81185"><ele>433.00000000000006</ele><time>2026-04-25T10:05:28.967Z</time></trkpt><trkpt lat="43.3979367" lon="12.8117633"><ele>433.0</ele><time>2026-04-25T10:05:29.921Z</time></trkpt><trkpt lat="43.3978983" lon="12.8116767"><ele>433.6666666666667</ele><time>2026-04-25T10:05:30.924Z</time></trkpt><trkpt lat="43.397865" lon="12.8115883"><ele>434.33333333333337</ele><time>2026-04-25T10:05:31.921Z</time></trkpt><trkpt lat="43.3978317" lon="12.8114967"><ele>435.0</ele><time>2026-04-25T10:05:32.925Z</time></trkpt><trkpt lat="43.3978017" lon="12.8113917"><ele>435.66666666666663</ele><time>2026-04-25T10:05:33.923Z</time></trkpt><trkpt lat="43.397775" lon="12.8112817"><ele>436.3333333333333</ele><time>2026-04-25T10:05:34.92Z</time></trkpt><trkpt lat="43.3977483" lon="12.8111617"><ele>437.0</ele><time>2026-04-25T10:05:35.922Z</time></trkpt><trkpt lat="43.397715" lon="12.8110533"><ele>438.8333333333333</ele><time>2026-04-25T10:05:36.924Z</time></trkpt><trkpt lat="43.39767" lon="12.81095"><ele>440.66666666666663</ele><time>2026-04-25T10:05:37.925Z</time></trkpt><trkpt lat="43.3976267" lon="12.810845"><ele>442.5</ele><time>2026-04-25T10:05:38.917Z</time></trkpt><trkpt lat="43.3975867" lon="12.810755"><ele>444.33333333333337</ele><time>2026-04-25T10:05:39.924Z</time></trkpt><trkpt lat="43.39754" lon="12.810675"><ele>446.1666666666667</ele><time>2026-04-25T10:05:40.927Z</time></trkpt><trkpt lat="43.3974933" lon="12.8106167"><ele>448.0</ele><time>2026-04-25T10:05:41.927Z</time></trkpt><trkpt lat="43.3973933" lon="12.81052"><ele>448.0</ele><time>2026-04-25T10:05:43.923Z</time></trkpt><trkpt lat="43.3972883" lon="12.8104533"><ele>447.99999999999994</ele><time>2026-04-25T10:05:45.923Z</time></trkpt><trkpt lat="43.3971833" lon="12.8103933"><ele>447.99999999999994</ele><time>2026-04-25T10:05:47.925Z</time></trkpt><trkpt lat="43.3970894" lon="12.8103367"><ele>448.0</ele><time>2026-04-25T10:05:49.921Z</time></trkpt><trkpt lat="43.3969936" lon="12.8102583"><ele>448.0</ele><time>2026-04-25T10:05:51.925Z</time></trkpt><trkpt lat="43.396942" lon="12.8101921"><ele>448.42857142857144</ele><time>2026-04-25T10:05:52.95Z</time></trkpt><trkpt lat="43.3968921" lon="12.810131"><ele>448.8571428571429</ele><time>2026-04-25T10:05:53.928Z</time></trkpt><trkpt lat="43.3968581" lon="12.8100459"><ele>449.2857142857143</ele><time>2026-04-25T10:05:54.926Z</time></trkpt><trkpt lat="43.3968287" lon="12.8099547"><ele>449.7142857142857</ele><time>2026-04-25T10:05:55.919Z</time></trkpt><trkpt lat="43.3968092" lon="12.8098591"><ele>450.14285714285717</ele><time>2026-04-25T10:05:56.921Z</time></trkpt><trkpt lat="43.3967904" lon="12.8097643"><ele>450.57142857142856</ele><time>2026-04-25T10:05:57.921Z</time></trkpt><trkpt lat="43.3967672" lon="12.8096495"><ele>451.0</ele><time>2026-04-25T10:05:58.97Z</time></trkpt><trkpt lat="43.3967427" lon="12.8095379"><ele>451.0</ele><time>2026-04-25T10:05:59.916Z</time></trkpt><trkpt lat="43.3967127" lon="12.809441"><ele>451.0</ele><time>2026-04-25T10:06:00.929Z</time></trkpt><trkpt lat="43.3966888" lon="12.8093515"><ele>451.0</ele><time>2026-04-25T10:06:01.922Z</time></trkpt><trkpt lat="43.3966832" lon="12.8092499"><ele>451.0</ele><time>2026-04-25T10:06:02.923Z</time></trkpt><trkpt lat="43.3966865" lon="12.8091462"><ele>451.0</ele><time>2026-04-25T10:06:03.911Z</time></trkpt><trkpt lat="43.3966902" lon="12.8090452"><ele>451.0</ele><time>2026-04-25T10:06:04.923Z</time></trkpt><trkpt lat="43.3966876" lon="12.8089477"><ele>451.0</ele><time>2026-04-25T10:06:05.923Z</time></trkpt><trkpt lat="43.3966676" lon="12.8087907"><ele>453.50000000000006</ele><time>2026-04-25T10:06:07.927Z</time></trkpt><trkpt lat="43.3966235" lon="12.8086444"><ele>456.0</ele><time>2026-04-25T10:06:09.923Z</time></trkpt><trkpt lat="43.3965893" lon="12.8085682"><ele>458.5</ele><time>2026-04-25T10:06:10.924Z</time></trkpt><trkpt lat="43.39655" lon="12.8084955"><ele>461.0</ele><time>2026-04-25T10:06:11.925Z</time></trkpt><trkpt lat="43.3965002" lon="12.8084231"><ele>463.50000000000006</ele><time>2026-04-25T10:06:12.92Z</time></trkpt><trkpt lat="43.3964502" lon="12.8083615"><ele>466.0</ele><time>2026-04-25T10:06:13.925Z</time></trkpt><trkpt lat="43.3963612" lon="12.8082708"><ele>465.00000000000006</ele><time>2026-04-25T10:06:15.925Z</time></trkpt><trkpt lat="43.3962771" lon="12.8081685"><ele>464.0</ele><time>2026-04-25T10:06:17.927Z</time></trkpt><trkpt lat="43.3962317" lon="12.8081067"><ele>463.0</ele><time>2026-04-25T10:06:18.923Z</time></trkpt><trkpt lat="43.39614" lon="12.808"><ele>462.0</ele><time>2026-04-25T10:06:20.919Z</time></trkpt><trkpt lat="43.3960867" lon="12.8079217"><ele>461.00000000000006</ele><time>2026-04-25T10:06:21.919Z</time></trkpt><trkpt lat="43.3960383" lon="12.8078567"><ele>460.0</ele><time>2026-04-25T10:06:22.989Z</time></trkpt><trkpt lat="43.395965" lon="12.8077367"><ele>463.50000000000006</ele><time>2026-04-25T10:06:24.917Z</time></trkpt><trkpt lat="43.39591" lon="12.80766"><ele>467.0</ele><time>2026-04-25T10:06:26.918Z</time></trkpt><trkpt lat="43.3958683" lon="12.8075867"><ele>470.5</ele><time>2026-04-25T10:06:27.922Z</time></trkpt><trkpt lat="43.3958233" lon="12.8075167"><ele>474.0</ele><time>2026-04-25T10:06:28.969Z</time></trkpt><trkpt lat="43.3957567" lon="12.8074167"><ele>477.50000000000006</ele><time>2026-04-25T10:06:29.916Z</time></trkpt><trkpt lat="43.39569" lon="12.807315"><ele>481.0</ele><time>2026-04-25T10:06:30.92Z</time></trkpt><trkpt lat="43.39563" lon="12.80722"><ele>481.0</ele><time>2026-04-25T10:06:31.926Z</time></trkpt><trkpt lat="43.395575" lon="12.8071283"><ele>481.0</ele><time>2026-04-25T10:06:32.928Z</time></trkpt><trkpt lat="43.3955217" lon="12.8070383"><ele>481.0</ele><time>2026-04-25T10:06:33.923Z</time></trkpt><trkpt lat="43.3954517" lon="12.8069183"><ele>481.0</ele><time>2026-04-25T10:06:35.925Z</time></trkpt><trkpt lat="43.395405" lon="12.8068167"><ele>481.0</ele><time>2026-04-25T10:06:37.918Z</time></trkpt><trkpt lat="43.3953617" lon="12.8067067"><ele>480.4</ele><time>2026-04-25T10:06:39.912Z</time></trkpt><trkpt lat="43.3953267" lon="12.80663"><ele>479.8</ele><time>2026-04-25T10:06:40.919Z</time></trkpt><trkpt lat="43.395245" lon="12.8064633"><ele>479.19999999999993</ele><time>2026-04-25T10:06:42.914Z</time></trkpt><trkpt lat="43.3952017" lon="12.806375"><ele>478.59999999999997</ele><time>2026-04-25T10:06:43.92Z</time></trkpt><trkpt lat="43.3951533" lon="12.80628"><ele>478.0</ele><time>2026-04-25T10:06:44.929Z</time></trkpt><trkpt lat="43.3950983" lon="12.8062"><ele>478.00000000000006</ele><time>2026-04-25T10:06:45.924Z</time></trkpt><trkpt lat="43.3950417" lon="12.8061217"><ele>478.0</ele><time>2026-04-25T10:06:46.925Z</time></trkpt><trkpt lat="43.394985" lon="12.8060783"><ele>478.00000000000006</ele><time>2026-04-25T10:06:47.922Z</time></trkpt><trkpt lat="43.3949267" lon="12.8060267"><ele>478.00000000000006</ele><time>2026-04-25T10:06:48.92Z</time></trkpt><trkpt lat="43.3948883" lon="12.8059567"><ele>478.0</ele><time>2026-04-25T10:06:49.919Z</time></trkpt><trkpt lat="43.3948533" lon="12.8058633"><ele>478.00000000000006</ele><time>2026-04-25T10:06:50.914Z</time></trkpt><trkpt lat="43.394805" lon="12.80578"><ele>478.00000000000006</ele><time>2026-04-25T10:06:51.922Z</time></trkpt><trkpt lat="43.3947633" lon="12.8056933"><ele>477.83333333333337</ele><time>2026-04-25T10:06:52.982Z</time></trkpt><trkpt lat="43.394715" lon="12.80561"><ele>477.6666666666667</ele><time>2026-04-25T10:06:53.923Z</time></trkpt><trkpt lat="43.3946733" lon="12.8055283"><ele>477.5</ele><time>2026-04-25T10:06:54.925Z</time></trkpt><trkpt lat="43.39461" lon="12.80546"><ele>477.33333333333337</ele><time>2026-04-25T10:06:55.928Z</time></trkpt><trkpt lat="43.394555" lon="12.8053817"><ele>477.1666666666667</ele><time>2026-04-25T10:06:56.927Z</time></trkpt><trkpt lat="43.3945084" lon="12.8053007"><ele>477.0</ele><time>2026-04-25T10:06:57.92Z</time></trkpt><trkpt lat="43.3944745" lon="12.8052204"><ele>480.1666666666667</ele><time>2026-04-25T10:06:58.968Z</time></trkpt><trkpt lat="43.3943844" lon="12.8050937"><ele>483.33333333333337</ele><time>2026-04-25T10:07:00.929Z</time></trkpt><trkpt lat="43.3943387" lon="12.8050214"><ele>486.5</ele><time>2026-04-25T10:07:01.913Z</time></trkpt><trkpt lat="43.394292" lon="12.8049336"><ele>489.6666666666667</ele><time>2026-04-25T10:07:02.919Z</time></trkpt><trkpt lat="43.3942484" lon="12.8048502"><ele>492.83333333333337</ele><time>2026-04-25T10:07:03.917Z</time></trkpt><trkpt lat="43.3941925" lon="12.8047673"><ele>496.0</ele><time>2026-04-25T10:07:04.923Z</time></trkpt><trkpt lat="43.3941401" lon="12.8046956"><ele>496.0</ele><time>2026-04-25T10:07:05.916Z</time></trkpt><trkpt lat="43.3940892" lon="12.8046275"><ele>496.00000000000006</ele><time>2026-04-25T10:07:06.921Z</time></trkpt><trkpt lat="43.3940339" lon="12.804568"><ele>496.0</ele><time>2026-04-25T10:07:07.924Z</time></trkpt><trkpt lat="43.393975" lon="12.8045072"><ele>496.0</ele><time>2026-04-25T10:07:08.922Z</time></trkpt><trkpt lat="43.3939133" lon="12.8044416"><ele>496.00000000000006</ele><time>2026-04-25T10:07:09.919Z</time></trkpt><trkpt lat="43.3938586" lon="12.804378"><ele>496.0</ele><time>2026-04-25T10:07:10.923Z</time></trkpt><trkpt lat="43.3938192" lon="12.8043023"><ele>496.0</ele><time>2026-04-25T10:07:11.924Z</time></trkpt><trkpt lat="43.3937784" lon="12.8042264"><ele>495.6</ele><time>2026-04-25T10:07:12.92Z</time></trkpt><trkpt lat="43.3937304" lon="12.8041549"><ele>495.20000000000005</ele><time>2026-04-25T10:07:13.928Z</time></trkpt><trkpt lat="43.3936816" lon="12.8040912"><ele>494.79999999999995</ele><time>2026-04-25T10:07:14.923Z</time></trkpt><trkpt lat="43.3936284" lon="12.8039822"><ele>494.4</ele><time>2026-04-25T10:07:16.917Z</time></trkpt><trkpt lat="43.393607" lon="12.8038469"><ele>494.0</ele><time>2026-04-25T10:07:18.92Z</time></trkpt><trkpt lat="43.3936244" lon="12.8036817"><ele>493.99999999999994</ele><time>2026-04-25T10:07:20.92Z</time></trkpt><trkpt lat="43.3936724" lon="12.8035632"><ele>494.0</ele><time>2026-04-25T10:07:22.99Z</time></trkpt><trkpt lat="43.3937133" lon="12.8034733"><ele>494.0</ele><time>2026-04-25T10:07:25.918Z</time></trkpt><trkpt lat="43.3937167" lon="12.8033433"><ele>494.0</ele><time>2026-04-25T10:07:28.973Z</time></trkpt><trkpt lat="43.3937167" lon="12.8032233"><ele>493.99999999999994</ele><time>2026-04-25T10:07:30.923Z</time></trkpt><trkpt lat="43.3937183" lon="12.8031167"><ele>494.0</ele><time>2026-04-25T10:07:32.928Z</time></trkpt><trkpt lat="43.3937567" lon="12.803035"><ele>494.79999999999995</ele><time>2026-04-25T10:07:35.933Z</time></trkpt><trkpt lat="43.3938233" lon="12.8029967"><ele>495.59999999999997</ele><time>2026-04-25T10:07:37.927Z</time></trkpt><trkpt lat="43.3939467" lon="12.8029283"><ele>496.4</ele><time>2026-04-25T10:07:39.925Z</time></trkpt><trkpt lat="43.3940217" lon="12.802835"><ele>497.2</ele><time>2026-04-25T10:07:41.922Z</time></trkpt><trkpt lat="43.39407" lon="12.8027017"><ele>498.0</ele><time>2026-04-25T10:07:43.923Z</time></trkpt><trkpt lat="43.3940683" lon="12.8025267"><ele>503.0</ele><time>2026-04-25T10:07:45.928Z</time></trkpt><trkpt lat="43.394055" lon="12.8024383"><ele>508.0</ele><time>2026-04-25T10:07:46.919Z</time></trkpt><trkpt lat="43.3940283" lon="12.802265"><ele>513.0</ele><time>2026-04-25T10:07:48.915Z</time></trkpt><trkpt lat="43.394005" lon="12.8021633"><ele>518.0</ele><time>2026-04-25T10:07:49.915Z</time></trkpt><trkpt lat="43.3939917" lon="12.802065"><ele>523.0</ele><time>2026-04-25T10:07:50.92Z</time></trkpt><trkpt lat="43.3939767" lon="12.8019783"><ele>528.0</ele><time>2026-04-25T10:07:51.916Z</time></trkpt><trkpt lat="43.3939467" lon="12.801875"><ele>529.0</ele><time>2026-04-25T10:07:52.989Z</time></trkpt><trkpt lat="43.3939083" lon="12.8016833"><ele>530.0</ele><time>2026-04-25T10:07:53.916Z</time></trkpt><trkpt lat="43.39391" lon="12.8015333"><ele>531.0</ele><time>2026-04-25T10:07:54.926Z</time></trkpt><trkpt lat="43.39389" lon="12.8014367"><ele>532.0</ele><time>2026-04-25T10:07:55.921Z</time></trkpt><trkpt lat="43.39387" lon="12.8013433"><ele>533.0</ele><time>2026-04-25T10:07:56.919Z</time></trkpt><trkpt lat="43.3938433" lon="12.8012317"><ele>533.0</ele><time>2026-04-25T10:07:58.972Z</time></trkpt><trkpt lat="43.3938117" lon="12.8011183"><ele>533.0</ele><time>2026-04-25T10:08:01.921Z</time></trkpt><trkpt lat="43.3938383" lon="12.80122"><ele>533.0</ele><time>2026-04-25T10:08:52.986Z</time></trkpt><trkpt lat="43.3938517" lon="12.8013067"><ele>533.0</ele><time>2026-04-25T10:08:54.917Z</time></trkpt><trkpt lat="43.3938867" lon="12.8014467"><ele>533.0</ele><time>2026-04-25T10:08:56.921Z</time></trkpt><trkpt lat="43.3939017" lon="12.8015883"><ele>533.0</ele><time>2026-04-25T10:08:58.966Z</time></trkpt><trkpt lat="43.39393" lon="12.801745"><ele>532.1666666666666</ele><time>2026-04-25T10:09:01.913Z</time></trkpt><trkpt lat="43.393935" lon="12.8018917"><ele>531.3333333333333</ele><time>2026-04-25T10:09:03.921Z</time></trkpt><trkpt lat="43.39397" lon="12.801965"><ele>530.5</ele><time>2026-04-25T10:09:05.912Z</time></trkpt><trkpt lat="43.394" lon="12.8020483"><ele>529.6666666666666</ele><time>2026-04-25T10:09:07.922Z</time></trkpt><trkpt lat="43.3940233" lon="12.80213"><ele>528.8333333333334</ele><time>2026-04-25T10:09:09.92Z</time></trkpt><trkpt lat="43.39403" lon="12.802225"><ele>528.0</ele><time>2026-04-25T10:09:11.918Z</time></trkpt><trkpt lat="43.394045" lon="12.80234"><ele>528.0</ele><time>2026-04-25T10:09:14.918Z</time></trkpt><trkpt lat="43.3940617" lon="12.8024367"><ele>528.0</ele><time>2026-04-25T10:09:17.92Z</time></trkpt><trkpt lat="43.3940083" lon="12.8024983"><ele>528.0</ele><time>2026-04-25T10:09:27.912Z</time></trkpt><trkpt lat="43.3938767" lon="12.802445"><ele>528.0</ele><time>2026-04-25T10:10:05.92Z</time></trkpt><trkpt lat="43.3938333" lon="12.80237"><ele>528.0</ele><time>2026-04-25T10:10:06.918Z</time></trkpt><trkpt lat="43.3937783" lon="12.80231"><ele>528.0</ele><time>2026-04-25T10:10:08.922Z</time></trkpt><trkpt lat="43.3937233" lon="12.802235"><ele>523.3333333333334</ele><time>2026-04-25T10:10:10.92Z</time></trkpt><trkpt lat="43.3936367" lon="12.8021933"><ele>518.6666666666666</ele><time>2026-04-25T10:10:12.923Z</time></trkpt><trkpt lat="43.3935583" lon="12.80221"><ele>514.0</ele><time>2026-04-25T10:10:14.92Z</time></trkpt><trkpt lat="43.3934967" lon="12.8022383"><ele>509.3333333333333</ele><time>2026-04-25T10:10:16.919Z</time></trkpt><trkpt lat="43.393425" lon="12.80225"><ele>504.66666666666663</ele><time>2026-04-25T10:10:19.91Z</time></trkpt><trkpt lat="43.3933933" lon="12.8023483"><ele>500.0</ele><time>2026-04-25T10:10:23.925Z</time></trkpt><trkpt lat="43.3933767" lon="12.8024467"><ele>499.99999999999994</ele><time>2026-04-25T10:10:28.969Z</time></trkpt><trkpt lat="43.3932983" lon="12.802575"><ele>500.0</ele><time>2026-04-25T10:10:51.918Z</time></trkpt><trkpt lat="43.3932717" lon="12.8026833"><ele>500.0</ele><time>2026-04-25T10:10:54.922Z</time></trkpt><trkpt lat="43.3932233" lon="12.8027767"><ele>500.0</ele><time>2026-04-25T10:10:59.916Z</time></trkpt><trkpt lat="43.3931767" lon="12.8028483"><ele>499.99999999999994</ele><time>2026-04-25T10:11:03.922Z</time></trkpt><trkpt lat="43.3931233" lon="12.8029133"><ele>500.0</ele><time>2026-04-25T10:11:08.926Z</time></trkpt><trkpt lat="43.3930683" lon="12.8030333"><ele>498.8333333333333</ele><time>2026-04-25T10:11:24.919Z</time></trkpt><trkpt lat="43.3929733" lon="12.803095"><ele>497.66666666666663</ele><time>2026-04-25T10:11:27.917Z</time></trkpt><trkpt lat="43.392925" lon="12.8031667"><ele>496.5</ele><time>2026-04-25T10:11:33.912Z</time></trkpt><trkpt lat="43.3929067" lon="12.8032617"><ele>495.33333333333337</ele><time>2026-04-25T10:11:37.927Z</time></trkpt><trkpt lat="43.39293" lon="12.8033617"><ele>494.1666666666667</ele><time>2026-04-25T10:11:40.916Z</time></trkpt><trkpt lat="43.3929233" lon="12.8034617"><ele>493.0</ele><time>2026-04-25T10:11:42.914Z</time></trkpt><trkpt lat="43.392905" lon="12.80359"><ele>492.83333333333337</ele><time>2026-04-25T10:11:44.913Z</time></trkpt><trkpt lat="43.3928917" lon="12.8036933"><ele>492.6666666666667</ele><time>2026-04-25T10:11:46.912Z</time></trkpt><trkpt lat="43.392885" lon="12.8038017"><ele>492.5</ele><time>2026-04-25T10:11:49.924Z</time></trkpt><trkpt lat="43.392935" lon="12.80386"><ele>492.33333333333337</ele><time>2026-04-25T10:11:57.914Z</time></trkpt><trkpt lat="43.3928617" lon="12.8039683"><ele>492.1666666666667</ele><time>2026-04-25T10:12:15.915Z</time></trkpt><trkpt lat="43.3928733" lon="12.80406"><ele>492.0</ele><time>2026-04-25T10:12:17.923Z</time></trkpt><trkpt lat="43.3929233" lon="12.804125"><ele>492.0</ele><time>2026-04-25T10:12:24.919Z</time></trkpt><trkpt lat="43.3930017" lon="12.8041717"><ele>492.0</ele><time>2026-04-25T10:12:30.918Z</time></trkpt><trkpt lat="43.3930483" lon="12.804265"><ele>492.0</ele><time>2026-04-25T10:12:33.92Z</time></trkpt><trkpt lat="43.3930817" lon="12.8043533"><ele>492.0</ele><time>2026-04-25T10:12:35.921Z</time></trkpt><trkpt lat="43.3930983" lon="12.8044467"><ele>492.0</ele><time>2026-04-25T10:12:37.916Z</time></trkpt><trkpt lat="43.3931617" lon="12.8044967"><ele>492.0</ele><time>2026-04-25T10:12:50.924Z</time></trkpt><trkpt lat="43.3930867" lon="12.8045067"><ele>492.0</ele><time>2026-04-25T10:13:11.922Z</time></trkpt><trkpt lat="43.3930583" lon="12.8044133"><ele>492.00000000000006</ele><time>2026-04-25T10:13:30.911Z</time></trkpt><trkpt lat="43.393015" lon="12.8043417"><ele>492.00000000000006</ele><time>2026-04-25T10:13:32.918Z</time></trkpt><trkpt lat="43.392945" lon="12.8042633"><ele>492.0</ele><time>2026-04-25T10:13:34.917Z</time></trkpt><trkpt lat="43.392795" lon="12.8041867"><ele>492.0</ele><time>2026-04-25T10:13:37.921Z</time></trkpt><trkpt lat="43.39267" lon="12.8040867"><ele>492.0</ele><time>2026-04-25T10:13:39.928Z</time></trkpt><trkpt lat="43.3926" lon="12.8040467"><ele>492.0</ele><time>2026-04-25T10:13:40.921Z</time></trkpt><trkpt lat="43.3925217" lon="12.8039917"><ele>492.0</ele><time>2026-04-25T10:13:41.925Z</time></trkpt><trkpt lat="43.3924517" lon="12.80394"><ele>492.0</ele><time>2026-04-25T10:13:42.924Z</time></trkpt><trkpt lat="43.392385" lon="12.8038867"><ele>492.0</ele><time>2026-04-25T10:13:43.928Z</time></trkpt><trkpt lat="43.39232" lon="12.8038183"><ele>492.0</ele><time>2026-04-25T10:13:44.922Z</time></trkpt><trkpt lat="43.3922533" lon="12.8037717"><ele>492.0</ele><time>2026-04-25T10:13:45.931Z</time></trkpt><trkpt lat="43.3921933" lon="12.8036717"><ele>492.00000000000006</ele><time>2026-04-25T10:13:46.92Z</time></trkpt><trkpt lat="43.3921283" lon="12.80358"><ele>492.00000000000006</ele><time>2026-04-25T10:13:47.919Z</time></trkpt><trkpt lat="43.3920567" lon="12.8035217"><ele>492.0</ele><time>2026-04-25T10:13:48.923Z</time></trkpt><trkpt lat="43.3919883" lon="12.8035"><ele>492.0</ele><time>2026-04-25T10:13:49.916Z</time></trkpt><trkpt lat="43.391885" lon="12.8034483"><ele>493.6666666666667</ele><time>2026-04-25T10:13:51.921Z</time></trkpt><trkpt lat="43.391785" lon="12.8033483"><ele>495.33333333333337</ele><time>2026-04-25T10:13:53.915Z</time></trkpt><trkpt lat="43.3917283" lon="12.8032883"><ele>497.0</ele><time>2026-04-25T10:13:54.916Z</time></trkpt><trkpt lat="43.3916683" lon="12.8032333"><ele>498.6666666666667</ele><time>2026-04-25T10:13:55.924Z</time></trkpt><trkpt lat="43.3916017" lon="12.80319"><ele>500.33333333333337</ele><time>2026-04-25T10:13:56.917Z</time></trkpt><trkpt lat="43.3915433" lon="12.8031367"><ele>502.0</ele><time>2026-04-25T10:13:57.92Z</time></trkpt><trkpt lat="43.3914817" lon="12.803065"><ele>502.00000000000006</ele><time>2026-04-25T10:13:58.966Z</time></trkpt><trkpt lat="43.3914133" lon="12.8030167"><ele>502.0</ele><time>2026-04-25T10:13:59.93Z</time></trkpt><trkpt lat="43.3913467" lon="12.8029633"><ele>502.0</ele><time>2026-04-25T10:14:00.923Z</time></trkpt><trkpt lat="43.3912783" lon="12.8029133"><ele>502.0</ele><time>2026-04-25T10:14:01.921Z</time></trkpt><trkpt lat="43.3912083" lon="12.802865"><ele>502.00000000000006</ele><time>2026-04-25T10:14:02.918Z</time></trkpt><trkpt lat="43.3911117" lon="12.8027767"><ele>502.0</ele><time>2026-04-25T10:14:04.919Z</time></trkpt><trkpt lat="43.39106" lon="12.8027167"><ele>503.8</ele><time>2026-04-25T10:14:06.918Z</time></trkpt><trkpt lat="43.3909983" lon="12.8026233"><ele>505.6</ele><time>2026-04-25T10:14:09.922Z</time></trkpt><trkpt lat="43.390915" lon="12.80253"><ele>507.40000000000003</ele><time>2026-04-25T10:14:11.919Z</time></trkpt><trkpt lat="43.3908367" lon="12.8024333"><ele>509.20000000000005</ele><time>2026-04-25T10:14:13.926Z</time></trkpt><trkpt lat="43.3907617" lon="12.8024183"><ele>511.0</ele><time>2026-04-25T10:14:15.932Z</time></trkpt><trkpt lat="43.3907233" lon="12.802595"><ele>511.6</ele><time>2026-04-25T10:14:17.915Z</time></trkpt><trkpt lat="43.3908" lon="12.8028033"><ele>512.2</ele><time>2026-04-25T10:14:19.921Z</time></trkpt><trkpt lat="43.3908317" lon="12.80292"><ele>512.8</ele><time>2026-04-25T10:14:21.919Z</time></trkpt><trkpt lat="43.3908733" lon="12.803055"><ele>513.4</ele><time>2026-04-25T10:14:23.931Z</time></trkpt><trkpt lat="43.3909" lon="12.803135"><ele>514.0</ele><time>2026-04-25T10:14:24.921Z</time></trkpt><trkpt lat="43.390925" lon="12.803225"><ele>514.0</ele><time>2026-04-25T10:14:25.921Z</time></trkpt><trkpt lat="43.3909517" lon="12.8033133"><ele>514.0</ele><time>2026-04-25T10:14:26.917Z</time></trkpt><trkpt lat="43.3909733" lon="12.8034017"><ele>514.0</ele><time>2026-04-25T10:14:27.923Z</time></trkpt><trkpt lat="43.391005" lon="12.8035683"><ele>514.0</ele><time>2026-04-25T10:14:29.908Z</time></trkpt><trkpt lat="43.3910433" lon="12.8037367"><ele>514.0</ele><time>2026-04-25T10:14:31.911Z</time></trkpt><trkpt lat="43.3910617" lon="12.8038233"><ele>514.0</ele><time>2026-04-25T10:14:32.923Z</time></trkpt><trkpt lat="43.3910933" lon="12.8039083"><ele>514.0</ele><time>2026-04-25T10:14:33.919Z</time></trkpt><trkpt lat="43.391135" lon="12.8039817"><ele>514.0</ele><time>2026-04-25T10:14:34.917Z</time></trkpt><trkpt lat="43.39117" lon="12.80406"><ele>514.0</ele><time>2026-04-25T10:14:35.918Z</time></trkpt><trkpt lat="43.391225" lon="12.8041183"><ele>514.0</ele><time>2026-04-25T10:14:36.919Z</time></trkpt><trkpt lat="43.3912867" lon="12.8041783"><ele>514.0</ele><time>2026-04-25T10:14:37.915Z</time></trkpt><trkpt lat="43.3913483" lon="12.8042467"><ele>514.0</ele><time>2026-04-25T10:14:38.921Z</time></trkpt><trkpt lat="43.3914033" lon="12.8043167"><ele>517.5</ele><time>2026-04-25T10:14:39.918Z</time></trkpt><trkpt lat="43.39147" lon="12.8043967"><ele>521.0</ele><time>2026-04-25T10:14:40.921Z</time></trkpt><trkpt lat="43.391545" lon="12.8044733"><ele>524.5</ele><time>2026-04-25T10:14:41.919Z</time></trkpt><trkpt lat="43.3915983" lon="12.8045483"><ele>528.0</ele><time>2026-04-25T10:14:42.921Z</time></trkpt><trkpt lat="43.3916433" lon="12.8046217"><ele>531.5</ele><time>2026-04-25T10:14:43.912Z</time></trkpt><trkpt lat="43.3916883" lon="12.80471"><ele>535.0</ele><time>2026-04-25T10:14:44.921Z</time></trkpt><trkpt lat="43.3917433" lon="12.804795"><ele>535.0</ele><time>2026-04-25T10:14:45.92Z</time></trkpt><trkpt lat="43.391805" lon="12.8048917"><ele>535.0</ele><time>2026-04-25T10:14:46.923Z</time></trkpt><trkpt lat="43.3918667" lon="12.8049717"><ele>535.0</ele><time>2026-04-25T10:14:47.915Z</time></trkpt><trkpt lat="43.3919183" lon="12.8050467"><ele>535.0</ele><time>2026-04-25T10:14:48.921Z</time></trkpt><trkpt lat="43.3919633" lon="12.8051233"><ele>535.0</ele><time>2026-04-25T10:14:49.913Z</time></trkpt><trkpt lat="43.3920267" lon="12.805195"><ele>535.0</ele><time>2026-04-25T10:14:50.922Z</time></trkpt><trkpt lat="43.3920717" lon="12.8052733"><ele>533.8333333333334</ele><time>2026-04-25T10:14:51.914Z</time></trkpt><trkpt lat="43.3921383" lon="12.805355"><ele>532.6666666666667</ele><time>2026-04-25T10:14:52.983Z</time></trkpt><trkpt lat="43.3922" lon="12.8054267"><ele>531.5</ele><time>2026-04-25T10:14:53.92Z</time></trkpt><trkpt lat="43.392255" lon="12.805505"><ele>530.3333333333334</ele><time>2026-04-25T10:14:54.915Z</time></trkpt><trkpt lat="43.3923117" lon="12.8055733"><ele>529.1666666666666</ele><time>2026-04-25T10:14:55.916Z</time></trkpt><trkpt lat="43.39235" lon="12.8056617"><ele>528.0</ele><time>2026-04-25T10:14:56.917Z</time></trkpt><trkpt lat="43.3923983" lon="12.8057467"><ele>528.0</ele><time>2026-04-25T10:14:57.921Z</time></trkpt><trkpt lat="43.3924633" lon="12.80583"><ele>528.0</ele><time>2026-04-25T10:14:58.968Z</time></trkpt><trkpt lat="43.3925233" lon="12.80591"><ele>528.0</ele><time>2026-04-25T10:14:59.918Z</time></trkpt><trkpt lat="43.3925717" lon="12.8060017"><ele>528.0</ele><time>2026-04-25T10:15:00.917Z</time></trkpt><trkpt lat="43.39261" lon="12.8060883"><ele>528.0</ele><time>2026-04-25T10:15:02.917Z</time></trkpt><trkpt lat="43.3926383" lon="12.8061683"><ele>528.0</ele><time>2026-04-25T10:15:06.916Z</time></trkpt><trkpt lat="43.392595" lon="12.80609"><ele>528.0</ele><time>2026-04-25T10:15:33.922Z</time></trkpt><trkpt lat="43.3925533" lon="12.8060133"><ele>528.0</ele><time>2026-04-25T10:15:38.921Z</time></trkpt><trkpt lat="43.3925233" lon="12.8059233"><ele>528.0</ele><time>2026-04-25T10:15:40.912Z</time></trkpt><trkpt lat="43.3924933" lon="12.8058183"><ele>528.0</ele><time>2026-04-25T10:15:43.922Z</time></trkpt><trkpt lat="43.392585" lon="12.8058483"><ele>528.0</ele><time>2026-04-25T10:15:50.921Z</time></trkpt><trkpt lat="43.392665" lon="12.80594"><ele>528.0</ele><time>2026-04-25T10:15:52.948Z</time></trkpt><trkpt lat="43.3927383" lon="12.8060133"><ele>527.0</ele><time>2026-04-25T10:15:54.923Z</time></trkpt><trkpt lat="43.3927933" lon="12.8060783"><ele>526.0</ele><time>2026-04-25T10:15:56.924Z</time></trkpt><trkpt lat="43.3928267" lon="12.8061633"><ele>525.0</ele><time>2026-04-25T10:15:59.914Z</time></trkpt><trkpt lat="43.3928867" lon="12.8062733"><ele>524.0</ele><time>2026-04-25T10:16:01.916Z</time></trkpt><trkpt lat="43.3929233" lon="12.8063783"><ele>523.0</ele><time>2026-04-25T10:16:03.925Z</time></trkpt><trkpt lat="43.3929967" lon="12.806495"><ele>522.0</ele><time>2026-04-25T10:16:05.921Z</time></trkpt><trkpt lat="43.3930783" lon="12.8065783"><ele>522.0</ele><time>2026-04-25T10:16:07.924Z</time></trkpt><trkpt lat="43.3931267" lon="12.80667"><ele>522.0</ele><time>2026-04-25T10:16:10.925Z</time></trkpt><trkpt lat="43.3931917" lon="12.8067233"><ele>522.0</ele><time>2026-04-25T10:16:14.926Z</time></trkpt><trkpt lat="43.3932617" lon="12.806735"><ele>522.0</ele><time>2026-04-25T10:16:16.926Z</time></trkpt><trkpt lat="43.3933383" lon="12.8067633"><ele>522.0</ele><time>2026-04-25T10:16:31.911Z</time></trkpt><trkpt lat="43.393445" lon="12.8068483"><ele>522.0</ele><time>2026-04-25T10:17:05.918Z</time></trkpt><trkpt lat="43.3933833" lon="12.8069283"><ele>522.0</ele><time>2026-04-25T10:17:55.906Z</time></trkpt><trkpt lat="43.3933283" lon="12.8068733"><ele>522.0</ele><time>2026-04-25T10:17:59.917Z</time></trkpt><trkpt lat="43.3934367" lon="12.8068433"><ele>522.0</ele><time>2026-04-25T10:18:15.915Z</time></trkpt><trkpt lat="43.3933733" lon="12.8068633"><ele>522.0</ele><time>2026-04-25T10:18:31.913Z</time></trkpt><trkpt lat="43.3933483" lon="12.80677"><ele>522.0</ele><time>2026-04-25T10:18:52.987Z</time></trkpt><trkpt lat="43.39323" lon="12.80663"><ele>522.0</ele><time>2026-04-25T10:19:01.92Z</time></trkpt><trkpt lat="43.393175" lon="12.8065817"><ele>522.0</ele><time>2026-04-25T10:19:03.912Z</time></trkpt><trkpt lat="43.3931183" lon="12.8065283"><ele>522.0</ele><time>2026-04-25T10:19:06.92Z</time></trkpt><trkpt lat="43.3930533" lon="12.8064717"><ele>522.0</ele><time>2026-04-25T10:19:09.92Z</time></trkpt><trkpt lat="43.3930033" lon="12.8064017"><ele>522.0</ele><time>2026-04-25T10:19:11.924Z</time></trkpt><trkpt lat="43.39294" lon="12.8062167"><ele>522.0</ele><time>2026-04-25T10:19:16.912Z</time></trkpt><trkpt lat="43.3929867" lon="12.8061567"><ele>523.0</ele><time>2026-04-25T10:19:22.986Z</time></trkpt><trkpt lat="43.3929533" lon="12.8060817"><ele>524.0</ele><time>2026-04-25T10:19:25.917Z</time></trkpt><trkpt lat="43.3928983" lon="12.8060317"><ele>525.0</ele><time>2026-04-25T10:19:27.92Z</time></trkpt><trkpt lat="43.3928183" lon="12.8059583"><ele>526.0</ele><time>2026-04-25T10:19:29.918Z</time></trkpt><trkpt lat="43.3927333" lon="12.8058917"><ele>527.0</ele><time>2026-04-25T10:19:31.923Z</time></trkpt><trkpt lat="43.3926417" lon="12.8058383"><ele>528.0</ele><time>2026-04-25T10:19:33.92Z</time></trkpt><trkpt lat="43.3925767" lon="12.8057967"><ele>528.0</ele><time>2026-04-25T10:19:35.92Z</time></trkpt><trkpt lat="43.392515" lon="12.8057583"><ele>528.0</ele><time>2026-04-25T10:19:37.921Z</time></trkpt><trkpt lat="43.392445" lon="12.8056833"><ele>528.0</ele><time>2026-04-25T10:19:58.964Z</time></trkpt><trkpt lat="43.3923883" lon="12.8057417"><ele>528.0</ele><time>2026-04-25T10:20:01.911Z</time></trkpt><trkpt lat="43.39253" lon="12.8056367"><ele>528.0</ele><time>2026-04-25T10:20:19.911Z</time></trkpt><trkpt lat="43.3925967" lon="12.8056317"><ele>528.0</ele><time>2026-04-25T10:20:20.932Z</time></trkpt><trkpt lat="43.3924733" lon="12.8056667"><ele>528.0</ele><time>2026-04-25T10:21:18.914Z</time></trkpt><trkpt lat="43.39237" lon="12.805715"><ele>528.0</ele><time>2026-04-25T10:21:56.916Z</time></trkpt><trkpt lat="43.3923883" lon="12.8055583"><ele>528.0</ele><time>2026-04-25T10:22:08.918Z</time></trkpt><trkpt lat="43.3924233" lon="12.805665"><ele>528.0</ele><time>2026-04-25T10:22:29.917Z</time></trkpt><trkpt lat="43.39244" lon="12.8057683"><ele>528.0</ele><time>2026-04-25T10:22:31.918Z</time></trkpt><trkpt lat="43.39247" lon="12.8058733"><ele>528.0</ele><time>2026-04-25T10:22:33.92Z</time></trkpt><trkpt lat="43.3925333" lon="12.8059733"><ele>528.0</ele><time>2026-04-25T10:22:35.921Z</time></trkpt><trkpt lat="43.39257" lon="12.806045"><ele>528.0</ele><time>2026-04-25T10:22:36.91Z</time></trkpt><trkpt lat="43.3926067" lon="12.8061467"><ele>528.0</ele><time>2026-04-25T10:22:37.922Z</time></trkpt><trkpt lat="43.39262" lon="12.8062433"><ele>528.0</ele><time>2026-04-25T10:22:38.918Z</time></trkpt><trkpt lat="43.392645" lon="12.8063533"><ele>532.0</ele><time>2026-04-25T10:22:39.922Z</time></trkpt><trkpt lat="43.3926633" lon="12.8064667"><ele>536.0</ele><time>2026-04-25T10:22:40.919Z</time></trkpt><trkpt lat="43.3926783" lon="12.8065817"><ele>540.0</ele><time>2026-04-25T10:22:41.919Z</time></trkpt><trkpt lat="43.39268" lon="12.8067067"><ele>544.0</ele><time>2026-04-25T10:22:42.92Z</time></trkpt><trkpt lat="43.3926883" lon="12.8068167"><ele>548.0</ele><time>2026-04-25T10:22:43.923Z</time></trkpt><trkpt lat="43.3927233" lon="12.8069033"><ele>552.0</ele><time>2026-04-25T10:22:44.922Z</time></trkpt><trkpt lat="43.3927583" lon="12.8069983"><ele>550.3333333333334</ele><time>2026-04-25T10:22:45.914Z</time></trkpt><trkpt lat="43.3928167" lon="12.807045"><ele>548.6666666666666</ele><time>2026-04-25T10:22:46.919Z</time></trkpt><trkpt lat="43.3929017" lon="12.8071833"><ele>547.0</ele><time>2026-04-25T10:22:48.914Z</time></trkpt><trkpt lat="43.39296" lon="12.8072733"><ele>545.3333333333333</ele><time>2026-04-25T10:22:49.926Z</time></trkpt><trkpt lat="43.3930133" lon="12.8073583"><ele>543.6666666666666</ele><time>2026-04-25T10:22:50.913Z</time></trkpt><trkpt lat="43.3930567" lon="12.8074467"><ele>542.0</ele><time>2026-04-25T10:22:51.918Z</time></trkpt><trkpt lat="43.3931017" lon="12.8075317"><ele>542.0</ele><time>2026-04-25T10:22:52.963Z</time></trkpt><trkpt lat="43.3931317" lon="12.8076183"><ele>542.0</ele><time>2026-04-25T10:22:53.911Z</time></trkpt><trkpt lat="43.3931667" lon="12.8076933"><ele>542.0</ele><time>2026-04-25T10:22:54.918Z</time></trkpt><trkpt lat="43.393205" lon="12.8077767"><ele>542.0</ele><time>2026-04-25T10:22:55.917Z</time></trkpt><trkpt lat="43.3932533" lon="12.80787"><ele>542.0</ele><time>2026-04-25T10:22:56.918Z</time></trkpt><trkpt lat="43.3933117" lon="12.80795"><ele>542.0</ele><time>2026-04-25T10:22:57.923Z</time></trkpt><trkpt lat="43.3933733" lon="12.8080283"><ele>544.5</ele><time>2026-04-25T10:22:58.959Z</time></trkpt><trkpt lat="43.39342" lon="12.8081083"><ele>547.0</ele><time>2026-04-25T10:22:59.915Z</time></trkpt><trkpt lat="43.3934667" lon="12.80819"><ele>549.5</ele><time>2026-04-25T10:23:00.912Z</time></trkpt><trkpt lat="43.3935133" lon="12.8082733"><ele>552.0</ele><time>2026-04-25T10:23:01.924Z</time></trkpt><trkpt lat="43.3935583" lon="12.80836"><ele>554.5</ele><time>2026-04-25T10:23:02.913Z</time></trkpt><trkpt lat="43.3936033" lon="12.8084683"><ele>557.0</ele><time>2026-04-25T10:23:03.912Z</time></trkpt><trkpt lat="43.3936433" lon="12.8085717"><ele>554.1666666666666</ele><time>2026-04-25T10:23:04.922Z</time></trkpt><trkpt lat="43.3936683" lon="12.80868"><ele>551.3333333333333</ele><time>2026-04-25T10:23:05.916Z</time></trkpt><trkpt lat="43.3936983" lon="12.8087817"><ele>548.5</ele><time>2026-04-25T10:23:06.913Z</time></trkpt><trkpt lat="43.3937567" lon="12.8088783"><ele>545.6666666666666</ele><time>2026-04-25T10:23:07.924Z</time></trkpt><trkpt lat="43.3938083" lon="12.8089767"><ele>542.8333333333334</ele><time>2026-04-25T10:23:08.911Z</time></trkpt><trkpt lat="43.3938633" lon="12.809075"><ele>540.0</ele><time>2026-04-25T10:23:09.922Z</time></trkpt><trkpt lat="43.3939117" lon="12.80918"><ele>540.0</ele><time>2026-04-25T10:23:10.914Z</time></trkpt><trkpt lat="43.3939583" lon="12.80929"><ele>540.0</ele><time>2026-04-25T10:23:11.919Z</time></trkpt><trkpt lat="43.394005" lon="12.8094167"><ele>540.0</ele><time>2026-04-25T10:23:12.923Z</time></trkpt><trkpt lat="43.3940367" lon="12.8095683"><ele>540.0</ele><time>2026-04-25T10:23:13.916Z</time></trkpt><trkpt lat="43.3940717" lon="12.8097333"><ele>540.0</ele><time>2026-04-25T10:23:14.914Z</time></trkpt><trkpt lat="43.3941033" lon="12.8099"><ele>543.6</ele><time>2026-04-25T10:23:15.913Z</time></trkpt><trkpt lat="43.3941467" lon="12.8100467"><ele>547.2</ele><time>2026-04-25T10:23:16.92Z</time></trkpt><trkpt lat="43.3941883" lon="12.8101867"><ele>550.8</ele><time>2026-04-25T10:23:17.917Z</time></trkpt><trkpt lat="43.394235" lon="12.81032"><ele>554.4</ele><time>2026-04-25T10:23:18.916Z</time></trkpt><trkpt lat="43.3942833" lon="12.8104617"><ele>558.0</ele><time>2026-04-25T10:23:19.922Z</time></trkpt><trkpt lat="43.3943317" lon="12.8106033"><ele>561.75</ele><time>2026-04-25T10:23:20.914Z</time></trkpt><trkpt lat="43.3943833" lon="12.810755"><ele>565.5</ele><time>2026-04-25T10:23:21.921Z</time></trkpt><trkpt lat="43.394425" lon="12.8109117"><ele>569.25</ele><time>2026-04-25T10:23:22.961Z</time></trkpt><trkpt lat="43.394475" lon="12.8110533"><ele>573.0</ele><time>2026-04-25T10:23:23.911Z</time></trkpt><trkpt lat="43.394525" lon="12.8111783"><ele>569.0</ele><time>2026-04-25T10:23:24.917Z</time></trkpt><trkpt lat="43.3945617" lon="12.811275"><ele>565.0</ele><time>2026-04-25T10:23:25.914Z</time></trkpt><trkpt lat="43.394605" lon="12.8113717"><ele>561.0</ele><time>2026-04-25T10:23:26.913Z</time></trkpt><trkpt lat="43.3946467" lon="12.81147"><ele>557.0</ele><time>2026-04-25T10:23:27.915Z</time></trkpt><trkpt lat="43.394695" lon="12.8115717"><ele>553.0</ele><time>2026-04-25T10:23:28.96Z</time></trkpt><trkpt lat="43.39473" lon="12.8116617"><ele>549.0</ele><time>2026-04-25T10:23:29.915Z</time></trkpt><trkpt lat="43.3947733" lon="12.8117433"><ele>549.0</ele><time>2026-04-25T10:23:30.912Z</time></trkpt><trkpt lat="43.394805" lon="12.8118233"><ele>549.0</ele><time>2026-04-25T10:23:31.911Z</time></trkpt><trkpt lat="43.3948517" lon="12.81191"><ele>549.0</ele><time>2026-04-25T10:23:32.911Z</time></trkpt><trkpt lat="43.3949033" lon="12.8119983"><ele>549.0</ele><time>2026-04-25T10:23:33.913Z</time></trkpt><trkpt lat="43.39496" lon="12.8120833"><ele>549.0</ele><time>2026-04-25T10:23:34.912Z</time></trkpt><trkpt lat="43.3950283" lon="12.8121717"><ele>549.0</ele><time>2026-04-25T10:23:35.915Z</time></trkpt><trkpt lat="43.3951067" lon="12.8122633"><ele>554.2</ele><time>2026-04-25T10:23:36.913Z</time></trkpt><trkpt lat="43.3951817" lon="12.8123633"><ele>559.4</ele><time>2026-04-25T10:23:37.914Z</time></trkpt><trkpt lat="43.3952667" lon="12.8124683"><ele>564.6</ele><time>2026-04-25T10:23:38.911Z</time></trkpt><trkpt lat="43.395345" lon="12.8125733"><ele>569.8</ele><time>2026-04-25T10:23:39.914Z</time></trkpt><trkpt lat="43.395395" lon="12.8126617"><ele>575.0</ele><time>2026-04-25T10:23:40.911Z</time></trkpt><trkpt lat="43.3954417" lon="12.8127583"><ele>578.0</ele><time>2026-04-25T10:23:41.913Z</time></trkpt><trkpt lat="43.3954833" lon="12.8128433"><ele>581.0</ele><time>2026-04-25T10:23:42.919Z</time></trkpt><trkpt lat="43.3955183" lon="12.8129367"><ele>584.0</ele><time>2026-04-25T10:23:43.919Z</time></trkpt><trkpt lat="43.3955567" lon="12.8130233"><ele>587.0</ele><time>2026-04-25T10:23:44.921Z</time></trkpt><trkpt lat="43.3956" lon="12.813105"><ele>590.0</ele><time>2026-04-25T10:23:45.912Z</time></trkpt><trkpt lat="43.3956433" lon="12.8131783"><ele>593.0</ele><time>2026-04-25T10:23:46.915Z</time></trkpt><trkpt lat="43.39571" lon="12.81332"><ele>587.6666666666666</ele><time>2026-04-25T10:23:48.912Z</time></trkpt><trkpt lat="43.395745" lon="12.8134"><ele>582.3333333333333</ele><time>2026-04-25T10:23:49.917Z</time></trkpt><trkpt lat="43.3957767" lon="12.8134783"><ele>577.0</ele><time>2026-04-25T10:23:50.919Z</time></trkpt><trkpt lat="43.395815" lon="12.8135617"><ele>571.6666666666666</ele><time>2026-04-25T10:23:51.918Z</time></trkpt><trkpt lat="43.3958883" lon="12.8137"><ele>566.3333333333334</ele><time>2026-04-25T10:23:53.917Z</time></trkpt><trkpt lat="43.395925" lon="12.813795"><ele>561.0</ele><time>2026-04-25T10:23:54.915Z</time></trkpt><trkpt lat="43.3959583" lon="12.8138883"><ele>561.0</ele><time>2026-04-25T10:23:55.913Z</time></trkpt><trkpt lat="43.3959983" lon="12.813975"><ele>561.0</ele><time>2026-04-25T10:23:56.914Z</time></trkpt><trkpt lat="43.3960417" lon="12.814055"><ele>561.0</ele><time>2026-04-25T10:23:57.914Z</time></trkpt><trkpt lat="43.3961" lon="12.8142083"><ele>561.0</ele><time>2026-04-25T10:23:59.913Z</time></trkpt><trkpt lat="43.39613" lon="12.8142867"><ele>561.0</ele><time>2026-04-25T10:24:00.924Z</time></trkpt><trkpt lat="43.3961517" lon="12.8143683"><ele>561.0</ele><time>2026-04-25T10:24:01.916Z</time></trkpt><trkpt lat="43.39618" lon="12.81445"><ele>562.1666666666666</ele><time>2026-04-25T10:24:02.912Z</time></trkpt><trkpt lat="43.3962" lon="12.8145367"><ele>563.3333333333334</ele><time>2026-04-25T10:24:03.918Z</time></trkpt><trkpt lat="43.3962233" lon="12.8146333"><ele>564.5</ele><time>2026-04-25T10:24:04.921Z</time></trkpt><trkpt lat="43.3962367" lon="12.8147383"><ele>565.6666666666667</ele><time>2026-04-25T10:24:05.919Z</time></trkpt><trkpt lat="43.3962367" lon="12.8148417"><ele>566.8333333333334</ele><time>2026-04-25T10:24:06.924Z</time></trkpt><trkpt lat="43.39624" lon="12.8149617"><ele>568.0</ele><time>2026-04-25T10:24:07.918Z</time></trkpt><trkpt lat="43.396235" lon="12.8150833"><ele>569.4</ele><time>2026-04-25T10:24:08.928Z</time></trkpt><trkpt lat="43.3962333" lon="12.815205"><ele>570.8</ele><time>2026-04-25T10:24:09.92Z</time></trkpt><trkpt lat="43.3962333" lon="12.8153233"><ele>572.2</ele><time>2026-04-25T10:24:10.911Z</time></trkpt><trkpt lat="43.3962383" lon="12.8154517"><ele>573.6</ele><time>2026-04-25T10:24:11.912Z</time></trkpt><trkpt lat="43.3962367" lon="12.81558"><ele>575.0</ele><time>2026-04-25T10:24:12.917Z</time></trkpt><trkpt lat="43.3962367" lon="12.8157033"><ele>575.0</ele><time>2026-04-25T10:24:13.915Z</time></trkpt><trkpt lat="43.3962483" lon="12.815835"><ele>575.0</ele><time>2026-04-25T10:24:14.912Z</time></trkpt><trkpt lat="43.3962683" lon="12.8159667"><ele>575.0</ele><time>2026-04-25T10:24:15.911Z</time></trkpt><trkpt lat="43.3962767" lon="12.816105"><ele>575.0</ele><time>2026-04-25T10:24:16.914Z</time></trkpt><trkpt lat="43.3963067" lon="12.816245"><ele>575.0</ele><time>2026-04-25T10:24:17.911Z</time></trkpt><trkpt lat="43.3963233" lon="12.8163667"><ele>574.6666666666666</ele><time>2026-04-25T10:24:18.918Z</time></trkpt><trkpt lat="43.39632" lon="12.816475"><ele>574.3333333333333</ele><time>2026-04-25T10:24:19.913Z</time></trkpt><trkpt lat="43.3963217" lon="12.8165717"><ele>574.0</ele><time>2026-04-25T10:24:20.915Z</time></trkpt><trkpt lat="43.3963167" lon="12.81666"><ele>573.6666666666666</ele><time>2026-04-25T10:24:21.916Z</time></trkpt><trkpt lat="43.3963117" lon="12.816815"><ele>573.3333333333334</ele><time>2026-04-25T10:24:23.908Z</time></trkpt><trkpt lat="43.39628" lon="12.8169617"><ele>573.0</ele><time>2026-04-25T10:24:25.912Z</time></trkpt><trkpt lat="43.396215" lon="12.8171067"><ele>571.25</ele><time>2026-04-25T10:24:27.915Z</time></trkpt><trkpt lat="43.3961883" lon="12.8172717"><ele>569.5</ele><time>2026-04-25T10:24:29.912Z</time></trkpt><trkpt lat="43.3961917" lon="12.8174467"><ele>567.75</ele><time>2026-04-25T10:24:31.918Z</time></trkpt><trkpt lat="43.3961933" lon="12.817625"><ele>566.0</ele><time>2026-04-25T10:24:33.912Z</time></trkpt><trkpt lat="43.3961933" lon="12.8177333"><ele>564.1666666666666</ele><time>2026-04-25T10:24:34.913Z</time></trkpt><trkpt lat="43.3961983" lon="12.8178367"><ele>562.3333333333333</ele><time>2026-04-25T10:24:35.923Z</time></trkpt><trkpt lat="43.3961967" lon="12.8179433"><ele>560.5</ele><time>2026-04-25T10:24:36.911Z</time></trkpt><trkpt lat="43.3961967" lon="12.8180333"><ele>558.6666666666666</ele><time>2026-04-25T10:24:37.917Z</time></trkpt><trkpt lat="43.396175" lon="12.8181217"><ele>556.8333333333334</ele><time>2026-04-25T10:24:38.914Z</time></trkpt><trkpt lat="43.396165" lon="12.8182083"><ele>555.0</ele><time>2026-04-25T10:24:39.916Z</time></trkpt><trkpt lat="43.3961483" lon="12.8183683"><ele>555.0</ele><time>2026-04-25T10:24:41.915Z</time></trkpt><trkpt lat="43.3961317" lon="12.8184683"><ele>555.0</ele><time>2026-04-25T10:24:42.916Z</time></trkpt><trkpt lat="43.3961117" lon="12.8185933"><ele>555.0</ele><time>2026-04-25T10:24:43.912Z</time></trkpt><trkpt lat="43.3960817" lon="12.8187183"><ele>555.0</ele><time>2026-04-25T10:24:44.919Z</time></trkpt><trkpt lat="43.3960567" lon="12.8188417"><ele>555.0</ele><time>2026-04-25T10:24:45.917Z</time></trkpt><trkpt lat="43.39604" lon="12.81896"><ele>555.0</ele><time>2026-04-25T10:24:46.916Z</time></trkpt><trkpt lat="43.3960333" lon="12.819075"><ele>551.4</ele><time>2026-04-25T10:24:47.917Z</time></trkpt><trkpt lat="43.39604" lon="12.8192033"><ele>547.8</ele><time>2026-04-25T10:24:48.91Z</time></trkpt><trkpt lat="43.396065" lon="12.8193433"><ele>544.2</ele><time>2026-04-25T10:24:49.912Z</time></trkpt><trkpt lat="43.3960033" lon="12.81944"><ele>540.6</ele><time>2026-04-25T10:24:50.916Z</time></trkpt><trkpt lat="43.3958967" lon="12.8194283"><ele>537.0</ele><time>2026-04-25T10:24:51.909Z</time></trkpt><trkpt lat="43.3958017" lon="12.8195533"><ele>532.6666666666666</ele><time>2026-04-25T10:24:53.914Z</time></trkpt><trkpt lat="43.3957633" lon="12.8196367"><ele>528.3333333333334</ele><time>2026-04-25T10:24:54.914Z</time></trkpt><trkpt lat="43.3957233" lon="12.8197217"><ele>524.0</ele><time>2026-04-25T10:24:55.917Z</time></trkpt><trkpt lat="43.395675" lon="12.81981"><ele>519.6666666666667</ele><time>2026-04-25T10:24:56.916Z</time></trkpt><trkpt lat="43.3956333" lon="12.819895"><ele>515.3333333333334</ele><time>2026-04-25T10:24:57.908Z</time></trkpt><trkpt lat="43.3955983" lon="12.8199883"><ele>511.0</ele><time>2026-04-25T10:24:58.961Z</time></trkpt><trkpt lat="43.395565" lon="12.820085"><ele>512.6666666666667</ele><time>2026-04-25T10:24:59.917Z</time></trkpt><trkpt lat="43.3955283" lon="12.8201683"><ele>514.3333333333334</ele><time>2026-04-25T10:25:00.919Z</time></trkpt><trkpt lat="43.3954617" lon="12.8202917"><ele>516.0</ele><time>2026-04-25T10:25:02.91Z</time></trkpt><trkpt lat="43.39538" lon="12.820375"><ele>517.6666666666666</ele><time>2026-04-25T10:25:04.914Z</time></trkpt><trkpt lat="43.3953233" lon="12.820425"><ele>519.3333333333333</ele><time>2026-04-25T10:25:05.913Z</time></trkpt><trkpt lat="43.395265" lon="12.8204883"><ele>521.0</ele><time>2026-04-25T10:25:06.911Z</time></trkpt><trkpt lat="43.3952167" lon="12.8205517"><ele>521.0</ele><time>2026-04-25T10:25:07.915Z</time></trkpt><trkpt lat="43.39515" lon="12.8206183"><ele>521.0</ele><time>2026-04-25T10:25:08.915Z</time></trkpt><trkpt lat="43.39502" lon="12.8206767"><ele>521.0</ele><time>2026-04-25T10:25:09.917Z</time></trkpt><trkpt lat="43.3949183" lon="12.8207333"><ele>521.0</ele><time>2026-04-25T10:25:10.922Z</time></trkpt><trkpt lat="43.3948283" lon="12.82079"><ele>521.0</ele><time>2026-04-25T10:25:11.917Z</time></trkpt><trkpt lat="43.3947217" lon="12.8208017"><ele>521.0</ele><time>2026-04-25T10:25:13.913Z</time></trkpt><trkpt lat="43.3946583" lon="12.8207983"><ele>521.0</ele><time>2026-04-25T10:25:14.911Z</time></trkpt><trkpt lat="43.3945867" lon="12.8207867"><ele>521.0</ele><time>2026-04-25T10:25:15.92Z</time></trkpt><trkpt lat="43.39451" lon="12.820775"><ele>521.0</ele><time>2026-04-25T10:25:16.92Z</time></trkpt><trkpt lat="43.394425" lon="12.8207683"><ele>521.0</ele><time>2026-04-25T10:25:17.92Z</time></trkpt><trkpt lat="43.394345" lon="12.8207533"><ele>521.0</ele><time>2026-04-25T10:25:18.913Z</time></trkpt><trkpt lat="43.3942733" lon="12.820735"><ele>521.0</ele><time>2026-04-25T10:25:19.919Z</time></trkpt><trkpt lat="43.3942083" lon="12.820715"><ele>521.0</ele><time>2026-04-25T10:25:20.918Z</time></trkpt><trkpt lat="43.3941433" lon="12.8206983"><ele>521.0</ele><time>2026-04-25T10:25:21.912Z</time></trkpt><trkpt lat="43.3940533" lon="12.8206583"><ele>521.0</ele><time>2026-04-25T10:25:22.962Z</time></trkpt><trkpt lat="43.3939717" lon="12.820625"><ele>521.0</ele><time>2026-04-25T10:25:23.914Z</time></trkpt><trkpt lat="43.3938883" lon="12.8206117"><ele>521.0</ele><time>2026-04-25T10:25:24.93Z</time></trkpt><trkpt lat="43.3938067" lon="12.8205833"><ele>520.5</ele><time>2026-04-25T10:25:25.917Z</time></trkpt><trkpt lat="43.393725" lon="12.8205517"><ele>520.0</ele><time>2026-04-25T10:25:26.915Z</time></trkpt><trkpt lat="43.393655" lon="12.8205217"><ele>519.5</ele><time>2026-04-25T10:25:27.916Z</time></trkpt><trkpt lat="43.3935933" lon="12.8204967"><ele>519.0</ele><time>2026-04-25T10:25:28.965Z</time></trkpt><trkpt lat="43.3934733" lon="12.8204817"><ele>518.5</ele><time>2026-04-25T10:25:30.919Z</time></trkpt><trkpt lat="43.3934083" lon="12.8204933"><ele>518.0</ele><time>2026-04-25T10:25:31.921Z</time></trkpt><trkpt lat="43.393345" lon="12.8204933"><ele>518.0</ele><time>2026-04-25T10:25:32.918Z</time></trkpt><trkpt lat="43.3932183" lon="12.82054"><ele>518.0</ele><time>2026-04-25T10:25:34.906Z</time></trkpt><trkpt lat="43.39313" lon="12.8205833"><ele>518.0</ele><time>2026-04-25T10:25:36.916Z</time></trkpt><trkpt lat="43.393055" lon="12.8206517"><ele>518.0</ele><time>2026-04-25T10:25:38.908Z</time></trkpt><trkpt lat="43.39298" lon="12.8207383"><ele>518.0</ele><time>2026-04-25T10:25:40.909Z</time></trkpt><trkpt lat="43.3928983" lon="12.8208217"><ele>520.8</ele><time>2026-04-25T10:25:42.916Z</time></trkpt><trkpt lat="43.39282" lon="12.8209033"><ele>523.5999999999999</ele><time>2026-04-25T10:25:44.911Z</time></trkpt><trkpt lat="43.3927383" lon="12.8209817"><ele>526.4000000000001</ele><time>2026-04-25T10:25:46.922Z</time></trkpt><trkpt lat="43.3926233" lon="12.8210483"><ele>529.2</ele><time>2026-04-25T10:25:48.914Z</time></trkpt><trkpt lat="43.3925467" lon="12.8210817"><ele>532.0</ele><time>2026-04-25T10:25:49.921Z</time></trkpt><trkpt lat="43.392475" lon="12.821115"><ele>527.8000000000001</ele><time>2026-04-25T10:25:50.913Z</time></trkpt><trkpt lat="43.3923633" lon="12.8211883"><ele>523.6</ele><time>2026-04-25T10:25:52.954Z</time></trkpt><trkpt lat="43.3923033" lon="12.8212383"><ele>519.4000000000001</ele><time>2026-04-25T10:25:53.915Z</time></trkpt><trkpt lat="43.3922433" lon="12.8212833"><ele>515.2</ele><time>2026-04-25T10:25:54.91Z</time></trkpt><trkpt lat="43.3921633" lon="12.8214083"><ele>511.0</ele><time>2026-04-25T10:25:56.913Z</time></trkpt><trkpt lat="43.3921133" lon="12.8215133"><ele>511.0</ele><time>2026-04-25T10:25:57.909Z</time></trkpt><trkpt lat="43.392005" lon="12.8217767"><ele>511.0</ele><time>2026-04-25T10:25:58.954Z</time></trkpt><trkpt lat="43.3919683" lon="12.8219017"><ele>511.0</ele><time>2026-04-25T10:26:00.912Z</time></trkpt><trkpt lat="43.392005" lon="12.8220067"><ele>511.0</ele><time>2026-04-25T10:26:02.917Z</time></trkpt><trkpt lat="43.3920467" lon="12.82209"><ele>509.00000000000006</ele><time>2026-04-25T10:26:04.907Z</time></trkpt><trkpt lat="43.3920817" lon="12.82217"><ele>507.0</ele><time>2026-04-25T10:26:06.916Z</time></trkpt><trkpt lat="43.3921083" lon="12.8222617"><ele>505.0</ele><time>2026-04-25T10:26:08.913Z</time></trkpt><trkpt lat="43.392075" lon="12.822385"><ele>503.0</ele><time>2026-04-25T10:26:11.916Z</time></trkpt><trkpt lat="43.3920117" lon="12.822455"><ele>501.00000000000006</ele><time>2026-04-25T10:26:13.913Z</time></trkpt><trkpt lat="43.3919" lon="12.8225267"><ele>499.0</ele><time>2026-04-25T10:26:15.911Z</time></trkpt><trkpt lat="43.3918383" lon="12.8225483"><ele>499.00000000000006</ele><time>2026-04-25T10:26:16.912Z</time></trkpt><trkpt lat="43.3917267" lon="12.822565"><ele>499.0</ele><time>2026-04-25T10:26:18.915Z</time></trkpt><trkpt lat="43.3916667" lon="12.8225167"><ele>499.0</ele><time>2026-04-25T10:26:20.923Z</time></trkpt><trkpt lat="43.3915767" lon="12.8224967"><ele>499.0</ele><time>2026-04-25T10:26:23.919Z</time></trkpt><trkpt lat="43.39151" lon="12.8225033"><ele>499.00000000000006</ele><time>2026-04-25T10:26:25.917Z</time></trkpt><trkpt lat="43.3914467" lon="12.8225133"><ele>499.0</ele><time>2026-04-25T10:26:27.916Z</time></trkpt><trkpt lat="43.39136" lon="12.8225333"><ele>498.83333333333337</ele><time>2026-04-25T10:26:29.915Z</time></trkpt><trkpt lat="43.3912883" lon="12.8225017"><ele>498.6666666666667</ele><time>2026-04-25T10:26:31.915Z</time></trkpt><trkpt lat="43.3912117" lon="12.822465"><ele>498.5</ele><time>2026-04-25T10:26:33.914Z</time></trkpt><trkpt lat="43.3911167" lon="12.8224983"><ele>498.33333333333337</ele><time>2026-04-25T10:26:35.915Z</time></trkpt><trkpt lat="43.39105" lon="12.822505"><ele>498.1666666666667</ele><time>2026-04-25T10:26:36.918Z</time></trkpt><trkpt lat="43.39096" lon="12.8225433"><ele>498.0</ele><time>2026-04-25T10:26:37.917Z</time></trkpt><trkpt lat="43.3908533" lon="12.8226033"><ele>495.0</ele><time>2026-04-25T10:26:38.913Z</time></trkpt><trkpt lat="43.3907217" lon="12.822715"><ele>492.0</ele><time>2026-04-25T10:26:39.914Z</time></trkpt><trkpt lat="43.390635" lon="12.8227717"><ele>489.0</ele><time>2026-04-25T10:26:40.913Z</time></trkpt><trkpt lat="43.390535" lon="12.8228333"><ele>486.0</ele><time>2026-04-25T10:26:41.92Z</time></trkpt><trkpt lat="43.3904483" lon="12.8228733"><ele>485.4</ele><time>2026-04-25T10:26:42.918Z</time></trkpt><trkpt lat="43.3903583" lon="12.822905"><ele>484.8</ele><time>2026-04-25T10:26:43.913Z</time></trkpt><trkpt lat="43.3902717" lon="12.8229133"><ele>484.19999999999993</ele><time>2026-04-25T10:26:44.914Z</time></trkpt><trkpt lat="43.3901767" lon="12.822925"><ele>483.59999999999997</ele><time>2026-04-25T10:26:45.916Z</time></trkpt><trkpt lat="43.3900883" lon="12.8229433"><ele>483.0</ele><time>2026-04-25T10:26:46.915Z</time></trkpt><trkpt lat="43.3899933" lon="12.82294"><ele>483.0</ele><time>2026-04-25T10:26:47.916Z</time></trkpt><trkpt lat="43.3898883" lon="12.82292"><ele>482.99999999999994</ele><time>2026-04-25T10:26:48.917Z</time></trkpt><trkpt lat="43.3897883" lon="12.8229217"><ele>482.99999999999994</ele><time>2026-04-25T10:26:49.915Z</time></trkpt><trkpt lat="43.389695" lon="12.82291"><ele>483.0</ele><time>2026-04-25T10:26:50.919Z</time></trkpt><trkpt lat="43.3896133" lon="12.82287"><ele>483.0</ele><time>2026-04-25T10:26:51.912Z</time></trkpt><trkpt lat="43.3895383" lon="12.8228083"><ele>484.3333333333333</ele><time>2026-04-25T10:26:52.951Z</time></trkpt><trkpt lat="43.3894667" lon="12.8227533"><ele>485.66666666666663</ele><time>2026-04-25T10:26:53.911Z</time></trkpt><trkpt lat="43.389405" lon="12.8226867"><ele>487.0</ele><time>2026-04-25T10:26:54.914Z</time></trkpt><trkpt lat="43.3893417" lon="12.8226317"><ele>488.3333333333333</ele><time>2026-04-25T10:26:55.915Z</time></trkpt><trkpt lat="43.3892983" lon="12.8225617"><ele>489.66666666666663</ele><time>2026-04-25T10:26:56.918Z</time></trkpt><trkpt lat="43.3891933" lon="12.82248"><ele>491.0</ele><time>2026-04-25T10:26:58.956Z</time></trkpt><trkpt lat="43.3891333" lon="12.8224233"><ele>490.99999999999994</ele><time>2026-04-25T10:26:59.913Z</time></trkpt><trkpt lat="43.3890483" lon="12.8224583"><ele>491.0</ele><time>2026-04-25T10:27:00.919Z</time></trkpt><trkpt lat="43.388965" lon="12.822475"><ele>491.0</ele><time>2026-04-25T10:27:01.918Z</time></trkpt><trkpt lat="43.3888733" lon="12.82253"><ele>491.0</ele><time>2026-04-25T10:27:02.919Z</time></trkpt><trkpt lat="43.3887833" lon="12.82256"><ele>490.99999999999994</ele><time>2026-04-25T10:27:03.913Z</time></trkpt><trkpt lat="43.3887033" lon="12.8225817"><ele>491.0</ele><time>2026-04-25T10:27:04.917Z</time></trkpt><trkpt lat="43.3886217" lon="12.8226033"><ele>490.66666666666663</ele><time>2026-04-25T10:27:05.911Z</time></trkpt><trkpt lat="43.3885433" lon="12.8226267"><ele>490.3333333333333</ele><time>2026-04-25T10:27:06.917Z</time></trkpt><trkpt lat="43.38848" lon="12.822655"><ele>490.0</ele><time>2026-04-25T10:27:07.912Z</time></trkpt><trkpt lat="43.3883833" lon="12.8227"><ele>489.66666666666663</ele><time>2026-04-25T10:27:09.919Z</time></trkpt><trkpt lat="43.3883433" lon="12.8227833"><ele>489.3333333333333</ele><time>2026-04-25T10:27:11.922Z</time></trkpt><trkpt lat="43.38838" lon="12.822855"><ele>489.0</ele><time>2026-04-25T10:27:13.919Z</time></trkpt><trkpt lat="43.3885167" lon="12.822885"><ele>485.79999999999995</ele><time>2026-04-25T10:27:15.92Z</time></trkpt><trkpt lat="43.3886117" lon="12.82289"><ele>482.59999999999997</ele><time>2026-04-25T10:27:16.923Z</time></trkpt><trkpt lat="43.3887167" lon="12.822905"><ele>479.4</ele><time>2026-04-25T10:27:17.917Z</time></trkpt><trkpt lat="43.3888217" lon="12.8229267"><ele>476.2</ele><time>2026-04-25T10:27:18.921Z</time></trkpt><trkpt lat="43.3889167" lon="12.8229583"><ele>473.0</ele><time>2026-04-25T10:27:19.92Z</time></trkpt><trkpt lat="43.3889967" lon="12.823"><ele>472.99999999999994</ele><time>2026-04-25T10:27:20.92Z</time></trkpt><trkpt lat="43.3890733" lon="12.82306"><ele>473.0</ele><time>2026-04-25T10:27:21.919Z</time></trkpt><trkpt lat="43.38913" lon="12.8231367"><ele>473.0</ele><time>2026-04-25T10:27:22.976Z</time></trkpt><trkpt lat="43.3891633" lon="12.82323"><ele>473.0</ele><time>2026-04-25T10:27:23.919Z</time></trkpt><trkpt lat="43.3891783" lon="12.8233467"><ele>472.99999999999994</ele><time>2026-04-25T10:27:24.918Z</time></trkpt><trkpt lat="43.3891483" lon="12.8235017"><ele>473.0</ele><time>2026-04-25T10:27:25.917Z</time></trkpt><trkpt lat="43.3891267" lon="12.8236417"><ele>471.59999999999997</ele><time>2026-04-25T10:27:26.919Z</time></trkpt><trkpt lat="43.3891033" lon="12.823775"><ele>470.19999999999993</ele><time>2026-04-25T10:27:27.911Z</time></trkpt><trkpt lat="43.3890783" lon="12.8239033"><ele>468.8</ele><time>2026-04-25T10:27:28.96Z</time></trkpt><trkpt lat="43.3890617" lon="12.8240283"><ele>467.4</ele><time>2026-04-25T10:27:29.912Z</time></trkpt><trkpt lat="43.3890567" lon="12.8241533"><ele>466.0</ele><time>2026-04-25T10:27:30.915Z</time></trkpt><trkpt lat="43.389065" lon="12.8242717"><ele>463.8</ele><time>2026-04-25T10:27:31.912Z</time></trkpt><trkpt lat="43.389075" lon="12.8243933"><ele>461.6</ele><time>2026-04-25T10:27:32.916Z</time></trkpt><trkpt lat="43.3891017" lon="12.82451"><ele>459.4</ele><time>2026-04-25T10:27:33.915Z</time></trkpt><trkpt lat="43.3891433" lon="12.824635"><ele>457.2</ele><time>2026-04-25T10:27:34.916Z</time></trkpt><trkpt lat="43.3891917" lon="12.82477"><ele>455.0</ele><time>2026-04-25T10:27:35.91Z</time></trkpt><trkpt lat="43.38924" lon="12.8249"><ele>455.0</ele><time>2026-04-25T10:27:36.923Z</time></trkpt><trkpt lat="43.3892967" lon="12.8250433"><ele>455.0</ele><time>2026-04-25T10:27:37.919Z</time></trkpt><trkpt lat="43.3893467" lon="12.825185"><ele>455.0</ele><time>2026-04-25T10:27:38.912Z</time></trkpt><trkpt lat="43.3893967" lon="12.8253267"><ele>455.0</ele><time>2026-04-25T10:27:39.918Z</time></trkpt><trkpt lat="43.389445" lon="12.825465"><ele>453.0</ele><time>2026-04-25T10:27:40.92Z</time></trkpt><trkpt lat="43.3894883" lon="12.8256033"><ele>451.0</ele><time>2026-04-25T10:27:41.916Z</time></trkpt><trkpt lat="43.3895317" lon="12.8257283"><ele>449.0</ele><time>2026-04-25T10:27:42.916Z</time></trkpt><trkpt lat="43.389575" lon="12.82585"><ele>447.0</ele><time>2026-04-25T10:27:43.92Z</time></trkpt><trkpt lat="43.3896167" lon="12.8259633"><ele>445.0</ele><time>2026-04-25T10:27:44.916Z</time></trkpt><trkpt lat="43.3896567" lon="12.82607"><ele>445.4</ele><time>2026-04-25T10:27:45.913Z</time></trkpt><trkpt lat="43.3897267" lon="12.8262783"><ele>445.8</ele><time>2026-04-25T10:27:47.91Z</time></trkpt><trkpt lat="43.38976" lon="12.8263633"><ele>446.20000000000005</ele><time>2026-04-25T10:27:49.912Z</time></trkpt><trkpt lat="43.3898283" lon="12.8263583"><ele>446.6</ele><time>2026-04-25T10:27:53.911Z</time></trkpt><trkpt lat="43.3898867" lon="12.8263133"><ele>447.0</ele><time>2026-04-25T10:27:54.909Z</time></trkpt><trkpt lat="43.389945" lon="12.8262383"><ele>447.0</ele><time>2026-04-25T10:27:55.915Z</time></trkpt><trkpt lat="43.3900067" lon="12.8261533"><ele>447.00000000000006</ele><time>2026-04-25T10:27:56.908Z</time></trkpt><trkpt lat="43.3900817" lon="12.8260767"><ele>447.00000000000006</ele><time>2026-04-25T10:27:57.92Z</time></trkpt><trkpt lat="43.3901617" lon="12.825995"><ele>447.0</ele><time>2026-04-25T10:27:58.957Z</time></trkpt><trkpt lat="43.39024" lon="12.8259133"><ele>447.0</ele><time>2026-04-25T10:27:59.915Z</time></trkpt><trkpt lat="43.39032" lon="12.8258383"><ele>446.75</ele><time>2026-04-25T10:28:00.909Z</time></trkpt><trkpt lat="43.39043" lon="12.8257733"><ele>446.5</ele><time>2026-04-25T10:28:01.916Z</time></trkpt><trkpt lat="43.3905367" lon="12.825705"><ele>446.25</ele><time>2026-04-25T10:28:02.912Z</time></trkpt><trkpt lat="43.3906533" lon="12.82565"><ele>446.0</ele><time>2026-04-25T10:28:03.91Z</time></trkpt><trkpt lat="43.3907683" lon="12.8255967"><ele>443.0</ele><time>2026-04-25T10:28:04.919Z</time></trkpt><trkpt lat="43.3908883" lon="12.8255433"><ele>440.0</ele><time>2026-04-25T10:28:05.918Z</time></trkpt><trkpt lat="43.391005" lon="12.8255033"><ele>437.0</ele><time>2026-04-25T10:28:06.911Z</time></trkpt><trkpt lat="43.3911117" lon="12.8254583"><ele>434.0</ele><time>2026-04-25T10:28:07.92Z</time></trkpt><trkpt lat="43.39121" lon="12.8254167"><ele>434.0</ele><time>2026-04-25T10:28:08.911Z</time></trkpt><trkpt lat="43.3913133" lon="12.8253767"><ele>434.0</ele><time>2026-04-25T10:28:09.913Z</time></trkpt><trkpt lat="43.391425" lon="12.8253467"><ele>434.0</ele><time>2026-04-25T10:28:10.917Z</time></trkpt><trkpt lat="43.391545" lon="12.8253367"><ele>434.0</ele><time>2026-04-25T10:28:11.913Z</time></trkpt><trkpt lat="43.3916783" lon="12.8253433"><ele>431.5</ele><time>2026-04-25T10:28:12.913Z</time></trkpt><trkpt lat="43.3918167" lon="12.8253483"><ele>429.0</ele><time>2026-04-25T10:28:13.91Z</time></trkpt><trkpt lat="43.3919567" lon="12.8253533"><ele>426.5</ele><time>2026-04-25T10:28:14.913Z</time></trkpt><trkpt lat="43.39209" lon="12.8253433"><ele>424.0</ele><time>2026-04-25T10:28:15.911Z</time></trkpt><trkpt lat="43.3922267" lon="12.82532"><ele>422.5</ele><time>2026-04-25T10:28:16.913Z</time></trkpt><trkpt lat="43.3923683" lon="12.825295"><ele>421.0</ele><time>2026-04-25T10:28:17.91Z</time></trkpt><trkpt lat="43.39251" lon="12.8252733"><ele>419.5</ele><time>2026-04-25T10:28:18.911Z</time></trkpt><trkpt lat="43.3926467" lon="12.8252517"><ele>418.0</ele><time>2026-04-25T10:28:19.914Z</time></trkpt><trkpt lat="43.39278" lon="12.8252367"><ele>418.0</ele><time>2026-04-25T10:28:20.918Z</time></trkpt><trkpt lat="43.39292" lon="12.8252367"><ele>418.0</ele><time>2026-04-25T10:28:21.909Z</time></trkpt><trkpt lat="43.3930667" lon="12.8252417"><ele>418.0</ele><time>2026-04-25T10:28:22.935Z</time></trkpt><trkpt lat="43.3932133" lon="12.8252233"><ele>418.0</ele><time>2026-04-25T10:28:23.919Z</time></trkpt><trkpt lat="43.3933567" lon="12.8252133"><ele>417.25</ele><time>2026-04-25T10:28:24.917Z</time></trkpt><trkpt lat="43.393495" lon="12.8252133"><ele>416.5</ele><time>2026-04-25T10:28:25.923Z</time></trkpt><trkpt lat="43.3936317" lon="12.825225"><ele>415.75</ele><time>2026-04-25T10:28:26.911Z</time></trkpt><trkpt lat="43.39377" lon="12.825245"><ele>415.0</ele><time>2026-04-25T10:28:27.918Z</time></trkpt><trkpt lat="43.3939033" lon="12.8252417"><ele>413.5</ele><time>2026-04-25T10:28:28.954Z</time></trkpt><trkpt lat="43.39404" lon="12.8252333"><ele>412.0</ele><time>2026-04-25T10:28:29.905Z</time></trkpt><trkpt lat="43.3941767" lon="12.8252183"><ele>410.5</ele><time>2026-04-25T10:28:30.911Z</time></trkpt><trkpt lat="43.3943117" lon="12.8251933"><ele>409.0</ele><time>2026-04-25T10:28:31.917Z</time></trkpt><trkpt lat="43.39444" lon="12.825155"><ele>408.25</ele><time>2026-04-25T10:28:32.913Z</time></trkpt><trkpt lat="43.3945533" lon="12.82511"><ele>407.5</ele><time>2026-04-25T10:28:33.91Z</time></trkpt><trkpt lat="43.3946617" lon="12.8250617"><ele>406.75</ele><time>2026-04-25T10:28:34.916Z</time></trkpt><trkpt lat="43.3947667" lon="12.8250183"><ele>406.0</ele><time>2026-04-25T10:28:35.914Z</time></trkpt><trkpt lat="43.394875" lon="12.8249767"><ele>404.75</ele><time>2026-04-25T10:28:36.92Z</time></trkpt><trkpt lat="43.3949883" lon="12.8249467"><ele>403.5</ele><time>2026-04-25T10:28:37.916Z</time></trkpt><trkpt lat="43.3951" lon="12.82493"><ele>402.25</ele><time>2026-04-25T10:28:38.911Z</time></trkpt><trkpt lat="43.39522" lon="12.824935"><ele>401.0</ele><time>2026-04-25T10:28:39.914Z</time></trkpt><trkpt lat="43.3953467" lon="12.8249733"><ele>401.0</ele><time>2026-04-25T10:28:40.913Z</time></trkpt><trkpt lat="43.3954767" lon="12.825015"><ele>401.0</ele><time>2026-04-25T10:28:41.909Z</time></trkpt><trkpt lat="43.3956083" lon="12.8250683"><ele>401.0</ele><time>2026-04-25T10:28:42.908Z</time></trkpt><trkpt lat="43.395745" lon="12.8251183"><ele>401.0</ele><time>2026-04-25T10:28:43.917Z</time></trkpt><trkpt lat="43.3958783" lon="12.8251583"><ele>399.5</ele><time>2026-04-25T10:28:44.912Z</time></trkpt><trkpt lat="43.3960217" lon="12.82519"><ele>398.0</ele><time>2026-04-25T10:28:45.911Z</time></trkpt><trkpt lat="43.3961567" lon="12.8251517"><ele>396.5</ele><time>2026-04-25T10:28:46.911Z</time></trkpt><trkpt lat="43.3962817" lon="12.8250917"><ele>395.0</ele><time>2026-04-25T10:28:47.915Z</time></trkpt><trkpt lat="43.396395" lon="12.8250233"><ele>393.2</ele><time>2026-04-25T10:28:48.915Z</time></trkpt><trkpt lat="43.39651" lon="12.8249483"><ele>391.4</ele><time>2026-04-25T10:28:49.913Z</time></trkpt><trkpt lat="43.3966133" lon="12.8248767"><ele>389.6</ele><time>2026-04-25T10:28:50.91Z</time></trkpt><trkpt lat="43.3967033" lon="12.8248083"><ele>387.8</ele><time>2026-04-25T10:28:51.915Z</time></trkpt><trkpt lat="43.396795" lon="12.8247433"><ele>386.0</ele><time>2026-04-25T10:28:52.98Z</time></trkpt><trkpt lat="43.3968717" lon="12.8246983"><ele>385.99999999999994</ele><time>2026-04-25T10:28:53.914Z</time></trkpt><trkpt lat="43.3969417" lon="12.8246683"><ele>386.0</ele><time>2026-04-25T10:28:54.909Z</time></trkpt><trkpt lat="43.3970167" lon="12.8246567"><ele>386.0</ele><time>2026-04-25T10:28:55.916Z</time></trkpt><trkpt lat="43.397115" lon="12.82477"><ele>386.0</ele><time>2026-04-25T10:28:57.914Z</time></trkpt><trkpt lat="43.3971633" lon="12.8248433"><ele>385.99999999999994</ele><time>2026-04-25T10:28:58.952Z</time></trkpt><trkpt lat="43.397215" lon="12.8249267"><ele>386.0</ele><time>2026-04-25T10:28:59.913Z</time></trkpt><trkpt lat="43.3972733" lon="12.8250133"><ele>386.0</ele><time>2026-04-25T10:29:00.913Z</time></trkpt><trkpt lat="43.3973317" lon="12.8250983"><ele>386.0</ele><time>2026-04-25T10:29:01.912Z</time></trkpt><trkpt lat="43.3973917" lon="12.82519"><ele>386.0</ele><time>2026-04-25T10:29:02.913Z</time></trkpt><trkpt lat="43.3974567" lon="12.825285"><ele>386.0</ele><time>2026-04-25T10:29:03.914Z</time></trkpt><trkpt lat="43.3975217" lon="12.8254033"><ele>386.0</ele><time>2026-04-25T10:29:04.926Z</time></trkpt><trkpt lat="43.3975917" lon="12.8255333"><ele>386.25</ele><time>2026-04-25T10:29:05.913Z</time></trkpt><trkpt lat="43.39766" lon="12.8256617"><ele>386.5</ele><time>2026-04-25T10:29:06.92Z</time></trkpt><trkpt lat="43.3977317" lon="12.8257983"><ele>386.75</ele><time>2026-04-25T10:29:07.913Z</time></trkpt><trkpt lat="43.3978067" lon="12.8259267"><ele>387.0</ele><time>2026-04-25T10:29:08.91Z</time></trkpt><trkpt lat="43.39788" lon="12.8260517"><ele>386.20000000000005</ele><time>2026-04-25T10:29:09.914Z</time></trkpt><trkpt lat="43.3979533" lon="12.8261767"><ele>385.4</ele><time>2026-04-25T10:29:10.924Z</time></trkpt><trkpt lat="43.39802" lon="12.8263"><ele>384.6</ele><time>2026-04-25T10:29:11.918Z</time></trkpt><trkpt lat="43.3980867" lon="12.826425"><ele>383.79999999999995</ele><time>2026-04-25T10:29:12.91Z</time></trkpt><trkpt lat="43.398145" lon="12.8265267"><ele>383.0</ele><time>2026-04-25T10:29:13.91Z</time></trkpt><trkpt lat="43.3982667" lon="12.82668"><ele>383.0</ele><time>2026-04-25T10:29:15.916Z</time></trkpt><trkpt lat="43.3983333" lon="12.8267233"><ele>383.0</ele><time>2026-04-25T10:29:16.917Z</time></trkpt><trkpt lat="43.3984083" lon="12.826765"><ele>383.0</ele><time>2026-04-25T10:29:17.914Z</time></trkpt><trkpt lat="43.398495" lon="12.8267967"><ele>383.0</ele><time>2026-04-25T10:29:18.921Z</time></trkpt><trkpt lat="43.39859" lon="12.8268367"><ele>383.0</ele><time>2026-04-25T10:29:19.915Z</time></trkpt><trkpt lat="43.3987117" lon="12.8268867"><ele>382.5</ele><time>2026-04-25T10:29:20.909Z</time></trkpt><trkpt lat="43.3988333" lon="12.8269517"><ele>382.0</ele><time>2026-04-25T10:29:21.919Z</time></trkpt><trkpt lat="43.3989633" lon="12.82702"><ele>381.5</ele><time>2026-04-25T10:29:22.98Z</time></trkpt><trkpt lat="43.3990983" lon="12.827095"><ele>381.0</ele><time>2026-04-25T10:29:23.915Z</time></trkpt><trkpt lat="43.399235" lon="12.8271683"><ele>381.0</ele><time>2026-04-25T10:29:24.918Z</time></trkpt><trkpt lat="43.3993683" lon="12.8272333"><ele>381.0</ele><time>2026-04-25T10:29:25.908Z</time></trkpt><trkpt lat="43.39951" lon="12.8272817"><ele>381.0</ele><time>2026-04-25T10:29:26.922Z</time></trkpt><trkpt lat="43.3996617" lon="12.8273083"><ele>381.0</ele><time>2026-04-25T10:29:27.915Z</time></trkpt><trkpt lat="43.3998133" lon="12.82731"><ele>380.0</ele><time>2026-04-25T10:29:28.969Z</time></trkpt><trkpt lat="43.3999717" lon="12.8273033"><ele>379.0</ele><time>2026-04-25T10:29:29.919Z</time></trkpt><trkpt lat="43.4001367" lon="12.8273017"><ele>378.0</ele><time>2026-04-25T10:29:30.919Z</time></trkpt><trkpt lat="43.4002983" lon="12.8273083"><ele>378.0</ele><time>2026-04-25T10:29:31.92Z</time></trkpt><trkpt lat="43.4004617" lon="12.8273217"><ele>378.0</ele><time>2026-04-25T10:29:32.916Z</time></trkpt><trkpt lat="43.400625" lon="12.82734"><ele>378.0</ele><time>2026-04-25T10:29:33.912Z</time></trkpt><trkpt lat="43.4007983" lon="12.8273783"><ele>377.3333333333333</ele><time>2026-04-25T10:29:34.924Z</time></trkpt><trkpt lat="43.4009683" lon="12.82741"><ele>376.66666666666663</ele><time>2026-04-25T10:29:35.918Z</time></trkpt><trkpt lat="43.40113" lon="12.827445"><ele>376.0</ele><time>2026-04-25T10:29:36.92Z</time></trkpt><trkpt lat="43.4012817" lon="12.8275"><ele>375.3333333333333</ele><time>2026-04-25T10:29:37.915Z</time></trkpt><trkpt lat="43.4014267" lon="12.82758"><ele>374.6666666666667</ele><time>2026-04-25T10:29:38.916Z</time></trkpt><trkpt lat="43.4015617" lon="12.8276833"><ele>374.0</ele><time>2026-04-25T10:29:39.913Z</time></trkpt><trkpt lat="43.4016967" lon="12.8278133"><ele>374.0</ele><time>2026-04-25T10:29:40.925Z</time></trkpt><trkpt lat="43.4018233" lon="12.8279533"><ele>374.0</ele><time>2026-04-25T10:29:41.916Z</time></trkpt><trkpt lat="43.40194" lon="12.8280967"><ele>374.0</ele><time>2026-04-25T10:29:42.923Z</time></trkpt><trkpt lat="43.402055" lon="12.828245"><ele>372.0</ele><time>2026-04-25T10:29:43.918Z</time></trkpt><trkpt lat="43.4021667" lon="12.828385"><ele>370.0</ele><time>2026-04-25T10:29:44.919Z</time></trkpt><trkpt lat="43.402285" lon="12.828505"><ele>368.0</ele><time>2026-04-25T10:29:45.919Z</time></trkpt><trkpt lat="43.4024117" lon="12.8286067"><ele>366.0</ele><time>2026-04-25T10:29:46.924Z</time></trkpt><trkpt lat="43.40255" lon="12.82868"><ele>366.0</ele><time>2026-04-25T10:29:47.916Z</time></trkpt><trkpt lat="43.4026867" lon="12.8287333"><ele>366.0</ele><time>2026-04-25T10:29:48.914Z</time></trkpt><trkpt lat="43.4028183" lon="12.8287817"><ele>366.0</ele><time>2026-04-25T10:29:49.92Z</time></trkpt><trkpt lat="43.4029383" lon="12.82883"><ele>366.0</ele><time>2026-04-25T10:29:50.918Z</time></trkpt><trkpt lat="43.4030433" lon="12.8288667"><ele>364.8333333333333</ele><time>2026-04-25T10:29:51.915Z</time></trkpt><trkpt lat="43.4031283" lon="12.8288567"><ele>363.6666666666667</ele><time>2026-04-25T10:29:52.985Z</time></trkpt><trkpt lat="43.4031933" lon="12.8288"><ele>362.5</ele><time>2026-04-25T10:29:53.917Z</time></trkpt><trkpt lat="43.40323" lon="12.8287"><ele>361.33333333333337</ele><time>2026-04-25T10:29:54.918Z</time></trkpt><trkpt lat="43.4032217" lon="12.82858"><ele>360.1666666666667</ele><time>2026-04-25T10:29:55.912Z</time></trkpt><trkpt lat="43.4031733" lon="12.82846"><ele>359.0</ele><time>2026-04-25T10:29:56.92Z</time></trkpt><trkpt lat="43.40308" lon="12.8283583"><ele>360.0</ele><time>2026-04-25T10:29:57.918Z</time></trkpt><trkpt lat="43.4029783" lon="12.82828"><ele>361.0</ele><time>2026-04-25T10:29:58.969Z</time></trkpt><trkpt lat="43.4028633" lon="12.8282333"><ele>362.0</ele><time>2026-04-25T10:29:59.917Z</time></trkpt><trkpt lat="43.402745" lon="12.8282133"><ele>363.0</ele><time>2026-04-25T10:30:00.916Z</time></trkpt><trkpt lat="43.4026283" lon="12.8281983"><ele>363.0</ele><time>2026-04-25T10:30:01.919Z</time></trkpt><trkpt lat="43.4025333" lon="12.828165"><ele>363.0</ele><time>2026-04-25T10:30:02.919Z</time></trkpt><trkpt lat="43.402465" lon="12.82812"><ele>363.0</ele><time>2026-04-25T10:30:03.923Z</time></trkpt><trkpt lat="43.402465" lon="12.8280033"><ele>363.0</ele><time>2026-04-25T10:30:05.91Z</time></trkpt><trkpt lat="43.402615" lon="12.827935"><ele>363.0</ele><time>2026-04-25T10:30:07.916Z</time></trkpt><trkpt lat="43.4027267" lon="12.8279267"><ele>363.0</ele><time>2026-04-25T10:30:08.91Z</time></trkpt><trkpt lat="43.4028417" lon="12.827925"><ele>363.0</ele><time>2026-04-25T10:30:09.917Z</time></trkpt><trkpt lat="43.4029533" lon="12.82795"><ele>363.0</ele><time>2026-04-25T10:30:10.926Z</time></trkpt><trkpt lat="43.4030617" lon="12.8279967"><ele>363.0</ele><time>2026-04-25T10:30:11.917Z</time></trkpt><trkpt lat="43.40317" lon="12.828065"><ele>360.25</ele><time>2026-04-25T10:30:12.914Z</time></trkpt><trkpt lat="43.4032783" lon="12.8281383"><ele>357.5</ele><time>2026-04-25T10:30:13.908Z</time></trkpt><trkpt lat="43.4033917" lon="12.82821"><ele>354.75</ele><time>2026-04-25T10:30:14.928Z</time></trkpt><trkpt lat="43.4035133" lon="12.8282733"><ele>352.0</ele><time>2026-04-25T10:30:15.913Z</time></trkpt><trkpt lat="43.4036433" lon="12.82832"><ele>352.0</ele><time>2026-04-25T10:30:16.926Z</time></trkpt><trkpt lat="43.4037767" lon="12.8283583"><ele>352.0</ele><time>2026-04-25T10:30:17.907Z</time></trkpt><trkpt lat="43.4039233" lon="12.8283567"><ele>352.0</ele><time>2026-04-25T10:30:18.917Z</time></trkpt><trkpt lat="43.4040683" lon="12.8283333"><ele>352.0</ele><time>2026-04-25T10:30:19.919Z</time></trkpt><trkpt lat="43.4042083" lon="12.82831"><ele>350.66666666666663</ele><time>2026-04-25T10:30:20.913Z</time></trkpt><trkpt lat="43.404365" lon="12.8282933"><ele>349.3333333333333</ele><time>2026-04-25T10:30:21.907Z</time></trkpt><trkpt lat="43.4045167" lon="12.82831"><ele>348.0</ele><time>2026-04-25T10:30:22.977Z</time></trkpt><trkpt lat="43.4046667" lon="12.82834"><ele>347.6666666666667</ele><time>2026-04-25T10:30:23.911Z</time></trkpt><trkpt lat="43.40481" lon="12.8284"><ele>347.33333333333337</ele><time>2026-04-25T10:30:24.924Z</time></trkpt><trkpt lat="43.4049583" lon="12.8284733"><ele>347.0</ele><time>2026-04-25T10:30:25.923Z</time></trkpt><trkpt lat="43.405105" lon="12.828555"><ele>347.0</ele><time>2026-04-25T10:30:26.917Z</time></trkpt><trkpt lat="43.4052533" lon="12.82866"><ele>347.0</ele><time>2026-04-25T10:30:27.91Z</time></trkpt><trkpt lat="43.4054017" lon="12.828775"><ele>347.0</ele><time>2026-04-25T10:30:28.965Z</time></trkpt><trkpt lat="43.4055567" lon="12.828885"><ele>348.6666666666667</ele><time>2026-04-25T10:30:29.909Z</time></trkpt><trkpt lat="43.4057117" lon="12.8289833"><ele>350.3333333333333</ele><time>2026-04-25T10:30:30.918Z</time></trkpt><trkpt lat="43.40586" lon="12.829065"><ele>352.0</ele><time>2026-04-25T10:30:31.914Z</time></trkpt><trkpt lat="43.4059983" lon="12.8291483"><ele>352.0</ele><time>2026-04-25T10:30:32.911Z</time></trkpt><trkpt lat="43.4061367" lon="12.8292267"><ele>352.0</ele><time>2026-04-25T10:30:33.915Z</time></trkpt><trkpt lat="43.4062683" lon="12.8292917"><ele>352.0</ele><time>2026-04-25T10:30:34.92Z</time></trkpt><trkpt lat="43.406395" lon="12.8293633"><ele>352.0</ele><time>2026-04-25T10:30:35.915Z</time></trkpt><trkpt lat="43.4065283" lon="12.829405"><ele>349.75</ele><time>2026-04-25T10:30:36.911Z</time></trkpt><trkpt lat="43.4066617" lon="12.8294233"><ele>347.5</ele><time>2026-04-25T10:30:37.91Z</time></trkpt><trkpt lat="43.40678" lon="12.8294183"><ele>345.25</ele><time>2026-04-25T10:30:38.919Z</time></trkpt><trkpt lat="43.4068833" lon="12.8294117"><ele>343.0</ele><time>2026-04-25T10:30:39.913Z</time></trkpt><trkpt lat="43.40698" lon="12.8293983"><ele>343.0</ele><time>2026-04-25T10:30:40.919Z</time></trkpt><trkpt lat="43.407065" lon="12.82939"><ele>343.0</ele><time>2026-04-25T10:30:41.92Z</time></trkpt><trkpt lat="43.4071433" lon="12.829385"><ele>343.0</ele><time>2026-04-25T10:30:42.911Z</time></trkpt><trkpt lat="43.4072183" lon="12.829365"><ele>343.0</ele><time>2026-04-25T10:30:43.917Z</time></trkpt><trkpt lat="43.407295" lon="12.829325"><ele>343.0</ele><time>2026-04-25T10:30:44.907Z</time></trkpt><trkpt lat="43.4073833" lon="12.8292533"><ele>343.0</ele><time>2026-04-25T10:30:45.915Z</time></trkpt><trkpt lat="43.407475" lon="12.8291683"><ele>345.25</ele><time>2026-04-25T10:30:46.916Z</time></trkpt><trkpt lat="43.4075817" lon="12.829055"><ele>347.5</ele><time>2026-04-25T10:30:47.917Z</time></trkpt><trkpt lat="43.4076917" lon="12.8289417"><ele>349.75</ele><time>2026-04-25T10:30:48.914Z</time></trkpt><trkpt lat="43.4078117" lon="12.82883"><ele>352.0</ele><time>2026-04-25T10:30:49.917Z</time></trkpt><trkpt lat="43.4079317" lon="12.8287267"><ele>351.0</ele><time>2026-04-25T10:30:50.919Z</time></trkpt><trkpt lat="43.40806" lon="12.8286067"><ele>350.0</ele><time>2026-04-25T10:30:51.919Z</time></trkpt><trkpt lat="43.4081933" lon="12.82848"><ele>349.0</ele><time>2026-04-25T10:30:52.94Z</time></trkpt><trkpt lat="43.408325" lon="12.8283467"><ele>349.0</ele><time>2026-04-25T10:30:53.918Z</time></trkpt><trkpt lat="43.4084533" lon="12.8282033"><ele>349.0</ele><time>2026-04-25T10:30:54.922Z</time></trkpt><trkpt lat="43.4085783" lon="12.8280567"><ele>349.0</ele><time>2026-04-25T10:30:55.914Z</time></trkpt><trkpt lat="43.4087017" lon="12.827905"><ele>349.0</ele><time>2026-04-25T10:30:56.917Z</time></trkpt><trkpt lat="43.4088117" lon="12.8277467"><ele>349.0</ele><time>2026-04-25T10:30:57.916Z</time></trkpt><trkpt lat="43.40891" lon="12.827575"><ele>349.0</ele><time>2026-04-25T10:30:58.966Z</time></trkpt><trkpt lat="43.4089983" lon="12.82739"><ele>348.0</ele><time>2026-04-25T10:30:59.912Z</time></trkpt><trkpt lat="43.4090767" lon="12.82719"><ele>347.0</ele><time>2026-04-25T10:31:00.912Z</time></trkpt><trkpt lat="43.4091467" lon="12.826995"><ele>346.0</ele><time>2026-04-25T10:31:01.918Z</time></trkpt><trkpt lat="43.4092117" lon="12.8268033"><ele>344.75</ele><time>2026-04-25T10:31:02.919Z</time></trkpt><trkpt lat="43.409275" lon="12.826615"><ele>343.5</ele><time>2026-04-25T10:31:03.916Z</time></trkpt><trkpt lat="43.4093383" lon="12.8264283"><ele>342.25</ele><time>2026-04-25T10:31:04.926Z</time></trkpt><trkpt lat="43.4093983" lon="12.8262517"><ele>341.0</ele><time>2026-04-25T10:31:05.914Z</time></trkpt><trkpt lat="43.4094617" lon="12.8260783"><ele>340.0</ele><time>2026-04-25T10:31:06.921Z</time></trkpt><trkpt lat="43.4095267" lon="12.825915"><ele>339.0</ele><time>2026-04-25T10:31:07.914Z</time></trkpt><trkpt lat="43.4095883" lon="12.8257517"><ele>338.0</ele><time>2026-04-25T10:31:08.919Z</time></trkpt><trkpt lat="43.4096467" lon="12.8255833"><ele>337.0</ele><time>2026-04-25T10:31:09.924Z</time></trkpt><trkpt lat="43.4097017" lon="12.8254067"><ele>336.5</ele><time>2026-04-25T10:31:10.925Z</time></trkpt><trkpt lat="43.4097467" lon="12.8252233"><ele>336.0</ele><time>2026-04-25T10:31:11.92Z</time></trkpt><trkpt lat="43.4097933" lon="12.8250417"><ele>335.5</ele><time>2026-04-25T10:31:12.911Z</time></trkpt><trkpt lat="43.4098467" lon="12.8248567"><ele>335.0</ele><time>2026-04-25T10:31:13.92Z</time></trkpt><trkpt lat="43.4099017" lon="12.8246633"><ele>334.33333333333337</ele><time>2026-04-25T10:31:14.914Z</time></trkpt><trkpt lat="43.4099733" lon="12.8244717"><ele>333.6666666666667</ele><time>2026-04-25T10:31:15.917Z</time></trkpt><trkpt lat="43.4100483" lon="12.82429"><ele>333.0</ele><time>2026-04-25T10:31:16.92Z</time></trkpt><trkpt lat="43.41012" lon="12.8241117"><ele>333.0</ele><time>2026-04-25T10:31:17.917Z</time></trkpt><trkpt lat="43.41019" lon="12.8239333"><ele>333.0</ele><time>2026-04-25T10:31:18.913Z</time></trkpt><trkpt lat="43.4102517" lon="12.8237483"><ele>333.0</ele><time>2026-04-25T10:31:19.909Z</time></trkpt><trkpt lat="43.4103117" lon="12.8235517"><ele>333.0</ele><time>2026-04-25T10:31:20.907Z</time></trkpt><trkpt lat="43.4103667" lon="12.823345"><ele>333.0</ele><time>2026-04-25T10:31:21.911Z</time></trkpt><trkpt lat="43.4104233" lon="12.8231333"><ele>333.0</ele><time>2026-04-25T10:31:22.981Z</time></trkpt><trkpt lat="43.410475" lon="12.82292"><ele>333.0</ele><time>2026-04-25T10:31:23.911Z</time></trkpt><trkpt lat="43.4105283" lon="12.822715"><ele>333.0</ele><time>2026-04-25T10:31:24.908Z</time></trkpt><trkpt lat="43.41058" lon="12.8225017"><ele>333.0</ele><time>2026-04-25T10:31:25.919Z</time></trkpt><trkpt lat="43.4106367" lon="12.822295"><ele>333.0</ele><time>2026-04-25T10:31:26.912Z</time></trkpt><trkpt lat="43.4106933" lon="12.8220883"><ele>333.0</ele><time>2026-04-25T10:31:27.909Z</time></trkpt><trkpt lat="43.41074" lon="12.8218817"><ele>333.0</ele><time>2026-04-25T10:31:28.958Z</time></trkpt><trkpt lat="43.4107833" lon="12.8216833"><ele>333.75</ele><time>2026-04-25T10:31:29.915Z</time></trkpt><trkpt lat="43.4108233" lon="12.821495"><ele>334.5</ele><time>2026-04-25T10:31:30.914Z</time></trkpt><trkpt lat="43.4108633" lon="12.8213117"><ele>335.25</ele><time>2026-04-25T10:31:31.908Z</time></trkpt><trkpt lat="43.4109017" lon="12.8211283"><ele>336.0</ele><time>2026-04-25T10:31:32.915Z</time></trkpt><trkpt lat="43.4109367" lon="12.8209583"><ele>336.20000000000005</ele><time>2026-04-25T10:31:33.916Z</time></trkpt><trkpt lat="43.4109733" lon="12.8208117"><ele>336.40000000000003</ele><time>2026-04-25T10:31:34.915Z</time></trkpt><trkpt lat="43.41101" lon="12.8206683"><ele>336.6</ele><time>2026-04-25T10:31:35.909Z</time></trkpt><trkpt lat="43.4110483" lon="12.8205267"><ele>336.8</ele><time>2026-04-25T10:31:36.919Z</time></trkpt><trkpt lat="43.411085" lon="12.82038"><ele>337.0</ele><time>2026-04-25T10:31:37.912Z</time></trkpt><trkpt lat="43.4111267" lon="12.82023"><ele>337.0</ele><time>2026-04-25T10:31:38.915Z</time></trkpt><trkpt lat="43.4111733" lon="12.8200817"><ele>337.0</ele><time>2026-04-25T10:31:39.908Z</time></trkpt><trkpt lat="43.4112233" lon="12.8199383"><ele>337.0</ele><time>2026-04-25T10:31:40.916Z</time></trkpt><trkpt lat="43.4112733" lon="12.819795"><ele>337.0</ele><time>2026-04-25T10:31:41.916Z</time></trkpt><trkpt lat="43.41133" lon="12.8196617"><ele>337.0</ele><time>2026-04-25T10:31:42.914Z</time></trkpt><trkpt lat="43.4113917" lon="12.8195267"><ele>337.0</ele><time>2026-04-25T10:31:43.911Z</time></trkpt><trkpt lat="43.411425" lon="12.8194"><ele>337.0</ele><time>2026-04-25T10:31:44.915Z</time></trkpt><trkpt lat="43.4114683" lon="12.8192883"><ele>337.0</ele><time>2026-04-25T10:31:45.915Z</time></trkpt><trkpt lat="43.4115" lon="12.8191967"><ele>337.0</ele><time>2026-04-25T10:31:46.917Z</time></trkpt><trkpt lat="43.41153" lon="12.8191167"><ele>337.0</ele><time>2026-04-25T10:31:47.918Z</time></trkpt><trkpt lat="43.4115617" lon="12.8190367"><ele>337.0</ele><time>2026-04-25T10:31:49.917Z</time></trkpt><trkpt lat="43.4115967" lon="12.81895"><ele>337.0</ele><time>2026-04-25T10:31:51.924Z</time></trkpt><trkpt lat="43.41161" lon="12.8188133"><ele>337.0</ele><time>2026-04-25T10:31:52.987Z</time></trkpt><trkpt lat="43.411625" lon="12.8186717"><ele>337.0</ele><time>2026-04-25T10:31:53.916Z</time></trkpt><trkpt lat="43.411655" lon="12.8185167"><ele>337.0</ele><time>2026-04-25T10:31:54.922Z</time></trkpt><trkpt lat="43.4116917" lon="12.8183533"><ele>336.5</ele><time>2026-04-25T10:31:55.914Z</time></trkpt><trkpt lat="43.4117383" lon="12.818185"><ele>336.0</ele><time>2026-04-25T10:31:56.918Z</time></trkpt><trkpt lat="43.411785" lon="12.818015"><ele>335.5</ele><time>2026-04-25T10:31:57.911Z</time></trkpt><trkpt lat="43.411835" lon="12.8178367"><ele>335.0</ele><time>2026-04-25T10:31:58.972Z</time></trkpt><trkpt lat="43.4118817" lon="12.8176583"><ele>335.25</ele><time>2026-04-25T10:31:59.914Z</time></trkpt><trkpt lat="43.4119283" lon="12.8174767"><ele>335.5</ele><time>2026-04-25T10:32:00.915Z</time></trkpt><trkpt lat="43.4119733" lon="12.8173033"><ele>335.75</ele><time>2026-04-25T10:32:01.912Z</time></trkpt><trkpt lat="43.412015" lon="12.8171333"><ele>336.0</ele><time>2026-04-25T10:32:02.919Z</time></trkpt><trkpt lat="43.4120533" lon="12.8169683"><ele>337.75</ele><time>2026-04-25T10:32:03.908Z</time></trkpt><trkpt lat="43.41209" lon="12.8168117"><ele>339.5</ele><time>2026-04-25T10:32:04.927Z</time></trkpt><trkpt lat="43.4121233" lon="12.816665"><ele>341.25</ele><time>2026-04-25T10:32:05.907Z</time></trkpt><trkpt lat="43.4121533" lon="12.8165183"><ele>343.0</ele><time>2026-04-25T10:32:06.919Z</time></trkpt><trkpt lat="43.412175" lon="12.81636"><ele>339.5</ele><time>2026-04-25T10:32:07.916Z</time></trkpt><trkpt lat="43.4121883" lon="12.8161917"><ele>336.0</ele><time>2026-04-25T10:32:08.92Z</time></trkpt><trkpt lat="43.4121933" lon="12.81602"><ele>332.5</ele><time>2026-04-25T10:32:09.919Z</time></trkpt><trkpt lat="43.4121867" lon="12.815845"><ele>329.0</ele><time>2026-04-25T10:32:10.924Z</time></trkpt><trkpt lat="43.4121817" lon="12.81566"><ele>329.0</ele><time>2026-04-25T10:32:11.906Z</time></trkpt><trkpt lat="43.4121833" lon="12.8154633"><ele>329.0</ele><time>2026-04-25T10:32:12.914Z</time></trkpt><trkpt lat="43.41219" lon="12.8152617"><ele>329.0</ele><time>2026-04-25T10:32:13.916Z</time></trkpt><trkpt lat="43.4122067" lon="12.8150567"><ele>329.0</ele><time>2026-04-25T10:32:14.918Z</time></trkpt><trkpt lat="43.4122333" lon="12.81486"><ele>328.5</ele><time>2026-04-25T10:32:15.917Z</time></trkpt><trkpt lat="43.4122833" lon="12.8146767"><ele>328.0</ele><time>2026-04-25T10:32:16.923Z</time></trkpt><trkpt lat="43.41238" lon="12.8145367"><ele>327.5</ele><time>2026-04-25T10:32:17.923Z</time></trkpt><trkpt lat="43.412495" lon="12.8144017"><ele>327.0</ele><time>2026-04-25T10:32:18.919Z</time></trkpt><trkpt lat="43.41261" lon="12.8142567"><ele>329.25</ele><time>2026-04-25T10:32:19.917Z</time></trkpt><trkpt lat="43.4127167" lon="12.814115"><ele>331.5</ele><time>2026-04-25T10:32:20.921Z</time></trkpt><trkpt lat="43.41281" lon="12.813965"><ele>333.75</ele><time>2026-04-25T10:32:21.922Z</time></trkpt><trkpt lat="43.4128967" lon="12.813785"><ele>336.0</ele><time>2026-04-25T10:32:22.979Z</time></trkpt><trkpt lat="43.412965" lon="12.813575"><ele>333.3333333333333</ele><time>2026-04-25T10:32:23.92Z</time></trkpt><trkpt lat="43.4130083" lon="12.8133683"><ele>330.66666666666663</ele><time>2026-04-25T10:32:24.92Z</time></trkpt><trkpt lat="43.4130633" lon="12.8131783"><ele>328.0</ele><time>2026-04-25T10:32:25.917Z</time></trkpt><trkpt lat="43.4131233" lon="12.8129867"><ele>328.0</ele><time>2026-04-25T10:32:26.92Z</time></trkpt><trkpt lat="43.4132133" lon="12.8128367"><ele>328.0</ele><time>2026-04-25T10:32:27.915Z</time></trkpt><trkpt lat="43.413325" lon="12.8126983"><ele>328.0</ele><time>2026-04-25T10:32:28.966Z</time></trkpt><trkpt lat="43.4134483" lon="12.8125633"><ele>328.0</ele><time>2026-04-25T10:32:29.915Z</time></trkpt><trkpt lat="43.4135767" lon="12.8124483"><ele>329.0</ele><time>2026-04-25T10:32:30.917Z</time></trkpt><trkpt lat="43.413705" lon="12.812335"><ele>330.0</ele><time>2026-04-25T10:32:31.917Z</time></trkpt><trkpt lat="43.4138483" lon="12.8122467"><ele>331.0</ele><time>2026-04-25T10:32:32.917Z</time></trkpt><trkpt lat="43.4139983" lon="12.812175"><ele>331.0</ele><time>2026-04-25T10:32:33.91Z</time></trkpt><trkpt lat="43.4141633" lon="12.8121167"><ele>331.0</ele><time>2026-04-25T10:32:34.929Z</time></trkpt><trkpt lat="43.4143267" lon="12.812055"><ele>331.0</ele><time>2026-04-25T10:32:35.91Z</time></trkpt><trkpt lat="43.414485" lon="12.8119867"><ele>331.0</ele><time>2026-04-25T10:32:36.919Z</time></trkpt><trkpt lat="43.4146383" lon="12.811925"><ele>331.0</ele><time>2026-04-25T10:32:37.915Z</time></trkpt><trkpt lat="43.4148033" lon="12.8118617"><ele>331.0</ele><time>2026-04-25T10:32:38.918Z</time></trkpt><trkpt lat="43.4149533" lon="12.8117917"><ele>335.3333333333333</ele><time>2026-04-25T10:32:39.913Z</time></trkpt><trkpt lat="43.4151017" lon="12.811725"><ele>339.6666666666667</ele><time>2026-04-25T10:32:40.923Z</time></trkpt><trkpt lat="43.415235" lon="12.811645"><ele>344.0</ele><time>2026-04-25T10:32:41.918Z</time></trkpt><trkpt lat="43.4153517" lon="12.8115183"><ele>344.0</ele><time>2026-04-25T10:32:42.916Z</time></trkpt><trkpt lat="43.4154683" lon="12.8113833"><ele>344.0</ele><time>2026-04-25T10:32:43.911Z</time></trkpt><trkpt lat="43.4155867" lon="12.81125"><ele>344.0</ele><time>2026-04-25T10:32:44.917Z</time></trkpt><trkpt lat="43.4157133" lon="12.8111283"><ele>345.0</ele><time>2026-04-25T10:32:45.913Z</time></trkpt><trkpt lat="43.4158567" lon="12.8110117"><ele>346.0</ele><time>2026-04-25T10:32:46.923Z</time></trkpt><trkpt lat="43.4160017" lon="12.8109"><ele>347.0</ele><time>2026-04-25T10:32:47.909Z</time></trkpt><trkpt lat="43.4161433" lon="12.810785"><ele>347.0</ele><time>2026-04-25T10:32:48.917Z</time></trkpt><trkpt lat="43.4162817" lon="12.81067"><ele>347.0</ele><time>2026-04-25T10:32:49.914Z</time></trkpt><trkpt lat="43.4164167" lon="12.81055"><ele>347.0</ele><time>2026-04-25T10:32:50.92Z</time></trkpt><trkpt lat="43.4165467" lon="12.810415"><ele>348.33333333333337</ele><time>2026-04-25T10:32:51.919Z</time></trkpt><trkpt lat="43.416665" lon="12.8102617"><ele>349.6666666666667</ele><time>2026-04-25T10:32:52.981Z</time></trkpt><trkpt lat="43.416775" lon="12.8100983"><ele>351.0</ele><time>2026-04-25T10:32:53.913Z</time></trkpt><trkpt lat="43.4168817" lon="12.8099283"><ele>351.0</ele><time>2026-04-25T10:32:54.914Z</time></trkpt><trkpt lat="43.416995" lon="12.809755"><ele>351.0</ele><time>2026-04-25T10:32:55.917Z</time></trkpt><trkpt lat="43.41711" lon="12.8095783"><ele>351.0</ele><time>2026-04-25T10:32:56.924Z</time></trkpt><trkpt lat="43.4172333" lon="12.8094117"><ele>349.3333333333333</ele><time>2026-04-25T10:32:57.917Z</time></trkpt><trkpt lat="43.41736" lon="12.8092467"><ele>347.66666666666663</ele><time>2026-04-25T10:32:58.967Z</time></trkpt><trkpt lat="43.41749" lon="12.8090867"><ele>346.0</ele><time>2026-04-25T10:32:59.914Z</time></trkpt><trkpt lat="43.4176217" lon="12.808935"><ele>346.0</ele><time>2026-04-25T10:33:00.917Z</time></trkpt><trkpt lat="43.41776" lon="12.8087917"><ele>346.0</ele><time>2026-04-25T10:33:01.917Z</time></trkpt><trkpt lat="43.4178967" lon="12.8086467"><ele>346.0</ele><time>2026-04-25T10:33:02.918Z</time></trkpt><trkpt lat="43.418035" lon="12.8085"><ele>347.0</ele><time>2026-04-25T10:33:03.921Z</time></trkpt><trkpt lat="43.41817" lon="12.8083567"><ele>348.0</ele><time>2026-04-25T10:33:04.923Z</time></trkpt><trkpt lat="43.4183" lon="12.8082117"><ele>349.0</ele><time>2026-04-25T10:33:05.918Z</time></trkpt><trkpt lat="43.41842" lon="12.8080717"><ele>349.0</ele><time>2026-04-25T10:33:06.919Z</time></trkpt><trkpt lat="43.4185317" lon="12.8079217"><ele>349.0</ele><time>2026-04-25T10:33:07.918Z</time></trkpt><trkpt lat="43.4186283" lon="12.8077533"><ele>349.0</ele><time>2026-04-25T10:33:08.921Z</time></trkpt><trkpt lat="43.4187183" lon="12.807575"><ele>347.66666666666663</ele><time>2026-04-25T10:33:09.918Z</time></trkpt><trkpt lat="43.4187967" lon="12.8073833"><ele>346.3333333333333</ele><time>2026-04-25T10:33:10.919Z</time></trkpt><trkpt lat="43.418875" lon="12.8071917"><ele>345.0</ele><time>2026-04-25T10:33:11.92Z</time></trkpt><trkpt lat="43.4189583" lon="12.80701"><ele>347.3333333333333</ele><time>2026-04-25T10:33:12.914Z</time></trkpt><trkpt lat="43.4190467" lon="12.8068217"><ele>349.66666666666663</ele><time>2026-04-25T10:33:13.915Z</time></trkpt><trkpt lat="43.4191283" lon="12.8066317"><ele>352.0</ele><time>2026-04-25T10:33:14.914Z</time></trkpt><trkpt lat="43.4192217" lon="12.806445"><ele>352.0</ele><time>2026-04-25T10:33:15.917Z</time></trkpt><trkpt lat="43.4193333" lon="12.8062833"><ele>352.0</ele><time>2026-04-25T10:33:16.924Z</time></trkpt><trkpt lat="43.4194517" lon="12.8061333"><ele>352.0</ele><time>2026-04-25T10:33:17.925Z</time></trkpt><trkpt lat="43.4195567" lon="12.80598"><ele>350.75</ele><time>2026-04-25T10:33:18.909Z</time></trkpt><trkpt lat="43.4196533" lon="12.80585"><ele>349.5</ele><time>2026-04-25T10:33:19.919Z</time></trkpt><trkpt lat="43.4197333" lon="12.8057117"><ele>348.25</ele><time>2026-04-25T10:33:20.912Z</time></trkpt><trkpt lat="43.419775" lon="12.8055633"><ele>347.0</ele><time>2026-04-25T10:33:21.92Z</time></trkpt><trkpt lat="43.4197683" lon="12.8054117"><ele>347.0</ele><time>2026-04-25T10:33:22.978Z</time></trkpt><trkpt lat="43.4197317" lon="12.8052483"><ele>347.0</ele><time>2026-04-25T10:33:23.909Z</time></trkpt><trkpt lat="43.4196517" lon="12.8050717"><ele>347.0</ele><time>2026-04-25T10:33:24.917Z</time></trkpt><trkpt lat="43.4195567" lon="12.8048883"><ele>347.0</ele><time>2026-04-25T10:33:25.92Z</time></trkpt><trkpt lat="43.4194583" lon="12.804685"><ele>354.0</ele><time>2026-04-25T10:33:26.919Z</time></trkpt><trkpt lat="43.41938" lon="12.80447"><ele>361.0</ele><time>2026-04-25T10:33:27.911Z</time></trkpt><trkpt lat="43.4192933" lon="12.8042533"><ele>368.0</ele><time>2026-04-25T10:33:28.965Z</time></trkpt><trkpt lat="43.4192283" lon="12.8040417"><ele>368.0</ele><time>2026-04-25T10:33:29.917Z</time></trkpt><trkpt lat="43.4191817" lon="12.8038333"><ele>368.0</ele><time>2026-04-25T10:33:30.916Z</time></trkpt><trkpt lat="43.4191567" lon="12.8036083"><ele>368.0</ele><time>2026-04-25T10:33:31.912Z</time></trkpt><trkpt lat="43.4191533" lon="12.803375"><ele>367.6666666666667</ele><time>2026-04-25T10:33:32.914Z</time></trkpt><trkpt lat="43.4191667" lon="12.8031483"><ele>367.3333333333333</ele><time>2026-04-25T10:33:33.916Z</time></trkpt><trkpt lat="43.4191767" lon="12.8029333"><ele>367.0</ele><time>2026-04-25T10:33:34.923Z</time></trkpt><trkpt lat="43.41918" lon="12.8027183"><ele>370.0</ele><time>2026-04-25T10:33:35.913Z</time></trkpt><trkpt lat="43.41919" lon="12.8025133"><ele>373.0</ele><time>2026-04-25T10:33:36.913Z</time></trkpt><trkpt lat="43.4191983" lon="12.8023333"><ele>376.0</ele><time>2026-04-25T10:33:37.917Z</time></trkpt><trkpt lat="43.4192317" lon="12.8021833"><ele>379.0</ele><time>2026-04-25T10:33:38.918Z</time></trkpt><trkpt lat="43.4193067" lon="12.8020667"><ele>379.0</ele><time>2026-04-25T10:33:39.92Z</time></trkpt><trkpt lat="43.4194067" lon="12.80193"><ele>379.0</ele><time>2026-04-25T10:33:40.929Z</time></trkpt><trkpt lat="43.4195133" lon="12.8018033"><ele>379.0</ele><time>2026-04-25T10:33:41.916Z</time></trkpt><trkpt lat="43.4196433" lon="12.8016933"><ele>379.0</ele><time>2026-04-25T10:33:42.92Z</time></trkpt><trkpt lat="43.4197483" lon="12.8015783"><ele>375.0</ele><time>2026-04-25T10:33:43.913Z</time></trkpt><trkpt lat="43.4198667" lon="12.8014783"><ele>371.0</ele><time>2026-04-25T10:33:44.92Z</time></trkpt><trkpt lat="43.4199983" lon="12.8013767"><ele>367.0</ele><time>2026-04-25T10:33:45.915Z</time></trkpt><trkpt lat="43.420185" lon="12.8012483"><ele>367.0</ele><time>2026-04-25T10:33:46.923Z</time></trkpt><trkpt lat="43.420335" lon="12.80113"><ele>367.0</ele><time>2026-04-25T10:33:47.927Z</time></trkpt><trkpt lat="43.4204767" lon="12.8009983"><ele>367.0</ele><time>2026-04-25T10:33:48.926Z</time></trkpt><trkpt lat="43.4206167" lon="12.8008583"><ele>365.66666666666663</ele><time>2026-04-25T10:33:49.916Z</time></trkpt><trkpt lat="43.4207433" lon="12.80072"><ele>364.3333333333333</ele><time>2026-04-25T10:33:50.92Z</time></trkpt><trkpt lat="43.4208533" lon="12.80058"><ele>363.0</ele><time>2026-04-25T10:33:51.922Z</time></trkpt><trkpt lat="43.4209417" lon="12.800415"><ele>363.0</ele><time>2026-04-25T10:33:52.985Z</time></trkpt><trkpt lat="43.42101" lon="12.800225"><ele>363.0</ele><time>2026-04-25T10:33:53.915Z</time></trkpt><trkpt lat="43.4210667" lon="12.80002"><ele>363.0</ele><time>2026-04-25T10:33:54.922Z</time></trkpt><trkpt lat="43.421105" lon="12.7998017"><ele>370.33333333333337</ele><time>2026-04-25T10:33:55.921Z</time></trkpt><trkpt lat="43.4211283" lon="12.7995583"><ele>377.6666666666667</ele><time>2026-04-25T10:33:56.925Z</time></trkpt><trkpt lat="43.421155" lon="12.7993167"><ele>385.0</ele><time>2026-04-25T10:33:57.919Z</time></trkpt><trkpt lat="43.421175" lon="12.7990733"><ele>386.0</ele><time>2026-04-25T10:33:58.97Z</time></trkpt><trkpt lat="43.4211867" lon="12.79884"><ele>387.0</ele><time>2026-04-25T10:33:59.918Z</time></trkpt><trkpt lat="43.4212167" lon="12.7986133"><ele>388.0</ele><time>2026-04-25T10:34:00.917Z</time></trkpt><trkpt lat="43.421245" lon="12.7983917"><ele>391.0</ele><time>2026-04-25T10:34:01.915Z</time></trkpt><trkpt lat="43.4212683" lon="12.79817"><ele>394.0</ele><time>2026-04-25T10:34:02.914Z</time></trkpt><trkpt lat="43.4212933" lon="12.797955"><ele>397.0</ele><time>2026-04-25T10:34:03.916Z</time></trkpt><trkpt lat="43.4213233" lon="12.797745"><ele>381.6666666666667</ele><time>2026-04-25T10:34:04.919Z</time></trkpt><trkpt lat="43.4213667" lon="12.7975317"><ele>366.33333333333337</ele><time>2026-04-25T10:34:05.919Z</time></trkpt><trkpt lat="43.4214017" lon="12.7973133"><ele>351.0</ele><time>2026-04-25T10:34:06.914Z</time></trkpt><trkpt lat="43.42142" lon="12.7971017"><ele>351.0</ele><time>2026-04-25T10:34:07.919Z</time></trkpt><trkpt lat="43.421415" lon="12.7969067"><ele>351.0</ele><time>2026-04-25T10:34:08.914Z</time></trkpt><trkpt lat="43.4213983" lon="12.7967083"><ele>351.0</ele><time>2026-04-25T10:34:09.905Z</time></trkpt><trkpt lat="43.4213733" lon="12.796535"><ele>351.0</ele><time>2026-04-25T10:34:10.925Z</time></trkpt><trkpt lat="43.4213967" lon="12.7963783"><ele>350.75</ele><time>2026-04-25T10:34:11.917Z</time></trkpt><trkpt lat="43.4214267" lon="12.7962117"><ele>350.5</ele><time>2026-04-25T10:34:12.918Z</time></trkpt><trkpt lat="43.4214733" lon="12.7960333"><ele>350.25</ele><time>2026-04-25T10:34:13.908Z</time></trkpt><trkpt lat="43.4215333" lon="12.7958533"><ele>350.0</ele><time>2026-04-25T10:34:14.92Z</time></trkpt><trkpt lat="43.4215917" lon="12.7956667"><ele>351.5</ele><time>2026-04-25T10:34:15.914Z</time></trkpt><trkpt lat="43.4216417" lon="12.7954767"><ele>353.0</ele><time>2026-04-25T10:34:16.923Z</time></trkpt><trkpt lat="43.4216783" lon="12.7952883"><ele>354.5</ele><time>2026-04-25T10:34:17.919Z</time></trkpt><trkpt lat="43.4216983" lon="12.7950967"><ele>356.0</ele><time>2026-04-25T10:34:18.914Z</time></trkpt><trkpt lat="43.4216983" lon="12.7948933"><ele>356.5</ele><time>2026-04-25T10:34:19.908Z</time></trkpt><trkpt lat="43.421695" lon="12.794695"><ele>357.0</ele><time>2026-04-25T10:34:20.921Z</time></trkpt><trkpt lat="43.4216767" lon="12.7945017"><ele>357.5</ele><time>2026-04-25T10:34:21.916Z</time></trkpt><trkpt lat="43.421575" lon="12.7943367"><ele>358.0</ele><time>2026-04-25T10:34:22.979Z</time></trkpt><trkpt lat="43.4214717" lon="12.794165"><ele>358.0</ele><time>2026-04-25T10:34:23.911Z</time></trkpt><trkpt lat="43.4213633" lon="12.7940233"><ele>358.0</ele><time>2026-04-25T10:34:24.919Z</time></trkpt><trkpt lat="43.42124" lon="12.7938867"><ele>358.0</ele><time>2026-04-25T10:34:25.915Z</time></trkpt><trkpt lat="43.4211067" lon="12.7937583"><ele>366.0</ele><time>2026-04-25T10:34:26.919Z</time></trkpt><trkpt lat="43.4209617" lon="12.7936783"><ele>374.0</ele><time>2026-04-25T10:34:27.914Z</time></trkpt><trkpt lat="43.4208133" lon="12.7936033"><ele>382.0</ele><time>2026-04-25T10:34:28.979Z</time></trkpt><trkpt lat="43.42066" lon="12.7935733"><ele>382.0</ele><time>2026-04-25T10:34:29.916Z</time></trkpt><trkpt lat="43.4205033" lon="12.79358"><ele>382.0</ele><time>2026-04-25T10:34:30.916Z</time></trkpt><trkpt lat="43.4203333" lon="12.7936167"><ele>382.0</ele><time>2026-04-25T10:34:31.92Z</time></trkpt><trkpt lat="43.4201517" lon="12.793715"><ele>381.3333333333333</ele><time>2026-04-25T10:34:32.917Z</time></trkpt><trkpt lat="43.4199867" lon="12.793775"><ele>380.6666666666667</ele><time>2026-04-25T10:34:33.919Z</time></trkpt><trkpt lat="43.4198183" lon="12.7938467"><ele>380.0</ele><time>2026-04-25T10:34:34.923Z</time></trkpt><trkpt lat="43.4196533" lon="12.793905"><ele>377.33333333333337</ele><time>2026-04-25T10:34:35.913Z</time></trkpt><trkpt lat="43.41949" lon="12.793965"><ele>374.6666666666667</ele><time>2026-04-25T10:34:36.917Z</time></trkpt><trkpt lat="43.4193267" lon="12.7940233"><ele>372.0</ele><time>2026-04-25T10:34:37.916Z</time></trkpt><trkpt lat="43.4191667" lon="12.794095"><ele>372.0</ele><time>2026-04-25T10:34:38.919Z</time></trkpt><trkpt lat="43.4190167" lon="12.794155"><ele>372.0</ele><time>2026-04-25T10:34:39.913Z</time></trkpt><trkpt lat="43.418875" lon="12.79421"><ele>372.0</ele><time>2026-04-25T10:34:40.92Z</time></trkpt><trkpt lat="43.4187383" lon="12.79426"><ele>372.0</ele><time>2026-04-25T10:34:41.917Z</time></trkpt><trkpt lat="43.418595" lon="12.79433"><ele>379.5</ele><time>2026-04-25T10:34:42.925Z</time></trkpt><trkpt lat="43.4184517" lon="12.7943783"><ele>387.0</ele><time>2026-04-25T10:34:43.915Z</time></trkpt><trkpt lat="43.418315" lon="12.79441"><ele>394.5</ele><time>2026-04-25T10:34:44.917Z</time></trkpt><trkpt lat="43.4181817" lon="12.7944183"><ele>402.0</ele><time>2026-04-25T10:34:45.917Z</time></trkpt><trkpt lat="43.41805" lon="12.7943933"><ele>398.25</ele><time>2026-04-25T10:34:46.922Z</time></trkpt><trkpt lat="43.4179183" lon="12.79436"><ele>394.5</ele><time>2026-04-25T10:34:47.913Z</time></trkpt><trkpt lat="43.4177933" lon="12.79433"><ele>390.75</ele><time>2026-04-25T10:34:48.917Z</time></trkpt><trkpt lat="43.4176567" lon="12.7943333"><ele>387.0</ele><time>2026-04-25T10:34:49.913Z</time></trkpt><trkpt lat="43.417515" lon="12.794435"><ele>387.0</ele><time>2026-04-25T10:34:50.914Z</time></trkpt><trkpt lat="43.4173733" lon="12.7945383"><ele>387.0</ele><time>2026-04-25T10:34:51.912Z</time></trkpt><trkpt lat="43.4172467" lon="12.794665"><ele>387.0</ele><time>2026-04-25T10:34:52.99Z</time></trkpt><trkpt lat="43.4171217" lon="12.7947983"><ele>382.0</ele><time>2026-04-25T10:34:53.907Z</time></trkpt><trkpt lat="43.4169983" lon="12.7949283"><ele>377.0</ele><time>2026-04-25T10:34:54.913Z</time></trkpt><trkpt lat="43.4168767" lon="12.7950317"><ele>372.0</ele><time>2026-04-25T10:34:55.909Z</time></trkpt><trkpt lat="43.4167467" lon="12.7950967"><ele>367.0</ele><time>2026-04-25T10:34:56.917Z</time></trkpt><trkpt lat="43.41662" lon="12.795125"><ele>367.0</ele><time>2026-04-25T10:34:57.909Z</time></trkpt><trkpt lat="43.41651" lon="12.7951283"><ele>367.0</ele><time>2026-04-25T10:34:58.963Z</time></trkpt><trkpt lat="43.4164183" lon="12.7951283"><ele>367.0</ele><time>2026-04-25T10:34:59.911Z</time></trkpt><trkpt lat="43.4163433" lon="12.79512"><ele>367.0</ele><time>2026-04-25T10:35:00.917Z</time></trkpt><trkpt lat="43.4162667" lon="12.7951117"><ele>367.0</ele><time>2026-04-25T10:35:01.914Z</time></trkpt><trkpt lat="43.416185" lon="12.795075"><ele>367.0</ele><time>2026-04-25T10:35:02.914Z</time></trkpt><trkpt lat="43.416095" lon="12.7950183"><ele>369.40000000000003</ele><time>2026-04-25T10:35:03.924Z</time></trkpt><trkpt lat="43.415995" lon="12.7949467"><ele>371.8</ele><time>2026-04-25T10:35:04.92Z</time></trkpt><trkpt lat="43.4158967" lon="12.794855"><ele>374.2</ele><time>2026-04-25T10:35:05.914Z</time></trkpt><trkpt lat="43.4158067" lon="12.7947717"><ele>376.6</ele><time>2026-04-25T10:35:06.916Z</time></trkpt><trkpt lat="43.415715" lon="12.794705"><ele>379.0</ele><time>2026-04-25T10:35:07.915Z</time></trkpt><trkpt lat="43.4156233" lon="12.7946583"><ele>379.0</ele><time>2026-04-25T10:35:08.917Z</time></trkpt><trkpt lat="43.4155183" lon="12.7946483"><ele>379.0</ele><time>2026-04-25T10:35:09.917Z</time></trkpt><trkpt lat="43.4154133" lon="12.794655"><ele>379.0</ele><time>2026-04-25T10:35:10.922Z</time></trkpt><trkpt lat="43.4152933" lon="12.79466"><ele>379.0</ele><time>2026-04-25T10:35:11.919Z</time></trkpt><trkpt lat="43.415165" lon="12.7946717"><ele>384.25</ele><time>2026-04-25T10:35:12.91Z</time></trkpt><trkpt lat="43.4150267" lon="12.7946867"><ele>389.5</ele><time>2026-04-25T10:35:13.913Z</time></trkpt><trkpt lat="43.41489" lon="12.79469"><ele>394.75</ele><time>2026-04-25T10:35:14.914Z</time></trkpt><trkpt lat="43.4147667" lon="12.794665"><ele>400.0</ele><time>2026-04-25T10:35:15.916Z</time></trkpt><trkpt lat="43.41466" lon="12.7946333"><ele>402.33333333333337</ele><time>2026-04-25T10:35:16.921Z</time></trkpt><trkpt lat="43.4145767" lon="12.7946"><ele>404.6666666666667</ele><time>2026-04-25T10:35:17.915Z</time></trkpt><trkpt lat="43.4145083" lon="12.794575"><ele>407.0</ele><time>2026-04-25T10:35:18.911Z</time></trkpt><trkpt lat="43.41444" lon="12.7946433"><ele>409.33333333333337</ele><time>2026-04-25T10:35:20.912Z</time></trkpt><trkpt lat="43.4144933" lon="12.7947467"><ele>411.6666666666667</ele><time>2026-04-25T10:35:22.961Z</time></trkpt><trkpt lat="43.4145483" lon="12.7947917"><ele>414.0</ele><time>2026-04-25T10:35:23.913Z</time></trkpt><trkpt lat="43.4146217" lon="12.7948367"><ele>415.75</ele><time>2026-04-25T10:35:24.912Z</time></trkpt><trkpt lat="43.4147183" lon="12.79489"><ele>417.5</ele><time>2026-04-25T10:35:25.914Z</time></trkpt><trkpt lat="43.4148583" lon="12.795"><ele>419.25</ele><time>2026-04-25T10:35:26.906Z</time></trkpt><trkpt lat="43.4149867" lon="12.7950917"><ele>421.0</ele><time>2026-04-25T10:35:27.917Z</time></trkpt><trkpt lat="43.4151017" lon="12.7951733"><ele>421.0</ele><time>2026-04-25T10:35:28.969Z</time></trkpt><trkpt lat="43.4152183" lon="12.79525"><ele>421.0</ele><time>2026-04-25T10:35:29.909Z</time></trkpt><trkpt lat="43.4153233" lon="12.795315"><ele>421.0</ele><time>2026-04-25T10:35:30.91Z</time></trkpt><trkpt lat="43.41542" lon="12.7953767"><ele>421.0</ele><time>2026-04-25T10:35:31.91Z</time></trkpt><trkpt lat="43.41548" lon="12.795405"><ele>421.0</ele><time>2026-04-25T10:35:32.92Z</time></trkpt><trkpt lat="43.4155183" lon="12.7954883"><ele>421.0</ele><time>2026-04-25T10:35:34.924Z</time></trkpt><trkpt lat="43.4154167" lon="12.7955217"><ele>421.0</ele><time>2026-04-25T10:35:36.916Z</time></trkpt><trkpt lat="43.4153233" lon="12.7954683"><ele>421.0</ele><time>2026-04-25T10:35:37.917Z</time></trkpt><trkpt lat="43.4152167" lon="12.795415"><ele>421.0</ele><time>2026-04-25T10:35:38.913Z</time></trkpt><trkpt lat="43.41511" lon="12.795365"><ele>421.0</ele><time>2026-04-25T10:35:39.913Z</time></trkpt><trkpt lat="43.4149883" lon="12.795305"><ele>421.0</ele><time>2026-04-25T10:35:40.927Z</time></trkpt><trkpt lat="43.414855" lon="12.7952417"><ele>421.0</ele><time>2026-04-25T10:35:41.907Z</time></trkpt><trkpt lat="43.4147233" lon="12.79516"><ele>421.0</ele><time>2026-04-25T10:35:42.918Z</time></trkpt><trkpt lat="43.4145917" lon="12.79508"><ele>421.0</ele><time>2026-04-25T10:35:43.92Z</time></trkpt><trkpt lat="43.4144617" lon="12.7949967"><ele>419.25</ele><time>2026-04-25T10:35:44.914Z</time></trkpt><trkpt lat="43.41433" lon="12.79493"><ele>417.5</ele><time>2026-04-25T10:35:45.914Z</time></trkpt><trkpt lat="43.4142" lon="12.7948833"><ele>415.75</ele><time>2026-04-25T10:35:46.928Z</time></trkpt><trkpt lat="43.4140667" lon="12.7948683"><ele>414.0</ele><time>2026-04-25T10:35:47.912Z</time></trkpt><trkpt lat="43.4139267" lon="12.7948717"><ele>418.75</ele><time>2026-04-25T10:35:48.915Z</time></trkpt><trkpt lat="43.41378" lon="12.79488"><ele>423.5</ele><time>2026-04-25T10:35:49.909Z</time></trkpt><trkpt lat="43.41364" lon="12.7948883"><ele>428.25</ele><time>2026-04-25T10:35:50.917Z</time></trkpt><trkpt lat="43.4135" lon="12.7948867"><ele>433.0</ele><time>2026-04-25T10:35:51.922Z</time></trkpt><trkpt lat="43.413355" lon="12.7948717"><ele>433.0</ele><time>2026-04-25T10:35:52.964Z</time></trkpt><trkpt lat="43.4132067" lon="12.7948583"><ele>433.0</ele><time>2026-04-25T10:35:53.916Z</time></trkpt><trkpt lat="43.4130583" lon="12.794835"><ele>433.0</ele><time>2026-04-25T10:35:54.916Z</time></trkpt><trkpt lat="43.4129083" lon="12.7948083"><ele>433.0</ele><time>2026-04-25T10:35:55.914Z</time></trkpt><trkpt lat="43.4127667" lon="12.794775"><ele>437.5</ele><time>2026-04-25T10:35:56.914Z</time></trkpt><trkpt lat="43.4126367" lon="12.7947317"><ele>442.0</ele><time>2026-04-25T10:35:57.926Z</time></trkpt><trkpt lat="43.41252" lon="12.7946667"><ele>446.5</ele><time>2026-04-25T10:35:58.964Z</time></trkpt><trkpt lat="43.41241" lon="12.7945983"><ele>451.0</ele><time>2026-04-25T10:35:59.915Z</time></trkpt><trkpt lat="43.41231" lon="12.794515"><ele>451.0</ele><time>2026-04-25T10:36:00.917Z</time></trkpt><trkpt lat="43.4122033" lon="12.7944133"><ele>451.0</ele><time>2026-04-25T10:36:01.916Z</time></trkpt><trkpt lat="43.4120883" lon="12.7943"><ele>451.0</ele><time>2026-04-25T10:36:02.914Z</time></trkpt><trkpt lat="43.4119733" lon="12.794185"><ele>451.0</ele><time>2026-04-25T10:36:03.919Z</time></trkpt><trkpt lat="43.4118517" lon="12.79407"><ele>448.6666666666667</ele><time>2026-04-25T10:36:04.932Z</time></trkpt><trkpt lat="43.4117283" lon="12.793955"><ele>446.33333333333337</ele><time>2026-04-25T10:36:05.908Z</time></trkpt><trkpt lat="43.4115983" lon="12.7938433"><ele>444.0</ele><time>2026-04-25T10:36:06.914Z</time></trkpt><trkpt lat="43.4114683" lon="12.7937433"><ele>444.0</ele><time>2026-04-25T10:36:07.91Z</time></trkpt><trkpt lat="43.411335" lon="12.793655"><ele>444.0</ele><time>2026-04-25T10:36:08.916Z</time></trkpt><trkpt lat="43.411205" lon="12.7935733"><ele>444.0</ele><time>2026-04-25T10:36:09.913Z</time></trkpt><trkpt lat="43.41107" lon="12.7935067"><ele>444.0</ele><time>2026-04-25T10:36:10.925Z</time></trkpt><trkpt lat="43.4109283" lon="12.7934467"><ele>444.75</ele><time>2026-04-25T10:36:11.916Z</time></trkpt><trkpt lat="43.410805" lon="12.7933667"><ele>445.5</ele><time>2026-04-25T10:36:12.917Z</time></trkpt><trkpt lat="43.4106733" lon="12.793285"><ele>446.25</ele><time>2026-04-25T10:36:13.911Z</time></trkpt><trkpt lat="43.410535" lon="12.793215"><ele>447.0</ele><time>2026-04-25T10:36:14.911Z</time></trkpt><trkpt lat="43.410395" lon="12.7931567"><ele>451.25</ele><time>2026-04-25T10:36:15.912Z</time></trkpt><trkpt lat="43.4102533" lon="12.7931067"><ele>455.5</ele><time>2026-04-25T10:36:16.919Z</time></trkpt><trkpt lat="43.41011" lon="12.7930583"><ele>459.75</ele><time>2026-04-25T10:36:17.911Z</time></trkpt><trkpt lat="43.4099733" lon="12.7929967"><ele>464.0</ele><time>2026-04-25T10:36:18.907Z</time></trkpt><trkpt lat="43.4098417" lon="12.7929283"><ele>464.0</ele><time>2026-04-25T10:36:19.907Z</time></trkpt><trkpt lat="43.4097083" lon="12.7928583"><ele>464.0</ele><time>2026-04-25T10:36:20.913Z</time></trkpt><trkpt lat="43.409575" lon="12.7927933"><ele>464.0</ele><time>2026-04-25T10:36:21.917Z</time></trkpt><trkpt lat="43.4094633" lon="12.7927133"><ele>464.0</ele><time>2026-04-25T10:36:22.967Z</time></trkpt><trkpt lat="43.40934" lon="12.7926583"><ele>463.5</ele><time>2026-04-25T10:36:23.908Z</time></trkpt><trkpt lat="43.40925" lon="12.79256"><ele>463.0</ele><time>2026-04-25T10:36:24.915Z</time></trkpt><trkpt lat="43.409155" lon="12.7924667"><ele>462.5</ele><time>2026-04-25T10:36:25.908Z</time></trkpt><trkpt lat="43.40906" lon="12.7923733"><ele>462.0</ele><time>2026-04-25T10:36:26.911Z</time></trkpt><trkpt lat="43.4089617" lon="12.79226"><ele>462.0</ele><time>2026-04-25T10:36:27.91Z</time></trkpt><trkpt lat="43.4088717" lon="12.7921317"><ele>462.0</ele><time>2026-04-25T10:36:28.959Z</time></trkpt><trkpt lat="43.4088" lon="12.7919967"><ele>462.0</ele><time>2026-04-25T10:36:29.917Z</time></trkpt><trkpt lat="43.408725" lon="12.791875"><ele>462.0</ele><time>2026-04-25T10:36:30.91Z</time></trkpt><trkpt lat="43.4086433" lon="12.791765"><ele>465.8</ele><time>2026-04-25T10:36:31.912Z</time></trkpt><trkpt lat="43.408555" lon="12.7916783"><ele>469.6</ele><time>2026-04-25T10:36:32.915Z</time></trkpt><trkpt lat="43.4084633" lon="12.7916017"><ele>473.40000000000003</ele><time>2026-04-25T10:36:33.912Z</time></trkpt><trkpt lat="43.408375" lon="12.7915367"><ele>477.20000000000005</ele><time>2026-04-25T10:36:34.927Z</time></trkpt><trkpt lat="43.4082933" lon="12.7914933"><ele>481.0</ele><time>2026-04-25T10:36:35.92Z</time></trkpt><trkpt lat="43.4083983" lon="12.7914617"><ele>481.0</ele><time>2026-04-25T10:36:39.911Z</time></trkpt><trkpt lat="43.4084883" lon="12.7914683"><ele>481.0</ele><time>2026-04-25T10:36:40.929Z</time></trkpt><trkpt lat="43.4086167" lon="12.7915167"><ele>481.0</ele><time>2026-04-25T10:36:41.91Z</time></trkpt><trkpt lat="43.4087333" lon="12.7915733"><ele>481.0</ele><time>2026-04-25T10:36:42.906Z</time></trkpt><trkpt lat="43.4088533" lon="12.791645"><ele>479.33333333333337</ele><time>2026-04-25T10:36:43.904Z</time></trkpt><trkpt lat="43.4089917" lon="12.7917117"><ele>477.66666666666663</ele><time>2026-04-25T10:36:44.915Z</time></trkpt><trkpt lat="43.4091383" lon="12.791775"><ele>476.0</ele><time>2026-04-25T10:36:45.92Z</time></trkpt><trkpt lat="43.40928" lon="12.79184"><ele>472.5</ele><time>2026-04-25T10:36:46.92Z</time></trkpt><trkpt lat="43.40941" lon="12.7918967"><ele>469.0</ele><time>2026-04-25T10:36:47.92Z</time></trkpt><trkpt lat="43.40953" lon="12.79194"><ele>465.5</ele><time>2026-04-25T10:36:48.912Z</time></trkpt><trkpt lat="43.409645" lon="12.7919667"><ele>462.0</ele><time>2026-04-25T10:36:49.917Z</time></trkpt><trkpt lat="43.4097433" lon="12.7919867"><ele>459.8</ele><time>2026-04-25T10:36:50.905Z</time></trkpt><trkpt lat="43.40984" lon="12.791975"><ele>457.6</ele><time>2026-04-25T10:36:51.915Z</time></trkpt><trkpt lat="43.4099433" lon="12.7919333"><ele>455.40000000000003</ele><time>2026-04-25T10:36:52.95Z</time></trkpt><trkpt lat="43.410055" lon="12.7918867"><ele>453.20000000000005</ele><time>2026-04-25T10:36:53.912Z</time></trkpt><trkpt lat="43.4101717" lon="12.791845"><ele>451.0</ele><time>2026-04-25T10:36:54.92Z</time></trkpt><trkpt lat="43.4102917" lon="12.7917917"><ele>459.0</ele><time>2026-04-25T10:36:55.908Z</time></trkpt><trkpt lat="43.4104317" lon="12.7917467"><ele>467.0</ele><time>2026-04-25T10:36:56.916Z</time></trkpt><trkpt lat="43.410545" lon="12.79171"><ele>475.0</ele><time>2026-04-25T10:36:57.909Z</time></trkpt><trkpt lat="43.410645" lon="12.7916683"><ele>483.0</ele><time>2026-04-25T10:36:58.954Z</time></trkpt><trkpt lat="43.410735" lon="12.7916317"><ele>483.0</ele><time>2026-04-25T10:36:59.915Z</time></trkpt><trkpt lat="43.4108217" lon="12.79159"><ele>482.99999999999994</ele><time>2026-04-25T10:37:00.913Z</time></trkpt><trkpt lat="43.410915" lon="12.7915483"><ele>482.99999999999994</ele><time>2026-04-25T10:37:01.908Z</time></trkpt><trkpt lat="43.4110083" lon="12.791505"><ele>483.0</ele><time>2026-04-25T10:37:02.921Z</time></trkpt><trkpt lat="43.4111033" lon="12.791475"><ele>483.0</ele><time>2026-04-25T10:37:03.912Z</time></trkpt><trkpt lat="43.411205" lon="12.7914483"><ele>483.0</ele><time>2026-04-25T10:37:04.931Z</time></trkpt><trkpt lat="43.4113" lon="12.79144"><ele>483.0</ele><time>2026-04-25T10:37:05.907Z</time></trkpt><trkpt lat="43.4113867" lon="12.7914333"><ele>483.0</ele><time>2026-04-25T10:37:06.913Z</time></trkpt><trkpt lat="43.4114683" lon="12.7914317"><ele>483.0</ele><time>2026-04-25T10:37:07.91Z</time></trkpt><trkpt lat="43.411555" lon="12.7914333"><ele>483.0</ele><time>2026-04-25T10:37:08.914Z</time></trkpt><trkpt lat="43.4116333" lon="12.7914167"><ele>483.0</ele><time>2026-04-25T10:37:09.908Z</time></trkpt><trkpt lat="43.4117017" lon="12.791395"><ele>483.3333333333333</ele><time>2026-04-25T10:37:10.921Z</time></trkpt><trkpt lat="43.4117767" lon="12.7913667"><ele>483.66666666666663</ele><time>2026-04-25T10:37:11.916Z</time></trkpt><trkpt lat="43.41186" lon="12.7913333"><ele>484.0</ele><time>2026-04-25T10:37:12.91Z</time></trkpt><trkpt lat="43.4119417" lon="12.7912967"><ele>484.3333333333333</ele><time>2026-04-25T10:37:13.909Z</time></trkpt><trkpt lat="43.4120083" lon="12.7912533"><ele>484.66666666666663</ele><time>2026-04-25T10:37:14.914Z</time></trkpt><trkpt lat="43.4120733" lon="12.791225"><ele>485.0</ele><time>2026-04-25T10:37:15.914Z</time></trkpt><trkpt lat="43.4121433" lon="12.7912083"><ele>484.66666666666663</ele><time>2026-04-25T10:37:16.93Z</time></trkpt><trkpt lat="43.41221" lon="12.79115"><ele>484.3333333333333</ele><time>2026-04-25T10:37:17.908Z</time></trkpt><trkpt lat="43.41228" lon="12.791105"><ele>484.0</ele><time>2026-04-25T10:37:18.911Z</time></trkpt><trkpt lat="43.4123567" lon="12.7910383"><ele>483.66666666666663</ele><time>2026-04-25T10:37:19.914Z</time></trkpt><trkpt lat="43.4124417" lon="12.7909633"><ele>483.3333333333333</ele><time>2026-04-25T10:37:20.913Z</time></trkpt><trkpt lat="43.4125233" lon="12.7908917"><ele>483.0</ele><time>2026-04-25T10:37:21.912Z</time></trkpt><trkpt lat="43.4126083" lon="12.7908317"><ele>486.59999999999997</ele><time>2026-04-25T10:37:22.977Z</time></trkpt><trkpt lat="43.41269" lon="12.7907833"><ele>490.19999999999993</ele><time>2026-04-25T10:37:23.911Z</time></trkpt><trkpt lat="43.4127717" lon="12.7907483"><ele>493.8</ele><time>2026-04-25T10:37:24.913Z</time></trkpt><trkpt lat="43.412855" lon="12.7907167"><ele>497.4</ele><time>2026-04-25T10:37:26.911Z</time></trkpt><trkpt lat="43.412935" lon="12.7906733"><ele>501.0</ele><time>2026-04-25T10:37:28.964Z</time></trkpt><trkpt lat="43.413055" lon="12.79067"><ele>501.0</ele><time>2026-04-25T10:37:30.914Z</time></trkpt><trkpt lat="43.4131817" lon="12.79062"><ele>501.0</ele><time>2026-04-25T10:37:32.915Z</time></trkpt><trkpt lat="43.4132983" lon="12.790545"><ele>501.0</ele><time>2026-04-25T10:37:34.94Z</time></trkpt><trkpt lat="43.4133717" lon="12.790495"><ele>501.0</ele><time>2026-04-25T10:37:35.914Z</time></trkpt><trkpt lat="43.4134483" lon="12.7904367"><ele>501.0</ele><time>2026-04-25T10:37:36.919Z</time></trkpt><trkpt lat="43.4135283" lon="12.7903683"><ele>501.0</ele><time>2026-04-25T10:37:37.906Z</time></trkpt><trkpt lat="43.4136083" lon="12.79032"><ele>501.0</ele><time>2026-04-25T10:37:38.917Z</time></trkpt><trkpt lat="43.4136967" lon="12.79026"><ele>501.0</ele><time>2026-04-25T10:37:39.913Z</time></trkpt><trkpt lat="43.4137883" lon="12.7902"><ele>501.0</ele><time>2026-04-25T10:37:40.926Z</time></trkpt><trkpt lat="43.4138717" lon="12.7901283"><ele>501.0</ele><time>2026-04-25T10:37:41.908Z</time></trkpt><trkpt lat="43.41394" lon="12.7900517"><ele>501.6666666666667</ele><time>2026-04-25T10:37:42.916Z</time></trkpt><trkpt lat="43.414" lon="12.78998"><ele>502.33333333333337</ele><time>2026-04-25T10:37:43.911Z</time></trkpt><trkpt lat="43.41405" lon="12.789885"><ele>503.0</ele><time>2026-04-25T10:37:44.913Z</time></trkpt><trkpt lat="43.4140983" lon="12.7897817"><ele>503.6666666666667</ele><time>2026-04-25T10:37:45.911Z</time></trkpt><trkpt lat="43.4141417" lon="12.7896583"><ele>504.33333333333337</ele><time>2026-04-25T10:37:46.924Z</time></trkpt><trkpt lat="43.41418" lon="12.7895467"><ele>505.0</ele><time>2026-04-25T10:37:47.913Z</time></trkpt><trkpt lat="43.41423" lon="12.7894383"><ele>509.6</ele><time>2026-04-25T10:37:48.92Z</time></trkpt><trkpt lat="43.4142767" lon="12.7893283"><ele>514.2</ele><time>2026-04-25T10:37:49.918Z</time></trkpt><trkpt lat="43.4143217" lon="12.789215"><ele>518.8</ele><time>2026-04-25T10:37:50.917Z</time></trkpt><trkpt lat="43.4143683" lon="12.7891017"><ele>523.4</ele><time>2026-04-25T10:37:51.915Z</time></trkpt><trkpt lat="43.41442" lon="12.78899"><ele>528.0</ele><time>2026-04-25T10:37:52.967Z</time></trkpt><trkpt lat="43.41447" lon="12.7888767"><ele>528.0</ele><time>2026-04-25T10:37:53.923Z</time></trkpt><trkpt lat="43.4145333" lon="12.7887567"><ele>528.0</ele><time>2026-04-25T10:37:54.92Z</time></trkpt><trkpt lat="43.41458" lon="12.7886533"><ele>528.0</ele><time>2026-04-25T10:37:55.911Z</time></trkpt><trkpt lat="43.4146233" lon="12.7885517"><ele>528.0</ele><time>2026-04-25T10:37:56.919Z</time></trkpt><trkpt lat="43.4146533" lon="12.7884567"><ele>528.0</ele><time>2026-04-25T10:37:57.912Z</time></trkpt><trkpt lat="43.4146717" lon="12.78835"><ele>528.0</ele><time>2026-04-25T10:37:58.963Z</time></trkpt><trkpt lat="43.4146783" lon="12.788235"><ele>526.8</ele><time>2026-04-25T10:37:59.913Z</time></trkpt><trkpt lat="43.4146683" lon="12.7881167"><ele>525.5999999999999</ele><time>2026-04-25T10:38:00.919Z</time></trkpt><trkpt lat="43.41465" lon="12.7880067"><ele>524.4000000000001</ele><time>2026-04-25T10:38:01.911Z</time></trkpt><trkpt lat="43.4146117" lon="12.7878933"><ele>523.2</ele><time>2026-04-25T10:38:02.914Z</time></trkpt><trkpt lat="43.41456" lon="12.7877717"><ele>522.0</ele><time>2026-04-25T10:38:03.913Z</time></trkpt><trkpt lat="43.414495" lon="12.7876483"><ele>522.0</ele><time>2026-04-25T10:38:04.928Z</time></trkpt><trkpt lat="43.41443" lon="12.7875233"><ele>522.0</ele><time>2026-04-25T10:38:05.907Z</time></trkpt><trkpt lat="43.4143517" lon="12.7874017"><ele>522.0</ele><time>2026-04-25T10:38:06.915Z</time></trkpt><trkpt lat="43.4142583" lon="12.7872817"><ele>522.0</ele><time>2026-04-25T10:38:07.914Z</time></trkpt><trkpt lat="43.4141667" lon="12.7871533"><ele>522.0</ele><time>2026-04-25T10:38:08.918Z</time></trkpt><trkpt lat="43.414075" lon="12.78702"><ele>522.0</ele><time>2026-04-25T10:38:09.905Z</time></trkpt><trkpt lat="43.4139867" lon="12.7868783"><ele>522.0</ele><time>2026-04-25T10:38:10.93Z</time></trkpt><trkpt lat="43.413905" lon="12.7867467"><ele>522.0</ele><time>2026-04-25T10:38:11.915Z</time></trkpt><trkpt lat="43.413825" lon="12.7866183"><ele>526.25</ele><time>2026-04-25T10:38:12.917Z</time></trkpt><trkpt lat="43.4137467" lon="12.7864917"><ele>530.5</ele><time>2026-04-25T10:38:13.914Z</time></trkpt><trkpt lat="43.4136733" lon="12.786365"><ele>534.75</ele><time>2026-04-25T10:38:14.917Z</time></trkpt><trkpt lat="43.4136033" lon="12.7862417"><ele>539.0</ele><time>2026-04-25T10:38:15.907Z</time></trkpt><trkpt lat="43.413535" lon="12.7861183"><ele>539.0</ele><time>2026-04-25T10:38:16.927Z</time></trkpt><trkpt lat="43.4134717" lon="12.7860167"><ele>539.0</ele><time>2026-04-25T10:38:17.914Z</time></trkpt><trkpt lat="43.4134017" lon="12.7859083"><ele>539.0</ele><time>2026-04-25T10:38:18.915Z</time></trkpt><trkpt lat="43.4133183" lon="12.7858017"><ele>539.0</ele><time>2026-04-25T10:38:19.922Z</time></trkpt><trkpt lat="43.4132267" lon="12.7857083"><ele>539.0</ele><time>2026-04-25T10:38:20.917Z</time></trkpt><trkpt lat="43.41312" lon="12.78562"><ele>540.5</ele><time>2026-04-25T10:38:21.913Z</time></trkpt><trkpt lat="43.4130067" lon="12.7855383"><ele>542.0</ele><time>2026-04-25T10:38:22.962Z</time></trkpt><trkpt lat="43.4128933" lon="12.7854617"><ele>543.5</ele><time>2026-04-25T10:38:23.913Z</time></trkpt><trkpt lat="43.412795" lon="12.7853867"><ele>545.0</ele><time>2026-04-25T10:38:24.919Z</time></trkpt><trkpt lat="43.4127033" lon="12.7853133"><ele>545.0</ele><time>2026-04-25T10:38:25.916Z</time></trkpt><trkpt lat="43.412625" lon="12.78522"><ele>545.0</ele><time>2026-04-25T10:38:26.92Z</time></trkpt><trkpt lat="43.41256" lon="12.7851033"><ele>545.0</ele><time>2026-04-25T10:38:27.908Z</time></trkpt><trkpt lat="43.4124983" lon="12.7849783"><ele>545.0</ele><time>2026-04-25T10:38:28.956Z</time></trkpt><trkpt lat="43.4124467" lon="12.78485"><ele>545.0</ele><time>2026-04-25T10:38:29.913Z</time></trkpt><trkpt lat="43.4124183" lon="12.78472"><ele>540.6</ele><time>2026-04-25T10:38:30.916Z</time></trkpt><trkpt lat="43.4124017" lon="12.7845967"><ele>536.2</ele><time>2026-04-25T10:38:31.91Z</time></trkpt><trkpt lat="43.4123983" lon="12.784485"><ele>531.8</ele><time>2026-04-25T10:38:32.917Z</time></trkpt><trkpt lat="43.41243" lon="12.7843817"><ele>527.4</ele><time>2026-04-25T10:38:33.914Z</time></trkpt><trkpt lat="43.41249" lon="12.784285"><ele>523.0</ele><time>2026-04-25T10:38:34.929Z</time></trkpt><trkpt lat="43.41258" lon="12.7842"><ele>523.0</ele><time>2026-04-25T10:38:35.92Z</time></trkpt><trkpt lat="43.4127083" lon="12.7841217"><ele>523.0</ele><time>2026-04-25T10:38:36.919Z</time></trkpt><trkpt lat="43.4128133" lon="12.7840467"><ele>523.0</ele><time>2026-04-25T10:38:37.925Z</time></trkpt><trkpt lat="43.41293" lon="12.7839917"><ele>523.0</ele><time>2026-04-25T10:38:38.914Z</time></trkpt><trkpt lat="43.4130317" lon="12.7839567"><ele>517.0</ele><time>2026-04-25T10:38:39.925Z</time></trkpt><trkpt lat="43.413145" lon="12.7839317"><ele>510.99999999999994</ele><time>2026-04-25T10:38:40.93Z</time></trkpt><trkpt lat="43.4132533" lon="12.7839"><ele>504.99999999999994</ele><time>2026-04-25T10:38:41.925Z</time></trkpt><trkpt lat="43.413345" lon="12.7838533"><ele>499.0</ele><time>2026-04-25T10:38:42.908Z</time></trkpt><trkpt lat="43.4134367" lon="12.783795"><ele>493.0</ele><time>2026-04-25T10:38:43.915Z</time></trkpt><trkpt lat="43.4135233" lon="12.783735"><ele>493.0</ele><time>2026-04-25T10:38:44.918Z</time></trkpt><trkpt lat="43.4135883" lon="12.783665"><ele>492.99999999999994</ele><time>2026-04-25T10:38:45.918Z</time></trkpt><trkpt lat="43.4136433" lon="12.7835833"><ele>492.99999999999994</ele><time>2026-04-25T10:38:46.927Z</time></trkpt><trkpt lat="43.413675" lon="12.783475"><ele>493.0</ele><time>2026-04-25T10:38:47.919Z</time></trkpt><trkpt lat="43.4136517" lon="12.78334"><ele>493.0</ele><time>2026-04-25T10:38:48.915Z</time></trkpt><trkpt lat="43.4136083" lon="12.7831933"><ele>492.75</ele><time>2026-04-25T10:38:49.911Z</time></trkpt><trkpt lat="43.41352" lon="12.7830383"><ele>492.5</ele><time>2026-04-25T10:38:50.92Z</time></trkpt><trkpt lat="43.41344" lon="12.7829033"><ele>492.25</ele><time>2026-04-25T10:38:51.915Z</time></trkpt><trkpt lat="43.41333" lon="12.78276"><ele>492.0</ele><time>2026-04-25T10:38:52.956Z</time></trkpt><trkpt lat="43.41326" lon="12.7826367"><ele>492.0</ele><time>2026-04-25T10:38:53.915Z</time></trkpt><trkpt lat="43.413195" lon="12.7824983"><ele>492.00000000000006</ele><time>2026-04-25T10:38:54.913Z</time></trkpt><trkpt lat="43.41314" lon="12.7823817"><ele>492.00000000000006</ele><time>2026-04-25T10:38:55.915Z</time></trkpt><trkpt lat="43.4130967" lon="12.7822617"><ele>492.0</ele><time>2026-04-25T10:38:56.913Z</time></trkpt><trkpt lat="43.413075" lon="12.7821667"><ele>492.0</ele><time>2026-04-25T10:38:57.913Z</time></trkpt><trkpt lat="43.4130517" lon="12.782075"><ele>492.0</ele><time>2026-04-25T10:38:58.954Z</time></trkpt><trkpt lat="43.413015" lon="12.7819883"><ele>492.0</ele><time>2026-04-25T10:38:59.912Z</time></trkpt><trkpt lat="43.4129683" lon="12.7819267"><ele>492.0</ele><time>2026-04-25T10:39:00.908Z</time></trkpt><trkpt lat="43.4128983" lon="12.7819333"><ele>492.0</ele><time>2026-04-25T10:39:01.918Z</time></trkpt><trkpt lat="43.4128233" lon="12.7819617"><ele>492.0</ele><time>2026-04-25T10:39:02.916Z</time></trkpt><trkpt lat="43.4127433" lon="12.78201"><ele>492.0</ele><time>2026-04-25T10:39:03.919Z</time></trkpt><trkpt lat="43.41266" lon="12.78209"><ele>494.0</ele><time>2026-04-25T10:39:04.929Z</time></trkpt><trkpt lat="43.4125767" lon="12.7821717"><ele>496.00000000000006</ele><time>2026-04-25T10:39:05.916Z</time></trkpt><trkpt lat="43.4125" lon="12.782275"><ele>498.00000000000006</ele><time>2026-04-25T10:39:06.919Z</time></trkpt><trkpt lat="43.4124267" lon="12.7823767"><ele>500.0</ele><time>2026-04-25T10:39:07.913Z</time></trkpt><trkpt lat="43.4123567" lon="12.7824783"><ele>502.0</ele><time>2026-04-25T10:39:08.919Z</time></trkpt><trkpt lat="43.4122817" lon="12.78255"><ele>502.0</ele><time>2026-04-25T10:39:09.915Z</time></trkpt><trkpt lat="43.4122017" lon="12.7825983"><ele>502.00000000000006</ele><time>2026-04-25T10:39:10.928Z</time></trkpt><trkpt lat="43.4121233" lon="12.78262"><ele>502.00000000000006</ele><time>2026-04-25T10:39:11.909Z</time></trkpt><trkpt lat="43.4120433" lon="12.7825917"><ele>502.0</ele><time>2026-04-25T10:39:12.916Z</time></trkpt><trkpt lat="43.4119783" lon="12.7824517"><ele>502.0</ele><time>2026-04-25T10:39:13.914Z</time></trkpt><trkpt lat="43.4119167" lon="12.7823283"><ele>503.0</ele><time>2026-04-25T10:39:14.915Z</time></trkpt><trkpt lat="43.4118533" lon="12.7822083"><ele>504.00000000000006</ele><time>2026-04-25T10:39:15.906Z</time></trkpt><trkpt lat="43.4117917" lon="12.7821083"><ele>505.00000000000006</ele><time>2026-04-25T10:39:16.931Z</time></trkpt><trkpt lat="43.4117233" lon="12.782025"><ele>506.0</ele><time>2026-04-25T10:39:17.914Z</time></trkpt><trkpt lat="43.411625" lon="12.782005"><ele>507.0</ele><time>2026-04-25T10:39:18.916Z</time></trkpt><trkpt lat="43.4115267" lon="12.781995"><ele>507.0</ele><time>2026-04-25T10:39:19.913Z</time></trkpt><trkpt lat="43.4114183" lon="12.7820417"><ele>507.0</ele><time>2026-04-25T10:39:20.917Z</time></trkpt><trkpt lat="43.4113083" lon="12.7820983"><ele>507.0</ele><time>2026-04-25T10:39:21.917Z</time></trkpt><trkpt lat="43.4112017" lon="12.78216"><ele>507.0</ele><time>2026-04-25T10:39:22.956Z</time></trkpt><trkpt lat="43.4110967" lon="12.7822233"><ele>508.40000000000003</ele><time>2026-04-25T10:39:23.917Z</time></trkpt><trkpt lat="43.4109983" lon="12.7822617"><ele>509.80000000000007</ele><time>2026-04-25T10:39:24.916Z</time></trkpt><trkpt lat="43.4108933" lon="12.7822917"><ele>511.2</ele><time>2026-04-25T10:39:25.914Z</time></trkpt><trkpt lat="43.4107967" lon="12.7823033"><ele>512.6</ele><time>2026-04-25T10:39:26.918Z</time></trkpt><trkpt lat="43.4107067" lon="12.782295"><ele>514.0</ele><time>2026-04-25T10:39:27.919Z</time></trkpt><trkpt lat="43.41064" lon="12.7822417"><ele>514.0</ele><time>2026-04-25T10:39:28.958Z</time></trkpt><trkpt lat="43.4105717" lon="12.7821733"><ele>514.0</ele><time>2026-04-25T10:39:29.912Z</time></trkpt><trkpt lat="43.410535" lon="12.7820667"><ele>514.0</ele><time>2026-04-25T10:39:30.922Z</time></trkpt><trkpt lat="43.4105" lon="12.7819667"><ele>514.0</ele><time>2026-04-25T10:39:31.916Z</time></trkpt><trkpt lat="43.4105033" lon="12.7818517"><ele>514.0</ele><time>2026-04-25T10:39:32.923Z</time></trkpt><trkpt lat="43.4105483" lon="12.7817133"><ele>514.0</ele><time>2026-04-25T10:39:33.916Z</time></trkpt><trkpt lat="43.4106233" lon="12.7815517"><ele>508.25</ele><time>2026-04-25T10:39:34.934Z</time></trkpt><trkpt lat="43.4107217" lon="12.7813883"><ele>502.5</ele><time>2026-04-25T10:39:35.914Z</time></trkpt><trkpt lat="43.41081" lon="12.7812267"><ele>496.75</ele><time>2026-04-25T10:39:36.916Z</time></trkpt><trkpt lat="43.4108433" lon="12.7811067"><ele>491.0</ele><time>2026-04-25T10:39:37.916Z</time></trkpt><trkpt lat="43.4108933" lon="12.7809733"><ele>489.6</ele><time>2026-04-25T10:39:38.918Z</time></trkpt><trkpt lat="43.4109033" lon="12.78084"><ele>488.20000000000005</ele><time>2026-04-25T10:39:39.919Z</time></trkpt><trkpt lat="43.4109033" lon="12.7806883"><ele>486.79999999999995</ele><time>2026-04-25T10:39:40.935Z</time></trkpt><trkpt lat="43.4108917" lon="12.7805567"><ele>485.4</ele><time>2026-04-25T10:39:41.915Z</time></trkpt><trkpt lat="43.4108617" lon="12.780425"><ele>484.0</ele><time>2026-04-25T10:39:42.919Z</time></trkpt><trkpt lat="43.410825" lon="12.7802967"><ele>484.0</ele><time>2026-04-25T10:39:43.911Z</time></trkpt><trkpt lat="43.4107633" lon="12.7801733"><ele>484.0</ele><time>2026-04-25T10:39:44.914Z</time></trkpt><trkpt lat="43.41069" lon="12.7800667"><ele>484.0</ele><time>2026-04-25T10:39:45.912Z</time></trkpt><trkpt lat="43.410595" lon="12.7799767"><ele>484.0</ele><time>2026-04-25T10:39:46.935Z</time></trkpt><trkpt lat="43.41051" lon="12.7798767"><ele>484.0</ele><time>2026-04-25T10:39:47.918Z</time></trkpt><trkpt lat="43.410425" lon="12.7797917"><ele>484.0</ele><time>2026-04-25T10:39:48.916Z</time></trkpt><trkpt lat="43.4103433" lon="12.7797083"><ele>484.0</ele><time>2026-04-25T10:39:49.904Z</time></trkpt><trkpt lat="43.4102633" lon="12.77963"><ele>484.0</ele><time>2026-04-25T10:39:50.914Z</time></trkpt><trkpt lat="43.41018" lon="12.779565"><ele>484.0</ele><time>2026-04-25T10:39:51.912Z</time></trkpt><trkpt lat="43.4100967" lon="12.7795233"><ele>484.0</ele><time>2026-04-25T10:39:52.983Z</time></trkpt><trkpt lat="43.4100133" lon="12.7794967"><ele>484.0</ele><time>2026-04-25T10:39:53.911Z</time></trkpt><trkpt lat="43.40994" lon="12.7794817"><ele>484.0</ele><time>2026-04-25T10:39:54.916Z</time></trkpt><trkpt lat="43.409865" lon="12.7794883"><ele>484.0</ele><time>2026-04-25T10:39:55.915Z</time></trkpt><trkpt lat="43.409785" lon="12.7795633"><ele>484.0</ele><time>2026-04-25T10:39:56.92Z</time></trkpt><trkpt lat="43.4097" lon="12.7796433"><ele>484.0</ele><time>2026-04-25T10:39:57.912Z</time></trkpt><trkpt lat="43.4096183" lon="12.77973"><ele>484.00000000000006</ele><time>2026-04-25T10:39:58.959Z</time></trkpt><trkpt lat="43.4095333" lon="12.7797983"><ele>484.0</ele><time>2026-04-25T10:39:59.915Z</time></trkpt><trkpt lat="43.4094483" lon="12.7798383"><ele>484.0</ele><time>2026-04-25T10:40:00.917Z</time></trkpt><trkpt lat="43.4093733" lon="12.7798383"><ele>484.0</ele><time>2026-04-25T10:40:01.911Z</time></trkpt><trkpt lat="43.40931" lon="12.7797917"><ele>484.00000000000006</ele><time>2026-04-25T10:40:02.92Z</time></trkpt><trkpt lat="43.4092567" lon="12.77972"><ele>484.0</ele><time>2026-04-25T10:40:03.912Z</time></trkpt><trkpt lat="43.4091967" lon="12.7796367"><ele>484.0</ele><time>2026-04-25T10:40:04.934Z</time></trkpt><trkpt lat="43.4091267" lon="12.7795583"><ele>484.0</ele><time>2026-04-25T10:40:05.909Z</time></trkpt><trkpt lat="43.409055" lon="12.77948"><ele>484.0</ele><time>2026-04-25T10:40:06.914Z</time></trkpt><trkpt lat="43.408975" lon="12.7794067"><ele>484.0</ele><time>2026-04-25T10:40:07.915Z</time></trkpt><trkpt lat="43.408905" lon="12.7793367"><ele>484.0</ele><time>2026-04-25T10:40:08.917Z</time></trkpt><trkpt lat="43.408845" lon="12.7792533"><ele>485.00000000000006</ele><time>2026-04-25T10:40:09.913Z</time></trkpt><trkpt lat="43.4088167" lon="12.7791433"><ele>486.0</ele><time>2026-04-25T10:40:10.935Z</time></trkpt><trkpt lat="43.4087867" lon="12.77903"><ele>487.0</ele><time>2026-04-25T10:40:11.918Z</time></trkpt><trkpt lat="43.408755" lon="12.778935"><ele>488.0</ele><time>2026-04-25T10:40:12.914Z</time></trkpt><trkpt lat="43.4087167" lon="12.7788367"><ele>489.00000000000006</ele><time>2026-04-25T10:40:13.921Z</time></trkpt><trkpt lat="43.4086617" lon="12.77873"><ele>490.0</ele><time>2026-04-25T10:40:14.918Z</time></trkpt><trkpt lat="43.40859" lon="12.778625"><ele>490.0</ele><time>2026-04-25T10:40:15.913Z</time></trkpt><trkpt lat="43.408505" lon="12.7785283"><ele>490.0</ele><time>2026-04-25T10:40:16.932Z</time></trkpt><trkpt lat="43.4084083" lon="12.7784333"><ele>490.0</ele><time>2026-04-25T10:40:17.921Z</time></trkpt><trkpt lat="43.408305" lon="12.778345"><ele>490.0</ele><time>2026-04-25T10:40:18.917Z</time></trkpt><trkpt lat="43.4081933" lon="12.7782483"><ele>487.5</ele><time>2026-04-25T10:40:19.912Z</time></trkpt><trkpt lat="43.4080833" lon="12.778155"><ele>485.0</ele><time>2026-04-25T10:40:20.913Z</time></trkpt><trkpt lat="43.4079783" lon="12.7780667"><ele>482.5</ele><time>2026-04-25T10:40:21.916Z</time></trkpt><trkpt lat="43.4078767" lon="12.77798"><ele>480.0</ele><time>2026-04-25T10:40:22.987Z</time></trkpt><trkpt lat="43.4077617" lon="12.7778983"><ele>480.0</ele><time>2026-04-25T10:40:23.916Z</time></trkpt><trkpt lat="43.4076433" lon="12.777815"><ele>480.0</ele><time>2026-04-25T10:40:24.914Z</time></trkpt><trkpt lat="43.4075133" lon="12.777725"><ele>480.0</ele><time>2026-04-25T10:40:25.913Z</time></trkpt><trkpt lat="43.407385" lon="12.7776367"><ele>480.0</ele><time>2026-04-25T10:40:26.916Z</time></trkpt><trkpt lat="43.407255" lon="12.77755"><ele>475.75</ele><time>2026-04-25T10:40:27.912Z</time></trkpt><trkpt lat="43.4071217" lon="12.7774833"><ele>471.5</ele><time>2026-04-25T10:40:28.959Z</time></trkpt><trkpt lat="43.4069833" lon="12.77742"><ele>467.25</ele><time>2026-04-25T10:40:29.917Z</time></trkpt><trkpt lat="43.406845" lon="12.7773633"><ele>463.0</ele><time>2026-04-25T10:40:30.916Z</time></trkpt><trkpt lat="43.4067133" lon="12.7773117"><ele>463.0</ele><time>2026-04-25T10:40:31.912Z</time></trkpt><trkpt lat="43.4065817" lon="12.7772583"><ele>463.0</ele><time>2026-04-25T10:40:32.919Z</time></trkpt><trkpt lat="43.4064533" lon="12.7772033"><ele>463.0</ele><time>2026-04-25T10:40:33.916Z</time></trkpt><trkpt lat="43.4063317" lon="12.7771533"><ele>463.0</ele><time>2026-04-25T10:40:34.935Z</time></trkpt><trkpt lat="43.4062183" lon="12.7771017"><ele>465.0</ele><time>2026-04-25T10:40:35.911Z</time></trkpt><trkpt lat="43.4061067" lon="12.77706"><ele>467.0</ele><time>2026-04-25T10:40:36.919Z</time></trkpt><trkpt lat="43.4059933" lon="12.7770217"><ele>469.0</ele><time>2026-04-25T10:40:37.917Z</time></trkpt><trkpt lat="43.405875" lon="12.776985"><ele>471.0</ele><time>2026-04-25T10:40:38.92Z</time></trkpt><trkpt lat="43.4057417" lon="12.7769467"><ele>471.0</ele><time>2026-04-25T10:40:39.912Z</time></trkpt><trkpt lat="43.405605" lon="12.7769033"><ele>471.0</ele><time>2026-04-25T10:40:40.935Z</time></trkpt><trkpt lat="43.405475" lon="12.7768583"><ele>471.0</ele><time>2026-04-25T10:40:41.911Z</time></trkpt><trkpt lat="43.4053467" lon="12.7768083"><ele>471.0</ele><time>2026-04-25T10:40:42.909Z</time></trkpt><trkpt lat="43.4052183" lon="12.7767667"><ele>464.25</ele><time>2026-04-25T10:40:43.911Z</time></trkpt><trkpt lat="43.4050917" lon="12.7767117"><ele>457.5</ele><time>2026-04-25T10:40:44.914Z</time></trkpt><trkpt lat="43.4049567" lon="12.7766667"><ele>450.75</ele><time>2026-04-25T10:40:45.91Z</time></trkpt><trkpt lat="43.4048283" lon="12.7766133"><ele>444.0</ele><time>2026-04-25T10:40:46.924Z</time></trkpt><trkpt lat="43.4046933" lon="12.776575"><ele>444.5</ele><time>2026-04-25T10:40:47.91Z</time></trkpt><trkpt lat="43.4045567" lon="12.7765383"><ele>445.0</ele><time>2026-04-25T10:40:48.91Z</time></trkpt><trkpt lat="43.40445" lon="12.7765267"><ele>445.5</ele><time>2026-04-25T10:40:49.91Z</time></trkpt><trkpt lat="43.4043383" lon="12.7765017"><ele>446.0</ele><time>2026-04-25T10:40:50.908Z</time></trkpt><trkpt lat="43.404225" lon="12.7764983"><ele>446.0</ele><time>2026-04-25T10:40:51.914Z</time></trkpt><trkpt lat="43.404115" lon="12.7764983"><ele>446.0</ele><time>2026-04-25T10:40:52.929Z</time></trkpt><trkpt lat="43.40401" lon="12.7764817"><ele>446.0</ele><time>2026-04-25T10:40:53.912Z</time></trkpt><trkpt lat="43.4039033" lon="12.7764417"><ele>446.0</ele><time>2026-04-25T10:40:54.915Z</time></trkpt><trkpt lat="43.4037817" lon="12.7764133"><ele>447.75</ele><time>2026-04-25T10:40:55.918Z</time></trkpt><trkpt lat="43.4036483" lon="12.776385"><ele>449.5</ele><time>2026-04-25T10:40:56.913Z</time></trkpt><trkpt lat="43.4035133" lon="12.7763567"><ele>451.25</ele><time>2026-04-25T10:40:57.91Z</time></trkpt><trkpt lat="43.4033717" lon="12.7763283"><ele>453.0</ele><time>2026-04-25T10:40:58.957Z</time></trkpt><trkpt lat="43.4032367" lon="12.7763067"><ele>453.0</ele><time>2026-04-25T10:40:59.913Z</time></trkpt><trkpt lat="43.4031033" lon="12.7762817"><ele>452.99999999999994</ele><time>2026-04-25T10:41:00.913Z</time></trkpt><trkpt lat="43.403025" lon="12.776245"><ele>452.99999999999994</ele><time>2026-04-25T10:41:01.914Z</time></trkpt><trkpt lat="43.4029217" lon="12.77622"><ele>453.0</ele><time>2026-04-25T10:41:02.914Z</time></trkpt><trkpt lat="43.4028067" lon="12.7761867"><ele>453.0</ele><time>2026-04-25T10:41:03.913Z</time></trkpt><trkpt lat="43.4027" lon="12.776155"><ele>454.0</ele><time>2026-04-25T10:41:04.925Z</time></trkpt><trkpt lat="43.4026017" lon="12.7761083"><ele>454.99999999999994</ele><time>2026-04-25T10:41:05.915Z</time></trkpt><trkpt lat="43.4024917" lon="12.7760617"><ele>455.99999999999994</ele><time>2026-04-25T10:41:06.921Z</time></trkpt><trkpt lat="43.402385" lon="12.7760017"><ele>457.0</ele><time>2026-04-25T10:41:07.912Z</time></trkpt><trkpt lat="43.40229" lon="12.7759383"><ele>458.0</ele><time>2026-04-25T10:41:08.911Z</time></trkpt><trkpt lat="43.4022067" lon="12.7758617"><ele>451.2</ele><time>2026-04-25T10:41:09.909Z</time></trkpt><trkpt lat="43.4021333" lon="12.7757983"><ele>444.4</ele><time>2026-04-25T10:41:10.927Z</time></trkpt><trkpt lat="43.4020583" lon="12.7757067"><ele>437.59999999999997</ele><time>2026-04-25T10:41:11.912Z</time></trkpt><trkpt lat="43.4019783" lon="12.7756133"><ele>430.79999999999995</ele><time>2026-04-25T10:41:12.913Z</time></trkpt><trkpt lat="43.4019" lon="12.7755067"><ele>424.0</ele><time>2026-04-25T10:41:13.913Z</time></trkpt><trkpt lat="43.4018167" lon="12.77539"><ele>424.00000000000006</ele><time>2026-04-25T10:41:14.914Z</time></trkpt><trkpt lat="43.401735" lon="12.775285"><ele>424.0</ele><time>2026-04-25T10:41:15.914Z</time></trkpt><trkpt lat="43.4016883" lon="12.7752017"><ele>424.0</ele><time>2026-04-25T10:41:16.929Z</time></trkpt><trkpt lat="43.4016433" lon="12.7751133"><ele>424.0</ele><time>2026-04-25T10:41:17.908Z</time></trkpt><trkpt lat="43.40161" lon="12.775015"><ele>424.00000000000006</ele><time>2026-04-25T10:41:18.915Z</time></trkpt><trkpt lat="43.4015833" lon="12.7749167"><ele>424.0</ele><time>2026-04-25T10:41:19.907Z</time></trkpt><trkpt lat="43.4015533" lon="12.7748233"><ele>420.83333333333337</ele><time>2026-04-25T10:41:20.916Z</time></trkpt><trkpt lat="43.4015183" lon="12.7747383"><ele>417.6666666666667</ele><time>2026-04-25T10:41:21.917Z</time></trkpt><trkpt lat="43.4014733" lon="12.7746717"><ele>414.5</ele><time>2026-04-25T10:41:22.983Z</time></trkpt><trkpt lat="43.4014267" lon="12.7746083"><ele>411.33333333333337</ele><time>2026-04-25T10:41:23.914Z</time></trkpt><trkpt lat="43.4013683" lon="12.774475"><ele>408.1666666666667</ele><time>2026-04-25T10:41:25.906Z</time></trkpt><trkpt lat="43.401375" lon="12.774345"><ele>405.0</ele><time>2026-04-25T10:41:27.921Z</time></trkpt><trkpt lat="43.401415" lon="12.7742467"><ele>404.2</ele><time>2026-04-25T10:41:30.906Z</time></trkpt><trkpt lat="43.4014617" lon="12.7741767"><ele>403.4</ele><time>2026-04-25T10:41:34.933Z</time></trkpt><trkpt lat="43.401475" lon="12.7740867"><ele>402.6</ele><time>2026-04-25T10:41:36.92Z</time></trkpt><trkpt lat="43.4014467" lon="12.77389"><ele>401.8</ele><time>2026-04-25T10:41:38.913Z</time></trkpt><trkpt lat="43.4014067" lon="12.77376"><ele>401.0</ele><time>2026-04-25T10:41:39.912Z</time></trkpt><trkpt lat="43.40136" lon="12.7736233"><ele>404.20000000000005</ele><time>2026-04-25T10:41:40.926Z</time></trkpt><trkpt lat="43.4013183" lon="12.7734983"><ele>407.40000000000003</ele><time>2026-04-25T10:41:41.915Z</time></trkpt><trkpt lat="43.4012767" lon="12.77338"><ele>410.6</ele><time>2026-04-25T10:41:42.913Z</time></trkpt><trkpt lat="43.4012317" lon="12.7732533"><ele>413.8</ele><time>2026-04-25T10:41:43.914Z</time></trkpt><trkpt lat="43.4011867" lon="12.7731367"><ele>417.0</ele><time>2026-04-25T10:41:44.907Z</time></trkpt><trkpt lat="43.401095" lon="12.7730167"><ele>417.0</ele><time>2026-04-25T10:41:46.929Z</time></trkpt><trkpt lat="43.40105" lon="12.7729183"><ele>417.0</ele><time>2026-04-25T10:41:48.912Z</time></trkpt><trkpt lat="43.4010017" lon="12.7728617"><ele>417.0</ele><time>2026-04-25T10:41:52.973Z</time></trkpt><trkpt lat="43.4009233" lon="12.7728583"><ele>417.0</ele><time>2026-04-25T10:42:04.93Z</time></trkpt><trkpt lat="43.40089" lon="12.77278"><ele>417.0</ele><time>2026-04-25T10:42:06.914Z</time></trkpt><trkpt lat="43.4009183" lon="12.7726717"><ele>417.0</ele><time>2026-04-25T10:42:09.917Z</time></trkpt><trkpt lat="43.4009867" lon="12.77261"><ele>416.6</ele><time>2026-04-25T10:42:13.911Z</time></trkpt><trkpt lat="43.4010417" lon="12.7724583"><ele>416.20000000000005</ele><time>2026-04-25T10:42:25.912Z</time></trkpt><trkpt lat="43.4011191" lon="12.7724362"><ele>415.8</ele><time>2026-04-25T10:44:54.922Z</time></trkpt><trkpt lat="43.4012045" lon="12.7724386"><ele>415.4</ele><time>2026-04-25T10:44:57.927Z</time></trkpt><trkpt lat="43.4012646" lon="12.7724713"><ele>415.0</ele><time>2026-04-25T10:45:01.929Z</time></trkpt><trkpt lat="43.4014175" lon="12.7718326"><ele>412.33333333333337</ele><time>2026-04-25T10:48:13.914Z</time></trkpt><trkpt lat="43.4012806" lon="12.772018"><ele>409.66666666666663</ele><time>2026-04-25T10:48:14.912Z</time></trkpt><trkpt lat="43.4012148" lon="12.7721268"><ele>407.0</ele><time>2026-04-25T10:48:19.915Z</time></trkpt><trkpt lat="43.401152" lon="12.7723415"><ele>406.99999999999994</ele><time>2026-04-25T10:48:23.929Z</time></trkpt><trkpt lat="43.4010641" lon="12.7723998"><ele>407.0</ele><time>2026-04-25T10:49:43.917Z</time></trkpt><trkpt lat="43.4009929" lon="12.7725068"><ele>407.0</ele><time>2026-04-25T10:51:32.929Z</time></trkpt><trkpt lat="43.4010462" lon="12.772404"><ele>407.0</ele><time>2026-04-25T10:54:21.93Z</time></trkpt><trkpt lat="43.4010892" lon="12.7723338"><ele>406.99999999999994</ele><time>2026-04-25T10:54:58.953Z</time></trkpt><trkpt lat="43.4010381" lon="12.7724209"><ele>407.0</ele><time>2026-04-25T10:55:30.927Z</time></trkpt><trkpt lat="43.400987" lon="12.7724849"><ele>469.0</ele><time>2026-04-25T10:55:33.928Z</time></trkpt><trkpt lat="43.4030467" lon="12.76843"><ele>469.0</ele><time>2026-04-25T10:56:10.937Z</time></trkpt><trkpt lat="43.4031128" lon="12.7683509"><ele>469.0</ele><time>2026-04-25T10:56:11.913Z</time></trkpt><trkpt lat="43.4028287" lon="12.7688244"><ele>463.33333333333337</ele><time>2026-04-25T10:56:13.914Z</time></trkpt><trkpt lat="43.4026782" lon="12.7690872"><ele>457.66666666666663</ele><time>2026-04-25T10:56:14.913Z</time></trkpt><trkpt lat="43.4025712" lon="12.7693131"><ele>452.0</ele><time>2026-04-25T10:56:15.92Z</time></trkpt><trkpt lat="43.4025079" lon="12.769313"><ele>459.0</ele><time>2026-04-25T10:56:16.938Z</time></trkpt><trkpt lat="43.4023144" lon="12.7696946"><ele>466.0</ele><time>2026-04-25T10:56:18.918Z</time></trkpt><trkpt lat="43.4022467" lon="12.7698666"><ele>466.0</ele><time>2026-04-25T10:56:21.919Z</time></trkpt><trkpt lat="43.4022067" lon="12.7699421"><ele>466.0</ele><time>2026-04-25T10:56:23.917Z</time></trkpt><trkpt lat="43.4021387" lon="12.7700742"><ele>466.0</ele><time>2026-04-25T10:56:26.914Z</time></trkpt><trkpt lat="43.4020832" lon="12.7701882"><ele>466.0</ele><time>2026-04-25T10:56:28.968Z</time></trkpt><trkpt lat="43.4020247" lon="12.770333"><ele>466.0</ele><time>2026-04-25T10:56:31.915Z</time></trkpt><trkpt lat="43.4019103" lon="12.7706245"><ele>458.0</ele><time>2026-04-25T10:56:33.914Z</time></trkpt><trkpt lat="43.4018466" lon="12.7707478"><ele>450.0</ele><time>2026-04-25T10:56:34.938Z</time></trkpt><trkpt lat="43.4017921" lon="12.7708529"><ele>442.0</ele><time>2026-04-25T10:56:35.915Z</time></trkpt><trkpt lat="43.401732" lon="12.7709681"><ele>434.0</ele><time>2026-04-25T10:56:36.913Z</time></trkpt><trkpt lat="43.4016704" lon="12.7710959"><ele>426.0</ele><time>2026-04-25T10:56:38.912Z</time></trkpt><trkpt lat="43.4016044" lon="12.7712201"><ele>423.8</ele><time>2026-04-25T10:56:40.952Z</time></trkpt><trkpt lat="43.4015515" lon="12.7713321"><ele>421.6</ele><time>2026-04-25T10:56:42.911Z</time></trkpt><trkpt lat="43.4015078" lon="12.7714245"><ele>419.4</ele><time>2026-04-25T10:56:43.914Z</time></trkpt><trkpt lat="43.4014563" lon="12.771534"><ele>417.2</ele><time>2026-04-25T10:56:45.929Z</time></trkpt><trkpt lat="43.401406" lon="12.771636"><ele>415.0</ele><time>2026-04-25T10:56:47.929Z</time></trkpt><trkpt lat="43.4013451" lon="12.7717702"><ele>413.4</ele><time>2026-04-25T10:56:52.996Z</time></trkpt><trkpt lat="43.4013003" lon="12.7718642"><ele>411.8</ele><time>2026-04-25T10:56:55.911Z</time></trkpt><trkpt lat="43.4012519" lon="12.7719612"><ele>410.20000000000005</ele><time>2026-04-25T10:57:01.927Z</time></trkpt><trkpt lat="43.4012303" lon="12.7720782"><ele>408.6</ele><time>2026-04-25T10:57:21.925Z</time></trkpt><trkpt lat="43.4011816" lon="12.7721928"><ele>407.0</ele><time>2026-04-25T10:57:22.992Z</time></trkpt><trkpt lat="43.4011073" lon="12.7723143"><ele>407.0</ele><time>2026-04-25T10:58:11.925Z</time></trkpt><trkpt lat="43.4010486" lon="12.7723627"><ele>407.0</ele><time>2026-04-25T11:01:35.928Z</time></trkpt><trkpt lat="43.4010987" lon="12.7723022"><ele>407.0</ele><time>2026-04-25T11:12:34.961Z</time></trkpt><trkpt lat="43.4011543" lon="12.7723841"><ele>407.0</ele><time>2026-04-25T11:12:44.928Z</time></trkpt><trkpt lat="43.4012785" lon="12.7721658"><ele>407.0</ele><time>2026-04-25T11:13:01.919Z</time></trkpt><trkpt lat="43.4012481" lon="12.7720853"><ele>406.99999999999994</ele><time>2026-04-25T11:13:04.962Z</time></trkpt><trkpt lat="43.4012245" lon="12.7720029"><ele>407.0</ele><time>2026-04-25T11:13:06.912Z</time></trkpt><trkpt lat="43.4012194" lon="12.7721416"><ele>407.0</ele><time>2026-04-25T11:13:31.929Z</time></trkpt><trkpt lat="43.4011996" lon="12.7723194"><ele>407.0</ele><time>2026-04-25T11:13:38.916Z</time></trkpt><trkpt lat="43.401156" lon="12.7724178"><ele>406.99999999999994</ele><time>2026-04-25T11:13:43.914Z</time></trkpt><trkpt lat="43.4011394" lon="12.7723247"><ele>407.0</ele><time>2026-04-25T11:13:59.912Z</time></trkpt><trkpt lat="43.4011667" lon="12.7724036"><ele>407.00000000000006</ele><time>2026-04-25T11:14:03.926Z</time></trkpt><trkpt lat="43.4011283" lon="12.7723317"><ele>407.0</ele><time>2026-04-25T11:14:35.929Z</time></trkpt><trkpt lat="43.401179" lon="12.7722674"><ele>407.0</ele><time>2026-04-25T11:14:36.914Z</time></trkpt><trkpt lat="43.4011723" lon="12.7721533"><ele>407.0</ele><time>2026-04-25T11:15:05.911Z</time></trkpt><trkpt lat="43.4011321" lon="12.7722276"><ele>407.0</ele><time>2026-04-25T11:16:27.914Z</time></trkpt><trkpt lat="43.4010908" lon="12.7723183"><ele>407.00000000000006</ele><time>2026-04-25T11:16:35.927Z</time></trkpt><trkpt lat="43.4010623" lon="12.7723978"><ele>407.0</ele><time>2026-04-25T11:16:39.913Z</time></trkpt><trkpt lat="43.400998" lon="12.7723837"><ele>406.99999999999994</ele><time>2026-04-25T11:20:44.909Z</time></trkpt><trkpt lat="43.4010749" lon="12.772421"><ele>407.0</ele><time>2026-04-25T11:22:00.902Z</time></trkpt><trkpt lat="43.4011567" lon="12.7725083"><ele>407.0</ele><time>2026-04-25T11:23:06.909Z</time></trkpt><trkpt lat="43.401115" lon="12.77258"><ele>407.0</ele><time>2026-04-25T11:23:09.907Z</time></trkpt><trkpt lat="43.40103" lon="12.77259"><ele>406.99999999999994</ele><time>2026-04-25T11:23:12.909Z</time></trkpt><trkpt lat="43.40092" lon="12.7726167"><ele>407.0</ele><time>2026-04-25T11:23:15.914Z</time></trkpt><trkpt lat="43.4008467" lon="12.7726733"><ele>407.0</ele><time>2026-04-25T11:23:20.911Z</time></trkpt><trkpt lat="43.4007883" lon="12.77261"><ele>407.0</ele><time>2026-04-25T11:23:22.971Z</time></trkpt><trkpt lat="43.40072" lon="12.7725267"><ele>407.0</ele><time>2026-04-25T11:23:24.911Z</time></trkpt><trkpt lat="43.4006483" lon="12.7724533"><ele>407.0</ele><time>2026-04-25T11:23:26.915Z</time></trkpt><trkpt lat="43.4005783" lon="12.772325"><ele>407.0</ele><time>2026-04-25T11:23:28.962Z</time></trkpt><trkpt lat="43.400515" lon="12.77223"><ele>407.0</ele><time>2026-04-25T11:23:30.911Z</time></trkpt><trkpt lat="43.4004383" lon="12.7723467"><ele>407.0</ele><time>2026-04-25T11:23:37.906Z</time></trkpt><trkpt lat="43.4004983" lon="12.7724283"><ele>407.0</ele><time>2026-04-25T11:23:38.909Z</time></trkpt><trkpt lat="43.400565" lon="12.7725167"><ele>407.0</ele><time>2026-04-25T11:23:39.913Z</time></trkpt><trkpt lat="43.40065" lon="12.7726017"><ele>407.0</ele><time>2026-04-25T11:23:40.956Z</time></trkpt><trkpt lat="43.4007383" lon="12.7727167"><ele>409.5</ele><time>2026-04-25T11:23:41.908Z</time></trkpt><trkpt lat="43.4008333" lon="12.7728217"><ele>412.0</ele><time>2026-04-25T11:23:42.906Z</time></trkpt><trkpt lat="43.40091" lon="12.7729267"><ele>414.5</ele><time>2026-04-25T11:23:43.91Z</time></trkpt><trkpt lat="43.4009917" lon="12.7730317"><ele>417.0</ele><time>2026-04-25T11:23:44.904Z</time></trkpt><trkpt lat="43.40107" lon="12.7731367"><ele>417.0</ele><time>2026-04-25T11:23:45.907Z</time></trkpt><trkpt lat="43.4011433" lon="12.773245"><ele>417.0</ele><time>2026-04-25T11:23:46.951Z</time></trkpt><trkpt lat="43.40121" lon="12.7733633"><ele>417.0</ele><time>2026-04-25T11:23:47.913Z</time></trkpt><trkpt lat="43.4012767" lon="12.7734733"><ele>417.0</ele><time>2026-04-25T11:23:48.91Z</time></trkpt><trkpt lat="43.4013383" lon="12.7735817"><ele>417.0</ele><time>2026-04-25T11:23:49.912Z</time></trkpt><trkpt lat="43.4013867" lon="12.7736883"><ele>414.3333333333333</ele><time>2026-04-25T11:23:50.915Z</time></trkpt><trkpt lat="43.4014217" lon="12.7738"><ele>411.66666666666663</ele><time>2026-04-25T11:23:51.912Z</time></trkpt><trkpt lat="43.4014483" lon="12.7739033"><ele>409.0</ele><time>2026-04-25T11:23:52.971Z</time></trkpt><trkpt lat="43.4014617" lon="12.774005"><ele>406.3333333333333</ele><time>2026-04-25T11:23:53.909Z</time></trkpt><trkpt lat="43.401495" lon="12.77413"><ele>403.66666666666663</ele><time>2026-04-25T11:23:55.905Z</time></trkpt><trkpt lat="43.4015783" lon="12.7741283"><ele>401.0</ele><time>2026-04-25T11:23:58.965Z</time></trkpt><trkpt lat="43.4016233" lon="12.7740383"><ele>400.99999999999994</ele><time>2026-04-25T11:23:59.905Z</time></trkpt><trkpt lat="43.4016633" lon="12.773955"><ele>401.0</ele><time>2026-04-25T11:24:00.907Z</time></trkpt><trkpt lat="43.4017117" lon="12.7738667"><ele>401.0</ele><time>2026-04-25T11:24:01.907Z</time></trkpt><trkpt lat="43.401765" lon="12.7737867"><ele>401.0</ele><time>2026-04-25T11:24:02.91Z</time></trkpt><trkpt lat="43.40181" lon="12.773695"><ele>400.99999999999994</ele><time>2026-04-25T11:24:03.905Z</time></trkpt><trkpt lat="43.4018467" lon="12.77359"><ele>401.0</ele><time>2026-04-25T11:24:04.953Z</time></trkpt><trkpt lat="43.401855" lon="12.773455"><ele>401.20000000000005</ele><time>2026-04-25T11:24:05.903Z</time></trkpt><trkpt lat="43.4018617" lon="12.773315"><ele>401.40000000000003</ele><time>2026-04-25T11:24:06.901Z</time></trkpt><trkpt lat="43.4018683" lon="12.7731717"><ele>401.6</ele><time>2026-04-25T11:24:07.907Z</time></trkpt><trkpt lat="43.401875" lon="12.7730317"><ele>401.8</ele><time>2026-04-25T11:24:08.907Z</time></trkpt><trkpt lat="43.4018767" lon="12.77289"><ele>402.0</ele><time>2026-04-25T11:24:09.906Z</time></trkpt><trkpt lat="43.401875" lon="12.7727467"><ele>402.6</ele><time>2026-04-25T11:24:10.954Z</time></trkpt><trkpt lat="43.4018633" lon="12.7726033"><ele>403.20000000000005</ele><time>2026-04-25T11:24:11.908Z</time></trkpt><trkpt lat="43.401835" lon="12.7724733"><ele>403.8</ele><time>2026-04-25T11:24:12.915Z</time></trkpt><trkpt lat="43.4017867" lon="12.772345"><ele>404.4</ele><time>2026-04-25T11:24:13.902Z</time></trkpt><trkpt lat="43.401725" lon="12.7722133"><ele>405.0</ele><time>2026-04-25T11:24:14.908Z</time></trkpt><trkpt lat="43.401665" lon="12.772085"><ele>405.0</ele><time>2026-04-25T11:24:15.909Z</time></trkpt><trkpt lat="43.4016083" lon="12.7719617"><ele>405.0</ele><time>2026-04-25T11:24:16.959Z</time></trkpt><trkpt lat="43.4015633" lon="12.7718367"><ele>405.0</ele><time>2026-04-25T11:24:17.902Z</time></trkpt><trkpt lat="43.4015217" lon="12.771705"><ele>405.0</ele><time>2026-04-25T11:24:18.911Z</time></trkpt><trkpt lat="43.40148" lon="12.771575"><ele>405.0</ele><time>2026-04-25T11:24:19.905Z</time></trkpt><trkpt lat="43.401445" lon="12.771445"><ele>404.4</ele><time>2026-04-25T11:24:20.905Z</time></trkpt><trkpt lat="43.40141" lon="12.7713167"><ele>403.8</ele><time>2026-04-25T11:24:21.908Z</time></trkpt><trkpt lat="43.4013783" lon="12.7711917"><ele>403.20000000000005</ele><time>2026-04-25T11:24:22.974Z</time></trkpt><trkpt lat="43.401355" lon="12.7710583"><ele>402.6</ele><time>2026-04-25T11:24:23.906Z</time></trkpt><trkpt lat="43.4013433" lon="12.7709233"><ele>402.0</ele><time>2026-04-25T11:24:24.91Z</time></trkpt><trkpt lat="43.401325" lon="12.7707917"><ele>402.0</ele><time>2026-04-25T11:24:25.904Z</time></trkpt><trkpt lat="43.4013067" lon="12.770665"><ele>402.0</ele><time>2026-04-25T11:24:26.913Z</time></trkpt><trkpt lat="43.4012867" lon="12.77054"><ele>402.0</ele><time>2026-04-25T11:24:27.901Z</time></trkpt><trkpt lat="43.4012683" lon="12.7704183"><ele>402.0</ele><time>2026-04-25T11:24:28.974Z</time></trkpt><trkpt lat="43.40125" lon="12.7703"><ele>402.0</ele><time>2026-04-25T11:24:29.904Z</time></trkpt><trkpt lat="43.4012117" lon="12.7701733"><ele>402.6666666666667</ele><time>2026-04-25T11:24:30.91Z</time></trkpt><trkpt lat="43.4011783" lon="12.7700617"><ele>403.33333333333337</ele><time>2026-04-25T11:24:31.904Z</time></trkpt><trkpt lat="43.4011467" lon="12.76995"><ele>404.0</ele><time>2026-04-25T11:24:32.905Z</time></trkpt><trkpt lat="43.4011183" lon="12.7698317"><ele>404.6666666666667</ele><time>2026-04-25T11:24:33.905Z</time></trkpt><trkpt lat="43.4010967" lon="12.7697317"><ele>405.33333333333337</ele><time>2026-04-25T11:24:34.954Z</time></trkpt><trkpt lat="43.4010733" lon="12.769645"><ele>406.0</ele><time>2026-04-25T11:24:35.906Z</time></trkpt><trkpt lat="43.40104" lon="12.769485"><ele>406.4</ele><time>2026-04-25T11:24:37.904Z</time></trkpt><trkpt lat="43.4010183" lon="12.7693433"><ele>406.8</ele><time>2026-04-25T11:24:39.912Z</time></trkpt><trkpt lat="43.4010283" lon="12.7692083"><ele>407.2</ele><time>2026-04-25T11:24:41.911Z</time></trkpt><trkpt lat="43.4011633" lon="12.769145"><ele>407.59999999999997</ele><time>2026-04-25T11:24:43.911Z</time></trkpt><trkpt lat="43.4012433" lon="12.7691"><ele>408.0</ele><time>2026-04-25T11:24:44.918Z</time></trkpt><trkpt lat="43.4013483" lon="12.7690517"><ele>412.25</ele><time>2026-04-25T11:24:45.92Z</time></trkpt><trkpt lat="43.4014533" lon="12.7690017"><ele>416.5</ele><time>2026-04-25T11:24:46.954Z</time></trkpt><trkpt lat="43.401555" lon="12.76895"><ele>420.75</ele><time>2026-04-25T11:24:47.909Z</time></trkpt><trkpt lat="43.4016667" lon="12.7688883"><ele>425.0</ele><time>2026-04-25T11:24:48.913Z</time></trkpt><trkpt lat="43.40177" lon="12.7688267"><ele>424.99999999999994</ele><time>2026-04-25T11:24:49.905Z</time></trkpt><trkpt lat="43.4018667" lon="12.7687617"><ele>425.0</ele><time>2026-04-25T11:24:50.915Z</time></trkpt><trkpt lat="43.40195" lon="12.7687067"><ele>425.0</ele><time>2026-04-25T11:24:51.909Z</time></trkpt><trkpt lat="43.4020217" lon="12.7686667"><ele>425.0</ele><time>2026-04-25T11:24:52.977Z</time></trkpt><trkpt lat="43.402085" lon="12.768645"><ele>424.99999999999994</ele><time>2026-04-25T11:24:53.92Z</time></trkpt><trkpt lat="43.4021067" lon="12.7687433"><ele>425.0</ele><time>2026-04-25T11:24:55.911Z</time></trkpt><trkpt lat="43.4019967" lon="12.7689183"><ele>425.0</ele><time>2026-04-25T11:24:57.912Z</time></trkpt><trkpt lat="43.4019033" lon="12.7690183"><ele>425.0</ele><time>2026-04-25T11:24:58.976Z</time></trkpt><trkpt lat="43.4018067" lon="12.76913"><ele>425.0</ele><time>2026-04-25T11:24:59.901Z</time></trkpt><trkpt lat="43.4017083" lon="12.7692433"><ele>425.0</ele><time>2026-04-25T11:25:00.912Z</time></trkpt><trkpt lat="43.4016233" lon="12.7693483"><ele>426.6</ele><time>2026-04-25T11:25:01.909Z</time></trkpt><trkpt lat="43.40155" lon="12.76944"><ele>428.2</ele><time>2026-04-25T11:25:02.92Z</time></trkpt><trkpt lat="43.401505" lon="12.769535"><ele>429.79999999999995</ele><time>2026-04-25T11:25:03.917Z</time></trkpt><trkpt lat="43.401575" lon="12.7696367"><ele>431.4</ele><time>2026-04-25T11:25:05.911Z</time></trkpt><trkpt lat="43.401675" lon="12.769605"><ele>433.0</ele><time>2026-04-25T11:25:07.907Z</time></trkpt><trkpt lat="43.4017383" lon="12.769535"><ele>433.0</ele><time>2026-04-25T11:25:08.914Z</time></trkpt><trkpt lat="43.4018183" lon="12.7694433"><ele>433.0</ele><time>2026-04-25T11:25:09.915Z</time></trkpt><trkpt lat="43.4019217" lon="12.7693333"><ele>433.0</ele><time>2026-04-25T11:25:10.963Z</time></trkpt><trkpt lat="43.4020333" lon="12.7692283"><ele>433.0</ele><time>2026-04-25T11:25:11.91Z</time></trkpt><trkpt lat="43.4021483" lon="12.7691083"><ele>439.33333333333337</ele><time>2026-04-25T11:25:12.901Z</time></trkpt><trkpt lat="43.4022583" lon="12.7689883"><ele>445.66666666666663</ele><time>2026-04-25T11:25:13.91Z</time></trkpt><trkpt lat="43.4023683" lon="12.7688417"><ele>452.0</ele><time>2026-04-25T11:25:14.92Z</time></trkpt><trkpt lat="43.4024783" lon="12.76868"><ele>448.25</ele><time>2026-04-25T11:25:15.919Z</time></trkpt><trkpt lat="43.402575" lon="12.768525"><ele>444.5</ele><time>2026-04-25T11:25:16.968Z</time></trkpt><trkpt lat="43.4026633" lon="12.7683867"><ele>440.75</ele><time>2026-04-25T11:25:17.909Z</time></trkpt><trkpt lat="43.4027417" lon="12.76828"><ele>437.0</ele><time>2026-04-25T11:25:18.92Z</time></trkpt><trkpt lat="43.402805" lon="12.7682317"><ele>437.0</ele><time>2026-04-25T11:25:19.916Z</time></trkpt><trkpt lat="43.402905" lon="12.7682383"><ele>437.00000000000006</ele><time>2026-04-25T11:25:21.907Z</time></trkpt><trkpt lat="43.4029167" lon="12.7683467"><ele>437.00000000000006</ele><time>2026-04-25T11:25:23.915Z</time></trkpt><trkpt lat="43.4028717" lon="12.7684383"><ele>437.0</ele><time>2026-04-25T11:25:24.913Z</time></trkpt><trkpt lat="43.4027933" lon="12.768565"><ele>437.0</ele><time>2026-04-25T11:25:25.91Z</time></trkpt><trkpt lat="43.4027017" lon="12.7687"><ele>440.75</ele><time>2026-04-25T11:25:26.918Z</time></trkpt><trkpt lat="43.40262" lon="12.76885"><ele>444.5</ele><time>2026-04-25T11:25:27.913Z</time></trkpt><trkpt lat="43.4025583" lon="12.7689917"><ele>448.25</ele><time>2026-04-25T11:25:28.963Z</time></trkpt><trkpt lat="43.40249" lon="12.76913"><ele>452.0</ele><time>2026-04-25T11:25:29.908Z</time></trkpt><trkpt lat="43.4024167" lon="12.76927"><ele>455.5</ele><time>2026-04-25T11:25:30.912Z</time></trkpt><trkpt lat="43.4023283" lon="12.7694"><ele>459.0</ele><time>2026-04-25T11:25:31.903Z</time></trkpt><trkpt lat="43.4022383" lon="12.769545"><ele>462.5</ele><time>2026-04-25T11:25:32.914Z</time></trkpt><trkpt lat="43.40216" lon="12.7696917"><ele>466.0</ele><time>2026-04-25T11:25:33.904Z</time></trkpt><trkpt lat="43.4021017" lon="12.769825"><ele>464.4</ele><time>2026-04-25T11:25:34.961Z</time></trkpt><trkpt lat="43.40206" lon="12.7699567"><ele>462.8</ele><time>2026-04-25T11:25:35.918Z</time></trkpt><trkpt lat="43.4020367" lon="12.77008"><ele>461.19999999999993</ele><time>2026-04-25T11:25:36.913Z</time></trkpt><trkpt lat="43.40209" lon="12.7702117"><ele>459.59999999999997</ele><time>2026-04-25T11:25:37.913Z</time></trkpt><trkpt lat="43.4021583" lon="12.77034"><ele>458.0</ele><time>2026-04-25T11:25:38.908Z</time></trkpt><trkpt lat="43.4022483" lon="12.770455"><ele>458.0</ele><time>2026-04-25T11:25:39.912Z</time></trkpt><trkpt lat="43.402365" lon="12.7705717"><ele>458.0</ele><time>2026-04-25T11:25:40.959Z</time></trkpt><trkpt lat="43.40249" lon="12.7707"><ele>458.0</ele><time>2026-04-25T11:25:41.915Z</time></trkpt><trkpt lat="43.4026083" lon="12.77083"><ele>458.0</ele><time>2026-04-25T11:25:42.915Z</time></trkpt><trkpt lat="43.40273" lon="12.770965"><ele>458.0</ele><time>2026-04-25T11:25:43.901Z</time></trkpt><trkpt lat="43.4028583" lon="12.7711067"><ele>458.0</ele><time>2026-04-25T11:25:44.914Z</time></trkpt><trkpt lat="43.4029917" lon="12.77124"><ele>460.25</ele><time>2026-04-25T11:25:45.91Z</time></trkpt><trkpt lat="43.4031267" lon="12.7713617"><ele>462.5</ele><time>2026-04-25T11:25:46.96Z</time></trkpt><trkpt lat="43.4032533" lon="12.7714667"><ele>464.75</ele><time>2026-04-25T11:25:47.916Z</time></trkpt><trkpt lat="43.4033683" lon="12.7715533"><ele>467.0</ele><time>2026-04-25T11:25:48.914Z</time></trkpt><trkpt lat="43.4034517" lon="12.7715983"><ele>467.0</ele><time>2026-04-25T11:25:49.914Z</time></trkpt><trkpt lat="43.4035383" lon="12.77154"><ele>467.00000000000006</ele><time>2026-04-25T11:25:51.905Z</time></trkpt><trkpt lat="43.4035283" lon="12.771415"><ele>467.00000000000006</ele><time>2026-04-25T11:25:53.912Z</time></trkpt><trkpt lat="43.403475" lon="12.77134"><ele>467.0</ele><time>2026-04-25T11:25:54.91Z</time></trkpt><trkpt lat="43.40336" lon="12.77123"><ele>467.0</ele><time>2026-04-25T11:25:55.918Z</time></trkpt><trkpt lat="43.4032583" lon="12.7711217"><ele>464.75</ele><time>2026-04-25T11:25:56.91Z</time></trkpt><trkpt lat="43.403155" lon="12.7710017"><ele>462.5</ele><time>2026-04-25T11:25:57.913Z</time></trkpt><trkpt lat="43.4030617" lon="12.7708667"><ele>460.25</ele><time>2026-04-25T11:25:58.969Z</time></trkpt><trkpt lat="43.4029717" lon="12.7707217"><ele>458.0</ele><time>2026-04-25T11:25:59.905Z</time></trkpt><trkpt lat="43.40289" lon="12.77058"><ele>458.0</ele><time>2026-04-25T11:26:00.905Z</time></trkpt><trkpt lat="43.402825" lon="12.7704283"><ele>457.99999999999994</ele><time>2026-04-25T11:26:01.908Z</time></trkpt><trkpt lat="43.4027717" lon="12.7702867"><ele>457.99999999999994</ele><time>2026-04-25T11:26:02.91Z</time></trkpt><trkpt lat="43.402735" lon="12.770155"><ele>458.0</ele><time>2026-04-25T11:26:03.912Z</time></trkpt><trkpt lat="43.4027217" lon="12.7700217"><ele>458.0</ele><time>2026-04-25T11:26:04.962Z</time></trkpt><trkpt lat="43.40273" lon="12.769895"><ele>460.0</ele><time>2026-04-25T11:26:05.91Z</time></trkpt><trkpt lat="43.4027783" lon="12.7697717"><ele>462.0</ele><time>2026-04-25T11:26:06.912Z</time></trkpt><trkpt lat="43.402845" lon="12.7696517"><ele>464.0</ele><time>2026-04-25T11:26:07.912Z</time></trkpt><trkpt lat="43.4029417" lon="12.76952"><ele>466.0</ele><time>2026-04-25T11:26:08.914Z</time></trkpt><trkpt lat="43.403045" lon="12.769375"><ele>472.5</ele><time>2026-04-25T11:26:09.91Z</time></trkpt><trkpt lat="43.4031533" lon="12.769225"><ele>479.0</ele><time>2026-04-25T11:26:10.956Z</time></trkpt><trkpt lat="43.403255" lon="12.7690767"><ele>485.5</ele><time>2026-04-25T11:26:11.908Z</time></trkpt><trkpt lat="43.403355" lon="12.76893"><ele>492.0</ele><time>2026-04-25T11:26:12.909Z</time></trkpt><trkpt lat="43.4034533" lon="12.7687967"><ele>492.0</ele><time>2026-04-25T11:26:13.911Z</time></trkpt><trkpt lat="43.4035567" lon="12.76867"><ele>492.0</ele><time>2026-04-25T11:26:14.919Z</time></trkpt><trkpt lat="43.40367" lon="12.7685467"><ele>492.0</ele><time>2026-04-25T11:26:15.917Z</time></trkpt><trkpt lat="43.403795" lon="12.7684233"><ele>492.0</ele><time>2026-04-25T11:26:16.962Z</time></trkpt><trkpt lat="43.4039183" lon="12.76831"><ele>495.25</ele><time>2026-04-25T11:26:17.911Z</time></trkpt><trkpt lat="43.4040433" lon="12.7682033"><ele>498.5</ele><time>2026-04-25T11:26:18.91Z</time></trkpt><trkpt lat="43.4041667" lon="12.7680983"><ele>501.75</ele><time>2026-04-25T11:26:19.914Z</time></trkpt><trkpt lat="43.4042933" lon="12.7679883"><ele>505.0</ele><time>2026-04-25T11:26:20.913Z</time></trkpt><trkpt lat="43.4044167" lon="12.7678767"><ele>505.0</ele><time>2026-04-25T11:26:21.911Z</time></trkpt><trkpt lat="43.4045217" lon="12.767745"><ele>505.0</ele><time>2026-04-25T11:26:22.976Z</time></trkpt><trkpt lat="43.404605" lon="12.7676083"><ele>505.0</ele><time>2026-04-25T11:26:23.908Z</time></trkpt><trkpt lat="43.4046783" lon="12.7674933"><ele>505.0</ele><time>2026-04-25T11:26:24.91Z</time></trkpt><trkpt lat="43.4047533" lon="12.7674133"><ele>505.0</ele><time>2026-04-25T11:26:25.907Z</time></trkpt><trkpt lat="43.4048217" lon="12.7673667"><ele>505.0</ele><time>2026-04-25T11:26:26.918Z</time></trkpt><trkpt lat="43.4048417" lon="12.7675167"><ele>505.0</ele><time>2026-04-25T11:26:29.911Z</time></trkpt><trkpt lat="43.4047883" lon="12.7676367"><ele>505.0</ele><time>2026-04-25T11:26:30.902Z</time></trkpt><trkpt lat="43.4047183" lon="12.7677683"><ele>505.0</ele><time>2026-04-25T11:26:31.902Z</time></trkpt><trkpt lat="43.404625" lon="12.7679083"><ele>505.0</ele><time>2026-04-25T11:26:32.911Z</time></trkpt><trkpt lat="43.4045217" lon="12.7680517"><ele>505.0</ele><time>2026-04-25T11:26:33.912Z</time></trkpt><trkpt lat="43.404405" lon="12.76822"><ele>505.0</ele><time>2026-04-25T11:26:34.96Z</time></trkpt><trkpt lat="43.4042967" lon="12.7683717"><ele>513.3333333333334</ele><time>2026-04-25T11:26:35.909Z</time></trkpt><trkpt lat="43.4041867" lon="12.7685317"><ele>521.6666666666666</ele><time>2026-04-25T11:26:36.913Z</time></trkpt><trkpt lat="43.4040817" lon="12.7686767"><ele>530.0</ele><time>2026-04-25T11:26:37.908Z</time></trkpt><trkpt lat="43.4039833" lon="12.7688317"><ele>530.0</ele><time>2026-04-25T11:26:38.918Z</time></trkpt><trkpt lat="43.4038933" lon="12.76898"><ele>530.0</ele><time>2026-04-25T11:26:39.915Z</time></trkpt><trkpt lat="43.403805" lon="12.769135"><ele>530.0</ele><time>2026-04-25T11:26:40.966Z</time></trkpt><trkpt lat="43.4037267" lon="12.7693033"><ele>530.0</ele><time>2026-04-25T11:26:41.912Z</time></trkpt><trkpt lat="43.4036567" lon="12.7694783"><ele>523.5</ele><time>2026-04-25T11:26:42.914Z</time></trkpt><trkpt lat="43.4035967" lon="12.7696417"><ele>517.0</ele><time>2026-04-25T11:26:43.912Z</time></trkpt><trkpt lat="43.403555" lon="12.7697917"><ele>510.5</ele><time>2026-04-25T11:26:44.914Z</time></trkpt><trkpt lat="43.4035467" lon="12.769935"><ele>504.0</ele><time>2026-04-25T11:26:45.911Z</time></trkpt><trkpt lat="43.4035633" lon="12.77007"><ele>499.75</ele><time>2026-04-25T11:26:46.955Z</time></trkpt><trkpt lat="43.4036217" lon="12.7701983"><ele>495.5</ele><time>2026-04-25T11:26:47.903Z</time></trkpt><trkpt lat="43.4037167" lon="12.7703117"><ele>491.25</ele><time>2026-04-25T11:26:48.908Z</time></trkpt><trkpt lat="43.4038167" lon="12.7704217"><ele>487.0</ele><time>2026-04-25T11:26:49.913Z</time></trkpt><trkpt lat="43.4039317" lon="12.77053"><ele>495.5</ele><time>2026-04-25T11:26:50.914Z</time></trkpt><trkpt lat="43.4040517" lon="12.7706283"><ele>504.0</ele><time>2026-04-25T11:26:51.907Z</time></trkpt><trkpt lat="43.4041783" lon="12.7707333"><ele>512.5</ele><time>2026-04-25T11:26:52.971Z</time></trkpt><trkpt lat="43.4043083" lon="12.7708367"><ele>521.0</ele><time>2026-04-25T11:26:53.91Z</time></trkpt><trkpt lat="43.4044467" lon="12.7709283"><ele>520.3333333333333</ele><time>2026-04-25T11:26:54.905Z</time></trkpt><trkpt lat="43.4045833" lon="12.7710267"><ele>519.6666666666666</ele><time>2026-04-25T11:26:55.915Z</time></trkpt><trkpt lat="43.4047217" lon="12.7711183"><ele>519.0</ele><time>2026-04-25T11:26:56.913Z</time></trkpt><trkpt lat="43.404865" lon="12.771195"><ele>519.0</ele><time>2026-04-25T11:26:57.906Z</time></trkpt><trkpt lat="43.40501" lon="12.771275"><ele>519.0</ele><time>2026-04-25T11:26:58.971Z</time></trkpt><trkpt lat="43.4051617" lon="12.7713417"><ele>519.0</ele><time>2026-04-25T11:26:59.907Z</time></trkpt><trkpt lat="43.4053117" lon="12.7714083"><ele>519.0</ele><time>2026-04-25T11:27:00.913Z</time></trkpt><trkpt lat="43.405465" lon="12.7714667"><ele>519.0</ele><time>2026-04-25T11:27:01.914Z</time></trkpt><trkpt lat="43.40562" lon="12.7715117"><ele>519.0</ele><time>2026-04-25T11:27:02.919Z</time></trkpt><trkpt lat="43.405785" lon="12.77153"><ele>523.3333333333334</ele><time>2026-04-25T11:27:03.919Z</time></trkpt><trkpt lat="43.4059633" lon="12.7715167"><ele>527.6666666666667</ele><time>2026-04-25T11:27:04.964Z</time></trkpt><trkpt lat="43.406145" lon="12.7714817"><ele>532.0</ele><time>2026-04-25T11:27:05.912Z</time></trkpt><trkpt lat="43.406325" lon="12.77144"><ele>532.3333333333334</ele><time>2026-04-25T11:27:06.913Z</time></trkpt><trkpt lat="43.4065033" lon="12.7714117"><ele>532.6666666666666</ele><time>2026-04-25T11:27:07.91Z</time></trkpt><trkpt lat="43.4066733" lon="12.77139"><ele>533.0</ele><time>2026-04-25T11:27:08.916Z</time></trkpt><trkpt lat="43.4068383" lon="12.7713883"><ele>533.0</ele><time>2026-04-25T11:27:09.906Z</time></trkpt><trkpt lat="43.4070017" lon="12.771395"><ele>533.0</ele><time>2026-04-25T11:27:10.961Z</time></trkpt><trkpt lat="43.40716" lon="12.7713967"><ele>533.0</ele><time>2026-04-25T11:27:11.911Z</time></trkpt><trkpt lat="43.4073183" lon="12.7714067"><ele>537.6666666666666</ele><time>2026-04-25T11:27:12.915Z</time></trkpt><trkpt lat="43.4074733" lon="12.77143"><ele>542.3333333333334</ele><time>2026-04-25T11:27:13.908Z</time></trkpt><trkpt lat="43.4076267" lon="12.7714583"><ele>547.0</ele><time>2026-04-25T11:27:14.915Z</time></trkpt><trkpt lat="43.40778" lon="12.7715133"><ele>547.0</ele><time>2026-04-25T11:27:15.912Z</time></trkpt><trkpt lat="43.4079333" lon="12.7715867"><ele>547.0</ele><time>2026-04-25T11:27:16.958Z</time></trkpt><trkpt lat="43.4080783" lon="12.771665"><ele>547.0</ele><time>2026-04-25T11:27:17.91Z</time></trkpt><trkpt lat="43.40822" lon="12.7717483"><ele>545.75</ele><time>2026-04-25T11:27:18.915Z</time></trkpt><trkpt lat="43.4083517" lon="12.7718267"><ele>544.5</ele><time>2026-04-25T11:27:19.907Z</time></trkpt><trkpt lat="43.4084817" lon="12.7719"><ele>543.25</ele><time>2026-04-25T11:27:20.911Z</time></trkpt><trkpt lat="43.4086167" lon="12.7719667"><ele>542.0</ele><time>2026-04-25T11:27:21.915Z</time></trkpt><trkpt lat="43.408745" lon="12.7720317"><ele>545.25</ele><time>2026-04-25T11:27:22.975Z</time></trkpt><trkpt lat="43.408875" lon="12.7720967"><ele>548.5</ele><time>2026-04-25T11:27:23.908Z</time></trkpt><trkpt lat="43.40899" lon="12.7721667"><ele>551.75</ele><time>2026-04-25T11:27:24.91Z</time></trkpt><trkpt lat="43.409085" lon="12.7722367"><ele>555.0</ele><time>2026-04-25T11:27:25.907Z</time></trkpt><trkpt lat="43.4091617" lon="12.7722967"><ele>555.0</ele><time>2026-04-25T11:27:26.915Z</time></trkpt><trkpt lat="43.409235" lon="12.7723533"><ele>555.0</ele><time>2026-04-25T11:27:27.915Z</time></trkpt><trkpt lat="43.4093033" lon="12.7724083"><ele>555.0</ele><time>2026-04-25T11:27:28.975Z</time></trkpt><trkpt lat="43.4093683" lon="12.7724567"><ele>555.0</ele><time>2026-04-25T11:27:29.911Z</time></trkpt><trkpt lat="43.40945" lon="12.7725083"><ele>555.0</ele><time>2026-04-25T11:27:30.914Z</time></trkpt><trkpt lat="43.4095383" lon="12.7725733"><ele>555.0</ele><time>2026-04-25T11:27:31.911Z</time></trkpt><trkpt lat="43.40962" lon="12.77266"><ele>552.6</ele><time>2026-04-25T11:27:32.916Z</time></trkpt><trkpt lat="43.4097067" lon="12.7727483"><ele>550.2</ele><time>2026-04-25T11:27:33.913Z</time></trkpt><trkpt lat="43.40979" lon="12.77284"><ele>547.8</ele><time>2026-04-25T11:27:34.961Z</time></trkpt><trkpt lat="43.4098733" lon="12.7729233"><ele>545.4</ele><time>2026-04-25T11:27:35.913Z</time></trkpt><trkpt lat="43.4099633" lon="12.7730067"><ele>543.0</ele><time>2026-04-25T11:27:36.911Z</time></trkpt><trkpt lat="43.41005" lon="12.77308"><ele>543.0</ele><time>2026-04-25T11:27:37.916Z</time></trkpt><trkpt lat="43.4101317" lon="12.773145"><ele>543.0</ele><time>2026-04-25T11:27:38.911Z</time></trkpt><trkpt lat="43.4102133" lon="12.7731917"><ele>543.0</ele><time>2026-04-25T11:27:39.919Z</time></trkpt><trkpt lat="43.4102983" lon="12.7732217"><ele>543.0</ele><time>2026-04-25T11:27:40.956Z</time></trkpt><trkpt lat="43.4103883" lon="12.7732367"><ele>543.0</ele><time>2026-04-25T11:27:41.911Z</time></trkpt><trkpt lat="43.4104833" lon="12.7732467"><ele>544.6666666666666</ele><time>2026-04-25T11:27:42.912Z</time></trkpt><trkpt lat="43.41058" lon="12.773245"><ele>546.3333333333334</ele><time>2026-04-25T11:27:43.914Z</time></trkpt><trkpt lat="43.4106733" lon="12.7732417"><ele>548.0</ele><time>2026-04-25T11:27:44.918Z</time></trkpt><trkpt lat="43.4107567" lon="12.773225"><ele>549.6666666666667</ele><time>2026-04-25T11:27:45.914Z</time></trkpt><trkpt lat="43.410835" lon="12.7732133"><ele>551.3333333333334</ele><time>2026-04-25T11:27:46.953Z</time></trkpt><trkpt lat="43.4108983" lon="12.773195"><ele>553.0</ele><time>2026-04-25T11:27:47.91Z</time></trkpt><trkpt lat="43.4110017" lon="12.7731983"><ele>553.0</ele><time>2026-04-25T11:27:49.911Z</time></trkpt><trkpt lat="43.4110783" lon="12.7732833"><ele>553.0</ele><time>2026-04-25T11:27:51.913Z</time></trkpt><trkpt lat="43.41116" lon="12.77341"><ele>553.0</ele><time>2026-04-25T11:27:53.912Z</time></trkpt><trkpt lat="43.4111933" lon="12.773485"><ele>553.0</ele><time>2026-04-25T11:27:54.912Z</time></trkpt><trkpt lat="43.41123" lon="12.77356"><ele>553.0</ele><time>2026-04-25T11:27:55.909Z</time></trkpt><trkpt lat="43.4112933" lon="12.77369"><ele>553.1666666666667</ele><time>2026-04-25T11:27:57.914Z</time></trkpt><trkpt lat="43.4113733" lon="12.7737883"><ele>553.3333333333334</ele><time>2026-04-25T11:27:59.91Z</time></trkpt><trkpt lat="43.4114233" lon="12.7738567"><ele>553.5</ele><time>2026-04-25T11:28:00.913Z</time></trkpt><trkpt lat="43.41148" lon="12.7739183"><ele>553.6666666666666</ele><time>2026-04-25T11:28:01.912Z</time></trkpt><trkpt lat="43.4115417" lon="12.77398"><ele>553.8333333333333</ele><time>2026-04-25T11:28:02.912Z</time></trkpt><trkpt lat="43.4115983" lon="12.7740183"><ele>554.0</ele><time>2026-04-25T11:28:03.919Z</time></trkpt><trkpt lat="43.4116567" lon="12.7740517"><ele>554.0</ele><time>2026-04-25T11:28:04.959Z</time></trkpt><trkpt lat="43.4117183" lon="12.7740767"><ele>554.0</ele><time>2026-04-25T11:28:05.912Z</time></trkpt><trkpt lat="43.4117933" lon="12.77409"><ele>554.0</ele><time>2026-04-25T11:28:06.909Z</time></trkpt><trkpt lat="43.4118683" lon="12.77412"><ele>554.0</ele><time>2026-04-25T11:28:07.912Z</time></trkpt><trkpt lat="43.41195" lon="12.77413"><ele>554.0</ele><time>2026-04-25T11:28:08.916Z</time></trkpt><trkpt lat="43.41203" lon="12.7741167"><ele>554.0</ele><time>2026-04-25T11:28:09.921Z</time></trkpt><trkpt lat="43.412105" lon="12.7740933"><ele>557.0</ele><time>2026-04-25T11:28:10.963Z</time></trkpt><trkpt lat="43.412175" lon="12.774065"><ele>560.0</ele><time>2026-04-25T11:28:11.909Z</time></trkpt><trkpt lat="43.41226" lon="12.7740467"><ele>563.0</ele><time>2026-04-25T11:28:12.915Z</time></trkpt><trkpt lat="43.41233" lon="12.7740217"><ele>566.0</ele><time>2026-04-25T11:28:13.92Z</time></trkpt><trkpt lat="43.41244" lon="12.7739733"><ele>569.0</ele><time>2026-04-25T11:28:15.919Z</time></trkpt><trkpt lat="43.41256" lon="12.7739817"><ele>569.0</ele><time>2026-04-25T11:28:17.908Z</time></trkpt><trkpt lat="43.412625" lon="12.77401"><ele>569.0</ele><time>2026-04-25T11:28:18.909Z</time></trkpt><trkpt lat="43.4126867" lon="12.7740483"><ele>569.0</ele><time>2026-04-25T11:28:19.916Z</time></trkpt><trkpt lat="43.4128017" lon="12.7741033"><ele>569.0</ele><time>2026-04-25T11:28:21.912Z</time></trkpt><trkpt lat="43.412905" lon="12.7740917"><ele>569.0</ele><time>2026-04-25T11:28:23.908Z</time></trkpt><trkpt lat="43.4130217" lon="12.774035"><ele>570.1666666666666</ele><time>2026-04-25T11:28:25.914Z</time></trkpt><trkpt lat="43.4130933" lon="12.7739733"><ele>571.3333333333333</ele><time>2026-04-25T11:28:26.912Z</time></trkpt><trkpt lat="43.41316" lon="12.77392"><ele>572.5</ele><time>2026-04-25T11:28:27.912Z</time></trkpt><trkpt lat="43.4132217" lon="12.7738467"><ele>573.6666666666666</ele><time>2026-04-25T11:28:28.974Z</time></trkpt><trkpt lat="43.413285" lon="12.77379"><ele>574.8333333333334</ele><time>2026-04-25T11:28:29.91Z</time></trkpt><trkpt lat="43.4133783" lon="12.7737217"><ele>576.0</ele><time>2026-04-25T11:28:31.909Z</time></trkpt><trkpt lat="43.4134833" lon="12.7736533"><ele>576.0</ele><time>2026-04-25T11:28:33.904Z</time></trkpt><trkpt lat="43.4135433" lon="12.7735983"><ele>576.0</ele><time>2026-04-25T11:28:34.961Z</time></trkpt><trkpt lat="43.4135983" lon="12.773525"><ele>576.0</ele><time>2026-04-25T11:28:35.911Z</time></trkpt><trkpt lat="43.41365" lon="12.7734567"><ele>576.0</ele><time>2026-04-25T11:28:36.913Z</time></trkpt><trkpt lat="43.413705" lon="12.77339"><ele>576.0</ele><time>2026-04-25T11:28:37.916Z</time></trkpt><trkpt lat="43.4137617" lon="12.7733133"><ele>576.0</ele><time>2026-04-25T11:28:38.911Z</time></trkpt><trkpt lat="43.4138183" lon="12.7732417"><ele>580.6666666666666</ele><time>2026-04-25T11:28:39.911Z</time></trkpt><trkpt lat="43.4138717" lon="12.77318"><ele>585.3333333333334</ele><time>2026-04-25T11:28:40.958Z</time></trkpt><trkpt lat="43.4139717" lon="12.7730917"><ele>590.0</ele><time>2026-04-25T11:28:42.914Z</time></trkpt><trkpt lat="43.4140233" lon="12.7730417"><ele>594.6666666666667</ele><time>2026-04-25T11:28:43.907Z</time></trkpt><trkpt lat="43.414115" lon="12.772915"><ele>599.3333333333334</ele><time>2026-04-25T11:28:45.916Z</time></trkpt><trkpt lat="43.4141517" lon="12.7728383"><ele>604.0</ele><time>2026-04-25T11:28:46.964Z</time></trkpt><trkpt lat="43.414215" lon="12.772725"><ele>608.6666666666667</ele><time>2026-04-25T11:28:48.913Z</time></trkpt><trkpt lat="43.414305" lon="12.7725933"><ele>613.3333333333334</ele><time>2026-04-25T11:28:50.915Z</time></trkpt><trkpt lat="43.4143667" lon="12.7725417"><ele>618.0</ele><time>2026-04-25T11:28:51.901Z</time></trkpt><trkpt lat="43.4144333" lon="12.7724867"><ele>622.6666666666666</ele><time>2026-04-25T11:28:52.97Z</time></trkpt><trkpt lat="43.414495" lon="12.7724517"><ele>627.3333333333333</ele><time>2026-04-25T11:28:53.908Z</time></trkpt><trkpt lat="43.41456" lon="12.7724183"><ele>632.0</ele><time>2026-04-25T11:28:54.907Z</time></trkpt><trkpt lat="43.4146333" lon="12.7723833"><ele>633.0000000000001</ele><time>2026-04-25T11:28:55.914Z</time></trkpt><trkpt lat="43.41471" lon="12.77235"><ele>634.0</ele><time>2026-04-25T11:28:56.913Z</time></trkpt><trkpt lat="43.4147833" lon="12.77232"><ele>635.0</ele><time>2026-04-25T11:28:57.912Z</time></trkpt><trkpt lat="43.4148483" lon="12.7722733"><ele>636.0</ele><time>2026-04-25T11:28:58.971Z</time></trkpt><trkpt lat="43.414915" lon="12.7722217"><ele>637.0</ele><time>2026-04-25T11:28:59.909Z</time></trkpt><trkpt lat="43.4149763" lon="12.7721651"><ele>638.0000000000001</ele><time>2026-04-25T11:29:00.912Z</time></trkpt><trkpt lat="43.4150316" lon="12.7721195"><ele>639.0</ele><time>2026-04-25T11:29:01.918Z</time></trkpt><trkpt lat="43.4151276" lon="12.7720459"><ele>639.0</ele><time>2026-04-25T11:29:03.914Z</time></trkpt><trkpt lat="43.4152289" lon="12.7719401"><ele>639.0</ele><time>2026-04-25T11:29:05.909Z</time></trkpt><trkpt lat="43.4152894" lon="12.7718729"><ele>639.0</ele><time>2026-04-25T11:29:06.913Z</time></trkpt><trkpt lat="43.4153517" lon="12.7718001"><ele>639.0</ele><time>2026-04-25T11:29:07.913Z</time></trkpt><trkpt lat="43.4154086" lon="12.7717182"><ele>639.0</ele><time>2026-04-25T11:29:08.913Z</time></trkpt><trkpt lat="43.4154578" lon="12.7716316"><ele>639.0</ele><time>2026-04-25T11:29:09.909Z</time></trkpt><trkpt lat="43.4155061" lon="12.7715453"><ele>641.1666666666666</ele><time>2026-04-25T11:29:10.958Z</time></trkpt><trkpt lat="43.4155401" lon="12.7714673"><ele>643.3333333333334</ele><time>2026-04-25T11:29:11.914Z</time></trkpt><trkpt lat="43.415607" lon="12.7713311"><ele>645.5</ele><time>2026-04-25T11:29:13.916Z</time></trkpt><trkpt lat="43.4156609" lon="12.7712613"><ele>647.6666666666667</ele><time>2026-04-25T11:29:14.916Z</time></trkpt><trkpt lat="43.4157306" lon="12.7711956"><ele>649.8333333333334</ele><time>2026-04-25T11:29:15.915Z</time></trkpt><trkpt lat="43.4158015" lon="12.7711304"><ele>652.0</ele><time>2026-04-25T11:29:16.955Z</time></trkpt><trkpt lat="43.4158627" lon="12.771063"><ele>656.6666666666667</ele><time>2026-04-25T11:29:17.912Z</time></trkpt><trkpt lat="43.4159179" lon="12.7709931"><ele>661.3333333333334</ele><time>2026-04-25T11:29:18.914Z</time></trkpt><trkpt lat="43.4159624" lon="12.7709216"><ele>666.0</ele><time>2026-04-25T11:29:19.912Z</time></trkpt><trkpt lat="43.4160118" lon="12.770851"><ele>670.6666666666666</ele><time>2026-04-25T11:29:20.915Z</time></trkpt><trkpt lat="43.416068" lon="12.7707814"><ele>675.3333333333333</ele><time>2026-04-25T11:29:21.92Z</time></trkpt><trkpt lat="43.4161287" lon="12.7707106"><ele>680.0</ele><time>2026-04-25T11:29:22.977Z</time></trkpt><trkpt lat="43.4161912" lon="12.7706392"><ele>680.0</ele><time>2026-04-25T11:29:23.904Z</time></trkpt><trkpt lat="43.4162602" lon="12.7705592"><ele>680.0</ele><time>2026-04-25T11:29:24.911Z</time></trkpt><trkpt lat="43.4163228" lon="12.7704756"><ele>680.0</ele><time>2026-04-25T11:29:25.914Z</time></trkpt><trkpt lat="43.4163804" lon="12.7703964"><ele>680.0</ele><time>2026-04-25T11:29:26.916Z</time></trkpt><trkpt lat="43.4164391" lon="12.7703258"><ele>680.0</ele><time>2026-04-25T11:29:27.918Z</time></trkpt><trkpt lat="43.4165014" lon="12.7702586"><ele>680.0</ele><time>2026-04-25T11:29:28.974Z</time></trkpt><trkpt lat="43.4165552" lon="12.7701944"><ele>682.4285714285714</ele><time>2026-04-25T11:29:29.912Z</time></trkpt><trkpt lat="43.4166034" lon="12.7701255"><ele>684.8571428571428</ele><time>2026-04-25T11:29:30.911Z</time></trkpt><trkpt lat="43.4166526" lon="12.7700556"><ele>687.2857142857142</ele><time>2026-04-25T11:29:31.904Z</time></trkpt><trkpt lat="43.4167079" lon="12.7699879"><ele>689.7142857142858</ele><time>2026-04-25T11:29:32.911Z</time></trkpt><trkpt lat="43.4167648" lon="12.769919"><ele>692.1428571428571</ele><time>2026-04-25T11:29:33.914Z</time></trkpt><trkpt lat="43.4168223" lon="12.7698588"><ele>694.5714285714286</ele><time>2026-04-25T11:29:34.956Z</time></trkpt><trkpt lat="43.4168708" lon="12.7697964"><ele>697.0</ele><time>2026-04-25T11:29:35.911Z</time></trkpt><trkpt lat="43.4169179" lon="12.7697295"><ele>697.0</ele><time>2026-04-25T11:29:36.912Z</time></trkpt><trkpt lat="43.416964" lon="12.7696665"><ele>697.0</ele><time>2026-04-25T11:29:37.919Z</time></trkpt><trkpt lat="43.4170653" lon="12.7695565"><ele>697.0</ele><time>2026-04-25T11:29:39.914Z</time></trkpt><trkpt lat="43.417131" lon="12.7695055"><ele>697.0</ele><time>2026-04-25T11:29:40.965Z</time></trkpt><trkpt lat="43.4172045" lon="12.7694593"><ele>697.0</ele><time>2026-04-25T11:29:41.908Z</time></trkpt><trkpt lat="43.4172924" lon="12.7694177"><ele>697.0</ele><time>2026-04-25T11:29:42.915Z</time></trkpt><trkpt lat="43.4173754" lon="12.7693717"><ele>700.3333333333334</ele><time>2026-04-25T11:29:43.912Z</time></trkpt><trkpt lat="43.4174556" lon="12.769324"><ele>703.6666666666667</ele><time>2026-04-25T11:29:44.915Z</time></trkpt><trkpt lat="43.4175329" lon="12.7692759"><ele>707.0</ele><time>2026-04-25T11:29:45.909Z</time></trkpt><trkpt lat="43.4176105" lon="12.769223"><ele>710.3333333333334</ele><time>2026-04-25T11:29:46.959Z</time></trkpt><trkpt lat="43.4176814" lon="12.7691762"><ele>713.6666666666666</ele><time>2026-04-25T11:29:47.913Z</time></trkpt><trkpt lat="43.417751" lon="12.7691324"><ele>717.0</ele><time>2026-04-25T11:29:48.911Z</time></trkpt><trkpt lat="43.4178247" lon="12.7690934"><ele>717.0</ele><time>2026-04-25T11:29:49.911Z</time></trkpt><trkpt lat="43.4179066" lon="12.7690528"><ele>717.0</ele><time>2026-04-25T11:29:50.917Z</time></trkpt><trkpt lat="43.4179901" lon="12.7690053"><ele>717.0</ele><time>2026-04-25T11:29:51.913Z</time></trkpt><trkpt lat="43.4180717" lon="12.7689599"><ele>717.0</ele><time>2026-04-25T11:29:52.982Z</time></trkpt><trkpt lat="43.4181425" lon="12.7689207"><ele>717.0</ele><time>2026-04-25T11:29:53.911Z</time></trkpt><trkpt lat="43.4182039" lon="12.768878"><ele>717.0</ele><time>2026-04-25T11:29:54.912Z</time></trkpt><trkpt lat="43.4182897" lon="12.7687918"><ele>716.1666666666666</ele><time>2026-04-25T11:29:56.918Z</time></trkpt><trkpt lat="43.4183367" lon="12.76869"><ele>715.3333333333334</ele><time>2026-04-25T11:29:58.977Z</time></trkpt><trkpt lat="43.41839" lon="12.768595"><ele>714.5</ele><time>2026-04-25T11:30:00.912Z</time></trkpt><trkpt lat="43.41843" lon="12.7684983"><ele>713.6666666666667</ele><time>2026-04-25T11:30:02.907Z</time></trkpt><trkpt lat="43.41845" lon="12.7683817"><ele>712.8333333333334</ele><time>2026-04-25T11:30:04.96Z</time></trkpt><trkpt lat="43.418435" lon="12.7682667"><ele>712.0</ele><time>2026-04-25T11:30:06.913Z</time></trkpt><trkpt lat="43.4184083" lon="12.7681333"><ele>711.9999999999999</ele><time>2026-04-25T11:30:09.908Z</time></trkpt><trkpt lat="43.41837" lon="12.7680533"><ele>712.0</ele><time>2026-04-25T11:30:12.918Z</time></trkpt><trkpt lat="43.41832" lon="12.7679733"><ele>712.0</ele><time>2026-04-25T11:30:15.915Z</time></trkpt><trkpt lat="43.4182917" lon="12.76789"><ele>712.0</ele><time>2026-04-25T11:30:18.911Z</time></trkpt><trkpt lat="43.418275" lon="12.7677933"><ele>712.0</ele><time>2026-04-25T11:30:21.91Z</time></trkpt><trkpt lat="43.41823" lon="12.7677017"><ele>711.9999999999999</ele><time>2026-04-25T11:30:24.912Z</time></trkpt><trkpt lat="43.4181833" lon="12.767615"><ele>712.0</ele><time>2026-04-25T11:30:26.913Z</time></trkpt><trkpt lat="43.418145" lon="12.767535"><ele>715.8</ele><time>2026-04-25T11:30:28.977Z</time></trkpt><trkpt lat="43.4180967" lon="12.7674183"><ele>719.6</ele><time>2026-04-25T11:30:31.902Z</time></trkpt><trkpt lat="43.4180233" lon="12.7673"><ele>723.4</ele><time>2026-04-25T11:30:33.915Z</time></trkpt><trkpt lat="43.41795" lon="12.7671867"><ele>727.1999999999999</ele><time>2026-04-25T11:30:35.909Z</time></trkpt><trkpt lat="43.4178883" lon="12.7670933"><ele>731.0</ele><time>2026-04-25T11:30:37.899Z</time></trkpt><trkpt lat="43.4178217" lon="12.76701"><ele>731.0</ele><time>2026-04-25T11:30:39.913Z</time></trkpt><trkpt lat="43.4177633" lon="12.7669183"><ele>731.0</ele><time>2026-04-25T11:30:41.9Z</time></trkpt><trkpt lat="43.41773" lon="12.7668133"><ele>731.0</ele><time>2026-04-25T11:30:44.913Z</time></trkpt><trkpt lat="43.4176883" lon="12.766725"><ele>731.0</ele><time>2026-04-25T11:30:47.908Z</time></trkpt><trkpt lat="43.41762" lon="12.7666283"><ele>731.0</ele><time>2026-04-25T11:30:49.906Z</time></trkpt><trkpt lat="43.4175667" lon="12.766535"><ele>731.0</ele><time>2026-04-25T11:30:51.906Z</time></trkpt><trkpt lat="43.417505" lon="12.7664367"><ele>728.3333333333333</ele><time>2026-04-25T11:30:53.909Z</time></trkpt><trkpt lat="43.41744" lon="12.7663483"><ele>725.6666666666666</ele><time>2026-04-25T11:30:55.925Z</time></trkpt><trkpt lat="43.41735" lon="12.76627"><ele>723.0</ele><time>2026-04-25T11:30:57.915Z</time></trkpt><trkpt lat="43.41729" lon="12.76623"><ele>720.3333333333334</ele><time>2026-04-25T11:30:58.973Z</time></trkpt><trkpt lat="43.4171883" lon="12.7661533"><ele>717.6666666666667</ele><time>2026-04-25T11:31:00.911Z</time></trkpt><trkpt lat="43.4171267" lon="12.7661267"><ele>715.0</ele><time>2026-04-25T11:31:01.914Z</time></trkpt><trkpt lat="43.4170133" lon="12.7660817"><ele>715.25</ele><time>2026-04-25T11:31:03.909Z</time></trkpt><trkpt lat="43.4168867" lon="12.76603"><ele>715.5</ele><time>2026-04-25T11:31:05.908Z</time></trkpt><trkpt lat="43.4167733" lon="12.76599"><ele>715.75</ele><time>2026-04-25T11:31:07.913Z</time></trkpt><trkpt lat="43.416655" lon="12.7659233"><ele>716.0</ele><time>2026-04-25T11:31:09.912Z</time></trkpt><trkpt lat="43.41654" lon="12.76587"><ele>716.0</ele><time>2026-04-25T11:31:11.914Z</time></trkpt><trkpt lat="43.4164817" lon="12.7658233"><ele>716.0</ele><time>2026-04-25T11:31:12.912Z</time></trkpt><trkpt lat="43.4164167" lon="12.7657817"><ele>716.0</ele><time>2026-04-25T11:31:13.907Z</time></trkpt><trkpt lat="43.416355" lon="12.7657017"><ele>716.0</ele><time>2026-04-25T11:31:14.92Z</time></trkpt><trkpt lat="43.4162933" lon="12.7656333"><ele>716.0</ele><time>2026-04-25T11:31:15.915Z</time></trkpt><trkpt lat="43.416235" lon="12.7655633"><ele>716.0</ele><time>2026-04-25T11:31:16.951Z</time></trkpt><trkpt lat="43.416175" lon="12.7654933"><ele>717.0000000000001</ele><time>2026-04-25T11:31:17.903Z</time></trkpt><trkpt lat="43.416125" lon="12.765425"><ele>718.0</ele><time>2026-04-25T11:31:18.913Z</time></trkpt><trkpt lat="43.4160717" lon="12.7653583"><ele>719.0</ele><time>2026-04-25T11:31:19.913Z</time></trkpt><trkpt lat="43.41602" lon="12.7652983"><ele>720.0</ele><time>2026-04-25T11:31:20.915Z</time></trkpt><trkpt lat="43.4159767" lon="12.7652183"><ele>721.0</ele><time>2026-04-25T11:31:22.974Z</time></trkpt><trkpt lat="43.41596" lon="12.765125"><ele>722.0000000000001</ele><time>2026-04-25T11:31:27.906Z</time></trkpt><trkpt lat="43.4159083" lon="12.7650367"><ele>723.0</ele><time>2026-04-25T11:31:37.912Z</time></trkpt><trkpt lat="43.4158583" lon="12.76498"><ele>723.0</ele><time>2026-04-25T11:31:39.914Z</time></trkpt><trkpt lat="43.4157833" lon="12.7648833"><ele>723.0</ele><time>2026-04-25T11:31:41.912Z</time></trkpt><trkpt lat="43.4157367" lon="12.76482"><ele>723.0</ele><time>2026-04-25T11:31:42.913Z</time></trkpt><trkpt lat="43.41566" lon="12.764705"><ele>723.0</ele><time>2026-04-25T11:31:44.913Z</time></trkpt><trkpt lat="43.4156183" lon="12.764615"><ele>723.0</ele><time>2026-04-25T11:31:47.901Z</time></trkpt><trkpt lat="43.4155817" lon="12.764495"><ele>723.0</ele><time>2026-04-25T11:31:52.982Z</time></trkpt><trkpt lat="43.4155383" lon="12.7643633"><ele>723.0</ele><time>2026-04-25T11:31:54.911Z</time></trkpt><trkpt lat="43.4155033" lon="12.7642483"><ele>723.0</ele><time>2026-04-25T11:31:56.904Z</time></trkpt><trkpt lat="43.4154683" lon="12.7641333"><ele>723.0</ele><time>2026-04-25T11:31:58.964Z</time></trkpt><trkpt lat="43.4154367" lon="12.7640083"><ele>723.0</ele><time>2026-04-25T11:32:00.904Z</time></trkpt><trkpt lat="43.4154083" lon="12.7638933"><ele>727.1666666666666</ele><time>2026-04-25T11:32:02.912Z</time></trkpt><trkpt lat="43.4153917" lon="12.7637667"><ele>731.3333333333334</ele><time>2026-04-25T11:32:04.957Z</time></trkpt><trkpt lat="43.4153583" lon="12.7636533"><ele>735.5</ele><time>2026-04-25T11:32:06.919Z</time></trkpt><trkpt lat="43.4153083" lon="12.7635633"><ele>739.6666666666667</ele><time>2026-04-25T11:32:08.907Z</time></trkpt><trkpt lat="43.4152667" lon="12.7634967"><ele>743.8333333333334</ele><time>2026-04-25T11:32:10.962Z</time></trkpt><trkpt lat="43.4152317" lon="12.7634083"><ele>748.0</ele><time>2026-04-25T11:33:29.903Z</time></trkpt><trkpt lat="43.415275" lon="12.7632933"><ele>748.0</ele><time>2026-04-25T11:34:03.911Z</time></trkpt><trkpt lat="43.4152017" lon="12.7633633"><ele>748.0</ele><time>2026-04-25T11:34:24.908Z</time></trkpt><trkpt lat="43.4152083" lon="12.7634567"><ele>748.0</ele><time>2026-04-25T11:34:44.916Z</time></trkpt><trkpt lat="43.4153183" lon="12.7633733"><ele>748.0</ele><time>2026-04-25T11:35:18.911Z</time></trkpt><trkpt lat="43.4153833" lon="12.7634967"><ele>748.0</ele><time>2026-04-25T11:36:46.952Z</time></trkpt><trkpt lat="43.41531" lon="12.7635083"><ele>748.0</ele><time>2026-04-25T11:36:57.913Z</time></trkpt><trkpt lat="43.4152217" lon="12.763425"><ele>748.0</ele><time>2026-04-25T11:37:07.905Z</time></trkpt><trkpt lat="43.4151467" lon="12.7634"><ele>748.0</ele><time>2026-04-25T11:37:17.907Z</time></trkpt><trkpt lat="43.4152133" lon="12.7634817"><ele>748.0</ele><time>2026-04-25T11:37:38.909Z</time></trkpt><trkpt lat="43.4152533" lon="12.7635783"><ele>748.0</ele><time>2026-04-25T11:37:42.914Z</time></trkpt><trkpt lat="43.4153217" lon="12.76367"><ele>749.1666666666667</ele><time>2026-04-25T11:37:45.917Z</time></trkpt><trkpt lat="43.41536" lon="12.7637733"><ele>750.3333333333334</ele><time>2026-04-25T11:37:47.909Z</time></trkpt><trkpt lat="43.415375" lon="12.76386"><ele>751.5</ele><time>2026-04-25T11:37:48.907Z</time></trkpt><trkpt lat="43.4154067" lon="12.76401"><ele>752.6666666666666</ele><time>2026-04-25T11:37:50.912Z</time></trkpt><trkpt lat="43.4154467" lon="12.7641433"><ele>753.8333333333333</ele><time>2026-04-25T11:37:52.978Z</time></trkpt><trkpt lat="43.4154833" lon="12.764235"><ele>755.0</ele><time>2026-04-25T11:37:54.913Z</time></trkpt><trkpt lat="43.41551" lon="12.7643183"><ele>748.6</ele><time>2026-04-25T11:37:56.912Z</time></trkpt><trkpt lat="43.4155517" lon="12.76442"><ele>742.2</ele><time>2026-04-25T11:38:07.904Z</time></trkpt><trkpt lat="43.4156183" lon="12.7645117"><ele>735.8</ele><time>2026-04-25T11:38:09.919Z</time></trkpt><trkpt lat="43.415665" lon="12.7645917"><ele>729.4</ele><time>2026-04-25T11:38:11.902Z</time></trkpt><trkpt lat="43.415715" lon="12.76471"><ele>723.0</ele><time>2026-04-25T11:38:14.915Z</time></trkpt><trkpt lat="43.415775" lon="12.7648167"><ele>723.0</ele><time>2026-04-25T11:38:16.957Z</time></trkpt><trkpt lat="43.4158333" lon="12.764925"><ele>723.0</ele><time>2026-04-25T11:38:18.911Z</time></trkpt><trkpt lat="43.415875" lon="12.7650067"><ele>723.0</ele><time>2026-04-25T11:38:20.912Z</time></trkpt><trkpt lat="43.4159283" lon="12.7650783"><ele>723.0</ele><time>2026-04-25T11:38:22.973Z</time></trkpt><trkpt lat="43.4158717" lon="12.7650017"><ele>723.0</ele><time>2026-04-25T11:38:39.912Z</time></trkpt><trkpt lat="43.4158183" lon="12.7649483"><ele>723.0</ele><time>2026-04-25T11:38:41.909Z</time></trkpt><trkpt lat="43.4157283" lon="12.764905"><ele>723.0</ele><time>2026-04-25T11:38:43.906Z</time></trkpt><trkpt lat="43.4156383" lon="12.7648517"><ele>723.0</ele><time>2026-04-25T11:38:45.914Z</time></trkpt><trkpt lat="43.41558" lon="12.7647817"><ele>723.0</ele><time>2026-04-25T11:38:47.911Z</time></trkpt><trkpt lat="43.415515" lon="12.7646883"><ele>723.0</ele><time>2026-04-25T11:38:49.916Z</time></trkpt><trkpt lat="43.4154383" lon="12.76459"><ele>723.0</ele><time>2026-04-25T11:38:51.909Z</time></trkpt><trkpt lat="43.4153433" lon="12.7645183"><ele>728.3333333333334</ele><time>2026-04-25T11:38:53.907Z</time></trkpt><trkpt lat="43.4152933" lon="12.76444"><ele>733.6666666666666</ele><time>2026-04-25T11:38:54.916Z</time></trkpt><trkpt lat="43.415215" lon="12.7643283"><ele>739.0</ele><time>2026-04-25T11:38:56.908Z</time></trkpt><trkpt lat="43.41517" lon="12.7642483"><ele>744.3333333333333</ele><time>2026-04-25T11:38:57.91Z</time></trkpt><trkpt lat="43.4151317" lon="12.7641667"><ele>749.6666666666666</ele><time>2026-04-25T11:38:58.968Z</time></trkpt><trkpt lat="43.4151" lon="12.764085"><ele>755.0</ele><time>2026-04-25T11:38:59.912Z</time></trkpt><trkpt lat="43.4150633" lon="12.7639917"><ele>755.0</ele><time>2026-04-25T11:39:00.901Z</time></trkpt><trkpt lat="43.4150283" lon="12.7638817"><ele>755.0</ele><time>2026-04-25T11:39:01.912Z</time></trkpt><trkpt lat="43.4149883" lon="12.7637833"><ele>755.0</ele><time>2026-04-25T11:39:02.909Z</time></trkpt><trkpt lat="43.4149317" lon="12.7636917"><ele>755.0</ele><time>2026-04-25T11:39:03.91Z</time></trkpt><trkpt lat="43.414835" lon="12.7636133"><ele>755.0</ele><time>2026-04-25T11:39:05.904Z</time></trkpt><trkpt lat="43.4147783" lon="12.7635033"><ele>753.6</ele><time>2026-04-25T11:39:07.91Z</time></trkpt><trkpt lat="43.4147167" lon="12.7634"><ele>752.2</ele><time>2026-04-25T11:39:44.904Z</time></trkpt><trkpt lat="43.4147183" lon="12.7633117"><ele>750.8</ele><time>2026-04-25T11:40:17.902Z</time></trkpt><trkpt lat="43.4146483" lon="12.7632717"><ele>749.4</ele><time>2026-04-25T11:40:30.91Z</time></trkpt><trkpt lat="43.4147533" lon="12.7632633"><ele>748.0</ele><time>2026-04-25T11:40:32.909Z</time></trkpt><trkpt lat="43.4149367" lon="12.76334"><ele>748.0</ele><time>2026-04-25T11:41:04.956Z</time></trkpt><trkpt lat="43.4148717" lon="12.7633733"><ele>748.0</ele><time>2026-04-25T11:41:15.919Z</time></trkpt><trkpt lat="43.4148" lon="12.763365"><ele>748.0</ele><time>2026-04-25T11:41:16.956Z</time></trkpt><trkpt lat="43.41473" lon="12.763365"><ele>748.0</ele><time>2026-04-25T11:41:18.911Z</time></trkpt><trkpt lat="43.4147883" lon="12.7634217"><ele>748.0</ele><time>2026-04-25T11:41:36.906Z</time></trkpt><trkpt lat="43.4148833" lon="12.763425"><ele>748.0</ele><time>2026-04-25T11:42:00.916Z</time></trkpt><trkpt lat="43.4147517" lon="12.763355"><ele>748.0</ele><time>2026-04-25T11:43:02.916Z</time></trkpt><trkpt lat="43.4146733" lon="12.763335"><ele>748.0</ele><time>2026-04-25T11:43:16.958Z</time></trkpt><trkpt lat="43.4147367" lon="12.76332"><ele>748.0</ele><time>2026-04-25T11:43:42.91Z</time></trkpt><trkpt lat="43.4148433" lon="12.7633367"><ele>748.0</ele><time>2026-04-25T11:44:27.921Z</time></trkpt><trkpt lat="43.4147117" lon="12.7633217"><ele>748.0</ele><time>2026-04-25T11:45:01.909Z</time></trkpt><trkpt lat="43.4146417" lon="12.7633067"><ele>748.0</ele><time>2026-04-25T11:45:10.957Z</time></trkpt><trkpt lat="43.4146917" lon="12.76337"><ele>748.0</ele><time>2026-04-25T11:45:28.968Z</time></trkpt><trkpt lat="43.4147683" lon="12.7633"><ele>748.0</ele><time>2026-04-25T11:45:36.912Z</time></trkpt><trkpt lat="43.414805" lon="12.7633967"><ele>748.0</ele><time>2026-04-25T11:45:53.912Z</time></trkpt><trkpt lat="43.4148683" lon="12.7633583"><ele>748.0</ele><time>2026-04-25T11:46:48.912Z</time></trkpt><trkpt lat="43.4147733" lon="12.7633567"><ele>748.0</ele><time>2026-04-25T11:46:56.926Z</time></trkpt><trkpt lat="43.4146967" lon="12.7633433"><ele>748.0</ele><time>2026-04-25T11:47:00.918Z</time></trkpt><trkpt lat="43.4148083" lon="12.7633617"><ele>748.0</ele><time>2026-04-25T11:47:21.903Z</time></trkpt><trkpt lat="43.414745" lon="12.7632883"><ele>748.0</ele><time>2026-04-25T11:47:29.901Z</time></trkpt><trkpt lat="43.414775" lon="12.7634067"><ele>748.0</ele><time>2026-04-25T11:47:55.913Z</time></trkpt><trkpt lat="43.41484" lon="12.7633767"><ele>748.0</ele><time>2026-04-25T11:48:34.952Z</time></trkpt><trkpt lat="43.41476" lon="12.7633217"><ele>748.0</ele><time>2026-04-25T11:48:53.903Z</time></trkpt><trkpt lat="43.41485" lon="12.7633783"><ele>748.0</ele><time>2026-04-25T11:49:27.906Z</time></trkpt><trkpt lat="43.41475" lon="12.763305"><ele>748.0</ele><time>2026-04-25T11:49:42.906Z</time></trkpt><trkpt lat="43.414815" lon="12.7633117"><ele>748.0</ele><time>2026-04-25T11:49:48.918Z</time></trkpt><trkpt lat="43.4147917" lon="12.763225"><ele>748.0</ele><time>2026-04-25T11:49:53.905Z</time></trkpt><trkpt lat="43.4147" lon="12.7633033"><ele>748.0</ele><time>2026-04-25T11:50:12.901Z</time></trkpt><trkpt lat="43.4147217" lon="12.76339"><ele>748.0</ele><time>2026-04-25T11:50:47.904Z</time></trkpt><trkpt lat="43.414785" lon="12.7634367"><ele>748.0</ele><time>2026-04-25T11:51:30.906Z</time></trkpt><trkpt lat="43.41474" lon="12.7633583"><ele>748.0</ele><time>2026-04-25T11:51:47.904Z</time></trkpt><trkpt lat="43.4147967" lon="12.7634433"><ele>748.0</ele><time>2026-04-25T11:52:12.905Z</time></trkpt><trkpt lat="43.4148483" lon="12.7634933"><ele>748.0</ele><time>2026-04-25T11:52:14.903Z</time></trkpt><trkpt lat="43.4148983" lon="12.763555"><ele>748.0</ele><time>2026-04-25T11:52:16.961Z</time></trkpt><trkpt lat="43.4149483" lon="12.7636533"><ele>748.0</ele><time>2026-04-25T11:52:19.9Z</time></trkpt><trkpt lat="43.415025" lon="12.763785"><ele>749.1666666666667</ele><time>2026-04-25T11:52:22.981Z</time></trkpt><trkpt lat="43.4151" lon="12.7638767"><ele>750.3333333333334</ele><time>2026-04-25T11:52:24.91Z</time></trkpt><trkpt lat="43.41517" lon="12.7639633"><ele>751.5</ele><time>2026-04-25T11:52:26.912Z</time></trkpt><trkpt lat="43.41521" lon="12.7640633"><ele>752.6666666666666</ele><time>2026-04-25T11:52:28.965Z</time></trkpt><trkpt lat="43.415245" lon="12.7641383"><ele>753.8333333333333</ele><time>2026-04-25T11:52:30.914Z</time></trkpt><trkpt lat="43.4153083" lon="12.7642283"><ele>755.0</ele><time>2026-04-25T11:52:33.917Z</time></trkpt><trkpt lat="43.4153617" lon="12.76431"><ele>759.3333333333333</ele><time>2026-04-25T11:52:36.903Z</time></trkpt><trkpt lat="43.415415" lon="12.7644"><ele>763.6666666666666</ele><time>2026-04-25T11:52:39.912Z</time></trkpt><trkpt lat="43.4154517" lon="12.7644817"><ele>768.0</ele><time>2026-04-25T11:52:41.909Z</time></trkpt><trkpt lat="43.4154933" lon="12.7645667"><ele>772.3333333333333</ele><time>2026-04-25T11:52:43.912Z</time></trkpt><trkpt lat="43.4155333" lon="12.7646733"><ele>776.6666666666666</ele><time>2026-04-25T11:52:45.905Z</time></trkpt><trkpt lat="43.4155717" lon="12.76476"><ele>781.0</ele><time>2026-04-25T11:52:47.905Z</time></trkpt><trkpt lat="43.4156367" lon="12.7648283"><ele>775.5999999999999</ele><time>2026-04-25T11:52:49.908Z</time></trkpt><trkpt lat="43.4157117" lon="12.76491"><ele>770.2</ele><time>2026-04-25T11:52:51.913Z</time></trkpt><trkpt lat="43.41578" lon="12.7649867"><ele>764.8</ele><time>2026-04-25T11:52:53.912Z</time></trkpt><trkpt lat="43.4158367" lon="12.76506"><ele>759.4000000000001</ele><time>2026-04-25T11:52:55.908Z</time></trkpt><trkpt lat="43.4159083" lon="12.7651467"><ele>754.0</ele><time>2026-04-25T11:52:57.908Z</time></trkpt><trkpt lat="43.4159967" lon="12.765265"><ele>754.0</ele><time>2026-04-25T11:52:59.905Z</time></trkpt><trkpt lat="43.4160483" lon="12.7653267"><ele>754.0</ele><time>2026-04-25T11:53:00.91Z</time></trkpt><trkpt lat="43.4161017" lon="12.76538"><ele>754.0</ele><time>2026-04-25T11:53:01.917Z</time></trkpt><trkpt lat="43.4162033" lon="12.765465"><ele>754.0</ele><time>2026-04-25T11:53:03.904Z</time></trkpt><trkpt lat="43.4163133" lon="12.7655517"><ele>754.0</ele><time>2026-04-25T11:53:05.911Z</time></trkpt><trkpt lat="43.41637" lon="12.765595"><ele>754.0</ele><time>2026-04-25T11:53:06.909Z</time></trkpt><trkpt lat="43.4164767" lon="12.7656617"><ele>747.6666666666667</ele><time>2026-04-25T11:53:08.908Z</time></trkpt><trkpt lat="43.4165717" lon="12.7656983"><ele>741.3333333333334</ele><time>2026-04-25T11:53:10.957Z</time></trkpt><trkpt lat="43.416645" lon="12.7657317"><ele>735.0</ele><time>2026-04-25T11:53:12.907Z</time></trkpt><trkpt lat="43.41673" lon="12.765765"><ele>728.6666666666666</ele><time>2026-04-25T11:53:14.906Z</time></trkpt><trkpt lat="43.4168317" lon="12.7657683"><ele>722.3333333333333</ele><time>2026-04-25T11:53:16.956Z</time></trkpt><trkpt lat="43.4169" lon="12.765815"><ele>716.0</ele><time>2026-04-25T11:53:18.906Z</time></trkpt><trkpt lat="43.4169567" lon="12.7658683"><ele>716.0</ele><time>2026-04-25T11:53:20.901Z</time></trkpt><trkpt lat="43.4170583" lon="12.7659183"><ele>716.0</ele><time>2026-04-25T11:53:22.969Z</time></trkpt><trkpt lat="43.4171217" lon="12.7659467"><ele>716.0</ele><time>2026-04-25T11:53:23.902Z</time></trkpt><trkpt lat="43.4172033" lon="12.766"><ele>716.0</ele><time>2026-04-25T11:53:25.903Z</time></trkpt><trkpt lat="43.4172867" lon="12.7660483"><ele>716.0</ele><time>2026-04-25T11:53:27.91Z</time></trkpt><trkpt lat="43.4173567" lon="12.7661083"><ele>716.0</ele><time>2026-04-25T11:53:29.901Z</time></trkpt><trkpt lat="43.417425" lon="12.76621"><ele>715.8</ele><time>2026-04-25T11:53:31.905Z</time></trkpt><trkpt lat="43.4174867" lon="12.7663517"><ele>715.5999999999999</ele><time>2026-04-25T11:53:33.91Z</time></trkpt><trkpt lat="43.4175233" lon="12.7664767"><ele>715.4</ele><time>2026-04-25T11:53:35.908Z</time></trkpt><trkpt lat="43.417565" lon="12.76657"><ele>715.2</ele><time>2026-04-25T11:53:38.915Z</time></trkpt><trkpt lat="43.4176233" lon="12.7666333"><ele>715.0</ele><time>2026-04-25T11:53:42.91Z</time></trkpt><trkpt lat="43.4176733" lon="12.7667533"><ele>715.0</ele><time>2026-04-25T11:53:45.912Z</time></trkpt><trkpt lat="43.4177267" lon="12.7668533"><ele>715.0</ele><time>2026-04-25T11:53:47.909Z</time></trkpt><trkpt lat="43.417795" lon="12.7669683"><ele>715.0</ele><time>2026-04-25T11:53:49.907Z</time></trkpt><trkpt lat="43.4178617" lon="12.7670783"><ele>715.0</ele><time>2026-04-25T11:53:51.91Z</time></trkpt><trkpt lat="43.4179217" lon="12.767185"><ele>715.0</ele><time>2026-04-25T11:53:53.913Z</time></trkpt><trkpt lat="43.4179917" lon="12.76732"><ele>714.4</ele><time>2026-04-25T11:53:55.902Z</time></trkpt><trkpt lat="43.41804" lon="12.7673817"><ele>713.8</ele><time>2026-04-25T11:53:56.909Z</time></trkpt><trkpt lat="43.4181133" lon="12.7675067"><ele>713.2</ele><time>2026-04-25T11:53:58.963Z</time></trkpt><trkpt lat="43.4181633" lon="12.7676367"><ele>712.6</ele><time>2026-04-25T11:54:00.906Z</time></trkpt><trkpt lat="43.418225" lon="12.76776"><ele>712.0</ele><time>2026-04-25T11:54:02.91Z</time></trkpt><trkpt lat="43.4182583" lon="12.7678533"><ele>712.0</ele><time>2026-04-25T11:54:04.954Z</time></trkpt><trkpt lat="43.418315" lon="12.767945"><ele>712.0</ele><time>2026-04-25T11:54:07.906Z</time></trkpt><trkpt lat="43.4183383" lon="12.7680333"><ele>712.0</ele><time>2026-04-25T11:54:09.907Z</time></trkpt><trkpt lat="43.4183733" lon="12.76813"><ele>712.0</ele><time>2026-04-25T11:54:12.903Z</time></trkpt><trkpt lat="43.4184" lon="12.7682217"><ele>712.0</ele><time>2026-04-25T11:54:14.909Z</time></trkpt><trkpt lat="43.4183933" lon="12.7683383"><ele>712.0</ele><time>2026-04-25T11:54:16.953Z</time></trkpt><trkpt lat="43.418345" lon="12.7684583"><ele>711.5</ele><time>2026-04-25T11:54:18.908Z</time></trkpt><trkpt lat="43.418275" lon="12.7685767"><ele>711.0</ele><time>2026-04-25T11:54:20.908Z</time></trkpt><trkpt lat="43.4182183" lon="12.76869"><ele>710.5</ele><time>2026-04-25T11:54:22.973Z</time></trkpt><trkpt lat="43.4181517" lon="12.7687233"><ele>710.0</ele><time>2026-04-25T11:54:48.906Z</time></trkpt><trkpt lat="43.418085" lon="12.7686933"><ele>709.5</ele><time>2026-04-25T11:54:52.975Z</time></trkpt><trkpt lat="43.4180167" lon="12.76868"><ele>709.0</ele><time>2026-04-25T11:54:54.904Z</time></trkpt><trkpt lat="43.4179383" lon="12.768645"><ele>710.3333333333334</ele><time>2026-04-25T11:54:56.908Z</time></trkpt><trkpt lat="43.4178517" lon="12.76859"><ele>711.6666666666667</ele><time>2026-04-25T11:54:58.965Z</time></trkpt><trkpt lat="43.4177933" lon="12.768535"><ele>713.0</ele><time>2026-04-25T11:55:00.912Z</time></trkpt><trkpt lat="43.4177417" lon="12.7684783"><ele>714.3333333333334</ele><time>2026-04-25T11:55:02.915Z</time></trkpt><trkpt lat="43.41769" lon="12.7684067"><ele>715.6666666666666</ele><time>2026-04-25T11:55:04.957Z</time></trkpt><trkpt lat="43.4176233" lon="12.7683583"><ele>717.0</ele><time>2026-04-25T11:55:06.903Z</time></trkpt><trkpt lat="43.4175567" lon="12.7683333"><ele>720.0</ele><time>2026-04-25T11:55:08.908Z</time></trkpt><trkpt lat="43.417495" lon="12.768285"><ele>723.0</ele><time>2026-04-25T11:55:11.901Z</time></trkpt><trkpt lat="43.4174233" lon="12.7682483"><ele>726.0</ele><time>2026-04-25T11:55:20.901Z</time></trkpt><trkpt lat="43.417365" lon="12.7682"><ele>729.0</ele><time>2026-04-25T11:55:22.97Z</time></trkpt><trkpt lat="43.417305" lon="12.7681367"><ele>732.0</ele><time>2026-04-25T11:55:24.908Z</time></trkpt><trkpt lat="43.4172433" lon="12.7680733"><ele>735.0</ele><time>2026-04-25T11:55:26.905Z</time></trkpt><trkpt lat="43.41719" lon="12.76802"><ele>738.0</ele><time>2026-04-25T11:55:28.962Z</time></trkpt><trkpt lat="43.41713" lon="12.7679733"><ele>741.2</ele><time>2026-04-25T11:55:31.903Z</time></trkpt><trkpt lat="43.41712" lon="12.767875"><ele>744.4</ele><time>2026-04-25T11:55:43.908Z</time></trkpt><trkpt lat="43.41697" lon="12.7677967"><ele>747.6</ele><time>2026-04-25T11:55:48.904Z</time></trkpt><trkpt lat="43.4168783" lon="12.7677267"><ele>750.8000000000001</ele><time>2026-04-25T11:55:50.906Z</time></trkpt><trkpt lat="43.4168217" lon="12.7676067"><ele>754.0</ele><time>2026-04-25T11:55:52.947Z</time></trkpt><trkpt lat="43.4167617" lon="12.7675133"><ele>756.0</ele><time>2026-04-25T11:55:54.908Z</time></trkpt><trkpt lat="43.4166783" lon="12.7674933"><ele>758.0</ele><time>2026-04-25T11:55:56.904Z</time></trkpt><trkpt lat="43.4166133" lon="12.7674383"><ele>760.0</ele><time>2026-04-25T11:56:00.902Z</time></trkpt><trkpt lat="43.4165333" lon="12.7673917"><ele>762.0</ele><time>2026-04-25T11:56:02.907Z</time></trkpt><trkpt lat="43.416445" lon="12.7673783"><ele>764.0</ele><time>2026-04-25T11:56:11.899Z</time></trkpt><trkpt lat="43.416365" lon="12.767315"><ele>766.0</ele><time>2026-04-25T11:56:13.903Z</time></trkpt><trkpt lat="43.416285" lon="12.7672717"><ele>768.0</ele><time>2026-04-25T11:56:15.911Z</time></trkpt><trkpt lat="43.41622" lon="12.7672317"><ele>770.0</ele><time>2026-04-25T11:56:17.907Z</time></trkpt><trkpt lat="43.4161583" lon="12.7672033"><ele>772.0</ele><time>2026-04-25T11:56:19.905Z</time></trkpt><trkpt lat="43.4160783" lon="12.767175"><ele>774.0</ele><time>2026-04-25T11:56:21.905Z</time></trkpt><trkpt lat="43.4159767" lon="12.7671717"><ele>775.9999999999999</ele><time>2026-04-25T11:56:23.901Z</time></trkpt><trkpt lat="43.4158917" lon="12.7671483"><ele>778.0</ele><time>2026-04-25T11:56:25.913Z</time></trkpt><trkpt lat="43.41581" lon="12.7671033"><ele>778.0</ele><time>2026-04-25T11:56:27.903Z</time></trkpt><trkpt lat="43.415735" lon="12.7670533"><ele>778.0</ele><time>2026-04-25T11:56:29.899Z</time></trkpt><trkpt lat="43.4156733" lon="12.767035"><ele>778.0</ele><time>2026-04-25T11:56:31.912Z</time></trkpt><trkpt lat="43.4156" lon="12.7670267"><ele>778.0</ele><time>2026-04-25T11:56:34.956Z</time></trkpt><trkpt lat="43.4156667" lon="12.76703"><ele>778.0</ele><time>2026-04-25T11:57:05.897Z</time></trkpt><trkpt lat="43.4157367" lon="12.76706"><ele>778.0</ele><time>2026-04-25T11:57:12.902Z</time></trkpt><trkpt lat="43.4157767" lon="12.76714"><ele>778.0</ele><time>2026-04-25T11:57:16.955Z</time></trkpt><trkpt lat="43.4158533" lon="12.7671317"><ele>777.9999999999999</ele><time>2026-04-25T11:57:27.906Z</time></trkpt><trkpt lat="43.4159383" lon="12.7671683"><ele>778.0</ele><time>2026-04-25T11:57:30.904Z</time></trkpt><trkpt lat="43.4160117" lon="12.7672017"><ele>778.0</ele><time>2026-04-25T11:57:33.905Z</time></trkpt><trkpt lat="43.4160983" lon="12.767225"><ele>778.0</ele><time>2026-04-25T11:57:36.903Z</time></trkpt><trkpt lat="43.41617" lon="12.76724"><ele>777.9999999999999</ele><time>2026-04-25T11:57:39.903Z</time></trkpt><trkpt lat="43.4162517" lon="12.7672633"><ele>778.0</ele><time>2026-04-25T11:57:42.909Z</time></trkpt><trkpt lat="43.4163333" lon="12.7672717"><ele>775.9999999999999</ele><time>2026-04-25T11:57:45.9Z</time></trkpt><trkpt lat="43.416415" lon="12.7673183"><ele>774.0</ele><time>2026-04-25T11:57:48.906Z</time></trkpt><trkpt lat="43.4165" lon="12.7673567"><ele>772.0</ele><time>2026-04-25T11:57:50.902Z</time></trkpt><trkpt lat="43.41657" lon="12.7673883"><ele>770.0</ele><time>2026-04-25T11:57:52.975Z</time></trkpt><trkpt lat="43.4166567" lon="12.7674717"><ele>768.0</ele><time>2026-04-25T11:58:26.906Z</time></trkpt><trkpt lat="43.4166967" lon="12.7675467"><ele>766.0</ele><time>2026-04-25T11:58:31.914Z</time></trkpt><trkpt lat="43.4167433" lon="12.7676117"><ele>766.0</ele><time>2026-04-25T11:58:36.904Z</time></trkpt><trkpt lat="43.4167883" lon="12.767685"><ele>766.0</ele><time>2026-04-25T11:58:39.901Z</time></trkpt><trkpt lat="43.4168583" lon="12.7676983"><ele>766.0</ele><time>2026-04-25T11:58:42.904Z</time></trkpt><trkpt lat="43.4169183" lon="12.767745"><ele>766.0</ele><time>2026-04-25T11:58:45.913Z</time></trkpt><trkpt lat="43.4169617" lon="12.7678133"><ele>766.0</ele><time>2026-04-25T11:58:48.904Z</time></trkpt><trkpt lat="43.4170267" lon="12.7678717"><ele>766.0</ele><time>2026-04-25T11:58:50.901Z</time></trkpt><trkpt lat="43.417095" lon="12.7678883"><ele>766.0</ele><time>2026-04-25T11:58:53.899Z</time></trkpt><trkpt lat="43.4171433" lon="12.7679633"><ele>761.3333333333334</ele><time>2026-04-25T11:58:56.902Z</time></trkpt><trkpt lat="43.417185" lon="12.768055"><ele>756.6666666666667</ele><time>2026-04-25T11:58:59.902Z</time></trkpt><trkpt lat="43.4172483" lon="12.7680983"><ele>752.0</ele><time>2026-04-25T11:59:02.908Z</time></trkpt><trkpt lat="43.41733" lon="12.7681283"><ele>747.3333333333334</ele><time>2026-04-25T11:59:05.91Z</time></trkpt><trkpt lat="43.41739" lon="12.7681867"><ele>742.6666666666666</ele><time>2026-04-25T11:59:08.904Z</time></trkpt><trkpt lat="43.4174733" lon="12.76823"><ele>738.0</ele><time>2026-04-25T11:59:11.901Z</time></trkpt><trkpt lat="43.4175433" lon="12.7682417"><ele>738.0</ele><time>2026-04-25T11:59:14.912Z</time></trkpt><trkpt lat="43.4176217" lon="12.7682567"><ele>738.0</ele><time>2026-04-25T11:59:17.908Z</time></trkpt><trkpt lat="43.41769" lon="12.76829"><ele>738.0</ele><time>2026-04-25T11:59:22.963Z</time></trkpt><trkpt lat="43.4177517" lon="12.7683767"><ele>738.0</ele><time>2026-04-25T11:59:26.902Z</time></trkpt><trkpt lat="43.4178017" lon="12.768435"><ele>738.0</ele><time>2026-04-25T11:59:29.907Z</time></trkpt><trkpt lat="43.4178467" lon="12.7685183"><ele>738.0</ele><time>2026-04-25T11:59:34.905Z</time></trkpt><trkpt lat="43.41788" lon="12.7685933"><ele>738.0</ele><time>2026-04-25T11:59:38.908Z</time></trkpt><trkpt lat="43.41796" lon="12.76861"><ele>733.8571428571429</ele><time>2026-04-25T11:59:51.904Z</time></trkpt><trkpt lat="43.4180283" lon="12.7686583"><ele>729.7142857142857</ele><time>2026-04-25T11:59:54.902Z</time></trkpt><trkpt lat="43.4180933" lon="12.76869"><ele>725.5714285714287</ele><time>2026-04-25T11:59:57.903Z</time></trkpt><trkpt lat="43.4181767" lon="12.7686967"><ele>721.4285714285714</ele><time>2026-04-25T12:00:00.901Z</time></trkpt><trkpt lat="43.41823" lon="12.7687667"><ele>717.2857142857143</ele><time>2026-04-25T12:00:04.907Z</time></trkpt><trkpt lat="43.41821" lon="12.7688517"><ele>713.1428571428572</ele><time>2026-04-25T12:00:07.911Z</time></trkpt><trkpt lat="43.4181417" lon="12.7688883"><ele>709.0</ele><time>2026-04-25T12:00:10.907Z</time></trkpt><trkpt lat="43.4180817" lon="12.76901"><ele>710.6</ele><time>2026-04-25T12:00:49.904Z</time></trkpt><trkpt lat="43.417985" lon="12.7690733"><ele>712.2</ele><time>2026-04-25T12:00:52.966Z</time></trkpt><trkpt lat="43.417885" lon="12.7691367"><ele>713.8000000000001</ele><time>2026-04-25T12:00:54.909Z</time></trkpt><trkpt lat="43.4177733" lon="12.7691417"><ele>715.4000000000001</ele><time>2026-04-25T12:00:56.904Z</time></trkpt><trkpt lat="43.4176767" lon="12.7691933"><ele>717.0</ele><time>2026-04-25T12:00:58.961Z</time></trkpt><trkpt lat="43.4175817" lon="12.7692333"><ele>717.0</ele><time>2026-04-25T12:01:00.907Z</time></trkpt><trkpt lat="43.4175233" lon="12.7692717"><ele>717.0</ele><time>2026-04-25T12:01:01.911Z</time></trkpt><trkpt lat="43.4174467" lon="12.7693233"><ele>717.0</ele><time>2026-04-25T12:01:03.911Z</time></trkpt><trkpt lat="43.417375" lon="12.7693917"><ele>717.0</ele><time>2026-04-25T12:01:05.909Z</time></trkpt><trkpt lat="43.417305" lon="12.76947"><ele>717.0</ele><time>2026-04-25T12:01:07.91Z</time></trkpt><trkpt lat="43.4172" lon="12.7695483"><ele>717.0</ele><time>2026-04-25T12:01:09.912Z</time></trkpt><trkpt lat="43.41713" lon="12.76957"><ele>714.1428571428571</ele><time>2026-04-25T12:01:10.911Z</time></trkpt><trkpt lat="43.4170683" lon="12.7696017"><ele>711.2857142857142</ele><time>2026-04-25T12:01:11.909Z</time></trkpt><trkpt lat="43.4170117" lon="12.7696433"><ele>708.4285714285714</ele><time>2026-04-25T12:01:12.908Z</time></trkpt><trkpt lat="43.4169533" lon="12.7696917"><ele>705.5714285714286</ele><time>2026-04-25T12:01:13.909Z</time></trkpt><trkpt lat="43.4169067" lon="12.76975"><ele>702.7142857142857</ele><time>2026-04-25T12:01:14.907Z</time></trkpt><trkpt lat="43.416825" lon="12.7698333"><ele>699.8571428571429</ele><time>2026-04-25T12:01:16.907Z</time></trkpt><trkpt lat="43.4167683" lon="12.7698783"><ele>697.0</ele><time>2026-04-25T12:01:18.908Z</time></trkpt><trkpt lat="43.416705" lon="12.7699333"><ele>697.0</ele><time>2026-04-25T12:01:20.918Z</time></trkpt><trkpt lat="43.4166533" lon="12.7700267"><ele>697.0</ele><time>2026-04-25T12:01:22.969Z</time></trkpt><trkpt lat="43.4166033" lon="12.7701217"><ele>697.0</ele><time>2026-04-25T12:01:24.909Z</time></trkpt><trkpt lat="43.4165417" lon="12.77017"><ele>697.0</ele><time>2026-04-25T12:01:26.911Z</time></trkpt><trkpt lat="43.41648" lon="12.77026"><ele>697.0</ele><time>2026-04-25T12:01:28.969Z</time></trkpt><trkpt lat="43.4164233" lon="12.77033"><ele>697.0</ele><time>2026-04-25T12:01:30.906Z</time></trkpt><trkpt lat="43.4163433" lon="12.77041"><ele>694.1666666666667</ele><time>2026-04-25T12:01:32.898Z</time></trkpt><trkpt lat="43.41626" lon="12.7705183"><ele>691.3333333333334</ele><time>2026-04-25T12:01:34.906Z</time></trkpt><trkpt lat="43.4162" lon="12.7705833"><ele>688.5</ele><time>2026-04-25T12:01:35.908Z</time></trkpt><trkpt lat="43.416145" lon="12.7706517"><ele>685.6666666666666</ele><time>2026-04-25T12:01:36.905Z</time></trkpt><trkpt lat="43.416095" lon="12.770715"><ele>682.8333333333333</ele><time>2026-04-25T12:01:37.911Z</time></trkpt><trkpt lat="43.4160467" lon="12.770775"><ele>680.0</ele><time>2026-04-25T12:01:38.909Z</time></trkpt><trkpt lat="43.415955" lon="12.770875"><ele>680.0</ele><time>2026-04-25T12:01:40.908Z</time></trkpt><trkpt lat="43.4158717" lon="12.7709567"><ele>680.0</ele><time>2026-04-25T12:01:42.908Z</time></trkpt><trkpt lat="43.4157967" lon="12.7710517"><ele>680.0</ele><time>2026-04-25T12:01:44.908Z</time></trkpt><trkpt lat="43.4157083" lon="12.77115"><ele>680.0</ele><time>2026-04-25T12:01:46.903Z</time></trkpt><trkpt lat="43.415645" lon="12.7712167"><ele>680.0</ele><time>2026-04-25T12:01:48.906Z</time></trkpt><trkpt lat="43.4155917" lon="12.7712917"><ele>676.1666666666666</ele><time>2026-04-25T12:01:50.909Z</time></trkpt><trkpt lat="43.4155517" lon="12.7713867"><ele>672.3333333333333</ele><time>2026-04-25T12:01:52.972Z</time></trkpt><trkpt lat="43.4155083" lon="12.7714983"><ele>668.5</ele><time>2026-04-25T12:01:54.906Z</time></trkpt><trkpt lat="43.4154433" lon="12.7716133"><ele>664.6666666666666</ele><time>2026-04-25T12:01:56.913Z</time></trkpt><trkpt lat="43.4154" lon="12.77168"><ele>660.8333333333334</ele><time>2026-04-25T12:01:57.905Z</time></trkpt><trkpt lat="43.41535" lon="12.7717383"><ele>657.0</ele><time>2026-04-25T12:01:58.969Z</time></trkpt><trkpt lat="43.41526" lon="12.7718317"><ele>654.0</ele><time>2026-04-25T12:02:00.903Z</time></trkpt><trkpt lat="43.4152017" lon="12.7718917"><ele>651.0</ele><time>2026-04-25T12:02:01.905Z</time></trkpt><trkpt lat="43.41515" lon="12.771945"><ele>648.0</ele><time>2026-04-25T12:02:02.906Z</time></trkpt><trkpt lat="43.4151017" lon="12.7720017"><ele>645.0</ele><time>2026-04-25T12:02:03.905Z</time></trkpt><trkpt lat="43.41504" lon="12.77208"><ele>642.0</ele><time>2026-04-25T12:02:05.901Z</time></trkpt><trkpt lat="43.41495" lon="12.7721467"><ele>639.0</ele><time>2026-04-25T12:02:07.911Z</time></trkpt><trkpt lat="43.4148717" lon="12.7721983"><ele>639.0</ele><time>2026-04-25T12:02:09.906Z</time></trkpt><trkpt lat="43.4147917" lon="12.7722617"><ele>639.0</ele><time>2026-04-25T12:02:11.91Z</time></trkpt><trkpt lat="43.4147133" lon="12.7723133"><ele>639.0</ele><time>2026-04-25T12:02:13.911Z</time></trkpt><trkpt lat="43.4146283" lon="12.772335"><ele>639.0</ele><time>2026-04-25T12:02:15.905Z</time></trkpt><trkpt lat="43.414535" lon="12.7724"><ele>639.0</ele><time>2026-04-25T12:02:17.906Z</time></trkpt><trkpt lat="43.41446" lon="12.7724583"><ele>637.8333333333334</ele><time>2026-04-25T12:02:19.9Z</time></trkpt><trkpt lat="43.414385" lon="12.7725283"><ele>636.6666666666666</ele><time>2026-04-25T12:02:21.909Z</time></trkpt><trkpt lat="43.4143183" lon="12.7726183"><ele>635.5</ele><time>2026-04-25T12:02:23.903Z</time></trkpt><trkpt lat="43.4142617" lon="12.7727"><ele>634.3333333333333</ele><time>2026-04-25T12:02:25.906Z</time></trkpt><trkpt lat="43.4142133" lon="12.772785"><ele>633.1666666666666</ele><time>2026-04-25T12:02:29.901Z</time></trkpt><trkpt lat="43.4141483" lon="12.7728967"><ele>632.0</ele><time>2026-04-25T12:02:32.909Z</time></trkpt><trkpt lat="43.41412" lon="12.7729767"><ele>626.4</ele><time>2026-04-25T12:02:34.899Z</time></trkpt><trkpt lat="43.4140217" lon="12.773065"><ele>620.8000000000001</ele><time>2026-04-25T12:02:36.91Z</time></trkpt><trkpt lat="43.413965" lon="12.773115"><ele>615.2</ele><time>2026-04-25T12:02:37.908Z</time></trkpt><trkpt lat="43.4138817" lon="12.77321"><ele>609.6</ele><time>2026-04-25T12:02:39.897Z</time></trkpt><trkpt lat="43.4137917" lon="12.773275"><ele>604.0</ele><time>2026-04-25T12:02:41.907Z</time></trkpt><trkpt lat="43.413715" lon="12.7733317"><ele>602.8</ele><time>2026-04-25T12:02:43.912Z</time></trkpt><trkpt lat="43.413615" lon="12.773435"><ele>601.5999999999999</ele><time>2026-04-25T12:02:45.908Z</time></trkpt><trkpt lat="43.413525" lon="12.7735083"><ele>600.4</ele><time>2026-04-25T12:02:47.9Z</time></trkpt><trkpt lat="43.4134433" lon="12.7735667"><ele>599.1999999999999</ele><time>2026-04-25T12:02:49.895Z</time></trkpt><trkpt lat="43.4133333" lon="12.7736533"><ele>598.0</ele><time>2026-04-25T12:02:51.904Z</time></trkpt><trkpt lat="43.4132483" lon="12.7737767"><ele>594.3333333333334</ele><time>2026-04-25T12:02:53.903Z</time></trkpt><trkpt lat="43.41317" lon="12.773825"><ele>590.6666666666667</ele><time>2026-04-25T12:02:55.908Z</time></trkpt><trkpt lat="43.413075" lon="12.7738867"><ele>587.0</ele><time>2026-04-25T12:02:57.901Z</time></trkpt><trkpt lat="43.4130017" lon="12.7739317"><ele>583.3333333333334</ele><time>2026-04-25T12:02:59.896Z</time></trkpt><trkpt lat="43.412955" lon="12.7739967"><ele>579.6666666666666</ele><time>2026-04-25T12:03:01.906Z</time></trkpt><trkpt lat="43.4128933" lon="12.77403"><ele>576.0</ele><time>2026-04-25T12:03:03.897Z</time></trkpt><trkpt lat="43.4128217" lon="12.77408"><ele>574.6</ele><time>2026-04-25T12:03:05.914Z</time></trkpt><trkpt lat="43.4127483" lon="12.7740783"><ele>573.2</ele><time>2026-04-25T12:03:07.901Z</time></trkpt><trkpt lat="43.4126383" lon="12.77403"><ele>571.8</ele><time>2026-04-25T12:03:09.908Z</time></trkpt><trkpt lat="43.4125233" lon="12.7739967"><ele>570.4</ele><time>2026-04-25T12:03:11.903Z</time></trkpt><trkpt lat="43.4124167" lon="12.773985"><ele>569.0</ele><time>2026-04-25T12:03:13.901Z</time></trkpt><trkpt lat="43.412305" lon="12.7739933"><ele>569.0</ele><time>2026-04-25T12:03:15.903Z</time></trkpt><trkpt lat="43.4121917" lon="12.774035"><ele>569.0</ele><time>2026-04-25T12:03:17.903Z</time></trkpt><trkpt lat="43.4120867" lon="12.774055"><ele>569.0</ele><time>2026-04-25T12:03:18.905Z</time></trkpt><trkpt lat="43.4119883" lon="12.7740683"><ele>569.0</ele><time>2026-04-25T12:03:19.909Z</time></trkpt><trkpt lat="43.41189" lon="12.7740833"><ele>569.0</ele><time>2026-04-25T12:03:20.906Z</time></trkpt><trkpt lat="43.4118" lon="12.7740817"><ele>566.5</ele><time>2026-04-25T12:03:21.895Z</time></trkpt><trkpt lat="43.41171" lon="12.774085"><ele>564.0</ele><time>2026-04-25T12:03:22.956Z</time></trkpt><trkpt lat="43.4116283" lon="12.7740683"><ele>561.5</ele><time>2026-04-25T12:03:23.899Z</time></trkpt><trkpt lat="43.4115667" lon="12.77405"><ele>559.0</ele><time>2026-04-25T12:03:24.899Z</time></trkpt><trkpt lat="43.4114667" lon="12.77395"><ele>556.5</ele><time>2026-04-25T12:03:26.908Z</time></trkpt><trkpt lat="43.4114217" lon="12.7738633"><ele>554.0</ele><time>2026-04-25T12:03:27.898Z</time></trkpt><trkpt lat="43.4113533" lon="12.7737333"><ele>553.8333333333333</ele><time>2026-04-25T12:03:29.908Z</time></trkpt><trkpt lat="43.4112783" lon="12.7736367"><ele>553.6666666666666</ele><time>2026-04-25T12:03:31.906Z</time></trkpt><trkpt lat="43.411215" lon="12.7734983"><ele>553.5</ele><time>2026-04-25T12:03:33.915Z</time></trkpt><trkpt lat="43.4111817" lon="12.7734183"><ele>553.3333333333334</ele><time>2026-04-25T12:03:34.903Z</time></trkpt><trkpt lat="43.4111433" lon="12.7733367"><ele>553.1666666666667</ele><time>2026-04-25T12:03:35.907Z</time></trkpt><trkpt lat="43.4111083" lon="12.7732567"><ele>553.0</ele><time>2026-04-25T12:03:36.905Z</time></trkpt><trkpt lat="43.41107" lon="12.7731833"><ele>553.0</ele><time>2026-04-25T12:03:37.903Z</time></trkpt><trkpt lat="43.4110383" lon="12.7730733"><ele>553.0</ele><time>2026-04-25T12:03:39.904Z</time></trkpt><trkpt lat="43.4109767" lon="12.7730017"><ele>553.0</ele><time>2026-04-25T12:03:43.898Z</time></trkpt><trkpt lat="43.4109267" lon="12.7730583"><ele>553.0</ele><time>2026-04-25T12:03:46.91Z</time></trkpt><trkpt lat="43.4108533" lon="12.7731083"><ele>553.0</ele><time>2026-04-25T12:03:49.899Z</time></trkpt><trkpt lat="43.4107667" lon="12.773145"><ele>553.0</ele><time>2026-04-25T12:03:51.898Z</time></trkpt><trkpt lat="43.41066" lon="12.7731833"><ele>553.0</ele><time>2026-04-25T12:03:53.899Z</time></trkpt><trkpt lat="43.41054" lon="12.773215"><ele>553.0</ele><time>2026-04-25T12:03:55.907Z</time></trkpt><trkpt lat="43.4104233" lon="12.773235"><ele>553.0</ele><time>2026-04-25T12:03:57.907Z</time></trkpt><trkpt lat="43.4103567" lon="12.7732317"><ele>553.0</ele><time>2026-04-25T12:03:58.97Z</time></trkpt><trkpt lat="43.4102983" lon="12.7731983"><ele>553.0</ele><time>2026-04-25T12:03:59.907Z</time></trkpt><trkpt lat="43.4102367" lon="12.7731633"><ele>553.0</ele><time>2026-04-25T12:04:00.905Z</time></trkpt><trkpt lat="43.410175" lon="12.7731267"><ele>551.3333333333334</ele><time>2026-04-25T12:04:01.91Z</time></trkpt><trkpt lat="43.4101017" lon="12.7730767"><ele>549.6666666666667</ele><time>2026-04-25T12:04:02.906Z</time></trkpt><trkpt lat="43.4100533" lon="12.7730117"><ele>548.0</ele><time>2026-04-25T12:04:03.906Z</time></trkpt><trkpt lat="43.4099883" lon="12.77294"><ele>546.3333333333334</ele><time>2026-04-25T12:04:04.897Z</time></trkpt><trkpt lat="43.4099033" lon="12.7728783"><ele>544.6666666666666</ele><time>2026-04-25T12:04:05.902Z</time></trkpt><trkpt lat="43.4098183" lon="12.7728033"><ele>543.0</ele><time>2026-04-25T12:04:06.898Z</time></trkpt><trkpt lat="43.4097183" lon="12.7727383"><ele>545.4</ele><time>2026-04-25T12:04:07.908Z</time></trkpt><trkpt lat="43.4096233" lon="12.7726633"><ele>547.8</ele><time>2026-04-25T12:04:08.906Z</time></trkpt><trkpt lat="43.4095333" lon="12.7725933"><ele>550.2</ele><time>2026-04-25T12:04:09.909Z</time></trkpt><trkpt lat="43.409445" lon="12.7725183"><ele>552.6</ele><time>2026-04-25T12:04:10.907Z</time></trkpt><trkpt lat="43.4093483" lon="12.77245"><ele>555.0</ele><time>2026-04-25T12:04:11.907Z</time></trkpt><trkpt lat="43.4092517" lon="12.7723883"><ele>555.0</ele><time>2026-04-25T12:04:12.908Z</time></trkpt><trkpt lat="43.40917" lon="12.7723517"><ele>555.0</ele><time>2026-04-25T12:04:13.914Z</time></trkpt><trkpt lat="43.40909" lon="12.7722917"><ele>555.0</ele><time>2026-04-25T12:04:14.907Z</time></trkpt><trkpt lat="43.4090033" lon="12.7722317"><ele>555.0</ele><time>2026-04-25T12:04:15.913Z</time></trkpt><trkpt lat="43.4089233" lon="12.7721683"><ele>555.0</ele><time>2026-04-25T12:04:16.899Z</time></trkpt><trkpt lat="43.4088383" lon="12.7721033"><ele>556.5</ele><time>2026-04-25T12:04:17.905Z</time></trkpt><trkpt lat="43.4087433" lon="12.7720433"><ele>558.0</ele><time>2026-04-25T12:04:18.906Z</time></trkpt><trkpt lat="43.4086467" lon="12.771975"><ele>559.5</ele><time>2026-04-25T12:04:19.908Z</time></trkpt><trkpt lat="43.4085317" lon="12.7719133"><ele>561.0</ele><time>2026-04-25T12:04:20.904Z</time></trkpt><trkpt lat="43.408405" lon="12.7718517"><ele>561.0</ele><time>2026-04-25T12:04:21.903Z</time></trkpt><trkpt lat="43.40827" lon="12.7717833"><ele>561.0</ele><time>2026-04-25T12:04:22.967Z</time></trkpt><trkpt lat="43.4081267" lon="12.771705"><ele>561.0</ele><time>2026-04-25T12:04:23.9Z</time></trkpt><trkpt lat="43.40799" lon="12.7716167"><ele>561.0</ele><time>2026-04-25T12:04:24.91Z</time></trkpt><trkpt lat="43.4078533" lon="12.7715367"><ele>556.3333333333334</ele><time>2026-04-25T12:04:25.908Z</time></trkpt><trkpt lat="43.4077117" lon="12.7714667"><ele>551.6666666666667</ele><time>2026-04-25T12:04:26.91Z</time></trkpt><trkpt lat="43.4075617" lon="12.77141"><ele>547.0</ele><time>2026-04-25T12:04:27.906Z</time></trkpt><trkpt lat="43.4074083" lon="12.7713567"><ele>547.0</ele><time>2026-04-25T12:04:28.967Z</time></trkpt><trkpt lat="43.4072517" lon="12.7713217"><ele>547.0</ele><time>2026-04-25T12:04:29.898Z</time></trkpt><trkpt lat="43.4070967" lon="12.7712967"><ele>547.0</ele><time>2026-04-25T12:04:30.906Z</time></trkpt><trkpt lat="43.4069417" lon="12.77128"><ele>542.3333333333334</ele><time>2026-04-25T12:04:31.9Z</time></trkpt><trkpt lat="43.406785" lon="12.7712833"><ele>537.6666666666666</ele><time>2026-04-25T12:04:32.908Z</time></trkpt><trkpt lat="43.4066333" lon="12.7713"><ele>533.0</ele><time>2026-04-25T12:04:33.902Z</time></trkpt><trkpt lat="43.4064883" lon="12.7713233"><ele>533.0</ele><time>2026-04-25T12:04:34.905Z</time></trkpt><trkpt lat="43.406355" lon="12.771355"><ele>533.0</ele><time>2026-04-25T12:04:35.941Z</time></trkpt><trkpt lat="43.4062267" lon="12.7713933"><ele>533.0</ele><time>2026-04-25T12:04:36.902Z</time></trkpt><trkpt lat="43.4060917" lon="12.771445"><ele>533.0</ele><time>2026-04-25T12:04:37.905Z</time></trkpt><trkpt lat="43.4057183" lon="12.771565"><ele>532.75</ele><time>2026-04-25T12:04:40.901Z</time></trkpt><trkpt lat="43.40561" lon="12.7715533"><ele>532.5</ele><time>2026-04-25T12:04:41.907Z</time></trkpt><trkpt lat="43.405495" lon="12.7715367"><ele>532.25</ele><time>2026-04-25T12:04:42.907Z</time></trkpt><trkpt lat="43.40538" lon="12.7714617"><ele>532.0</ele><time>2026-04-25T12:04:43.905Z</time></trkpt><trkpt lat="43.4052633" lon="12.7713933"><ele>528.75</ele><time>2026-04-25T12:04:44.9Z</time></trkpt><trkpt lat="43.4051417" lon="12.771325"><ele>525.5</ele><time>2026-04-25T12:04:45.908Z</time></trkpt><trkpt lat="43.405025" lon="12.771245"><ele>522.25</ele><time>2026-04-25T12:04:46.91Z</time></trkpt><trkpt lat="43.4049117" lon="12.7711667"><ele>519.0</ele><time>2026-04-25T12:04:47.905Z</time></trkpt><trkpt lat="43.40479" lon="12.7710933"><ele>519.5</ele><time>2026-04-25T12:04:48.902Z</time></trkpt><trkpt lat="43.40467" lon="12.771015"><ele>520.0</ele><time>2026-04-25T12:04:49.908Z</time></trkpt><trkpt lat="43.4045433" lon="12.7709467"><ele>520.5</ele><time>2026-04-25T12:04:50.909Z</time></trkpt><trkpt lat="43.40443" lon="12.7708517"><ele>521.0</ele><time>2026-04-25T12:04:51.916Z</time></trkpt><trkpt lat="43.40432" lon="12.770755"><ele>521.0</ele><time>2026-04-25T12:04:52.962Z</time></trkpt><trkpt lat="43.4042117" lon="12.7706583"><ele>521.0</ele><time>2026-04-25T12:04:53.9Z</time></trkpt><trkpt lat="43.404105" lon="12.7705667"><ele>521.0</ele><time>2026-04-25T12:04:54.907Z</time></trkpt><trkpt lat="43.4040017" lon="12.7704683"><ele>521.0</ele><time>2026-04-25T12:04:55.904Z</time></trkpt><trkpt lat="43.4039017" lon="12.7703717"><ele>516.75</ele><time>2026-04-25T12:04:56.913Z</time></trkpt><trkpt lat="43.4038067" lon="12.770275"><ele>512.5</ele><time>2026-04-25T12:04:57.899Z</time></trkpt><trkpt lat="43.4037167" lon="12.7701733"><ele>508.25</ele><time>2026-04-25T12:04:58.965Z</time></trkpt><trkpt lat="43.4036267" lon="12.770055"><ele>504.0</ele><time>2026-04-25T12:04:59.908Z</time></trkpt><trkpt lat="43.4035517" lon="12.7699417"><ele>504.0</ele><time>2026-04-25T12:05:00.904Z</time></trkpt><trkpt lat="43.4035033" lon="12.7698083"><ele>504.0</ele><time>2026-04-25T12:05:01.9Z</time></trkpt><trkpt lat="43.4035033" lon="12.7696817"><ele>504.0</ele><time>2026-04-25T12:05:02.905Z</time></trkpt><trkpt lat="43.4035217" lon="12.76955"><ele>504.0</ele><time>2026-04-25T12:05:03.909Z</time></trkpt><trkpt lat="43.403565" lon="12.7694033"><ele>504.0</ele><time>2026-04-25T12:05:04.899Z</time></trkpt><trkpt lat="43.4036417" lon="12.7692417"><ele>500.0</ele><time>2026-04-25T12:05:05.904Z</time></trkpt><trkpt lat="43.4037283" lon="12.769065"><ele>496.0</ele><time>2026-04-25T12:05:06.903Z</time></trkpt><trkpt lat="43.4038183" lon="12.7688933"><ele>492.0</ele><time>2026-04-25T12:05:07.905Z</time></trkpt><trkpt lat="43.4039183" lon="12.768735"><ele>496.33333333333337</ele><time>2026-04-25T12:05:08.909Z</time></trkpt><trkpt lat="43.4040167" lon="12.7685733"><ele>500.6666666666667</ele><time>2026-04-25T12:05:09.907Z</time></trkpt><trkpt lat="43.404125" lon="12.7684217"><ele>505.0</ele><time>2026-04-25T12:05:10.901Z</time></trkpt><trkpt lat="43.4042367" lon="12.7682833"><ele>505.0</ele><time>2026-04-25T12:05:11.904Z</time></trkpt><trkpt lat="43.404345" lon="12.768145"><ele>505.0</ele><time>2026-04-25T12:05:12.908Z</time></trkpt><trkpt lat="43.4044467" lon="12.7680083"><ele>505.0</ele><time>2026-04-25T12:05:13.907Z</time></trkpt><trkpt lat="43.4045417" lon="12.767865"><ele>505.0</ele><time>2026-04-25T12:05:14.906Z</time></trkpt><trkpt lat="43.4046267" lon="12.7677317"><ele>506.83333333333337</ele><time>2026-04-25T12:05:15.9Z</time></trkpt><trkpt lat="43.4047017" lon="12.7676267"><ele>508.6666666666667</ele><time>2026-04-25T12:05:16.913Z</time></trkpt><trkpt lat="43.4047617" lon="12.7675533"><ele>510.5</ele><time>2026-04-25T12:05:17.905Z</time></trkpt><trkpt lat="43.404805" lon="12.7674733"><ele>512.3333333333334</ele><time>2026-04-25T12:05:18.901Z</time></trkpt><trkpt lat="43.4048383" lon="12.76733"><ele>514.1666666666666</ele><time>2026-04-25T12:05:20.9Z</time></trkpt><trkpt lat="43.40477" lon="12.7673317"><ele>516.0</ele><time>2026-04-25T12:05:22.961Z</time></trkpt><trkpt lat="43.4046917" lon="12.7674433"><ele>512.3333333333334</ele><time>2026-04-25T12:05:23.898Z</time></trkpt><trkpt lat="43.4046017" lon="12.76758"><ele>508.6666666666667</ele><time>2026-04-25T12:05:24.905Z</time></trkpt><trkpt lat="43.4044933" lon="12.767735"><ele>505.0</ele><time>2026-04-25T12:05:25.902Z</time></trkpt><trkpt lat="43.4043517" lon="12.767905"><ele>505.0</ele><time>2026-04-25T12:05:26.904Z</time></trkpt><trkpt lat="43.4042367" lon="12.7680517"><ele>505.0</ele><time>2026-04-25T12:05:27.903Z</time></trkpt><trkpt lat="43.404125" lon="12.7681683"><ele>505.0</ele><time>2026-04-25T12:05:28.967Z</time></trkpt><trkpt lat="43.4040083" lon="12.7682733"><ele>505.0</ele><time>2026-04-25T12:05:29.899Z</time></trkpt><trkpt lat="43.4038833" lon="12.7683867"><ele>501.75</ele><time>2026-04-25T12:05:30.909Z</time></trkpt><trkpt lat="43.403765" lon="12.768495"><ele>498.5</ele><time>2026-04-25T12:05:31.902Z</time></trkpt><trkpt lat="43.40365" lon="12.768605"><ele>495.25</ele><time>2026-04-25T12:05:32.904Z</time></trkpt><trkpt lat="43.403545" lon="12.7687283"><ele>492.0</ele><time>2026-04-25T12:05:33.907Z</time></trkpt><trkpt lat="43.4033933" lon="12.7688"><ele>492.0</ele><time>2026-04-25T12:05:34.903Z</time></trkpt><trkpt lat="43.4032967" lon="12.7689383"><ele>492.0</ele><time>2026-04-25T12:05:35.893Z</time></trkpt><trkpt lat="43.4032067" lon="12.76907"><ele>492.0</ele><time>2026-04-25T12:05:36.897Z</time></trkpt><trkpt lat="43.403135" lon="12.7692117"><ele>492.0</ele><time>2026-04-25T12:05:37.908Z</time></trkpt><trkpt lat="43.4030533" lon="12.769345"><ele>485.5</ele><time>2026-04-25T12:05:38.905Z</time></trkpt><trkpt lat="43.40298" lon="12.769485"><ele>479.0</ele><time>2026-04-25T12:05:39.908Z</time></trkpt><trkpt lat="43.402905" lon="12.7696217"><ele>472.5</ele><time>2026-04-25T12:05:40.908Z</time></trkpt><trkpt lat="43.402905" lon="12.7696217"><ele>466.0</ele><time>2026-04-25T12:05:40.908Z</time></trkpt><trkpt lat="43.3997233" lon="12.7513733"><ele>476.00000000000006</ele><time>2026-04-25T12:11:02.935Z</time></trkpt><trkpt lat="43.39978" lon="12.751315"><ele>486.0</ele><time>2026-04-25T12:12:01.91Z</time></trkpt><trkpt lat="43.399695" lon="12.75136"><ele>496.0</ele><time>2026-04-25T12:12:21.9Z</time></trkpt><trkpt lat="43.3996233" lon="12.7513067"><ele>506.0</ele><time>2026-04-25T12:12:23.904Z</time></trkpt><trkpt lat="43.3995667" lon="12.7512417"><ele>516.0</ele><time>2026-04-25T12:12:25.898Z</time></trkpt><trkpt lat="43.3994833" lon="12.751205"><ele>526.0</ele><time>2026-04-25T12:12:27.899Z</time></trkpt><trkpt lat="43.3993833" lon="12.751255"><ele>526.0</ele><time>2026-04-25T12:12:29.895Z</time></trkpt><trkpt lat="43.3993" lon="12.751325"><ele>526.0</ele><time>2026-04-25T12:12:31.905Z</time></trkpt><trkpt lat="43.3992383" lon="12.7513567"><ele>526.0</ele><time>2026-04-25T12:12:32.902Z</time></trkpt><trkpt lat="43.3991733" lon="12.7513917"><ele>526.0</ele><time>2026-04-25T12:12:35.904Z</time></trkpt><trkpt lat="43.399165" lon="12.7515183"><ele>526.0</ele><time>2026-04-25T12:12:37.902Z</time></trkpt><trkpt lat="43.3991783" lon="12.7516317"><ele>526.0</ele><time>2026-04-25T12:12:40.923Z</time></trkpt><trkpt lat="43.399205" lon="12.75155"><ele>526.0</ele><time>2026-04-25T12:12:44.904Z</time></trkpt><trkpt lat="43.39922" lon="12.7514483"><ele>526.0</ele><time>2026-04-25T12:12:46.924Z</time></trkpt><trkpt lat="43.3992583" lon="12.751335"><ele>526.0</ele><time>2026-04-25T12:12:48.905Z</time></trkpt><trkpt lat="43.3993683" lon="12.7512817"><ele>526.0</ele><time>2026-04-25T12:12:50.911Z</time></trkpt><trkpt lat="43.3994567" lon="12.7512817"><ele>526.0</ele><time>2026-04-25T12:12:52.964Z</time></trkpt><trkpt lat="43.399565" lon="12.7513183"><ele>526.0</ele><time>2026-04-25T12:12:54.905Z</time></trkpt><trkpt lat="43.3996833" lon="12.7514017"><ele>526.0</ele><time>2026-04-25T12:12:57.904Z</time></trkpt><trkpt lat="43.3997633" lon="12.7513767"><ele>526.0</ele><time>2026-04-25T12:12:58.952Z</time></trkpt><trkpt lat="43.3998483" lon="12.7513583"><ele>526.0</ele><time>2026-04-25T12:12:59.902Z</time></trkpt><trkpt lat="43.399925" lon="12.7513217"><ele>526.0</ele><time>2026-04-25T12:13:00.906Z</time></trkpt><trkpt lat="43.4000117" lon="12.75127"><ele>526.0</ele><time>2026-04-25T12:13:01.902Z</time></trkpt><trkpt lat="43.4000967" lon="12.7512217"><ele>526.0</ele><time>2026-04-25T12:13:02.904Z</time></trkpt><trkpt lat="43.4001783" lon="12.751175"><ele>526.0</ele><time>2026-04-25T12:13:03.904Z</time></trkpt><trkpt lat="43.4002667" lon="12.7511317"><ele>526.0</ele><time>2026-04-25T12:13:04.919Z</time></trkpt><trkpt lat="43.4003567" lon="12.7510833"><ele>526.0</ele><time>2026-04-25T12:13:05.899Z</time></trkpt><trkpt lat="43.4004467" lon="12.7510467"><ele>527.2</ele><time>2026-04-25T12:13:06.902Z</time></trkpt><trkpt lat="43.4005333" lon="12.7510183"><ele>528.4000000000001</ele><time>2026-04-25T12:13:07.902Z</time></trkpt><trkpt lat="43.4006233" lon="12.750995"><ele>529.6</ele><time>2026-04-25T12:13:08.9Z</time></trkpt><trkpt lat="43.4007217" lon="12.750965"><ele>530.8000000000001</ele><time>2026-04-25T12:13:09.904Z</time></trkpt><trkpt lat="43.4008167" lon="12.7509233"><ele>532.0</ele><time>2026-04-25T12:13:10.929Z</time></trkpt><trkpt lat="43.400915" lon="12.7508883"><ele>532.0</ele><time>2026-04-25T12:13:11.903Z</time></trkpt><trkpt lat="43.4010183" lon="12.7508617"><ele>532.0</ele><time>2026-04-25T12:13:12.899Z</time></trkpt><trkpt lat="43.401225" lon="12.7508533"><ele>532.0</ele><time>2026-04-25T12:13:14.907Z</time></trkpt><trkpt lat="43.4013317" lon="12.750865"><ele>532.0</ele><time>2026-04-25T12:13:15.902Z</time></trkpt><trkpt lat="43.401435" lon="12.7508917"><ele>534.3333333333334</ele><time>2026-04-25T12:13:16.921Z</time></trkpt><trkpt lat="43.401535" lon="12.75093"><ele>536.6666666666666</ele><time>2026-04-25T12:13:17.901Z</time></trkpt><trkpt lat="43.4017433" lon="12.75102"><ele>539.0</ele><time>2026-04-25T12:13:19.901Z</time></trkpt><trkpt lat="43.4021133" lon="12.7511517"><ele>542.3333333333333</ele><time>2026-04-25T12:13:22.959Z</time></trkpt><trkpt lat="43.4022567" lon="12.751205"><ele>545.6666666666666</ele><time>2026-04-25T12:13:23.896Z</time></trkpt><trkpt lat="43.4024017" lon="12.751265"><ele>549.0</ele><time>2026-04-25T12:13:24.906Z</time></trkpt><trkpt lat="43.4025433" lon="12.751345"><ele>549.0</ele><time>2026-04-25T12:13:25.899Z</time></trkpt><trkpt lat="43.4026833" lon="12.751425"><ele>549.0</ele><time>2026-04-25T12:13:26.905Z</time></trkpt><trkpt lat="43.40282" lon="12.7514933"><ele>549.0</ele><time>2026-04-25T12:13:27.903Z</time></trkpt><trkpt lat="43.40296" lon="12.7515383"><ele>549.0</ele><time>2026-04-25T12:13:28.951Z</time></trkpt><trkpt lat="43.4031017" lon="12.7515583"><ele>552.6666666666666</ele><time>2026-04-25T12:13:29.898Z</time></trkpt><trkpt lat="43.4032483" lon="12.751555"><ele>556.3333333333333</ele><time>2026-04-25T12:13:30.899Z</time></trkpt><trkpt lat="43.4033833" lon="12.7514483"><ele>560.0</ele><time>2026-04-25T12:13:31.902Z</time></trkpt><trkpt lat="43.403525" lon="12.7513867"><ele>560.0</ele><time>2026-04-25T12:13:32.899Z</time></trkpt><trkpt lat="43.4036683" lon="12.7513167"><ele>560.0</ele><time>2026-04-25T12:13:33.905Z</time></trkpt><trkpt lat="43.4038" lon="12.751255"><ele>560.0</ele><time>2026-04-25T12:13:34.918Z</time></trkpt><trkpt lat="43.40392" lon="12.7511833"><ele>560.0</ele><time>2026-04-25T12:13:35.901Z</time></trkpt><trkpt lat="43.4040417" lon="12.751095"><ele>563.25</ele><time>2026-04-25T12:13:36.9Z</time></trkpt><trkpt lat="43.4041583" lon="12.750995"><ele>566.5</ele><time>2026-04-25T12:13:37.899Z</time></trkpt><trkpt lat="43.40427" lon="12.7508983"><ele>569.75</ele><time>2026-04-25T12:13:38.904Z</time></trkpt><trkpt lat="43.4043733" lon="12.750815"><ele>573.0</ele><time>2026-04-25T12:13:39.901Z</time></trkpt><trkpt lat="43.404485" lon="12.75073"><ele>573.0</ele><time>2026-04-25T12:13:40.916Z</time></trkpt><trkpt lat="43.404585" lon="12.7506767"><ele>573.0</ele><time>2026-04-25T12:13:41.904Z</time></trkpt><trkpt lat="43.4046817" lon="12.75063"><ele>573.0</ele><time>2026-04-25T12:13:42.904Z</time></trkpt><trkpt lat="43.4047667" lon="12.7506117"><ele>573.0</ele><time>2026-04-25T12:13:43.908Z</time></trkpt><trkpt lat="43.4048517" lon="12.7506483"><ele>573.0</ele><time>2026-04-25T12:13:44.898Z</time></trkpt><trkpt lat="43.404945" lon="12.7507067"><ele>573.0</ele><time>2026-04-25T12:13:45.906Z</time></trkpt><trkpt lat="43.4050417" lon="12.7507833"><ele>573.0</ele><time>2026-04-25T12:13:46.92Z</time></trkpt><trkpt lat="43.4051433" lon="12.7508683"><ele>573.0</ele><time>2026-04-25T12:13:47.898Z</time></trkpt><trkpt lat="43.40525" lon="12.7509583"><ele>573.0</ele><time>2026-04-25T12:13:48.898Z</time></trkpt><trkpt lat="43.405355" lon="12.751055"><ele>571.75</ele><time>2026-04-25T12:13:49.895Z</time></trkpt><trkpt lat="43.4054667" lon="12.7511633"><ele>570.5</ele><time>2026-04-25T12:13:50.904Z</time></trkpt><trkpt lat="43.4055783" lon="12.7512783"><ele>569.25</ele><time>2026-04-25T12:13:51.913Z</time></trkpt><trkpt lat="43.405685" lon="12.7514133"><ele>568.0</ele><time>2026-04-25T12:13:52.958Z</time></trkpt><trkpt lat="43.405785" lon="12.751555"><ele>568.0</ele><time>2026-04-25T12:13:53.899Z</time></trkpt><trkpt lat="43.4058817" lon="12.7516983"><ele>568.0</ele><time>2026-04-25T12:13:54.898Z</time></trkpt><trkpt lat="43.4059783" lon="12.7518183"><ele>568.0</ele><time>2026-04-25T12:13:55.904Z</time></trkpt><trkpt lat="43.4060883" lon="12.7519167"><ele>568.0</ele><time>2026-04-25T12:13:56.9Z</time></trkpt><trkpt lat="43.4062283" lon="12.751945"><ele>568.3333333333334</ele><time>2026-04-25T12:13:57.902Z</time></trkpt><trkpt lat="43.4063817" lon="12.7519283"><ele>568.6666666666666</ele><time>2026-04-25T12:13:58.954Z</time></trkpt><trkpt lat="43.4065383" lon="12.7518917"><ele>569.0</ele><time>2026-04-25T12:13:59.901Z</time></trkpt><trkpt lat="43.4066933" lon="12.7518333"><ele>569.0</ele><time>2026-04-25T12:14:00.902Z</time></trkpt><trkpt lat="43.4068517" lon="12.75176"><ele>569.0</ele><time>2026-04-25T12:14:01.903Z</time></trkpt><trkpt lat="43.4069967" lon="12.75168"><ele>569.0</ele><time>2026-04-25T12:14:02.9Z</time></trkpt><trkpt lat="43.4071317" lon="12.7515983"><ele>570.0</ele><time>2026-04-25T12:14:03.9Z</time></trkpt><trkpt lat="43.4072617" lon="12.7515183"><ele>571.0</ele><time>2026-04-25T12:14:04.921Z</time></trkpt><trkpt lat="43.4073917" lon="12.7514383"><ele>572.0</ele><time>2026-04-25T12:14:05.9Z</time></trkpt><trkpt lat="43.4075217" lon="12.7513633"><ele>573.0</ele><time>2026-04-25T12:14:06.903Z</time></trkpt><trkpt lat="43.4076517" lon="12.75131"><ele>573.0</ele><time>2026-04-25T12:14:07.898Z</time></trkpt><trkpt lat="43.40778" lon="12.75127"><ele>573.0</ele><time>2026-04-25T12:14:08.897Z</time></trkpt><trkpt lat="43.407905" lon="12.75124"><ele>573.0</ele><time>2026-04-25T12:14:09.902Z</time></trkpt><trkpt lat="43.4080283" lon="12.7512117"><ele>573.0</ele><time>2026-04-25T12:14:10.919Z</time></trkpt><trkpt lat="43.40814" lon="12.7511833"><ele>573.8</ele><time>2026-04-25T12:14:11.898Z</time></trkpt><trkpt lat="43.408245" lon="12.7511483"><ele>574.5999999999999</ele><time>2026-04-25T12:14:12.899Z</time></trkpt><trkpt lat="43.40833" lon="12.7510983"><ele>575.4000000000001</ele><time>2026-04-25T12:14:13.901Z</time></trkpt><trkpt lat="43.4083317" lon="12.7509383"><ele>576.2</ele><time>2026-04-25T12:14:15.906Z</time></trkpt><trkpt lat="43.4082517" lon="12.7508667"><ele>577.0</ele><time>2026-04-25T12:14:16.913Z</time></trkpt><trkpt lat="43.4080183" lon="12.7508283"><ele>569.75</ele><time>2026-04-25T12:14:17.901Z</time></trkpt><trkpt lat="43.4078983" lon="12.7508167"><ele>562.5</ele><time>2026-04-25T12:14:18.901Z</time></trkpt><trkpt lat="43.4077717" lon="12.7508083"><ele>555.25</ele><time>2026-04-25T12:14:19.899Z</time></trkpt><trkpt lat="43.4076383" lon="12.7508033"><ele>548.0</ele><time>2026-04-25T12:14:20.903Z</time></trkpt><trkpt lat="43.4075033" lon="12.7508"><ele>548.0</ele><time>2026-04-25T12:14:21.9Z</time></trkpt><trkpt lat="43.4073733" lon="12.7508"><ele>548.0</ele><time>2026-04-25T12:14:22.957Z</time></trkpt><trkpt lat="43.40725" lon="12.7508033"><ele>548.0</ele><time>2026-04-25T12:14:23.895Z</time></trkpt><trkpt lat="43.4071383" lon="12.750795"><ele>548.0</ele><time>2026-04-25T12:14:24.906Z</time></trkpt><trkpt lat="43.407045" lon="12.7507733"><ele>548.0</ele><time>2026-04-25T12:14:25.904Z</time></trkpt><trkpt lat="43.4069967" lon="12.7507167"><ele>548.0</ele><time>2026-04-25T12:14:26.901Z</time></trkpt><trkpt lat="43.4069667" lon="12.7505767"><ele>548.0</ele><time>2026-04-25T12:14:28.968Z</time></trkpt><trkpt lat="43.4071417" lon="12.7504983"><ele>548.0</ele><time>2026-04-25T12:14:30.899Z</time></trkpt><trkpt lat="43.4072583" lon="12.7504833"><ele>548.0</ele><time>2026-04-25T12:14:31.904Z</time></trkpt><trkpt lat="43.4073917" lon="12.750465"><ele>548.0</ele><time>2026-04-25T12:14:32.902Z</time></trkpt><trkpt lat="43.4075367" lon="12.7504433"><ele>548.0</ele><time>2026-04-25T12:14:33.901Z</time></trkpt><trkpt lat="43.40768" lon="12.7504133"><ele>548.0</ele><time>2026-04-25T12:14:34.916Z</time></trkpt><trkpt lat="43.4079367" lon="12.7504083"><ele>547.3333333333333</ele><time>2026-04-25T12:14:35.897Z</time></trkpt><trkpt lat="43.4081217" lon="12.75039"><ele>546.6666666666666</ele><time>2026-04-25T12:14:36.894Z</time></trkpt><trkpt lat="43.4082967" lon="12.750375"><ele>546.0</ele><time>2026-04-25T12:14:37.899Z</time></trkpt><trkpt lat="43.4084617" lon="12.7503967"><ele>546.0</ele><time>2026-04-25T12:14:38.901Z</time></trkpt><trkpt lat="43.4086317" lon="12.7504017"><ele>546.0</ele><time>2026-04-25T12:14:39.899Z</time></trkpt><trkpt lat="43.408795" lon="12.7504217"><ele>546.0</ele><time>2026-04-25T12:14:40.917Z</time></trkpt><trkpt lat="43.4089683" lon="12.7504183"><ele>548.0</ele><time>2026-04-25T12:14:41.898Z</time></trkpt><trkpt lat="43.4091367" lon="12.75043"><ele>550.0</ele><time>2026-04-25T12:14:42.904Z</time></trkpt><trkpt lat="43.4093033" lon="12.7504483"><ele>552.0</ele><time>2026-04-25T12:14:43.896Z</time></trkpt><trkpt lat="43.4094717" lon="12.7504533"><ele>552.0</ele><time>2026-04-25T12:14:44.903Z</time></trkpt><trkpt lat="43.40966" lon="12.7504533"><ele>552.0</ele><time>2026-04-25T12:14:45.9Z</time></trkpt><trkpt lat="43.40983" lon="12.7504383"><ele>552.0</ele><time>2026-04-25T12:14:46.918Z</time></trkpt><trkpt lat="43.41" lon="12.750425"><ele>552.0</ele><time>2026-04-25T12:14:47.896Z</time></trkpt><trkpt lat="43.4101667" lon="12.750405"><ele>552.0</ele><time>2026-04-25T12:14:48.9Z</time></trkpt><trkpt lat="43.4103183" lon="12.750375"><ele>552.0</ele><time>2026-04-25T12:14:49.896Z</time></trkpt><trkpt lat="43.4104833" lon="12.750345"><ele>553.6666666666666</ele><time>2026-04-25T12:14:50.906Z</time></trkpt><trkpt lat="43.4106533" lon="12.7502967"><ele>555.3333333333333</ele><time>2026-04-25T12:14:51.897Z</time></trkpt><trkpt lat="43.4108117" lon="12.7502367"><ele>557.0</ele><time>2026-04-25T12:14:52.974Z</time></trkpt><trkpt lat="43.4109667" lon="12.7501783"><ele>545.75</ele><time>2026-04-25T12:14:53.899Z</time></trkpt><trkpt lat="43.411095" lon="12.7500983"><ele>534.5</ele><time>2026-04-25T12:14:54.9Z</time></trkpt><trkpt lat="43.4112167" lon="12.75002"><ele>523.25</ele><time>2026-04-25T12:14:55.908Z</time></trkpt><trkpt lat="43.4113433" lon="12.74994"><ele>512.0</ele><time>2026-04-25T12:14:56.904Z</time></trkpt><trkpt lat="43.411485" lon="12.749865"><ele>512.0</ele><time>2026-04-25T12:14:57.91Z</time></trkpt><trkpt lat="43.4116267" lon="12.7497833"><ele>512.0</ele><time>2026-04-25T12:14:58.954Z</time></trkpt><trkpt lat="43.411775" lon="12.74972"><ele>512.0</ele><time>2026-04-25T12:14:59.906Z</time></trkpt><trkpt lat="43.4119217" lon="12.74965"><ele>512.0</ele><time>2026-04-25T12:15:00.904Z</time></trkpt><trkpt lat="43.4120683" lon="12.7495883"><ele>512.0</ele><time>2026-04-25T12:15:01.899Z</time></trkpt><trkpt lat="43.4122067" lon="12.7495333"><ele>512.0</ele><time>2026-04-25T12:15:02.899Z</time></trkpt><trkpt lat="43.4123567" lon="12.7495083"><ele>512.0</ele><time>2026-04-25T12:15:03.894Z</time></trkpt><trkpt lat="43.412495" lon="12.7494717"><ele>511.25</ele><time>2026-04-25T12:15:04.919Z</time></trkpt><trkpt lat="43.41265" lon="12.74945"><ele>510.5</ele><time>2026-04-25T12:15:05.904Z</time></trkpt><trkpt lat="43.4127833" lon="12.7494267"><ele>509.75</ele><time>2026-04-25T12:15:06.896Z</time></trkpt><trkpt lat="43.4129067" lon="12.7494283"><ele>509.0</ele><time>2026-04-25T12:15:07.905Z</time></trkpt><trkpt lat="43.41303" lon="12.7494283"><ele>503.25</ele><time>2026-04-25T12:15:08.897Z</time></trkpt><trkpt lat="43.4131517" lon="12.749445"><ele>497.5</ele><time>2026-04-25T12:15:09.901Z</time></trkpt><trkpt lat="43.4132817" lon="12.74947"><ele>491.75</ele><time>2026-04-25T12:15:10.92Z</time></trkpt><trkpt lat="43.413415" lon="12.7495067"><ele>486.0</ele><time>2026-04-25T12:15:11.901Z</time></trkpt><trkpt lat="43.4135383" lon="12.7495533"><ele>486.0</ele><time>2026-04-25T12:15:12.904Z</time></trkpt><trkpt lat="43.4136633" lon="12.7495817"><ele>486.0</ele><time>2026-04-25T12:15:13.906Z</time></trkpt><trkpt lat="43.41379" lon="12.7495933"><ele>486.0</ele><time>2026-04-25T12:15:14.899Z</time></trkpt><trkpt lat="43.413915" lon="12.7495983"><ele>486.0</ele><time>2026-04-25T12:15:15.9Z</time></trkpt><trkpt lat="43.41404" lon="12.74958"><ele>484.20000000000005</ele><time>2026-04-25T12:15:16.924Z</time></trkpt><trkpt lat="43.414125" lon="12.749495"><ele>482.40000000000003</ele><time>2026-04-25T12:15:17.903Z</time></trkpt><trkpt lat="43.4142133" lon="12.7494283"><ele>480.6</ele><time>2026-04-25T12:15:18.899Z</time></trkpt><trkpt lat="43.4143033" lon="12.749375"><ele>478.8</ele><time>2026-04-25T12:15:19.895Z</time></trkpt><trkpt lat="43.41444" lon="12.7493767"><ele>477.0</ele><time>2026-04-25T12:15:20.91Z</time></trkpt><trkpt lat="43.41458" lon="12.7493733"><ele>477.0</ele><time>2026-04-25T12:15:21.899Z</time></trkpt><trkpt lat="43.4147317" lon="12.7493667"><ele>477.0</ele><time>2026-04-25T12:15:22.95Z</time></trkpt><trkpt lat="43.414885" lon="12.7493467"><ele>477.0</ele><time>2026-04-25T12:15:23.898Z</time></trkpt><trkpt lat="43.4150367" lon="12.7493267"><ele>477.0</ele><time>2026-04-25T12:15:24.904Z</time></trkpt><trkpt lat="43.4151533" lon="12.7493233"><ele>477.0</ele><time>2026-04-25T12:15:25.899Z</time></trkpt><trkpt lat="43.4152733" lon="12.7493417"><ele>477.0</ele><time>2026-04-25T12:15:26.897Z</time></trkpt><trkpt lat="43.4154017" lon="12.7493767"><ele>477.0</ele><time>2026-04-25T12:15:27.9Z</time></trkpt><trkpt lat="43.4155417" lon="12.7494233"><ele>484.66666666666663</ele><time>2026-04-25T12:15:28.958Z</time></trkpt><trkpt lat="43.4156783" lon="12.74947"><ele>492.3333333333333</ele><time>2026-04-25T12:15:29.897Z</time></trkpt><trkpt lat="43.4158283" lon="12.7495417"><ele>500.0</ele><time>2026-04-25T12:15:30.898Z</time></trkpt><trkpt lat="43.4159867" lon="12.7496367"><ele>500.0</ele><time>2026-04-25T12:15:31.904Z</time></trkpt><trkpt lat="43.4161283" lon="12.749745"><ele>500.0</ele><time>2026-04-25T12:15:32.904Z</time></trkpt><trkpt lat="43.4162633" lon="12.74985"><ele>500.0</ele><time>2026-04-25T12:15:33.897Z</time></trkpt><trkpt lat="43.4163883" lon="12.7499383"><ele>493.25</ele><time>2026-04-25T12:15:34.92Z</time></trkpt><trkpt lat="43.4165233" lon="12.7500083"><ele>486.5</ele><time>2026-04-25T12:15:35.898Z</time></trkpt><trkpt lat="43.4166433" lon="12.7500867"><ele>479.75</ele><time>2026-04-25T12:15:36.904Z</time></trkpt><trkpt lat="43.41676" lon="12.7501467"><ele>473.0</ele><time>2026-04-25T12:15:37.9Z</time></trkpt><trkpt lat="43.41687" lon="12.7501833"><ele>473.2</ele><time>2026-04-25T12:15:38.897Z</time></trkpt><trkpt lat="43.416965" lon="12.7502367"><ele>473.4</ele><time>2026-04-25T12:15:39.899Z</time></trkpt><trkpt lat="43.4170583" lon="12.7503017"><ele>473.59999999999997</ele><time>2026-04-25T12:15:40.921Z</time></trkpt><trkpt lat="43.4171533" lon="12.7503667"><ele>473.79999999999995</ele><time>2026-04-25T12:15:41.901Z</time></trkpt><trkpt lat="43.417255" lon="12.7504417"><ele>474.0</ele><time>2026-04-25T12:15:42.905Z</time></trkpt><trkpt lat="43.4173567" lon="12.7505183"><ele>474.0</ele><time>2026-04-25T12:15:43.899Z</time></trkpt><trkpt lat="43.4174667" lon="12.75062"><ele>474.0</ele><time>2026-04-25T12:15:44.904Z</time></trkpt><trkpt lat="43.4175783" lon="12.7507133"><ele>474.0</ele><time>2026-04-25T12:15:45.894Z</time></trkpt><trkpt lat="43.4176833" lon="12.7508283"><ele>474.0</ele><time>2026-04-25T12:15:46.919Z</time></trkpt><trkpt lat="43.4177833" lon="12.7509483"><ele>469.4</ele><time>2026-04-25T12:15:47.897Z</time></trkpt><trkpt lat="43.4178733" lon="12.7510633"><ele>464.79999999999995</ele><time>2026-04-25T12:15:48.902Z</time></trkpt><trkpt lat="43.41795" lon="12.7511783"><ele>460.20000000000005</ele><time>2026-04-25T12:15:49.9Z</time></trkpt><trkpt lat="43.41802" lon="12.7512917"><ele>455.6</ele><time>2026-04-25T12:15:50.895Z</time></trkpt><trkpt lat="43.4180483" lon="12.75143"><ele>451.0</ele><time>2026-04-25T12:15:51.899Z</time></trkpt><trkpt lat="43.4180883" lon="12.75155"><ele>451.0</ele><time>2026-04-25T12:15:52.954Z</time></trkpt><trkpt lat="43.418145" lon="12.7516717"><ele>451.0</ele><time>2026-04-25T12:15:53.897Z</time></trkpt><trkpt lat="43.4182133" lon="12.7517567"><ele>451.0</ele><time>2026-04-25T12:15:54.909Z</time></trkpt><trkpt lat="43.4182833" lon="12.7518483"><ele>451.0</ele><time>2026-04-25T12:15:55.905Z</time></trkpt><trkpt lat="43.4183567" lon="12.7519517"><ele>451.0</ele><time>2026-04-25T12:15:56.903Z</time></trkpt><trkpt lat="43.4184167" lon="12.7520733"><ele>453.25</ele><time>2026-04-25T12:15:57.899Z</time></trkpt><trkpt lat="43.4184633" lon="12.7522167"><ele>455.5</ele><time>2026-04-25T12:15:58.954Z</time></trkpt><trkpt lat="43.4185017" lon="12.7523767"><ele>457.75</ele><time>2026-04-25T12:15:59.903Z</time></trkpt><trkpt lat="43.41854" lon="12.752535"><ele>460.0</ele><time>2026-04-25T12:16:00.904Z</time></trkpt><trkpt lat="43.41856" lon="12.7526933"><ele>460.0</ele><time>2026-04-25T12:16:01.899Z</time></trkpt><trkpt lat="43.4185667" lon="12.7528433"><ele>460.0</ele><time>2026-04-25T12:16:02.9Z</time></trkpt><trkpt lat="43.4185417" lon="12.7529817"><ele>460.0</ele><time>2026-04-25T12:16:03.905Z</time></trkpt><trkpt lat="43.41853" lon="12.7531133"><ele>460.0</ele><time>2026-04-25T12:16:04.915Z</time></trkpt><trkpt lat="43.418595" lon="12.7532133"><ele>460.0</ele><time>2026-04-25T12:16:06.906Z</time></trkpt><trkpt lat="43.4186717" lon="12.7531367"><ele>460.0</ele><time>2026-04-25T12:16:08.902Z</time></trkpt><trkpt lat="43.41871" lon="12.753"><ele>460.0</ele><time>2026-04-25T12:16:09.904Z</time></trkpt><trkpt lat="43.4187533" lon="12.752745"><ele>460.0</ele><time>2026-04-25T12:16:10.927Z</time></trkpt><trkpt lat="43.4187767" lon="12.7525283"><ele>460.0</ele><time>2026-04-25T12:16:11.902Z</time></trkpt><trkpt lat="43.4187717" lon="12.752325"><ele>460.0</ele><time>2026-04-25T12:16:12.902Z</time></trkpt><trkpt lat="43.418745" lon="12.752135"><ele>460.0</ele><time>2026-04-25T12:16:13.9Z</time></trkpt><trkpt lat="43.418735" lon="12.7519683"><ele>460.0</ele><time>2026-04-25T12:16:14.896Z</time></trkpt><trkpt lat="43.41873" lon="12.751815"><ele>458.2</ele><time>2026-04-25T12:16:15.9Z</time></trkpt><trkpt lat="43.4187383" lon="12.7516767"><ele>456.4</ele><time>2026-04-25T12:16:16.918Z</time></trkpt><trkpt lat="43.4187917" lon="12.7516083"><ele>454.6</ele><time>2026-04-25T12:16:17.903Z</time></trkpt><trkpt lat="43.418865" lon="12.7515917"><ele>452.8</ele><time>2026-04-25T12:16:18.906Z</time></trkpt><trkpt lat="43.418995" lon="12.7516467"><ele>451.0</ele><time>2026-04-25T12:16:20.913Z</time></trkpt><trkpt lat="43.4190467" lon="12.7517267"><ele>444.33333333333337</ele><time>2026-04-25T12:16:21.895Z</time></trkpt><trkpt lat="43.419115" lon="12.7519733"><ele>437.66666666666663</ele><time>2026-04-25T12:16:22.965Z</time></trkpt><trkpt lat="43.4191483" lon="12.752175"><ele>431.0</ele><time>2026-04-25T12:16:23.9Z</time></trkpt><trkpt lat="43.4191917" lon="12.752365"><ele>431.0</ele><time>2026-04-25T12:16:24.899Z</time></trkpt><trkpt lat="43.419235" lon="12.7525517"><ele>431.0</ele><time>2026-04-25T12:16:25.899Z</time></trkpt><trkpt lat="43.41928" lon="12.7527333"><ele>431.0</ele><time>2026-04-25T12:16:26.9Z</time></trkpt><trkpt lat="43.4193367" lon="12.752905"><ele>431.0</ele><time>2026-04-25T12:16:27.9Z</time></trkpt><trkpt lat="43.4194117" lon="12.75306"><ele>429.75</ele><time>2026-04-25T12:16:28.952Z</time></trkpt><trkpt lat="43.4194983" lon="12.753205"><ele>428.5</ele><time>2026-04-25T12:16:29.895Z</time></trkpt><trkpt lat="43.41959" lon="12.7533417"><ele>427.25</ele><time>2026-04-25T12:16:30.899Z</time></trkpt><trkpt lat="43.4196833" lon="12.753465"><ele>426.0</ele><time>2026-04-25T12:16:31.901Z</time></trkpt><trkpt lat="43.41978" lon="12.7535767"><ele>423.0</ele><time>2026-04-25T12:16:32.908Z</time></trkpt><trkpt lat="43.419885" lon="12.753665"><ele>420.0</ele><time>2026-04-25T12:16:33.898Z</time></trkpt><trkpt lat="43.4199983" lon="12.7537383"><ele>417.0</ele><time>2026-04-25T12:16:34.918Z</time></trkpt><trkpt lat="43.420115" lon="12.7537933"><ele>414.0</ele><time>2026-04-25T12:16:35.9Z</time></trkpt><trkpt lat="43.4202417" lon="12.75382"><ele>414.0</ele><time>2026-04-25T12:16:36.898Z</time></trkpt><trkpt lat="43.4203633" lon="12.7538167"><ele>414.0</ele><time>2026-04-25T12:16:37.896Z</time></trkpt><trkpt lat="43.4204933" lon="12.75376"><ele>414.0</ele><time>2026-04-25T12:16:38.902Z</time></trkpt><trkpt lat="43.4206117" lon="12.75366"><ele>414.0</ele><time>2026-04-25T12:16:39.897Z</time></trkpt><trkpt lat="43.4206983" lon="12.75348"><ele>415.2</ele><time>2026-04-25T12:16:40.918Z</time></trkpt><trkpt lat="43.420795" lon="12.7533433"><ele>416.4</ele><time>2026-04-25T12:16:41.895Z</time></trkpt><trkpt lat="43.420895" lon="12.7532317"><ele>417.6</ele><time>2026-04-25T12:16:42.901Z</time></trkpt><trkpt lat="43.4209817" lon="12.7531683"><ele>418.8</ele><time>2026-04-25T12:16:43.902Z</time></trkpt><trkpt lat="43.42106" lon="12.753145"><ele>420.0</ele><time>2026-04-25T12:16:44.901Z</time></trkpt><trkpt lat="43.4211433" lon="12.7531767"><ele>420.0</ele><time>2026-04-25T12:16:45.9Z</time></trkpt><trkpt lat="43.42123" lon="12.753235"><ele>420.0</ele><time>2026-04-25T12:16:46.918Z</time></trkpt><trkpt lat="43.421315" lon="12.75332"><ele>420.0</ele><time>2026-04-25T12:16:47.898Z</time></trkpt><trkpt lat="43.4213833" lon="12.7534467"><ele>420.0</ele><time>2026-04-25T12:16:48.897Z</time></trkpt><trkpt lat="43.4214383" lon="12.7535633"><ele>420.0</ele><time>2026-04-25T12:16:49.901Z</time></trkpt><trkpt lat="43.42148" lon="12.75369"><ele>420.8</ele><time>2026-04-25T12:16:50.906Z</time></trkpt><trkpt lat="43.4214983" lon="12.753835"><ele>421.6</ele><time>2026-04-25T12:16:51.9Z</time></trkpt><trkpt lat="43.4215067" lon="12.75397"><ele>422.4</ele><time>2026-04-25T12:16:52.954Z</time></trkpt><trkpt lat="43.421505" lon="12.7541083"><ele>423.2</ele><time>2026-04-25T12:16:53.901Z</time></trkpt><trkpt lat="43.4214783" lon="12.7542283"><ele>424.0</ele><time>2026-04-25T12:16:54.904Z</time></trkpt><trkpt lat="43.4214533" lon="12.75432"><ele>423.0</ele><time>2026-04-25T12:16:55.901Z</time></trkpt><trkpt lat="43.4214017" lon="12.75447"><ele>422.0</ele><time>2026-04-25T12:16:57.9Z</time></trkpt><trkpt lat="43.421355" lon="12.7545383"><ele>421.0</ele><time>2026-04-25T12:16:58.957Z</time></trkpt><trkpt lat="43.4212883" lon="12.7546033"><ele>420.0</ele><time>2026-04-25T12:16:59.897Z</time></trkpt><trkpt lat="43.421185" lon="12.754655"><ele>419.0</ele><time>2026-04-25T12:17:00.898Z</time></trkpt><trkpt lat="43.4210667" lon="12.7546967"><ele>419.0</ele><time>2026-04-25T12:17:01.901Z</time></trkpt><trkpt lat="43.4209433" lon="12.7547383"><ele>419.0</ele><time>2026-04-25T12:17:02.901Z</time></trkpt><trkpt lat="43.4208367" lon="12.754805"><ele>419.0</ele><time>2026-04-25T12:17:03.901Z</time></trkpt><trkpt lat="43.420755" lon="12.7549217"><ele>419.0</ele><time>2026-04-25T12:17:04.924Z</time></trkpt><trkpt lat="43.4206983" lon="12.7550917"><ele>421.25</ele><time>2026-04-25T12:17:05.9Z</time></trkpt><trkpt lat="43.4206533" lon="12.7552767"><ele>423.5</ele><time>2026-04-25T12:17:06.901Z</time></trkpt><trkpt lat="43.4206083" lon="12.7554567"><ele>425.75</ele><time>2026-04-25T12:17:07.901Z</time></trkpt><trkpt lat="43.4205583" lon="12.755635"><ele>428.0</ele><time>2026-04-25T12:17:08.9Z</time></trkpt><trkpt lat="43.4205017" lon="12.7558083"><ele>424.75</ele><time>2026-04-25T12:17:09.905Z</time></trkpt><trkpt lat="43.4204317" lon="12.7559633"><ele>421.5</ele><time>2026-04-25T12:17:10.922Z</time></trkpt><trkpt lat="43.4203483" lon="12.7560967"><ele>418.25</ele><time>2026-04-25T12:17:11.905Z</time></trkpt><trkpt lat="43.4202583" lon="12.7562117"><ele>415.0</ele><time>2026-04-25T12:17:12.904Z</time></trkpt><trkpt lat="43.420185" lon="12.7563183"><ele>415.0</ele><time>2026-04-25T12:17:13.906Z</time></trkpt><trkpt lat="43.420105" lon="12.7564333"><ele>415.0</ele><time>2026-04-25T12:17:14.901Z</time></trkpt><trkpt lat="43.4200283" lon="12.7565567"><ele>415.0</ele><time>2026-04-25T12:17:15.9Z</time></trkpt><trkpt lat="43.4199567" lon="12.75668"><ele>415.0</ele><time>2026-04-25T12:17:16.915Z</time></trkpt><trkpt lat="43.4199133" lon="12.7568067"><ele>417.0</ele><time>2026-04-25T12:17:17.899Z</time></trkpt><trkpt lat="43.4199167" lon="12.756925"><ele>419.0</ele><time>2026-04-25T12:17:18.902Z</time></trkpt><trkpt lat="43.419985" lon="12.757005"><ele>421.0</ele><time>2026-04-25T12:17:19.898Z</time></trkpt><trkpt lat="43.42025" lon="12.7570183"><ele>423.0</ele><time>2026-04-25T12:17:20.898Z</time></trkpt><trkpt lat="43.4204483" lon="12.757055"><ele>423.0</ele><time>2026-04-25T12:17:21.901Z</time></trkpt><trkpt lat="43.420595" lon="12.75713"><ele>408.0</ele><time>2026-04-25T12:17:22.964Z</time></trkpt><trkpt lat="43.420705" lon="12.7572367"><ele>408.0</ele><time>2026-04-25T12:17:23.898Z</time></trkpt><trkpt lat="43.4207883" lon="12.7574133"><ele>408.0</ele><time>2026-04-25T12:17:24.898Z</time></trkpt></trkseg></trk></gpx>